<?xml version="1.0" encoding="UTF-8" standalone="no" ?>
<gpx xmlns="http://www.topografix.com/GPX/1/1" xmlns:xsi="http://www.w3.org/2001/XMLSchema-instance" xsi:schemaLocation="http://www.topografix.com/GPX/1/1 http://www.topografix.com/GPX/1/1/gpx.xsd" version="1.1" creator="VisuGPX - https://www.visugpx.com">
  <metadata>
    <name>ULTRA 3 COMARQUES</name>
    <desc><![CDATA[ULTRA 3 COMARQUES. ( GARROTXA- OSONA I RIPOLLES)]]></desc>
  </metadata>
  <trk>
    <name><![CDATA[Ultra3Comarques]]></name>
    <trkseg>
      <trkpt lat="42.11823" lon="2.45896">
        <ele>504.3</ele>
        <time>2018-11-25T23:00:51Z</time>
      </trkpt>
      <trkpt lat="42.11806" lon="2.45898">
        <ele>503.4</ele>
        <time>2018-11-25T23:00:57Z</time>
      </trkpt>
      <trkpt lat="42.11802" lon="2.45882">
        <ele>502</ele>
        <time>2018-11-25T23:01:02Z</time>
      </trkpt>
      <trkpt lat="42.11791" lon="2.45883">
        <ele>501.5</ele>
        <time>2018-11-25T23:01:07Z</time>
      </trkpt>
      <trkpt lat="42.11781" lon="2.45866">
        <ele>498.8</ele>
        <time>2018-11-25T23:01:13Z</time>
      </trkpt>
      <trkpt lat="42.11773" lon="2.45866">
        <ele>497.9</ele>
        <time>2018-11-25T23:01:16Z</time>
      </trkpt>
      <trkpt lat="42.11753" lon="2.45853">
        <ele>494.8</ele>
        <time>2018-11-25T23:01:25Z</time>
      </trkpt>
      <trkpt lat="42.11707" lon="2.45819">
        <ele>490</ele>
        <time>2018-11-25T23:01:46Z</time>
      </trkpt>
      <trkpt lat="42.11692" lon="2.45734">
        <ele>485.5</ele>
        <time>2018-11-25T23:02:12Z</time>
      </trkpt>
      <trkpt lat="42.11673" lon="2.45677">
        <ele>483.2</ele>
        <time>2018-11-25T23:02:31Z</time>
      </trkpt>
      <trkpt lat="42.11644" lon="2.45631">
        <ele>482.1</ele>
        <time>2018-11-25T23:02:48Z</time>
      </trkpt>
      <trkpt lat="42.11645" lon="2.45629">
        <ele>482.1</ele>
        <time>2018-11-25T23:02:49Z</time>
      </trkpt>
      <trkpt lat="42.11645" lon="2.45628">
        <ele>482.1</ele>
        <time>2018-11-25T23:02:50Z</time>
      </trkpt>
      <trkpt lat="42.11646" lon="2.45626">
        <ele>482</ele>
        <time>2018-11-25T23:02:50Z</time>
      </trkpt>
      <trkpt lat="42.11646" lon="2.45626">
        <ele>482</ele>
        <time>2018-11-25T23:02:50Z</time>
      </trkpt>
      <trkpt lat="42.11636" lon="2.45598">
        <ele>481.4</ele>
        <time>2018-11-25T23:03:00Z</time>
      </trkpt>
      <trkpt lat="42.1162" lon="2.45558">
        <ele>480.5</ele>
        <time>2018-11-25T23:03:13Z</time>
      </trkpt>
      <trkpt lat="42.11604" lon="2.45527">
        <ele>480.1</ele>
        <time>2018-11-25T23:03:24Z</time>
      </trkpt>
      <trkpt lat="42.11589" lon="2.45499">
        <ele>480</ele>
        <time>2018-11-25T23:03:35Z</time>
      </trkpt>
      <trkpt lat="42.11567" lon="2.45469">
        <ele>480.1</ele>
        <time>2018-11-25T23:03:47Z</time>
      </trkpt>
      <trkpt lat="42.11547" lon="2.45436">
        <ele>479.5</ele>
        <time>2018-11-25T23:04:00Z</time>
      </trkpt>
      <trkpt lat="42.11526" lon="2.45406">
        <ele>478.8</ele>
        <time>2018-11-25T23:04:12Z</time>
      </trkpt>
      <trkpt lat="42.11506" lon="2.45378">
        <ele>478.1</ele>
        <time>2018-11-25T23:04:23Z</time>
      </trkpt>
      <trkpt lat="42.11486" lon="2.45349">
        <ele>478</ele>
        <time>2018-11-25T23:04:35Z</time>
      </trkpt>
      <trkpt lat="42.11464" lon="2.45318">
        <ele>478.5</ele>
        <time>2018-11-25T23:04:48Z</time>
      </trkpt>
      <trkpt lat="42.11445" lon="2.45288">
        <ele>478.8</ele>
        <time>2018-11-25T23:05:00Z</time>
      </trkpt>
      <trkpt lat="42.11436" lon="2.45251">
        <ele>478.8</ele>
        <time>2018-11-25T23:05:11Z</time>
      </trkpt>
      <trkpt lat="42.11426" lon="2.45211">
        <ele>478.7</ele>
        <time>2018-11-25T23:05:24Z</time>
      </trkpt>
      <trkpt lat="42.11422" lon="2.45166">
        <ele>478</ele>
        <time>2018-11-25T23:05:37Z</time>
      </trkpt>
      <trkpt lat="42.11416" lon="2.4513">
        <ele>477.7</ele>
        <time>2018-11-25T23:05:48Z</time>
      </trkpt>
      <trkpt lat="42.11406" lon="2.45087">
        <ele>477.7</ele>
        <time>2018-11-25T23:06:02Z</time>
      </trkpt>
      <trkpt lat="42.11415" lon="2.45048">
        <ele>477.6</ele>
        <time>2018-11-25T23:06:14Z</time>
      </trkpt>
      <trkpt lat="42.11422" lon="2.45006">
        <ele>478</ele>
        <time>2018-11-25T23:06:26Z</time>
      </trkpt>
      <trkpt lat="42.11417" lon="2.44987">
        <ele>478.3</ele>
        <time>2018-11-25T23:06:33Z</time>
      </trkpt>
      <trkpt lat="42.11375" lon="2.44986">
        <ele>478.8</ele>
        <time>2018-11-25T23:06:49Z</time>
      </trkpt>
      <trkpt lat="42.11345" lon="2.44981">
        <ele>478.9</ele>
        <time>2018-11-25T23:07:01Z</time>
      </trkpt>
      <trkpt lat="42.11317" lon="2.44974">
        <ele>479.2</ele>
        <time>2018-11-25T23:07:13Z</time>
      </trkpt>
      <trkpt lat="42.11289" lon="2.4497">
        <ele>479.5</ele>
        <time>2018-11-25T23:07:24Z</time>
      </trkpt>
      <trkpt lat="42.11258" lon="2.44965">
        <ele>479.1</ele>
        <time>2018-11-25T23:07:37Z</time>
      </trkpt>
      <trkpt lat="42.1123" lon="2.44956">
        <ele>478.5</ele>
        <time>2018-11-25T23:07:48Z</time>
      </trkpt>
      <trkpt lat="42.11197" lon="2.44954">
        <ele>478.3</ele>
        <time>2018-11-25T23:08:01Z</time>
      </trkpt>
      <trkpt lat="42.11167" lon="2.44952">
        <ele>478.6</ele>
        <time>2018-11-25T23:08:14Z</time>
      </trkpt>
      <trkpt lat="42.11139" lon="2.44943">
        <ele>479.1</ele>
        <time>2018-11-25T23:08:25Z</time>
      </trkpt>
      <trkpt lat="42.1111" lon="2.44934">
        <ele>479.8</ele>
        <time>2018-11-25T23:08:37Z</time>
      </trkpt>
      <trkpt lat="42.11086" lon="2.44928">
        <ele>480.4</ele>
        <time>2018-11-25T23:08:47Z</time>
      </trkpt>
      <trkpt lat="42.11057" lon="2.44922">
        <ele>481.3</ele>
        <time>2018-11-25T23:08:59Z</time>
      </trkpt>
      <trkpt lat="42.11021" lon="2.44914">
        <ele>482.2</ele>
        <time>2018-11-25T23:09:13Z</time>
      </trkpt>
      <trkpt lat="42.10998" lon="2.44899">
        <ele>482.9</ele>
        <time>2018-11-25T23:09:23Z</time>
      </trkpt>
      <trkpt lat="42.10975" lon="2.44895">
        <ele>483.7</ele>
        <time>2018-11-25T23:09:32Z</time>
      </trkpt>
      <trkpt lat="42.10945" lon="2.44881">
        <ele>483.9</ele>
        <time>2018-11-25T23:09:45Z</time>
      </trkpt>
      <trkpt lat="42.10914" lon="2.44858">
        <ele>482.6</ele>
        <time>2018-11-25T23:09:59Z</time>
      </trkpt>
      <trkpt lat="42.10889" lon="2.44837">
        <ele>481.7</ele>
        <time>2018-11-25T23:10:11Z</time>
      </trkpt>
      <trkpt lat="42.10865" lon="2.44815">
        <ele>481.6</ele>
        <time>2018-11-25T23:10:23Z</time>
      </trkpt>
      <trkpt lat="42.10845" lon="2.44795">
        <ele>481.8</ele>
        <time>2018-11-25T23:10:33Z</time>
      </trkpt>
      <trkpt lat="42.10817" lon="2.44773">
        <ele>481.9</ele>
        <time>2018-11-25T23:10:46Z</time>
      </trkpt>
      <trkpt lat="42.10791" lon="2.44754">
        <ele>482.2</ele>
        <time>2018-11-25T23:10:57Z</time>
      </trkpt>
      <trkpt lat="42.10765" lon="2.44736">
        <ele>482.5</ele>
        <time>2018-11-25T23:11:09Z</time>
      </trkpt>
      <trkpt lat="42.10733" lon="2.44713">
        <ele>483.2</ele>
        <time>2018-11-25T23:11:24Z</time>
      </trkpt>
      <trkpt lat="42.10703" lon="2.4469">
        <ele>484.4</ele>
        <time>2018-11-25T23:11:37Z</time>
      </trkpt>
      <trkpt lat="42.10678" lon="2.44671">
        <ele>485.8</ele>
        <time>2018-11-25T23:11:49Z</time>
      </trkpt>
      <trkpt lat="42.10653" lon="2.44645">
        <ele>486.9</ele>
        <time>2018-11-25T23:12:02Z</time>
      </trkpt>
      <trkpt lat="42.10631" lon="2.44623">
        <ele>487.8</ele>
        <time>2018-11-25T23:12:13Z</time>
      </trkpt>
      <trkpt lat="42.10608" lon="2.44633">
        <ele>488.7</ele>
        <time>2018-11-25T23:12:22Z</time>
      </trkpt>
      <trkpt lat="42.10585" lon="2.44654">
        <ele>489.5</ele>
        <time>2018-11-25T23:12:33Z</time>
      </trkpt>
      <trkpt lat="42.10558" lon="2.4469">
        <ele>490.4</ele>
        <time>2018-11-25T23:12:49Z</time>
      </trkpt>
      <trkpt lat="42.10537" lon="2.44722">
        <ele>491.2</ele>
        <time>2018-11-25T23:13:01Z</time>
      </trkpt>
      <trkpt lat="42.10516" lon="2.44741">
        <ele>491.4</ele>
        <time>2018-11-25T23:13:11Z</time>
      </trkpt>
      <trkpt lat="42.10495" lon="2.44758">
        <ele>491.6</ele>
        <time>2018-11-25T23:13:21Z</time>
      </trkpt>
      <trkpt lat="42.10471" lon="2.44778">
        <ele>491.9</ele>
        <time>2018-11-25T23:13:33Z</time>
      </trkpt>
      <trkpt lat="42.10441" lon="2.44794">
        <ele>491.7</ele>
        <time>2018-11-25T23:13:45Z</time>
      </trkpt>
      <trkpt lat="42.10415" lon="2.44802">
        <ele>491.1</ele>
        <time>2018-11-25T23:13:56Z</time>
      </trkpt>
      <trkpt lat="42.10384" lon="2.44797">
        <ele>491.1</ele>
        <time>2018-11-25T23:14:09Z</time>
      </trkpt>
      <trkpt lat="42.10378" lon="2.44787">
        <ele>491.2</ele>
        <time>2018-11-25T23:14:12Z</time>
      </trkpt>
      <trkpt lat="42.10378" lon="2.44787">
        <ele>491.3</ele>
        <time>2018-11-25T23:14:12Z</time>
      </trkpt>
      <trkpt lat="42.10374" lon="2.44769">
        <ele>492</ele>
        <time>2018-11-25T23:14:18Z</time>
      </trkpt>
      <trkpt lat="42.10368" lon="2.44734">
        <ele>493.3</ele>
        <time>2018-11-25T23:14:28Z</time>
      </trkpt>
      <trkpt lat="42.1036" lon="2.44704">
        <ele>494.5</ele>
        <time>2018-11-25T23:14:38Z</time>
      </trkpt>
      <trkpt lat="42.10351" lon="2.44675">
        <ele>496.4</ele>
        <time>2018-11-25T23:14:48Z</time>
      </trkpt>
      <trkpt lat="42.10344" lon="2.44643">
        <ele>498.4</ele>
        <time>2018-11-25T23:14:57Z</time>
      </trkpt>
      <trkpt lat="42.10338" lon="2.44614">
        <ele>500</ele>
        <time>2018-11-25T23:15:06Z</time>
      </trkpt>
      <trkpt lat="42.10334" lon="2.44585">
        <ele>501.4</ele>
        <time>2018-11-25T23:15:15Z</time>
      </trkpt>
      <trkpt lat="42.10336" lon="2.44576">
        <ele>501.9</ele>
        <time>2018-11-25T23:15:18Z</time>
      </trkpt>
      <trkpt lat="42.10361" lon="2.44546">
        <ele>502.4</ele>
        <time>2018-11-25T23:15:31Z</time>
      </trkpt>
      <trkpt lat="42.1037" lon="2.44507">
        <ele>504.4</ele>
        <time>2018-11-25T23:15:44Z</time>
      </trkpt>
      <trkpt lat="42.10357" lon="2.44483">
        <ele>506.8</ele>
        <time>2018-11-25T23:15:52Z</time>
      </trkpt>
      <trkpt lat="42.10338" lon="2.44464">
        <ele>509.3</ele>
        <time>2018-11-25T23:16:02Z</time>
      </trkpt>
      <trkpt lat="42.10315" lon="2.44454">
        <ele>511.9</ele>
        <time>2018-11-25T23:16:11Z</time>
      </trkpt>
      <trkpt lat="42.10289" lon="2.44446">
        <ele>514.4</ele>
        <time>2018-11-25T23:16:22Z</time>
      </trkpt>
      <trkpt lat="42.10287" lon="2.44434">
        <ele>515.5</ele>
        <time>2018-11-25T23:16:26Z</time>
      </trkpt>
      <trkpt lat="42.10298" lon="2.44387">
        <ele>520.2</ele>
        <time>2018-11-25T23:16:40Z</time>
      </trkpt>
      <trkpt lat="42.10316" lon="2.44358">
        <ele>521.8</ele>
        <time>2018-11-25T23:16:52Z</time>
      </trkpt>
      <trkpt lat="42.10331" lon="2.44331">
        <ele>523.6</ele>
        <time>2018-11-25T23:17:02Z</time>
      </trkpt>
      <trkpt lat="42.10326" lon="2.44302">
        <ele>526.8</ele>
        <time>2018-11-25T23:17:10Z</time>
      </trkpt>
      <trkpt lat="42.10321" lon="2.44274">
        <ele>530.2</ele>
        <time>2018-11-25T23:17:19Z</time>
      </trkpt>
      <trkpt lat="42.1032" lon="2.4427">
        <ele>530.7</ele>
        <time>2018-11-25T23:17:20Z</time>
      </trkpt>
      <trkpt lat="42.10336" lon="2.44249">
        <ele>533.2</ele>
        <time>2018-11-25T23:17:29Z</time>
      </trkpt>
      <trkpt lat="42.10336" lon="2.44238">
        <ele>534.7</ele>
        <time>2018-11-25T23:17:32Z</time>
      </trkpt>
      <trkpt lat="42.10335" lon="2.44228">
        <ele>535.9</ele>
        <time>2018-11-25T23:17:35Z</time>
      </trkpt>
      <trkpt lat="42.1034" lon="2.44213">
        <ele>537.9</ele>
        <time>2018-11-25T23:17:40Z</time>
      </trkpt>
      <trkpt lat="42.1034" lon="2.44213">
        <ele>538</ele>
        <time>2018-11-25T23:17:40Z</time>
      </trkpt>
      <trkpt lat="42.10339" lon="2.44213">
        <ele>537.9</ele>
        <time>2018-11-25T23:17:41Z</time>
      </trkpt>
      <trkpt lat="42.10337" lon="2.44204">
        <ele>539.6</ele>
        <time>2018-11-25T23:17:44Z</time>
      </trkpt>
      <trkpt lat="42.10335" lon="2.44188">
        <ele>543.2</ele>
        <time>2018-11-25T23:17:48Z</time>
      </trkpt>
      <trkpt lat="42.10337" lon="2.44176">
        <ele>546.3</ele>
        <time>2018-11-25T23:17:52Z</time>
      </trkpt>
      <trkpt lat="42.10341" lon="2.44154">
        <ele>551.5</ele>
        <time>2018-11-25T23:17:59Z</time>
      </trkpt>
      <trkpt lat="42.10354" lon="2.44132">
        <ele>557.3</ele>
        <time>2018-11-25T23:18:07Z</time>
      </trkpt>
      <trkpt lat="42.10358" lon="2.44123">
        <ele>559.8</ele>
        <time>2018-11-25T23:18:10Z</time>
      </trkpt>
      <trkpt lat="42.10358" lon="2.44123">
        <ele>559.9</ele>
        <time>2018-11-25T23:18:10Z</time>
      </trkpt>
      <trkpt lat="42.10357" lon="2.44124">
        <ele>559.6</ele>
        <time>2018-11-25T23:18:11Z</time>
      </trkpt>
      <trkpt lat="42.10359" lon="2.44123">
        <ele>560</ele>
        <time>2018-11-25T23:18:12Z</time>
      </trkpt>
      <trkpt lat="42.10362" lon="2.44122">
        <ele>560.4</ele>
        <time>2018-11-25T23:18:13Z</time>
      </trkpt>
      <trkpt lat="42.10366" lon="2.44124">
        <ele>560.2</ele>
        <time>2018-11-25T23:18:15Z</time>
      </trkpt>
      <trkpt lat="42.10381" lon="2.44124">
        <ele>561</ele>
        <time>2018-11-25T23:18:21Z</time>
      </trkpt>
      <trkpt lat="42.10386" lon="2.44125">
        <ele>561.1</ele>
        <time>2018-11-25T23:18:23Z</time>
      </trkpt>
      <trkpt lat="42.10388" lon="2.44126">
        <ele>561.2</ele>
        <time>2018-11-25T23:18:24Z</time>
      </trkpt>
      <trkpt lat="42.10397" lon="2.44122">
        <ele>563</ele>
        <time>2018-11-25T23:18:27Z</time>
      </trkpt>
      <trkpt lat="42.10406" lon="2.44122">
        <ele>563.8</ele>
        <time>2018-11-25T23:18:31Z</time>
      </trkpt>
      <trkpt lat="42.10408" lon="2.44123">
        <ele>563.9</ele>
        <time>2018-11-25T23:18:32Z</time>
      </trkpt>
      <trkpt lat="42.10415" lon="2.44111">
        <ele>567.5</ele>
        <time>2018-11-25T23:18:36Z</time>
      </trkpt>
      <trkpt lat="42.10421" lon="2.4411">
        <ele>568.5</ele>
        <time>2018-11-25T23:18:39Z</time>
      </trkpt>
      <trkpt lat="42.10432" lon="2.44108">
        <ele>569.8</ele>
        <time>2018-11-25T23:18:43Z</time>
      </trkpt>
      <trkpt lat="42.10439" lon="2.44089">
        <ele>574.6</ele>
        <time>2018-11-25T23:18:49Z</time>
      </trkpt>
      <trkpt lat="42.10443" lon="2.44069">
        <ele>579.3</ele>
        <time>2018-11-25T23:18:56Z</time>
      </trkpt>
      <trkpt lat="42.10443" lon="2.44065">
        <ele>580.2</ele>
        <time>2018-11-25T23:18:57Z</time>
      </trkpt>
      <trkpt lat="42.10445" lon="2.44061">
        <ele>581</ele>
        <time>2018-11-25T23:18:58Z</time>
      </trkpt>
      <trkpt lat="42.10446" lon="2.44059">
        <ele>581.5</ele>
        <time>2018-11-25T23:18:59Z</time>
      </trkpt>
      <trkpt lat="42.10448" lon="2.4404">
        <ele>585.9</ele>
        <time>2018-11-25T23:19:05Z</time>
      </trkpt>
      <trkpt lat="42.10453" lon="2.44023">
        <ele>591.7</ele>
        <time>2018-11-25T23:19:10Z</time>
      </trkpt>
      <trkpt lat="42.10453" lon="2.44023">
        <ele>591.6</ele>
        <time>2018-11-25T23:19:10Z</time>
      </trkpt>
      <trkpt lat="42.1045" lon="2.4401">
        <ele>596.2</ele>
        <time>2018-11-25T23:19:15Z</time>
      </trkpt>
      <trkpt lat="42.1045" lon="2.44008">
        <ele>596.7</ele>
        <time>2018-11-25T23:19:15Z</time>
      </trkpt>
      <trkpt lat="42.10449" lon="2.43999">
        <ele>599.7</ele>
        <time>2018-11-25T23:19:18Z</time>
      </trkpt>
      <trkpt lat="42.10444" lon="2.43977">
        <ele>607.3</ele>
        <time>2018-11-25T23:19:24Z</time>
      </trkpt>
      <trkpt lat="42.10444" lon="2.43974">
        <ele>608.4</ele>
        <time>2018-11-25T23:19:25Z</time>
      </trkpt>
      <trkpt lat="42.1044" lon="2.43959">
        <ele>613.7</ele>
        <time>2018-11-25T23:19:30Z</time>
      </trkpt>
      <trkpt lat="42.10436" lon="2.43942">
        <ele>619.2</ele>
        <time>2018-11-25T23:19:35Z</time>
      </trkpt>
      <trkpt lat="42.10431" lon="2.43929">
        <ele>623.9</ele>
        <time>2018-11-25T23:19:40Z</time>
      </trkpt>
      <trkpt lat="42.10425" lon="2.43916">
        <ele>628.5</ele>
        <time>2018-11-25T23:19:44Z</time>
      </trkpt>
      <trkpt lat="42.10421" lon="2.43907">
        <ele>632</ele>
        <time>2018-11-25T23:19:48Z</time>
      </trkpt>
      <trkpt lat="42.10416" lon="2.43896">
        <ele>635.9</ele>
        <time>2018-11-25T23:19:51Z</time>
      </trkpt>
      <trkpt lat="42.10416" lon="2.43895">
        <ele>636.6</ele>
        <time>2018-11-25T23:19:52Z</time>
      </trkpt>
      <trkpt lat="42.10415" lon="2.4389">
        <ele>638.3</ele>
        <time>2018-11-25T23:19:53Z</time>
      </trkpt>
      <trkpt lat="42.10413" lon="2.43882">
        <ele>641.1</ele>
        <time>2018-11-25T23:19:56Z</time>
      </trkpt>
      <trkpt lat="42.10413" lon="2.4388">
        <ele>641.9</ele>
        <time>2018-11-25T23:19:56Z</time>
      </trkpt>
      <trkpt lat="42.10414" lon="2.43875">
        <ele>643.4</ele>
        <time>2018-11-25T23:19:58Z</time>
      </trkpt>
      <trkpt lat="42.10408" lon="2.43862">
        <ele>649.2</ele>
        <time>2018-11-25T23:20:02Z</time>
      </trkpt>
      <trkpt lat="42.10405" lon="2.43857">
        <ele>651.8</ele>
        <time>2018-11-25T23:20:04Z</time>
      </trkpt>
      <trkpt lat="42.10403" lon="2.43851">
        <ele>654.4</ele>
        <time>2018-11-25T23:20:06Z</time>
      </trkpt>
      <trkpt lat="42.10399" lon="2.43847">
        <ele>656.9</ele>
        <time>2018-11-25T23:20:08Z</time>
      </trkpt>
      <trkpt lat="42.10394" lon="2.43845">
        <ele>658.6</ele>
        <time>2018-11-25T23:20:10Z</time>
      </trkpt>
      <trkpt lat="42.10391" lon="2.43843">
        <ele>660.3</ele>
        <time>2018-11-25T23:20:12Z</time>
      </trkpt>
      <trkpt lat="42.10389" lon="2.43838">
        <ele>662.6</ele>
        <time>2018-11-25T23:20:13Z</time>
      </trkpt>
      <trkpt lat="42.10389" lon="2.43832">
        <ele>665.4</ele>
        <time>2018-11-25T23:20:15Z</time>
      </trkpt>
      <trkpt lat="42.10389" lon="2.43821">
        <ele>669.8</ele>
        <time>2018-11-25T23:20:18Z</time>
      </trkpt>
      <trkpt lat="42.10393" lon="2.43807">
        <ele>674.5</ele>
        <time>2018-11-25T23:20:23Z</time>
      </trkpt>
      <trkpt lat="42.10394" lon="2.43804">
        <ele>675.6</ele>
        <time>2018-11-25T23:20:24Z</time>
      </trkpt>
      <trkpt lat="42.1039" lon="2.43789">
        <ele>682.8</ele>
        <time>2018-11-25T23:20:29Z</time>
      </trkpt>
      <trkpt lat="42.10391" lon="2.43785">
        <ele>684</ele>
        <time>2018-11-25T23:20:30Z</time>
      </trkpt>
      <trkpt lat="42.10391" lon="2.43784">
        <ele>684.4</ele>
        <time>2018-11-25T23:20:30Z</time>
      </trkpt>
      <trkpt lat="42.10391" lon="2.43774">
        <ele>688.2</ele>
        <time>2018-11-25T23:20:33Z</time>
      </trkpt>
      <trkpt lat="42.10393" lon="2.43766">
        <ele>691.1</ele>
        <time>2018-11-25T23:20:36Z</time>
      </trkpt>
      <trkpt lat="42.10394" lon="2.43764">
        <ele>691.4</ele>
        <time>2018-11-25T23:20:36Z</time>
      </trkpt>
      <trkpt lat="42.10395" lon="2.43761">
        <ele>692.1</ele>
        <time>2018-11-25T23:20:37Z</time>
      </trkpt>
      <trkpt lat="42.10396" lon="2.43755">
        <ele>694.3</ele>
        <time>2018-11-25T23:20:39Z</time>
      </trkpt>
      <trkpt lat="42.10399" lon="2.43741">
        <ele>698.7</ele>
        <time>2018-11-25T23:20:43Z</time>
      </trkpt>
      <trkpt lat="42.10399" lon="2.43726">
        <ele>704.1</ele>
        <time>2018-11-25T23:20:48Z</time>
      </trkpt>
      <trkpt lat="42.10399" lon="2.4372">
        <ele>706.4</ele>
        <time>2018-11-25T23:20:50Z</time>
      </trkpt>
      <trkpt lat="42.10401" lon="2.43711">
        <ele>709.2</ele>
        <time>2018-11-25T23:20:53Z</time>
      </trkpt>
      <trkpt lat="42.104" lon="2.43709">
        <ele>710.2</ele>
        <time>2018-11-25T23:20:53Z</time>
      </trkpt>
      <trkpt lat="42.10399" lon="2.43706">
        <ele>711.4</ele>
        <time>2018-11-25T23:20:54Z</time>
      </trkpt>
      <trkpt lat="42.10399" lon="2.43702">
        <ele>712.4</ele>
        <time>2018-11-25T23:20:55Z</time>
      </trkpt>
      <trkpt lat="42.104" lon="2.43692">
        <ele>714.4</ele>
        <time>2018-11-25T23:20:58Z</time>
      </trkpt>
      <trkpt lat="42.104" lon="2.43691">
        <ele>714.6</ele>
        <time>2018-11-25T23:20:59Z</time>
      </trkpt>
      <trkpt lat="42.10399" lon="2.43675">
        <ele>718.8</ele>
        <time>2018-11-25T23:21:03Z</time>
      </trkpt>
      <trkpt lat="42.10405" lon="2.43653">
        <ele>721.9</ele>
        <time>2018-11-25T23:21:10Z</time>
      </trkpt>
      <trkpt lat="42.10405" lon="2.43641">
        <ele>724.5</ele>
        <time>2018-11-25T23:21:14Z</time>
      </trkpt>
      <trkpt lat="42.10407" lon="2.43638">
        <ele>724.5</ele>
        <time>2018-11-25T23:21:15Z</time>
      </trkpt>
      <trkpt lat="42.10412" lon="2.43627">
        <ele>725.1</ele>
        <time>2018-11-25T23:21:19Z</time>
      </trkpt>
      <trkpt lat="42.1042" lon="2.43615">
        <ele>724.7</ele>
        <time>2018-11-25T23:21:24Z</time>
      </trkpt>
      <trkpt lat="42.10425" lon="2.4361">
        <ele>723.7</ele>
        <time>2018-11-25T23:21:26Z</time>
      </trkpt>
      <trkpt lat="42.10426" lon="2.43593">
        <ele>728</ele>
        <time>2018-11-25T23:21:31Z</time>
      </trkpt>
      <trkpt lat="42.10428" lon="2.4358">
        <ele>730.6</ele>
        <time>2018-11-25T23:21:35Z</time>
      </trkpt>
      <trkpt lat="42.10429" lon="2.43569">
        <ele>732.6</ele>
        <time>2018-11-25T23:21:38Z</time>
      </trkpt>
      <trkpt lat="42.10432" lon="2.43563">
        <ele>733.1</ele>
        <time>2018-11-25T23:21:41Z</time>
      </trkpt>
      <trkpt lat="42.10436" lon="2.4356">
        <ele>732.4</ele>
        <time>2018-11-25T23:21:42Z</time>
      </trkpt>
      <trkpt lat="42.10438" lon="2.43551">
        <ele>733.9</ele>
        <time>2018-11-25T23:21:45Z</time>
      </trkpt>
      <trkpt lat="42.10437" lon="2.43546">
        <ele>735.6</ele>
        <time>2018-11-25T23:21:47Z</time>
      </trkpt>
      <trkpt lat="42.10439" lon="2.43542">
        <ele>736.1</ele>
        <time>2018-11-25T23:21:48Z</time>
      </trkpt>
      <trkpt lat="42.10449" lon="2.43529">
        <ele>735.3</ele>
        <time>2018-11-25T23:21:54Z</time>
      </trkpt>
      <trkpt lat="42.10451" lon="2.43523">
        <ele>736.3</ele>
        <time>2018-11-25T23:21:56Z</time>
      </trkpt>
      <trkpt lat="42.10455" lon="2.4351">
        <ele>737.9</ele>
        <time>2018-11-25T23:22:00Z</time>
      </trkpt>
      <trkpt lat="42.10463" lon="2.43493">
        <ele>739.2</ele>
        <time>2018-11-25T23:22:06Z</time>
      </trkpt>
      <trkpt lat="42.10465" lon="2.43488">
        <ele>739.8</ele>
        <time>2018-11-25T23:22:07Z</time>
      </trkpt>
      <trkpt lat="42.10469" lon="2.43481">
        <ele>740</ele>
        <time>2018-11-25T23:22:10Z</time>
      </trkpt>
      <trkpt lat="42.10471" lon="2.4348">
        <ele>739.6</ele>
        <time>2018-11-25T23:22:11Z</time>
      </trkpt>
      <trkpt lat="42.10476" lon="2.43471">
        <ele>739.8</ele>
        <time>2018-11-25T23:22:14Z</time>
      </trkpt>
      <trkpt lat="42.10477" lon="2.43463">
        <ele>741.5</ele>
        <time>2018-11-25T23:22:17Z</time>
      </trkpt>
      <trkpt lat="42.10473" lon="2.43456">
        <ele>744.4</ele>
        <time>2018-11-25T23:22:20Z</time>
      </trkpt>
      <trkpt lat="42.10463" lon="2.4344">
        <ele>749.5</ele>
        <time>2018-11-25T23:22:25Z</time>
      </trkpt>
      <trkpt lat="42.10462" lon="2.43439">
        <ele>749.9</ele>
        <time>2018-11-25T23:22:26Z</time>
      </trkpt>
      <trkpt lat="42.1046" lon="2.43434">
        <ele>751.5</ele>
        <time>2018-11-25T23:22:28Z</time>
      </trkpt>
      <trkpt lat="42.10459" lon="2.43423">
        <ele>753</ele>
        <time>2018-11-25T23:22:31Z</time>
      </trkpt>
      <trkpt lat="42.10458" lon="2.43407">
        <ele>755.5</ele>
        <time>2018-11-25T23:22:36Z</time>
      </trkpt>
      <trkpt lat="42.10457" lon="2.43398">
        <ele>756.9</ele>
        <time>2018-11-25T23:22:39Z</time>
      </trkpt>
      <trkpt lat="42.1046" lon="2.43392">
        <ele>756.6</ele>
        <time>2018-11-25T23:22:41Z</time>
      </trkpt>
      <trkpt lat="42.10463" lon="2.43389">
        <ele>755.7</ele>
        <time>2018-11-25T23:22:42Z</time>
      </trkpt>
      <trkpt lat="42.1046" lon="2.43389">
        <ele>756.9</ele>
        <time>2018-11-25T23:22:44Z</time>
      </trkpt>
      <trkpt lat="42.1046" lon="2.43387">
        <ele>757</ele>
        <time>2018-11-25T23:22:44Z</time>
      </trkpt>
      <trkpt lat="42.1046" lon="2.43386">
        <ele>757.1</ele>
        <time>2018-11-25T23:22:45Z</time>
      </trkpt>
      <trkpt lat="42.10448" lon="2.43373">
        <ele>765</ele>
        <time>2018-11-25T23:22:51Z</time>
      </trkpt>
      <trkpt lat="42.10442" lon="2.43369">
        <ele>768.3</ele>
        <time>2018-11-25T23:22:53Z</time>
      </trkpt>
      <trkpt lat="42.1044" lon="2.43369">
        <ele>769.7</ele>
        <time>2018-11-25T23:22:55Z</time>
      </trkpt>
      <trkpt lat="42.10436" lon="2.4337">
        <ele>771.6</ele>
        <time>2018-11-25T23:22:56Z</time>
      </trkpt>
      <trkpt lat="42.10435" lon="2.43364">
        <ele>773.2</ele>
        <time>2018-11-25T23:22:58Z</time>
      </trkpt>
      <trkpt lat="42.10428" lon="2.43344">
        <ele>779.8</ele>
        <time>2018-11-25T23:23:04Z</time>
      </trkpt>
      <trkpt lat="42.10426" lon="2.4333">
        <ele>783.4</ele>
        <time>2018-11-25T23:23:09Z</time>
      </trkpt>
      <trkpt lat="42.10425" lon="2.43329">
        <ele>783.8</ele>
        <time>2018-11-25T23:23:09Z</time>
      </trkpt>
      <trkpt lat="42.10422" lon="2.4332">
        <ele>787.1</ele>
        <time>2018-11-25T23:23:12Z</time>
      </trkpt>
      <trkpt lat="42.10415" lon="2.43316">
        <ele>792</ele>
        <time>2018-11-25T23:23:15Z</time>
      </trkpt>
      <trkpt lat="42.10414" lon="2.43315">
        <ele>792.9</ele>
        <time>2018-11-25T23:23:16Z</time>
      </trkpt>
      <trkpt lat="42.10415" lon="2.43311">
        <ele>792.7</ele>
        <time>2018-11-25T23:23:17Z</time>
      </trkpt>
      <trkpt lat="42.10414" lon="2.43306">
        <ele>794.3</ele>
        <time>2018-11-25T23:23:19Z</time>
      </trkpt>
      <trkpt lat="42.10412" lon="2.43301">
        <ele>796.2</ele>
        <time>2018-11-25T23:23:20Z</time>
      </trkpt>
      <trkpt lat="42.10412" lon="2.43294">
        <ele>797.4</ele>
        <time>2018-11-25T23:23:22Z</time>
      </trkpt>
      <trkpt lat="42.10407" lon="2.4329">
        <ele>801</ele>
        <time>2018-11-25T23:23:25Z</time>
      </trkpt>
      <trkpt lat="42.10403" lon="2.43285">
        <ele>803.9</ele>
        <time>2018-11-25T23:23:27Z</time>
      </trkpt>
      <trkpt lat="42.10398" lon="2.43281">
        <ele>806.8</ele>
        <time>2018-11-25T23:23:29Z</time>
      </trkpt>
      <trkpt lat="42.10393" lon="2.43277">
        <ele>810.2</ele>
        <time>2018-11-25T23:23:31Z</time>
      </trkpt>
      <trkpt lat="42.10388" lon="2.43275">
        <ele>813.3</ele>
        <time>2018-11-25T23:23:34Z</time>
      </trkpt>
      <trkpt lat="42.10384" lon="2.43278">
        <ele>816.1</ele>
        <time>2018-11-25T23:23:36Z</time>
      </trkpt>
      <trkpt lat="42.10379" lon="2.43279">
        <ele>818.9</ele>
        <time>2018-11-25T23:23:38Z</time>
      </trkpt>
      <trkpt lat="42.10372" lon="2.43281">
        <ele>823.1</ele>
        <time>2018-11-25T23:23:40Z</time>
      </trkpt>
      <trkpt lat="42.1037" lon="2.43275">
        <ele>824.6</ele>
        <time>2018-11-25T23:23:42Z</time>
      </trkpt>
      <trkpt lat="42.10368" lon="2.43269">
        <ele>826.7</ele>
        <time>2018-11-25T23:23:44Z</time>
      </trkpt>
      <trkpt lat="42.10365" lon="2.43261">
        <ele>828.8</ele>
        <time>2018-11-25T23:23:47Z</time>
      </trkpt>
      <trkpt lat="42.10364" lon="2.43255">
        <ele>830.3</ele>
        <time>2018-11-25T23:23:49Z</time>
      </trkpt>
      <trkpt lat="42.10362" lon="2.43248">
        <ele>832.2</ele>
        <time>2018-11-25T23:23:51Z</time>
      </trkpt>
      <trkpt lat="42.10361" lon="2.43242">
        <ele>833.6</ele>
        <time>2018-11-25T23:23:53Z</time>
      </trkpt>
      <trkpt lat="42.1036" lon="2.43231">
        <ele>835.2</ele>
        <time>2018-11-25T23:23:56Z</time>
      </trkpt>
      <trkpt lat="42.1036" lon="2.43225">
        <ele>836.3</ele>
        <time>2018-11-25T23:23:58Z</time>
      </trkpt>
      <trkpt lat="42.10357" lon="2.43214">
        <ele>839.9</ele>
        <time>2018-11-25T23:24:01Z</time>
      </trkpt>
      <trkpt lat="42.10359" lon="2.43203">
        <ele>838</ele>
        <time>2018-11-25T23:24:05Z</time>
      </trkpt>
      <trkpt lat="42.10359" lon="2.43201">
        <ele>838.3</ele>
        <time>2018-11-25T23:24:05Z</time>
      </trkpt>
      <trkpt lat="42.10347" lon="2.43194">
        <ele>849.4</ele>
        <time>2018-11-25T23:24:10Z</time>
      </trkpt>
      <trkpt lat="42.10343" lon="2.43189">
        <ele>853.3</ele>
        <time>2018-11-25T23:24:13Z</time>
      </trkpt>
      <trkpt lat="42.10341" lon="2.43186">
        <ele>855.4</ele>
        <time>2018-11-25T23:24:14Z</time>
      </trkpt>
      <trkpt lat="42.10337" lon="2.4317">
        <ele>858.6</ele>
        <time>2018-11-25T23:24:19Z</time>
      </trkpt>
      <trkpt lat="42.10339" lon="2.43167">
        <ele>856.4</ele>
        <time>2018-11-25T23:24:20Z</time>
      </trkpt>
      <trkpt lat="42.10336" lon="2.43162">
        <ele>858.8</ele>
        <time>2018-11-25T23:24:22Z</time>
      </trkpt>
      <trkpt lat="42.10326" lon="2.43153">
        <ele>868</ele>
        <time>2018-11-25T23:24:27Z</time>
      </trkpt>
      <trkpt lat="42.10327" lon="2.43157">
        <ele>867.5</ele>
        <time>2018-11-25T23:24:28Z</time>
      </trkpt>
      <trkpt lat="42.10326" lon="2.43166">
        <ele>868.9</ele>
        <time>2018-11-25T23:24:31Z</time>
      </trkpt>
      <trkpt lat="42.10324" lon="2.43175">
        <ele>871.4</ele>
        <time>2018-11-25T23:24:34Z</time>
      </trkpt>
      <trkpt lat="42.10322" lon="2.43176">
        <ele>872.8</ele>
        <time>2018-11-25T23:24:34Z</time>
      </trkpt>
      <trkpt lat="42.10318" lon="2.43178">
        <ele>877.2</ele>
        <time>2018-11-25T23:24:36Z</time>
      </trkpt>
      <trkpt lat="42.10315" lon="2.43171">
        <ele>880</ele>
        <time>2018-11-25T23:24:38Z</time>
      </trkpt>
      <trkpt lat="42.10312" lon="2.43165">
        <ele>882.4</ele>
        <time>2018-11-25T23:24:41Z</time>
      </trkpt>
      <trkpt lat="42.1031" lon="2.4316">
        <ele>883.8</ele>
        <time>2018-11-25T23:24:42Z</time>
      </trkpt>
      <trkpt lat="42.1031" lon="2.43154">
        <ele>884</ele>
        <time>2018-11-25T23:24:44Z</time>
      </trkpt>
      <trkpt lat="42.10305" lon="2.43147">
        <ele>888.7</ele>
        <time>2018-11-25T23:24:47Z</time>
      </trkpt>
      <trkpt lat="42.10305" lon="2.43145">
        <ele>888.9</ele>
        <time>2018-11-25T23:24:48Z</time>
      </trkpt>
      <trkpt lat="42.10302" lon="2.43142">
        <ele>891.1</ele>
        <time>2018-11-25T23:24:49Z</time>
      </trkpt>
      <trkpt lat="42.10299" lon="2.4314">
        <ele>894.8</ele>
        <time>2018-11-25T23:24:50Z</time>
      </trkpt>
      <trkpt lat="42.10296" lon="2.43137">
        <ele>897</ele>
        <time>2018-11-25T23:24:52Z</time>
      </trkpt>
      <trkpt lat="42.10296" lon="2.43133">
        <ele>897.6</ele>
        <time>2018-11-25T23:24:53Z</time>
      </trkpt>
      <trkpt lat="42.10294" lon="2.43132">
        <ele>898.6</ele>
        <time>2018-11-25T23:24:53Z</time>
      </trkpt>
      <trkpt lat="42.10293" lon="2.43128">
        <ele>899.6</ele>
        <time>2018-11-25T23:24:55Z</time>
      </trkpt>
      <trkpt lat="42.1029" lon="2.43115">
        <ele>901.8</ele>
        <time>2018-11-25T23:24:59Z</time>
      </trkpt>
      <trkpt lat="42.10288" lon="2.43111">
        <ele>903</ele>
        <time>2018-11-25T23:25:00Z</time>
      </trkpt>
      <trkpt lat="42.10284" lon="2.43106">
        <ele>904.4</ele>
        <time>2018-11-25T23:25:02Z</time>
      </trkpt>
      <trkpt lat="42.10282" lon="2.43103">
        <ele>905.6</ele>
        <time>2018-11-25T23:25:04Z</time>
      </trkpt>
      <trkpt lat="42.1028" lon="2.43099">
        <ele>907</ele>
        <time>2018-11-25T23:25:05Z</time>
      </trkpt>
      <trkpt lat="42.10278" lon="2.43096">
        <ele>908</ele>
        <time>2018-11-25T23:25:06Z</time>
      </trkpt>
      <trkpt lat="42.10265" lon="2.43084">
        <ele>915</ele>
        <time>2018-11-25T23:25:13Z</time>
      </trkpt>
      <trkpt lat="42.1026" lon="2.43081">
        <ele>917.7</ele>
        <time>2018-11-25T23:25:15Z</time>
      </trkpt>
      <trkpt lat="42.10255" lon="2.43077">
        <ele>920.8</ele>
        <time>2018-11-25T23:25:17Z</time>
      </trkpt>
      <trkpt lat="42.10251" lon="2.43073">
        <ele>923.1</ele>
        <time>2018-11-25T23:25:19Z</time>
      </trkpt>
      <trkpt lat="42.10251" lon="2.43072">
        <ele>923.6</ele>
        <time>2018-11-25T23:25:19Z</time>
      </trkpt>
      <trkpt lat="42.10248" lon="2.4307">
        <ele>925.1</ele>
        <time>2018-11-25T23:25:21Z</time>
      </trkpt>
      <trkpt lat="42.10246" lon="2.43068">
        <ele>926.8</ele>
        <time>2018-11-25T23:25:22Z</time>
      </trkpt>
      <trkpt lat="42.10241" lon="2.43065">
        <ele>929.7</ele>
        <time>2018-11-25T23:25:24Z</time>
      </trkpt>
      <trkpt lat="42.10238" lon="2.43059">
        <ele>932.2</ele>
        <time>2018-11-25T23:25:26Z</time>
      </trkpt>
      <trkpt lat="42.10236" lon="2.4305">
        <ele>935.1</ele>
        <time>2018-11-25T23:25:29Z</time>
      </trkpt>
      <trkpt lat="42.1023" lon="2.43053">
        <ele>938.1</ele>
        <time>2018-11-25T23:25:31Z</time>
      </trkpt>
      <trkpt lat="42.10228" lon="2.43053">
        <ele>939.2</ele>
        <time>2018-11-25T23:25:32Z</time>
      </trkpt>
      <trkpt lat="42.10224" lon="2.4305">
        <ele>942.2</ele>
        <time>2018-11-25T23:25:34Z</time>
      </trkpt>
      <trkpt lat="42.10218" lon="2.43045">
        <ele>946.4</ele>
        <time>2018-11-25T23:25:37Z</time>
      </trkpt>
      <trkpt lat="42.10214" lon="2.43044">
        <ele>948.9</ele>
        <time>2018-11-25T23:25:38Z</time>
      </trkpt>
      <trkpt lat="42.10209" lon="2.43042">
        <ele>952.8</ele>
        <time>2018-11-25T23:25:41Z</time>
      </trkpt>
      <trkpt lat="42.10205" lon="2.43048">
        <ele>950.5</ele>
        <time>2018-11-25T23:25:43Z</time>
      </trkpt>
      <trkpt lat="42.10201" lon="2.43058">
        <ele>947.5</ele>
        <time>2018-11-25T23:25:46Z</time>
      </trkpt>
      <trkpt lat="42.10201" lon="2.43061">
        <ele>946.8</ele>
        <time>2018-11-25T23:25:47Z</time>
      </trkpt>
      <trkpt lat="42.10199" lon="2.43064">
        <ele>945.5</ele>
        <time>2018-11-25T23:25:49Z</time>
      </trkpt>
      <trkpt lat="42.10197" lon="2.43064">
        <ele>944.8</ele>
        <time>2018-11-25T23:25:50Z</time>
      </trkpt>
      <trkpt lat="42.10193" lon="2.43054">
        <ele>946.4</ele>
        <time>2018-11-25T23:25:53Z</time>
      </trkpt>
      <trkpt lat="42.10189" lon="2.43054">
        <ele>945.5</ele>
        <time>2018-11-25T23:25:54Z</time>
      </trkpt>
      <trkpt lat="42.1018" lon="2.43047">
        <ele>944.9</ele>
        <time>2018-11-25T23:25:58Z</time>
      </trkpt>
      <trkpt lat="42.10168" lon="2.43043">
        <ele>943.6</ele>
        <time>2018-11-25T23:26:03Z</time>
      </trkpt>
      <trkpt lat="42.10156" lon="2.43044">
        <ele>940.2</ele>
        <time>2018-11-25T23:26:08Z</time>
      </trkpt>
      <trkpt lat="42.10153" lon="2.43046">
        <ele>938.9</ele>
        <time>2018-11-25T23:26:10Z</time>
      </trkpt>
      <trkpt lat="42.1015" lon="2.43046">
        <ele>938.1</ele>
        <time>2018-11-25T23:26:11Z</time>
      </trkpt>
      <trkpt lat="42.10148" lon="2.43047">
        <ele>937.5</ele>
        <time>2018-11-25T23:26:11Z</time>
      </trkpt>
      <trkpt lat="42.10146" lon="2.43049">
        <ele>936.3</ele>
        <time>2018-11-25T23:26:12Z</time>
      </trkpt>
      <trkpt lat="42.10144" lon="2.43051">
        <ele>934.9</ele>
        <time>2018-11-25T23:26:14Z</time>
      </trkpt>
      <trkpt lat="42.10139" lon="2.43057">
        <ele>931.6</ele>
        <time>2018-11-25T23:26:16Z</time>
      </trkpt>
      <trkpt lat="42.10135" lon="2.43063">
        <ele>928.2</ele>
        <time>2018-11-25T23:26:18Z</time>
      </trkpt>
      <trkpt lat="42.10135" lon="2.43068">
        <ele>926.3</ele>
        <time>2018-11-25T23:26:20Z</time>
      </trkpt>
      <trkpt lat="42.10132" lon="2.43071">
        <ele>924.4</ele>
        <time>2018-11-25T23:26:22Z</time>
      </trkpt>
      <trkpt lat="42.10126" lon="2.43071">
        <ele>922.1</ele>
        <time>2018-11-25T23:26:24Z</time>
      </trkpt>
      <trkpt lat="42.10123" lon="2.43074">
        <ele>920.4</ele>
        <time>2018-11-25T23:26:25Z</time>
      </trkpt>
      <trkpt lat="42.10117" lon="2.43074">
        <ele>917.3</ele>
        <time>2018-11-25T23:26:28Z</time>
      </trkpt>
      <trkpt lat="42.10113" lon="2.43071">
        <ele>916.9</ele>
        <time>2018-11-25T23:26:30Z</time>
      </trkpt>
      <trkpt lat="42.10109" lon="2.43063">
        <ele>918.6</ele>
        <time>2018-11-25T23:26:33Z</time>
      </trkpt>
      <trkpt lat="42.10114" lon="2.43048">
        <ele>927.2</ele>
        <time>2018-11-25T23:26:38Z</time>
      </trkpt>
      <trkpt lat="42.10103" lon="2.43034">
        <ele>926.6</ele>
        <time>2018-11-25T23:26:43Z</time>
      </trkpt>
      <trkpt lat="42.10098" lon="2.4303">
        <ele>925.3</ele>
        <time>2018-11-25T23:26:46Z</time>
      </trkpt>
      <trkpt lat="42.10093" lon="2.43015">
        <ele>925</ele>
        <time>2018-11-25T23:26:51Z</time>
      </trkpt>
      <trkpt lat="42.10094" lon="2.42993">
        <ele>927.4</ele>
        <time>2018-11-25T23:26:57Z</time>
      </trkpt>
      <trkpt lat="42.10095" lon="2.42991">
        <ele>927.8</ele>
        <time>2018-11-25T23:26:58Z</time>
      </trkpt>
      <trkpt lat="42.10095" lon="2.42968">
        <ele>930.2</ele>
        <time>2018-11-25T23:27:04Z</time>
      </trkpt>
      <trkpt lat="42.10092" lon="2.42947">
        <ele>931.1</ele>
        <time>2018-11-25T23:27:11Z</time>
      </trkpt>
      <trkpt lat="42.10091" lon="2.42942">
        <ele>931.1</ele>
        <time>2018-11-25T23:27:13Z</time>
      </trkpt>
      <trkpt lat="42.10089" lon="2.42926">
        <ele>931.8</ele>
        <time>2018-11-25T23:27:17Z</time>
      </trkpt>
      <trkpt lat="42.10088" lon="2.42921">
        <ele>931.7</ele>
        <time>2018-11-25T23:27:19Z</time>
      </trkpt>
      <trkpt lat="42.10085" lon="2.42909">
        <ele>931.9</ele>
        <time>2018-11-25T23:27:22Z</time>
      </trkpt>
      <trkpt lat="42.10089" lon="2.42902">
        <ele>933.8</ele>
        <time>2018-11-25T23:27:25Z</time>
      </trkpt>
      <trkpt lat="42.1009" lon="2.42898">
        <ele>934.4</ele>
        <time>2018-11-25T23:27:26Z</time>
      </trkpt>
      <trkpt lat="42.10088" lon="2.4288">
        <ele>935.3</ele>
        <time>2018-11-25T23:27:32Z</time>
      </trkpt>
      <trkpt lat="42.1009" lon="2.42859">
        <ele>936.8</ele>
        <time>2018-11-25T23:27:38Z</time>
      </trkpt>
      <trkpt lat="42.10092" lon="2.42831">
        <ele>938.5</ele>
        <time>2018-11-25T23:27:46Z</time>
      </trkpt>
      <trkpt lat="42.10094" lon="2.428">
        <ele>940.3</ele>
        <time>2018-11-25T23:27:56Z</time>
      </trkpt>
      <trkpt lat="42.10096" lon="2.42792">
        <ele>941.2</ele>
        <time>2018-11-25T23:27:58Z</time>
      </trkpt>
      <trkpt lat="42.10098" lon="2.4279">
        <ele>942</ele>
        <time>2018-11-25T23:27:59Z</time>
      </trkpt>
      <trkpt lat="42.101" lon="2.42791">
        <ele>942.6</ele>
        <time>2018-11-25T23:28:00Z</time>
      </trkpt>
      <trkpt lat="42.10102" lon="2.42794">
        <ele>943.1</ele>
        <time>2018-11-25T23:28:01Z</time>
      </trkpt>
      <trkpt lat="42.10104" lon="2.42796">
        <ele>943.7</ele>
        <time>2018-11-25T23:28:02Z</time>
      </trkpt>
      <trkpt lat="42.10104" lon="2.42796">
        <ele>943.7</ele>
        <time>2018-11-25T23:28:02Z</time>
      </trkpt>
      <trkpt lat="42.10114" lon="2.42821">
        <ele>946.5</ele>
        <time>2018-11-25T23:28:11Z</time>
      </trkpt>
      <trkpt lat="42.10125" lon="2.42844">
        <ele>949.2</ele>
        <time>2018-11-25T23:28:19Z</time>
      </trkpt>
      <trkpt lat="42.10141" lon="2.42866">
        <ele>951.1</ele>
        <time>2018-11-25T23:28:28Z</time>
      </trkpt>
      <trkpt lat="42.10154" lon="2.42884">
        <ele>952.3</ele>
        <time>2018-11-25T23:28:35Z</time>
      </trkpt>
      <trkpt lat="42.1017" lon="2.42893">
        <ele>954.6</ele>
        <time>2018-11-25T23:28:42Z</time>
      </trkpt>
      <trkpt lat="42.10172" lon="2.42886">
        <ele>955.3</ele>
        <time>2018-11-25T23:28:44Z</time>
      </trkpt>
      <trkpt lat="42.10168" lon="2.42874">
        <ele>955.3</ele>
        <time>2018-11-25T23:28:48Z</time>
      </trkpt>
      <trkpt lat="42.10172" lon="2.42838">
        <ele>957.8</ele>
        <time>2018-11-25T23:28:59Z</time>
      </trkpt>
      <trkpt lat="42.10177" lon="2.42811">
        <ele>959.9</ele>
        <time>2018-11-25T23:29:07Z</time>
      </trkpt>
      <trkpt lat="42.10181" lon="2.42778">
        <ele>962.9</ele>
        <time>2018-11-25T23:29:17Z</time>
      </trkpt>
      <trkpt lat="42.10189" lon="2.42747">
        <ele>966.7</ele>
        <time>2018-11-25T23:29:27Z</time>
      </trkpt>
      <trkpt lat="42.10196" lon="2.42718">
        <ele>970.2</ele>
        <time>2018-11-25T23:29:36Z</time>
      </trkpt>
      <trkpt lat="42.10196" lon="2.42716">
        <ele>970.3</ele>
        <time>2018-11-25T23:29:36Z</time>
      </trkpt>
      <trkpt lat="42.10201" lon="2.42689">
        <ele>973.8</ele>
        <time>2018-11-25T23:29:45Z</time>
      </trkpt>
      <trkpt lat="42.10204" lon="2.42661">
        <ele>977.1</ele>
        <time>2018-11-25T23:29:53Z</time>
      </trkpt>
      <trkpt lat="42.10205" lon="2.42658">
        <ele>977.4</ele>
        <time>2018-11-25T23:29:54Z</time>
      </trkpt>
      <trkpt lat="42.10205" lon="2.42649">
        <ele>978.4</ele>
        <time>2018-11-25T23:29:57Z</time>
      </trkpt>
      <trkpt lat="42.10214" lon="2.42624">
        <ele>980.2</ele>
        <time>2018-11-25T23:30:05Z</time>
      </trkpt>
      <trkpt lat="42.10218" lon="2.42602">
        <ele>983.3</ele>
        <time>2018-11-25T23:30:12Z</time>
      </trkpt>
      <trkpt lat="42.10219" lon="2.42581">
        <ele>986.6</ele>
        <time>2018-11-25T23:30:18Z</time>
      </trkpt>
      <trkpt lat="42.10216" lon="2.42555">
        <ele>991.7</ele>
        <time>2018-11-25T23:30:26Z</time>
      </trkpt>
      <trkpt lat="42.1021" lon="2.42533">
        <ele>997.8</ele>
        <time>2018-11-25T23:30:33Z</time>
      </trkpt>
      <trkpt lat="42.10211" lon="2.42517">
        <ele>1002.8</ele>
        <time>2018-11-25T23:30:38Z</time>
      </trkpt>
      <trkpt lat="42.10212" lon="2.4251">
        <ele>1004.8</ele>
        <time>2018-11-25T23:30:40Z</time>
      </trkpt>
      <trkpt lat="42.10213" lon="2.42503">
        <ele>1006.6</ele>
        <time>2018-11-25T23:30:42Z</time>
      </trkpt>
      <trkpt lat="42.10218" lon="2.42492">
        <ele>1009.6</ele>
        <time>2018-11-25T23:30:46Z</time>
      </trkpt>
      <trkpt lat="42.10222" lon="2.42483">
        <ele>1011.8</ele>
        <time>2018-11-25T23:30:49Z</time>
      </trkpt>
      <trkpt lat="42.10222" lon="2.42474">
        <ele>1014.5</ele>
        <time>2018-11-25T23:30:51Z</time>
      </trkpt>
      <trkpt lat="42.10221" lon="2.4247">
        <ele>1015.9</ele>
        <time>2018-11-25T23:30:52Z</time>
      </trkpt>
      <trkpt lat="42.10223" lon="2.4246">
        <ele>1019</ele>
        <time>2018-11-25T23:30:56Z</time>
      </trkpt>
      <trkpt lat="42.10228" lon="2.42433">
        <ele>1028.8</ele>
        <time>2018-11-25T23:31:04Z</time>
      </trkpt>
      <trkpt lat="42.10223" lon="2.42403">
        <ele>1042.6</ele>
        <time>2018-11-25T23:31:13Z</time>
      </trkpt>
      <trkpt lat="42.10223" lon="2.42389">
        <ele>1048.7</ele>
        <time>2018-11-25T23:31:17Z</time>
      </trkpt>
      <trkpt lat="42.10224" lon="2.42384">
        <ele>1050.3</ele>
        <time>2018-11-25T23:31:19Z</time>
      </trkpt>
      <trkpt lat="42.10226" lon="2.4238">
        <ele>1051.5</ele>
        <time>2018-11-25T23:31:20Z</time>
      </trkpt>
      <trkpt lat="42.10232" lon="2.42374">
        <ele>1052.1</ele>
        <time>2018-11-25T23:31:23Z</time>
      </trkpt>
      <trkpt lat="42.10233" lon="2.42373">
        <ele>1052.4</ele>
        <time>2018-11-25T23:31:24Z</time>
      </trkpt>
      <trkpt lat="42.10235" lon="2.4237">
        <ele>1053.1</ele>
        <time>2018-11-25T23:31:25Z</time>
      </trkpt>
      <trkpt lat="42.10238" lon="2.42366">
        <ele>1054.3</ele>
        <time>2018-11-25T23:31:27Z</time>
      </trkpt>
      <trkpt lat="42.10243" lon="2.42353">
        <ele>1059.1</ele>
        <time>2018-11-25T23:31:31Z</time>
      </trkpt>
      <trkpt lat="42.10243" lon="2.4235">
        <ele>1060.2</ele>
        <time>2018-11-25T23:31:32Z</time>
      </trkpt>
      <trkpt lat="42.10244" lon="2.42347">
        <ele>1061.1</ele>
        <time>2018-11-25T23:31:33Z</time>
      </trkpt>
      <trkpt lat="42.10246" lon="2.42325">
        <ele>1071.3</ele>
        <time>2018-11-25T23:31:39Z</time>
      </trkpt>
      <trkpt lat="42.10252" lon="2.423">
        <ele>1080.5</ele>
        <time>2018-11-25T23:31:47Z</time>
      </trkpt>
      <trkpt lat="42.10254" lon="2.42299">
        <ele>1080.1</ele>
        <time>2018-11-25T23:31:48Z</time>
      </trkpt>
      <trkpt lat="42.10279" lon="2.42283">
        <ele>1076.7</ele>
        <time>2018-11-25T23:31:59Z</time>
      </trkpt>
      <trkpt lat="42.10299" lon="2.42269">
        <ele>1073.2</ele>
        <time>2018-11-25T23:32:08Z</time>
      </trkpt>
      <trkpt lat="42.10309" lon="2.42262">
        <ele>1070.8</ele>
        <time>2018-11-25T23:32:13Z</time>
      </trkpt>
      <trkpt lat="42.10314" lon="2.42251">
        <ele>1072.1</ele>
        <time>2018-11-25T23:32:16Z</time>
      </trkpt>
      <trkpt lat="42.1032" lon="2.42232">
        <ele>1076.1</ele>
        <time>2018-11-25T23:32:23Z</time>
      </trkpt>
      <trkpt lat="42.10324" lon="2.42222">
        <ele>1077.6</ele>
        <time>2018-11-25T23:32:26Z</time>
      </trkpt>
      <trkpt lat="42.10326" lon="2.42217">
        <ele>1078.3</ele>
        <time>2018-11-25T23:32:28Z</time>
      </trkpt>
      <trkpt lat="42.10331" lon="2.4221">
        <ele>1078.8</ele>
        <time>2018-11-25T23:32:30Z</time>
      </trkpt>
      <trkpt lat="42.10339" lon="2.42197">
        <ele>1078.8</ele>
        <time>2018-11-25T23:32:36Z</time>
      </trkpt>
      <trkpt lat="42.10339" lon="2.42186">
        <ele>1082.1</ele>
        <time>2018-11-25T23:32:39Z</time>
      </trkpt>
      <trkpt lat="42.10342" lon="2.42164">
        <ele>1087.7</ele>
        <time>2018-11-25T23:32:45Z</time>
      </trkpt>
      <trkpt lat="42.10342" lon="2.42156">
        <ele>1090.1</ele>
        <time>2018-11-25T23:32:48Z</time>
      </trkpt>
      <trkpt lat="42.10344" lon="2.42148">
        <ele>1091.1</ele>
        <time>2018-11-25T23:32:50Z</time>
      </trkpt>
      <trkpt lat="42.10345" lon="2.42144">
        <ele>1091.8</ele>
        <time>2018-11-25T23:32:52Z</time>
      </trkpt>
      <trkpt lat="42.1035" lon="2.42134">
        <ele>1092</ele>
        <time>2018-11-25T23:32:55Z</time>
      </trkpt>
      <trkpt lat="42.10357" lon="2.42121">
        <ele>1091.4</ele>
        <time>2018-11-25T23:33:00Z</time>
      </trkpt>
      <trkpt lat="42.10375" lon="2.42111">
        <ele>1082.3</ele>
        <time>2018-11-25T23:33:08Z</time>
      </trkpt>
      <trkpt lat="42.10381" lon="2.42108">
        <ele>1081.2</ele>
        <time>2018-11-25T23:33:11Z</time>
      </trkpt>
      <trkpt lat="42.10388" lon="2.42096">
        <ele>1081.4</ele>
        <time>2018-11-25T23:33:15Z</time>
      </trkpt>
      <trkpt lat="42.10387" lon="2.42076">
        <ele>1083.7</ele>
        <time>2018-11-25T23:33:21Z</time>
      </trkpt>
      <trkpt lat="42.10386" lon="2.42053">
        <ele>1087</ele>
        <time>2018-11-25T23:33:28Z</time>
      </trkpt>
      <trkpt lat="42.10384" lon="2.42032">
        <ele>1088.5</ele>
        <time>2018-11-25T23:33:34Z</time>
      </trkpt>
      <trkpt lat="42.10382" lon="2.42025">
        <ele>1088.9</ele>
        <time>2018-11-25T23:33:36Z</time>
      </trkpt>
      <trkpt lat="42.10371" lon="2.42004">
        <ele>1093.4</ele>
        <time>2018-11-25T23:33:44Z</time>
      </trkpt>
      <trkpt lat="42.10358" lon="2.41979">
        <ele>1102.9</ele>
        <time>2018-11-25T23:33:53Z</time>
      </trkpt>
      <trkpt lat="42.10357" lon="2.41974">
        <ele>1103.7</ele>
        <time>2018-11-25T23:33:54Z</time>
      </trkpt>
      <trkpt lat="42.10356" lon="2.41971">
        <ele>1104.7</ele>
        <time>2018-11-25T23:33:55Z</time>
      </trkpt>
      <trkpt lat="42.10355" lon="2.41966">
        <ele>1104.8</ele>
        <time>2018-11-25T23:33:57Z</time>
      </trkpt>
      <trkpt lat="42.10354" lon="2.41963">
        <ele>1106</ele>
        <time>2018-11-25T23:33:58Z</time>
      </trkpt>
      <trkpt lat="42.10351" lon="2.41961">
        <ele>1108.1</ele>
        <time>2018-11-25T23:33:59Z</time>
      </trkpt>
      <trkpt lat="42.10349" lon="2.41958">
        <ele>1109.8</ele>
        <time>2018-11-25T23:34:00Z</time>
      </trkpt>
      <trkpt lat="42.10348" lon="2.41949">
        <ele>1113.3</ele>
        <time>2018-11-25T23:34:03Z</time>
      </trkpt>
      <trkpt lat="42.10334" lon="2.41923">
        <ele>1131.1</ele>
        <time>2018-11-25T23:34:12Z</time>
      </trkpt>
      <trkpt lat="42.10329" lon="2.41878">
        <ele>1147.5</ele>
        <time>2018-11-25T23:34:26Z</time>
      </trkpt>
      <trkpt lat="42.10329" lon="2.41877">
        <ele>1147.3</ele>
        <time>2018-11-25T23:34:27Z</time>
      </trkpt>
      <trkpt lat="42.10338" lon="2.41866">
        <ele>1142.4</ele>
        <time>2018-11-25T23:34:31Z</time>
      </trkpt>
      <trkpt lat="42.10341" lon="2.41862">
        <ele>1140.8</ele>
        <time>2018-11-25T23:34:33Z</time>
      </trkpt>
      <trkpt lat="42.1035" lon="2.41849">
        <ele>1136.4</ele>
        <time>2018-11-25T23:34:38Z</time>
      </trkpt>
      <trkpt lat="42.10371" lon="2.41837">
        <ele>1121.9</ele>
        <time>2018-11-25T23:34:47Z</time>
      </trkpt>
      <trkpt lat="42.10395" lon="2.41826">
        <ele>1109.7</ele>
        <time>2018-11-25T23:34:58Z</time>
      </trkpt>
      <trkpt lat="42.10404" lon="2.41811">
        <ele>1107.7</ele>
        <time>2018-11-25T23:35:03Z</time>
      </trkpt>
      <trkpt lat="42.10407" lon="2.41805">
        <ele>1107.1</ele>
        <time>2018-11-25T23:35:05Z</time>
      </trkpt>
      <trkpt lat="42.10408" lon="2.41793">
        <ele>1109.1</ele>
        <time>2018-11-25T23:35:09Z</time>
      </trkpt>
      <trkpt lat="42.10407" lon="2.41783">
        <ele>1113.7</ele>
        <time>2018-11-25T23:35:12Z</time>
      </trkpt>
      <trkpt lat="42.10405" lon="2.41765">
        <ele>1121.6</ele>
        <time>2018-11-25T23:35:17Z</time>
      </trkpt>
      <trkpt lat="42.10405" lon="2.41758">
        <ele>1124.1</ele>
        <time>2018-11-25T23:35:19Z</time>
      </trkpt>
      <trkpt lat="42.10399" lon="2.41744">
        <ele>1133.6</ele>
        <time>2018-11-25T23:35:24Z</time>
      </trkpt>
      <trkpt lat="42.10394" lon="2.41737">
        <ele>1141.4</ele>
        <time>2018-11-25T23:35:27Z</time>
      </trkpt>
      <trkpt lat="42.10387" lon="2.41728">
        <ele>1150.9</ele>
        <time>2018-11-25T23:35:31Z</time>
      </trkpt>
      <trkpt lat="42.10389" lon="2.41715">
        <ele>1154.6</ele>
        <time>2018-11-25T23:35:35Z</time>
      </trkpt>
      <trkpt lat="42.10389" lon="2.41712">
        <ele>1156.3</ele>
        <time>2018-11-25T23:35:36Z</time>
      </trkpt>
      <trkpt lat="42.10389" lon="2.41692">
        <ele>1162.2</ele>
        <time>2018-11-25T23:35:42Z</time>
      </trkpt>
      <trkpt lat="42.10386" lon="2.41669">
        <ele>1173</ele>
        <time>2018-11-25T23:35:49Z</time>
      </trkpt>
      <trkpt lat="42.10387" lon="2.41654">
        <ele>1176.9</ele>
        <time>2018-11-25T23:35:53Z</time>
      </trkpt>
      <trkpt lat="42.10386" lon="2.41652">
        <ele>1178</ele>
        <time>2018-11-25T23:35:54Z</time>
      </trkpt>
      <trkpt lat="42.10395" lon="2.41646">
        <ele>1170.2</ele>
        <time>2018-11-25T23:35:58Z</time>
      </trkpt>
      <trkpt lat="42.104" lon="2.41645">
        <ele>1166</ele>
        <time>2018-11-25T23:35:59Z</time>
      </trkpt>
      <trkpt lat="42.10403" lon="2.4164">
        <ele>1163.8</ele>
        <time>2018-11-25T23:36:02Z</time>
      </trkpt>
      <trkpt lat="42.10405" lon="2.41622">
        <ele>1166.6</ele>
        <time>2018-11-25T23:36:07Z</time>
      </trkpt>
      <trkpt lat="42.10403" lon="2.41613">
        <ele>1170.5</ele>
        <time>2018-11-25T23:36:10Z</time>
      </trkpt>
      <trkpt lat="42.10405" lon="2.41596">
        <ele>1172.2</ele>
        <time>2018-11-25T23:36:15Z</time>
      </trkpt>
      <trkpt lat="42.10414" lon="2.41584">
        <ele>1165.8</ele>
        <time>2018-11-25T23:36:20Z</time>
      </trkpt>
      <trkpt lat="42.10418" lon="2.41575">
        <ele>1162.8</ele>
        <time>2018-11-25T23:36:23Z</time>
      </trkpt>
      <trkpt lat="42.10423" lon="2.41556">
        <ele>1161.9</ele>
        <time>2018-11-25T23:36:29Z</time>
      </trkpt>
      <trkpt lat="42.10418" lon="2.41532">
        <ele>1173.4</ele>
        <time>2018-11-25T23:36:36Z</time>
      </trkpt>
      <trkpt lat="42.10416" lon="2.41527">
        <ele>1176.6</ele>
        <time>2018-11-25T23:36:38Z</time>
      </trkpt>
      <trkpt lat="42.10409" lon="2.41502">
        <ele>1190.1</ele>
        <time>2018-11-25T23:36:46Z</time>
      </trkpt>
      <trkpt lat="42.10409" lon="2.415">
        <ele>1190.2</ele>
        <time>2018-11-25T23:36:47Z</time>
      </trkpt>
      <trkpt lat="42.10413" lon="2.4148">
        <ele>1191.3</ele>
        <time>2018-11-25T23:36:53Z</time>
      </trkpt>
      <trkpt lat="42.10415" lon="2.41475">
        <ele>1190.1</ele>
        <time>2018-11-25T23:36:55Z</time>
      </trkpt>
      <trkpt lat="42.10431" lon="2.41466">
        <ele>1177.3</ele>
        <time>2018-11-25T23:37:01Z</time>
      </trkpt>
      <trkpt lat="42.10438" lon="2.41457">
        <ele>1171.9</ele>
        <time>2018-11-25T23:37:05Z</time>
      </trkpt>
      <trkpt lat="42.1044" lon="2.41451">
        <ele>1170.2</ele>
        <time>2018-11-25T23:37:07Z</time>
      </trkpt>
      <trkpt lat="42.10443" lon="2.41448">
        <ele>1167.8</ele>
        <time>2018-11-25T23:37:09Z</time>
      </trkpt>
      <trkpt lat="42.10453" lon="2.41431">
        <ele>1159.4</ele>
        <time>2018-11-25T23:37:15Z</time>
      </trkpt>
      <trkpt lat="42.10454" lon="2.41429">
        <ele>1158.5</ele>
        <time>2018-11-25T23:37:16Z</time>
      </trkpt>
      <trkpt lat="42.10458" lon="2.41408">
        <ele>1156.2</ele>
        <time>2018-11-25T23:37:22Z</time>
      </trkpt>
      <trkpt lat="42.10458" lon="2.41407">
        <ele>1156.4</ele>
        <time>2018-11-25T23:37:23Z</time>
      </trkpt>
      <trkpt lat="42.10449" lon="2.41387">
        <ele>1166.6</ele>
        <time>2018-11-25T23:37:30Z</time>
      </trkpt>
      <trkpt lat="42.10448" lon="2.41386">
        <ele>1167.6</ele>
        <time>2018-11-25T23:37:30Z</time>
      </trkpt>
      <trkpt lat="42.10447" lon="2.41376">
        <ele>1169.6</ele>
        <time>2018-11-25T23:37:33Z</time>
      </trkpt>
      <trkpt lat="42.10452" lon="2.41358">
        <ele>1163.9</ele>
        <time>2018-11-25T23:37:39Z</time>
      </trkpt>
      <trkpt lat="42.10461" lon="2.41344">
        <ele>1154.7</ele>
        <time>2018-11-25T23:37:45Z</time>
      </trkpt>
      <trkpt lat="42.10465" lon="2.41338">
        <ele>1151.2</ele>
        <time>2018-11-25T23:37:47Z</time>
      </trkpt>
      <trkpt lat="42.10468" lon="2.41314">
        <ele>1147.4</ele>
        <time>2018-11-25T23:37:54Z</time>
      </trkpt>
      <trkpt lat="42.10452" lon="2.41292">
        <ele>1159.7</ele>
        <time>2018-11-25T23:38:03Z</time>
      </trkpt>
      <trkpt lat="42.10452" lon="2.4129">
        <ele>1159.5</ele>
        <time>2018-11-25T23:38:04Z</time>
      </trkpt>
      <trkpt lat="42.10448" lon="2.41282">
        <ele>1163.6</ele>
        <time>2018-11-25T23:38:07Z</time>
      </trkpt>
      <trkpt lat="42.10434" lon="2.41278">
        <ele>1176.2</ele>
        <time>2018-11-25T23:38:13Z</time>
      </trkpt>
      <trkpt lat="42.10419" lon="2.41264">
        <ele>1188.9</ele>
        <time>2018-11-25T23:38:20Z</time>
      </trkpt>
      <trkpt lat="42.10403" lon="2.41249">
        <ele>1201.6</ele>
        <time>2018-11-25T23:38:28Z</time>
      </trkpt>
      <trkpt lat="42.10402" lon="2.41247">
        <ele>1202.2</ele>
        <time>2018-11-25T23:38:28Z</time>
      </trkpt>
      <trkpt lat="42.10398" lon="2.41239">
        <ele>1205.3</ele>
        <time>2018-11-25T23:38:31Z</time>
      </trkpt>
      <trkpt lat="42.10398" lon="2.41234">
        <ele>1205.1</ele>
        <time>2018-11-25T23:38:33Z</time>
      </trkpt>
      <trkpt lat="42.10403" lon="2.4122">
        <ele>1199.7</ele>
        <time>2018-11-25T23:38:37Z</time>
      </trkpt>
      <trkpt lat="42.10407" lon="2.41215">
        <ele>1195.8</ele>
        <time>2018-11-25T23:38:39Z</time>
      </trkpt>
      <trkpt lat="42.10412" lon="2.41205">
        <ele>1191.2</ele>
        <time>2018-11-25T23:38:43Z</time>
      </trkpt>
      <trkpt lat="42.10417" lon="2.41198">
        <ele>1187.3</ele>
        <time>2018-11-25T23:38:46Z</time>
      </trkpt>
      <trkpt lat="42.10416" lon="2.41182">
        <ele>1188.1</ele>
        <time>2018-11-25T23:38:51Z</time>
      </trkpt>
      <trkpt lat="42.10403" lon="2.41161">
        <ele>1199.3</ele>
        <time>2018-11-25T23:38:59Z</time>
      </trkpt>
      <trkpt lat="42.10403" lon="2.41156">
        <ele>1199.6</ele>
        <time>2018-11-25T23:39:00Z</time>
      </trkpt>
      <trkpt lat="42.10403" lon="2.41144">
        <ele>1199.2</ele>
        <time>2018-11-25T23:39:04Z</time>
      </trkpt>
      <trkpt lat="42.10405" lon="2.41131">
        <ele>1198.1</ele>
        <time>2018-11-25T23:39:08Z</time>
      </trkpt>
      <trkpt lat="42.10412" lon="2.41109">
        <ele>1192.4</ele>
        <time>2018-11-25T23:39:15Z</time>
      </trkpt>
      <trkpt lat="42.10418" lon="2.41083">
        <ele>1186.5</ele>
        <time>2018-11-25T23:39:23Z</time>
      </trkpt>
      <trkpt lat="42.10411" lon="2.41063">
        <ele>1190.4</ele>
        <time>2018-11-25T23:39:29Z</time>
      </trkpt>
      <trkpt lat="42.1041" lon="2.41054">
        <ele>1191.3</ele>
        <time>2018-11-25T23:39:32Z</time>
      </trkpt>
      <trkpt lat="42.10418" lon="2.41044">
        <ele>1184.5</ele>
        <time>2018-11-25T23:39:36Z</time>
      </trkpt>
      <trkpt lat="42.10427" lon="2.41024">
        <ele>1175.4</ele>
        <time>2018-11-25T23:39:44Z</time>
      </trkpt>
      <trkpt lat="42.10428" lon="2.40999">
        <ele>1172.3</ele>
        <time>2018-11-25T23:39:51Z</time>
      </trkpt>
      <trkpt lat="42.10426" lon="2.40997">
        <ele>1173.4</ele>
        <time>2018-11-25T23:39:52Z</time>
      </trkpt>
      <trkpt lat="42.10413" lon="2.4098">
        <ele>1182.2</ele>
        <time>2018-11-25T23:39:59Z</time>
      </trkpt>
      <trkpt lat="42.10398" lon="2.40974">
        <ele>1192.8</ele>
        <time>2018-11-25T23:40:05Z</time>
      </trkpt>
      <trkpt lat="42.10391" lon="2.40962">
        <ele>1197.1</ele>
        <time>2018-11-25T23:40:10Z</time>
      </trkpt>
      <trkpt lat="42.10391" lon="2.40958">
        <ele>1196.6</ele>
        <time>2018-11-25T23:40:11Z</time>
      </trkpt>
      <trkpt lat="42.10396" lon="2.40947">
        <ele>1194.3</ele>
        <time>2018-11-25T23:40:15Z</time>
      </trkpt>
      <trkpt lat="42.10391" lon="2.40923">
        <ele>1200.6</ele>
        <time>2018-11-25T23:40:22Z</time>
      </trkpt>
      <trkpt lat="42.10393" lon="2.40912">
        <ele>1200.7</ele>
        <time>2018-11-25T23:40:26Z</time>
      </trkpt>
      <trkpt lat="42.10397" lon="2.40907">
        <ele>1198.3</ele>
        <time>2018-11-25T23:40:28Z</time>
      </trkpt>
      <trkpt lat="42.10401" lon="2.40903">
        <ele>1195.2</ele>
        <time>2018-11-25T23:40:30Z</time>
      </trkpt>
      <trkpt lat="42.10416" lon="2.40887">
        <ele>1184.9</ele>
        <time>2018-11-25T23:40:38Z</time>
      </trkpt>
      <trkpt lat="42.10429" lon="2.4086">
        <ele>1176.7</ele>
        <time>2018-11-25T23:40:47Z</time>
      </trkpt>
      <trkpt lat="42.10432" lon="2.40855">
        <ele>1173.9</ele>
        <time>2018-11-25T23:40:49Z</time>
      </trkpt>
      <trkpt lat="42.1044" lon="2.40843">
        <ele>1168.1</ele>
        <time>2018-11-25T23:40:54Z</time>
      </trkpt>
      <trkpt lat="42.10442" lon="2.40838">
        <ele>1166.7</ele>
        <time>2018-11-25T23:40:56Z</time>
      </trkpt>
      <trkpt lat="42.10443" lon="2.40815">
        <ele>1165.6</ele>
        <time>2018-11-25T23:41:02Z</time>
      </trkpt>
      <trkpt lat="42.10441" lon="2.40809">
        <ele>1167.2</ele>
        <time>2018-11-25T23:41:04Z</time>
      </trkpt>
      <trkpt lat="42.10441" lon="2.40808">
        <ele>1167.5</ele>
        <time>2018-11-25T23:41:05Z</time>
      </trkpt>
      <trkpt lat="42.10442" lon="2.40811">
        <ele>1166.2</ele>
        <time>2018-11-25T23:41:06Z</time>
      </trkpt>
      <trkpt lat="42.1044" lon="2.40808">
        <ele>1168.5</ele>
        <time>2018-11-25T23:41:07Z</time>
      </trkpt>
      <trkpt lat="42.10435" lon="2.408">
        <ele>1172.2</ele>
        <time>2018-11-25T23:41:10Z</time>
      </trkpt>
      <trkpt lat="42.10437" lon="2.40794">
        <ele>1170.7</ele>
        <time>2018-11-25T23:41:12Z</time>
      </trkpt>
      <trkpt lat="42.10438" lon="2.40786">
        <ele>1168.8</ele>
        <time>2018-11-25T23:41:14Z</time>
      </trkpt>
      <trkpt lat="42.10439" lon="2.40783">
        <ele>1167.8</ele>
        <time>2018-11-25T23:41:15Z</time>
      </trkpt>
      <trkpt lat="42.10436" lon="2.40776">
        <ele>1168.4</ele>
        <time>2018-11-25T23:41:18Z</time>
      </trkpt>
      <trkpt lat="42.10433" lon="2.40759">
        <ele>1167.4</ele>
        <time>2018-11-25T23:41:23Z</time>
      </trkpt>
      <trkpt lat="42.10433" lon="2.40753">
        <ele>1166.3</ele>
        <time>2018-11-25T23:41:24Z</time>
      </trkpt>
      <trkpt lat="42.10432" lon="2.40749">
        <ele>1166.2</ele>
        <time>2018-11-25T23:41:26Z</time>
      </trkpt>
      <trkpt lat="42.10434" lon="2.4074">
        <ele>1163</ele>
        <time>2018-11-25T23:41:28Z</time>
      </trkpt>
      <trkpt lat="42.10433" lon="2.40733">
        <ele>1162.5</ele>
        <time>2018-11-25T23:41:31Z</time>
      </trkpt>
      <trkpt lat="42.10432" lon="2.40726">
        <ele>1162.3</ele>
        <time>2018-11-25T23:41:33Z</time>
      </trkpt>
      <trkpt lat="42.10426" lon="2.40697">
        <ele>1160.4</ele>
        <time>2018-11-25T23:41:42Z</time>
      </trkpt>
      <trkpt lat="42.10413" lon="2.4067">
        <ele>1163.2</ele>
        <time>2018-11-25T23:41:51Z</time>
      </trkpt>
      <trkpt lat="42.1041" lon="2.40666">
        <ele>1164.2</ele>
        <time>2018-11-25T23:41:53Z</time>
      </trkpt>
      <trkpt lat="42.10392" lon="2.40643">
        <ele>1168.6</ele>
        <time>2018-11-25T23:42:03Z</time>
      </trkpt>
      <trkpt lat="42.10387" lon="2.40632">
        <ele>1168.1</ele>
        <time>2018-11-25T23:42:07Z</time>
      </trkpt>
      <trkpt lat="42.10381" lon="2.40603">
        <ele>1168.4</ele>
        <time>2018-11-25T23:42:16Z</time>
      </trkpt>
      <trkpt lat="42.10376" lon="2.4059">
        <ele>1170.2</ele>
        <time>2018-11-25T23:42:20Z</time>
      </trkpt>
      <trkpt lat="42.1036" lon="2.40568">
        <ele>1179.5</ele>
        <time>2018-11-25T23:42:29Z</time>
      </trkpt>
      <trkpt lat="42.10356" lon="2.40545">
        <ele>1181.7</ele>
        <time>2018-11-25T23:42:36Z</time>
      </trkpt>
      <trkpt lat="42.1035" lon="2.40533">
        <ele>1187.8</ele>
        <time>2018-11-25T23:42:40Z</time>
      </trkpt>
      <trkpt lat="42.10352" lon="2.40526">
        <ele>1188.2</ele>
        <time>2018-11-25T23:42:43Z</time>
      </trkpt>
      <trkpt lat="42.10354" lon="2.40512">
        <ele>1189.5</ele>
        <time>2018-11-25T23:42:47Z</time>
      </trkpt>
      <trkpt lat="42.10352" lon="2.40501">
        <ele>1193.4</ele>
        <time>2018-11-25T23:42:50Z</time>
      </trkpt>
      <trkpt lat="42.10355" lon="2.40486">
        <ele>1195.3</ele>
        <time>2018-11-25T23:42:55Z</time>
      </trkpt>
      <trkpt lat="42.10357" lon="2.4048">
        <ele>1195.3</ele>
        <time>2018-11-25T23:42:57Z</time>
      </trkpt>
      <trkpt lat="42.10378" lon="2.40463">
        <ele>1188.9</ele>
        <time>2018-11-25T23:43:07Z</time>
      </trkpt>
      <trkpt lat="42.10383" lon="2.40458">
        <ele>1187.7</ele>
        <time>2018-11-25T23:43:09Z</time>
      </trkpt>
      <trkpt lat="42.10389" lon="2.40455">
        <ele>1183.5</ele>
        <time>2018-11-25T23:43:12Z</time>
      </trkpt>
      <trkpt lat="42.10392" lon="2.40451">
        <ele>1181.5</ele>
        <time>2018-11-25T23:43:13Z</time>
      </trkpt>
      <trkpt lat="42.10395" lon="2.40443">
        <ele>1178.9</ele>
        <time>2018-11-25T23:43:16Z</time>
      </trkpt>
      <trkpt lat="42.10413" lon="2.40425">
        <ele>1163.9</ele>
        <time>2018-11-25T23:43:25Z</time>
      </trkpt>
      <trkpt lat="42.10415" lon="2.40421">
        <ele>1162.5</ele>
        <time>2018-11-25T23:43:26Z</time>
      </trkpt>
      <trkpt lat="42.10415" lon="2.40415">
        <ele>1160.7</ele>
        <time>2018-11-25T23:43:28Z</time>
      </trkpt>
      <trkpt lat="42.10415" lon="2.40412">
        <ele>1160.4</ele>
        <time>2018-11-25T23:43:29Z</time>
      </trkpt>
      <trkpt lat="42.1041" lon="2.40405">
        <ele>1162.8</ele>
        <time>2018-11-25T23:43:32Z</time>
      </trkpt>
      <trkpt lat="42.10392" lon="2.40385">
        <ele>1175.4</ele>
        <time>2018-11-25T23:43:42Z</time>
      </trkpt>
      <trkpt lat="42.10392" lon="2.40385">
        <ele>1175.5</ele>
        <time>2018-11-25T23:43:42Z</time>
      </trkpt>
      <trkpt lat="42.10391" lon="2.40383">
        <ele>1176.2</ele>
        <time>2018-11-25T23:43:42Z</time>
      </trkpt>
      <trkpt lat="42.10384" lon="2.4035">
        <ele>1173.2</ele>
        <time>2018-11-25T23:43:52Z</time>
      </trkpt>
      <trkpt lat="42.1037" lon="2.40303">
        <ele>1168.1</ele>
        <time>2018-11-25T23:44:08Z</time>
      </trkpt>
      <trkpt lat="42.10355" lon="2.40296">
        <ele>1173.6</ele>
        <time>2018-11-25T23:44:14Z</time>
      </trkpt>
      <trkpt lat="42.10351" lon="2.40294">
        <ele>1175.2</ele>
        <time>2018-11-25T23:44:16Z</time>
      </trkpt>
      <trkpt lat="42.10337" lon="2.40282">
        <ele>1179.9</ele>
        <time>2018-11-25T23:44:22Z</time>
      </trkpt>
      <trkpt lat="42.10333" lon="2.40273">
        <ele>1181.3</ele>
        <time>2018-11-25T23:44:25Z</time>
      </trkpt>
      <trkpt lat="42.10325" lon="2.40255">
        <ele>1182.6</ele>
        <time>2018-11-25T23:44:32Z</time>
      </trkpt>
      <trkpt lat="42.1032" lon="2.40242">
        <ele>1183.2</ele>
        <time>2018-11-25T23:44:36Z</time>
      </trkpt>
      <trkpt lat="42.10319" lon="2.40218">
        <ele>1179.9</ele>
        <time>2018-11-25T23:44:43Z</time>
      </trkpt>
      <trkpt lat="42.10319" lon="2.40218">
        <ele>1179.9</ele>
        <time>2018-11-25T23:44:43Z</time>
      </trkpt>
      <trkpt lat="42.10325" lon="2.40186">
        <ele>1175.5</ele>
        <time>2018-11-25T23:44:53Z</time>
      </trkpt>
      <trkpt lat="42.10327" lon="2.40172">
        <ele>1174.3</ele>
        <time>2018-11-25T23:44:57Z</time>
      </trkpt>
      <trkpt lat="42.10328" lon="2.40151">
        <ele>1173.7</ele>
        <time>2018-11-25T23:45:03Z</time>
      </trkpt>
      <trkpt lat="42.10326" lon="2.40134">
        <ele>1174.3</ele>
        <time>2018-11-25T23:45:09Z</time>
      </trkpt>
      <trkpt lat="42.10327" lon="2.40117">
        <ele>1174.3</ele>
        <time>2018-11-25T23:45:14Z</time>
      </trkpt>
      <trkpt lat="42.10328" lon="2.40107">
        <ele>1174.3</ele>
        <time>2018-11-25T23:45:17Z</time>
      </trkpt>
      <trkpt lat="42.10328" lon="2.40106">
        <ele>1174.2</ele>
        <time>2018-11-25T23:45:17Z</time>
      </trkpt>
      <trkpt lat="42.10328" lon="2.4009">
        <ele>1174.6</ele>
        <time>2018-11-25T23:45:22Z</time>
      </trkpt>
      <trkpt lat="42.10323" lon="2.40073">
        <ele>1175.8</ele>
        <time>2018-11-25T23:45:27Z</time>
      </trkpt>
      <trkpt lat="42.10322" lon="2.40065">
        <ele>1176</ele>
        <time>2018-11-25T23:45:29Z</time>
      </trkpt>
      <trkpt lat="42.1032" lon="2.40058">
        <ele>1176.3</ele>
        <time>2018-11-25T23:45:32Z</time>
      </trkpt>
      <trkpt lat="42.10318" lon="2.40049">
        <ele>1176.4</ele>
        <time>2018-11-25T23:45:35Z</time>
      </trkpt>
      <trkpt lat="42.10322" lon="2.40021">
        <ele>1173.5</ele>
        <time>2018-11-25T23:45:43Z</time>
      </trkpt>
      <trkpt lat="42.1033" lon="2.39986">
        <ele>1169.6</ele>
        <time>2018-11-25T23:45:54Z</time>
      </trkpt>
      <trkpt lat="42.10338" lon="2.39966">
        <ele>1168.4</ele>
        <time>2018-11-25T23:46:01Z</time>
      </trkpt>
      <trkpt lat="42.10343" lon="2.39957">
        <ele>1168.3</ele>
        <time>2018-11-25T23:46:04Z</time>
      </trkpt>
      <trkpt lat="42.10345" lon="2.39946">
        <ele>1167.4</ele>
        <time>2018-11-25T23:46:07Z</time>
      </trkpt>
      <trkpt lat="42.10347" lon="2.39943">
        <ele>1167.5</ele>
        <time>2018-11-25T23:46:09Z</time>
      </trkpt>
      <trkpt lat="42.10349" lon="2.39937">
        <ele>1167.1</ele>
        <time>2018-11-25T23:46:10Z</time>
      </trkpt>
      <trkpt lat="42.10349" lon="2.39933">
        <ele>1166.7</ele>
        <time>2018-11-25T23:46:12Z</time>
      </trkpt>
      <trkpt lat="42.10349" lon="2.39932">
        <ele>1166.5</ele>
        <time>2018-11-25T23:46:12Z</time>
      </trkpt>
      <trkpt lat="42.10349" lon="2.39926">
        <ele>1165.9</ele>
        <time>2018-11-25T23:46:14Z</time>
      </trkpt>
      <trkpt lat="42.10353" lon="2.39914">
        <ele>1165.4</ele>
        <time>2018-11-25T23:46:18Z</time>
      </trkpt>
      <trkpt lat="42.10339" lon="2.39883">
        <ele>1159.4</ele>
        <time>2018-11-25T23:46:28Z</time>
      </trkpt>
      <trkpt lat="42.10328" lon="2.39872">
        <ele>1155.9</ele>
        <time>2018-11-25T23:46:34Z</time>
      </trkpt>
      <trkpt lat="42.10328" lon="2.39873">
        <ele>1155.8</ele>
        <time>2018-11-25T23:46:34Z</time>
      </trkpt>
      <trkpt lat="42.10327" lon="2.39872">
        <ele>1155.7</ele>
        <time>2018-11-25T23:46:34Z</time>
      </trkpt>
      <trkpt lat="42.10326" lon="2.39869">
        <ele>1155.9</ele>
        <time>2018-11-25T23:46:35Z</time>
      </trkpt>
      <trkpt lat="42.10326" lon="2.39869">
        <ele>1155.7</ele>
        <time>2018-11-25T23:46:36Z</time>
      </trkpt>
      <trkpt lat="42.10326" lon="2.39867">
        <ele>1155.8</ele>
        <time>2018-11-25T23:46:36Z</time>
      </trkpt>
      <trkpt lat="42.10324" lon="2.39864">
        <ele>1155.8</ele>
        <time>2018-11-25T23:46:37Z</time>
      </trkpt>
      <trkpt lat="42.10325" lon="2.39849">
        <ele>1157.1</ele>
        <time>2018-11-25T23:46:42Z</time>
      </trkpt>
      <trkpt lat="42.10331" lon="2.39826">
        <ele>1160.8</ele>
        <time>2018-11-25T23:46:49Z</time>
      </trkpt>
      <trkpt lat="42.10333" lon="2.39818">
        <ele>1162</ele>
        <time>2018-11-25T23:46:51Z</time>
      </trkpt>
      <trkpt lat="42.10333" lon="2.39805">
        <ele>1163.2</ele>
        <time>2018-11-25T23:46:55Z</time>
      </trkpt>
      <trkpt lat="42.10334" lon="2.398">
        <ele>1164.1</ele>
        <time>2018-11-25T23:46:57Z</time>
      </trkpt>
      <trkpt lat="42.10334" lon="2.39792">
        <ele>1164.9</ele>
        <time>2018-11-25T23:46:59Z</time>
      </trkpt>
      <trkpt lat="42.10328" lon="2.39782">
        <ele>1163.9</ele>
        <time>2018-11-25T23:47:03Z</time>
      </trkpt>
      <trkpt lat="42.10328" lon="2.39781">
        <ele>1163.7</ele>
        <time>2018-11-25T23:47:04Z</time>
      </trkpt>
      <trkpt lat="42.10325" lon="2.39777">
        <ele>1162.9</ele>
        <time>2018-11-25T23:47:05Z</time>
      </trkpt>
      <trkpt lat="42.10325" lon="2.39777">
        <ele>1163</ele>
        <time>2018-11-25T23:47:05Z</time>
      </trkpt>
      <trkpt lat="42.10324" lon="2.39769">
        <ele>1163.5</ele>
        <time>2018-11-25T23:47:08Z</time>
      </trkpt>
      <trkpt lat="42.10326" lon="2.39746">
        <ele>1166.4</ele>
        <time>2018-11-25T23:47:14Z</time>
      </trkpt>
      <trkpt lat="42.10332" lon="2.39734">
        <ele>1169.6</ele>
        <time>2018-11-25T23:47:19Z</time>
      </trkpt>
      <trkpt lat="42.10337" lon="2.39724">
        <ele>1172.6</ele>
        <time>2018-11-25T23:47:22Z</time>
      </trkpt>
      <trkpt lat="42.10341" lon="2.39715">
        <ele>1174.9</ele>
        <time>2018-11-25T23:47:25Z</time>
      </trkpt>
      <trkpt lat="42.10334" lon="2.3971">
        <ele>1172.4</ele>
        <time>2018-11-25T23:47:29Z</time>
      </trkpt>
      <trkpt lat="42.10326" lon="2.39699">
        <ele>1168</ele>
        <time>2018-11-25T23:47:33Z</time>
      </trkpt>
      <trkpt lat="42.10332" lon="2.39681">
        <ele>1167.3</ele>
        <time>2018-11-25T23:47:39Z</time>
      </trkpt>
      <trkpt lat="42.10349" lon="2.39664">
        <ele>1172.5</ele>
        <time>2018-11-25T23:47:47Z</time>
      </trkpt>
      <trkpt lat="42.10352" lon="2.39651">
        <ele>1172</ele>
        <time>2018-11-25T23:47:51Z</time>
      </trkpt>
      <trkpt lat="42.10359" lon="2.39645">
        <ele>1174.7</ele>
        <time>2018-11-25T23:47:55Z</time>
      </trkpt>
      <trkpt lat="42.10361" lon="2.39641">
        <ele>1175.2</ele>
        <time>2018-11-25T23:47:56Z</time>
      </trkpt>
      <trkpt lat="42.10365" lon="2.39622">
        <ele>1175.3</ele>
        <time>2018-11-25T23:48:02Z</time>
      </trkpt>
      <trkpt lat="42.10368" lon="2.39619">
        <ele>1177</ele>
        <time>2018-11-25T23:48:04Z</time>
      </trkpt>
      <trkpt lat="42.10367" lon="2.39599">
        <ele>1176</ele>
        <time>2018-11-25T23:48:09Z</time>
      </trkpt>
      <trkpt lat="42.10371" lon="2.3957">
        <ele>1177.3</ele>
        <time>2018-11-25T23:48:18Z</time>
      </trkpt>
      <trkpt lat="42.10371" lon="2.39549">
        <ele>1176.7</ele>
        <time>2018-11-25T23:48:24Z</time>
      </trkpt>
      <trkpt lat="42.10368" lon="2.3953">
        <ele>1175.2</ele>
        <time>2018-11-25T23:48:30Z</time>
      </trkpt>
      <trkpt lat="42.10367" lon="2.39525">
        <ele>1174.7</ele>
        <time>2018-11-25T23:48:32Z</time>
      </trkpt>
      <trkpt lat="42.10368" lon="2.39508">
        <ele>1176</ele>
        <time>2018-11-25T23:48:37Z</time>
      </trkpt>
      <trkpt lat="42.10368" lon="2.39497">
        <ele>1176.8</ele>
        <time>2018-11-25T23:48:40Z</time>
      </trkpt>
      <trkpt lat="42.10369" lon="2.39487">
        <ele>1177.8</ele>
        <time>2018-11-25T23:48:43Z</time>
      </trkpt>
      <trkpt lat="42.10366" lon="2.39474">
        <ele>1177</ele>
        <time>2018-11-25T23:48:47Z</time>
      </trkpt>
      <trkpt lat="42.10368" lon="2.39461">
        <ele>1178.2</ele>
        <time>2018-11-25T23:48:51Z</time>
      </trkpt>
      <trkpt lat="42.10369" lon="2.39436">
        <ele>1179.9</ele>
        <time>2018-11-25T23:48:58Z</time>
      </trkpt>
      <trkpt lat="42.10368" lon="2.39411">
        <ele>1180.2</ele>
        <time>2018-11-25T23:49:06Z</time>
      </trkpt>
      <trkpt lat="42.10371" lon="2.39403">
        <ele>1181.7</ele>
        <time>2018-11-25T23:49:08Z</time>
      </trkpt>
      <trkpt lat="42.10372" lon="2.39399">
        <ele>1182.5</ele>
        <time>2018-11-25T23:49:09Z</time>
      </trkpt>
      <trkpt lat="42.10374" lon="2.3939">
        <ele>1184.1</ele>
        <time>2018-11-25T23:49:12Z</time>
      </trkpt>
      <trkpt lat="42.10371" lon="2.39382">
        <ele>1182.6</ele>
        <time>2018-11-25T23:49:15Z</time>
      </trkpt>
      <trkpt lat="42.10368" lon="2.39367">
        <ele>1181.5</ele>
        <time>2018-11-25T23:49:20Z</time>
      </trkpt>
      <trkpt lat="42.10368" lon="2.39364">
        <ele>1181.8</ele>
        <time>2018-11-25T23:49:21Z</time>
      </trkpt>
      <trkpt lat="42.10367" lon="2.3936">
        <ele>1181.8</ele>
        <time>2018-11-25T23:49:22Z</time>
      </trkpt>
      <trkpt lat="42.10367" lon="2.39327">
        <ele>1184.5</ele>
        <time>2018-11-25T23:49:32Z</time>
      </trkpt>
      <trkpt lat="42.10368" lon="2.39302">
        <ele>1187.7</ele>
        <time>2018-11-25T23:49:39Z</time>
      </trkpt>
      <trkpt lat="42.10366" lon="2.39285">
        <ele>1187.7</ele>
        <time>2018-11-25T23:49:44Z</time>
      </trkpt>
      <trkpt lat="42.10366" lon="2.39285">
        <ele>1187.7</ele>
        <time>2018-11-25T23:49:44Z</time>
      </trkpt>
      <trkpt lat="42.10368" lon="2.39282">
        <ele>1189.2</ele>
        <time>2018-11-25T23:49:45Z</time>
      </trkpt>
      <trkpt lat="42.10366" lon="2.39267">
        <ele>1189</ele>
        <time>2018-11-25T23:49:50Z</time>
      </trkpt>
      <trkpt lat="42.10367" lon="2.39261">
        <ele>1190</ele>
        <time>2018-11-25T23:49:52Z</time>
      </trkpt>
      <trkpt lat="42.10382" lon="2.39245">
        <ele>1199.8</ele>
        <time>2018-11-25T23:49:59Z</time>
      </trkpt>
      <trkpt lat="42.10379" lon="2.39217">
        <ele>1200.6</ele>
        <time>2018-11-25T23:50:08Z</time>
      </trkpt>
      <trkpt lat="42.1038" lon="2.39205">
        <ele>1201.2</ele>
        <time>2018-11-25T23:50:11Z</time>
      </trkpt>
      <trkpt lat="42.10376" lon="2.39202">
        <ele>1199.5</ele>
        <time>2018-11-25T23:50:13Z</time>
      </trkpt>
      <trkpt lat="42.1037" lon="2.39191">
        <ele>1195.1</ele>
        <time>2018-11-25T23:50:17Z</time>
      </trkpt>
      <trkpt lat="42.10371" lon="2.39178">
        <ele>1195</ele>
        <time>2018-11-25T23:50:21Z</time>
      </trkpt>
      <trkpt lat="42.10354" lon="2.39144">
        <ele>1183.9</ele>
        <time>2018-11-25T23:50:33Z</time>
      </trkpt>
      <trkpt lat="42.10352" lon="2.39111">
        <ele>1182</ele>
        <time>2018-11-25T23:50:43Z</time>
      </trkpt>
      <trkpt lat="42.10351" lon="2.39103">
        <ele>1181.1</ele>
        <time>2018-11-25T23:50:45Z</time>
      </trkpt>
      <trkpt lat="42.10352" lon="2.39098">
        <ele>1181.5</ele>
        <time>2018-11-25T23:50:47Z</time>
      </trkpt>
      <trkpt lat="42.1036" lon="2.39081">
        <ele>1186.3</ele>
        <time>2018-11-25T23:50:53Z</time>
      </trkpt>
      <trkpt lat="42.10365" lon="2.39055">
        <ele>1189.7</ele>
        <time>2018-11-25T23:51:01Z</time>
      </trkpt>
      <trkpt lat="42.10365" lon="2.39027">
        <ele>1191.1</ele>
        <time>2018-11-25T23:51:09Z</time>
      </trkpt>
      <trkpt lat="42.10365" lon="2.39026">
        <ele>1191.4</ele>
        <time>2018-11-25T23:51:09Z</time>
      </trkpt>
      <trkpt lat="42.10367" lon="2.39011">
        <ele>1193.6</ele>
        <time>2018-11-25T23:51:14Z</time>
      </trkpt>
      <trkpt lat="42.10365" lon="2.38997">
        <ele>1193.6</ele>
        <time>2018-11-25T23:51:18Z</time>
      </trkpt>
      <trkpt lat="42.10364" lon="2.3899">
        <ele>1193.8</ele>
        <time>2018-11-25T23:51:20Z</time>
      </trkpt>
      <trkpt lat="42.10365" lon="2.38986">
        <ele>1194.7</ele>
        <time>2018-11-25T23:51:21Z</time>
      </trkpt>
      <trkpt lat="42.10366" lon="2.38981">
        <ele>1195.4</ele>
        <time>2018-11-25T23:51:23Z</time>
      </trkpt>
      <trkpt lat="42.10365" lon="2.38978">
        <ele>1195.2</ele>
        <time>2018-11-25T23:51:24Z</time>
      </trkpt>
      <trkpt lat="42.10365" lon="2.38962">
        <ele>1196.3</ele>
        <time>2018-11-25T23:51:29Z</time>
      </trkpt>
      <trkpt lat="42.10363" lon="2.38952">
        <ele>1196.1</ele>
        <time>2018-11-25T23:51:32Z</time>
      </trkpt>
      <trkpt lat="42.10358" lon="2.3893">
        <ele>1193.4</ele>
        <time>2018-11-25T23:51:39Z</time>
      </trkpt>
      <trkpt lat="42.10358" lon="2.38928">
        <ele>1193.3</ele>
        <time>2018-11-25T23:51:39Z</time>
      </trkpt>
      <trkpt lat="42.10357" lon="2.38926">
        <ele>1193.2</ele>
        <time>2018-11-25T23:51:40Z</time>
      </trkpt>
      <trkpt lat="42.10358" lon="2.38919">
        <ele>1193.6</ele>
        <time>2018-11-25T23:51:42Z</time>
      </trkpt>
      <trkpt lat="42.10359" lon="2.38915">
        <ele>1194.4</ele>
        <time>2018-11-25T23:51:43Z</time>
      </trkpt>
      <trkpt lat="42.10357" lon="2.38905">
        <ele>1193.8</ele>
        <time>2018-11-25T23:51:46Z</time>
      </trkpt>
      <trkpt lat="42.10355" lon="2.38885">
        <ele>1193.1</ele>
        <time>2018-11-25T23:51:52Z</time>
      </trkpt>
      <trkpt lat="42.10355" lon="2.38881">
        <ele>1193.1</ele>
        <time>2018-11-25T23:51:53Z</time>
      </trkpt>
      <trkpt lat="42.10352" lon="2.3886">
        <ele>1192.2</ele>
        <time>2018-11-25T23:52:00Z</time>
      </trkpt>
      <trkpt lat="42.10353" lon="2.38843">
        <ele>1193.6</ele>
        <time>2018-11-25T23:52:05Z</time>
      </trkpt>
      <trkpt lat="42.10352" lon="2.3884">
        <ele>1193</ele>
        <time>2018-11-25T23:52:06Z</time>
      </trkpt>
      <trkpt lat="42.10354" lon="2.38832">
        <ele>1194.8</ele>
        <time>2018-11-25T23:52:08Z</time>
      </trkpt>
      <trkpt lat="42.10355" lon="2.3883">
        <ele>1195.7</ele>
        <time>2018-11-25T23:52:09Z</time>
      </trkpt>
      <trkpt lat="42.10355" lon="2.38815">
        <ele>1196.6</ele>
        <time>2018-11-25T23:52:13Z</time>
      </trkpt>
      <trkpt lat="42.1036" lon="2.38809">
        <ele>1200.5</ele>
        <time>2018-11-25T23:52:16Z</time>
      </trkpt>
      <trkpt lat="42.10362" lon="2.38788">
        <ele>1203.5</ele>
        <time>2018-11-25T23:52:22Z</time>
      </trkpt>
      <trkpt lat="42.10355" lon="2.38772">
        <ele>1200.1</ele>
        <time>2018-11-25T23:52:28Z</time>
      </trkpt>
      <trkpt lat="42.10345" lon="2.38747">
        <ele>1194.6</ele>
        <time>2018-11-25T23:52:36Z</time>
      </trkpt>
      <trkpt lat="42.10342" lon="2.38739">
        <ele>1193</ele>
        <time>2018-11-25T23:52:39Z</time>
      </trkpt>
      <trkpt lat="42.10336" lon="2.38721">
        <ele>1190.7</ele>
        <time>2018-11-25T23:52:45Z</time>
      </trkpt>
      <trkpt lat="42.10331" lon="2.38699">
        <ele>1189.4</ele>
        <time>2018-11-25T23:52:52Z</time>
      </trkpt>
      <trkpt lat="42.10327" lon="2.38684">
        <ele>1188.7</ele>
        <time>2018-11-25T23:52:56Z</time>
      </trkpt>
      <trkpt lat="42.10328" lon="2.38678">
        <ele>1190.5</ele>
        <time>2018-11-25T23:52:58Z</time>
      </trkpt>
      <trkpt lat="42.10328" lon="2.38658">
        <ele>1193.2</ele>
        <time>2018-11-25T23:53:04Z</time>
      </trkpt>
      <trkpt lat="42.10324" lon="2.38628">
        <ele>1194.6</ele>
        <time>2018-11-25T23:53:13Z</time>
      </trkpt>
      <trkpt lat="42.10323" lon="2.38614">
        <ele>1195.3</ele>
        <time>2018-11-25T23:53:17Z</time>
      </trkpt>
      <trkpt lat="42.1032" lon="2.38594">
        <ele>1194.2</ele>
        <time>2018-11-25T23:53:23Z</time>
      </trkpt>
      <trkpt lat="42.10318" lon="2.3859">
        <ele>1192.9</ele>
        <time>2018-11-25T23:53:25Z</time>
      </trkpt>
      <trkpt lat="42.10309" lon="2.38571">
        <ele>1188.6</ele>
        <time>2018-11-25T23:53:32Z</time>
      </trkpt>
      <trkpt lat="42.10311" lon="2.38566">
        <ele>1190.1</ele>
        <time>2018-11-25T23:53:33Z</time>
      </trkpt>
      <trkpt lat="42.10317" lon="2.3855">
        <ele>1194.9</ele>
        <time>2018-11-25T23:53:39Z</time>
      </trkpt>
      <trkpt lat="42.10315" lon="2.38511">
        <ele>1194</ele>
        <time>2018-11-25T23:53:50Z</time>
      </trkpt>
      <trkpt lat="42.10314" lon="2.3849">
        <ele>1193.1</ele>
        <time>2018-11-25T23:53:57Z</time>
      </trkpt>
      <trkpt lat="42.10312" lon="2.38479">
        <ele>1192.2</ele>
        <time>2018-11-25T23:54:00Z</time>
      </trkpt>
      <trkpt lat="42.10315" lon="2.38474">
        <ele>1193.5</ele>
        <time>2018-11-25T23:54:02Z</time>
      </trkpt>
      <trkpt lat="42.10316" lon="2.38469">
        <ele>1194.4</ele>
        <time>2018-11-25T23:54:03Z</time>
      </trkpt>
      <trkpt lat="42.10318" lon="2.38445">
        <ele>1195.4</ele>
        <time>2018-11-25T23:54:10Z</time>
      </trkpt>
      <trkpt lat="42.10318" lon="2.3844">
        <ele>1195.2</ele>
        <time>2018-11-25T23:54:12Z</time>
      </trkpt>
      <trkpt lat="42.10325" lon="2.38419">
        <ele>1198.9</ele>
        <time>2018-11-25T23:54:19Z</time>
      </trkpt>
      <trkpt lat="42.10325" lon="2.3841">
        <ele>1198.7</ele>
        <time>2018-11-25T23:54:21Z</time>
      </trkpt>
      <trkpt lat="42.10325" lon="2.3841">
        <ele>1198.8</ele>
        <time>2018-11-25T23:54:21Z</time>
      </trkpt>
      <trkpt lat="42.10328" lon="2.384">
        <ele>1200.2</ele>
        <time>2018-11-25T23:54:24Z</time>
      </trkpt>
      <trkpt lat="42.10325" lon="2.38391">
        <ele>1198.3</ele>
        <time>2018-11-25T23:54:27Z</time>
      </trkpt>
      <trkpt lat="42.10326" lon="2.38376">
        <ele>1198.9</ele>
        <time>2018-11-25T23:54:32Z</time>
      </trkpt>
      <trkpt lat="42.1033" lon="2.38349">
        <ele>1201.9</ele>
        <time>2018-11-25T23:54:40Z</time>
      </trkpt>
      <trkpt lat="42.10331" lon="2.3834">
        <ele>1202.5</ele>
        <time>2018-11-25T23:54:43Z</time>
      </trkpt>
      <trkpt lat="42.1033" lon="2.38334">
        <ele>1202.2</ele>
        <time>2018-11-25T23:54:44Z</time>
      </trkpt>
      <trkpt lat="42.10331" lon="2.38326">
        <ele>1203.2</ele>
        <time>2018-11-25T23:54:47Z</time>
      </trkpt>
      <trkpt lat="42.10334" lon="2.38321">
        <ele>1205.3</ele>
        <time>2018-11-25T23:54:49Z</time>
      </trkpt>
      <trkpt lat="42.10336" lon="2.38313">
        <ele>1206.7</ele>
        <time>2018-11-25T23:54:51Z</time>
      </trkpt>
      <trkpt lat="42.10337" lon="2.38311">
        <ele>1207.4</ele>
        <time>2018-11-25T23:54:52Z</time>
      </trkpt>
      <trkpt lat="42.1034" lon="2.38293">
        <ele>1209.7</ele>
        <time>2018-11-25T23:54:58Z</time>
      </trkpt>
      <trkpt lat="42.10336" lon="2.38274">
        <ele>1208.9</ele>
        <time>2018-11-25T23:55:04Z</time>
      </trkpt>
      <trkpt lat="42.10336" lon="2.38266">
        <ele>1209.6</ele>
        <time>2018-11-25T23:55:06Z</time>
      </trkpt>
      <trkpt lat="42.1033" lon="2.38246">
        <ele>1207.8</ele>
        <time>2018-11-25T23:55:12Z</time>
      </trkpt>
      <trkpt lat="42.10329" lon="2.38241">
        <ele>1207.5</ele>
        <time>2018-11-25T23:55:14Z</time>
      </trkpt>
      <trkpt lat="42.10327" lon="2.38238">
        <ele>1206.6</ele>
        <time>2018-11-25T23:55:15Z</time>
      </trkpt>
      <trkpt lat="42.10312" lon="2.38229">
        <ele>1198.8</ele>
        <time>2018-11-25T23:55:22Z</time>
      </trkpt>
      <trkpt lat="42.10309" lon="2.38232">
        <ele>1197.3</ele>
        <time>2018-11-25T23:55:23Z</time>
      </trkpt>
      <trkpt lat="42.10304" lon="2.38213">
        <ele>1196.2</ele>
        <time>2018-11-25T23:55:29Z</time>
      </trkpt>
      <trkpt lat="42.10299" lon="2.3819">
        <ele>1196.5</ele>
        <time>2018-11-25T23:55:36Z</time>
      </trkpt>
      <trkpt lat="42.10304" lon="2.38186">
        <ele>1199.4</ele>
        <time>2018-11-25T23:55:38Z</time>
      </trkpt>
      <trkpt lat="42.10305" lon="2.38178">
        <ele>1201.5</ele>
        <time>2018-11-25T23:55:41Z</time>
      </trkpt>
      <trkpt lat="42.10301" lon="2.38168">
        <ele>1200.4</ele>
        <time>2018-11-25T23:55:44Z</time>
      </trkpt>
      <trkpt lat="42.10296" lon="2.38165">
        <ele>1197.7</ele>
        <time>2018-11-25T23:55:46Z</time>
      </trkpt>
      <trkpt lat="42.10294" lon="2.38164">
        <ele>1196.5</ele>
        <time>2018-11-25T23:55:47Z</time>
      </trkpt>
      <trkpt lat="42.10291" lon="2.38159">
        <ele>1195.1</ele>
        <time>2018-11-25T23:55:49Z</time>
      </trkpt>
      <trkpt lat="42.1028" lon="2.38127">
        <ele>1190.7</ele>
        <time>2018-11-25T23:56:00Z</time>
      </trkpt>
      <trkpt lat="42.1028" lon="2.38121">
        <ele>1190.7</ele>
        <time>2018-11-25T23:56:01Z</time>
      </trkpt>
      <trkpt lat="42.10282" lon="2.38117">
        <ele>1192.5</ele>
        <time>2018-11-25T23:56:03Z</time>
      </trkpt>
      <trkpt lat="42.10284" lon="2.38104">
        <ele>1194.1</ele>
        <time>2018-11-25T23:56:07Z</time>
      </trkpt>
      <trkpt lat="42.10273" lon="2.38093">
        <ele>1186</ele>
        <time>2018-11-25T23:56:12Z</time>
      </trkpt>
      <trkpt lat="42.10257" lon="2.38068">
        <ele>1175.1</ele>
        <time>2018-11-25T23:56:22Z</time>
      </trkpt>
      <trkpt lat="42.10253" lon="2.3805">
        <ele>1172.7</ele>
        <time>2018-11-25T23:56:28Z</time>
      </trkpt>
      <trkpt lat="42.10253" lon="2.3805">
        <ele>1172.7</ele>
        <time>2018-11-25T23:56:28Z</time>
      </trkpt>
      <trkpt lat="42.10255" lon="2.38043">
        <ele>1174.2</ele>
        <time>2018-11-25T23:56:30Z</time>
      </trkpt>
      <trkpt lat="42.10249" lon="2.38039">
        <ele>1170.5</ele>
        <time>2018-11-25T23:56:33Z</time>
      </trkpt>
      <trkpt lat="42.10249" lon="2.38037">
        <ele>1170.5</ele>
        <time>2018-11-25T23:56:33Z</time>
      </trkpt>
      <trkpt lat="42.10252" lon="2.38026">
        <ele>1171.8</ele>
        <time>2018-11-25T23:56:37Z</time>
      </trkpt>
      <trkpt lat="42.10252" lon="2.38026">
        <ele>1171.7</ele>
        <time>2018-11-25T23:56:37Z</time>
      </trkpt>
      <trkpt lat="42.10252" lon="2.38025">
        <ele>1172.3</ele>
        <time>2018-11-25T23:56:37Z</time>
      </trkpt>
      <trkpt lat="42.10254" lon="2.38019">
        <ele>1172.9</ele>
        <time>2018-11-25T23:56:39Z</time>
      </trkpt>
      <trkpt lat="42.1025" lon="2.37998">
        <ele>1170</ele>
        <time>2018-11-25T23:56:45Z</time>
      </trkpt>
      <trkpt lat="42.10246" lon="2.37995">
        <ele>1167.3</ele>
        <time>2018-11-25T23:56:47Z</time>
      </trkpt>
      <trkpt lat="42.10236" lon="2.37977">
        <ele>1160.5</ele>
        <time>2018-11-25T23:56:54Z</time>
      </trkpt>
      <trkpt lat="42.10228" lon="2.37953">
        <ele>1155.3</ele>
        <time>2018-11-25T23:57:01Z</time>
      </trkpt>
      <trkpt lat="42.10228" lon="2.37953">
        <ele>1155.2</ele>
        <time>2018-11-25T23:57:01Z</time>
      </trkpt>
      <trkpt lat="42.10228" lon="2.37941">
        <ele>1154.2</ele>
        <time>2018-11-25T23:57:05Z</time>
      </trkpt>
      <trkpt lat="42.10227" lon="2.37934">
        <ele>1153.2</ele>
        <time>2018-11-25T23:57:07Z</time>
      </trkpt>
      <trkpt lat="42.10228" lon="2.37928">
        <ele>1153.6</ele>
        <time>2018-11-25T23:57:09Z</time>
      </trkpt>
      <trkpt lat="42.10232" lon="2.37913">
        <ele>1154.4</ele>
        <time>2018-11-25T23:57:14Z</time>
      </trkpt>
      <trkpt lat="42.10243" lon="2.37898">
        <ele>1159.6</ele>
        <time>2018-11-25T23:57:20Z</time>
      </trkpt>
      <trkpt lat="42.10244" lon="2.37896">
        <ele>1159.8</ele>
        <time>2018-11-25T23:57:21Z</time>
      </trkpt>
      <trkpt lat="42.10244" lon="2.37889">
        <ele>1159.6</ele>
        <time>2018-11-25T23:57:23Z</time>
      </trkpt>
      <trkpt lat="42.10247" lon="2.3787">
        <ele>1159.1</ele>
        <time>2018-11-25T23:57:28Z</time>
      </trkpt>
      <trkpt lat="42.10243" lon="2.37849">
        <ele>1154.5</ele>
        <time>2018-11-25T23:57:35Z</time>
      </trkpt>
      <trkpt lat="42.10244" lon="2.37834">
        <ele>1153.3</ele>
        <time>2018-11-25T23:57:40Z</time>
      </trkpt>
      <trkpt lat="42.1025" lon="2.37817">
        <ele>1153.9</ele>
        <time>2018-11-25T23:57:45Z</time>
      </trkpt>
      <trkpt lat="42.10251" lon="2.37815">
        <ele>1153.8</ele>
        <time>2018-11-25T23:57:46Z</time>
      </trkpt>
      <trkpt lat="42.10254" lon="2.37805">
        <ele>1153.6</ele>
        <time>2018-11-25T23:57:49Z</time>
      </trkpt>
      <trkpt lat="42.10256" lon="2.37805">
        <ele>1154.6</ele>
        <time>2018-11-25T23:57:50Z</time>
      </trkpt>
      <trkpt lat="42.10263" lon="2.37801">
        <ele>1156.2</ele>
        <time>2018-11-25T23:57:53Z</time>
      </trkpt>
      <trkpt lat="42.10265" lon="2.37799">
        <ele>1156.8</ele>
        <time>2018-11-25T23:57:54Z</time>
      </trkpt>
      <trkpt lat="42.10271" lon="2.37802">
        <ele>1159.4</ele>
        <time>2018-11-25T23:57:56Z</time>
      </trkpt>
      <trkpt lat="42.10278" lon="2.37806">
        <ele>1162.5</ele>
        <time>2018-11-25T23:57:59Z</time>
      </trkpt>
      <trkpt lat="42.10282" lon="2.37806">
        <ele>1164.3</ele>
        <time>2018-11-25T23:58:01Z</time>
      </trkpt>
      <trkpt lat="42.10295" lon="2.37807">
        <ele>1167.9</ele>
        <time>2018-11-25T23:58:06Z</time>
      </trkpt>
      <trkpt lat="42.10299" lon="2.3781">
        <ele>1168.7</ele>
        <time>2018-11-25T23:58:08Z</time>
      </trkpt>
      <trkpt lat="42.10305" lon="2.37811">
        <ele>1168.7</ele>
        <time>2018-11-25T23:58:10Z</time>
      </trkpt>
      <trkpt lat="42.10315" lon="2.3781">
        <ele>1168.4</ele>
        <time>2018-11-25T23:58:15Z</time>
      </trkpt>
      <trkpt lat="42.10325" lon="2.37815">
        <ele>1170</ele>
        <time>2018-11-25T23:58:19Z</time>
      </trkpt>
      <trkpt lat="42.10343" lon="2.37819">
        <ele>1171.8</ele>
        <time>2018-11-25T23:58:26Z</time>
      </trkpt>
      <trkpt lat="42.10354" lon="2.3782">
        <ele>1172.3</ele>
        <time>2018-11-25T23:58:30Z</time>
      </trkpt>
      <trkpt lat="42.10368" lon="2.37817">
        <ele>1171.3</ele>
        <time>2018-11-25T23:58:36Z</time>
      </trkpt>
      <trkpt lat="42.10369" lon="2.37817">
        <ele>1171.5</ele>
        <time>2018-11-25T23:58:37Z</time>
      </trkpt>
      <trkpt lat="42.10392" lon="2.37816">
        <ele>1172.7</ele>
        <time>2018-11-25T23:58:46Z</time>
      </trkpt>
      <trkpt lat="42.1041" lon="2.37817">
        <ele>1174.9</ele>
        <time>2018-11-25T23:58:53Z</time>
      </trkpt>
      <trkpt lat="42.10429" lon="2.37814">
        <ele>1175.6</ele>
        <time>2018-11-25T23:59:01Z</time>
      </trkpt>
      <trkpt lat="42.1045" lon="2.37803">
        <ele>1173.8</ele>
        <time>2018-11-25T23:59:10Z</time>
      </trkpt>
      <trkpt lat="42.1046" lon="2.37801">
        <ele>1174.5</ele>
        <time>2018-11-25T23:59:14Z</time>
      </trkpt>
      <trkpt lat="42.10478" lon="2.3779">
        <ele>1175.6</ele>
        <time>2018-11-25T23:59:22Z</time>
      </trkpt>
      <trkpt lat="42.10487" lon="2.37784">
        <ele>1177.2</ele>
        <time>2018-11-25T23:59:26Z</time>
      </trkpt>
      <trkpt lat="42.1049" lon="2.37783">
        <ele>1177.8</ele>
        <time>2018-11-25T23:59:27Z</time>
      </trkpt>
      <trkpt lat="42.10501" lon="2.37775">
        <ele>1179.7</ele>
        <time>2018-11-25T23:59:32Z</time>
      </trkpt>
      <trkpt lat="42.10503" lon="2.37774">
        <ele>1180</ele>
        <time>2018-11-25T23:59:33Z</time>
      </trkpt>
      <trkpt lat="42.10506" lon="2.37772">
        <ele>1180.7</ele>
        <time>2018-11-25T23:59:34Z</time>
      </trkpt>
      <trkpt lat="42.10513" lon="2.3775">
        <ele>1180.4</ele>
        <time>2018-11-25T23:59:41Z</time>
      </trkpt>
      <trkpt lat="42.10517" lon="2.37719">
        <ele>1178.9</ele>
        <time>2018-11-25T23:59:51Z</time>
      </trkpt>
      <trkpt lat="42.1052" lon="2.37706">
        <ele>1178.9</ele>
        <time>2018-11-25T23:59:55Z</time>
      </trkpt>
      <trkpt lat="42.10535" lon="2.37685">
        <ele>1183.2</ele>
        <time>2018-11-26T00:00:03Z</time>
      </trkpt>
      <trkpt lat="42.10537" lon="2.37679">
        <ele>1183.7</ele>
        <time>2018-11-26T00:00:05Z</time>
      </trkpt>
      <trkpt lat="42.10547" lon="2.37669">
        <ele>1184.4</ele>
        <time>2018-11-26T00:00:10Z</time>
      </trkpt>
      <trkpt lat="42.10548" lon="2.37666">
        <ele>1184.1</ele>
        <time>2018-11-26T00:00:11Z</time>
      </trkpt>
      <trkpt lat="42.10549" lon="2.37647">
        <ele>1182.4</ele>
        <time>2018-11-26T00:00:17Z</time>
      </trkpt>
      <trkpt lat="42.1055" lon="2.37643">
        <ele>1182.1</ele>
        <time>2018-11-26T00:00:18Z</time>
      </trkpt>
      <trkpt lat="42.10556" lon="2.37643">
        <ele>1181.7</ele>
        <time>2018-11-26T00:00:20Z</time>
      </trkpt>
      <trkpt lat="42.10558" lon="2.37644">
        <ele>1181.5</ele>
        <time>2018-11-26T00:00:21Z</time>
      </trkpt>
      <trkpt lat="42.10569" lon="2.37647">
        <ele>1181.1</ele>
        <time>2018-11-26T00:00:26Z</time>
      </trkpt>
      <trkpt lat="42.10575" lon="2.37645">
        <ele>1180.4</ele>
        <time>2018-11-26T00:00:28Z</time>
      </trkpt>
      <trkpt lat="42.10579" lon="2.37646">
        <ele>1180.2</ele>
        <time>2018-11-26T00:00:30Z</time>
      </trkpt>
      <trkpt lat="42.10608" lon="2.37651">
        <ele>1178.8</ele>
        <time>2018-11-26T00:00:41Z</time>
      </trkpt>
      <trkpt lat="42.10612" lon="2.37651">
        <ele>1178.5</ele>
        <time>2018-11-26T00:00:43Z</time>
      </trkpt>
      <trkpt lat="42.10627" lon="2.37647">
        <ele>1176.6</ele>
        <time>2018-11-26T00:00:50Z</time>
      </trkpt>
      <trkpt lat="42.10646" lon="2.37649">
        <ele>1172.8</ele>
        <time>2018-11-26T00:00:57Z</time>
      </trkpt>
      <trkpt lat="42.10652" lon="2.37649">
        <ele>1171.5</ele>
        <time>2018-11-26T00:00:59Z</time>
      </trkpt>
      <trkpt lat="42.10659" lon="2.37636">
        <ele>1168.5</ele>
        <time>2018-11-26T00:01:04Z</time>
      </trkpt>
      <trkpt lat="42.10667" lon="2.37633">
        <ele>1166.3</ele>
        <time>2018-11-26T00:01:08Z</time>
      </trkpt>
      <trkpt lat="42.1067" lon="2.37633">
        <ele>1165.6</ele>
        <time>2018-11-26T00:01:09Z</time>
      </trkpt>
      <trkpt lat="42.10679" lon="2.37639">
        <ele>1164.6</ele>
        <time>2018-11-26T00:01:13Z</time>
      </trkpt>
      <trkpt lat="42.10693" lon="2.37644">
        <ele>1162</ele>
        <time>2018-11-26T00:01:19Z</time>
      </trkpt>
      <trkpt lat="42.10698" lon="2.37644">
        <ele>1160.7</ele>
        <time>2018-11-26T00:01:21Z</time>
      </trkpt>
      <trkpt lat="42.10705" lon="2.3764">
        <ele>1159</ele>
        <time>2018-11-26T00:01:23Z</time>
      </trkpt>
      <trkpt lat="42.10717" lon="2.37643">
        <ele>1156.6</ele>
        <time>2018-11-26T00:01:28Z</time>
      </trkpt>
      <trkpt lat="42.10724" lon="2.37652">
        <ele>1155.7</ele>
        <time>2018-11-26T00:01:32Z</time>
      </trkpt>
      <trkpt lat="42.10735" lon="2.37648">
        <ele>1152.9</ele>
        <time>2018-11-26T00:01:37Z</time>
      </trkpt>
      <trkpt lat="42.10741" lon="2.37645">
        <ele>1151.2</ele>
        <time>2018-11-26T00:01:39Z</time>
      </trkpt>
      <trkpt lat="42.10744" lon="2.37641">
        <ele>1150.2</ele>
        <time>2018-11-26T00:01:41Z</time>
      </trkpt>
      <trkpt lat="42.10745" lon="2.3764">
        <ele>1150</ele>
        <time>2018-11-26T00:01:42Z</time>
      </trkpt>
      <trkpt lat="42.10746" lon="2.3764">
        <ele>1149.8</ele>
        <time>2018-11-26T00:01:42Z</time>
      </trkpt>
      <trkpt lat="42.10754" lon="2.3763">
        <ele>1147.5</ele>
        <time>2018-11-26T00:01:46Z</time>
      </trkpt>
      <trkpt lat="42.10763" lon="2.37624">
        <ele>1144.8</ele>
        <time>2018-11-26T00:01:50Z</time>
      </trkpt>
      <trkpt lat="42.10769" lon="2.37618">
        <ele>1141.5</ele>
        <time>2018-11-26T00:01:53Z</time>
      </trkpt>
      <trkpt lat="42.10774" lon="2.37614">
        <ele>1139</ele>
        <time>2018-11-26T00:01:56Z</time>
      </trkpt>
      <trkpt lat="42.10783" lon="2.37614">
        <ele>1137</ele>
        <time>2018-11-26T00:01:59Z</time>
      </trkpt>
      <trkpt lat="42.10789" lon="2.37618">
        <ele>1137.1</ele>
        <time>2018-11-26T00:02:02Z</time>
      </trkpt>
      <trkpt lat="42.10795" lon="2.37618">
        <ele>1136.2</ele>
        <time>2018-11-26T00:02:04Z</time>
      </trkpt>
      <trkpt lat="42.10804" lon="2.37626">
        <ele>1137.2</ele>
        <time>2018-11-26T00:02:09Z</time>
      </trkpt>
      <trkpt lat="42.1081" lon="2.3763">
        <ele>1136.3</ele>
        <time>2018-11-26T00:02:11Z</time>
      </trkpt>
      <trkpt lat="42.10818" lon="2.3763">
        <ele>1135.1</ele>
        <time>2018-11-26T00:02:15Z</time>
      </trkpt>
      <trkpt lat="42.10824" lon="2.37634">
        <ele>1134.3</ele>
        <time>2018-11-26T00:02:17Z</time>
      </trkpt>
      <trkpt lat="42.10832" lon="2.37638">
        <ele>1133</ele>
        <time>2018-11-26T00:02:21Z</time>
      </trkpt>
      <trkpt lat="42.10832" lon="2.37638">
        <ele>1133.1</ele>
        <time>2018-11-26T00:02:21Z</time>
      </trkpt>
      <trkpt lat="42.10837" lon="2.37641">
        <ele>1132.3</ele>
        <time>2018-11-26T00:02:23Z</time>
      </trkpt>
      <trkpt lat="42.10838" lon="2.37644">
        <ele>1132.1</ele>
        <time>2018-11-26T00:02:24Z</time>
      </trkpt>
      <trkpt lat="42.1084" lon="2.37649">
        <ele>1132</ele>
        <time>2018-11-26T00:02:26Z</time>
      </trkpt>
      <trkpt lat="42.10839" lon="2.37653">
        <ele>1132.1</ele>
        <time>2018-11-26T00:02:27Z</time>
      </trkpt>
      <trkpt lat="42.1084" lon="2.37657">
        <ele>1132.2</ele>
        <time>2018-11-26T00:02:28Z</time>
      </trkpt>
      <trkpt lat="42.10843" lon="2.37662">
        <ele>1131.7</ele>
        <time>2018-11-26T00:02:30Z</time>
      </trkpt>
      <trkpt lat="42.10847" lon="2.3766">
        <ele>1131</ele>
        <time>2018-11-26T00:02:32Z</time>
      </trkpt>
      <trkpt lat="42.1085" lon="2.3766">
        <ele>1130.6</ele>
        <time>2018-11-26T00:02:33Z</time>
      </trkpt>
      <trkpt lat="42.10857" lon="2.37659">
        <ele>1129.4</ele>
        <time>2018-11-26T00:02:35Z</time>
      </trkpt>
      <trkpt lat="42.10865" lon="2.37654">
        <ele>1128</ele>
        <time>2018-11-26T00:02:39Z</time>
      </trkpt>
      <trkpt lat="42.10874" lon="2.3765">
        <ele>1126.6</ele>
        <time>2018-11-26T00:02:43Z</time>
      </trkpt>
      <trkpt lat="42.10892" lon="2.37654">
        <ele>1128.6</ele>
        <time>2018-11-26T00:02:50Z</time>
      </trkpt>
      <trkpt lat="42.10895" lon="2.37654">
        <ele>1129.1</ele>
        <time>2018-11-26T00:02:51Z</time>
      </trkpt>
      <trkpt lat="42.10925" lon="2.3765">
        <ele>1132.8</ele>
        <time>2018-11-26T00:03:03Z</time>
      </trkpt>
      <trkpt lat="42.10935" lon="2.37645">
        <ele>1133.6</ele>
        <time>2018-11-26T00:03:08Z</time>
      </trkpt>
      <trkpt lat="42.10951" lon="2.37629">
        <ele>1133.7</ele>
        <time>2018-11-26T00:03:16Z</time>
      </trkpt>
      <trkpt lat="42.10955" lon="2.37625">
        <ele>1133.6</ele>
        <time>2018-11-26T00:03:18Z</time>
      </trkpt>
      <trkpt lat="42.10961" lon="2.37633">
        <ele>1136.1</ele>
        <time>2018-11-26T00:03:21Z</time>
      </trkpt>
      <trkpt lat="42.10961" lon="2.37642">
        <ele>1137.3</ele>
        <time>2018-11-26T00:03:24Z</time>
      </trkpt>
      <trkpt lat="42.10962" lon="2.37642">
        <ele>1137.6</ele>
        <time>2018-11-26T00:03:24Z</time>
      </trkpt>
      <trkpt lat="42.10962" lon="2.37642">
        <ele>1137.7</ele>
        <time>2018-11-26T00:03:24Z</time>
      </trkpt>
      <trkpt lat="42.10967" lon="2.37645">
        <ele>1139.8</ele>
        <time>2018-11-26T00:03:26Z</time>
      </trkpt>
      <trkpt lat="42.10969" lon="2.37647">
        <ele>1141</ele>
        <time>2018-11-26T00:03:27Z</time>
      </trkpt>
      <trkpt lat="42.10969" lon="2.3765">
        <ele>1141.2</ele>
        <time>2018-11-26T00:03:28Z</time>
      </trkpt>
      <trkpt lat="42.10972" lon="2.37655">
        <ele>1142.9</ele>
        <time>2018-11-26T00:03:30Z</time>
      </trkpt>
      <trkpt lat="42.10984" lon="2.37652">
        <ele>1147.5</ele>
        <time>2018-11-26T00:03:35Z</time>
      </trkpt>
      <trkpt lat="42.10988" lon="2.37653">
        <ele>1148.9</ele>
        <time>2018-11-26T00:03:36Z</time>
      </trkpt>
      <trkpt lat="42.10992" lon="2.37656">
        <ele>1150.7</ele>
        <time>2018-11-26T00:03:38Z</time>
      </trkpt>
      <trkpt lat="42.11" lon="2.37655">
        <ele>1153.6</ele>
        <time>2018-11-26T00:03:41Z</time>
      </trkpt>
      <trkpt lat="42.11004" lon="2.37654">
        <ele>1155.5</ele>
        <time>2018-11-26T00:03:43Z</time>
      </trkpt>
      <trkpt lat="42.1102" lon="2.37645">
        <ele>1161.3</ele>
        <time>2018-11-26T00:03:50Z</time>
      </trkpt>
      <trkpt lat="42.1103" lon="2.37634">
        <ele>1165.1</ele>
        <time>2018-11-26T00:03:55Z</time>
      </trkpt>
      <trkpt lat="42.11032" lon="2.37629">
        <ele>1165.8</ele>
        <time>2018-11-26T00:03:57Z</time>
      </trkpt>
      <trkpt lat="42.1104" lon="2.37619">
        <ele>1168.9</ele>
        <time>2018-11-26T00:04:01Z</time>
      </trkpt>
      <trkpt lat="42.11051" lon="2.37612">
        <ele>1172.9</ele>
        <time>2018-11-26T00:04:06Z</time>
      </trkpt>
      <trkpt lat="42.11059" lon="2.37605">
        <ele>1175.9</ele>
        <time>2018-11-26T00:04:10Z</time>
      </trkpt>
      <trkpt lat="42.11068" lon="2.37596">
        <ele>1178.5</ele>
        <time>2018-11-26T00:04:15Z</time>
      </trkpt>
      <trkpt lat="42.11069" lon="2.37594">
        <ele>1178.9</ele>
        <time>2018-11-26T00:04:15Z</time>
      </trkpt>
      <trkpt lat="42.11071" lon="2.37592">
        <ele>1179.2</ele>
        <time>2018-11-26T00:04:16Z</time>
      </trkpt>
      <trkpt lat="42.11074" lon="2.37588">
        <ele>1180</ele>
        <time>2018-11-26T00:04:18Z</time>
      </trkpt>
      <trkpt lat="42.11077" lon="2.37586">
        <ele>1181.1</ele>
        <time>2018-11-26T00:04:19Z</time>
      </trkpt>
      <trkpt lat="42.11079" lon="2.37585">
        <ele>1181.7</ele>
        <time>2018-11-26T00:04:20Z</time>
      </trkpt>
      <trkpt lat="42.11082" lon="2.37584">
        <ele>1182.7</ele>
        <time>2018-11-26T00:04:21Z</time>
      </trkpt>
      <trkpt lat="42.11086" lon="2.37582">
        <ele>1184.2</ele>
        <time>2018-11-26T00:04:23Z</time>
      </trkpt>
      <trkpt lat="42.11092" lon="2.37577">
        <ele>1185.8</ele>
        <time>2018-11-26T00:04:26Z</time>
      </trkpt>
      <trkpt lat="42.11112" lon="2.37568">
        <ele>1192.2</ele>
        <time>2018-11-26T00:04:34Z</time>
      </trkpt>
      <trkpt lat="42.11118" lon="2.3756">
        <ele>1193.5</ele>
        <time>2018-11-26T00:04:38Z</time>
      </trkpt>
      <trkpt lat="42.11121" lon="2.37554">
        <ele>1193.4</ele>
        <time>2018-11-26T00:04:40Z</time>
      </trkpt>
      <trkpt lat="42.11122" lon="2.37549">
        <ele>1193.2</ele>
        <time>2018-11-26T00:04:41Z</time>
      </trkpt>
      <trkpt lat="42.11129" lon="2.37529">
        <ele>1190.1</ele>
        <time>2018-11-26T00:04:48Z</time>
      </trkpt>
      <trkpt lat="42.11143" lon="2.37509">
        <ele>1189.5</ele>
        <time>2018-11-26T00:04:56Z</time>
      </trkpt>
      <trkpt lat="42.11158" lon="2.37482">
        <ele>1187.5</ele>
        <time>2018-11-26T00:05:06Z</time>
      </trkpt>
      <trkpt lat="42.11162" lon="2.37477">
        <ele>1187.9</ele>
        <time>2018-11-26T00:05:08Z</time>
      </trkpt>
      <trkpt lat="42.11175" lon="2.3746">
        <ele>1190</ele>
        <time>2018-11-26T00:05:16Z</time>
      </trkpt>
      <trkpt lat="42.11178" lon="2.37448">
        <ele>1188.9</ele>
        <time>2018-11-26T00:05:19Z</time>
      </trkpt>
      <trkpt lat="42.11179" lon="2.37446">
        <ele>1188.5</ele>
        <time>2018-11-26T00:05:20Z</time>
      </trkpt>
      <trkpt lat="42.11184" lon="2.37439">
        <ele>1189.5</ele>
        <time>2018-11-26T00:05:23Z</time>
      </trkpt>
      <trkpt lat="42.11191" lon="2.37425">
        <ele>1190.4</ele>
        <time>2018-11-26T00:05:28Z</time>
      </trkpt>
      <trkpt lat="42.11194" lon="2.37417">
        <ele>1190.2</ele>
        <time>2018-11-26T00:05:31Z</time>
      </trkpt>
      <trkpt lat="42.11195" lon="2.37414">
        <ele>1190.2</ele>
        <time>2018-11-26T00:05:32Z</time>
      </trkpt>
      <trkpt lat="42.11197" lon="2.37403">
        <ele>1188.7</ele>
        <time>2018-11-26T00:05:35Z</time>
      </trkpt>
      <trkpt lat="42.11195" lon="2.37393">
        <ele>1184.9</ele>
        <time>2018-11-26T00:05:38Z</time>
      </trkpt>
      <trkpt lat="42.11196" lon="2.37385">
        <ele>1184</ele>
        <time>2018-11-26T00:05:40Z</time>
      </trkpt>
      <trkpt lat="42.112" lon="2.37375">
        <ele>1183.8</ele>
        <time>2018-11-26T00:05:44Z</time>
      </trkpt>
      <trkpt lat="42.11199" lon="2.37366">
        <ele>1181.3</ele>
        <time>2018-11-26T00:05:47Z</time>
      </trkpt>
      <trkpt lat="42.11203" lon="2.37358">
        <ele>1181.6</ele>
        <time>2018-11-26T00:05:49Z</time>
      </trkpt>
      <trkpt lat="42.11204" lon="2.37349">
        <ele>1179.8</ele>
        <time>2018-11-26T00:05:52Z</time>
      </trkpt>
      <trkpt lat="42.11218" lon="2.37335">
        <ele>1185.5</ele>
        <time>2018-11-26T00:05:59Z</time>
      </trkpt>
      <trkpt lat="42.11235" lon="2.37303">
        <ele>1188.3</ele>
        <time>2018-11-26T00:06:11Z</time>
      </trkpt>
      <trkpt lat="42.11233" lon="2.37288">
        <ele>1184.1</ele>
        <time>2018-11-26T00:06:15Z</time>
      </trkpt>
      <trkpt lat="42.11232" lon="2.37275">
        <ele>1182.1</ele>
        <time>2018-11-26T00:06:19Z</time>
      </trkpt>
      <trkpt lat="42.11235" lon="2.37271">
        <ele>1183.4</ele>
        <time>2018-11-26T00:06:21Z</time>
      </trkpt>
      <trkpt lat="42.11238" lon="2.37266">
        <ele>1185</ele>
        <time>2018-11-26T00:06:23Z</time>
      </trkpt>
      <trkpt lat="42.11239" lon="2.37251">
        <ele>1183.9</ele>
        <time>2018-11-26T00:06:27Z</time>
      </trkpt>
      <trkpt lat="42.11241" lon="2.37244">
        <ele>1184.5</ele>
        <time>2018-11-26T00:06:30Z</time>
      </trkpt>
      <trkpt lat="42.11244" lon="2.3722">
        <ele>1182.9</ele>
        <time>2018-11-26T00:06:37Z</time>
      </trkpt>
      <trkpt lat="42.11251" lon="2.37205">
        <ele>1184.6</ele>
        <time>2018-11-26T00:06:42Z</time>
      </trkpt>
      <trkpt lat="42.11259" lon="2.37194">
        <ele>1186.8</ele>
        <time>2018-11-26T00:06:47Z</time>
      </trkpt>
      <trkpt lat="42.11262" lon="2.37189">
        <ele>1186.9</ele>
        <time>2018-11-26T00:06:49Z</time>
      </trkpt>
      <trkpt lat="42.11272" lon="2.37164">
        <ele>1185.4</ele>
        <time>2018-11-26T00:06:57Z</time>
      </trkpt>
      <trkpt lat="42.11284" lon="2.37165">
        <ele>1188.9</ele>
        <time>2018-11-26T00:07:02Z</time>
      </trkpt>
      <trkpt lat="42.11285" lon="2.37166">
        <ele>1189.3</ele>
        <time>2018-11-26T00:07:02Z</time>
      </trkpt>
      <trkpt lat="42.11293" lon="2.37166">
        <ele>1191.9</ele>
        <time>2018-11-26T00:07:05Z</time>
      </trkpt>
      <trkpt lat="42.11306" lon="2.37165">
        <ele>1195.2</ele>
        <time>2018-11-26T00:07:11Z</time>
      </trkpt>
      <trkpt lat="42.11307" lon="2.37165">
        <ele>1195.6</ele>
        <time>2018-11-26T00:07:11Z</time>
      </trkpt>
      <trkpt lat="42.11319" lon="2.37157">
        <ele>1196</ele>
        <time>2018-11-26T00:07:16Z</time>
      </trkpt>
      <trkpt lat="42.11324" lon="2.37153">
        <ele>1196.2</ele>
        <time>2018-11-26T00:07:19Z</time>
      </trkpt>
      <trkpt lat="42.11331" lon="2.37154">
        <ele>1198.7</ele>
        <time>2018-11-26T00:07:22Z</time>
      </trkpt>
      <trkpt lat="42.11333" lon="2.37154">
        <ele>1199</ele>
        <time>2018-11-26T00:07:22Z</time>
      </trkpt>
      <trkpt lat="42.11336" lon="2.37155">
        <ele>1200.3</ele>
        <time>2018-11-26T00:07:24Z</time>
      </trkpt>
      <trkpt lat="42.11341" lon="2.37157">
        <ele>1202.3</ele>
        <time>2018-11-26T00:07:26Z</time>
      </trkpt>
      <trkpt lat="42.11354" lon="2.37165">
        <ele>1209.6</ele>
        <time>2018-11-26T00:07:32Z</time>
      </trkpt>
      <trkpt lat="42.11373" lon="2.37174">
        <ele>1219.6</ele>
        <time>2018-11-26T00:07:40Z</time>
      </trkpt>
      <trkpt lat="42.11392" lon="2.37174">
        <ele>1223.8</ele>
        <time>2018-11-26T00:07:47Z</time>
      </trkpt>
      <trkpt lat="42.11396" lon="2.37174">
        <ele>1224.6</ele>
        <time>2018-11-26T00:07:49Z</time>
      </trkpt>
      <trkpt lat="42.11412" lon="2.37152">
        <ele>1219.4</ele>
        <time>2018-11-26T00:07:58Z</time>
      </trkpt>
      <trkpt lat="42.11422" lon="2.37132">
        <ele>1214.4</ele>
        <time>2018-11-26T00:08:05Z</time>
      </trkpt>
      <trkpt lat="42.11436" lon="2.37114">
        <ele>1212.8</ele>
        <time>2018-11-26T00:08:13Z</time>
      </trkpt>
      <trkpt lat="42.11445" lon="2.37092">
        <ele>1210.1</ele>
        <time>2018-11-26T00:08:20Z</time>
      </trkpt>
      <trkpt lat="42.11456" lon="2.37076">
        <ele>1210.3</ele>
        <time>2018-11-26T00:08:27Z</time>
      </trkpt>
      <trkpt lat="42.11461" lon="2.37058">
        <ele>1208</ele>
        <time>2018-11-26T00:08:32Z</time>
      </trkpt>
      <trkpt lat="42.11467" lon="2.37046">
        <ele>1207.3</ele>
        <time>2018-11-26T00:08:37Z</time>
      </trkpt>
      <trkpt lat="42.11472" lon="2.37038">
        <ele>1207.9</ele>
        <time>2018-11-26T00:08:40Z</time>
      </trkpt>
      <trkpt lat="42.11477" lon="2.37031">
        <ele>1208.7</ele>
        <time>2018-11-26T00:08:43Z</time>
      </trkpt>
      <trkpt lat="42.11487" lon="2.37017">
        <ele>1210.7</ele>
        <time>2018-11-26T00:08:48Z</time>
      </trkpt>
      <trkpt lat="42.11503" lon="2.36999">
        <ele>1214.3</ele>
        <time>2018-11-26T00:08:57Z</time>
      </trkpt>
      <trkpt lat="42.11512" lon="2.36979">
        <ele>1214.9</ele>
        <time>2018-11-26T00:09:04Z</time>
      </trkpt>
      <trkpt lat="42.11513" lon="2.3697">
        <ele>1214.2</ele>
        <time>2018-11-26T00:09:06Z</time>
      </trkpt>
      <trkpt lat="42.11516" lon="2.3696">
        <ele>1213.8</ele>
        <time>2018-11-26T00:09:10Z</time>
      </trkpt>
      <trkpt lat="42.1152" lon="2.36957">
        <ele>1215.9</ele>
        <time>2018-11-26T00:09:12Z</time>
      </trkpt>
      <trkpt lat="42.11527" lon="2.36953">
        <ele>1220.4</ele>
        <time>2018-11-26T00:09:15Z</time>
      </trkpt>
      <trkpt lat="42.11535" lon="2.36936">
        <ele>1228.7</ele>
        <time>2018-11-26T00:09:21Z</time>
      </trkpt>
      <trkpt lat="42.11538" lon="2.36925">
        <ele>1233.4</ele>
        <time>2018-11-26T00:09:24Z</time>
      </trkpt>
      <trkpt lat="42.11539" lon="2.36918">
        <ele>1235.7</ele>
        <time>2018-11-26T00:09:26Z</time>
      </trkpt>
      <trkpt lat="42.11542" lon="2.36914">
        <ele>1238.4</ele>
        <time>2018-11-26T00:09:28Z</time>
      </trkpt>
      <trkpt lat="42.11554" lon="2.36914">
        <ele>1242.5</ele>
        <time>2018-11-26T00:09:33Z</time>
      </trkpt>
      <trkpt lat="42.11559" lon="2.36914">
        <ele>1243.8</ele>
        <time>2018-11-26T00:09:35Z</time>
      </trkpt>
      <trkpt lat="42.11558" lon="2.36909">
        <ele>1244.9</ele>
        <time>2018-11-26T00:09:36Z</time>
      </trkpt>
      <trkpt lat="42.11559" lon="2.36916">
        <ele>1243.2</ele>
        <time>2018-11-26T00:09:38Z</time>
      </trkpt>
      <trkpt lat="42.11566" lon="2.36921">
        <ele>1244.3</ele>
        <time>2018-11-26T00:09:42Z</time>
      </trkpt>
      <trkpt lat="42.11574" lon="2.36919">
        <ele>1247.4</ele>
        <time>2018-11-26T00:09:45Z</time>
      </trkpt>
      <trkpt lat="42.11574" lon="2.36918">
        <ele>1247.8</ele>
        <time>2018-11-26T00:09:45Z</time>
      </trkpt>
      <trkpt lat="42.11575" lon="2.36912">
        <ele>1249.3</ele>
        <time>2018-11-26T00:09:47Z</time>
      </trkpt>
      <trkpt lat="42.11573" lon="2.36911">
        <ele>1248.9</ele>
        <time>2018-11-26T00:09:48Z</time>
      </trkpt>
      <trkpt lat="42.11572" lon="2.3691">
        <ele>1249</ele>
        <time>2018-11-26T00:09:48Z</time>
      </trkpt>
      <trkpt lat="42.11579" lon="2.36911">
        <ele>1251</ele>
        <time>2018-11-26T00:09:51Z</time>
      </trkpt>
      <trkpt lat="42.11576" lon="2.36902">
        <ele>1252.3</ele>
        <time>2018-11-26T00:09:54Z</time>
      </trkpt>
      <trkpt lat="42.11573" lon="2.36896">
        <ele>1252.7</ele>
        <time>2018-11-26T00:09:56Z</time>
      </trkpt>
      <trkpt lat="42.11568" lon="2.36883">
        <ele>1254.5</ele>
        <time>2018-11-26T00:10:01Z</time>
      </trkpt>
      <trkpt lat="42.11565" lon="2.36863">
        <ele>1259.3</ele>
        <time>2018-11-26T00:10:07Z</time>
      </trkpt>
      <trkpt lat="42.11566" lon="2.36855">
        <ele>1261.7</ele>
        <time>2018-11-26T00:10:09Z</time>
      </trkpt>
      <trkpt lat="42.1156" lon="2.36846">
        <ele>1263.4</ele>
        <time>2018-11-26T00:10:13Z</time>
      </trkpt>
      <trkpt lat="42.11555" lon="2.36839">
        <ele>1264.6</ele>
        <time>2018-11-26T00:10:16Z</time>
      </trkpt>
      <trkpt lat="42.1155" lon="2.36837">
        <ele>1264.4</ele>
        <time>2018-11-26T00:10:18Z</time>
      </trkpt>
      <trkpt lat="42.11549" lon="2.36836">
        <ele>1264.7</ele>
        <time>2018-11-26T00:10:18Z</time>
      </trkpt>
      <trkpt lat="42.11547" lon="2.36829">
        <ele>1266.6</ele>
        <time>2018-11-26T00:10:20Z</time>
      </trkpt>
      <trkpt lat="42.11542" lon="2.36822">
        <ele>1268.5</ele>
        <time>2018-11-26T00:10:23Z</time>
      </trkpt>
      <trkpt lat="42.11521" lon="2.36789">
        <ele>1270.2</ele>
        <time>2018-11-26T00:10:36Z</time>
      </trkpt>
      <trkpt lat="42.1152" lon="2.36784">
        <ele>1270.1</ele>
        <time>2018-11-26T00:10:38Z</time>
      </trkpt>
      <trkpt lat="42.11518" lon="2.36774">
        <ele>1270.4</ele>
        <time>2018-11-26T00:10:41Z</time>
      </trkpt>
      <trkpt lat="42.11516" lon="2.36766">
        <ele>1270.6</ele>
        <time>2018-11-26T00:10:43Z</time>
      </trkpt>
      <trkpt lat="42.11515" lon="2.36757">
        <ele>1271.1</ele>
        <time>2018-11-26T00:10:46Z</time>
      </trkpt>
      <trkpt lat="42.11513" lon="2.36741">
        <ele>1271.6</ele>
        <time>2018-11-26T00:10:51Z</time>
      </trkpt>
      <trkpt lat="42.11506" lon="2.36733">
        <ele>1268.8</ele>
        <time>2018-11-26T00:10:54Z</time>
      </trkpt>
      <trkpt lat="42.11497" lon="2.36731">
        <ele>1263.7</ele>
        <time>2018-11-26T00:10:58Z</time>
      </trkpt>
      <trkpt lat="42.11486" lon="2.36726">
        <ele>1258</ele>
        <time>2018-11-26T00:11:03Z</time>
      </trkpt>
      <trkpt lat="42.11473" lon="2.3671">
        <ele>1251</ele>
        <time>2018-11-26T00:11:10Z</time>
      </trkpt>
      <trkpt lat="42.11468" lon="2.36705">
        <ele>1247.8</ele>
        <time>2018-11-26T00:11:12Z</time>
      </trkpt>
      <trkpt lat="42.11463" lon="2.367">
        <ele>1244.3</ele>
        <time>2018-11-26T00:11:15Z</time>
      </trkpt>
      <trkpt lat="42.11461" lon="2.367">
        <ele>1242.7</ele>
        <time>2018-11-26T00:11:16Z</time>
      </trkpt>
      <trkpt lat="42.1146" lon="2.36697">
        <ele>1241.7</ele>
        <time>2018-11-26T00:11:17Z</time>
      </trkpt>
      <trkpt lat="42.11459" lon="2.36694">
        <ele>1241</ele>
        <time>2018-11-26T00:11:18Z</time>
      </trkpt>
      <trkpt lat="42.11466" lon="2.36679">
        <ele>1244</ele>
        <time>2018-11-26T00:11:23Z</time>
      </trkpt>
      <trkpt lat="42.11468" lon="2.3667">
        <ele>1244.3</ele>
        <time>2018-11-26T00:11:26Z</time>
      </trkpt>
      <trkpt lat="42.11467" lon="2.36653">
        <ele>1242.6</ele>
        <time>2018-11-26T00:11:31Z</time>
      </trkpt>
      <trkpt lat="42.11466" lon="2.3664">
        <ele>1240.7</ele>
        <time>2018-11-26T00:11:34Z</time>
      </trkpt>
      <trkpt lat="42.11466" lon="2.36636">
        <ele>1240.1</ele>
        <time>2018-11-26T00:11:36Z</time>
      </trkpt>
      <trkpt lat="42.11464" lon="2.36619">
        <ele>1238.4</ele>
        <time>2018-11-26T00:11:41Z</time>
      </trkpt>
      <trkpt lat="42.11463" lon="2.366">
        <ele>1240.1</ele>
        <time>2018-11-26T00:11:47Z</time>
      </trkpt>
      <trkpt lat="42.1146" lon="2.36588">
        <ele>1239.6</ele>
        <time>2018-11-26T00:11:50Z</time>
      </trkpt>
      <trkpt lat="42.11458" lon="2.36581">
        <ele>1239.4</ele>
        <time>2018-11-26T00:11:53Z</time>
      </trkpt>
      <trkpt lat="42.11458" lon="2.36577">
        <ele>1239.6</ele>
        <time>2018-11-26T00:11:54Z</time>
      </trkpt>
      <trkpt lat="42.11457" lon="2.36575">
        <ele>1239.2</ele>
        <time>2018-11-26T00:11:54Z</time>
      </trkpt>
      <trkpt lat="42.11449" lon="2.36553">
        <ele>1236.7</ele>
        <time>2018-11-26T00:12:02Z</time>
      </trkpt>
      <trkpt lat="42.11448" lon="2.36549">
        <ele>1236.6</ele>
        <time>2018-11-26T00:12:03Z</time>
      </trkpt>
      <trkpt lat="42.11446" lon="2.36539">
        <ele>1237</ele>
        <time>2018-11-26T00:12:06Z</time>
      </trkpt>
      <trkpt lat="42.11444" lon="2.36511">
        <ele>1239.9</ele>
        <time>2018-11-26T00:12:14Z</time>
      </trkpt>
      <trkpt lat="42.11438" lon="2.36499">
        <ele>1239.2</ele>
        <time>2018-11-26T00:12:19Z</time>
      </trkpt>
      <trkpt lat="42.11435" lon="2.36482">
        <ele>1241.2</ele>
        <time>2018-11-26T00:12:24Z</time>
      </trkpt>
      <trkpt lat="42.11431" lon="2.36468">
        <ele>1242.7</ele>
        <time>2018-11-26T00:12:28Z</time>
      </trkpt>
      <trkpt lat="42.11429" lon="2.3646">
        <ele>1243.3</ele>
        <time>2018-11-26T00:12:31Z</time>
      </trkpt>
      <trkpt lat="42.11426" lon="2.36442">
        <ele>1248.3</ele>
        <time>2018-11-26T00:12:36Z</time>
      </trkpt>
      <trkpt lat="42.11419" lon="2.3643">
        <ele>1250.3</ele>
        <time>2018-11-26T00:12:41Z</time>
      </trkpt>
      <trkpt lat="42.11412" lon="2.36417">
        <ele>1253.6</ele>
        <time>2018-11-26T00:12:46Z</time>
      </trkpt>
      <trkpt lat="42.11403" lon="2.3641">
        <ele>1255.2</ele>
        <time>2018-11-26T00:12:50Z</time>
      </trkpt>
      <trkpt lat="42.1139" lon="2.36406">
        <ele>1255.2</ele>
        <time>2018-11-26T00:12:55Z</time>
      </trkpt>
      <trkpt lat="42.11383" lon="2.364">
        <ele>1257.3</ele>
        <time>2018-11-26T00:12:59Z</time>
      </trkpt>
      <trkpt lat="42.11377" lon="2.36395">
        <ele>1259.1</ele>
        <time>2018-11-26T00:13:01Z</time>
      </trkpt>
      <trkpt lat="42.11364" lon="2.36383">
        <ele>1262.2</ele>
        <time>2018-11-26T00:13:08Z</time>
      </trkpt>
      <trkpt lat="42.11363" lon="2.36382">
        <ele>1262.4</ele>
        <time>2018-11-26T00:13:08Z</time>
      </trkpt>
      <trkpt lat="42.11345" lon="2.36379">
        <ele>1259</ele>
        <time>2018-11-26T00:13:15Z</time>
      </trkpt>
      <trkpt lat="42.11342" lon="2.36375">
        <ele>1260</ele>
        <time>2018-11-26T00:13:17Z</time>
      </trkpt>
      <trkpt lat="42.1133" lon="2.36353">
        <ele>1259.3</ele>
        <time>2018-11-26T00:13:25Z</time>
      </trkpt>
      <trkpt lat="42.11317" lon="2.36333">
        <ele>1255.4</ele>
        <time>2018-11-26T00:13:33Z</time>
      </trkpt>
      <trkpt lat="42.11312" lon="2.36328">
        <ele>1253.9</ele>
        <time>2018-11-26T00:13:35Z</time>
      </trkpt>
      <trkpt lat="42.11301" lon="2.36318">
        <ele>1248.4</ele>
        <time>2018-11-26T00:13:41Z</time>
      </trkpt>
      <trkpt lat="42.11293" lon="2.36313">
        <ele>1244.4</ele>
        <time>2018-11-26T00:13:44Z</time>
      </trkpt>
      <trkpt lat="42.11285" lon="2.36304">
        <ele>1239.4</ele>
        <time>2018-11-26T00:13:49Z</time>
      </trkpt>
      <trkpt lat="42.11276" lon="2.36297">
        <ele>1233.6</ele>
        <time>2018-11-26T00:13:53Z</time>
      </trkpt>
      <trkpt lat="42.11268" lon="2.36289">
        <ele>1228.5</ele>
        <time>2018-11-26T00:13:57Z</time>
      </trkpt>
      <trkpt lat="42.11268" lon="2.36281">
        <ele>1229.4</ele>
        <time>2018-11-26T00:13:59Z</time>
      </trkpt>
      <trkpt lat="42.11267" lon="2.36271">
        <ele>1230.2</ele>
        <time>2018-11-26T00:14:02Z</time>
      </trkpt>
      <trkpt lat="42.11265" lon="2.36256">
        <ele>1230.4</ele>
        <time>2018-11-26T00:14:07Z</time>
      </trkpt>
      <trkpt lat="42.11264" lon="2.36246">
        <ele>1231.3</ele>
        <time>2018-11-26T00:14:10Z</time>
      </trkpt>
      <trkpt lat="42.11257" lon="2.36221">
        <ele>1230</ele>
        <time>2018-11-26T00:14:18Z</time>
      </trkpt>
      <trkpt lat="42.11253" lon="2.36212">
        <ele>1228.8</ele>
        <time>2018-11-26T00:14:21Z</time>
      </trkpt>
      <trkpt lat="42.11253" lon="2.36191">
        <ele>1233.4</ele>
        <time>2018-11-26T00:14:27Z</time>
      </trkpt>
      <trkpt lat="42.11252" lon="2.36176">
        <ele>1236.3</ele>
        <time>2018-11-26T00:14:32Z</time>
      </trkpt>
      <trkpt lat="42.11247" lon="2.36155">
        <ele>1238.9</ele>
        <time>2018-11-26T00:14:38Z</time>
      </trkpt>
      <trkpt lat="42.11237" lon="2.36133">
        <ele>1240.2</ele>
        <time>2018-11-26T00:14:46Z</time>
      </trkpt>
      <trkpt lat="42.11232" lon="2.36122">
        <ele>1240.8</ele>
        <time>2018-11-26T00:14:50Z</time>
      </trkpt>
      <trkpt lat="42.11231" lon="2.36106">
        <ele>1243</ele>
        <time>2018-11-26T00:14:55Z</time>
      </trkpt>
      <trkpt lat="42.11224" lon="2.36091">
        <ele>1242.8</ele>
        <time>2018-11-26T00:15:00Z</time>
      </trkpt>
      <trkpt lat="42.11222" lon="2.36086">
        <ele>1243</ele>
        <time>2018-11-26T00:15:01Z</time>
      </trkpt>
      <trkpt lat="42.1122" lon="2.36079">
        <ele>1243.1</ele>
        <time>2018-11-26T00:15:03Z</time>
      </trkpt>
      <trkpt lat="42.11216" lon="2.36063">
        <ele>1244.2</ele>
        <time>2018-11-26T00:15:08Z</time>
      </trkpt>
      <trkpt lat="42.11214" lon="2.36054">
        <ele>1244.6</ele>
        <time>2018-11-26T00:15:11Z</time>
      </trkpt>
      <trkpt lat="42.11214" lon="2.36052">
        <ele>1244.6</ele>
        <time>2018-11-26T00:15:12Z</time>
      </trkpt>
      <trkpt lat="42.11211" lon="2.36049">
        <ele>1244.1</ele>
        <time>2018-11-26T00:15:13Z</time>
      </trkpt>
      <trkpt lat="42.11208" lon="2.36042">
        <ele>1243.9</ele>
        <time>2018-11-26T00:15:15Z</time>
      </trkpt>
      <trkpt lat="42.11208" lon="2.36041">
        <ele>1243.6</ele>
        <time>2018-11-26T00:15:16Z</time>
      </trkpt>
      <trkpt lat="42.11203" lon="2.36017">
        <ele>1241.8</ele>
        <time>2018-11-26T00:15:23Z</time>
      </trkpt>
      <trkpt lat="42.11201" lon="2.36014">
        <ele>1241</ele>
        <time>2018-11-26T00:15:24Z</time>
      </trkpt>
      <trkpt lat="42.11199" lon="2.36005">
        <ele>1240.2</ele>
        <time>2018-11-26T00:15:27Z</time>
      </trkpt>
      <trkpt lat="42.11195" lon="2.35994">
        <ele>1237.9</ele>
        <time>2018-11-26T00:15:31Z</time>
      </trkpt>
      <trkpt lat="42.11187" lon="2.35972">
        <ele>1233.7</ele>
        <time>2018-11-26T00:15:38Z</time>
      </trkpt>
      <trkpt lat="42.11177" lon="2.35954">
        <ele>1227.7</ele>
        <time>2018-11-26T00:15:45Z</time>
      </trkpt>
      <trkpt lat="42.11175" lon="2.3595">
        <ele>1227.2</ele>
        <time>2018-11-26T00:15:46Z</time>
      </trkpt>
      <trkpt lat="42.11175" lon="2.35946">
        <ele>1227.3</ele>
        <time>2018-11-26T00:15:48Z</time>
      </trkpt>
      <trkpt lat="42.1117" lon="2.35926">
        <ele>1226.5</ele>
        <time>2018-11-26T00:15:54Z</time>
      </trkpt>
      <trkpt lat="42.11172" lon="2.35916">
        <ele>1228.4</ele>
        <time>2018-11-26T00:15:57Z</time>
      </trkpt>
      <trkpt lat="42.11174" lon="2.35909">
        <ele>1230.3</ele>
        <time>2018-11-26T00:15:59Z</time>
      </trkpt>
      <trkpt lat="42.11177" lon="2.35892">
        <ele>1233.3</ele>
        <time>2018-11-26T00:16:04Z</time>
      </trkpt>
      <trkpt lat="42.11174" lon="2.35874">
        <ele>1233.4</ele>
        <time>2018-11-26T00:16:09Z</time>
      </trkpt>
      <trkpt lat="42.11162" lon="2.35852">
        <ele>1232.2</ele>
        <time>2018-11-26T00:16:18Z</time>
      </trkpt>
      <trkpt lat="42.11155" lon="2.35825">
        <ele>1237.2</ele>
        <time>2018-11-26T00:16:26Z</time>
      </trkpt>
      <trkpt lat="42.11151" lon="2.35811">
        <ele>1240.7</ele>
        <time>2018-11-26T00:16:31Z</time>
      </trkpt>
      <trkpt lat="42.11147" lon="2.35778">
        <ele>1248.3</ele>
        <time>2018-11-26T00:16:40Z</time>
      </trkpt>
      <trkpt lat="42.11147" lon="2.35776">
        <ele>1248.8</ele>
        <time>2018-11-26T00:16:41Z</time>
      </trkpt>
      <trkpt lat="42.11145" lon="2.35756">
        <ele>1252.2</ele>
        <time>2018-11-26T00:16:47Z</time>
      </trkpt>
      <trkpt lat="42.11126" lon="2.35747">
        <ele>1256.3</ele>
        <time>2018-11-26T00:16:55Z</time>
      </trkpt>
      <trkpt lat="42.11119" lon="2.35753">
        <ele>1253.4</ele>
        <time>2018-11-26T00:16:58Z</time>
      </trkpt>
      <trkpt lat="42.11099" lon="2.35767">
        <ele>1244.1</ele>
        <time>2018-11-26T00:17:07Z</time>
      </trkpt>
      <trkpt lat="42.11086" lon="2.35772">
        <ele>1238.3</ele>
        <time>2018-11-26T00:17:13Z</time>
      </trkpt>
      <trkpt lat="42.11075" lon="2.35773">
        <ele>1234.7</ele>
        <time>2018-11-26T00:17:17Z</time>
      </trkpt>
      <trkpt lat="42.11061" lon="2.35778">
        <ele>1228.4</ele>
        <time>2018-11-26T00:17:23Z</time>
      </trkpt>
      <trkpt lat="42.11049" lon="2.35773">
        <ele>1227.2</ele>
        <time>2018-11-26T00:17:28Z</time>
      </trkpt>
      <trkpt lat="42.11038" lon="2.35757">
        <ele>1232.8</ele>
        <time>2018-11-26T00:17:35Z</time>
      </trkpt>
      <trkpt lat="42.11021" lon="2.3574">
        <ele>1237.1</ele>
        <time>2018-11-26T00:17:43Z</time>
      </trkpt>
      <trkpt lat="42.11018" lon="2.35734">
        <ele>1239.1</ele>
        <time>2018-11-26T00:17:45Z</time>
      </trkpt>
      <trkpt lat="42.11017" lon="2.35734">
        <ele>1238.9</ele>
        <time>2018-11-26T00:17:45Z</time>
      </trkpt>
      <trkpt lat="42.11004" lon="2.3572">
        <ele>1241.3</ele>
        <time>2018-11-26T00:17:52Z</time>
      </trkpt>
      <trkpt lat="42.10986" lon="2.35707">
        <ele>1239.9</ele>
        <time>2018-11-26T00:18:00Z</time>
      </trkpt>
      <trkpt lat="42.10965" lon="2.35681">
        <ele>1234.4</ele>
        <time>2018-11-26T00:18:12Z</time>
      </trkpt>
      <trkpt lat="42.10956" lon="2.35673">
        <ele>1230.6</ele>
        <time>2018-11-26T00:18:16Z</time>
      </trkpt>
      <trkpt lat="42.10941" lon="2.35666">
        <ele>1224.2</ele>
        <time>2018-11-26T00:18:22Z</time>
      </trkpt>
      <trkpt lat="42.10938" lon="2.35667">
        <ele>1222.9</ele>
        <time>2018-11-26T00:18:24Z</time>
      </trkpt>
      <trkpt lat="42.10927" lon="2.35664">
        <ele>1217.7</ele>
        <time>2018-11-26T00:18:28Z</time>
      </trkpt>
      <trkpt lat="42.10914" lon="2.35657">
        <ele>1211.3</ele>
        <time>2018-11-26T00:18:34Z</time>
      </trkpt>
      <trkpt lat="42.1091" lon="2.35657">
        <ele>1209.6</ele>
        <time>2018-11-26T00:18:35Z</time>
      </trkpt>
      <trkpt lat="42.10906" lon="2.35654">
        <ele>1207.3</ele>
        <time>2018-11-26T00:18:37Z</time>
      </trkpt>
      <trkpt lat="42.10902" lon="2.35647">
        <ele>1204.5</ele>
        <time>2018-11-26T00:18:40Z</time>
      </trkpt>
      <trkpt lat="42.109" lon="2.35642">
        <ele>1202.9</ele>
        <time>2018-11-26T00:18:41Z</time>
      </trkpt>
      <trkpt lat="42.109" lon="2.3564">
        <ele>1202.5</ele>
        <time>2018-11-26T00:18:42Z</time>
      </trkpt>
      <trkpt lat="42.10906" lon="2.35611">
        <ele>1206</ele>
        <time>2018-11-26T00:18:51Z</time>
      </trkpt>
      <trkpt lat="42.10912" lon="2.35595">
        <ele>1211.4</ele>
        <time>2018-11-26T00:18:56Z</time>
      </trkpt>
      <trkpt lat="42.10915" lon="2.35577">
        <ele>1215.5</ele>
        <time>2018-11-26T00:19:02Z</time>
      </trkpt>
      <trkpt lat="42.10917" lon="2.35556">
        <ele>1219</ele>
        <time>2018-11-26T00:19:08Z</time>
      </trkpt>
      <trkpt lat="42.10916" lon="2.35549">
        <ele>1219.3</ele>
        <time>2018-11-26T00:19:10Z</time>
      </trkpt>
      <trkpt lat="42.10909" lon="2.35522">
        <ele>1216.4</ele>
        <time>2018-11-26T00:19:19Z</time>
      </trkpt>
      <trkpt lat="42.10906" lon="2.35516">
        <ele>1214.5</ele>
        <time>2018-11-26T00:19:21Z</time>
      </trkpt>
      <trkpt lat="42.10894" lon="2.35486">
        <ele>1207</ele>
        <time>2018-11-26T00:19:31Z</time>
      </trkpt>
      <trkpt lat="42.10888" lon="2.35473">
        <ele>1203.5</ele>
        <time>2018-11-26T00:19:36Z</time>
      </trkpt>
      <trkpt lat="42.1089" lon="2.35457">
        <ele>1204.2</ele>
        <time>2018-11-26T00:19:40Z</time>
      </trkpt>
      <trkpt lat="42.10893" lon="2.35428">
        <ele>1205</ele>
        <time>2018-11-26T00:19:49Z</time>
      </trkpt>
      <trkpt lat="42.10892" lon="2.35422">
        <ele>1204.5</ele>
        <time>2018-11-26T00:19:51Z</time>
      </trkpt>
      <trkpt lat="42.10893" lon="2.35412">
        <ele>1205</ele>
        <time>2018-11-26T00:19:54Z</time>
      </trkpt>
      <trkpt lat="42.10895" lon="2.35398">
        <ele>1205.6</ele>
        <time>2018-11-26T00:19:58Z</time>
      </trkpt>
      <trkpt lat="42.10897" lon="2.35383">
        <ele>1206.5</ele>
        <time>2018-11-26T00:20:02Z</time>
      </trkpt>
      <trkpt lat="42.10894" lon="2.35366">
        <ele>1205.8</ele>
        <time>2018-11-26T00:20:08Z</time>
      </trkpt>
      <trkpt lat="42.10894" lon="2.35345">
        <ele>1208.1</ele>
        <time>2018-11-26T00:20:14Z</time>
      </trkpt>
      <trkpt lat="42.10893" lon="2.35323">
        <ele>1209.7</ele>
        <time>2018-11-26T00:20:20Z</time>
      </trkpt>
      <trkpt lat="42.10892" lon="2.35298">
        <ele>1211.6</ele>
        <time>2018-11-26T00:20:28Z</time>
      </trkpt>
      <trkpt lat="42.10887" lon="2.35282">
        <ele>1211.3</ele>
        <time>2018-11-26T00:20:33Z</time>
      </trkpt>
      <trkpt lat="42.10882" lon="2.35262">
        <ele>1212.2</ele>
        <time>2018-11-26T00:20:39Z</time>
      </trkpt>
      <trkpt lat="42.10876" lon="2.35236">
        <ele>1213.7</ele>
        <time>2018-11-26T00:20:47Z</time>
      </trkpt>
      <trkpt lat="42.10871" lon="2.35224">
        <ele>1212.9</ele>
        <time>2018-11-26T00:20:51Z</time>
      </trkpt>
      <trkpt lat="42.10864" lon="2.35206">
        <ele>1213.3</ele>
        <time>2018-11-26T00:20:57Z</time>
      </trkpt>
      <trkpt lat="42.10858" lon="2.35192">
        <ele>1213.7</ele>
        <time>2018-11-26T00:21:02Z</time>
      </trkpt>
      <trkpt lat="42.10847" lon="2.35172">
        <ele>1213.9</ele>
        <time>2018-11-26T00:21:10Z</time>
      </trkpt>
      <trkpt lat="42.10847" lon="2.3517">
        <ele>1214.1</ele>
        <time>2018-11-26T00:21:10Z</time>
      </trkpt>
      <trkpt lat="42.10839" lon="2.35149">
        <ele>1216.6</ele>
        <time>2018-11-26T00:21:17Z</time>
      </trkpt>
      <trkpt lat="42.10831" lon="2.35123">
        <ele>1220.5</ele>
        <time>2018-11-26T00:21:26Z</time>
      </trkpt>
      <trkpt lat="42.10828" lon="2.35118">
        <ele>1221.1</ele>
        <time>2018-11-26T00:21:28Z</time>
      </trkpt>
      <trkpt lat="42.10821" lon="2.35101">
        <ele>1224.8</ele>
        <time>2018-11-26T00:21:33Z</time>
      </trkpt>
      <trkpt lat="42.10823" lon="2.35091">
        <ele>1229.3</ele>
        <time>2018-11-26T00:21:36Z</time>
      </trkpt>
      <trkpt lat="42.10821" lon="2.35085">
        <ele>1230.9</ele>
        <time>2018-11-26T00:21:38Z</time>
      </trkpt>
      <trkpt lat="42.10809" lon="2.35061">
        <ele>1235.6</ele>
        <time>2018-11-26T00:21:46Z</time>
      </trkpt>
      <trkpt lat="42.10809" lon="2.35059">
        <ele>1236.2</ele>
        <time>2018-11-26T00:21:47Z</time>
      </trkpt>
      <trkpt lat="42.10798" lon="2.35034">
        <ele>1241.2</ele>
        <time>2018-11-26T00:21:56Z</time>
      </trkpt>
      <trkpt lat="42.10794" lon="2.35026">
        <ele>1242</ele>
        <time>2018-11-26T00:21:59Z</time>
      </trkpt>
      <trkpt lat="42.10778" lon="2.35015">
        <ele>1241.3</ele>
        <time>2018-11-26T00:22:06Z</time>
      </trkpt>
      <trkpt lat="42.10761" lon="2.35004">
        <ele>1239.8</ele>
        <time>2018-11-26T00:22:13Z</time>
      </trkpt>
      <trkpt lat="42.10751" lon="2.35001">
        <ele>1237.7</ele>
        <time>2018-11-26T00:22:17Z</time>
      </trkpt>
      <trkpt lat="42.10728" lon="2.34987">
        <ele>1232.5</ele>
        <time>2018-11-26T00:22:28Z</time>
      </trkpt>
      <trkpt lat="42.10704" lon="2.3497">
        <ele>1225.1</ele>
        <time>2018-11-26T00:22:38Z</time>
      </trkpt>
      <trkpt lat="42.10694" lon="2.34962">
        <ele>1221.4</ele>
        <time>2018-11-26T00:22:43Z</time>
      </trkpt>
      <trkpt lat="42.10681" lon="2.34959">
        <ele>1216.3</ele>
        <time>2018-11-26T00:22:48Z</time>
      </trkpt>
      <trkpt lat="42.10677" lon="2.34962">
        <ele>1215</ele>
        <time>2018-11-26T00:22:50Z</time>
      </trkpt>
      <trkpt lat="42.10675" lon="2.34969">
        <ele>1214.9</ele>
        <time>2018-11-26T00:22:52Z</time>
      </trkpt>
      <trkpt lat="42.10689" lon="2.34956">
        <ele>1218.9</ele>
        <time>2018-11-26T00:23:00Z</time>
      </trkpt>
      <trkpt lat="42.10691" lon="2.34944">
        <ele>1217.3</ele>
        <time>2018-11-26T00:23:03Z</time>
      </trkpt>
      <trkpt lat="42.10691" lon="2.34935">
        <ele>1215.8</ele>
        <time>2018-11-26T00:23:06Z</time>
      </trkpt>
      <trkpt lat="42.10695" lon="2.34926">
        <ele>1215.8</ele>
        <time>2018-11-26T00:23:09Z</time>
      </trkpt>
      <trkpt lat="42.10704" lon="2.34913">
        <ele>1217.8</ele>
        <time>2018-11-26T00:23:14Z</time>
      </trkpt>
      <trkpt lat="42.10712" lon="2.34892">
        <ele>1218.6</ele>
        <time>2018-11-26T00:23:21Z</time>
      </trkpt>
      <trkpt lat="42.10712" lon="2.34889">
        <ele>1218.3</ele>
        <time>2018-11-26T00:23:22Z</time>
      </trkpt>
      <trkpt lat="42.10713" lon="2.34876">
        <ele>1216.9</ele>
        <time>2018-11-26T00:23:26Z</time>
      </trkpt>
      <trkpt lat="42.10715" lon="2.34854">
        <ele>1218.6</ele>
        <time>2018-11-26T00:23:32Z</time>
      </trkpt>
      <trkpt lat="42.10719" lon="2.34836">
        <ele>1221.3</ele>
        <time>2018-11-26T00:23:38Z</time>
      </trkpt>
      <trkpt lat="42.10725" lon="2.34825">
        <ele>1225.5</ele>
        <time>2018-11-26T00:23:42Z</time>
      </trkpt>
      <trkpt lat="42.10727" lon="2.34807">
        <ele>1226.9</ele>
        <time>2018-11-26T00:23:47Z</time>
      </trkpt>
      <trkpt lat="42.10802" lon="2.34702">
        <ele>1250.1</ele>
        <time>2018-11-26T01:59:27Z</time>
      </trkpt>
      <trkpt lat="42.10796" lon="2.34693">
        <ele>1251.2</ele>
        <time>2018-11-26T01:59:30Z</time>
      </trkpt>
      <trkpt lat="42.10788" lon="2.34687">
        <ele>1252.2</ele>
        <time>2018-11-26T01:59:34Z</time>
      </trkpt>
      <trkpt lat="42.10781" lon="2.34678">
        <ele>1254.2</ele>
        <time>2018-11-26T01:59:38Z</time>
      </trkpt>
      <trkpt lat="42.10771" lon="2.34683">
        <ele>1261.5</ele>
        <time>2018-11-26T01:59:42Z</time>
      </trkpt>
      <trkpt lat="42.10763" lon="2.34676">
        <ele>1263</ele>
        <time>2018-11-26T01:59:46Z</time>
      </trkpt>
      <trkpt lat="42.10761" lon="2.34664">
        <ele>1263.5</ele>
        <time>2018-11-26T01:59:49Z</time>
      </trkpt>
      <trkpt lat="42.10756" lon="2.34653">
        <ele>1263.5</ele>
        <time>2018-11-26T01:59:53Z</time>
      </trkpt>
      <trkpt lat="42.10752" lon="2.34641">
        <ele>1263.9</ele>
        <time>2018-11-26T01:59:57Z</time>
      </trkpt>
      <trkpt lat="42.10757" lon="2.34632">
        <ele>1264.1</ele>
        <time>2018-11-26T02:00:01Z</time>
      </trkpt>
      <trkpt lat="42.10762" lon="2.3462">
        <ele>1265.5</ele>
        <time>2018-11-26T02:00:04Z</time>
      </trkpt>
      <trkpt lat="42.1076" lon="2.34606">
        <ele>1265.1</ele>
        <time>2018-11-26T02:00:09Z</time>
      </trkpt>
      <trkpt lat="42.1076" lon="2.34593">
        <ele>1264.1</ele>
        <time>2018-11-26T02:00:13Z</time>
      </trkpt>
      <trkpt lat="42.10765" lon="2.34581">
        <ele>1263.4</ele>
        <time>2018-11-26T02:00:17Z</time>
      </trkpt>
      <trkpt lat="42.10761" lon="2.34568">
        <ele>1263.6</ele>
        <time>2018-11-26T02:00:21Z</time>
      </trkpt>
      <trkpt lat="42.10766" lon="2.34557">
        <ele>1265.5</ele>
        <time>2018-11-26T02:00:24Z</time>
      </trkpt>
      <trkpt lat="42.10763" lon="2.34545">
        <ele>1264.2</ele>
        <time>2018-11-26T02:00:28Z</time>
      </trkpt>
      <trkpt lat="42.10764" lon="2.34532">
        <ele>1264.1</ele>
        <time>2018-11-26T02:00:32Z</time>
      </trkpt>
      <trkpt lat="42.10772" lon="2.34524">
        <ele>1262.5</ele>
        <time>2018-11-26T02:00:36Z</time>
      </trkpt>
      <trkpt lat="42.10778" lon="2.34514">
        <ele>1261.5</ele>
        <time>2018-11-26T02:00:40Z</time>
      </trkpt>
      <trkpt lat="42.10778" lon="2.34501">
        <ele>1261.5</ele>
        <time>2018-11-26T02:00:44Z</time>
      </trkpt>
      <trkpt lat="42.10778" lon="2.34489">
        <ele>1261.6</ele>
        <time>2018-11-26T02:00:47Z</time>
      </trkpt>
      <trkpt lat="42.10779" lon="2.34476">
        <ele>1262.1</ele>
        <time>2018-11-26T02:00:51Z</time>
      </trkpt>
      <trkpt lat="42.10781" lon="2.34464">
        <ele>1261.5</ele>
        <time>2018-11-26T02:00:55Z</time>
      </trkpt>
      <trkpt lat="42.10776" lon="2.34451">
        <ele>1261.5</ele>
        <time>2018-11-26T02:00:59Z</time>
      </trkpt>
      <trkpt lat="42.10776" lon="2.34439">
        <ele>1262.5</ele>
        <time>2018-11-26T02:01:02Z</time>
      </trkpt>
      <trkpt lat="42.10777" lon="2.34426">
        <ele>1262</ele>
        <time>2018-11-26T02:01:06Z</time>
      </trkpt>
      <trkpt lat="42.10779" lon="2.34412">
        <ele>1261.6</ele>
        <time>2018-11-26T02:01:11Z</time>
      </trkpt>
      <trkpt lat="42.10784" lon="2.34401">
        <ele>1262.2</ele>
        <time>2018-11-26T02:01:14Z</time>
      </trkpt>
      <trkpt lat="42.10781" lon="2.34389">
        <ele>1262.5</ele>
        <time>2018-11-26T02:01:18Z</time>
      </trkpt>
      <trkpt lat="42.10781" lon="2.34377">
        <ele>1260.1</ele>
        <time>2018-11-26T02:01:22Z</time>
      </trkpt>
      <trkpt lat="42.10781" lon="2.34364">
        <ele>1256.8</ele>
        <time>2018-11-26T02:01:26Z</time>
      </trkpt>
      <trkpt lat="42.10782" lon="2.34351">
        <ele>1255.5</ele>
        <time>2018-11-26T02:01:30Z</time>
      </trkpt>
      <trkpt lat="42.10779" lon="2.34338">
        <ele>1252.8</ele>
        <time>2018-11-26T02:01:34Z</time>
      </trkpt>
      <trkpt lat="42.10778" lon="2.34325">
        <ele>1247.6</ele>
        <time>2018-11-26T02:01:37Z</time>
      </trkpt>
      <trkpt lat="42.10775" lon="2.34314">
        <ele>1244.8</ele>
        <time>2018-11-26T02:01:41Z</time>
      </trkpt>
      <trkpt lat="42.10771" lon="2.34302">
        <ele>1242.8</ele>
        <time>2018-11-26T02:01:45Z</time>
      </trkpt>
      <trkpt lat="42.10775" lon="2.3429">
        <ele>1240.5</ele>
        <time>2018-11-26T02:01:49Z</time>
      </trkpt>
      <trkpt lat="42.10784" lon="2.34288">
        <ele>1240</ele>
        <time>2018-11-26T02:01:52Z</time>
      </trkpt>
      <trkpt lat="42.10793" lon="2.34284">
        <ele>1240.1</ele>
        <time>2018-11-26T02:01:56Z</time>
      </trkpt>
      <trkpt lat="42.10802" lon="2.34279">
        <ele>1239.1</ele>
        <time>2018-11-26T02:02:00Z</time>
      </trkpt>
      <trkpt lat="42.10807" lon="2.34269">
        <ele>1240.2</ele>
        <time>2018-11-26T02:02:04Z</time>
      </trkpt>
      <trkpt lat="42.10814" lon="2.34261">
        <ele>1239.6</ele>
        <time>2018-11-26T02:02:07Z</time>
      </trkpt>
      <trkpt lat="42.10818" lon="2.34248">
        <ele>1239</ele>
        <time>2018-11-26T02:02:11Z</time>
      </trkpt>
      <trkpt lat="42.10825" lon="2.3424">
        <ele>1240</ele>
        <time>2018-11-26T02:02:15Z</time>
      </trkpt>
      <trkpt lat="42.10834" lon="2.34235">
        <ele>1241.6</ele>
        <time>2018-11-26T02:02:19Z</time>
      </trkpt>
      <trkpt lat="42.10841" lon="2.34225">
        <ele>1243.1</ele>
        <time>2018-11-26T02:02:23Z</time>
      </trkpt>
      <trkpt lat="42.1085" lon="2.34221">
        <ele>1245.5</ele>
        <time>2018-11-26T02:02:27Z</time>
      </trkpt>
      <trkpt lat="42.10859" lon="2.34218">
        <ele>1250</ele>
        <time>2018-11-26T02:02:31Z</time>
      </trkpt>
      <trkpt lat="42.10867" lon="2.34211">
        <ele>1253.2</ele>
        <time>2018-11-26T02:02:34Z</time>
      </trkpt>
      <trkpt lat="42.10871" lon="2.34208">
        <ele>1254.5</ele>
        <time>2018-11-26T02:02:36Z</time>
      </trkpt>
      <trkpt lat="42.10871" lon="2.34206">
        <ele>1254.1</ele>
        <time>2018-11-26T02:02:37Z</time>
      </trkpt>
      <trkpt lat="42.10871" lon="2.34203">
        <ele>1254.2</ele>
        <time>2018-11-26T02:02:38Z</time>
      </trkpt>
      <trkpt lat="42.10873" lon="2.34196">
        <ele>1255.1</ele>
        <time>2018-11-26T02:02:40Z</time>
      </trkpt>
      <trkpt lat="42.10874" lon="2.34195">
        <ele>1255.6</ele>
        <time>2018-11-26T02:02:41Z</time>
      </trkpt>
      <trkpt lat="42.10877" lon="2.34199">
        <ele>1258.6</ele>
        <time>2018-11-26T02:02:42Z</time>
      </trkpt>
      <trkpt lat="42.10879" lon="2.34197">
        <ele>1258.9</ele>
        <time>2018-11-26T02:02:43Z</time>
      </trkpt>
      <trkpt lat="42.10881" lon="2.34196">
        <ele>1259.9</ele>
        <time>2018-11-26T02:02:44Z</time>
      </trkpt>
      <trkpt lat="42.10881" lon="2.34193">
        <ele>1260.1</ele>
        <time>2018-11-26T02:02:45Z</time>
      </trkpt>
      <trkpt lat="42.10883" lon="2.34191">
        <ele>1261</ele>
        <time>2018-11-26T02:02:46Z</time>
      </trkpt>
      <trkpt lat="42.10884" lon="2.34188">
        <ele>1261.4</ele>
        <time>2018-11-26T02:02:47Z</time>
      </trkpt>
      <trkpt lat="42.10889" lon="2.34177">
        <ele>1265.6</ele>
        <time>2018-11-26T02:02:51Z</time>
      </trkpt>
      <trkpt lat="42.10894" lon="2.34167">
        <ele>1264.2</ele>
        <time>2018-11-26T02:02:54Z</time>
      </trkpt>
      <trkpt lat="42.10894" lon="2.34154">
        <ele>1265.5</ele>
        <time>2018-11-26T02:02:58Z</time>
      </trkpt>
      <trkpt lat="42.10896" lon="2.34142">
        <ele>1271.1</ele>
        <time>2018-11-26T02:03:02Z</time>
      </trkpt>
      <trkpt lat="42.10895" lon="2.34129">
        <ele>1273.2</ele>
        <time>2018-11-26T02:03:06Z</time>
      </trkpt>
      <trkpt lat="42.10894" lon="2.34116">
        <ele>1278.4</ele>
        <time>2018-11-26T02:03:09Z</time>
      </trkpt>
      <trkpt lat="42.10896" lon="2.34104">
        <ele>1281.4</ele>
        <time>2018-11-26T02:03:13Z</time>
      </trkpt>
      <trkpt lat="42.10897" lon="2.34091">
        <ele>1281.5</ele>
        <time>2018-11-26T02:03:17Z</time>
      </trkpt>
      <trkpt lat="42.10899" lon="2.34079">
        <ele>1282.1</ele>
        <time>2018-11-26T02:03:21Z</time>
      </trkpt>
      <trkpt lat="42.10899" lon="2.34065">
        <ele>1283.5</ele>
        <time>2018-11-26T02:03:25Z</time>
      </trkpt>
      <trkpt lat="42.10896" lon="2.34054">
        <ele>1284</ele>
        <time>2018-11-26T02:03:28Z</time>
      </trkpt>
      <trkpt lat="42.10897" lon="2.34039">
        <ele>1284.5</ele>
        <time>2018-11-26T02:03:33Z</time>
      </trkpt>
      <trkpt lat="42.109" lon="2.34028">
        <ele>1284.1</ele>
        <time>2018-11-26T02:03:36Z</time>
      </trkpt>
      <trkpt lat="42.10896" lon="2.34016">
        <ele>1286.4</ele>
        <time>2018-11-26T02:03:40Z</time>
      </trkpt>
      <trkpt lat="42.10888" lon="2.34009">
        <ele>1286</ele>
        <time>2018-11-26T02:03:44Z</time>
      </trkpt>
      <trkpt lat="42.10887" lon="2.33995">
        <ele>1285.1</ele>
        <time>2018-11-26T02:03:48Z</time>
      </trkpt>
      <trkpt lat="42.10881" lon="2.33989">
        <ele>1284.8</ele>
        <time>2018-11-26T02:03:51Z</time>
      </trkpt>
      <trkpt lat="42.10882" lon="2.33987">
        <ele>1284.6</ele>
        <time>2018-11-26T02:03:52Z</time>
      </trkpt>
      <trkpt lat="42.10883" lon="2.33984">
        <ele>1284.5</ele>
        <time>2018-11-26T02:03:53Z</time>
      </trkpt>
      <trkpt lat="42.10883" lon="2.33981">
        <ele>1284.5</ele>
        <time>2018-11-26T02:03:53Z</time>
      </trkpt>
      <trkpt lat="42.10889" lon="2.3397">
        <ele>1285.9</ele>
        <time>2018-11-26T02:03:57Z</time>
      </trkpt>
      <trkpt lat="42.10891" lon="2.33958">
        <ele>1287.9</ele>
        <time>2018-11-26T02:04:01Z</time>
      </trkpt>
      <trkpt lat="42.10895" lon="2.33945">
        <ele>1287.5</ele>
        <time>2018-11-26T02:04:05Z</time>
      </trkpt>
      <trkpt lat="42.10898" lon="2.33933">
        <ele>1288.4</ele>
        <time>2018-11-26T02:04:09Z</time>
      </trkpt>
      <trkpt lat="42.10902" lon="2.33922">
        <ele>1286.4</ele>
        <time>2018-11-26T02:04:13Z</time>
      </trkpt>
      <trkpt lat="42.10908" lon="2.33912">
        <ele>1286.1</ele>
        <time>2018-11-26T02:04:17Z</time>
      </trkpt>
      <trkpt lat="42.10909" lon="2.33905">
        <ele>1286.6</ele>
        <time>2018-11-26T02:04:19Z</time>
      </trkpt>
      <trkpt lat="42.10911" lon="2.33901">
        <ele>1286.1</ele>
        <time>2018-11-26T02:04:20Z</time>
      </trkpt>
      <trkpt lat="42.10913" lon="2.33898">
        <ele>1286.1</ele>
        <time>2018-11-26T02:04:21Z</time>
      </trkpt>
      <trkpt lat="42.10919" lon="2.33888">
        <ele>1285</ele>
        <time>2018-11-26T02:04:25Z</time>
      </trkpt>
      <trkpt lat="42.10921" lon="2.33887">
        <ele>1285.4</ele>
        <time>2018-11-26T02:04:26Z</time>
      </trkpt>
      <trkpt lat="42.10923" lon="2.33885">
        <ele>1285.4</ele>
        <time>2018-11-26T02:04:27Z</time>
      </trkpt>
      <trkpt lat="42.10925" lon="2.33883">
        <ele>1285.5</ele>
        <time>2018-11-26T02:04:28Z</time>
      </trkpt>
      <trkpt lat="42.10927" lon="2.33882">
        <ele>1285.4</ele>
        <time>2018-11-26T02:04:29Z</time>
      </trkpt>
      <trkpt lat="42.10929" lon="2.33882">
        <ele>1285.4</ele>
        <time>2018-11-26T02:04:30Z</time>
      </trkpt>
      <trkpt lat="42.10932" lon="2.33881">
        <ele>1286.4</ele>
        <time>2018-11-26T02:04:31Z</time>
      </trkpt>
      <trkpt lat="42.10933" lon="2.33879">
        <ele>1286.9</ele>
        <time>2018-11-26T02:04:31Z</time>
      </trkpt>
      <trkpt lat="42.10935" lon="2.33865">
        <ele>1288.4</ele>
        <time>2018-11-26T02:04:35Z</time>
      </trkpt>
      <trkpt lat="42.10935" lon="2.3386">
        <ele>1288.5</ele>
        <time>2018-11-26T02:04:37Z</time>
      </trkpt>
      <trkpt lat="42.10936" lon="2.33858">
        <ele>1288.6</ele>
        <time>2018-11-26T02:04:38Z</time>
      </trkpt>
      <trkpt lat="42.10937" lon="2.33855">
        <ele>1288.5</ele>
        <time>2018-11-26T02:04:39Z</time>
      </trkpt>
      <trkpt lat="42.10939" lon="2.33855">
        <ele>1288.6</ele>
        <time>2018-11-26T02:04:39Z</time>
      </trkpt>
      <trkpt lat="42.10942" lon="2.33855">
        <ele>1289.2</ele>
        <time>2018-11-26T02:04:40Z</time>
      </trkpt>
      <trkpt lat="42.10943" lon="2.33854">
        <ele>1289.1</ele>
        <time>2018-11-26T02:04:41Z</time>
      </trkpt>
      <trkpt lat="42.1095" lon="2.33845">
        <ele>1289.8</ele>
        <time>2018-11-26T02:04:45Z</time>
      </trkpt>
      <trkpt lat="42.10959" lon="2.33842">
        <ele>1287</ele>
        <time>2018-11-26T02:04:48Z</time>
      </trkpt>
      <trkpt lat="42.10962" lon="2.33842">
        <ele>1286.5</ele>
        <time>2018-11-26T02:04:50Z</time>
      </trkpt>
      <trkpt lat="42.10963" lon="2.3383">
        <ele>1284.5</ele>
        <time>2018-11-26T02:04:54Z</time>
      </trkpt>
      <trkpt lat="42.10958" lon="2.33819">
        <ele>1280.6</ele>
        <time>2018-11-26T02:04:57Z</time>
      </trkpt>
      <trkpt lat="42.10956" lon="2.33807">
        <ele>1279.1</ele>
        <time>2018-11-26T02:05:01Z</time>
      </trkpt>
      <trkpt lat="42.10951" lon="2.33796">
        <ele>1277.9</ele>
        <time>2018-11-26T02:05:05Z</time>
      </trkpt>
      <trkpt lat="42.10947" lon="2.33785">
        <ele>1274.6</ele>
        <time>2018-11-26T02:05:08Z</time>
      </trkpt>
      <trkpt lat="42.10947" lon="2.33772">
        <ele>1270.1</ele>
        <time>2018-11-26T02:05:12Z</time>
      </trkpt>
      <trkpt lat="42.10949" lon="2.33759">
        <ele>1265.5</ele>
        <time>2018-11-26T02:05:16Z</time>
      </trkpt>
      <trkpt lat="42.10948" lon="2.33746">
        <ele>1261.6</ele>
        <time>2018-11-26T02:05:20Z</time>
      </trkpt>
      <trkpt lat="42.10939" lon="2.33743">
        <ele>1260.4</ele>
        <time>2018-11-26T02:05:24Z</time>
      </trkpt>
      <trkpt lat="42.10931" lon="2.33738">
        <ele>1256.8</ele>
        <time>2018-11-26T02:05:28Z</time>
      </trkpt>
      <trkpt lat="42.1093" lon="2.33724">
        <ele>1252.1</ele>
        <time>2018-11-26T02:05:32Z</time>
      </trkpt>
      <trkpt lat="42.10924" lon="2.33713">
        <ele>1251.4</ele>
        <time>2018-11-26T02:05:36Z</time>
      </trkpt>
      <trkpt lat="42.10922" lon="2.337">
        <ele>1248.4</ele>
        <time>2018-11-26T02:05:40Z</time>
      </trkpt>
      <trkpt lat="42.10914" lon="2.33691">
        <ele>1246.5</ele>
        <time>2018-11-26T02:05:44Z</time>
      </trkpt>
      <trkpt lat="42.10908" lon="2.3368">
        <ele>1244.2</ele>
        <time>2018-11-26T02:05:48Z</time>
      </trkpt>
      <trkpt lat="42.10914" lon="2.3367">
        <ele>1243.9</ele>
        <time>2018-11-26T02:05:51Z</time>
      </trkpt>
      <trkpt lat="42.10916" lon="2.33658">
        <ele>1243.1</ele>
        <time>2018-11-26T02:05:55Z</time>
      </trkpt>
      <trkpt lat="42.10918" lon="2.33644">
        <ele>1239.5</ele>
        <time>2018-11-26T02:05:59Z</time>
      </trkpt>
      <trkpt lat="42.10917" lon="2.33632">
        <ele>1239</ele>
        <time>2018-11-26T02:06:03Z</time>
      </trkpt>
      <trkpt lat="42.10922" lon="2.33619">
        <ele>1236.1</ele>
        <time>2018-11-26T02:06:07Z</time>
      </trkpt>
      <trkpt lat="42.10928" lon="2.3361">
        <ele>1234.1</ele>
        <time>2018-11-26T02:06:11Z</time>
      </trkpt>
      <trkpt lat="42.10935" lon="2.33601">
        <ele>1233.1</ele>
        <time>2018-11-26T02:06:15Z</time>
      </trkpt>
      <trkpt lat="42.10941" lon="2.33589">
        <ele>1232.6</ele>
        <time>2018-11-26T02:06:19Z</time>
      </trkpt>
      <trkpt lat="42.10938" lon="2.33578">
        <ele>1230.5</ele>
        <time>2018-11-26T02:06:23Z</time>
      </trkpt>
      <trkpt lat="42.10929" lon="2.33577">
        <ele>1229.5</ele>
        <time>2018-11-26T02:06:26Z</time>
      </trkpt>
      <trkpt lat="42.10923" lon="2.33566">
        <ele>1226.8</ele>
        <time>2018-11-26T02:06:30Z</time>
      </trkpt>
      <trkpt lat="42.10923" lon="2.33554">
        <ele>1224.9</ele>
        <time>2018-11-26T02:06:34Z</time>
      </trkpt>
      <trkpt lat="42.10916" lon="2.33545">
        <ele>1224</ele>
        <time>2018-11-26T02:06:38Z</time>
      </trkpt>
      <trkpt lat="42.10915" lon="2.33533">
        <ele>1223.1</ele>
        <time>2018-11-26T02:06:41Z</time>
      </trkpt>
      <trkpt lat="42.1091" lon="2.33522">
        <ele>1222.5</ele>
        <time>2018-11-26T02:06:45Z</time>
      </trkpt>
      <trkpt lat="42.10912" lon="2.3351">
        <ele>1221.1</ele>
        <time>2018-11-26T02:06:49Z</time>
      </trkpt>
      <trkpt lat="42.10912" lon="2.33496">
        <ele>1217.4</ele>
        <time>2018-11-26T02:06:53Z</time>
      </trkpt>
      <trkpt lat="42.10905" lon="2.33486">
        <ele>1216.2</ele>
        <time>2018-11-26T02:06:57Z</time>
      </trkpt>
      <trkpt lat="42.10903" lon="2.33473">
        <ele>1215.5</ele>
        <time>2018-11-26T02:07:01Z</time>
      </trkpt>
      <trkpt lat="42.10907" lon="2.33459">
        <ele>1214.1</ele>
        <time>2018-11-26T02:07:06Z</time>
      </trkpt>
      <trkpt lat="42.10899" lon="2.33452">
        <ele>1215</ele>
        <time>2018-11-26T02:07:10Z</time>
      </trkpt>
      <trkpt lat="42.10896" lon="2.33439">
        <ele>1214.8</ele>
        <time>2018-11-26T02:07:14Z</time>
      </trkpt>
      <trkpt lat="42.10892" lon="2.33428">
        <ele>1214.9</ele>
        <time>2018-11-26T02:07:17Z</time>
      </trkpt>
      <trkpt lat="42.10886" lon="2.33417">
        <ele>1215</ele>
        <time>2018-11-26T02:07:21Z</time>
      </trkpt>
      <trkpt lat="42.10889" lon="2.33405">
        <ele>1216.5</ele>
        <time>2018-11-26T02:07:25Z</time>
      </trkpt>
      <trkpt lat="42.1089" lon="2.33393">
        <ele>1216.1</ele>
        <time>2018-11-26T02:07:29Z</time>
      </trkpt>
      <trkpt lat="42.10892" lon="2.3338">
        <ele>1216.6</ele>
        <time>2018-11-26T02:07:32Z</time>
      </trkpt>
      <trkpt lat="42.10896" lon="2.33367">
        <ele>1216.5</ele>
        <time>2018-11-26T02:07:37Z</time>
      </trkpt>
      <trkpt lat="42.10896" lon="2.33354">
        <ele>1214.1</ele>
        <time>2018-11-26T02:07:41Z</time>
      </trkpt>
      <trkpt lat="42.1089" lon="2.33345">
        <ele>1215.1</ele>
        <time>2018-11-26T02:07:44Z</time>
      </trkpt>
      <trkpt lat="42.10888" lon="2.33332">
        <ele>1215.4</ele>
        <time>2018-11-26T02:07:48Z</time>
      </trkpt>
      <trkpt lat="42.10891" lon="2.33321">
        <ele>1214.6</ele>
        <time>2018-11-26T02:07:52Z</time>
      </trkpt>
      <trkpt lat="42.10891" lon="2.33307">
        <ele>1212.4</ele>
        <time>2018-11-26T02:07:56Z</time>
      </trkpt>
      <trkpt lat="42.10897" lon="2.33296">
        <ele>1209.8</ele>
        <time>2018-11-26T02:08:00Z</time>
      </trkpt>
      <trkpt lat="42.10905" lon="2.33287">
        <ele>1207.9</ele>
        <time>2018-11-26T02:08:04Z</time>
      </trkpt>
      <trkpt lat="42.10912" lon="2.33278">
        <ele>1207.9</ele>
        <time>2018-11-26T02:08:08Z</time>
      </trkpt>
      <trkpt lat="42.1092" lon="2.33272">
        <ele>1206.1</ele>
        <time>2018-11-26T02:08:12Z</time>
      </trkpt>
      <trkpt lat="42.10928" lon="2.33265">
        <ele>1202.9</ele>
        <time>2018-11-26T02:08:16Z</time>
      </trkpt>
      <trkpt lat="42.10929" lon="2.33252">
        <ele>1201.5</ele>
        <time>2018-11-26T02:08:20Z</time>
      </trkpt>
      <trkpt lat="42.10931" lon="2.33239">
        <ele>1200.5</ele>
        <time>2018-11-26T02:08:23Z</time>
      </trkpt>
      <trkpt lat="42.10939" lon="2.33231">
        <ele>1198.4</ele>
        <time>2018-11-26T02:08:27Z</time>
      </trkpt>
      <trkpt lat="42.10945" lon="2.33221">
        <ele>1196.6</ele>
        <time>2018-11-26T02:08:31Z</time>
      </trkpt>
      <trkpt lat="42.1095" lon="2.33211">
        <ele>1193.6</ele>
        <time>2018-11-26T02:08:35Z</time>
      </trkpt>
      <trkpt lat="42.10942" lon="2.33203">
        <ele>1188.1</ele>
        <time>2018-11-26T02:08:39Z</time>
      </trkpt>
      <trkpt lat="42.10938" lon="2.33191">
        <ele>1183.5</ele>
        <time>2018-11-26T02:08:43Z</time>
      </trkpt>
      <trkpt lat="42.10935" lon="2.3318">
        <ele>1181</ele>
        <time>2018-11-26T02:08:46Z</time>
      </trkpt>
      <trkpt lat="42.10935" lon="2.33167">
        <ele>1177.9</ele>
        <time>2018-11-26T02:08:50Z</time>
      </trkpt>
      <trkpt lat="42.10935" lon="2.33154">
        <ele>1173.1</ele>
        <time>2018-11-26T02:08:54Z</time>
      </trkpt>
      <trkpt lat="42.10941" lon="2.33144">
        <ele>1167.6</ele>
        <time>2018-11-26T02:08:58Z</time>
      </trkpt>
      <trkpt lat="42.1094" lon="2.33131">
        <ele>1163.9</ele>
        <time>2018-11-26T02:09:02Z</time>
      </trkpt>
      <trkpt lat="42.1094" lon="2.33119">
        <ele>1160.1</ele>
        <time>2018-11-26T02:09:06Z</time>
      </trkpt>
      <trkpt lat="42.10947" lon="2.33106">
        <ele>1157.1</ele>
        <time>2018-11-26T02:09:10Z</time>
      </trkpt>
      <trkpt lat="42.10949" lon="2.33093">
        <ele>1151.8</ele>
        <time>2018-11-26T02:09:14Z</time>
      </trkpt>
      <trkpt lat="42.10947" lon="2.33081">
        <ele>1148.2</ele>
        <time>2018-11-26T02:09:18Z</time>
      </trkpt>
      <trkpt lat="42.10948" lon="2.33069">
        <ele>1144.1</ele>
        <time>2018-11-26T02:09:21Z</time>
      </trkpt>
      <trkpt lat="42.10942" lon="2.3306">
        <ele>1137.5</ele>
        <time>2018-11-26T02:09:25Z</time>
      </trkpt>
      <trkpt lat="42.1094" lon="2.33048">
        <ele>1134.8</ele>
        <time>2018-11-26T02:09:29Z</time>
      </trkpt>
      <trkpt lat="42.1094" lon="2.33035">
        <ele>1133</ele>
        <time>2018-11-26T02:09:33Z</time>
      </trkpt>
      <trkpt lat="42.10942" lon="2.33023">
        <ele>1130.5</ele>
        <time>2018-11-26T02:09:36Z</time>
      </trkpt>
      <trkpt lat="42.10938" lon="2.33011">
        <ele>1128.6</ele>
        <time>2018-11-26T02:09:40Z</time>
      </trkpt>
      <trkpt lat="42.10939" lon="2.32999">
        <ele>1126.5</ele>
        <time>2018-11-26T02:09:44Z</time>
      </trkpt>
      <trkpt lat="42.10935" lon="2.32987">
        <ele>1122</ele>
        <time>2018-11-26T02:09:47Z</time>
      </trkpt>
      <trkpt lat="42.10942" lon="2.32977">
        <ele>1118.5</ele>
        <time>2018-11-26T02:09:52Z</time>
      </trkpt>
      <trkpt lat="42.10946" lon="2.32964">
        <ele>1116.5</ele>
        <time>2018-11-26T02:09:56Z</time>
      </trkpt>
      <trkpt lat="42.10947" lon="2.32952">
        <ele>1114.5</ele>
        <time>2018-11-26T02:09:59Z</time>
      </trkpt>
      <trkpt lat="42.1095" lon="2.3294">
        <ele>1113.4</ele>
        <time>2018-11-26T02:10:03Z</time>
      </trkpt>
      <trkpt lat="42.10951" lon="2.32927">
        <ele>1111.9</ele>
        <time>2018-11-26T02:10:07Z</time>
      </trkpt>
      <trkpt lat="42.10951" lon="2.32914">
        <ele>1110.1</ele>
        <time>2018-11-26T02:10:11Z</time>
      </trkpt>
      <trkpt lat="42.10952" lon="2.32901">
        <ele>1108.5</ele>
        <time>2018-11-26T02:10:15Z</time>
      </trkpt>
      <trkpt lat="42.10951" lon="2.32889">
        <ele>1106.5</ele>
        <time>2018-11-26T02:10:18Z</time>
      </trkpt>
      <trkpt lat="42.10948" lon="2.32877">
        <ele>1103.5</ele>
        <time>2018-11-26T02:10:22Z</time>
      </trkpt>
      <trkpt lat="42.10946" lon="2.32864">
        <ele>1102.9</ele>
        <time>2018-11-26T02:10:26Z</time>
      </trkpt>
      <trkpt lat="42.10948" lon="2.32852">
        <ele>1101.5</ele>
        <time>2018-11-26T02:10:30Z</time>
      </trkpt>
      <trkpt lat="42.10954" lon="2.32843">
        <ele>1100.5</ele>
        <time>2018-11-26T02:10:33Z</time>
      </trkpt>
      <trkpt lat="42.10956" lon="2.32831">
        <ele>1100.1</ele>
        <time>2018-11-26T02:10:37Z</time>
      </trkpt>
      <trkpt lat="42.10963" lon="2.32821">
        <ele>1099.4</ele>
        <time>2018-11-26T02:10:41Z</time>
      </trkpt>
      <trkpt lat="42.10964" lon="2.32809">
        <ele>1096.1</ele>
        <time>2018-11-26T02:10:45Z</time>
      </trkpt>
      <trkpt lat="42.10958" lon="2.32798">
        <ele>1093.8</ele>
        <time>2018-11-26T02:10:49Z</time>
      </trkpt>
      <trkpt lat="42.1096" lon="2.32787">
        <ele>1092.5</ele>
        <time>2018-11-26T02:10:52Z</time>
      </trkpt>
      <trkpt lat="42.10966" lon="2.32776">
        <ele>1090.6</ele>
        <time>2018-11-26T02:10:56Z</time>
      </trkpt>
      <trkpt lat="42.10963" lon="2.32764">
        <ele>1089</ele>
        <time>2018-11-26T02:11:00Z</time>
      </trkpt>
      <trkpt lat="42.10959" lon="2.32752">
        <ele>1088.4</ele>
        <time>2018-11-26T02:11:04Z</time>
      </trkpt>
      <trkpt lat="42.10958" lon="2.3274">
        <ele>1085.5</ele>
        <time>2018-11-26T02:11:07Z</time>
      </trkpt>
      <trkpt lat="42.10962" lon="2.32729">
        <ele>1084.1</ele>
        <time>2018-11-26T02:11:11Z</time>
      </trkpt>
      <trkpt lat="42.10965" lon="2.32716">
        <ele>1083.1</ele>
        <time>2018-11-26T02:11:15Z</time>
      </trkpt>
      <trkpt lat="42.10964" lon="2.32704">
        <ele>1081.6</ele>
        <time>2018-11-26T02:11:18Z</time>
      </trkpt>
      <trkpt lat="42.10963" lon="2.32692">
        <ele>1080.2</ele>
        <time>2018-11-26T02:11:22Z</time>
      </trkpt>
      <trkpt lat="42.10962" lon="2.32679">
        <ele>1079.6</ele>
        <time>2018-11-26T02:11:26Z</time>
      </trkpt>
      <trkpt lat="42.10964" lon="2.32666">
        <ele>1078.2</ele>
        <time>2018-11-26T02:11:30Z</time>
      </trkpt>
      <trkpt lat="42.10961" lon="2.32655">
        <ele>1075.8</ele>
        <time>2018-11-26T02:11:33Z</time>
      </trkpt>
      <trkpt lat="42.10959" lon="2.32641">
        <ele>1074.6</ele>
        <time>2018-11-26T02:11:37Z</time>
      </trkpt>
      <trkpt lat="42.1096" lon="2.32628">
        <ele>1074.4</ele>
        <time>2018-11-26T02:11:42Z</time>
      </trkpt>
      <trkpt lat="42.10961" lon="2.32614">
        <ele>1073.4</ele>
        <time>2018-11-26T02:11:46Z</time>
      </trkpt>
      <trkpt lat="42.10964" lon="2.32601">
        <ele>1072.5</ele>
        <time>2018-11-26T02:11:50Z</time>
      </trkpt>
      <trkpt lat="42.10963" lon="2.32588">
        <ele>1071.5</ele>
        <time>2018-11-26T02:11:53Z</time>
      </trkpt>
      <trkpt lat="42.10965" lon="2.32575">
        <ele>1070.5</ele>
        <time>2018-11-26T02:11:57Z</time>
      </trkpt>
      <trkpt lat="42.10965" lon="2.32563">
        <ele>1069.9</ele>
        <time>2018-11-26T02:12:01Z</time>
      </trkpt>
      <trkpt lat="42.10965" lon="2.3255">
        <ele>1069.1</ele>
        <time>2018-11-26T02:12:05Z</time>
      </trkpt>
      <trkpt lat="42.10965" lon="2.32538">
        <ele>1067.1</ele>
        <time>2018-11-26T02:12:09Z</time>
      </trkpt>
      <trkpt lat="42.1096" lon="2.32526">
        <ele>1066.5</ele>
        <time>2018-11-26T02:12:12Z</time>
      </trkpt>
      <trkpt lat="42.10956" lon="2.32514">
        <ele>1065.1</ele>
        <time>2018-11-26T02:12:16Z</time>
      </trkpt>
      <trkpt lat="42.10955" lon="2.32502">
        <ele>1064.2</ele>
        <time>2018-11-26T02:12:20Z</time>
      </trkpt>
      <trkpt lat="42.10961" lon="2.32491">
        <ele>1062.6</ele>
        <time>2018-11-26T02:12:24Z</time>
      </trkpt>
      <trkpt lat="42.10971" lon="2.32486">
        <ele>1060.8</ele>
        <time>2018-11-26T02:12:28Z</time>
      </trkpt>
      <trkpt lat="42.10977" lon="2.32477">
        <ele>1059</ele>
        <time>2018-11-26T02:12:32Z</time>
      </trkpt>
      <trkpt lat="42.10975" lon="2.32464">
        <ele>1058</ele>
        <time>2018-11-26T02:12:36Z</time>
      </trkpt>
      <trkpt lat="42.10967" lon="2.32456">
        <ele>1057</ele>
        <time>2018-11-26T02:12:40Z</time>
      </trkpt>
      <trkpt lat="42.1096" lon="2.32447">
        <ele>1056.6</ele>
        <time>2018-11-26T02:12:44Z</time>
      </trkpt>
      <trkpt lat="42.10952" lon="2.32441">
        <ele>1055.8</ele>
        <time>2018-11-26T02:12:48Z</time>
      </trkpt>
      <trkpt lat="42.10947" lon="2.32431">
        <ele>1054</ele>
        <time>2018-11-26T02:12:51Z</time>
      </trkpt>
      <trkpt lat="42.10939" lon="2.32424">
        <ele>1052.4</ele>
        <time>2018-11-26T02:12:55Z</time>
      </trkpt>
      <trkpt lat="42.10941" lon="2.32412">
        <ele>1051</ele>
        <time>2018-11-26T02:12:59Z</time>
      </trkpt>
      <trkpt lat="42.10936" lon="2.32402">
        <ele>1052</ele>
        <time>2018-11-26T02:13:02Z</time>
      </trkpt>
      <trkpt lat="42.10935" lon="2.32389">
        <ele>1051.1</ele>
        <time>2018-11-26T02:13:06Z</time>
      </trkpt>
      <trkpt lat="42.10926" lon="2.32383">
        <ele>1047.2</ele>
        <time>2018-11-26T02:13:10Z</time>
      </trkpt>
      <trkpt lat="42.10922" lon="2.3237">
        <ele>1047.1</ele>
        <time>2018-11-26T02:13:14Z</time>
      </trkpt>
      <trkpt lat="42.10924" lon="2.32357">
        <ele>1045.5</ele>
        <time>2018-11-26T02:13:18Z</time>
      </trkpt>
      <trkpt lat="42.1092" lon="2.32346">
        <ele>1045.1</ele>
        <time>2018-11-26T02:13:22Z</time>
      </trkpt>
      <trkpt lat="42.10921" lon="2.32336">
        <ele>1044.5</ele>
        <time>2018-11-26T02:13:25Z</time>
      </trkpt>
      <trkpt lat="42.10912" lon="2.32336">
        <ele>1041</ele>
        <time>2018-11-26T02:13:28Z</time>
      </trkpt>
      <trkpt lat="42.10903" lon="2.32332">
        <ele>1040.1</ele>
        <time>2018-11-26T02:13:32Z</time>
      </trkpt>
      <trkpt lat="42.10897" lon="2.32323">
        <ele>1039.5</ele>
        <time>2018-11-26T02:13:36Z</time>
      </trkpt>
      <trkpt lat="42.10892" lon="2.32313">
        <ele>1038.8</ele>
        <time>2018-11-26T02:13:39Z</time>
      </trkpt>
      <trkpt lat="42.10893" lon="2.323">
        <ele>1036.9</ele>
        <time>2018-11-26T02:13:43Z</time>
      </trkpt>
      <trkpt lat="42.10893" lon="2.32287">
        <ele>1035.9</ele>
        <time>2018-11-26T02:13:47Z</time>
      </trkpt>
      <trkpt lat="42.10895" lon="2.32274">
        <ele>1035.8</ele>
        <time>2018-11-26T02:13:51Z</time>
      </trkpt>
      <trkpt lat="42.109" lon="2.32264">
        <ele>1033.9</ele>
        <time>2018-11-26T02:13:55Z</time>
      </trkpt>
      <trkpt lat="42.10898" lon="2.32252">
        <ele>1032.5</ele>
        <time>2018-11-26T02:13:58Z</time>
      </trkpt>
      <trkpt lat="42.10893" lon="2.32241">
        <ele>1030.8</ele>
        <time>2018-11-26T02:14:02Z</time>
      </trkpt>
      <trkpt lat="42.10891" lon="2.32228">
        <ele>1030.1</ele>
        <time>2018-11-26T02:14:06Z</time>
      </trkpt>
      <trkpt lat="42.10894" lon="2.32217">
        <ele>1029.5</ele>
        <time>2018-11-26T02:14:10Z</time>
      </trkpt>
      <trkpt lat="42.10896" lon="2.32205">
        <ele>1028</ele>
        <time>2018-11-26T02:14:13Z</time>
      </trkpt>
      <trkpt lat="42.10896" lon="2.32193">
        <ele>1029.5</ele>
        <time>2018-11-26T02:14:17Z</time>
      </trkpt>
      <trkpt lat="42.10896" lon="2.3218">
        <ele>1029.1</ele>
        <time>2018-11-26T02:14:21Z</time>
      </trkpt>
      <trkpt lat="42.10904" lon="2.32174">
        <ele>1029</ele>
        <time>2018-11-26T02:14:24Z</time>
      </trkpt>
      <trkpt lat="42.1091" lon="2.32164">
        <ele>1025.5</ele>
        <time>2018-11-26T02:14:28Z</time>
      </trkpt>
      <trkpt lat="42.10919" lon="2.3216">
        <ele>1023.1</ele>
        <time>2018-11-26T02:14:32Z</time>
      </trkpt>
      <trkpt lat="42.10927" lon="2.32155">
        <ele>1022.3</ele>
        <time>2018-11-26T02:14:36Z</time>
      </trkpt>
      <trkpt lat="42.10936" lon="2.32149">
        <ele>1020.3</ele>
        <time>2018-11-26T02:14:40Z</time>
      </trkpt>
      <trkpt lat="42.10945" lon="2.32148">
        <ele>1018.5</ele>
        <time>2018-11-26T02:14:43Z</time>
      </trkpt>
      <trkpt lat="42.10957" lon="2.32153">
        <ele>1017</ele>
        <time>2018-11-26T02:14:48Z</time>
      </trkpt>
      <trkpt lat="42.10964" lon="2.3216">
        <ele>1013.4</ele>
        <time>2018-11-26T02:14:52Z</time>
      </trkpt>
      <trkpt lat="42.10973" lon="2.32156">
        <ele>1003.5</ele>
        <time>2018-11-26T02:14:55Z</time>
      </trkpt>
      <trkpt lat="42.10966" lon="2.32147">
        <ele>1002.3</ele>
        <time>2018-11-26T02:14:59Z</time>
      </trkpt>
      <trkpt lat="42.10969" lon="2.32134">
        <ele>1000.1</ele>
        <time>2018-11-26T02:15:03Z</time>
      </trkpt>
      <trkpt lat="42.10968" lon="2.32121">
        <ele>1000.5</ele>
        <time>2018-11-26T02:15:07Z</time>
      </trkpt>
      <trkpt lat="42.1097" lon="2.32108">
        <ele>1000.6</ele>
        <time>2018-11-26T02:15:11Z</time>
      </trkpt>
      <trkpt lat="42.10972" lon="2.32096">
        <ele>996.7</ele>
        <time>2018-11-26T02:15:15Z</time>
      </trkpt>
      <trkpt lat="42.10973" lon="2.32083">
        <ele>992.5</ele>
        <time>2018-11-26T02:15:19Z</time>
      </trkpt>
      <trkpt lat="42.10969" lon="2.32071">
        <ele>990.7</ele>
        <time>2018-11-26T02:15:23Z</time>
      </trkpt>
      <trkpt lat="42.10963" lon="2.3206">
        <ele>988.6</ele>
        <time>2018-11-26T02:15:26Z</time>
      </trkpt>
      <trkpt lat="42.10968" lon="2.32049">
        <ele>986.5</ele>
        <time>2018-11-26T02:15:30Z</time>
      </trkpt>
      <trkpt lat="42.10977" lon="2.32053">
        <ele>985.2</ele>
        <time>2018-11-26T02:15:34Z</time>
      </trkpt>
      <trkpt lat="42.10985" lon="2.32059">
        <ele>984</ele>
        <time>2018-11-26T02:15:38Z</time>
      </trkpt>
      <trkpt lat="42.10995" lon="2.32064">
        <ele>982.8</ele>
        <time>2018-11-26T02:15:42Z</time>
      </trkpt>
      <trkpt lat="42.11002" lon="2.32071">
        <ele>982</ele>
        <time>2018-11-26T02:15:46Z</time>
      </trkpt>
      <trkpt lat="42.11008" lon="2.32081">
        <ele>980.3</ele>
        <time>2018-11-26T02:15:49Z</time>
      </trkpt>
      <trkpt lat="42.11017" lon="2.32086">
        <ele>976.6</ele>
        <time>2018-11-26T02:15:53Z</time>
      </trkpt>
      <trkpt lat="42.11025" lon="2.32093">
        <ele>975.3</ele>
        <time>2018-11-26T02:15:57Z</time>
      </trkpt>
      <trkpt lat="42.11035" lon="2.32091">
        <ele>973.4</ele>
        <time>2018-11-26T02:16:01Z</time>
      </trkpt>
      <trkpt lat="42.11044" lon="2.32094">
        <ele>972.5</ele>
        <time>2018-11-26T02:16:05Z</time>
      </trkpt>
      <trkpt lat="42.11052" lon="2.321">
        <ele>970.8</ele>
        <time>2018-11-26T02:16:09Z</time>
      </trkpt>
      <trkpt lat="42.11061" lon="2.321">
        <ele>966.5</ele>
        <time>2018-11-26T02:16:12Z</time>
      </trkpt>
      <trkpt lat="42.11055" lon="2.32089">
        <ele>961.2</ele>
        <time>2018-11-26T02:16:16Z</time>
      </trkpt>
      <trkpt lat="42.11054" lon="2.32075">
        <ele>957.7</ele>
        <time>2018-11-26T02:16:20Z</time>
      </trkpt>
      <trkpt lat="42.11052" lon="2.32061">
        <ele>953.7</ele>
        <time>2018-11-26T02:16:24Z</time>
      </trkpt>
      <trkpt lat="42.11051" lon="2.32048">
        <ele>948.4</ele>
        <time>2018-11-26T02:16:28Z</time>
      </trkpt>
      <trkpt lat="42.11041" lon="2.32046">
        <ele>945.3</ele>
        <time>2018-11-26T02:16:33Z</time>
      </trkpt>
      <trkpt lat="42.11032" lon="2.3204">
        <ele>944.2</ele>
        <time>2018-11-26T02:16:36Z</time>
      </trkpt>
      <trkpt lat="42.11023" lon="2.32035">
        <ele>945.1</ele>
        <time>2018-11-26T02:16:40Z</time>
      </trkpt>
      <trkpt lat="42.11017" lon="2.32026">
        <ele>945.1</ele>
        <time>2018-11-26T02:16:44Z</time>
      </trkpt>
      <trkpt lat="42.11011" lon="2.32016">
        <ele>945.5</ele>
        <time>2018-11-26T02:16:48Z</time>
      </trkpt>
      <trkpt lat="42.11002" lon="2.32011">
        <ele>946.2</ele>
        <time>2018-11-26T02:16:52Z</time>
      </trkpt>
      <trkpt lat="42.10995" lon="2.32002">
        <ele>946.6</ele>
        <time>2018-11-26T02:16:55Z</time>
      </trkpt>
      <trkpt lat="42.10987" lon="2.31993">
        <ele>947.2</ele>
        <time>2018-11-26T02:17:00Z</time>
      </trkpt>
      <trkpt lat="42.1098" lon="2.31985">
        <ele>947.7</ele>
        <time>2018-11-26T02:17:03Z</time>
      </trkpt>
      <trkpt lat="42.1097" lon="2.31981">
        <ele>949.2</ele>
        <time>2018-11-26T02:17:07Z</time>
      </trkpt>
      <trkpt lat="42.10961" lon="2.31978">
        <ele>950</ele>
        <time>2018-11-26T02:17:11Z</time>
      </trkpt>
      <trkpt lat="42.10952" lon="2.31974">
        <ele>947.5</ele>
        <time>2018-11-26T02:17:15Z</time>
      </trkpt>
      <trkpt lat="42.10943" lon="2.31968">
        <ele>945.5</ele>
        <time>2018-11-26T02:17:19Z</time>
      </trkpt>
      <trkpt lat="42.10948" lon="2.31958">
        <ele>943.7</ele>
        <time>2018-11-26T02:17:23Z</time>
      </trkpt>
      <trkpt lat="42.10958" lon="2.31957">
        <ele>943</ele>
        <time>2018-11-26T02:17:27Z</time>
      </trkpt>
      <trkpt lat="42.10963" lon="2.31968">
        <ele>943</ele>
        <time>2018-11-26T02:17:31Z</time>
      </trkpt>
      <trkpt lat="42.10972" lon="2.3197">
        <ele>944</ele>
        <time>2018-11-26T02:17:34Z</time>
      </trkpt>
      <trkpt lat="42.10982" lon="2.31968">
        <ele>943.3</ele>
        <time>2018-11-26T02:17:38Z</time>
      </trkpt>
      <trkpt lat="42.10993" lon="2.31975">
        <ele>941.5</ele>
        <time>2018-11-26T02:17:43Z</time>
      </trkpt>
      <trkpt lat="42.11001" lon="2.3198">
        <ele>941.1</ele>
        <time>2018-11-26T02:17:47Z</time>
      </trkpt>
      <trkpt lat="42.11008" lon="2.31988">
        <ele>937.7</ele>
        <time>2018-11-26T02:17:50Z</time>
      </trkpt>
      <trkpt lat="42.11016" lon="2.31995">
        <ele>935.4</ele>
        <time>2018-11-26T02:17:54Z</time>
      </trkpt>
      <trkpt lat="42.11025" lon="2.31998">
        <ele>933.4</ele>
        <time>2018-11-26T02:17:58Z</time>
      </trkpt>
      <trkpt lat="42.11025" lon="2.31985">
        <ele>930.8</ele>
        <time>2018-11-26T02:18:02Z</time>
      </trkpt>
      <trkpt lat="42.11018" lon="2.31974">
        <ele>928</ele>
        <time>2018-11-26T02:18:06Z</time>
      </trkpt>
      <trkpt lat="42.11014" lon="2.3196">
        <ele>926.5</ele>
        <time>2018-11-26T02:18:10Z</time>
      </trkpt>
      <trkpt lat="42.11016" lon="2.31945">
        <ele>925.6</ele>
        <time>2018-11-26T02:18:15Z</time>
      </trkpt>
      <trkpt lat="42.11024" lon="2.31937">
        <ele>925.6</ele>
        <time>2018-11-26T02:18:19Z</time>
      </trkpt>
      <trkpt lat="42.11034" lon="2.31936">
        <ele>925</ele>
        <time>2018-11-26T02:18:23Z</time>
      </trkpt>
      <trkpt lat="42.11044" lon="2.31939">
        <ele>923.6</ele>
        <time>2018-11-26T02:18:27Z</time>
      </trkpt>
      <trkpt lat="42.11052" lon="2.31947">
        <ele>920.4</ele>
        <time>2018-11-26T02:18:31Z</time>
      </trkpt>
      <trkpt lat="42.11061" lon="2.31952">
        <ele>918.1</ele>
        <time>2018-11-26T02:18:35Z</time>
      </trkpt>
      <trkpt lat="42.11068" lon="2.31944">
        <ele>916.7</ele>
        <time>2018-11-26T02:18:39Z</time>
      </trkpt>
      <trkpt lat="42.11077" lon="2.31943">
        <ele>914</ele>
        <time>2018-11-26T02:18:42Z</time>
      </trkpt>
      <trkpt lat="42.11087" lon="2.31949">
        <ele>911.5</ele>
        <time>2018-11-26T02:18:47Z</time>
      </trkpt>
      <trkpt lat="42.11096" lon="2.31952">
        <ele>910.1</ele>
        <time>2018-11-26T02:18:50Z</time>
      </trkpt>
      <trkpt lat="42.11104" lon="2.31937">
        <ele>907.8</ele>
        <time>2018-11-26T02:18:56Z</time>
      </trkpt>
      <trkpt lat="42.11109" lon="2.31923">
        <ele>906.6</ele>
        <time>2018-11-26T02:19:00Z</time>
      </trkpt>
      <trkpt lat="42.11118" lon="2.31917">
        <ele>903.6</ele>
        <time>2018-11-26T02:19:05Z</time>
      </trkpt>
      <trkpt lat="42.11127" lon="2.31911">
        <ele>902.4</ele>
        <time>2018-11-26T02:19:08Z</time>
      </trkpt>
      <trkpt lat="42.11135" lon="2.31906">
        <ele>901.1</ele>
        <time>2018-11-26T02:19:12Z</time>
      </trkpt>
      <trkpt lat="42.11143" lon="2.31898">
        <ele>900.5</ele>
        <time>2018-11-26T02:19:16Z</time>
      </trkpt>
      <trkpt lat="42.1115" lon="2.3189">
        <ele>900.6</ele>
        <time>2018-11-26T02:19:19Z</time>
      </trkpt>
      <trkpt lat="42.11153" lon="2.31879">
        <ele>900.2</ele>
        <time>2018-11-26T02:19:23Z</time>
      </trkpt>
      <trkpt lat="42.11153" lon="2.31865">
        <ele>899.3</ele>
        <time>2018-11-26T02:19:27Z</time>
      </trkpt>
      <trkpt lat="42.11159" lon="2.31856">
        <ele>897.5</ele>
        <time>2018-11-26T02:19:31Z</time>
      </trkpt>
      <trkpt lat="42.11167" lon="2.31848">
        <ele>897.7</ele>
        <time>2018-11-26T02:19:35Z</time>
      </trkpt>
      <trkpt lat="42.11172" lon="2.31838">
        <ele>897.4</ele>
        <time>2018-11-26T02:19:39Z</time>
      </trkpt>
      <trkpt lat="42.11178" lon="2.31828">
        <ele>898</ele>
        <time>2018-11-26T02:19:42Z</time>
      </trkpt>
      <trkpt lat="42.11183" lon="2.31817">
        <ele>900.1</ele>
        <time>2018-11-26T02:19:46Z</time>
      </trkpt>
      <trkpt lat="42.11188" lon="2.31806">
        <ele>900.8</ele>
        <time>2018-11-26T02:19:50Z</time>
      </trkpt>
      <trkpt lat="42.11192" lon="2.31795">
        <ele>903.5</ele>
        <time>2018-11-26T02:19:53Z</time>
      </trkpt>
      <trkpt lat="42.112" lon="2.31789">
        <ele>905.3</ele>
        <time>2018-11-26T02:19:57Z</time>
      </trkpt>
      <trkpt lat="42.11207" lon="2.31798">
        <ele>905.3</ele>
        <time>2018-11-26T02:20:01Z</time>
      </trkpt>
      <trkpt lat="42.11213" lon="2.31807">
        <ele>905.3</ele>
        <time>2018-11-26T02:20:05Z</time>
      </trkpt>
      <trkpt lat="42.1122" lon="2.31817">
        <ele>905</ele>
        <time>2018-11-26T02:20:08Z</time>
      </trkpt>
      <trkpt lat="42.11228" lon="2.31824">
        <ele>905.2</ele>
        <time>2018-11-26T02:20:12Z</time>
      </trkpt>
      <trkpt lat="42.11237" lon="2.3183">
        <ele>904.7</ele>
        <time>2018-11-26T02:20:17Z</time>
      </trkpt>
      <trkpt lat="42.11247" lon="2.31834">
        <ele>903.7</ele>
        <time>2018-11-26T02:20:20Z</time>
      </trkpt>
      <trkpt lat="42.11254" lon="2.31841">
        <ele>904.3</ele>
        <time>2018-11-26T02:20:24Z</time>
      </trkpt>
      <trkpt lat="42.11261" lon="2.31851">
        <ele>903.7</ele>
        <time>2018-11-26T02:20:28Z</time>
      </trkpt>
      <trkpt lat="42.11269" lon="2.31859">
        <ele>904.3</ele>
        <time>2018-11-26T02:20:32Z</time>
      </trkpt>
      <trkpt lat="42.11276" lon="2.31868">
        <ele>905</ele>
        <time>2018-11-26T02:20:36Z</time>
      </trkpt>
      <trkpt lat="42.1128" lon="2.3188">
        <ele>905.5</ele>
        <time>2018-11-26T02:20:40Z</time>
      </trkpt>
      <trkpt lat="42.11284" lon="2.31892">
        <ele>904.4</ele>
        <time>2018-11-26T02:20:44Z</time>
      </trkpt>
      <trkpt lat="42.11294" lon="2.3189">
        <ele>903.7</ele>
        <time>2018-11-26T02:20:48Z</time>
      </trkpt>
      <trkpt lat="42.11304" lon="2.31889">
        <ele>903.6</ele>
        <time>2018-11-26T02:20:52Z</time>
      </trkpt>
      <trkpt lat="42.11314" lon="2.31893">
        <ele>903</ele>
        <time>2018-11-26T02:20:56Z</time>
      </trkpt>
      <trkpt lat="42.11322" lon="2.31904">
        <ele>903</ele>
        <time>2018-11-26T02:21:00Z</time>
      </trkpt>
      <trkpt lat="42.11328" lon="2.31915">
        <ele>902.7</ele>
        <time>2018-11-26T02:21:04Z</time>
      </trkpt>
      <trkpt lat="42.11334" lon="2.31924">
        <ele>902.2</ele>
        <time>2018-11-26T02:21:08Z</time>
      </trkpt>
      <trkpt lat="42.11339" lon="2.31914">
        <ele>900.5</ele>
        <time>2018-11-26T02:21:12Z</time>
      </trkpt>
      <trkpt lat="42.11349" lon="2.31914">
        <ele>898.5</ele>
        <time>2018-11-26T02:21:16Z</time>
      </trkpt>
      <trkpt lat="42.11358" lon="2.31912">
        <ele>894.8</ele>
        <time>2018-11-26T02:21:19Z</time>
      </trkpt>
      <trkpt lat="42.11366" lon="2.31904">
        <ele>892.1</ele>
        <time>2018-11-26T02:21:23Z</time>
      </trkpt>
      <trkpt lat="42.11374" lon="2.31901">
        <ele>888.6</ele>
        <time>2018-11-26T02:21:27Z</time>
      </trkpt>
      <trkpt lat="42.11384" lon="2.31894">
        <ele>887.1</ele>
        <time>2018-11-26T02:21:31Z</time>
      </trkpt>
      <trkpt lat="42.11394" lon="2.31889">
        <ele>885.4</ele>
        <time>2018-11-26T02:21:35Z</time>
      </trkpt>
      <trkpt lat="42.11403" lon="2.31885">
        <ele>885.1</ele>
        <time>2018-11-26T02:21:39Z</time>
      </trkpt>
      <trkpt lat="42.11413" lon="2.31884">
        <ele>885</ele>
        <time>2018-11-26T02:21:44Z</time>
      </trkpt>
      <trkpt lat="42.11422" lon="2.31893">
        <ele>883.6</ele>
        <time>2018-11-26T02:21:48Z</time>
      </trkpt>
      <trkpt lat="42.1143" lon="2.319">
        <ele>881.5</ele>
        <time>2018-11-26T02:21:52Z</time>
      </trkpt>
      <trkpt lat="42.11422" lon="2.31892">
        <ele>874.2</ele>
        <time>2018-11-26T02:21:55Z</time>
      </trkpt>
      <trkpt lat="42.11415" lon="2.31884">
        <ele>873.1</ele>
        <time>2018-11-26T02:21:59Z</time>
      </trkpt>
      <trkpt lat="42.11412" lon="2.31872">
        <ele>872.6</ele>
        <time>2018-11-26T02:22:03Z</time>
      </trkpt>
      <trkpt lat="42.11404" lon="2.31878">
        <ele>872.8</ele>
        <time>2018-11-26T02:22:06Z</time>
      </trkpt>
      <trkpt lat="42.11395" lon="2.31882">
        <ele>869.7</ele>
        <time>2018-11-26T02:22:10Z</time>
      </trkpt>
      <trkpt lat="42.11386" lon="2.31885">
        <ele>868.5</ele>
        <time>2018-11-26T02:22:14Z</time>
      </trkpt>
      <trkpt lat="42.11376" lon="2.31879">
        <ele>866.7</ele>
        <time>2018-11-26T02:22:19Z</time>
      </trkpt>
      <trkpt lat="42.11366" lon="2.31876">
        <ele>866.6</ele>
        <time>2018-11-26T02:22:23Z</time>
      </trkpt>
      <trkpt lat="42.11372" lon="2.31865">
        <ele>864</ele>
        <time>2018-11-26T02:22:26Z</time>
      </trkpt>
      <trkpt lat="42.11381" lon="2.31862">
        <ele>863.3</ele>
        <time>2018-11-26T02:22:30Z</time>
      </trkpt>
      <trkpt lat="42.11387" lon="2.31851">
        <ele>856.4</ele>
        <time>2018-11-26T02:22:34Z</time>
      </trkpt>
      <trkpt lat="42.1139" lon="2.31839">
        <ele>854.7</ele>
        <time>2018-11-26T02:22:38Z</time>
      </trkpt>
      <trkpt lat="42.11381" lon="2.31835">
        <ele>846.4</ele>
        <time>2018-11-26T02:22:42Z</time>
      </trkpt>
      <trkpt lat="42.11377" lon="2.31822">
        <ele>844.1</ele>
        <time>2018-11-26T02:22:46Z</time>
      </trkpt>
      <trkpt lat="42.11383" lon="2.31812">
        <ele>843.1</ele>
        <time>2018-11-26T02:22:50Z</time>
      </trkpt>
      <trkpt lat="42.11374" lon="2.31809">
        <ele>843.2</ele>
        <time>2018-11-26T02:22:53Z</time>
      </trkpt>
      <trkpt lat="42.11379" lon="2.31797">
        <ele>843.6</ele>
        <time>2018-11-26T02:22:57Z</time>
      </trkpt>
      <trkpt lat="42.11376" lon="2.31785">
        <ele>844</ele>
        <time>2018-11-26T02:23:01Z</time>
      </trkpt>
      <trkpt lat="42.1138" lon="2.31797">
        <ele>847</ele>
        <time>2018-11-26T02:23:05Z</time>
      </trkpt>
      <trkpt lat="42.11379" lon="2.3181">
        <ele>850.8</ele>
        <time>2018-11-26T02:23:08Z</time>
      </trkpt>
      <trkpt lat="42.11377" lon="2.31822">
        <ele>851.4</ele>
        <time>2018-11-26T02:23:12Z</time>
      </trkpt>
      <trkpt lat="42.11367" lon="2.31823">
        <ele>852.7</ele>
        <time>2018-11-26T02:23:16Z</time>
      </trkpt>
      <trkpt lat="42.11357" lon="2.31819">
        <ele>854.7</ele>
        <time>2018-11-26T02:23:20Z</time>
      </trkpt>
      <trkpt lat="42.11348" lon="2.31817">
        <ele>858.4</ele>
        <time>2018-11-26T02:23:24Z</time>
      </trkpt>
      <trkpt lat="42.11353" lon="2.31805">
        <ele>859.4</ele>
        <time>2018-11-26T02:23:28Z</time>
      </trkpt>
      <trkpt lat="42.11351" lon="2.31793">
        <ele>861.7</ele>
        <time>2018-11-26T02:23:32Z</time>
      </trkpt>
      <trkpt lat="42.11346" lon="2.31782">
        <ele>864.1</ele>
        <time>2018-11-26T02:23:35Z</time>
      </trkpt>
      <trkpt lat="42.11346" lon="2.3177">
        <ele>865.2</ele>
        <time>2018-11-26T02:23:39Z</time>
      </trkpt>
      <trkpt lat="42.11342" lon="2.31758">
        <ele>867.5</ele>
        <time>2018-11-26T02:23:43Z</time>
      </trkpt>
      <trkpt lat="42.11345" lon="2.31746">
        <ele>867.8</ele>
        <time>2018-11-26T02:23:47Z</time>
      </trkpt>
      <trkpt lat="42.11337" lon="2.31739">
        <ele>871.3</ele>
        <time>2018-11-26T02:23:50Z</time>
      </trkpt>
      <trkpt lat="42.11329" lon="2.31733">
        <ele>873.5</ele>
        <time>2018-11-26T02:23:54Z</time>
      </trkpt>
      <trkpt lat="42.11326" lon="2.31721">
        <ele>875.4</ele>
        <time>2018-11-26T02:23:58Z</time>
      </trkpt>
      <trkpt lat="42.11319" lon="2.31714">
        <ele>877.6</ele>
        <time>2018-11-26T02:24:01Z</time>
      </trkpt>
      <trkpt lat="42.11314" lon="2.31709">
        <ele>880.7</ele>
        <time>2018-11-26T02:24:04Z</time>
      </trkpt>
      <trkpt lat="42.11312" lon="2.31704">
        <ele>883</ele>
        <time>2018-11-26T02:24:05Z</time>
      </trkpt>
      <trkpt lat="42.11306" lon="2.31694">
        <ele>884.5</ele>
        <time>2018-11-26T02:24:09Z</time>
      </trkpt>
      <trkpt lat="42.11299" lon="2.31687">
        <ele>887.8</ele>
        <time>2018-11-26T02:24:13Z</time>
      </trkpt>
      <trkpt lat="42.11295" lon="2.31675">
        <ele>890.8</ele>
        <time>2018-11-26T02:24:17Z</time>
      </trkpt>
      <trkpt lat="42.11292" lon="2.31663">
        <ele>891.1</ele>
        <time>2018-11-26T02:24:20Z</time>
      </trkpt>
      <trkpt lat="42.1129" lon="2.31659">
        <ele>891.6</ele>
        <time>2018-11-26T02:24:22Z</time>
      </trkpt>
      <trkpt lat="42.11289" lon="2.31655">
        <ele>892.1</ele>
        <time>2018-11-26T02:24:23Z</time>
      </trkpt>
      <trkpt lat="42.11283" lon="2.31645">
        <ele>892.1</ele>
        <time>2018-11-26T02:24:27Z</time>
      </trkpt>
      <trkpt lat="42.11278" lon="2.31633">
        <ele>891.4</ele>
        <time>2018-11-26T02:24:31Z</time>
      </trkpt>
      <trkpt lat="42.11273" lon="2.31623">
        <ele>891.6</ele>
        <time>2018-11-26T02:24:35Z</time>
      </trkpt>
      <trkpt lat="42.11265" lon="2.31616">
        <ele>891.1</ele>
        <time>2018-11-26T02:24:38Z</time>
      </trkpt>
      <trkpt lat="42.11256" lon="2.3161">
        <ele>889</ele>
        <time>2018-11-26T02:24:42Z</time>
      </trkpt>
      <trkpt lat="42.11247" lon="2.31604">
        <ele>887.2</ele>
        <time>2018-11-26T02:24:46Z</time>
      </trkpt>
      <trkpt lat="42.11238" lon="2.31598">
        <ele>886.5</ele>
        <time>2018-11-26T02:24:50Z</time>
      </trkpt>
      <trkpt lat="42.11233" lon="2.31587">
        <ele>886.3</ele>
        <time>2018-11-26T02:24:54Z</time>
      </trkpt>
      <trkpt lat="42.11229" lon="2.31576">
        <ele>886.3</ele>
        <time>2018-11-26T02:24:58Z</time>
      </trkpt>
      <trkpt lat="42.11222" lon="2.31567">
        <ele>886.3</ele>
        <time>2018-11-26T02:25:02Z</time>
      </trkpt>
      <trkpt lat="42.11213" lon="2.31563">
        <ele>886.5</ele>
        <time>2018-11-26T02:25:05Z</time>
      </trkpt>
      <trkpt lat="42.11204" lon="2.31566">
        <ele>888.3</ele>
        <time>2018-11-26T02:25:09Z</time>
      </trkpt>
      <trkpt lat="42.11194" lon="2.31563">
        <ele>888.7</ele>
        <time>2018-11-26T02:25:13Z</time>
      </trkpt>
      <trkpt lat="42.11185" lon="2.31561">
        <ele>889.4</ele>
        <time>2018-11-26T02:25:17Z</time>
      </trkpt>
      <trkpt lat="42.11176" lon="2.31565">
        <ele>889.7</ele>
        <time>2018-11-26T02:25:21Z</time>
      </trkpt>
      <trkpt lat="42.11168" lon="2.31572">
        <ele>892</ele>
        <time>2018-11-26T02:25:25Z</time>
      </trkpt>
      <trkpt lat="42.11159" lon="2.31567">
        <ele>893.5</ele>
        <time>2018-11-26T02:25:28Z</time>
      </trkpt>
      <trkpt lat="42.11151" lon="2.31565">
        <ele>891</ele>
        <time>2018-11-26T02:25:31Z</time>
      </trkpt>
      <trkpt lat="42.11155" lon="2.31564">
        <ele>890</ele>
        <time>2018-11-26T02:25:33Z</time>
      </trkpt>
      <trkpt lat="42.11153" lon="2.31564">
        <ele>889.6</ele>
        <time>2018-11-26T02:25:34Z</time>
      </trkpt>
      <trkpt lat="42.11151" lon="2.31562">
        <ele>888.5</ele>
        <time>2018-11-26T02:25:35Z</time>
      </trkpt>
      <trkpt lat="42.1115" lon="2.31564">
        <ele>888</ele>
        <time>2018-11-26T02:25:35Z</time>
      </trkpt>
      <trkpt lat="42.11151" lon="2.31564">
        <ele>887.6</ele>
        <time>2018-11-26T02:25:36Z</time>
      </trkpt>
      <trkpt lat="42.11151" lon="2.31561">
        <ele>885.5</ele>
        <time>2018-11-26T02:25:37Z</time>
      </trkpt>
      <trkpt lat="42.11152" lon="2.31558">
        <ele>885.6</ele>
        <time>2018-11-26T02:25:38Z</time>
      </trkpt>
      <trkpt lat="42.11152" lon="2.31555">
        <ele>885.5</ele>
        <time>2018-11-26T02:25:39Z</time>
      </trkpt>
      <trkpt lat="42.11153" lon="2.31552">
        <ele>885.5</ele>
        <time>2018-11-26T02:25:40Z</time>
      </trkpt>
      <trkpt lat="42.11153" lon="2.31539">
        <ele>885.4</ele>
        <time>2018-11-26T02:25:44Z</time>
      </trkpt>
      <trkpt lat="42.11152" lon="2.31526">
        <ele>885.2</ele>
        <time>2018-11-26T02:25:48Z</time>
      </trkpt>
      <trkpt lat="42.11156" lon="2.31511">
        <ele>882.4</ele>
        <time>2018-11-26T02:25:52Z</time>
      </trkpt>
      <trkpt lat="42.11156" lon="2.31499">
        <ele>879.5</ele>
        <time>2018-11-26T02:25:56Z</time>
      </trkpt>
      <trkpt lat="42.1115" lon="2.31487">
        <ele>880.1</ele>
        <time>2018-11-26T02:26:00Z</time>
      </trkpt>
      <trkpt lat="42.11145" lon="2.31475">
        <ele>879.4</ele>
        <time>2018-11-26T02:26:04Z</time>
      </trkpt>
      <trkpt lat="42.11143" lon="2.31463">
        <ele>879.1</ele>
        <time>2018-11-26T02:26:08Z</time>
      </trkpt>
      <trkpt lat="42.11138" lon="2.31452">
        <ele>877.5</ele>
        <time>2018-11-26T02:26:12Z</time>
      </trkpt>
      <trkpt lat="42.11142" lon="2.31438">
        <ele>876.6</ele>
        <time>2018-11-26T02:26:16Z</time>
      </trkpt>
      <trkpt lat="42.11142" lon="2.31425">
        <ele>876.2</ele>
        <time>2018-11-26T02:26:20Z</time>
      </trkpt>
      <trkpt lat="42.1114" lon="2.31413">
        <ele>875.8</ele>
        <time>2018-11-26T02:26:24Z</time>
      </trkpt>
      <trkpt lat="42.11131" lon="2.31406">
        <ele>874.1</ele>
        <time>2018-11-26T02:26:28Z</time>
      </trkpt>
      <trkpt lat="42.11123" lon="2.31399">
        <ele>870.7</ele>
        <time>2018-11-26T02:26:32Z</time>
      </trkpt>
      <trkpt lat="42.11116" lon="2.31391">
        <ele>869.4</ele>
        <time>2018-11-26T02:26:35Z</time>
      </trkpt>
      <trkpt lat="42.11108" lon="2.3138">
        <ele>867</ele>
        <time>2018-11-26T02:26:40Z</time>
      </trkpt>
      <trkpt lat="42.11103" lon="2.31369">
        <ele>865.2</ele>
        <time>2018-11-26T02:26:44Z</time>
      </trkpt>
      <trkpt lat="42.11102" lon="2.31357">
        <ele>865</ele>
        <time>2018-11-26T02:26:47Z</time>
      </trkpt>
      <trkpt lat="42.11098" lon="2.31355">
        <ele>864.5</ele>
        <time>2018-11-26T02:26:49Z</time>
      </trkpt>
      <trkpt lat="42.11096" lon="2.31353">
        <ele>864.3</ele>
        <time>2018-11-26T02:26:50Z</time>
      </trkpt>
      <trkpt lat="42.11089" lon="2.31343">
        <ele>864.2</ele>
        <time>2018-11-26T02:26:54Z</time>
      </trkpt>
      <trkpt lat="42.11083" lon="2.31334">
        <ele>862.6</ele>
        <time>2018-11-26T02:26:58Z</time>
      </trkpt>
      <trkpt lat="42.11079" lon="2.31326">
        <ele>861.7</ele>
        <time>2018-11-26T02:27:00Z</time>
      </trkpt>
      <trkpt lat="42.11076" lon="2.31318">
        <ele>861.5</ele>
        <time>2018-11-26T02:27:03Z</time>
      </trkpt>
      <trkpt lat="42.1107" lon="2.31308">
        <ele>863.3</ele>
        <time>2018-11-26T02:27:07Z</time>
      </trkpt>
      <trkpt lat="42.11071" lon="2.31296">
        <ele>867.1</ele>
        <time>2018-11-26T02:27:10Z</time>
      </trkpt>
      <trkpt lat="42.11077" lon="2.31286">
        <ele>868.8</ele>
        <time>2018-11-26T02:27:14Z</time>
      </trkpt>
      <trkpt lat="42.11082" lon="2.31275">
        <ele>872.4</ele>
        <time>2018-11-26T02:27:18Z</time>
      </trkpt>
      <trkpt lat="42.11081" lon="2.31262">
        <ele>876.4</ele>
        <time>2018-11-26T02:27:22Z</time>
      </trkpt>
      <trkpt lat="42.11086" lon="2.3125">
        <ele>878.4</ele>
        <time>2018-11-26T02:27:26Z</time>
      </trkpt>
      <trkpt lat="42.11084" lon="2.31238">
        <ele>881.4</ele>
        <time>2018-11-26T02:27:30Z</time>
      </trkpt>
      <trkpt lat="42.11079" lon="2.31227">
        <ele>885.8</ele>
        <time>2018-11-26T02:27:33Z</time>
      </trkpt>
      <trkpt lat="42.11086" lon="2.31214">
        <ele>888.1</ele>
        <time>2018-11-26T02:27:38Z</time>
      </trkpt>
      <trkpt lat="42.11092" lon="2.31205">
        <ele>888.7</ele>
        <time>2018-11-26T02:27:42Z</time>
      </trkpt>
      <trkpt lat="42.11083" lon="2.31205">
        <ele>893.5</ele>
        <time>2018-11-26T02:27:46Z</time>
      </trkpt>
      <trkpt lat="42.11078" lon="2.31193">
        <ele>896.8</ele>
        <time>2018-11-26T02:27:50Z</time>
      </trkpt>
      <trkpt lat="42.11072" lon="2.31182">
        <ele>900.7</ele>
        <time>2018-11-26T02:27:54Z</time>
      </trkpt>
      <trkpt lat="42.11063" lon="2.31176">
        <ele>909.2</ele>
        <time>2018-11-26T02:27:58Z</time>
      </trkpt>
      <trkpt lat="42.11054" lon="2.31174">
        <ele>911.3</ele>
        <time>2018-11-26T02:28:01Z</time>
      </trkpt>
      <trkpt lat="42.11046" lon="2.31171">
        <ele>912.4</ele>
        <time>2018-11-26T02:28:05Z</time>
      </trkpt>
      <trkpt lat="42.11037" lon="2.31169">
        <ele>914</ele>
        <time>2018-11-26T02:28:09Z</time>
      </trkpt>
      <trkpt lat="42.11028" lon="2.31173">
        <ele>916.2</ele>
        <time>2018-11-26T02:28:12Z</time>
      </trkpt>
      <trkpt lat="42.11018" lon="2.31168">
        <ele>918.3</ele>
        <time>2018-11-26T02:28:16Z</time>
      </trkpt>
      <trkpt lat="42.11014" lon="2.31158">
        <ele>920.4</ele>
        <time>2018-11-26T02:28:20Z</time>
      </trkpt>
      <trkpt lat="42.11006" lon="2.3115">
        <ele>921.6</ele>
        <time>2018-11-26T02:28:24Z</time>
      </trkpt>
      <trkpt lat="42.10996" lon="2.31146">
        <ele>923</ele>
        <time>2018-11-26T02:28:28Z</time>
      </trkpt>
      <trkpt lat="42.10992" lon="2.31134">
        <ele>924.5</ele>
        <time>2018-11-26T02:28:32Z</time>
      </trkpt>
      <trkpt lat="42.10988" lon="2.31123">
        <ele>926.7</ele>
        <time>2018-11-26T02:28:35Z</time>
      </trkpt>
      <trkpt lat="42.1098" lon="2.3112">
        <ele>929.8</ele>
        <time>2018-11-26T02:28:39Z</time>
      </trkpt>
      <trkpt lat="42.10971" lon="2.31117">
        <ele>932</ele>
        <time>2018-11-26T02:28:43Z</time>
      </trkpt>
      <trkpt lat="42.10963" lon="2.31112">
        <ele>936.4</ele>
        <time>2018-11-26T02:28:46Z</time>
      </trkpt>
      <trkpt lat="42.10958" lon="2.31101">
        <ele>938.7</ele>
        <time>2018-11-26T02:28:50Z</time>
      </trkpt>
      <trkpt lat="42.10948" lon="2.31103">
        <ele>942.2</ele>
        <time>2018-11-26T02:28:54Z</time>
      </trkpt>
      <trkpt lat="42.10939" lon="2.31107">
        <ele>943.1</ele>
        <time>2018-11-26T02:28:58Z</time>
      </trkpt>
      <trkpt lat="42.10931" lon="2.31104">
        <ele>946.2</ele>
        <time>2018-11-26T02:29:01Z</time>
      </trkpt>
      <trkpt lat="42.10921" lon="2.31099">
        <ele>948.1</ele>
        <time>2018-11-26T02:29:05Z</time>
      </trkpt>
      <trkpt lat="42.10913" lon="2.31094">
        <ele>949.6</ele>
        <time>2018-11-26T02:29:09Z</time>
      </trkpt>
      <trkpt lat="42.10904" lon="2.31094">
        <ele>952.1</ele>
        <time>2018-11-26T02:29:13Z</time>
      </trkpt>
      <trkpt lat="42.10896" lon="2.31092">
        <ele>954.1</ele>
        <time>2018-11-26T02:29:15Z</time>
      </trkpt>
      <trkpt lat="42.10893" lon="2.31093">
        <ele>954</ele>
        <time>2018-11-26T02:29:17Z</time>
      </trkpt>
      <trkpt lat="42.10892" lon="2.31092">
        <ele>955</ele>
        <time>2018-11-26T02:29:17Z</time>
      </trkpt>
      <trkpt lat="42.10892" lon="2.31089">
        <ele>955.2</ele>
        <time>2018-11-26T02:29:19Z</time>
      </trkpt>
      <trkpt lat="42.10891" lon="2.31087">
        <ele>955.5</ele>
        <time>2018-11-26T02:29:19Z</time>
      </trkpt>
      <trkpt lat="42.10895" lon="2.31075">
        <ele>957</ele>
        <time>2018-11-26T02:29:23Z</time>
      </trkpt>
      <trkpt lat="42.10897" lon="2.31063">
        <ele>955.7</ele>
        <time>2018-11-26T02:29:27Z</time>
      </trkpt>
      <trkpt lat="42.10897" lon="2.31061">
        <ele>955.6</ele>
        <time>2018-11-26T02:29:27Z</time>
      </trkpt>
      <trkpt lat="42.10898" lon="2.31058">
        <ele>955.6</ele>
        <time>2018-11-26T02:29:28Z</time>
      </trkpt>
      <trkpt lat="42.10898" lon="2.31056">
        <ele>955.3</ele>
        <time>2018-11-26T02:29:29Z</time>
      </trkpt>
      <trkpt lat="42.10899" lon="2.31053">
        <ele>955.6</ele>
        <time>2018-11-26T02:29:30Z</time>
      </trkpt>
      <trkpt lat="42.109" lon="2.3105">
        <ele>955.2</ele>
        <time>2018-11-26T02:29:31Z</time>
      </trkpt>
      <trkpt lat="42.10901" lon="2.31048">
        <ele>955.5</ele>
        <time>2018-11-26T02:29:31Z</time>
      </trkpt>
      <trkpt lat="42.10902" lon="2.31046">
        <ele>955</ele>
        <time>2018-11-26T02:29:32Z</time>
      </trkpt>
      <trkpt lat="42.10904" lon="2.31042">
        <ele>954.7</ele>
        <time>2018-11-26T02:29:34Z</time>
      </trkpt>
      <trkpt lat="42.10906" lon="2.31041">
        <ele>954.8</ele>
        <time>2018-11-26T02:29:34Z</time>
      </trkpt>
      <trkpt lat="42.10908" lon="2.3104">
        <ele>954.5</ele>
        <time>2018-11-26T02:29:35Z</time>
      </trkpt>
      <trkpt lat="42.10911" lon="2.31038">
        <ele>954.4</ele>
        <time>2018-11-26T02:29:37Z</time>
      </trkpt>
      <trkpt lat="42.10913" lon="2.31037">
        <ele>954</ele>
        <time>2018-11-26T02:29:38Z</time>
      </trkpt>
      <trkpt lat="42.10916" lon="2.31037">
        <ele>953.8</ele>
        <time>2018-11-26T02:29:39Z</time>
      </trkpt>
      <trkpt lat="42.10919" lon="2.31036">
        <ele>953.8</ele>
        <time>2018-11-26T02:29:40Z</time>
      </trkpt>
      <trkpt lat="42.10922" lon="2.31035">
        <ele>953.8</ele>
        <time>2018-11-26T02:29:41Z</time>
      </trkpt>
      <trkpt lat="42.10931" lon="2.31032">
        <ele>954.4</ele>
        <time>2018-11-26T02:29:45Z</time>
      </trkpt>
      <trkpt lat="42.10934" lon="2.3103">
        <ele>953.6</ele>
        <time>2018-11-26T02:29:46Z</time>
      </trkpt>
      <trkpt lat="42.1094" lon="2.3102">
        <ele>954.5</ele>
        <time>2018-11-26T02:29:50Z</time>
      </trkpt>
      <trkpt lat="42.10942" lon="2.31007">
        <ele>954.3</ele>
        <time>2018-11-26T02:29:54Z</time>
      </trkpt>
      <trkpt lat="42.10942" lon="2.30995">
        <ele>952.7</ele>
        <time>2018-11-26T02:29:58Z</time>
      </trkpt>
      <trkpt lat="42.10943" lon="2.30983">
        <ele>952.4</ele>
        <time>2018-11-26T02:30:01Z</time>
      </trkpt>
      <trkpt lat="42.10948" lon="2.30971">
        <ele>952.5</ele>
        <time>2018-11-26T02:30:05Z</time>
      </trkpt>
      <trkpt lat="42.10953" lon="2.30961">
        <ele>952.2</ele>
        <time>2018-11-26T02:30:09Z</time>
      </trkpt>
      <trkpt lat="42.10952" lon="2.30949">
        <ele>949.7</ele>
        <time>2018-11-26T02:30:12Z</time>
      </trkpt>
      <trkpt lat="42.10948" lon="2.30938">
        <ele>949</ele>
        <time>2018-11-26T02:30:16Z</time>
      </trkpt>
      <trkpt lat="42.10942" lon="2.30927">
        <ele>949.3</ele>
        <time>2018-11-26T02:30:20Z</time>
      </trkpt>
      <trkpt lat="42.10936" lon="2.30916">
        <ele>949.1</ele>
        <time>2018-11-26T02:30:24Z</time>
      </trkpt>
      <trkpt lat="42.10932" lon="2.30902">
        <ele>949.4</ele>
        <time>2018-11-26T02:30:29Z</time>
      </trkpt>
      <trkpt lat="42.10932" lon="2.30889">
        <ele>949.4</ele>
        <time>2018-11-26T02:30:32Z</time>
      </trkpt>
      <trkpt lat="42.10933" lon="2.30876">
        <ele>950.7</ele>
        <time>2018-11-26T02:30:36Z</time>
      </trkpt>
      <trkpt lat="42.10931" lon="2.30863">
        <ele>951.2</ele>
        <time>2018-11-26T02:30:40Z</time>
      </trkpt>
      <trkpt lat="42.10929" lon="2.3085">
        <ele>950</ele>
        <time>2018-11-26T02:30:44Z</time>
      </trkpt>
      <trkpt lat="42.10926" lon="2.30838">
        <ele>950.1</ele>
        <time>2018-11-26T02:30:48Z</time>
      </trkpt>
      <trkpt lat="42.10922" lon="2.30827">
        <ele>950.6</ele>
        <time>2018-11-26T02:30:52Z</time>
      </trkpt>
      <trkpt lat="42.10917" lon="2.30815">
        <ele>950</ele>
        <time>2018-11-26T02:30:56Z</time>
      </trkpt>
      <trkpt lat="42.10909" lon="2.30809">
        <ele>950.5</ele>
        <time>2018-11-26T02:30:59Z</time>
      </trkpt>
      <trkpt lat="42.109" lon="2.30805">
        <ele>952.1</ele>
        <time>2018-11-26T02:31:03Z</time>
      </trkpt>
      <trkpt lat="42.10891" lon="2.30806">
        <ele>952.1</ele>
        <time>2018-11-26T02:31:07Z</time>
      </trkpt>
      <trkpt lat="42.10882" lon="2.30809">
        <ele>952.3</ele>
        <time>2018-11-26T02:31:11Z</time>
      </trkpt>
      <trkpt lat="42.10876" lon="2.3082">
        <ele>953.7</ele>
        <time>2018-11-26T02:31:14Z</time>
      </trkpt>
      <trkpt lat="42.10867" lon="2.30824">
        <ele>955.5</ele>
        <time>2018-11-26T02:31:18Z</time>
      </trkpt>
      <trkpt lat="42.10857" lon="2.30826">
        <ele>956.3</ele>
        <time>2018-11-26T02:31:22Z</time>
      </trkpt>
      <trkpt lat="42.10849" lon="2.30831">
        <ele>959.4</ele>
        <time>2018-11-26T02:31:26Z</time>
      </trkpt>
      <trkpt lat="42.1084" lon="2.3083">
        <ele>962.8</ele>
        <time>2018-11-26T02:31:30Z</time>
      </trkpt>
      <trkpt lat="42.1083" lon="2.30829">
        <ele>964.8</ele>
        <time>2018-11-26T02:31:34Z</time>
      </trkpt>
      <trkpt lat="42.1082" lon="2.30827">
        <ele>967.6</ele>
        <time>2018-11-26T02:31:38Z</time>
      </trkpt>
      <trkpt lat="42.10811" lon="2.30822">
        <ele>967.5</ele>
        <time>2018-11-26T02:31:42Z</time>
      </trkpt>
      <trkpt lat="42.10804" lon="2.30812">
        <ele>965</ele>
        <time>2018-11-26T02:31:46Z</time>
      </trkpt>
      <trkpt lat="42.10798" lon="2.30801">
        <ele>964.5</ele>
        <time>2018-11-26T02:31:50Z</time>
      </trkpt>
      <trkpt lat="42.10794" lon="2.30789">
        <ele>964.6</ele>
        <time>2018-11-26T02:31:54Z</time>
      </trkpt>
      <trkpt lat="42.10792" lon="2.30777">
        <ele>965.2</ele>
        <time>2018-11-26T02:31:57Z</time>
      </trkpt>
      <trkpt lat="42.10792" lon="2.30764">
        <ele>965.4</ele>
        <time>2018-11-26T02:32:01Z</time>
      </trkpt>
      <trkpt lat="42.10794" lon="2.30757">
        <ele>967.4</ele>
        <time>2018-11-26T02:32:03Z</time>
      </trkpt>
      <trkpt lat="42.10788" lon="2.30748">
        <ele>964.5</ele>
        <time>2018-11-26T02:32:07Z</time>
      </trkpt>
      <trkpt lat="42.10782" lon="2.30738">
        <ele>958.4</ele>
        <time>2018-11-26T02:32:11Z</time>
      </trkpt>
      <trkpt lat="42.10773" lon="2.30735">
        <ele>954.8</ele>
        <time>2018-11-26T02:32:14Z</time>
      </trkpt>
      <trkpt lat="42.10764" lon="2.30733">
        <ele>949.6</ele>
        <time>2018-11-26T02:32:18Z</time>
      </trkpt>
      <trkpt lat="42.10756" lon="2.30726">
        <ele>946</ele>
        <time>2018-11-26T02:32:22Z</time>
      </trkpt>
      <trkpt lat="42.10747" lon="2.30722">
        <ele>943.2</ele>
        <time>2018-11-26T02:32:26Z</time>
      </trkpt>
      <trkpt lat="42.10754" lon="2.30711">
        <ele>947.5</ele>
        <time>2018-11-26T02:32:30Z</time>
      </trkpt>
      <trkpt lat="42.10745" lon="2.30709">
        <ele>955.4</ele>
        <time>2018-11-26T02:32:34Z</time>
      </trkpt>
      <trkpt lat="42.10735" lon="2.30711">
        <ele>961</ele>
        <time>2018-11-26T02:32:38Z</time>
      </trkpt>
      <trkpt lat="42.10727" lon="2.30705">
        <ele>964.6</ele>
        <time>2018-11-26T02:32:41Z</time>
      </trkpt>
      <trkpt lat="42.10719" lon="2.307">
        <ele>969.5</ele>
        <time>2018-11-26T02:32:45Z</time>
      </trkpt>
      <trkpt lat="42.10712" lon="2.30692">
        <ele>974.8</ele>
        <time>2018-11-26T02:32:48Z</time>
      </trkpt>
      <trkpt lat="42.10703" lon="2.3069">
        <ele>980.4</ele>
        <time>2018-11-26T02:32:52Z</time>
      </trkpt>
      <trkpt lat="42.10695" lon="2.30684">
        <ele>986.1</ele>
        <time>2018-11-26T02:32:56Z</time>
      </trkpt>
      <trkpt lat="42.10688" lon="2.30675">
        <ele>989.8</ele>
        <time>2018-11-26T02:33:00Z</time>
      </trkpt>
      <trkpt lat="42.10684" lon="2.30669">
        <ele>994.6</ele>
        <time>2018-11-26T02:33:02Z</time>
      </trkpt>
      <trkpt lat="42.10681" lon="2.30667">
        <ele>995.5</ele>
        <time>2018-11-26T02:33:03Z</time>
      </trkpt>
      <trkpt lat="42.1068" lon="2.30668">
        <ele>997</ele>
        <time>2018-11-26T02:33:04Z</time>
      </trkpt>
      <trkpt lat="42.10678" lon="2.30668">
        <ele>999</ele>
        <time>2018-11-26T02:33:05Z</time>
      </trkpt>
      <trkpt lat="42.10676" lon="2.30666">
        <ele>1000.5</ele>
        <time>2018-11-26T02:33:06Z</time>
      </trkpt>
      <trkpt lat="42.10675" lon="2.30664">
        <ele>1002</ele>
        <time>2018-11-26T02:33:07Z</time>
      </trkpt>
      <trkpt lat="42.10666" lon="2.30659">
        <ele>1003.8</ele>
        <time>2018-11-26T02:33:10Z</time>
      </trkpt>
      <trkpt lat="42.10665" lon="2.30657">
        <ele>1005</ele>
        <time>2018-11-26T02:33:11Z</time>
      </trkpt>
      <trkpt lat="42.10662" lon="2.30657">
        <ele>1006.8</ele>
        <time>2018-11-26T02:33:12Z</time>
      </trkpt>
      <trkpt lat="42.10658" lon="2.30655">
        <ele>1008.8</ele>
        <time>2018-11-26T02:33:14Z</time>
      </trkpt>
      <trkpt lat="42.10655" lon="2.30652">
        <ele>1009.7</ele>
        <time>2018-11-26T02:33:16Z</time>
      </trkpt>
      <trkpt lat="42.10653" lon="2.30651">
        <ele>1011.3</ele>
        <time>2018-11-26T02:33:16Z</time>
      </trkpt>
      <trkpt lat="42.10648" lon="2.30646">
        <ele>1013</ele>
        <time>2018-11-26T02:33:19Z</time>
      </trkpt>
      <trkpt lat="42.10646" lon="2.30645">
        <ele>1014.5</ele>
        <time>2018-11-26T02:33:20Z</time>
      </trkpt>
      <trkpt lat="42.10645" lon="2.30646">
        <ele>1015.5</ele>
        <time>2018-11-26T02:33:20Z</time>
      </trkpt>
      <trkpt lat="42.10642" lon="2.30646">
        <ele>1016.7</ele>
        <time>2018-11-26T02:33:21Z</time>
      </trkpt>
      <trkpt lat="42.10636" lon="2.30644">
        <ele>1019</ele>
        <time>2018-11-26T02:33:24Z</time>
      </trkpt>
      <trkpt lat="42.10628" lon="2.30637">
        <ele>1021</ele>
        <time>2018-11-26T02:33:27Z</time>
      </trkpt>
      <trkpt lat="42.10624" lon="2.30626">
        <ele>1023.8</ele>
        <time>2018-11-26T02:33:31Z</time>
      </trkpt>
      <trkpt lat="42.10619" lon="2.30622">
        <ele>1025.5</ele>
        <time>2018-11-26T02:33:33Z</time>
      </trkpt>
      <trkpt lat="42.10613" lon="2.30612">
        <ele>1029.2</ele>
        <time>2018-11-26T02:33:37Z</time>
      </trkpt>
      <trkpt lat="42.10606" lon="2.30605">
        <ele>1033.4</ele>
        <time>2018-11-26T02:33:41Z</time>
      </trkpt>
      <trkpt lat="42.10597" lon="2.30599">
        <ele>1035</ele>
        <time>2018-11-26T02:33:45Z</time>
      </trkpt>
      <trkpt lat="42.1059" lon="2.3059">
        <ele>1034.2</ele>
        <time>2018-11-26T02:33:49Z</time>
      </trkpt>
      <trkpt lat="42.10586" lon="2.3058">
        <ele>1035.5</ele>
        <time>2018-11-26T02:33:52Z</time>
      </trkpt>
      <trkpt lat="42.10584" lon="2.30577">
        <ele>1036.9</ele>
        <time>2018-11-26T02:33:53Z</time>
      </trkpt>
      <trkpt lat="42.1058" lon="2.30575">
        <ele>1037.5</ele>
        <time>2018-11-26T02:33:55Z</time>
      </trkpt>
      <trkpt lat="42.10575" lon="2.30566">
        <ele>1041.4</ele>
        <time>2018-11-26T02:33:58Z</time>
      </trkpt>
      <trkpt lat="42.10571" lon="2.30566">
        <ele>1045.6</ele>
        <time>2018-11-26T02:34:00Z</time>
      </trkpt>
      <trkpt lat="42.10569" lon="2.30564">
        <ele>1047.5</ele>
        <time>2018-11-26T02:34:01Z</time>
      </trkpt>
      <trkpt lat="42.10568" lon="2.30562">
        <ele>1049</ele>
        <time>2018-11-26T02:34:01Z</time>
      </trkpt>
      <trkpt lat="42.10567" lon="2.30563">
        <ele>1050.5</ele>
        <time>2018-11-26T02:34:02Z</time>
      </trkpt>
      <trkpt lat="42.10565" lon="2.30561">
        <ele>1051.4</ele>
        <time>2018-11-26T02:34:03Z</time>
      </trkpt>
      <trkpt lat="42.10563" lon="2.30559">
        <ele>1053</ele>
        <time>2018-11-26T02:34:04Z</time>
      </trkpt>
      <trkpt lat="42.10562" lon="2.30559">
        <ele>1053.5</ele>
        <time>2018-11-26T02:34:05Z</time>
      </trkpt>
      <trkpt lat="42.10561" lon="2.30557">
        <ele>1054.1</ele>
        <time>2018-11-26T02:34:05Z</time>
      </trkpt>
      <trkpt lat="42.10561" lon="2.30554">
        <ele>1055</ele>
        <time>2018-11-26T02:34:06Z</time>
      </trkpt>
      <trkpt lat="42.10562" lon="2.30551">
        <ele>1055.4</ele>
        <time>2018-11-26T02:34:07Z</time>
      </trkpt>
      <trkpt lat="42.10563" lon="2.3055">
        <ele>1055.5</ele>
        <time>2018-11-26T02:34:08Z</time>
      </trkpt>
      <trkpt lat="42.10565" lon="2.30548">
        <ele>1056.5</ele>
        <time>2018-11-26T02:34:09Z</time>
      </trkpt>
      <trkpt lat="42.10566" lon="2.30545">
        <ele>1056.6</ele>
        <time>2018-11-26T02:34:10Z</time>
      </trkpt>
      <trkpt lat="42.10567" lon="2.30543">
        <ele>1056</ele>
        <time>2018-11-26T02:34:11Z</time>
      </trkpt>
      <trkpt lat="42.10568" lon="2.30541">
        <ele>1055.6</ele>
        <time>2018-11-26T02:34:11Z</time>
      </trkpt>
      <trkpt lat="42.1057" lon="2.30541">
        <ele>1055.5</ele>
        <time>2018-11-26T02:34:12Z</time>
      </trkpt>
      <trkpt lat="42.10572" lon="2.30539">
        <ele>1054.5</ele>
        <time>2018-11-26T02:34:13Z</time>
      </trkpt>
      <trkpt lat="42.10574" lon="2.30539">
        <ele>1056.1</ele>
        <time>2018-11-26T02:34:14Z</time>
      </trkpt>
      <trkpt lat="42.10576" lon="2.30537">
        <ele>1057.5</ele>
        <time>2018-11-26T02:34:15Z</time>
      </trkpt>
      <trkpt lat="42.10577" lon="2.30535">
        <ele>1058.1</ele>
        <time>2018-11-26T02:34:15Z</time>
      </trkpt>
      <trkpt lat="42.10578" lon="2.30533">
        <ele>1058.2</ele>
        <time>2018-11-26T02:34:16Z</time>
      </trkpt>
      <trkpt lat="42.1058" lon="2.30531">
        <ele>1058.8</ele>
        <time>2018-11-26T02:34:17Z</time>
      </trkpt>
      <trkpt lat="42.10581" lon="2.30529">
        <ele>1058.4</ele>
        <time>2018-11-26T02:34:18Z</time>
      </trkpt>
      <trkpt lat="42.10581" lon="2.30526">
        <ele>1057.5</ele>
        <time>2018-11-26T02:34:19Z</time>
      </trkpt>
      <trkpt lat="42.1058" lon="2.30524">
        <ele>1056.6</ele>
        <time>2018-11-26T02:34:19Z</time>
      </trkpt>
      <trkpt lat="42.1058" lon="2.30521">
        <ele>1055.8</ele>
        <time>2018-11-26T02:34:20Z</time>
      </trkpt>
      <trkpt lat="42.1058" lon="2.30518">
        <ele>1053.9</ele>
        <time>2018-11-26T02:34:21Z</time>
      </trkpt>
      <trkpt lat="42.1058" lon="2.30515">
        <ele>1053.1</ele>
        <time>2018-11-26T02:34:22Z</time>
      </trkpt>
      <trkpt lat="42.10579" lon="2.30512">
        <ele>1052.5</ele>
        <time>2018-11-26T02:34:23Z</time>
      </trkpt>
      <trkpt lat="42.10579" lon="2.30509">
        <ele>1051.8</ele>
        <time>2018-11-26T02:34:24Z</time>
      </trkpt>
      <trkpt lat="42.10578" lon="2.30506">
        <ele>1051.6</ele>
        <time>2018-11-26T02:34:25Z</time>
      </trkpt>
      <trkpt lat="42.10577" lon="2.30504">
        <ele>1051</ele>
        <time>2018-11-26T02:34:25Z</time>
      </trkpt>
      <trkpt lat="42.10577" lon="2.30501">
        <ele>1050.4</ele>
        <time>2018-11-26T02:34:26Z</time>
      </trkpt>
      <trkpt lat="42.10576" lon="2.30496">
        <ele>1050.1</ele>
        <time>2018-11-26T02:34:28Z</time>
      </trkpt>
      <trkpt lat="42.10575" lon="2.30494">
        <ele>1050.1</ele>
        <time>2018-11-26T02:34:29Z</time>
      </trkpt>
      <trkpt lat="42.10573" lon="2.30481">
        <ele>1050.5</ele>
        <time>2018-11-26T02:34:33Z</time>
      </trkpt>
      <trkpt lat="42.10572" lon="2.30476">
        <ele>1051.1</ele>
        <time>2018-11-26T02:34:34Z</time>
      </trkpt>
      <trkpt lat="42.10572" lon="2.30472">
        <ele>1051.4</ele>
        <time>2018-11-26T02:34:35Z</time>
      </trkpt>
      <trkpt lat="42.10572" lon="2.30469">
        <ele>1051.5</ele>
        <time>2018-11-26T02:34:36Z</time>
      </trkpt>
      <trkpt lat="42.10572" lon="2.30465">
        <ele>1052.2</ele>
        <time>2018-11-26T02:34:37Z</time>
      </trkpt>
      <trkpt lat="42.10571" lon="2.30461">
        <ele>1052.1</ele>
        <time>2018-11-26T02:34:39Z</time>
      </trkpt>
      <trkpt lat="42.10571" lon="2.30459">
        <ele>1052.6</ele>
        <time>2018-11-26T02:34:39Z</time>
      </trkpt>
      <trkpt lat="42.10571" lon="2.30456">
        <ele>1052.9</ele>
        <time>2018-11-26T02:34:40Z</time>
      </trkpt>
      <trkpt lat="42.10571" lon="2.30454">
        <ele>1053.4</ele>
        <time>2018-11-26T02:34:41Z</time>
      </trkpt>
      <trkpt lat="42.10568" lon="2.30449">
        <ele>1054.5</ele>
        <time>2018-11-26T02:34:43Z</time>
      </trkpt>
      <trkpt lat="42.10567" lon="2.30447">
        <ele>1054.9</ele>
        <time>2018-11-26T02:34:43Z</time>
      </trkpt>
      <trkpt lat="42.10566" lon="2.30444">
        <ele>1054.8</ele>
        <time>2018-11-26T02:34:44Z</time>
      </trkpt>
      <trkpt lat="42.10565" lon="2.30437">
        <ele>1054.8</ele>
        <time>2018-11-26T02:34:47Z</time>
      </trkpt>
      <trkpt lat="42.10565" lon="2.30433">
        <ele>1055.4</ele>
        <time>2018-11-26T02:34:48Z</time>
      </trkpt>
      <trkpt lat="42.10564" lon="2.3043">
        <ele>1055.5</ele>
        <time>2018-11-26T02:34:49Z</time>
      </trkpt>
      <trkpt lat="42.10563" lon="2.30426">
        <ele>1055.2</ele>
        <time>2018-11-26T02:34:50Z</time>
      </trkpt>
      <trkpt lat="42.10562" lon="2.30423">
        <ele>1055.1</ele>
        <time>2018-11-26T02:34:51Z</time>
      </trkpt>
      <trkpt lat="42.10562" lon="2.3042">
        <ele>1055.2</ele>
        <time>2018-11-26T02:34:52Z</time>
      </trkpt>
      <trkpt lat="42.1056" lon="2.30417">
        <ele>1055.6</ele>
        <time>2018-11-26T02:34:53Z</time>
      </trkpt>
      <trkpt lat="42.10559" lon="2.30415">
        <ele>1055.9</ele>
        <time>2018-11-26T02:34:54Z</time>
      </trkpt>
      <trkpt lat="42.10558" lon="2.30412">
        <ele>1055.9</ele>
        <time>2018-11-26T02:34:55Z</time>
      </trkpt>
      <trkpt lat="42.10556" lon="2.30409">
        <ele>1055.6</ele>
        <time>2018-11-26T02:34:56Z</time>
      </trkpt>
      <trkpt lat="42.10555" lon="2.30406">
        <ele>1055.9</ele>
        <time>2018-11-26T02:34:57Z</time>
      </trkpt>
      <trkpt lat="42.10554" lon="2.30403">
        <ele>1055.5</ele>
        <time>2018-11-26T02:34:58Z</time>
      </trkpt>
      <trkpt lat="42.10553" lon="2.30401">
        <ele>1055.5</ele>
        <time>2018-11-26T02:34:59Z</time>
      </trkpt>
      <trkpt lat="42.10552" lon="2.30398">
        <ele>1056.1</ele>
        <time>2018-11-26T02:35:00Z</time>
      </trkpt>
      <trkpt lat="42.10551" lon="2.30396">
        <ele>1056.4</ele>
        <time>2018-11-26T02:35:00Z</time>
      </trkpt>
      <trkpt lat="42.1055" lon="2.30393">
        <ele>1057.5</ele>
        <time>2018-11-26T02:35:01Z</time>
      </trkpt>
      <trkpt lat="42.10548" lon="2.30392">
        <ele>1058.2</ele>
        <time>2018-11-26T02:35:02Z</time>
      </trkpt>
      <trkpt lat="42.10546" lon="2.30389">
        <ele>1059.2</ele>
        <time>2018-11-26T02:35:03Z</time>
      </trkpt>
      <trkpt lat="42.10545" lon="2.30387">
        <ele>1059.4</ele>
        <time>2018-11-26T02:35:04Z</time>
      </trkpt>
      <trkpt lat="42.10543" lon="2.30386">
        <ele>1060.5</ele>
        <time>2018-11-26T02:35:05Z</time>
      </trkpt>
      <trkpt lat="42.10542" lon="2.30384">
        <ele>1060.6</ele>
        <time>2018-11-26T02:35:05Z</time>
      </trkpt>
      <trkpt lat="42.10541" lon="2.30381">
        <ele>1060.6</ele>
        <time>2018-11-26T02:35:06Z</time>
      </trkpt>
      <trkpt lat="42.1054" lon="2.30379">
        <ele>1060.8</ele>
        <time>2018-11-26T02:35:07Z</time>
      </trkpt>
      <trkpt lat="42.10539" lon="2.30377">
        <ele>1061.1</ele>
        <time>2018-11-26T02:35:08Z</time>
      </trkpt>
      <trkpt lat="42.10537" lon="2.30375">
        <ele>1061.1</ele>
        <time>2018-11-26T02:35:09Z</time>
      </trkpt>
      <trkpt lat="42.10536" lon="2.30372">
        <ele>1061.1</ele>
        <time>2018-11-26T02:35:10Z</time>
      </trkpt>
      <trkpt lat="42.10535" lon="2.3037">
        <ele>1060.9</ele>
        <time>2018-11-26T02:35:10Z</time>
      </trkpt>
      <trkpt lat="42.10534" lon="2.30367">
        <ele>1060.8</ele>
        <time>2018-11-26T02:35:11Z</time>
      </trkpt>
      <trkpt lat="42.10533" lon="2.30364">
        <ele>1060.4</ele>
        <time>2018-11-26T02:35:12Z</time>
      </trkpt>
      <trkpt lat="42.10532" lon="2.30362">
        <ele>1060.5</ele>
        <time>2018-11-26T02:35:13Z</time>
      </trkpt>
      <trkpt lat="42.10532" lon="2.30359">
        <ele>1060.5</ele>
        <time>2018-11-26T02:35:14Z</time>
      </trkpt>
      <trkpt lat="42.1053" lon="2.30357">
        <ele>1061.4</ele>
        <time>2018-11-26T02:35:15Z</time>
      </trkpt>
      <trkpt lat="42.10528" lon="2.30355">
        <ele>1062.9</ele>
        <time>2018-11-26T02:35:16Z</time>
      </trkpt>
      <trkpt lat="42.10526" lon="2.30354">
        <ele>1063.5</ele>
        <time>2018-11-26T02:35:17Z</time>
      </trkpt>
      <trkpt lat="42.10524" lon="2.30351">
        <ele>1063</ele>
        <time>2018-11-26T02:35:18Z</time>
      </trkpt>
      <trkpt lat="42.10522" lon="2.3035">
        <ele>1063.1</ele>
        <time>2018-11-26T02:35:19Z</time>
      </trkpt>
      <trkpt lat="42.1052" lon="2.30348">
        <ele>1064.5</ele>
        <time>2018-11-26T02:35:20Z</time>
      </trkpt>
      <trkpt lat="42.1052" lon="2.30346">
        <ele>1064.9</ele>
        <time>2018-11-26T02:35:20Z</time>
      </trkpt>
      <trkpt lat="42.10518" lon="2.30343">
        <ele>1065.1</ele>
        <time>2018-11-26T02:35:21Z</time>
      </trkpt>
      <trkpt lat="42.10517" lon="2.30341">
        <ele>1065</ele>
        <time>2018-11-26T02:35:22Z</time>
      </trkpt>
      <trkpt lat="42.10517" lon="2.30339">
        <ele>1065</ele>
        <time>2018-11-26T02:35:23Z</time>
      </trkpt>
      <trkpt lat="42.10515" lon="2.30335">
        <ele>1066.2</ele>
        <time>2018-11-26T02:35:24Z</time>
      </trkpt>
      <trkpt lat="42.10513" lon="2.30333">
        <ele>1067.1</ele>
        <time>2018-11-26T02:35:25Z</time>
      </trkpt>
      <trkpt lat="42.10512" lon="2.30332">
        <ele>1066.1</ele>
        <time>2018-11-26T02:35:26Z</time>
      </trkpt>
      <trkpt lat="42.1051" lon="2.30329">
        <ele>1065.5</ele>
        <time>2018-11-26T02:35:27Z</time>
      </trkpt>
      <trkpt lat="42.10509" lon="2.30327">
        <ele>1065.2</ele>
        <time>2018-11-26T02:35:28Z</time>
      </trkpt>
      <trkpt lat="42.10507" lon="2.30324">
        <ele>1065.2</ele>
        <time>2018-11-26T02:35:29Z</time>
      </trkpt>
      <trkpt lat="42.10507" lon="2.30321">
        <ele>1065.4</ele>
        <time>2018-11-26T02:35:29Z</time>
      </trkpt>
      <trkpt lat="42.10506" lon="2.30319">
        <ele>1066.8</ele>
        <time>2018-11-26T02:35:30Z</time>
      </trkpt>
      <trkpt lat="42.10505" lon="2.30316">
        <ele>1067.1</ele>
        <time>2018-11-26T02:35:31Z</time>
      </trkpt>
      <trkpt lat="42.10503" lon="2.30315">
        <ele>1068.1</ele>
        <time>2018-11-26T02:35:32Z</time>
      </trkpt>
      <trkpt lat="42.10501" lon="2.30313">
        <ele>1068.4</ele>
        <time>2018-11-26T02:35:33Z</time>
      </trkpt>
      <trkpt lat="42.10501" lon="2.3031">
        <ele>1069.1</ele>
        <time>2018-11-26T02:35:34Z</time>
      </trkpt>
      <trkpt lat="42.10499" lon="2.3031">
        <ele>1070.2</ele>
        <time>2018-11-26T02:35:35Z</time>
      </trkpt>
      <trkpt lat="42.10497" lon="2.30309">
        <ele>1071.8</ele>
        <time>2018-11-26T02:35:36Z</time>
      </trkpt>
      <trkpt lat="42.10496" lon="2.30306">
        <ele>1073</ele>
        <time>2018-11-26T02:35:36Z</time>
      </trkpt>
      <trkpt lat="42.10496" lon="2.30303">
        <ele>1073</ele>
        <time>2018-11-26T02:35:37Z</time>
      </trkpt>
      <trkpt lat="42.10494" lon="2.30301">
        <ele>1074.1</ele>
        <time>2018-11-26T02:35:38Z</time>
      </trkpt>
      <trkpt lat="42.10493" lon="2.30298">
        <ele>1074.9</ele>
        <time>2018-11-26T02:35:39Z</time>
      </trkpt>
      <trkpt lat="42.10492" lon="2.30296">
        <ele>1075</ele>
        <time>2018-11-26T02:35:40Z</time>
      </trkpt>
      <trkpt lat="42.10491" lon="2.30294">
        <ele>1075.8</ele>
        <time>2018-11-26T02:35:41Z</time>
      </trkpt>
      <trkpt lat="42.10489" lon="2.30293">
        <ele>1076.1</ele>
        <time>2018-11-26T02:35:41Z</time>
      </trkpt>
      <trkpt lat="42.10488" lon="2.30291">
        <ele>1076.8</ele>
        <time>2018-11-26T02:35:42Z</time>
      </trkpt>
      <trkpt lat="42.10486" lon="2.30288">
        <ele>1077.8</ele>
        <time>2018-11-26T02:35:43Z</time>
      </trkpt>
      <trkpt lat="42.10485" lon="2.30285">
        <ele>1078.1</ele>
        <time>2018-11-26T02:35:44Z</time>
      </trkpt>
      <trkpt lat="42.10485" lon="2.30283">
        <ele>1078</ele>
        <time>2018-11-26T02:35:45Z</time>
      </trkpt>
      <trkpt lat="42.10484" lon="2.3028">
        <ele>1078.1</ele>
        <time>2018-11-26T02:35:46Z</time>
      </trkpt>
      <trkpt lat="42.10483" lon="2.30277">
        <ele>1079.5</ele>
        <time>2018-11-26T02:35:47Z</time>
      </trkpt>
      <trkpt lat="42.10483" lon="2.30274">
        <ele>1079.5</ele>
        <time>2018-11-26T02:35:48Z</time>
      </trkpt>
      <trkpt lat="42.10482" lon="2.30271">
        <ele>1079.9</ele>
        <time>2018-11-26T02:35:49Z</time>
      </trkpt>
      <trkpt lat="42.10483" lon="2.30268">
        <ele>1079.8</ele>
        <time>2018-11-26T02:35:50Z</time>
      </trkpt>
      <trkpt lat="42.10483" lon="2.30265">
        <ele>1079.5</ele>
        <time>2018-11-26T02:35:50Z</time>
      </trkpt>
      <trkpt lat="42.10484" lon="2.30262">
        <ele>1078.4</ele>
        <time>2018-11-26T02:35:51Z</time>
      </trkpt>
      <trkpt lat="42.10484" lon="2.30259">
        <ele>1078.2</ele>
        <time>2018-11-26T02:35:52Z</time>
      </trkpt>
      <trkpt lat="42.10484" lon="2.30256">
        <ele>1078.2</ele>
        <time>2018-11-26T02:35:53Z</time>
      </trkpt>
      <trkpt lat="42.10484" lon="2.30253">
        <ele>1078.1</ele>
        <time>2018-11-26T02:35:54Z</time>
      </trkpt>
      <trkpt lat="42.10485" lon="2.30251">
        <ele>1078.5</ele>
        <time>2018-11-26T02:35:55Z</time>
      </trkpt>
      <trkpt lat="42.10484" lon="2.30248">
        <ele>1078.1</ele>
        <time>2018-11-26T02:35:56Z</time>
      </trkpt>
      <trkpt lat="42.10483" lon="2.30245">
        <ele>1076.9</ele>
        <time>2018-11-26T02:35:57Z</time>
      </trkpt>
      <trkpt lat="42.10482" lon="2.30243">
        <ele>1076.1</ele>
        <time>2018-11-26T02:35:57Z</time>
      </trkpt>
      <trkpt lat="42.10481" lon="2.3024">
        <ele>1076.1</ele>
        <time>2018-11-26T02:35:58Z</time>
      </trkpt>
      <trkpt lat="42.1048" lon="2.30237">
        <ele>1077</ele>
        <time>2018-11-26T02:35:59Z</time>
      </trkpt>
      <trkpt lat="42.10479" lon="2.30235">
        <ele>1078.5</ele>
        <time>2018-11-26T02:36:00Z</time>
      </trkpt>
      <trkpt lat="42.10477" lon="2.30233">
        <ele>1079</ele>
        <time>2018-11-26T02:36:01Z</time>
      </trkpt>
      <trkpt lat="42.10476" lon="2.30232">
        <ele>1080.8</ele>
        <time>2018-11-26T02:36:02Z</time>
      </trkpt>
      <trkpt lat="42.10474" lon="2.3023">
        <ele>1081.9</ele>
        <time>2018-11-26T02:36:03Z</time>
      </trkpt>
      <trkpt lat="42.10472" lon="2.30228">
        <ele>1083.1</ele>
        <time>2018-11-26T02:36:04Z</time>
      </trkpt>
      <trkpt lat="42.10472" lon="2.30225">
        <ele>1084</ele>
        <time>2018-11-26T02:36:04Z</time>
      </trkpt>
      <trkpt lat="42.10472" lon="2.30223">
        <ele>1084.1</ele>
        <time>2018-11-26T02:36:05Z</time>
      </trkpt>
      <trkpt lat="42.1047" lon="2.30221">
        <ele>1085.9</ele>
        <time>2018-11-26T02:36:06Z</time>
      </trkpt>
      <trkpt lat="42.10469" lon="2.3022">
        <ele>1086.9</ele>
        <time>2018-11-26T02:36:07Z</time>
      </trkpt>
      <trkpt lat="42.10468" lon="2.30217">
        <ele>1087.5</ele>
        <time>2018-11-26T02:36:08Z</time>
      </trkpt>
      <trkpt lat="42.10467" lon="2.30214">
        <ele>1088.2</ele>
        <time>2018-11-26T02:36:09Z</time>
      </trkpt>
      <trkpt lat="42.10467" lon="2.30211">
        <ele>1088.7</ele>
        <time>2018-11-26T02:36:09Z</time>
      </trkpt>
      <trkpt lat="42.10466" lon="2.30208">
        <ele>1089</ele>
        <time>2018-11-26T02:36:10Z</time>
      </trkpt>
      <trkpt lat="42.10465" lon="2.30206">
        <ele>1089.1</ele>
        <time>2018-11-26T02:36:11Z</time>
      </trkpt>
      <trkpt lat="42.10463" lon="2.30204">
        <ele>1089.1</ele>
        <time>2018-11-26T02:36:12Z</time>
      </trkpt>
      <trkpt lat="42.10463" lon="2.30201">
        <ele>1089</ele>
        <time>2018-11-26T02:36:13Z</time>
      </trkpt>
      <trkpt lat="42.10463" lon="2.30198">
        <ele>1089</ele>
        <time>2018-11-26T02:36:14Z</time>
      </trkpt>
      <trkpt lat="42.10462" lon="2.30196">
        <ele>1089.8</ele>
        <time>2018-11-26T02:36:14Z</time>
      </trkpt>
      <trkpt lat="42.1046" lon="2.30194">
        <ele>1090.5</ele>
        <time>2018-11-26T02:36:15Z</time>
      </trkpt>
      <trkpt lat="42.10459" lon="2.30192">
        <ele>1091.4</ele>
        <time>2018-11-26T02:36:16Z</time>
      </trkpt>
      <trkpt lat="42.10458" lon="2.30189">
        <ele>1092.1</ele>
        <time>2018-11-26T02:36:17Z</time>
      </trkpt>
      <trkpt lat="42.10457" lon="2.30187">
        <ele>1092.2</ele>
        <time>2018-11-26T02:36:18Z</time>
      </trkpt>
      <trkpt lat="42.10456" lon="2.30185">
        <ele>1093.6</ele>
        <time>2018-11-26T02:36:18Z</time>
      </trkpt>
      <trkpt lat="42.10455" lon="2.30182">
        <ele>1095</ele>
        <time>2018-11-26T02:36:19Z</time>
      </trkpt>
      <trkpt lat="42.10455" lon="2.3018">
        <ele>1096.1</ele>
        <time>2018-11-26T02:36:20Z</time>
      </trkpt>
      <trkpt lat="42.10454" lon="2.30178">
        <ele>1097</ele>
        <time>2018-11-26T02:36:21Z</time>
      </trkpt>
      <trkpt lat="42.10453" lon="2.30176">
        <ele>1097.5</ele>
        <time>2018-11-26T02:36:22Z</time>
      </trkpt>
      <trkpt lat="42.10453" lon="2.30173">
        <ele>1097.6</ele>
        <time>2018-11-26T02:36:22Z</time>
      </trkpt>
      <trkpt lat="42.10452" lon="2.3017">
        <ele>1098.5</ele>
        <time>2018-11-26T02:36:23Z</time>
      </trkpt>
      <trkpt lat="42.10451" lon="2.30168">
        <ele>1099.1</ele>
        <time>2018-11-26T02:36:24Z</time>
      </trkpt>
      <trkpt lat="42.1045" lon="2.30165">
        <ele>1099.4</ele>
        <time>2018-11-26T02:36:25Z</time>
      </trkpt>
      <trkpt lat="42.10449" lon="2.30163">
        <ele>1100</ele>
        <time>2018-11-26T02:36:26Z</time>
      </trkpt>
      <trkpt lat="42.10449" lon="2.3016">
        <ele>1100.1</ele>
        <time>2018-11-26T02:36:26Z</time>
      </trkpt>
      <trkpt lat="42.10448" lon="2.30158">
        <ele>1100.1</ele>
        <time>2018-11-26T02:36:27Z</time>
      </trkpt>
      <trkpt lat="42.10447" lon="2.30155">
        <ele>1100.6</ele>
        <time>2018-11-26T02:36:28Z</time>
      </trkpt>
      <trkpt lat="42.10448" lon="2.30153">
        <ele>1100.6</ele>
        <time>2018-11-26T02:36:29Z</time>
      </trkpt>
      <trkpt lat="42.10449" lon="2.3015">
        <ele>1100.4</ele>
        <time>2018-11-26T02:36:30Z</time>
      </trkpt>
      <trkpt lat="42.1045" lon="2.30147">
        <ele>1099.4</ele>
        <time>2018-11-26T02:36:31Z</time>
      </trkpt>
      <trkpt lat="42.1045" lon="2.30144">
        <ele>1097</ele>
        <time>2018-11-26T02:36:32Z</time>
      </trkpt>
      <trkpt lat="42.10451" lon="2.30142">
        <ele>1096.2</ele>
        <time>2018-11-26T02:36:32Z</time>
      </trkpt>
      <trkpt lat="42.10453" lon="2.30143">
        <ele>1095.5</ele>
        <time>2018-11-26T02:36:33Z</time>
      </trkpt>
      <trkpt lat="42.10456" lon="2.30143">
        <ele>1094.1</ele>
        <time>2018-11-26T02:36:34Z</time>
      </trkpt>
      <trkpt lat="42.10455" lon="2.3014">
        <ele>1092.4</ele>
        <time>2018-11-26T02:36:35Z</time>
      </trkpt>
      <trkpt lat="42.10456" lon="2.30137">
        <ele>1092.2</ele>
        <time>2018-11-26T02:36:36Z</time>
      </trkpt>
      <trkpt lat="42.10457" lon="2.30135">
        <ele>1091.1</ele>
        <time>2018-11-26T02:36:37Z</time>
      </trkpt>
      <trkpt lat="42.10456" lon="2.30132">
        <ele>1089.6</ele>
        <time>2018-11-26T02:36:38Z</time>
      </trkpt>
      <trkpt lat="42.10454" lon="2.30129">
        <ele>1087.9</ele>
        <time>2018-11-26T02:36:39Z</time>
      </trkpt>
      <trkpt lat="42.10452" lon="2.30127">
        <ele>1087.5</ele>
        <time>2018-11-26T02:36:40Z</time>
      </trkpt>
      <trkpt lat="42.10451" lon="2.30125">
        <ele>1086.8</ele>
        <time>2018-11-26T02:36:41Z</time>
      </trkpt>
      <trkpt lat="42.10449" lon="2.30123">
        <ele>1086.1</ele>
        <time>2018-11-26T02:36:42Z</time>
      </trkpt>
      <trkpt lat="42.10447" lon="2.3012">
        <ele>1086</ele>
        <time>2018-11-26T02:36:43Z</time>
      </trkpt>
      <trkpt lat="42.10447" lon="2.30118">
        <ele>1085.1</ele>
        <time>2018-11-26T02:36:43Z</time>
      </trkpt>
      <trkpt lat="42.10447" lon="2.30116">
        <ele>1084.1</ele>
        <time>2018-11-26T02:36:44Z</time>
      </trkpt>
      <trkpt lat="42.10447" lon="2.30112">
        <ele>1083.8</ele>
        <time>2018-11-26T02:36:45Z</time>
      </trkpt>
      <trkpt lat="42.10447" lon="2.30109">
        <ele>1083.5</ele>
        <time>2018-11-26T02:36:46Z</time>
      </trkpt>
      <trkpt lat="42.10447" lon="2.30107">
        <ele>1083.1</ele>
        <time>2018-11-26T02:36:47Z</time>
      </trkpt>
      <trkpt lat="42.10447" lon="2.30104">
        <ele>1081.1</ele>
        <time>2018-11-26T02:36:47Z</time>
      </trkpt>
      <trkpt lat="42.10448" lon="2.30101">
        <ele>1079.9</ele>
        <time>2018-11-26T02:36:48Z</time>
      </trkpt>
      <trkpt lat="42.10448" lon="2.30098">
        <ele>1078.5</ele>
        <time>2018-11-26T02:36:49Z</time>
      </trkpt>
      <trkpt lat="42.10448" lon="2.30095">
        <ele>1077.4</ele>
        <time>2018-11-26T02:36:50Z</time>
      </trkpt>
      <trkpt lat="42.10449" lon="2.30093">
        <ele>1075.9</ele>
        <time>2018-11-26T02:36:51Z</time>
      </trkpt>
      <trkpt lat="42.10449" lon="2.3009">
        <ele>1074.6</ele>
        <time>2018-11-26T02:36:52Z</time>
      </trkpt>
      <trkpt lat="42.1045" lon="2.30088">
        <ele>1074.5</ele>
        <time>2018-11-26T02:36:52Z</time>
      </trkpt>
      <trkpt lat="42.10451" lon="2.30086">
        <ele>1075.6</ele>
        <time>2018-11-26T02:36:53Z</time>
      </trkpt>
      <trkpt lat="42.10455" lon="2.30086">
        <ele>1077.8</ele>
        <time>2018-11-26T02:36:55Z</time>
      </trkpt>
      <trkpt lat="42.10454" lon="2.30089">
        <ele>1078.6</ele>
        <time>2018-11-26T02:36:56Z</time>
      </trkpt>
      <trkpt lat="42.10453" lon="2.30086">
        <ele>1080.1</ele>
        <time>2018-11-26T02:36:57Z</time>
      </trkpt>
      <trkpt lat="42.10451" lon="2.30085">
        <ele>1080.5</ele>
        <time>2018-11-26T02:36:57Z</time>
      </trkpt>
      <trkpt lat="42.10452" lon="2.30083">
        <ele>1084.6</ele>
        <time>2018-11-26T02:36:58Z</time>
      </trkpt>
      <trkpt lat="42.1045" lon="2.30081">
        <ele>1085.6</ele>
        <time>2018-11-26T02:36:59Z</time>
      </trkpt>
      <trkpt lat="42.10451" lon="2.3008">
        <ele>1088.1</ele>
        <time>2018-11-26T02:37:00Z</time>
      </trkpt>
      <trkpt lat="42.10449" lon="2.30081">
        <ele>1089.2</ele>
        <time>2018-11-26T02:37:00Z</time>
      </trkpt>
      <trkpt lat="42.10447" lon="2.30081">
        <ele>1089.4</ele>
        <time>2018-11-26T02:37:01Z</time>
      </trkpt>
      <trkpt lat="42.10447" lon="2.30078">
        <ele>1090.1</ele>
        <time>2018-11-26T02:37:02Z</time>
      </trkpt>
      <trkpt lat="42.10448" lon="2.30075">
        <ele>1090.8</ele>
        <time>2018-11-26T02:37:03Z</time>
      </trkpt>
      <trkpt lat="42.10446" lon="2.30072">
        <ele>1092.1</ele>
        <time>2018-11-26T02:37:04Z</time>
      </trkpt>
      <trkpt lat="42.10446" lon="2.3007">
        <ele>1093.6</ele>
        <time>2018-11-26T02:37:05Z</time>
      </trkpt>
      <trkpt lat="42.10444" lon="2.30069">
        <ele>1094.2</ele>
        <time>2018-11-26T02:37:06Z</time>
      </trkpt>
      <trkpt lat="42.10442" lon="2.30068">
        <ele>1095</ele>
        <time>2018-11-26T02:37:07Z</time>
      </trkpt>
      <trkpt lat="42.1044" lon="2.30067">
        <ele>1097.6</ele>
        <time>2018-11-26T02:37:08Z</time>
      </trkpt>
      <trkpt lat="42.10438" lon="2.30066">
        <ele>1098.6</ele>
        <time>2018-11-26T02:37:08Z</time>
      </trkpt>
      <trkpt lat="42.10436" lon="2.30064">
        <ele>1099.5</ele>
        <time>2018-11-26T02:37:09Z</time>
      </trkpt>
      <trkpt lat="42.10435" lon="2.30063">
        <ele>1100.6</ele>
        <time>2018-11-26T02:37:10Z</time>
      </trkpt>
      <trkpt lat="42.10433" lon="2.30065">
        <ele>1101.4</ele>
        <time>2018-11-26T02:37:11Z</time>
      </trkpt>
      <trkpt lat="42.10431" lon="2.30064">
        <ele>1102.5</ele>
        <time>2018-11-26T02:37:11Z</time>
      </trkpt>
      <trkpt lat="42.1043" lon="2.30062">
        <ele>1103.1</ele>
        <time>2018-11-26T02:37:12Z</time>
      </trkpt>
      <trkpt lat="42.10429" lon="2.30059">
        <ele>1105.4</ele>
        <time>2018-11-26T02:37:13Z</time>
      </trkpt>
      <trkpt lat="42.10431" lon="2.30057">
        <ele>1106.2</ele>
        <time>2018-11-26T02:37:14Z</time>
      </trkpt>
      <trkpt lat="42.10429" lon="2.30055">
        <ele>1107.2</ele>
        <time>2018-11-26T02:37:15Z</time>
      </trkpt>
      <trkpt lat="42.10429" lon="2.30052">
        <ele>1108.3</ele>
        <time>2018-11-26T02:37:15Z</time>
      </trkpt>
      <trkpt lat="42.1043" lon="2.3005">
        <ele>1109</ele>
        <time>2018-11-26T02:37:16Z</time>
      </trkpt>
      <trkpt lat="42.10428" lon="2.30048">
        <ele>1110.6</ele>
        <time>2018-11-26T02:37:17Z</time>
      </trkpt>
      <trkpt lat="42.10427" lon="2.30046">
        <ele>1111.5</ele>
        <time>2018-11-26T02:37:18Z</time>
      </trkpt>
      <trkpt lat="42.10427" lon="2.30043">
        <ele>1112.2</ele>
        <time>2018-11-26T02:37:19Z</time>
      </trkpt>
      <trkpt lat="42.10426" lon="2.30041">
        <ele>1114.1</ele>
        <time>2018-11-26T02:37:20Z</time>
      </trkpt>
      <trkpt lat="42.10424" lon="2.30038">
        <ele>1115.2</ele>
        <time>2018-11-26T02:37:20Z</time>
      </trkpt>
      <trkpt lat="42.10424" lon="2.30036">
        <ele>1115.4</ele>
        <time>2018-11-26T02:37:21Z</time>
      </trkpt>
      <trkpt lat="42.10424" lon="2.30033">
        <ele>1115.4</ele>
        <time>2018-11-26T02:37:22Z</time>
      </trkpt>
      <trkpt lat="42.10424" lon="2.30031">
        <ele>1115.4</ele>
        <time>2018-11-26T02:37:23Z</time>
      </trkpt>
      <trkpt lat="42.10423" lon="2.30028">
        <ele>1115.9</ele>
        <time>2018-11-26T02:37:24Z</time>
      </trkpt>
      <trkpt lat="42.10422" lon="2.30025">
        <ele>1116.8</ele>
        <time>2018-11-26T02:37:25Z</time>
      </trkpt>
      <trkpt lat="42.10421" lon="2.30022">
        <ele>1116.9</ele>
        <time>2018-11-26T02:37:25Z</time>
      </trkpt>
      <trkpt lat="42.10422" lon="2.30019">
        <ele>1117.9</ele>
        <time>2018-11-26T02:37:26Z</time>
      </trkpt>
      <trkpt lat="42.10421" lon="2.30017">
        <ele>1118.8</ele>
        <time>2018-11-26T02:37:27Z</time>
      </trkpt>
      <trkpt lat="42.1042" lon="2.30014">
        <ele>1120.5</ele>
        <time>2018-11-26T02:37:28Z</time>
      </trkpt>
      <trkpt lat="42.10419" lon="2.30012">
        <ele>1121.2</ele>
        <time>2018-11-26T02:37:29Z</time>
      </trkpt>
      <trkpt lat="42.10419" lon="2.30009">
        <ele>1122</ele>
        <time>2018-11-26T02:37:30Z</time>
      </trkpt>
      <trkpt lat="42.10418" lon="2.30007">
        <ele>1123.5</ele>
        <time>2018-11-26T02:37:30Z</time>
      </trkpt>
      <trkpt lat="42.10418" lon="2.30005">
        <ele>1125.8</ele>
        <time>2018-11-26T02:37:31Z</time>
      </trkpt>
      <trkpt lat="42.10417" lon="2.30002">
        <ele>1126.8</ele>
        <time>2018-11-26T02:37:32Z</time>
      </trkpt>
      <trkpt lat="42.10418" lon="2.29999">
        <ele>1127.8</ele>
        <time>2018-11-26T02:37:33Z</time>
      </trkpt>
      <trkpt lat="42.10417" lon="2.29997">
        <ele>1127.8</ele>
        <time>2018-11-26T02:37:33Z</time>
      </trkpt>
      <trkpt lat="42.10417" lon="2.29994">
        <ele>1127.1</ele>
        <time>2018-11-26T02:37:34Z</time>
      </trkpt>
      <trkpt lat="42.10416" lon="2.29991">
        <ele>1127</ele>
        <time>2018-11-26T02:37:35Z</time>
      </trkpt>
      <trkpt lat="42.10415" lon="2.29989">
        <ele>1126.8</ele>
        <time>2018-11-26T02:37:36Z</time>
      </trkpt>
      <trkpt lat="42.10414" lon="2.29986">
        <ele>1126.4</ele>
        <time>2018-11-26T02:37:37Z</time>
      </trkpt>
      <trkpt lat="42.10412" lon="2.29983">
        <ele>1125.5</ele>
        <time>2018-11-26T02:37:38Z</time>
      </trkpt>
      <trkpt lat="42.10412" lon="2.2998">
        <ele>1125.5</ele>
        <time>2018-11-26T02:37:39Z</time>
      </trkpt>
      <trkpt lat="42.10411" lon="2.29977">
        <ele>1125.1</ele>
        <time>2018-11-26T02:37:40Z</time>
      </trkpt>
      <trkpt lat="42.10411" lon="2.29973">
        <ele>1124.8</ele>
        <time>2018-11-26T02:37:41Z</time>
      </trkpt>
      <trkpt lat="42.1041" lon="2.2997">
        <ele>1124.9</ele>
        <time>2018-11-26T02:37:42Z</time>
      </trkpt>
      <trkpt lat="42.10409" lon="2.29968">
        <ele>1125.1</ele>
        <time>2018-11-26T02:37:43Z</time>
      </trkpt>
      <trkpt lat="42.10408" lon="2.29965">
        <ele>1126.8</ele>
        <time>2018-11-26T02:37:44Z</time>
      </trkpt>
      <trkpt lat="42.10407" lon="2.29962">
        <ele>1126.9</ele>
        <time>2018-11-26T02:37:45Z</time>
      </trkpt>
      <trkpt lat="42.10406" lon="2.29958">
        <ele>1126.5</ele>
        <time>2018-11-26T02:37:46Z</time>
      </trkpt>
      <trkpt lat="42.10407" lon="2.29955">
        <ele>1126.5</ele>
        <time>2018-11-26T02:37:47Z</time>
      </trkpt>
      <trkpt lat="42.10407" lon="2.29952">
        <ele>1127.5</ele>
        <time>2018-11-26T02:37:48Z</time>
      </trkpt>
      <trkpt lat="42.10406" lon="2.29949">
        <ele>1129.1</ele>
        <time>2018-11-26T02:37:49Z</time>
      </trkpt>
      <trkpt lat="42.10406" lon="2.29946">
        <ele>1129.2</ele>
        <time>2018-11-26T02:37:49Z</time>
      </trkpt>
      <trkpt lat="42.10406" lon="2.29944">
        <ele>1129.6</ele>
        <time>2018-11-26T02:37:50Z</time>
      </trkpt>
      <trkpt lat="42.10406" lon="2.2994">
        <ele>1129.1</ele>
        <time>2018-11-26T02:37:51Z</time>
      </trkpt>
      <trkpt lat="42.10406" lon="2.29938">
        <ele>1128.6</ele>
        <time>2018-11-26T02:37:52Z</time>
      </trkpt>
      <trkpt lat="42.10407" lon="2.29935">
        <ele>1126.8</ele>
        <time>2018-11-26T02:37:53Z</time>
      </trkpt>
      <trkpt lat="42.10407" lon="2.29933">
        <ele>1126</ele>
        <time>2018-11-26T02:37:54Z</time>
      </trkpt>
      <trkpt lat="42.10407" lon="2.2993">
        <ele>1124.4</ele>
        <time>2018-11-26T02:37:54Z</time>
      </trkpt>
      <trkpt lat="42.10409" lon="2.29928">
        <ele>1122.5</ele>
        <time>2018-11-26T02:37:55Z</time>
      </trkpt>
      <trkpt lat="42.10407" lon="2.29926">
        <ele>1121.6</ele>
        <time>2018-11-26T02:37:56Z</time>
      </trkpt>
      <trkpt lat="42.10406" lon="2.29925">
        <ele>1121.2</ele>
        <time>2018-11-26T02:37:57Z</time>
      </trkpt>
      <trkpt lat="42.10405" lon="2.29922">
        <ele>1121</ele>
        <time>2018-11-26T02:37:58Z</time>
      </trkpt>
      <trkpt lat="42.10406" lon="2.2992">
        <ele>1121.2</ele>
        <time>2018-11-26T02:37:58Z</time>
      </trkpt>
      <trkpt lat="42.10406" lon="2.29917">
        <ele>1121.4</ele>
        <time>2018-11-26T02:37:59Z</time>
      </trkpt>
      <trkpt lat="42.10405" lon="2.29915">
        <ele>1121.4</ele>
        <time>2018-11-26T02:38:00Z</time>
      </trkpt>
      <trkpt lat="42.10404" lon="2.29912">
        <ele>1121.9</ele>
        <time>2018-11-26T02:38:01Z</time>
      </trkpt>
      <trkpt lat="42.10405" lon="2.29909">
        <ele>1120.5</ele>
        <time>2018-11-26T02:38:02Z</time>
      </trkpt>
      <trkpt lat="42.10404" lon="2.29907">
        <ele>1120.2</ele>
        <time>2018-11-26T02:38:02Z</time>
      </trkpt>
      <trkpt lat="42.10413" lon="2.29903">
        <ele>1122.5</ele>
        <time>2018-11-26T02:38:06Z</time>
      </trkpt>
      <trkpt lat="42.10409" lon="2.29891">
        <ele>1127</ele>
        <time>2018-11-26T02:38:10Z</time>
      </trkpt>
      <trkpt lat="42.10406" lon="2.29887">
        <ele>1128.1</ele>
        <time>2018-11-26T02:38:12Z</time>
      </trkpt>
      <trkpt lat="42.10408" lon="2.29884">
        <ele>1130.1</ele>
        <time>2018-11-26T02:38:13Z</time>
      </trkpt>
      <trkpt lat="42.10405" lon="2.29882">
        <ele>1131.5</ele>
        <time>2018-11-26T02:38:14Z</time>
      </trkpt>
      <trkpt lat="42.10403" lon="2.29881">
        <ele>1131.8</ele>
        <time>2018-11-26T02:38:15Z</time>
      </trkpt>
      <trkpt lat="42.10403" lon="2.29879">
        <ele>1135.1</ele>
        <time>2018-11-26T02:38:16Z</time>
      </trkpt>
      <trkpt lat="42.10403" lon="2.29876">
        <ele>1135.2</ele>
        <time>2018-11-26T02:38:16Z</time>
      </trkpt>
      <trkpt lat="42.10401" lon="2.29875">
        <ele>1135.6</ele>
        <time>2018-11-26T02:38:17Z</time>
      </trkpt>
      <trkpt lat="42.104" lon="2.29873">
        <ele>1137.1</ele>
        <time>2018-11-26T02:38:18Z</time>
      </trkpt>
      <trkpt lat="42.10399" lon="2.29871">
        <ele>1138.2</ele>
        <time>2018-11-26T02:38:19Z</time>
      </trkpt>
      <trkpt lat="42.10396" lon="2.29868">
        <ele>1139</ele>
        <time>2018-11-26T02:38:20Z</time>
      </trkpt>
      <trkpt lat="42.10395" lon="2.29867">
        <ele>1139.4</ele>
        <time>2018-11-26T02:38:21Z</time>
      </trkpt>
      <trkpt lat="42.10387" lon="2.29859">
        <ele>1140</ele>
        <time>2018-11-26T02:38:24Z</time>
      </trkpt>
      <trkpt lat="42.10386" lon="2.29858">
        <ele>1140.2</ele>
        <time>2018-11-26T02:38:25Z</time>
      </trkpt>
      <trkpt lat="42.10384" lon="2.29856">
        <ele>1140.1</ele>
        <time>2018-11-26T02:38:26Z</time>
      </trkpt>
      <trkpt lat="42.10383" lon="2.29854">
        <ele>1140.2</ele>
        <time>2018-11-26T02:38:27Z</time>
      </trkpt>
      <trkpt lat="42.10382" lon="2.29851">
        <ele>1139.8</ele>
        <time>2018-11-26T02:38:28Z</time>
      </trkpt>
      <trkpt lat="42.10381" lon="2.2985">
        <ele>1140.1</ele>
        <time>2018-11-26T02:38:28Z</time>
      </trkpt>
      <trkpt lat="42.1038" lon="2.29846">
        <ele>1140.8</ele>
        <time>2018-11-26T02:38:30Z</time>
      </trkpt>
      <trkpt lat="42.1038" lon="2.29843">
        <ele>1141.1</ele>
        <time>2018-11-26T02:38:30Z</time>
      </trkpt>
      <trkpt lat="42.1038" lon="2.29841">
        <ele>1142.2</ele>
        <time>2018-11-26T02:38:31Z</time>
      </trkpt>
      <trkpt lat="42.10379" lon="2.29838">
        <ele>1142.6</ele>
        <time>2018-11-26T02:38:32Z</time>
      </trkpt>
      <trkpt lat="42.10379" lon="2.29835">
        <ele>1142.8</ele>
        <time>2018-11-26T02:38:33Z</time>
      </trkpt>
      <trkpt lat="42.10379" lon="2.29831">
        <ele>1142.8</ele>
        <time>2018-11-26T02:38:34Z</time>
      </trkpt>
      <trkpt lat="42.1038" lon="2.29829">
        <ele>1142.8</ele>
        <time>2018-11-26T02:38:35Z</time>
      </trkpt>
      <trkpt lat="42.10378" lon="2.29817">
        <ele>1145.2</ele>
        <time>2018-11-26T02:38:39Z</time>
      </trkpt>
      <trkpt lat="42.10377" lon="2.29813">
        <ele>1146.9</ele>
        <time>2018-11-26T02:38:40Z</time>
      </trkpt>
      <trkpt lat="42.10375" lon="2.29807">
        <ele>1150.1</ele>
        <time>2018-11-26T02:38:42Z</time>
      </trkpt>
      <trkpt lat="42.10376" lon="2.29804">
        <ele>1151.4</ele>
        <time>2018-11-26T02:38:43Z</time>
      </trkpt>
      <trkpt lat="42.10378" lon="2.29802">
        <ele>1151.2</ele>
        <time>2018-11-26T02:38:44Z</time>
      </trkpt>
      <trkpt lat="42.10378" lon="2.298">
        <ele>1151.9</ele>
        <time>2018-11-26T02:38:44Z</time>
      </trkpt>
      <trkpt lat="42.10371" lon="2.29789">
        <ele>1152.1</ele>
        <time>2018-11-26T02:38:48Z</time>
      </trkpt>
      <trkpt lat="42.10367" lon="2.29782">
        <ele>1152.1</ele>
        <time>2018-11-26T02:38:51Z</time>
      </trkpt>
      <trkpt lat="42.10365" lon="2.29782">
        <ele>1152.2</ele>
        <time>2018-11-26T02:38:52Z</time>
      </trkpt>
      <trkpt lat="42.10362" lon="2.29771">
        <ele>1152.6</ele>
        <time>2018-11-26T02:38:56Z</time>
      </trkpt>
      <trkpt lat="42.10356" lon="2.29763">
        <ele>1153.1</ele>
        <time>2018-11-26T02:38:59Z</time>
      </trkpt>
      <trkpt lat="42.10355" lon="2.29761">
        <ele>1153.5</ele>
        <time>2018-11-26T02:39:00Z</time>
      </trkpt>
      <trkpt lat="42.10353" lon="2.29759">
        <ele>1154.1</ele>
        <time>2018-11-26T02:39:01Z</time>
      </trkpt>
      <trkpt lat="42.10352" lon="2.29757">
        <ele>1155.2</ele>
        <time>2018-11-26T02:39:01Z</time>
      </trkpt>
      <trkpt lat="42.10351" lon="2.29754">
        <ele>1155.1</ele>
        <time>2018-11-26T02:39:02Z</time>
      </trkpt>
      <trkpt lat="42.10351" lon="2.29752">
        <ele>1155.1</ele>
        <time>2018-11-26T02:39:03Z</time>
      </trkpt>
      <trkpt lat="42.1035" lon="2.29749">
        <ele>1155.4</ele>
        <time>2018-11-26T02:39:04Z</time>
      </trkpt>
      <trkpt lat="42.10348" lon="2.29748">
        <ele>1155.6</ele>
        <time>2018-11-26T02:39:05Z</time>
      </trkpt>
      <trkpt lat="42.10346" lon="2.29747">
        <ele>1155.8</ele>
        <time>2018-11-26T02:39:05Z</time>
      </trkpt>
      <trkpt lat="42.10344" lon="2.29746">
        <ele>1154.6</ele>
        <time>2018-11-26T02:39:06Z</time>
      </trkpt>
      <trkpt lat="42.10344" lon="2.29744">
        <ele>1154.6</ele>
        <time>2018-11-26T02:39:07Z</time>
      </trkpt>
      <trkpt lat="42.10343" lon="2.29741">
        <ele>1154</ele>
        <time>2018-11-26T02:39:08Z</time>
      </trkpt>
      <trkpt lat="42.10343" lon="2.29738">
        <ele>1153.1</ele>
        <time>2018-11-26T02:39:09Z</time>
      </trkpt>
      <trkpt lat="42.10342" lon="2.29735">
        <ele>1154.1</ele>
        <time>2018-11-26T02:39:09Z</time>
      </trkpt>
      <trkpt lat="42.1034" lon="2.29736">
        <ele>1156.9</ele>
        <time>2018-11-26T02:39:10Z</time>
      </trkpt>
      <trkpt lat="42.10342" lon="2.29734">
        <ele>1158.3</ele>
        <time>2018-11-26T02:39:11Z</time>
      </trkpt>
      <trkpt lat="42.10343" lon="2.29732">
        <ele>1160.2</ele>
        <time>2018-11-26T02:39:12Z</time>
      </trkpt>
      <trkpt lat="42.10342" lon="2.29729">
        <ele>1160.8</ele>
        <time>2018-11-26T02:39:13Z</time>
      </trkpt>
      <trkpt lat="42.1034" lon="2.29729">
        <ele>1163.5</ele>
        <time>2018-11-26T02:39:14Z</time>
      </trkpt>
      <trkpt lat="42.10339" lon="2.29727">
        <ele>1164.8</ele>
        <time>2018-11-26T02:39:14Z</time>
      </trkpt>
      <trkpt lat="42.10338" lon="2.29726">
        <ele>1164.5</ele>
        <time>2018-11-26T02:39:15Z</time>
      </trkpt>
      <trkpt lat="42.10336" lon="2.29724">
        <ele>1163.8</ele>
        <time>2018-11-26T02:39:16Z</time>
      </trkpt>
      <trkpt lat="42.10338" lon="2.29722">
        <ele>1167.4</ele>
        <time>2018-11-26T02:39:17Z</time>
      </trkpt>
      <trkpt lat="42.10337" lon="2.29719">
        <ele>1169.1</ele>
        <time>2018-11-26T02:39:18Z</time>
      </trkpt>
      <trkpt lat="42.10338" lon="2.29714">
        <ele>1171.5</ele>
        <time>2018-11-26T02:39:19Z</time>
      </trkpt>
      <trkpt lat="42.10336" lon="2.2971">
        <ele>1172</ele>
        <time>2018-11-26T02:39:21Z</time>
      </trkpt>
      <trkpt lat="42.10335" lon="2.29709">
        <ele>1173.9</ele>
        <time>2018-11-26T02:39:21Z</time>
      </trkpt>
      <trkpt lat="42.10334" lon="2.29706">
        <ele>1174.8</ele>
        <time>2018-11-26T02:39:22Z</time>
      </trkpt>
      <trkpt lat="42.10332" lon="2.29704">
        <ele>1175.4</ele>
        <time>2018-11-26T02:39:23Z</time>
      </trkpt>
      <trkpt lat="42.10331" lon="2.29702">
        <ele>1176.1</ele>
        <time>2018-11-26T02:39:24Z</time>
      </trkpt>
      <trkpt lat="42.10331" lon="2.29699">
        <ele>1177.5</ele>
        <time>2018-11-26T02:39:25Z</time>
      </trkpt>
      <trkpt lat="42.1033" lon="2.29697">
        <ele>1178.2</ele>
        <time>2018-11-26T02:39:25Z</time>
      </trkpt>
      <trkpt lat="42.10328" lon="2.29696">
        <ele>1179.6</ele>
        <time>2018-11-26T02:39:26Z</time>
      </trkpt>
      <trkpt lat="42.10326" lon="2.29694">
        <ele>1181.8</ele>
        <time>2018-11-26T02:39:27Z</time>
      </trkpt>
      <trkpt lat="42.10324" lon="2.29694">
        <ele>1183.1</ele>
        <time>2018-11-26T02:39:28Z</time>
      </trkpt>
      <trkpt lat="42.10322" lon="2.29694">
        <ele>1183.2</ele>
        <time>2018-11-26T02:39:29Z</time>
      </trkpt>
      <trkpt lat="42.1032" lon="2.29693">
        <ele>1184.5</ele>
        <time>2018-11-26T02:39:30Z</time>
      </trkpt>
      <trkpt lat="42.10319" lon="2.29691">
        <ele>1184.8</ele>
        <time>2018-11-26T02:39:30Z</time>
      </trkpt>
      <trkpt lat="42.10317" lon="2.2969">
        <ele>1186.6</ele>
        <time>2018-11-26T02:39:31Z</time>
      </trkpt>
      <trkpt lat="42.10316" lon="2.29688">
        <ele>1187.6</ele>
        <time>2018-11-26T02:39:32Z</time>
      </trkpt>
      <trkpt lat="42.10314" lon="2.29687">
        <ele>1188.5</ele>
        <time>2018-11-26T02:39:33Z</time>
      </trkpt>
      <trkpt lat="42.10312" lon="2.29685">
        <ele>1188.9</ele>
        <time>2018-11-26T02:39:33Z</time>
      </trkpt>
      <trkpt lat="42.1031" lon="2.29685">
        <ele>1188.8</ele>
        <time>2018-11-26T02:39:34Z</time>
      </trkpt>
      <trkpt lat="42.10309" lon="2.29682">
        <ele>1188.9</ele>
        <time>2018-11-26T02:39:35Z</time>
      </trkpt>
      <trkpt lat="42.10308" lon="2.2968">
        <ele>1189.8</ele>
        <time>2018-11-26T02:39:36Z</time>
      </trkpt>
      <trkpt lat="42.10307" lon="2.29678">
        <ele>1190.6</ele>
        <time>2018-11-26T02:39:37Z</time>
      </trkpt>
      <trkpt lat="42.10306" lon="2.29676">
        <ele>1191.6</ele>
        <time>2018-11-26T02:39:38Z</time>
      </trkpt>
      <trkpt lat="42.10304" lon="2.29675">
        <ele>1193.1</ele>
        <time>2018-11-26T02:39:38Z</time>
      </trkpt>
      <trkpt lat="42.10302" lon="2.29675">
        <ele>1193.1</ele>
        <time>2018-11-26T02:39:39Z</time>
      </trkpt>
      <trkpt lat="42.103" lon="2.29673">
        <ele>1193</ele>
        <time>2018-11-26T02:39:40Z</time>
      </trkpt>
      <trkpt lat="42.10299" lon="2.29672">
        <ele>1193.5</ele>
        <time>2018-11-26T02:39:41Z</time>
      </trkpt>
      <trkpt lat="42.10297" lon="2.29669">
        <ele>1194.1</ele>
        <time>2018-11-26T02:39:42Z</time>
      </trkpt>
      <trkpt lat="42.10296" lon="2.29666">
        <ele>1195.1</ele>
        <time>2018-11-26T02:39:43Z</time>
      </trkpt>
      <trkpt lat="42.10295" lon="2.29664">
        <ele>1195.5</ele>
        <time>2018-11-26T02:39:43Z</time>
      </trkpt>
      <trkpt lat="42.10294" lon="2.29661">
        <ele>1195.8</ele>
        <time>2018-11-26T02:39:44Z</time>
      </trkpt>
      <trkpt lat="42.10293" lon="2.29658">
        <ele>1195.9</ele>
        <time>2018-11-26T02:39:45Z</time>
      </trkpt>
      <trkpt lat="42.10292" lon="2.29655">
        <ele>1195.8</ele>
        <time>2018-11-26T02:39:46Z</time>
      </trkpt>
      <trkpt lat="42.10292" lon="2.29651">
        <ele>1196.1</ele>
        <time>2018-11-26T02:39:47Z</time>
      </trkpt>
      <trkpt lat="42.10291" lon="2.29649">
        <ele>1196.6</ele>
        <time>2018-11-26T02:39:48Z</time>
      </trkpt>
      <trkpt lat="42.10291" lon="2.29647">
        <ele>1197</ele>
        <time>2018-11-26T02:39:49Z</time>
      </trkpt>
      <trkpt lat="42.10291" lon="2.29644">
        <ele>1196.5</ele>
        <time>2018-11-26T02:39:50Z</time>
      </trkpt>
      <trkpt lat="42.10289" lon="2.29642">
        <ele>1195.8</ele>
        <time>2018-11-26T02:39:50Z</time>
      </trkpt>
      <trkpt lat="42.10289" lon="2.29638">
        <ele>1195</ele>
        <time>2018-11-26T02:39:52Z</time>
      </trkpt>
      <trkpt lat="42.10288" lon="2.29636">
        <ele>1194.1</ele>
        <time>2018-11-26T02:39:52Z</time>
      </trkpt>
      <trkpt lat="42.10288" lon="2.29633">
        <ele>1193.1</ele>
        <time>2018-11-26T02:39:53Z</time>
      </trkpt>
      <trkpt lat="42.10288" lon="2.2963">
        <ele>1192.2</ele>
        <time>2018-11-26T02:39:54Z</time>
      </trkpt>
      <trkpt lat="42.10288" lon="2.29627">
        <ele>1192</ele>
        <time>2018-11-26T02:39:55Z</time>
      </trkpt>
      <trkpt lat="42.10288" lon="2.29624">
        <ele>1190.9</ele>
        <time>2018-11-26T02:39:56Z</time>
      </trkpt>
      <trkpt lat="42.10287" lon="2.29622">
        <ele>1189</ele>
        <time>2018-11-26T02:39:57Z</time>
      </trkpt>
      <trkpt lat="42.10285" lon="2.2962">
        <ele>1188</ele>
        <time>2018-11-26T02:39:58Z</time>
      </trkpt>
      <trkpt lat="42.10285" lon="2.29617">
        <ele>1187.4</ele>
        <time>2018-11-26T02:39:58Z</time>
      </trkpt>
      <trkpt lat="42.10285" lon="2.29614">
        <ele>1186.1</ele>
        <time>2018-11-26T02:39:59Z</time>
      </trkpt>
      <trkpt lat="42.10285" lon="2.29612">
        <ele>1185.1</ele>
        <time>2018-11-26T02:40:00Z</time>
      </trkpt>
      <trkpt lat="42.10286" lon="2.29609">
        <ele>1184.8</ele>
        <time>2018-11-26T02:40:01Z</time>
      </trkpt>
      <trkpt lat="42.10286" lon="2.29606">
        <ele>1185</ele>
        <time>2018-11-26T02:40:02Z</time>
      </trkpt>
      <trkpt lat="42.10286" lon="2.29603">
        <ele>1185.9</ele>
        <time>2018-11-26T02:40:03Z</time>
      </trkpt>
      <trkpt lat="42.10286" lon="2.29601">
        <ele>1186</ele>
        <time>2018-11-26T02:40:03Z</time>
      </trkpt>
      <trkpt lat="42.10284" lon="2.29599">
        <ele>1189.4</ele>
        <time>2018-11-26T02:40:04Z</time>
      </trkpt>
      <trkpt lat="42.10282" lon="2.29598">
        <ele>1189.9</ele>
        <time>2018-11-26T02:40:05Z</time>
      </trkpt>
      <trkpt lat="42.10281" lon="2.29596">
        <ele>1190.5</ele>
        <time>2018-11-26T02:40:06Z</time>
      </trkpt>
      <trkpt lat="42.10279" lon="2.29595">
        <ele>1191.2</ele>
        <time>2018-11-26T02:40:07Z</time>
      </trkpt>
      <trkpt lat="42.10277" lon="2.29594">
        <ele>1192</ele>
        <time>2018-11-26T02:40:07Z</time>
      </trkpt>
      <trkpt lat="42.10276" lon="2.29592">
        <ele>1192</ele>
        <time>2018-11-26T02:40:08Z</time>
      </trkpt>
      <trkpt lat="42.10275" lon="2.29589">
        <ele>1192</ele>
        <time>2018-11-26T02:40:09Z</time>
      </trkpt>
      <trkpt lat="42.10273" lon="2.29587">
        <ele>1193</ele>
        <time>2018-11-26T02:40:10Z</time>
      </trkpt>
      <trkpt lat="42.10272" lon="2.29585">
        <ele>1194.8</ele>
        <time>2018-11-26T02:40:11Z</time>
      </trkpt>
      <trkpt lat="42.10272" lon="2.29583">
        <ele>1195.8</ele>
        <time>2018-11-26T02:40:12Z</time>
      </trkpt>
      <trkpt lat="42.10271" lon="2.2958">
        <ele>1197.5</ele>
        <time>2018-11-26T02:40:12Z</time>
      </trkpt>
      <trkpt lat="42.1027" lon="2.29578">
        <ele>1198.2</ele>
        <time>2018-11-26T02:40:13Z</time>
      </trkpt>
      <trkpt lat="42.10268" lon="2.29577">
        <ele>1199.2</ele>
        <time>2018-11-26T02:40:14Z</time>
      </trkpt>
      <trkpt lat="42.10266" lon="2.29574">
        <ele>1200</ele>
        <time>2018-11-26T02:40:15Z</time>
      </trkpt>
      <trkpt lat="42.10266" lon="2.29572">
        <ele>1200.9</ele>
        <time>2018-11-26T02:40:16Z</time>
      </trkpt>
      <trkpt lat="42.10266" lon="2.29569">
        <ele>1201.5</ele>
        <time>2018-11-26T02:40:17Z</time>
      </trkpt>
      <trkpt lat="42.10265" lon="2.29566">
        <ele>1202.1</ele>
        <time>2018-11-26T02:40:18Z</time>
      </trkpt>
      <trkpt lat="42.10266" lon="2.29564">
        <ele>1202.9</ele>
        <time>2018-11-26T02:40:18Z</time>
      </trkpt>
      <trkpt lat="42.10266" lon="2.29561">
        <ele>1204.9</ele>
        <time>2018-11-26T02:40:19Z</time>
      </trkpt>
      <trkpt lat="42.10265" lon="2.29559">
        <ele>1205.4</ele>
        <time>2018-11-26T02:40:20Z</time>
      </trkpt>
      <trkpt lat="42.10265" lon="2.29556">
        <ele>1206.5</ele>
        <time>2018-11-26T02:40:21Z</time>
      </trkpt>
      <trkpt lat="42.10264" lon="2.29554">
        <ele>1207.1</ele>
        <time>2018-11-26T02:40:22Z</time>
      </trkpt>
      <trkpt lat="42.10264" lon="2.29551">
        <ele>1208.6</ele>
        <time>2018-11-26T02:40:22Z</time>
      </trkpt>
      <trkpt lat="42.10264" lon="2.29548">
        <ele>1209.2</ele>
        <time>2018-11-26T02:40:23Z</time>
      </trkpt>
      <trkpt lat="42.10264" lon="2.29545">
        <ele>1209.9</ele>
        <time>2018-11-26T02:40:24Z</time>
      </trkpt>
      <trkpt lat="42.10262" lon="2.29544">
        <ele>1210.8</ele>
        <time>2018-11-26T02:40:25Z</time>
      </trkpt>
      <trkpt lat="42.10261" lon="2.29541">
        <ele>1211.8</ele>
        <time>2018-11-26T02:40:26Z</time>
      </trkpt>
      <trkpt lat="42.1026" lon="2.29539">
        <ele>1212.4</ele>
        <time>2018-11-26T02:40:27Z</time>
      </trkpt>
      <trkpt lat="42.1026" lon="2.29535">
        <ele>1212.6</ele>
        <time>2018-11-26T02:40:28Z</time>
      </trkpt>
      <trkpt lat="42.10259" lon="2.29532">
        <ele>1211.4</ele>
        <time>2018-11-26T02:40:29Z</time>
      </trkpt>
      <trkpt lat="42.10251" lon="2.29525">
        <ele>1211.1</ele>
        <time>2018-11-26T02:40:33Z</time>
      </trkpt>
      <trkpt lat="42.10243" lon="2.29519">
        <ele>1213.4</ele>
        <time>2018-11-26T02:40:36Z</time>
      </trkpt>
      <trkpt lat="42.10237" lon="2.2951">
        <ele>1215</ele>
        <time>2018-11-26T02:40:40Z</time>
      </trkpt>
      <trkpt lat="42.10231" lon="2.29501">
        <ele>1216</ele>
        <time>2018-11-26T02:40:44Z</time>
      </trkpt>
      <trkpt lat="42.10225" lon="2.29491">
        <ele>1217.6</ele>
        <time>2018-11-26T02:40:47Z</time>
      </trkpt>
      <trkpt lat="42.10219" lon="2.29482">
        <ele>1218.9</ele>
        <time>2018-11-26T02:40:51Z</time>
      </trkpt>
      <trkpt lat="42.10211" lon="2.29474">
        <ele>1219.5</ele>
        <time>2018-11-26T02:40:55Z</time>
      </trkpt>
      <trkpt lat="42.10209" lon="2.29462">
        <ele>1221.6</ele>
        <time>2018-11-26T02:40:59Z</time>
      </trkpt>
      <trkpt lat="42.10205" lon="2.2945">
        <ele>1222.8</ele>
        <time>2018-11-26T02:41:03Z</time>
      </trkpt>
      <trkpt lat="42.10198" lon="2.29441">
        <ele>1225.2</ele>
        <time>2018-11-26T02:41:06Z</time>
      </trkpt>
      <trkpt lat="42.10189" lon="2.29435">
        <ele>1227.9</ele>
        <time>2018-11-26T02:41:10Z</time>
      </trkpt>
      <trkpt lat="42.10188" lon="2.29433">
        <ele>1230.6</ele>
        <time>2018-11-26T02:41:11Z</time>
      </trkpt>
      <trkpt lat="42.10186" lon="2.29431">
        <ele>1231.1</ele>
        <time>2018-11-26T02:41:12Z</time>
      </trkpt>
      <trkpt lat="42.10184" lon="2.2943">
        <ele>1231.8</ele>
        <time>2018-11-26T02:41:13Z</time>
      </trkpt>
      <trkpt lat="42.10182" lon="2.29427">
        <ele>1232.1</ele>
        <time>2018-11-26T02:41:14Z</time>
      </trkpt>
      <trkpt lat="42.1018" lon="2.29426">
        <ele>1232</ele>
        <time>2018-11-26T02:41:15Z</time>
      </trkpt>
      <trkpt lat="42.10178" lon="2.29425">
        <ele>1232</ele>
        <time>2018-11-26T02:41:16Z</time>
      </trkpt>
      <trkpt lat="42.10176" lon="2.29424">
        <ele>1231</ele>
        <time>2018-11-26T02:41:17Z</time>
      </trkpt>
      <trkpt lat="42.10175" lon="2.29421">
        <ele>1231.2</ele>
        <time>2018-11-26T02:41:18Z</time>
      </trkpt>
      <trkpt lat="42.10175" lon="2.29418">
        <ele>1231.5</ele>
        <time>2018-11-26T02:41:18Z</time>
      </trkpt>
      <trkpt lat="42.10175" lon="2.29415">
        <ele>1231.5</ele>
        <time>2018-11-26T02:41:19Z</time>
      </trkpt>
      <trkpt lat="42.10175" lon="2.29413">
        <ele>1231.4</ele>
        <time>2018-11-26T02:41:20Z</time>
      </trkpt>
      <trkpt lat="42.10174" lon="2.29415">
        <ele>1233.2</ele>
        <time>2018-11-26T02:41:21Z</time>
      </trkpt>
      <trkpt lat="42.10174" lon="2.29413">
        <ele>1234.6</ele>
        <time>2018-11-26T02:41:21Z</time>
      </trkpt>
      <trkpt lat="42.10175" lon="2.29415">
        <ele>1235.6</ele>
        <time>2018-11-26T02:41:22Z</time>
      </trkpt>
      <trkpt lat="42.10177" lon="2.29414">
        <ele>1237.4</ele>
        <time>2018-11-26T02:41:23Z</time>
      </trkpt>
      <trkpt lat="42.10175" lon="2.29413">
        <ele>1238.8</ele>
        <time>2018-11-26T02:41:24Z</time>
      </trkpt>
      <trkpt lat="42.10177" lon="2.29414">
        <ele>1239</ele>
        <time>2018-11-26T02:41:24Z</time>
      </trkpt>
      <trkpt lat="42.10175" lon="2.29417">
        <ele>1239.1</ele>
        <time>2018-11-26T02:41:25Z</time>
      </trkpt>
      <trkpt lat="42.10174" lon="2.29415">
        <ele>1239.1</ele>
        <time>2018-11-26T02:41:26Z</time>
      </trkpt>
      <trkpt lat="42.10175" lon="2.29413">
        <ele>1239</ele>
        <time>2018-11-26T02:41:27Z</time>
      </trkpt>
      <trkpt lat="42.10173" lon="2.29413">
        <ele>1238.8</ele>
        <time>2018-11-26T02:41:28Z</time>
      </trkpt>
      <trkpt lat="42.10172" lon="2.29411">
        <ele>1238.8</ele>
        <time>2018-11-26T02:41:29Z</time>
      </trkpt>
      <trkpt lat="42.10171" lon="2.29409">
        <ele>1238.8</ele>
        <time>2018-11-26T02:41:29Z</time>
      </trkpt>
      <trkpt lat="42.1017" lon="2.29406">
        <ele>1238.8</ele>
        <time>2018-11-26T02:41:30Z</time>
      </trkpt>
      <trkpt lat="42.10171" lon="2.29404">
        <ele>1238.8</ele>
        <time>2018-11-26T02:41:31Z</time>
      </trkpt>
      <trkpt lat="42.10173" lon="2.29399">
        <ele>1238.9</ele>
        <time>2018-11-26T02:41:32Z</time>
      </trkpt>
      <trkpt lat="42.10173" lon="2.29396">
        <ele>1238.8</ele>
        <time>2018-11-26T02:41:33Z</time>
      </trkpt>
      <trkpt lat="42.10173" lon="2.29392">
        <ele>1238.8</ele>
        <time>2018-11-26T02:41:35Z</time>
      </trkpt>
      <trkpt lat="42.10173" lon="2.29388">
        <ele>1238.9</ele>
        <time>2018-11-26T02:41:36Z</time>
      </trkpt>
      <trkpt lat="42.10174" lon="2.29383">
        <ele>1238.8</ele>
        <time>2018-11-26T02:41:37Z</time>
      </trkpt>
      <trkpt lat="42.10174" lon="2.2937">
        <ele>1238.9</ele>
        <time>2018-11-26T02:41:41Z</time>
      </trkpt>
      <trkpt lat="42.10172" lon="2.29358">
        <ele>1238.8</ele>
        <time>2018-11-26T02:41:45Z</time>
      </trkpt>
      <trkpt lat="42.10171" lon="2.29355">
        <ele>1234.5</ele>
        <time>2018-11-26T02:41:46Z</time>
      </trkpt>
      <trkpt lat="42.10169" lon="2.29343">
        <ele>1232.2</ele>
        <time>2018-11-26T02:41:49Z</time>
      </trkpt>
      <trkpt lat="42.10164" lon="2.29331">
        <ele>1231.6</ele>
        <time>2018-11-26T02:41:54Z</time>
      </trkpt>
      <trkpt lat="42.10159" lon="2.29321">
        <ele>1230.5</ele>
        <time>2018-11-26T02:41:57Z</time>
      </trkpt>
      <trkpt lat="42.10155" lon="2.29315">
        <ele>1229.9</ele>
        <time>2018-11-26T02:42:00Z</time>
      </trkpt>
      <trkpt lat="42.10153" lon="2.29315">
        <ele>1229.8</ele>
        <time>2018-11-26T02:42:00Z</time>
      </trkpt>
      <trkpt lat="42.10151" lon="2.29312">
        <ele>1228.8</ele>
        <time>2018-11-26T02:42:02Z</time>
      </trkpt>
      <trkpt lat="42.10149" lon="2.29309">
        <ele>1228.4</ele>
        <time>2018-11-26T02:42:03Z</time>
      </trkpt>
      <trkpt lat="42.10142" lon="2.29301">
        <ele>1226.5</ele>
        <time>2018-11-26T02:42:06Z</time>
      </trkpt>
      <trkpt lat="42.1014" lon="2.29293">
        <ele>1226</ele>
        <time>2018-11-26T02:42:09Z</time>
      </trkpt>
      <trkpt lat="42.10139" lon="2.29287">
        <ele>1225.1</ele>
        <time>2018-11-26T02:42:11Z</time>
      </trkpt>
      <trkpt lat="42.10139" lon="2.29282">
        <ele>1224.8</ele>
        <time>2018-11-26T02:42:12Z</time>
      </trkpt>
      <trkpt lat="42.10141" lon="2.29275">
        <ele>1224.4</ele>
        <time>2018-11-26T02:42:14Z</time>
      </trkpt>
      <trkpt lat="42.10141" lon="2.29272">
        <ele>1224.8</ele>
        <time>2018-11-26T02:42:15Z</time>
      </trkpt>
      <trkpt lat="42.10141" lon="2.29269">
        <ele>1225.4</ele>
        <time>2018-11-26T02:42:16Z</time>
      </trkpt>
      <trkpt lat="42.10141" lon="2.29265">
        <ele>1225.6</ele>
        <time>2018-11-26T02:42:17Z</time>
      </trkpt>
      <trkpt lat="42.10141" lon="2.2926">
        <ele>1226.4</ele>
        <time>2018-11-26T02:42:19Z</time>
      </trkpt>
      <trkpt lat="42.10141" lon="2.29256">
        <ele>1226.5</ele>
        <time>2018-11-26T02:42:20Z</time>
      </trkpt>
      <trkpt lat="42.10141" lon="2.29253">
        <ele>1226.1</ele>
        <time>2018-11-26T02:42:21Z</time>
      </trkpt>
      <trkpt lat="42.1014" lon="2.2925">
        <ele>1226.1</ele>
        <time>2018-11-26T02:42:22Z</time>
      </trkpt>
      <trkpt lat="42.10137" lon="2.29246">
        <ele>1226</ele>
        <time>2018-11-26T02:42:24Z</time>
      </trkpt>
      <trkpt lat="42.10135" lon="2.29243">
        <ele>1225.6</ele>
        <time>2018-11-26T02:42:25Z</time>
      </trkpt>
      <trkpt lat="42.10134" lon="2.2924">
        <ele>1225.1</ele>
        <time>2018-11-26T02:42:26Z</time>
      </trkpt>
      <trkpt lat="42.10132" lon="2.29237">
        <ele>1225.1</ele>
        <time>2018-11-26T02:42:27Z</time>
      </trkpt>
      <trkpt lat="42.10131" lon="2.29235">
        <ele>1225.2</ele>
        <time>2018-11-26T02:42:28Z</time>
      </trkpt>
      <trkpt lat="42.1013" lon="2.29233">
        <ele>1225.1</ele>
        <time>2018-11-26T02:42:29Z</time>
      </trkpt>
      <trkpt lat="42.10129" lon="2.2923">
        <ele>1224.9</ele>
        <time>2018-11-26T02:42:30Z</time>
      </trkpt>
      <trkpt lat="42.10126" lon="2.29228">
        <ele>1224.8</ele>
        <time>2018-11-26T02:42:31Z</time>
      </trkpt>
      <trkpt lat="42.10126" lon="2.29225">
        <ele>1224.9</ele>
        <time>2018-11-26T02:42:32Z</time>
      </trkpt>
      <trkpt lat="42.10126" lon="2.29221">
        <ele>1224.4</ele>
        <time>2018-11-26T02:42:33Z</time>
      </trkpt>
      <trkpt lat="42.10127" lon="2.29217">
        <ele>1224.4</ele>
        <time>2018-11-26T02:42:34Z</time>
      </trkpt>
      <trkpt lat="42.10125" lon="2.29213">
        <ele>1223.5</ele>
        <time>2018-11-26T02:42:36Z</time>
      </trkpt>
      <trkpt lat="42.10123" lon="2.2921">
        <ele>1223.4</ele>
        <time>2018-11-26T02:42:37Z</time>
      </trkpt>
      <trkpt lat="42.10121" lon="2.29209">
        <ele>1223.5</ele>
        <time>2018-11-26T02:42:38Z</time>
      </trkpt>
      <trkpt lat="42.10119" lon="2.29208">
        <ele>1223.8</ele>
        <time>2018-11-26T02:42:38Z</time>
      </trkpt>
      <trkpt lat="42.10117" lon="2.29206">
        <ele>1223.4</ele>
        <time>2018-11-26T02:42:39Z</time>
      </trkpt>
      <trkpt lat="42.10117" lon="2.29204">
        <ele>1223.4</ele>
        <time>2018-11-26T02:42:40Z</time>
      </trkpt>
      <trkpt lat="42.10117" lon="2.292">
        <ele>1223</ele>
        <time>2018-11-26T02:42:41Z</time>
      </trkpt>
      <trkpt lat="42.10117" lon="2.29196">
        <ele>1222.5</ele>
        <time>2018-11-26T02:42:42Z</time>
      </trkpt>
      <trkpt lat="42.10118" lon="2.29192">
        <ele>1221.6</ele>
        <time>2018-11-26T02:42:44Z</time>
      </trkpt>
      <trkpt lat="42.10118" lon="2.29189">
        <ele>1221.6</ele>
        <time>2018-11-26T02:42:45Z</time>
      </trkpt>
      <trkpt lat="42.10117" lon="2.29185">
        <ele>1221</ele>
        <time>2018-11-26T02:42:46Z</time>
      </trkpt>
      <trkpt lat="42.10116" lon="2.29182">
        <ele>1221</ele>
        <time>2018-11-26T02:42:47Z</time>
      </trkpt>
      <trkpt lat="42.10115" lon="2.29179">
        <ele>1220.5</ele>
        <time>2018-11-26T02:42:48Z</time>
      </trkpt>
      <trkpt lat="42.10113" lon="2.29175">
        <ele>1220.5</ele>
        <time>2018-11-26T02:42:49Z</time>
      </trkpt>
      <trkpt lat="42.10112" lon="2.29171">
        <ele>1219.5</ele>
        <time>2018-11-26T02:42:50Z</time>
      </trkpt>
      <trkpt lat="42.10111" lon="2.29168">
        <ele>1218.5</ele>
        <time>2018-11-26T02:42:52Z</time>
      </trkpt>
      <trkpt lat="42.1011" lon="2.29165">
        <ele>1218.5</ele>
        <time>2018-11-26T02:42:52Z</time>
      </trkpt>
      <trkpt lat="42.1011" lon="2.29162">
        <ele>1218.4</ele>
        <time>2018-11-26T02:42:53Z</time>
      </trkpt>
      <trkpt lat="42.1011" lon="2.2916">
        <ele>1217.5</ele>
        <time>2018-11-26T02:42:54Z</time>
      </trkpt>
      <trkpt lat="42.1011" lon="2.29157">
        <ele>1216.9</ele>
        <time>2018-11-26T02:42:55Z</time>
      </trkpt>
      <trkpt lat="42.10109" lon="2.29155">
        <ele>1216.6</ele>
        <time>2018-11-26T02:42:55Z</time>
      </trkpt>
      <trkpt lat="42.10108" lon="2.29153">
        <ele>1216.4</ele>
        <time>2018-11-26T02:42:56Z</time>
      </trkpt>
      <trkpt lat="42.10106" lon="2.2915">
        <ele>1215.9</ele>
        <time>2018-11-26T02:42:57Z</time>
      </trkpt>
      <trkpt lat="42.10106" lon="2.29147">
        <ele>1215.8</ele>
        <time>2018-11-26T02:42:58Z</time>
      </trkpt>
      <trkpt lat="42.10107" lon="2.29144">
        <ele>1214.9</ele>
        <time>2018-11-26T02:42:59Z</time>
      </trkpt>
      <trkpt lat="42.10105" lon="2.29142">
        <ele>1215.8</ele>
        <time>2018-11-26T02:43:00Z</time>
      </trkpt>
      <trkpt lat="42.10106" lon="2.2914">
        <ele>1219.2</ele>
        <time>2018-11-26T02:43:01Z</time>
      </trkpt>
      <trkpt lat="42.10106" lon="2.29137">
        <ele>1218.8</ele>
        <time>2018-11-26T02:43:01Z</time>
      </trkpt>
      <trkpt lat="42.10105" lon="2.29135">
        <ele>1219.6</ele>
        <time>2018-11-26T02:43:02Z</time>
      </trkpt>
      <trkpt lat="42.10104" lon="2.29131">
        <ele>1220.1</ele>
        <time>2018-11-26T02:43:03Z</time>
      </trkpt>
      <trkpt lat="42.10104" lon="2.29127">
        <ele>1220</ele>
        <time>2018-11-26T02:43:04Z</time>
      </trkpt>
      <trkpt lat="42.10103" lon="2.29124">
        <ele>1220</ele>
        <time>2018-11-26T02:43:05Z</time>
      </trkpt>
      <trkpt lat="42.10102" lon="2.29121">
        <ele>1219.9</ele>
        <time>2018-11-26T02:43:06Z</time>
      </trkpt>
      <trkpt lat="42.10102" lon="2.29118">
        <ele>1219.4</ele>
        <time>2018-11-26T02:43:07Z</time>
      </trkpt>
      <trkpt lat="42.10101" lon="2.29115">
        <ele>1219.4</ele>
        <time>2018-11-26T02:43:08Z</time>
      </trkpt>
      <trkpt lat="42.10099" lon="2.29111">
        <ele>1219.1</ele>
        <time>2018-11-26T02:43:10Z</time>
      </trkpt>
      <trkpt lat="42.10099" lon="2.29109">
        <ele>1218.8</ele>
        <time>2018-11-26T02:43:10Z</time>
      </trkpt>
      <trkpt lat="42.10098" lon="2.29105">
        <ele>1218.2</ele>
        <time>2018-11-26T02:43:11Z</time>
      </trkpt>
      <trkpt lat="42.10098" lon="2.29103">
        <ele>1218.2</ele>
        <time>2018-11-26T02:43:12Z</time>
      </trkpt>
      <trkpt lat="42.10097" lon="2.291">
        <ele>1218.5</ele>
        <time>2018-11-26T02:43:13Z</time>
      </trkpt>
      <trkpt lat="42.10097" lon="2.29098">
        <ele>1218.7</ele>
        <time>2018-11-26T02:43:14Z</time>
      </trkpt>
      <trkpt lat="42.10097" lon="2.29095">
        <ele>1218.8</ele>
        <time>2018-11-26T02:43:15Z</time>
      </trkpt>
      <trkpt lat="42.10097" lon="2.29091">
        <ele>1217.5</ele>
        <time>2018-11-26T02:43:16Z</time>
      </trkpt>
      <trkpt lat="42.10097" lon="2.29088">
        <ele>1216.8</ele>
        <time>2018-11-26T02:43:16Z</time>
      </trkpt>
      <trkpt lat="42.10097" lon="2.29085">
        <ele>1215.8</ele>
        <time>2018-11-26T02:43:18Z</time>
      </trkpt>
      <trkpt lat="42.10096" lon="2.29081">
        <ele>1215.5</ele>
        <time>2018-11-26T02:43:19Z</time>
      </trkpt>
      <trkpt lat="42.10096" lon="2.29078">
        <ele>1215</ele>
        <time>2018-11-26T02:43:20Z</time>
      </trkpt>
      <trkpt lat="42.10095" lon="2.29075">
        <ele>1215</ele>
        <time>2018-11-26T02:43:21Z</time>
      </trkpt>
      <trkpt lat="42.10093" lon="2.29071">
        <ele>1215</ele>
        <time>2018-11-26T02:43:22Z</time>
      </trkpt>
      <trkpt lat="42.10092" lon="2.29067">
        <ele>1214.6</ele>
        <time>2018-11-26T02:43:23Z</time>
      </trkpt>
      <trkpt lat="42.10092" lon="2.29065">
        <ele>1214.5</ele>
        <time>2018-11-26T02:43:24Z</time>
      </trkpt>
      <trkpt lat="42.10091" lon="2.29062">
        <ele>1214.6</ele>
        <time>2018-11-26T02:43:25Z</time>
      </trkpt>
      <trkpt lat="42.10089" lon="2.29059">
        <ele>1214.4</ele>
        <time>2018-11-26T02:43:26Z</time>
      </trkpt>
      <trkpt lat="42.10087" lon="2.29058">
        <ele>1214.5</ele>
        <time>2018-11-26T02:43:27Z</time>
      </trkpt>
      <trkpt lat="42.10087" lon="2.29056">
        <ele>1214.2</ele>
        <time>2018-11-26T02:43:28Z</time>
      </trkpt>
      <trkpt lat="42.10086" lon="2.29052">
        <ele>1213.9</ele>
        <time>2018-11-26T02:43:29Z</time>
      </trkpt>
      <trkpt lat="42.10085" lon="2.29049">
        <ele>1213.4</ele>
        <time>2018-11-26T02:43:30Z</time>
      </trkpt>
      <trkpt lat="42.10084" lon="2.29046">
        <ele>1213.5</ele>
        <time>2018-11-26T02:43:31Z</time>
      </trkpt>
      <trkpt lat="42.10082" lon="2.29045">
        <ele>1213.4</ele>
        <time>2018-11-26T02:43:31Z</time>
      </trkpt>
      <trkpt lat="42.10081" lon="2.29042">
        <ele>1213.4</ele>
        <time>2018-11-26T02:43:32Z</time>
      </trkpt>
      <trkpt lat="42.10079" lon="2.29039">
        <ele>1213</ele>
        <time>2018-11-26T02:43:34Z</time>
      </trkpt>
      <trkpt lat="42.10077" lon="2.29037">
        <ele>1212</ele>
        <time>2018-11-26T02:43:34Z</time>
      </trkpt>
      <trkpt lat="42.10075" lon="2.29038">
        <ele>1211.8</ele>
        <time>2018-11-26T02:43:35Z</time>
      </trkpt>
      <trkpt lat="42.10072" lon="2.29037">
        <ele>1211.5</ele>
        <time>2018-11-26T02:43:36Z</time>
      </trkpt>
      <trkpt lat="42.10071" lon="2.29035">
        <ele>1211</ele>
        <time>2018-11-26T02:43:37Z</time>
      </trkpt>
      <trkpt lat="42.1007" lon="2.29032">
        <ele>1209.2</ele>
        <time>2018-11-26T02:43:38Z</time>
      </trkpt>
      <trkpt lat="42.1007" lon="2.29029">
        <ele>1208.9</ele>
        <time>2018-11-26T02:43:39Z</time>
      </trkpt>
      <trkpt lat="42.10071" lon="2.29025">
        <ele>1208.4</ele>
        <time>2018-11-26T02:43:40Z</time>
      </trkpt>
      <trkpt lat="42.1007" lon="2.29022">
        <ele>1207.9</ele>
        <time>2018-11-26T02:43:41Z</time>
      </trkpt>
      <trkpt lat="42.10069" lon="2.29019">
        <ele>1207.6</ele>
        <time>2018-11-26T02:43:42Z</time>
      </trkpt>
      <trkpt lat="42.10068" lon="2.29017">
        <ele>1207.8</ele>
        <time>2018-11-26T02:43:43Z</time>
      </trkpt>
      <trkpt lat="42.10066" lon="2.29014">
        <ele>1208.4</ele>
        <time>2018-11-26T02:43:44Z</time>
      </trkpt>
      <trkpt lat="42.10065" lon="2.29012">
        <ele>1209.1</ele>
        <time>2018-11-26T02:43:45Z</time>
      </trkpt>
      <trkpt lat="42.10066" lon="2.29009">
        <ele>1208.2</ele>
        <time>2018-11-26T02:43:46Z</time>
      </trkpt>
      <trkpt lat="42.10068" lon="2.29008">
        <ele>1209.4</ele>
        <time>2018-11-26T02:43:47Z</time>
      </trkpt>
      <trkpt lat="42.10068" lon="2.29005">
        <ele>1211.5</ele>
        <time>2018-11-26T02:43:47Z</time>
      </trkpt>
      <trkpt lat="42.10068" lon="2.29002">
        <ele>1211.2</ele>
        <time>2018-11-26T02:43:48Z</time>
      </trkpt>
      <trkpt lat="42.10067" lon="2.29">
        <ele>1210.6</ele>
        <time>2018-11-26T02:43:49Z</time>
      </trkpt>
      <trkpt lat="42.10067" lon="2.28997">
        <ele>1208.4</ele>
        <time>2018-11-26T02:43:50Z</time>
      </trkpt>
      <trkpt lat="42.10066" lon="2.28994">
        <ele>1208.2</ele>
        <time>2018-11-26T02:43:51Z</time>
      </trkpt>
      <trkpt lat="42.10065" lon="2.28992">
        <ele>1207.1</ele>
        <time>2018-11-26T02:43:51Z</time>
      </trkpt>
      <trkpt lat="42.10065" lon="2.2899">
        <ele>1206.4</ele>
        <time>2018-11-26T02:43:52Z</time>
      </trkpt>
      <trkpt lat="42.10064" lon="2.28987">
        <ele>1206.5</ele>
        <time>2018-11-26T02:43:53Z</time>
      </trkpt>
      <trkpt lat="42.10063" lon="2.28985">
        <ele>1206</ele>
        <time>2018-11-26T02:43:54Z</time>
      </trkpt>
      <trkpt lat="42.10062" lon="2.28982">
        <ele>1206.4</ele>
        <time>2018-11-26T02:43:55Z</time>
      </trkpt>
      <trkpt lat="42.10062" lon="2.2898">
        <ele>1206.9</ele>
        <time>2018-11-26T02:43:55Z</time>
      </trkpt>
      <trkpt lat="42.10061" lon="2.28977">
        <ele>1207.1</ele>
        <time>2018-11-26T02:43:56Z</time>
      </trkpt>
      <trkpt lat="42.1006" lon="2.28974">
        <ele>1208.1</ele>
        <time>2018-11-26T02:43:57Z</time>
      </trkpt>
      <trkpt lat="42.1006" lon="2.28971">
        <ele>1208.2</ele>
        <time>2018-11-26T02:43:58Z</time>
      </trkpt>
      <trkpt lat="42.1006" lon="2.28969">
        <ele>1209.6</ele>
        <time>2018-11-26T02:43:59Z</time>
      </trkpt>
      <trkpt lat="42.10059" lon="2.28967">
        <ele>1211.5</ele>
        <time>2018-11-26T02:43:59Z</time>
      </trkpt>
      <trkpt lat="42.10057" lon="2.28965">
        <ele>1212</ele>
        <time>2018-11-26T02:44:00Z</time>
      </trkpt>
      <trkpt lat="42.10057" lon="2.28962">
        <ele>1211.5</ele>
        <time>2018-11-26T02:44:01Z</time>
      </trkpt>
      <trkpt lat="42.10057" lon="2.28959">
        <ele>1211.2</ele>
        <time>2018-11-26T02:44:02Z</time>
      </trkpt>
      <trkpt lat="42.10056" lon="2.28956">
        <ele>1211.1</ele>
        <time>2018-11-26T02:44:03Z</time>
      </trkpt>
      <trkpt lat="42.10056" lon="2.28953">
        <ele>1210.4</ele>
        <time>2018-11-26T02:44:04Z</time>
      </trkpt>
      <trkpt lat="42.10055" lon="2.28951">
        <ele>1209.5</ele>
        <time>2018-11-26T02:44:05Z</time>
      </trkpt>
      <trkpt lat="42.10055" lon="2.28947">
        <ele>1208.8</ele>
        <time>2018-11-26T02:44:06Z</time>
      </trkpt>
      <trkpt lat="42.10054" lon="2.28944">
        <ele>1208.5</ele>
        <time>2018-11-26T02:44:07Z</time>
      </trkpt>
      <trkpt lat="42.10053" lon="2.28941">
        <ele>1209.1</ele>
        <time>2018-11-26T02:44:08Z</time>
      </trkpt>
      <trkpt lat="42.10052" lon="2.28939">
        <ele>1209.1</ele>
        <time>2018-11-26T02:44:09Z</time>
      </trkpt>
      <trkpt lat="42.10051" lon="2.28936">
        <ele>1209.1</ele>
        <time>2018-11-26T02:44:10Z</time>
      </trkpt>
      <trkpt lat="42.1005" lon="2.28933">
        <ele>1208.6</ele>
        <time>2018-11-26T02:44:10Z</time>
      </trkpt>
      <trkpt lat="42.10049" lon="2.28931">
        <ele>1208.6</ele>
        <time>2018-11-26T02:44:11Z</time>
      </trkpt>
      <trkpt lat="42.10048" lon="2.28927">
        <ele>1208.6</ele>
        <time>2018-11-26T02:44:12Z</time>
      </trkpt>
      <trkpt lat="42.10046" lon="2.28925">
        <ele>1208.9</ele>
        <time>2018-11-26T02:44:13Z</time>
      </trkpt>
      <trkpt lat="42.10045" lon="2.28922">
        <ele>1208.6</ele>
        <time>2018-11-26T02:44:14Z</time>
      </trkpt>
      <trkpt lat="42.10045" lon="2.28919">
        <ele>1208.5</ele>
        <time>2018-11-26T02:44:15Z</time>
      </trkpt>
      <trkpt lat="42.10044" lon="2.28915">
        <ele>1208.5</ele>
        <time>2018-11-26T02:44:16Z</time>
      </trkpt>
      <trkpt lat="42.10043" lon="2.28912">
        <ele>1208.5</ele>
        <time>2018-11-26T02:44:17Z</time>
      </trkpt>
      <trkpt lat="42.10042" lon="2.2891">
        <ele>1208.1</ele>
        <time>2018-11-26T02:44:18Z</time>
      </trkpt>
      <trkpt lat="42.10041" lon="2.28907">
        <ele>1208.1</ele>
        <time>2018-11-26T02:44:19Z</time>
      </trkpt>
      <trkpt lat="42.10039" lon="2.28904">
        <ele>1208.1</ele>
        <time>2018-11-26T02:44:20Z</time>
      </trkpt>
      <trkpt lat="42.10038" lon="2.28903">
        <ele>1208.1</ele>
        <time>2018-11-26T02:44:21Z</time>
      </trkpt>
      <trkpt lat="42.10036" lon="2.28901">
        <ele>1208.1</ele>
        <time>2018-11-26T02:44:22Z</time>
      </trkpt>
      <trkpt lat="42.10034" lon="2.28899">
        <ele>1207.9</ele>
        <time>2018-11-26T02:44:23Z</time>
      </trkpt>
      <trkpt lat="42.10033" lon="2.28896">
        <ele>1207.8</ele>
        <time>2018-11-26T02:44:23Z</time>
      </trkpt>
      <trkpt lat="42.10032" lon="2.28894">
        <ele>1207.9</ele>
        <time>2018-11-26T02:44:24Z</time>
      </trkpt>
      <trkpt lat="42.10031" lon="2.28892">
        <ele>1207.8</ele>
        <time>2018-11-26T02:44:25Z</time>
      </trkpt>
      <trkpt lat="42.10029" lon="2.28889">
        <ele>1207.8</ele>
        <time>2018-11-26T02:44:26Z</time>
      </trkpt>
      <trkpt lat="42.10028" lon="2.28886">
        <ele>1207.8</ele>
        <time>2018-11-26T02:44:27Z</time>
      </trkpt>
      <trkpt lat="42.10026" lon="2.28883">
        <ele>1207.8</ele>
        <time>2018-11-26T02:44:28Z</time>
      </trkpt>
      <trkpt lat="42.10025" lon="2.28881">
        <ele>1207.9</ele>
        <time>2018-11-26T02:44:29Z</time>
      </trkpt>
      <trkpt lat="42.10025" lon="2.28878">
        <ele>1207.8</ele>
        <time>2018-11-26T02:44:30Z</time>
      </trkpt>
      <trkpt lat="42.10024" lon="2.28875">
        <ele>1207.9</ele>
        <time>2018-11-26T02:44:31Z</time>
      </trkpt>
      <trkpt lat="42.10023" lon="2.28873">
        <ele>1207.6</ele>
        <time>2018-11-26T02:44:32Z</time>
      </trkpt>
      <trkpt lat="42.10022" lon="2.2887">
        <ele>1203.1</ele>
        <time>2018-11-26T02:44:33Z</time>
      </trkpt>
      <trkpt lat="42.10021" lon="2.28868">
        <ele>1203.1</ele>
        <time>2018-11-26T02:44:33Z</time>
      </trkpt>
      <trkpt lat="42.10019" lon="2.28866">
        <ele>1203.1</ele>
        <time>2018-11-26T02:44:34Z</time>
      </trkpt>
      <trkpt lat="42.10019" lon="2.28863">
        <ele>1203.2</ele>
        <time>2018-11-26T02:44:35Z</time>
      </trkpt>
      <trkpt lat="42.10018" lon="2.28859">
        <ele>1203.2</ele>
        <time>2018-11-26T02:44:36Z</time>
      </trkpt>
      <trkpt lat="42.10017" lon="2.28857">
        <ele>1203.1</ele>
        <time>2018-11-26T02:44:37Z</time>
      </trkpt>
      <trkpt lat="42.10016" lon="2.28854">
        <ele>1203.1</ele>
        <time>2018-11-26T02:44:38Z</time>
      </trkpt>
      <trkpt lat="42.10016" lon="2.28851">
        <ele>1203.5</ele>
        <time>2018-11-26T02:44:39Z</time>
      </trkpt>
      <trkpt lat="42.10015" lon="2.28848">
        <ele>1203.6</ele>
        <time>2018-11-26T02:44:40Z</time>
      </trkpt>
      <trkpt lat="42.10014" lon="2.28845">
        <ele>1203.5</ele>
        <time>2018-11-26T02:44:41Z</time>
      </trkpt>
      <trkpt lat="42.10014" lon="2.28842">
        <ele>1203.5</ele>
        <time>2018-11-26T02:44:42Z</time>
      </trkpt>
      <trkpt lat="42.10014" lon="2.28839">
        <ele>1203.8</ele>
        <time>2018-11-26T02:44:43Z</time>
      </trkpt>
      <trkpt lat="42.10013" lon="2.28836">
        <ele>1203.8</ele>
        <time>2018-11-26T02:44:44Z</time>
      </trkpt>
      <trkpt lat="42.10013" lon="2.28833">
        <ele>1204.5</ele>
        <time>2018-11-26T02:44:45Z</time>
      </trkpt>
      <trkpt lat="42.10012" lon="2.2883">
        <ele>1205</ele>
        <time>2018-11-26T02:44:45Z</time>
      </trkpt>
      <trkpt lat="42.10012" lon="2.28828">
        <ele>1205.2</ele>
        <time>2018-11-26T02:44:46Z</time>
      </trkpt>
      <trkpt lat="42.10012" lon="2.28825">
        <ele>1205.5</ele>
        <time>2018-11-26T02:44:47Z</time>
      </trkpt>
      <trkpt lat="42.10011" lon="2.28822">
        <ele>1206.1</ele>
        <time>2018-11-26T02:44:48Z</time>
      </trkpt>
      <trkpt lat="42.1001" lon="2.28818">
        <ele>1206.4</ele>
        <time>2018-11-26T02:44:49Z</time>
      </trkpt>
      <trkpt lat="42.1001" lon="2.28815">
        <ele>1206.8</ele>
        <time>2018-11-26T02:44:50Z</time>
      </trkpt>
      <trkpt lat="42.10009" lon="2.28813">
        <ele>1207.5</ele>
        <time>2018-11-26T02:44:51Z</time>
      </trkpt>
      <trkpt lat="42.10007" lon="2.2881">
        <ele>1207.2</ele>
        <time>2018-11-26T02:44:52Z</time>
      </trkpt>
      <trkpt lat="42.10006" lon="2.28807">
        <ele>1207.2</ele>
        <time>2018-11-26T02:44:53Z</time>
      </trkpt>
      <trkpt lat="42.10005" lon="2.28804">
        <ele>1207.1</ele>
        <time>2018-11-26T02:44:54Z</time>
      </trkpt>
      <trkpt lat="42.10005" lon="2.28801">
        <ele>1207.5</ele>
        <time>2018-11-26T02:44:55Z</time>
      </trkpt>
      <trkpt lat="42.10004" lon="2.28797">
        <ele>1207.6</ele>
        <time>2018-11-26T02:44:56Z</time>
      </trkpt>
      <trkpt lat="42.10003" lon="2.28794">
        <ele>1207.8</ele>
        <time>2018-11-26T02:44:57Z</time>
      </trkpt>
      <trkpt lat="42.10002" lon="2.28792">
        <ele>1208.6</ele>
        <time>2018-11-26T02:44:58Z</time>
      </trkpt>
      <trkpt lat="42.10002" lon="2.28789">
        <ele>1209.2</ele>
        <time>2018-11-26T02:44:59Z</time>
      </trkpt>
      <trkpt lat="42.10002" lon="2.28786">
        <ele>1209.1</ele>
        <time>2018-11-26T02:45:00Z</time>
      </trkpt>
      <trkpt lat="42.10002" lon="2.28783">
        <ele>1209.8</ele>
        <time>2018-11-26T02:45:00Z</time>
      </trkpt>
      <trkpt lat="42.10002" lon="2.2878">
        <ele>1210.9</ele>
        <time>2018-11-26T02:45:01Z</time>
      </trkpt>
      <trkpt lat="42.10001" lon="2.28777">
        <ele>1211.2</ele>
        <time>2018-11-26T02:45:02Z</time>
      </trkpt>
      <trkpt lat="42.10001" lon="2.28774">
        <ele>1211.8</ele>
        <time>2018-11-26T02:45:03Z</time>
      </trkpt>
      <trkpt lat="42.1" lon="2.28771">
        <ele>1211.9</ele>
        <time>2018-11-26T02:45:04Z</time>
      </trkpt>
      <trkpt lat="42.1" lon="2.28768">
        <ele>1211.9</ele>
        <time>2018-11-26T02:45:05Z</time>
      </trkpt>
      <trkpt lat="42.1" lon="2.28766">
        <ele>1211.9</ele>
        <time>2018-11-26T02:45:06Z</time>
      </trkpt>
      <trkpt lat="42.09999" lon="2.28763">
        <ele>1211.9</ele>
        <time>2018-11-26T02:45:07Z</time>
      </trkpt>
      <trkpt lat="42.09998" lon="2.2876">
        <ele>1213.5</ele>
        <time>2018-11-26T02:45:07Z</time>
      </trkpt>
      <trkpt lat="42.09998" lon="2.28758">
        <ele>1213.2</ele>
        <time>2018-11-26T02:45:08Z</time>
      </trkpt>
      <trkpt lat="42.09998" lon="2.28755">
        <ele>1213.1</ele>
        <time>2018-11-26T02:45:09Z</time>
      </trkpt>
      <trkpt lat="42.09997" lon="2.28751">
        <ele>1213</ele>
        <time>2018-11-26T02:45:10Z</time>
      </trkpt>
      <trkpt lat="42.09996" lon="2.28748">
        <ele>1212.4</ele>
        <time>2018-11-26T02:45:11Z</time>
      </trkpt>
      <trkpt lat="42.09995" lon="2.28745">
        <ele>1212.5</ele>
        <time>2018-11-26T02:45:12Z</time>
      </trkpt>
      <trkpt lat="42.09993" lon="2.28743">
        <ele>1212.4</ele>
        <time>2018-11-26T02:45:13Z</time>
      </trkpt>
      <trkpt lat="42.09991" lon="2.28741">
        <ele>1212.4</ele>
        <time>2018-11-26T02:45:14Z</time>
      </trkpt>
      <trkpt lat="42.0999" lon="2.28738">
        <ele>1212.2</ele>
        <time>2018-11-26T02:45:15Z</time>
      </trkpt>
      <trkpt lat="42.09989" lon="2.28736">
        <ele>1212.4</ele>
        <time>2018-11-26T02:45:16Z</time>
      </trkpt>
      <trkpt lat="42.09987" lon="2.28734">
        <ele>1212.5</ele>
        <time>2018-11-26T02:45:16Z</time>
      </trkpt>
      <trkpt lat="42.09986" lon="2.28732">
        <ele>1212.5</ele>
        <time>2018-11-26T02:45:17Z</time>
      </trkpt>
      <trkpt lat="42.09985" lon="2.2873">
        <ele>1212.8</ele>
        <time>2018-11-26T02:45:18Z</time>
      </trkpt>
      <trkpt lat="42.09984" lon="2.28727">
        <ele>1213.6</ele>
        <time>2018-11-26T02:45:19Z</time>
      </trkpt>
      <trkpt lat="42.09983" lon="2.28726">
        <ele>1213.8</ele>
        <time>2018-11-26T02:45:20Z</time>
      </trkpt>
      <trkpt lat="42.09982" lon="2.28723">
        <ele>1214</ele>
        <time>2018-11-26T02:45:20Z</time>
      </trkpt>
      <trkpt lat="42.0998" lon="2.28721">
        <ele>1214</ele>
        <time>2018-11-26T02:45:21Z</time>
      </trkpt>
      <trkpt lat="42.09979" lon="2.28719">
        <ele>1214.1</ele>
        <time>2018-11-26T02:45:22Z</time>
      </trkpt>
      <trkpt lat="42.09978" lon="2.28717">
        <ele>1214.1</ele>
        <time>2018-11-26T02:45:23Z</time>
      </trkpt>
      <trkpt lat="42.09977" lon="2.28714">
        <ele>1213.6</ele>
        <time>2018-11-26T02:45:24Z</time>
      </trkpt>
      <trkpt lat="42.09977" lon="2.28711">
        <ele>1213.4</ele>
        <time>2018-11-26T02:45:25Z</time>
      </trkpt>
      <trkpt lat="42.09976" lon="2.28708">
        <ele>1213.5</ele>
        <time>2018-11-26T02:45:26Z</time>
      </trkpt>
      <trkpt lat="42.09974" lon="2.28705">
        <ele>1212.8</ele>
        <time>2018-11-26T02:45:27Z</time>
      </trkpt>
      <trkpt lat="42.09973" lon="2.28702">
        <ele>1212.5</ele>
        <time>2018-11-26T02:45:28Z</time>
      </trkpt>
      <trkpt lat="42.09972" lon="2.28699">
        <ele>1212.4</ele>
        <time>2018-11-26T02:45:29Z</time>
      </trkpt>
      <trkpt lat="42.09971" lon="2.28695">
        <ele>1211.9</ele>
        <time>2018-11-26T02:45:30Z</time>
      </trkpt>
      <trkpt lat="42.09971" lon="2.28692">
        <ele>1211.2</ele>
        <time>2018-11-26T02:45:31Z</time>
      </trkpt>
      <trkpt lat="42.09971" lon="2.2869">
        <ele>1211</ele>
        <time>2018-11-26T02:45:32Z</time>
      </trkpt>
      <trkpt lat="42.09971" lon="2.28686">
        <ele>1210.1</ele>
        <time>2018-11-26T02:45:33Z</time>
      </trkpt>
      <trkpt lat="42.0997" lon="2.28683">
        <ele>1210.1</ele>
        <time>2018-11-26T02:45:34Z</time>
      </trkpt>
      <trkpt lat="42.09969" lon="2.2868">
        <ele>1210</ele>
        <time>2018-11-26T02:45:35Z</time>
      </trkpt>
      <trkpt lat="42.09968" lon="2.28676">
        <ele>1210.1</ele>
        <time>2018-11-26T02:45:36Z</time>
      </trkpt>
      <trkpt lat="42.09967" lon="2.28673">
        <ele>1209.4</ele>
        <time>2018-11-26T02:45:37Z</time>
      </trkpt>
      <trkpt lat="42.09966" lon="2.2867">
        <ele>1209.4</ele>
        <time>2018-11-26T02:45:38Z</time>
      </trkpt>
      <trkpt lat="42.09965" lon="2.28669">
        <ele>1209.2</ele>
        <time>2018-11-26T02:45:39Z</time>
      </trkpt>
      <trkpt lat="42.09964" lon="2.28666">
        <ele>1209</ele>
        <time>2018-11-26T02:45:40Z</time>
      </trkpt>
      <trkpt lat="42.09962" lon="2.28664">
        <ele>1208.8</ele>
        <time>2018-11-26T02:45:40Z</time>
      </trkpt>
      <trkpt lat="42.09961" lon="2.28661">
        <ele>1208.5</ele>
        <time>2018-11-26T02:45:41Z</time>
      </trkpt>
      <trkpt lat="42.0996" lon="2.28659">
        <ele>1207.4</ele>
        <time>2018-11-26T02:45:42Z</time>
      </trkpt>
      <trkpt lat="42.09958" lon="2.28655">
        <ele>1207.4</ele>
        <time>2018-11-26T02:45:43Z</time>
      </trkpt>
      <trkpt lat="42.09957" lon="2.28653">
        <ele>1207.4</ele>
        <time>2018-11-26T02:45:44Z</time>
      </trkpt>
      <trkpt lat="42.09956" lon="2.2865">
        <ele>1207</ele>
        <time>2018-11-26T02:45:45Z</time>
      </trkpt>
      <trkpt lat="42.09955" lon="2.28647">
        <ele>1206.8</ele>
        <time>2018-11-26T02:45:46Z</time>
      </trkpt>
      <trkpt lat="42.09954" lon="2.28643">
        <ele>1206.6</ele>
        <time>2018-11-26T02:45:47Z</time>
      </trkpt>
      <trkpt lat="42.09953" lon="2.2864">
        <ele>1206.6</ele>
        <time>2018-11-26T02:45:48Z</time>
      </trkpt>
      <trkpt lat="42.09952" lon="2.28638">
        <ele>1206.4</ele>
        <time>2018-11-26T02:45:49Z</time>
      </trkpt>
      <trkpt lat="42.0995" lon="2.28635">
        <ele>1206</ele>
        <time>2018-11-26T02:45:50Z</time>
      </trkpt>
      <trkpt lat="42.09949" lon="2.28634">
        <ele>1206</ele>
        <time>2018-11-26T02:45:51Z</time>
      </trkpt>
      <trkpt lat="42.09947" lon="2.28631">
        <ele>1206.1</ele>
        <time>2018-11-26T02:45:52Z</time>
      </trkpt>
      <trkpt lat="42.09948" lon="2.28628">
        <ele>1205.8</ele>
        <time>2018-11-26T02:45:53Z</time>
      </trkpt>
      <trkpt lat="42.09947" lon="2.28626">
        <ele>1205.8</ele>
        <time>2018-11-26T02:45:54Z</time>
      </trkpt>
      <trkpt lat="42.09945" lon="2.28624">
        <ele>1206</ele>
        <time>2018-11-26T02:45:55Z</time>
      </trkpt>
      <trkpt lat="42.09944" lon="2.28621">
        <ele>1206.1</ele>
        <time>2018-11-26T02:45:56Z</time>
      </trkpt>
      <trkpt lat="42.09943" lon="2.28619">
        <ele>1206.1</ele>
        <time>2018-11-26T02:45:56Z</time>
      </trkpt>
      <trkpt lat="42.09942" lon="2.28617">
        <ele>1205.9</ele>
        <time>2018-11-26T02:45:57Z</time>
      </trkpt>
      <trkpt lat="42.0994" lon="2.28615">
        <ele>1205</ele>
        <time>2018-11-26T02:45:58Z</time>
      </trkpt>
      <trkpt lat="42.0994" lon="2.28612">
        <ele>1205</ele>
        <time>2018-11-26T02:45:59Z</time>
      </trkpt>
      <trkpt lat="42.09939" lon="2.28609">
        <ele>1205.1</ele>
        <time>2018-11-26T02:46:00Z</time>
      </trkpt>
      <trkpt lat="42.09937" lon="2.28606">
        <ele>1205.2</ele>
        <time>2018-11-26T02:46:01Z</time>
      </trkpt>
      <trkpt lat="42.09935" lon="2.28604">
        <ele>1205.2</ele>
        <time>2018-11-26T02:46:02Z</time>
      </trkpt>
      <trkpt lat="42.09934" lon="2.286">
        <ele>1205.2</ele>
        <time>2018-11-26T02:46:03Z</time>
      </trkpt>
      <trkpt lat="42.09934" lon="2.28597">
        <ele>1205.1</ele>
        <time>2018-11-26T02:46:04Z</time>
      </trkpt>
      <trkpt lat="42.09934" lon="2.28594">
        <ele>1204.4</ele>
        <time>2018-11-26T02:46:05Z</time>
      </trkpt>
      <trkpt lat="42.09933" lon="2.2859">
        <ele>1203.8</ele>
        <time>2018-11-26T02:46:06Z</time>
      </trkpt>
      <trkpt lat="42.09931" lon="2.28589">
        <ele>1203</ele>
        <time>2018-11-26T02:46:07Z</time>
      </trkpt>
      <trkpt lat="42.09931" lon="2.28586">
        <ele>1202.8</ele>
        <time>2018-11-26T02:46:08Z</time>
      </trkpt>
      <trkpt lat="42.09929" lon="2.28583">
        <ele>1202.5</ele>
        <time>2018-11-26T02:46:09Z</time>
      </trkpt>
      <trkpt lat="42.09928" lon="2.28579">
        <ele>1202</ele>
        <time>2018-11-26T02:46:10Z</time>
      </trkpt>
      <trkpt lat="42.09927" lon="2.28576">
        <ele>1202.1</ele>
        <time>2018-11-26T02:46:11Z</time>
      </trkpt>
      <trkpt lat="42.09926" lon="2.28572">
        <ele>1202.4</ele>
        <time>2018-11-26T02:46:12Z</time>
      </trkpt>
      <trkpt lat="42.09925" lon="2.28568">
        <ele>1202.1</ele>
        <time>2018-11-26T02:46:14Z</time>
      </trkpt>
      <trkpt lat="42.09923" lon="2.28565">
        <ele>1202.1</ele>
        <time>2018-11-26T02:46:14Z</time>
      </trkpt>
      <trkpt lat="42.09923" lon="2.28562">
        <ele>1201.6</ele>
        <time>2018-11-26T02:46:15Z</time>
      </trkpt>
      <trkpt lat="42.09922" lon="2.28559">
        <ele>1200.9</ele>
        <time>2018-11-26T02:46:16Z</time>
      </trkpt>
      <trkpt lat="42.09921" lon="2.28557">
        <ele>1200.9</ele>
        <time>2018-11-26T02:46:17Z</time>
      </trkpt>
      <trkpt lat="42.0992" lon="2.28554">
        <ele>1200.1</ele>
        <time>2018-11-26T02:46:18Z</time>
      </trkpt>
      <trkpt lat="42.0992" lon="2.28551">
        <ele>1200</ele>
        <time>2018-11-26T02:46:19Z</time>
      </trkpt>
      <trkpt lat="42.0992" lon="2.28548">
        <ele>1200.1</ele>
        <time>2018-11-26T02:46:20Z</time>
      </trkpt>
      <trkpt lat="42.09919" lon="2.28545">
        <ele>1199.8</ele>
        <time>2018-11-26T02:46:21Z</time>
      </trkpt>
      <trkpt lat="42.09919" lon="2.28542">
        <ele>1199.1</ele>
        <time>2018-11-26T02:46:22Z</time>
      </trkpt>
      <trkpt lat="42.09919" lon="2.28539">
        <ele>1198.5</ele>
        <time>2018-11-26T02:46:23Z</time>
      </trkpt>
      <trkpt lat="42.09919" lon="2.28536">
        <ele>1198.6</ele>
        <time>2018-11-26T02:46:23Z</time>
      </trkpt>
      <trkpt lat="42.09918" lon="2.28533">
        <ele>1198.1</ele>
        <time>2018-11-26T02:46:24Z</time>
      </trkpt>
      <trkpt lat="42.09917" lon="2.2853">
        <ele>1198.1</ele>
        <time>2018-11-26T02:46:25Z</time>
      </trkpt>
      <trkpt lat="42.09918" lon="2.28527">
        <ele>1197.9</ele>
        <time>2018-11-26T02:46:26Z</time>
      </trkpt>
      <trkpt lat="42.09918" lon="2.28524">
        <ele>1197.8</ele>
        <time>2018-11-26T02:46:27Z</time>
      </trkpt>
      <trkpt lat="42.09918" lon="2.28521">
        <ele>1197</ele>
        <time>2018-11-26T02:46:28Z</time>
      </trkpt>
      <trkpt lat="42.09918" lon="2.28518">
        <ele>1197</ele>
        <time>2018-11-26T02:46:29Z</time>
      </trkpt>
      <trkpt lat="42.09917" lon="2.28515">
        <ele>1196.8</ele>
        <time>2018-11-26T02:46:30Z</time>
      </trkpt>
      <trkpt lat="42.09916" lon="2.28512">
        <ele>1197.1</ele>
        <time>2018-11-26T02:46:31Z</time>
      </trkpt>
      <trkpt lat="42.09916" lon="2.28509">
        <ele>1197</ele>
        <time>2018-11-26T02:46:32Z</time>
      </trkpt>
      <trkpt lat="42.09915" lon="2.28506">
        <ele>1197.2</ele>
        <time>2018-11-26T02:46:33Z</time>
      </trkpt>
      <trkpt lat="42.09915" lon="2.28502">
        <ele>1197.4</ele>
        <time>2018-11-26T02:46:34Z</time>
      </trkpt>
      <trkpt lat="42.09915" lon="2.285">
        <ele>1197.5</ele>
        <time>2018-11-26T02:46:35Z</time>
      </trkpt>
      <trkpt lat="42.09914" lon="2.28496">
        <ele>1197.9</ele>
        <time>2018-11-26T02:46:36Z</time>
      </trkpt>
      <trkpt lat="42.09913" lon="2.28494">
        <ele>1198.1</ele>
        <time>2018-11-26T02:46:37Z</time>
      </trkpt>
      <trkpt lat="42.09912" lon="2.28491">
        <ele>1198.1</ele>
        <time>2018-11-26T02:46:37Z</time>
      </trkpt>
      <trkpt lat="42.09913" lon="2.28487">
        <ele>1198.4</ele>
        <time>2018-11-26T02:46:39Z</time>
      </trkpt>
      <trkpt lat="42.09913" lon="2.28484">
        <ele>1199.2</ele>
        <time>2018-11-26T02:46:40Z</time>
      </trkpt>
      <trkpt lat="42.09913" lon="2.28481">
        <ele>1199.4</ele>
        <time>2018-11-26T02:46:40Z</time>
      </trkpt>
      <trkpt lat="42.09912" lon="2.28478">
        <ele>1199.5</ele>
        <time>2018-11-26T02:46:42Z</time>
      </trkpt>
      <trkpt lat="42.09911" lon="2.28475">
        <ele>1199.5</ele>
        <time>2018-11-26T02:46:42Z</time>
      </trkpt>
      <trkpt lat="42.0991" lon="2.28472">
        <ele>1199.5</ele>
        <time>2018-11-26T02:46:43Z</time>
      </trkpt>
      <trkpt lat="42.0991" lon="2.28469">
        <ele>1199.1</ele>
        <time>2018-11-26T02:46:44Z</time>
      </trkpt>
      <trkpt lat="42.0991" lon="2.28466">
        <ele>1199.2</ele>
        <time>2018-11-26T02:46:45Z</time>
      </trkpt>
      <trkpt lat="42.09909" lon="2.28462">
        <ele>1199.5</ele>
        <time>2018-11-26T02:46:46Z</time>
      </trkpt>
      <trkpt lat="42.09909" lon="2.28459">
        <ele>1199.2</ele>
        <time>2018-11-26T02:46:47Z</time>
      </trkpt>
      <trkpt lat="42.09908" lon="2.28456">
        <ele>1199.2</ele>
        <time>2018-11-26T02:46:48Z</time>
      </trkpt>
      <trkpt lat="42.09908" lon="2.28453">
        <ele>1199</ele>
        <time>2018-11-26T02:46:49Z</time>
      </trkpt>
      <trkpt lat="42.09907" lon="2.2845">
        <ele>1199.1</ele>
        <time>2018-11-26T02:46:50Z</time>
      </trkpt>
      <trkpt lat="42.09906" lon="2.28447">
        <ele>1199.2</ele>
        <time>2018-11-26T02:46:51Z</time>
      </trkpt>
      <trkpt lat="42.09904" lon="2.28444">
        <ele>1198.8</ele>
        <time>2018-11-26T02:46:52Z</time>
      </trkpt>
      <trkpt lat="42.09904" lon="2.28441">
        <ele>1198.5</ele>
        <time>2018-11-26T02:46:53Z</time>
      </trkpt>
      <trkpt lat="42.09902" lon="2.28438">
        <ele>1198</ele>
        <time>2018-11-26T02:46:54Z</time>
      </trkpt>
      <trkpt lat="42.09901" lon="2.28436">
        <ele>1197.6</ele>
        <time>2018-11-26T02:46:55Z</time>
      </trkpt>
      <trkpt lat="42.099" lon="2.28433">
        <ele>1197.1</ele>
        <time>2018-11-26T02:46:56Z</time>
      </trkpt>
      <trkpt lat="42.09899" lon="2.28431">
        <ele>1197.2</ele>
        <time>2018-11-26T02:46:57Z</time>
      </trkpt>
      <trkpt lat="42.09899" lon="2.28428">
        <ele>1197</ele>
        <time>2018-11-26T02:46:57Z</time>
      </trkpt>
      <trkpt lat="42.09898" lon="2.28426">
        <ele>1196.5</ele>
        <time>2018-11-26T02:46:58Z</time>
      </trkpt>
      <trkpt lat="42.09897" lon="2.28423">
        <ele>1196.5</ele>
        <time>2018-11-26T02:46:59Z</time>
      </trkpt>
      <trkpt lat="42.09896" lon="2.28421">
        <ele>1195.8</ele>
        <time>2018-11-26T02:47:00Z</time>
      </trkpt>
      <trkpt lat="42.09894" lon="2.28418">
        <ele>1195.6</ele>
        <time>2018-11-26T02:47:01Z</time>
      </trkpt>
      <trkpt lat="42.09893" lon="2.28416">
        <ele>1195.4</ele>
        <time>2018-11-26T02:47:02Z</time>
      </trkpt>
      <trkpt lat="42.09892" lon="2.28413">
        <ele>1194</ele>
        <time>2018-11-26T02:47:03Z</time>
      </trkpt>
      <trkpt lat="42.09892" lon="2.28411">
        <ele>1192.5</ele>
        <time>2018-11-26T02:47:03Z</time>
      </trkpt>
      <trkpt lat="42.09891" lon="2.28408">
        <ele>1191.2</ele>
        <time>2018-11-26T02:47:04Z</time>
      </trkpt>
      <trkpt lat="42.0989" lon="2.28404">
        <ele>1190.8</ele>
        <time>2018-11-26T02:47:05Z</time>
      </trkpt>
      <trkpt lat="42.0989" lon="2.28402">
        <ele>1190</ele>
        <time>2018-11-26T02:47:06Z</time>
      </trkpt>
      <trkpt lat="42.0989" lon="2.28399">
        <ele>1189.1</ele>
        <time>2018-11-26T02:47:07Z</time>
      </trkpt>
      <trkpt lat="42.0989" lon="2.28396">
        <ele>1188.8</ele>
        <time>2018-11-26T02:47:08Z</time>
      </trkpt>
      <trkpt lat="42.0989" lon="2.28393">
        <ele>1188.5</ele>
        <time>2018-11-26T02:47:09Z</time>
      </trkpt>
      <trkpt lat="42.09891" lon="2.2839">
        <ele>1188.4</ele>
        <time>2018-11-26T02:47:10Z</time>
      </trkpt>
      <trkpt lat="42.09891" lon="2.28386">
        <ele>1188</ele>
        <time>2018-11-26T02:47:11Z</time>
      </trkpt>
      <trkpt lat="42.09892" lon="2.28384">
        <ele>1188.6</ele>
        <time>2018-11-26T02:47:12Z</time>
      </trkpt>
      <trkpt lat="42.09893" lon="2.28382">
        <ele>1188.5</ele>
        <time>2018-11-26T02:47:13Z</time>
      </trkpt>
      <trkpt lat="42.09895" lon="2.28379">
        <ele>1188.8</ele>
        <time>2018-11-26T02:47:13Z</time>
      </trkpt>
      <trkpt lat="42.09896" lon="2.28377">
        <ele>1188.8</ele>
        <time>2018-11-26T02:47:14Z</time>
      </trkpt>
      <trkpt lat="42.09896" lon="2.28373">
        <ele>1188.8</ele>
        <time>2018-11-26T02:47:15Z</time>
      </trkpt>
      <trkpt lat="42.09897" lon="2.28371">
        <ele>1189.4</ele>
        <time>2018-11-26T02:47:16Z</time>
      </trkpt>
      <trkpt lat="42.09899" lon="2.28368">
        <ele>1189.4</ele>
        <time>2018-11-26T02:47:17Z</time>
      </trkpt>
      <trkpt lat="42.099" lon="2.28366">
        <ele>1189.8</ele>
        <time>2018-11-26T02:47:18Z</time>
      </trkpt>
      <trkpt lat="42.09901" lon="2.28363">
        <ele>1190.2</ele>
        <time>2018-11-26T02:47:19Z</time>
      </trkpt>
      <trkpt lat="42.09902" lon="2.2836">
        <ele>1190.2</ele>
        <time>2018-11-26T02:47:20Z</time>
      </trkpt>
      <trkpt lat="42.09903" lon="2.28358">
        <ele>1190.6</ele>
        <time>2018-11-26T02:47:21Z</time>
      </trkpt>
      <trkpt lat="42.09903" lon="2.28355">
        <ele>1191.6</ele>
        <time>2018-11-26T02:47:21Z</time>
      </trkpt>
      <trkpt lat="42.09902" lon="2.28351">
        <ele>1192.1</ele>
        <time>2018-11-26T02:47:23Z</time>
      </trkpt>
      <trkpt lat="42.099" lon="2.28348">
        <ele>1192.7</ele>
        <time>2018-11-26T02:47:24Z</time>
      </trkpt>
      <trkpt lat="42.099" lon="2.28345">
        <ele>1193</ele>
        <time>2018-11-26T02:47:25Z</time>
      </trkpt>
      <trkpt lat="42.099" lon="2.28342">
        <ele>1193.5</ele>
        <time>2018-11-26T02:47:26Z</time>
      </trkpt>
      <trkpt lat="42.09899" lon="2.2834">
        <ele>1193.5</ele>
        <time>2018-11-26T02:47:26Z</time>
      </trkpt>
      <trkpt lat="42.09899" lon="2.28337">
        <ele>1194.1</ele>
        <time>2018-11-26T02:47:27Z</time>
      </trkpt>
      <trkpt lat="42.09897" lon="2.28334">
        <ele>1194.4</ele>
        <time>2018-11-26T02:47:28Z</time>
      </trkpt>
      <trkpt lat="42.09896" lon="2.28332">
        <ele>1194.5</ele>
        <time>2018-11-26T02:47:29Z</time>
      </trkpt>
      <trkpt lat="42.09894" lon="2.2833">
        <ele>1195.2</ele>
        <time>2018-11-26T02:47:30Z</time>
      </trkpt>
      <trkpt lat="42.09893" lon="2.28329">
        <ele>1195.8</ele>
        <time>2018-11-26T02:47:31Z</time>
      </trkpt>
      <trkpt lat="42.09891" lon="2.28326">
        <ele>1195.9</ele>
        <time>2018-11-26T02:47:32Z</time>
      </trkpt>
      <trkpt lat="42.0989" lon="2.28324">
        <ele>1195.9</ele>
        <time>2018-11-26T02:47:33Z</time>
      </trkpt>
      <trkpt lat="42.09889" lon="2.28322">
        <ele>1196.3</ele>
        <time>2018-11-26T02:47:33Z</time>
      </trkpt>
      <trkpt lat="42.09886" lon="2.2832">
        <ele>1196.6</ele>
        <time>2018-11-26T02:47:34Z</time>
      </trkpt>
      <trkpt lat="42.09884" lon="2.28319">
        <ele>1196.8</ele>
        <time>2018-11-26T02:47:35Z</time>
      </trkpt>
      <trkpt lat="42.09883" lon="2.28316">
        <ele>1197</ele>
        <time>2018-11-26T02:47:36Z</time>
      </trkpt>
      <trkpt lat="42.09882" lon="2.28314">
        <ele>1197.1</ele>
        <time>2018-11-26T02:47:37Z</time>
      </trkpt>
      <trkpt lat="42.0988" lon="2.28312">
        <ele>1197.1</ele>
        <time>2018-11-26T02:47:38Z</time>
      </trkpt>
      <trkpt lat="42.09878" lon="2.28309">
        <ele>1197.1</ele>
        <time>2018-11-26T02:47:39Z</time>
      </trkpt>
      <trkpt lat="42.09877" lon="2.28307">
        <ele>1198.2</ele>
        <time>2018-11-26T02:47:40Z</time>
      </trkpt>
      <trkpt lat="42.09875" lon="2.28304">
        <ele>1198.2</ele>
        <time>2018-11-26T02:47:41Z</time>
      </trkpt>
      <trkpt lat="42.09875" lon="2.28302">
        <ele>1198.5</ele>
        <time>2018-11-26T02:47:42Z</time>
      </trkpt>
      <trkpt lat="42.09873" lon="2.28299">
        <ele>1198.9</ele>
        <time>2018-11-26T02:47:43Z</time>
      </trkpt>
      <trkpt lat="42.09872" lon="2.28296">
        <ele>1198.9</ele>
        <time>2018-11-26T02:47:44Z</time>
      </trkpt>
      <trkpt lat="42.09871" lon="2.28294">
        <ele>1198.9</ele>
        <time>2018-11-26T02:47:45Z</time>
      </trkpt>
      <trkpt lat="42.09869" lon="2.28292">
        <ele>1198.8</ele>
        <time>2018-11-26T02:47:45Z</time>
      </trkpt>
      <trkpt lat="42.09868" lon="2.28291">
        <ele>1198.8</ele>
        <time>2018-11-26T02:47:46Z</time>
      </trkpt>
      <trkpt lat="42.09866" lon="2.28289">
        <ele>1199</ele>
        <time>2018-11-26T02:47:47Z</time>
      </trkpt>
      <trkpt lat="42.09864" lon="2.28289">
        <ele>1199.6</ele>
        <time>2018-11-26T02:47:48Z</time>
      </trkpt>
      <trkpt lat="42.09863" lon="2.28286">
        <ele>1199.6</ele>
        <time>2018-11-26T02:47:49Z</time>
      </trkpt>
      <trkpt lat="42.09861" lon="2.28284">
        <ele>1200.1</ele>
        <time>2018-11-26T02:47:50Z</time>
      </trkpt>
      <trkpt lat="42.0986" lon="2.28282">
        <ele>1200.6</ele>
        <time>2018-11-26T02:47:51Z</time>
      </trkpt>
      <trkpt lat="42.09858" lon="2.2828">
        <ele>1201.6</ele>
        <time>2018-11-26T02:47:51Z</time>
      </trkpt>
      <trkpt lat="42.09857" lon="2.28278">
        <ele>1202.6</ele>
        <time>2018-11-26T02:47:52Z</time>
      </trkpt>
      <trkpt lat="42.09856" lon="2.28275">
        <ele>1202.4</ele>
        <time>2018-11-26T02:47:53Z</time>
      </trkpt>
      <trkpt lat="42.09855" lon="2.28273">
        <ele>1203.1</ele>
        <time>2018-11-26T02:47:54Z</time>
      </trkpt>
      <trkpt lat="42.09853" lon="2.28271">
        <ele>1204.2</ele>
        <time>2018-11-26T02:47:55Z</time>
      </trkpt>
      <trkpt lat="42.09852" lon="2.28269">
        <ele>1204.1</ele>
        <time>2018-11-26T02:47:56Z</time>
      </trkpt>
      <trkpt lat="42.09851" lon="2.28265">
        <ele>1204.4</ele>
        <time>2018-11-26T02:47:57Z</time>
      </trkpt>
      <trkpt lat="42.0985" lon="2.28263">
        <ele>1204.5</ele>
        <time>2018-11-26T02:47:58Z</time>
      </trkpt>
      <trkpt lat="42.09848" lon="2.28261">
        <ele>1205.1</ele>
        <time>2018-11-26T02:47:58Z</time>
      </trkpt>
      <trkpt lat="42.09846" lon="2.2826">
        <ele>1205.6</ele>
        <time>2018-11-26T02:47:59Z</time>
      </trkpt>
      <trkpt lat="42.09844" lon="2.28257">
        <ele>1205.5</ele>
        <time>2018-11-26T02:48:00Z</time>
      </trkpt>
      <trkpt lat="42.09844" lon="2.28254">
        <ele>1205.6</ele>
        <time>2018-11-26T02:48:01Z</time>
      </trkpt>
      <trkpt lat="42.09844" lon="2.28252">
        <ele>1206.1</ele>
        <time>2018-11-26T02:48:02Z</time>
      </trkpt>
      <trkpt lat="42.09843" lon="2.28249">
        <ele>1207.1</ele>
        <time>2018-11-26T02:48:03Z</time>
      </trkpt>
      <trkpt lat="42.09842" lon="2.28246">
        <ele>1207.5</ele>
        <time>2018-11-26T02:48:04Z</time>
      </trkpt>
      <trkpt lat="42.09842" lon="2.28244">
        <ele>1208.1</ele>
        <time>2018-11-26T02:48:04Z</time>
      </trkpt>
      <trkpt lat="42.09841" lon="2.28241">
        <ele>1208.5</ele>
        <time>2018-11-26T02:48:05Z</time>
      </trkpt>
      <trkpt lat="42.09841" lon="2.28238">
        <ele>1208.9</ele>
        <time>2018-11-26T02:48:06Z</time>
      </trkpt>
      <trkpt lat="42.09842" lon="2.28236">
        <ele>1208.8</ele>
        <time>2018-11-26T02:48:07Z</time>
      </trkpt>
      <trkpt lat="42.09843" lon="2.28233">
        <ele>1209</ele>
        <time>2018-11-26T02:48:08Z</time>
      </trkpt>
      <trkpt lat="42.09843" lon="2.2823">
        <ele>1209.5</ele>
        <time>2018-11-26T02:48:09Z</time>
      </trkpt>
      <trkpt lat="42.09843" lon="2.28226">
        <ele>1209.4</ele>
        <time>2018-11-26T02:48:10Z</time>
      </trkpt>
      <trkpt lat="42.09844" lon="2.28223">
        <ele>1209.5</ele>
        <time>2018-11-26T02:48:11Z</time>
      </trkpt>
      <trkpt lat="42.09844" lon="2.2822">
        <ele>1210</ele>
        <time>2018-11-26T02:48:12Z</time>
      </trkpt>
      <trkpt lat="42.09844" lon="2.28217">
        <ele>1210.1</ele>
        <time>2018-11-26T02:48:13Z</time>
      </trkpt>
      <trkpt lat="42.09843" lon="2.28214">
        <ele>1209.9</ele>
        <time>2018-11-26T02:48:14Z</time>
      </trkpt>
      <trkpt lat="42.09842" lon="2.28211">
        <ele>1209.5</ele>
        <time>2018-11-26T02:48:15Z</time>
      </trkpt>
      <trkpt lat="42.09842" lon="2.28208">
        <ele>1209.6</ele>
        <time>2018-11-26T02:48:15Z</time>
      </trkpt>
      <trkpt lat="42.09841" lon="2.28206">
        <ele>1209.5</ele>
        <time>2018-11-26T02:48:16Z</time>
      </trkpt>
      <trkpt lat="42.09839" lon="2.28203">
        <ele>1208.8</ele>
        <time>2018-11-26T02:48:17Z</time>
      </trkpt>
      <trkpt lat="42.09838" lon="2.282">
        <ele>1208.4</ele>
        <time>2018-11-26T02:48:18Z</time>
      </trkpt>
      <trkpt lat="42.09836" lon="2.28198">
        <ele>1208</ele>
        <time>2018-11-26T02:48:19Z</time>
      </trkpt>
      <trkpt lat="42.09835" lon="2.28195">
        <ele>1207.2</ele>
        <time>2018-11-26T02:48:20Z</time>
      </trkpt>
      <trkpt lat="42.09834" lon="2.28192">
        <ele>1206.2</ele>
        <time>2018-11-26T02:48:21Z</time>
      </trkpt>
      <trkpt lat="42.09833" lon="2.28189">
        <ele>1205.9</ele>
        <time>2018-11-26T02:48:22Z</time>
      </trkpt>
      <trkpt lat="42.09832" lon="2.28187">
        <ele>1205.8</ele>
        <time>2018-11-26T02:48:23Z</time>
      </trkpt>
      <trkpt lat="42.09831" lon="2.28184">
        <ele>1205.6</ele>
        <time>2018-11-26T02:48:24Z</time>
      </trkpt>
      <trkpt lat="42.0983" lon="2.28181">
        <ele>1204.1</ele>
        <time>2018-11-26T02:48:25Z</time>
      </trkpt>
      <trkpt lat="42.09828" lon="2.28179">
        <ele>1203.8</ele>
        <time>2018-11-26T02:48:26Z</time>
      </trkpt>
      <trkpt lat="42.09827" lon="2.28177">
        <ele>1203.4</ele>
        <time>2018-11-26T02:48:26Z</time>
      </trkpt>
      <trkpt lat="42.09826" lon="2.28174">
        <ele>1203.2</ele>
        <time>2018-11-26T02:48:28Z</time>
      </trkpt>
      <trkpt lat="42.09825" lon="2.28172">
        <ele>1202.2</ele>
        <time>2018-11-26T02:48:28Z</time>
      </trkpt>
      <trkpt lat="42.09823" lon="2.28169">
        <ele>1201.4</ele>
        <time>2018-11-26T02:48:29Z</time>
      </trkpt>
      <trkpt lat="42.09821" lon="2.28166">
        <ele>1200.4</ele>
        <time>2018-11-26T02:48:30Z</time>
      </trkpt>
      <trkpt lat="42.0982" lon="2.28163">
        <ele>1200.2</ele>
        <time>2018-11-26T02:48:32Z</time>
      </trkpt>
      <trkpt lat="42.09818" lon="2.2816">
        <ele>1200</ele>
        <time>2018-11-26T02:48:33Z</time>
      </trkpt>
      <trkpt lat="42.09817" lon="2.28156">
        <ele>1199.9</ele>
        <time>2018-11-26T02:48:34Z</time>
      </trkpt>
      <trkpt lat="42.09817" lon="2.28153">
        <ele>1198.5</ele>
        <time>2018-11-26T02:48:35Z</time>
      </trkpt>
      <trkpt lat="42.09816" lon="2.28149">
        <ele>1198.4</ele>
        <time>2018-11-26T02:48:36Z</time>
      </trkpt>
      <trkpt lat="42.09817" lon="2.28146">
        <ele>1197.5</ele>
        <time>2018-11-26T02:48:37Z</time>
      </trkpt>
      <trkpt lat="42.09817" lon="2.28142">
        <ele>1197.6</ele>
        <time>2018-11-26T02:48:38Z</time>
      </trkpt>
      <trkpt lat="42.09816" lon="2.28139">
        <ele>1197.6</ele>
        <time>2018-11-26T02:48:39Z</time>
      </trkpt>
      <trkpt lat="42.09816" lon="2.28136">
        <ele>1197.5</ele>
        <time>2018-11-26T02:48:40Z</time>
      </trkpt>
      <trkpt lat="42.09816" lon="2.28133">
        <ele>1198.5</ele>
        <time>2018-11-26T02:48:41Z</time>
      </trkpt>
      <trkpt lat="42.09815" lon="2.2813">
        <ele>1198.4</ele>
        <time>2018-11-26T02:48:42Z</time>
      </trkpt>
      <trkpt lat="42.09814" lon="2.28126">
        <ele>1199.1</ele>
        <time>2018-11-26T02:48:43Z</time>
      </trkpt>
      <trkpt lat="42.09813" lon="2.28123">
        <ele>1199.5</ele>
        <time>2018-11-26T02:48:44Z</time>
      </trkpt>
      <trkpt lat="42.09813" lon="2.2812">
        <ele>1199.5</ele>
        <time>2018-11-26T02:48:45Z</time>
      </trkpt>
      <trkpt lat="42.09813" lon="2.28116">
        <ele>1199.4</ele>
        <time>2018-11-26T02:48:46Z</time>
      </trkpt>
      <trkpt lat="42.09813" lon="2.28113">
        <ele>1199.6</ele>
        <time>2018-11-26T02:48:47Z</time>
      </trkpt>
      <trkpt lat="42.09813" lon="2.2811">
        <ele>1200.1</ele>
        <time>2018-11-26T02:48:48Z</time>
      </trkpt>
      <trkpt lat="42.09813" lon="2.28108">
        <ele>1200.5</ele>
        <time>2018-11-26T02:48:49Z</time>
      </trkpt>
      <trkpt lat="42.09813" lon="2.28104">
        <ele>1200.4</ele>
        <time>2018-11-26T02:48:50Z</time>
      </trkpt>
      <trkpt lat="42.09813" lon="2.281">
        <ele>1200.9</ele>
        <time>2018-11-26T02:48:51Z</time>
      </trkpt>
      <trkpt lat="42.09813" lon="2.28097">
        <ele>1200.9</ele>
        <time>2018-11-26T02:48:52Z</time>
      </trkpt>
      <trkpt lat="42.09813" lon="2.28093">
        <ele>1200.8</ele>
        <time>2018-11-26T02:48:53Z</time>
      </trkpt>
      <trkpt lat="42.09813" lon="2.28091">
        <ele>1200.8</ele>
        <time>2018-11-26T02:48:54Z</time>
      </trkpt>
      <trkpt lat="42.09813" lon="2.28088">
        <ele>1200.5</ele>
        <time>2018-11-26T02:48:55Z</time>
      </trkpt>
      <trkpt lat="42.09813" lon="2.28084">
        <ele>1200.1</ele>
        <time>2018-11-26T02:48:56Z</time>
      </trkpt>
      <trkpt lat="42.09813" lon="2.28081">
        <ele>1200</ele>
        <time>2018-11-26T02:48:57Z</time>
      </trkpt>
      <trkpt lat="42.09813" lon="2.28078">
        <ele>1199.6</ele>
        <time>2018-11-26T02:48:57Z</time>
      </trkpt>
      <trkpt lat="42.09812" lon="2.28075">
        <ele>1198.1</ele>
        <time>2018-11-26T02:48:59Z</time>
      </trkpt>
      <trkpt lat="42.09812" lon="2.28071">
        <ele>1197.5</ele>
        <time>2018-11-26T02:48:59Z</time>
      </trkpt>
      <trkpt lat="42.09813" lon="2.28069">
        <ele>1197.5</ele>
        <time>2018-11-26T02:49:00Z</time>
      </trkpt>
      <trkpt lat="42.09812" lon="2.28066">
        <ele>1197.5</ele>
        <time>2018-11-26T02:49:01Z</time>
      </trkpt>
      <trkpt lat="42.09812" lon="2.28064">
        <ele>1197.4</ele>
        <time>2018-11-26T02:49:02Z</time>
      </trkpt>
      <trkpt lat="42.09811" lon="2.28062">
        <ele>1196.8</ele>
        <time>2018-11-26T02:49:03Z</time>
      </trkpt>
      <trkpt lat="42.09809" lon="2.2806">
        <ele>1195.8</ele>
        <time>2018-11-26T02:49:03Z</time>
      </trkpt>
      <trkpt lat="42.09808" lon="2.28058">
        <ele>1195.4</ele>
        <time>2018-11-26T02:49:04Z</time>
      </trkpt>
      <trkpt lat="42.09806" lon="2.28057">
        <ele>1193.8</ele>
        <time>2018-11-26T02:49:05Z</time>
      </trkpt>
      <trkpt lat="42.09803" lon="2.28055">
        <ele>1193.2</ele>
        <time>2018-11-26T02:49:06Z</time>
      </trkpt>
      <trkpt lat="42.09801" lon="2.28053">
        <ele>1192.1</ele>
        <time>2018-11-26T02:49:07Z</time>
      </trkpt>
      <trkpt lat="42.09799" lon="2.28052">
        <ele>1190.9</ele>
        <time>2018-11-26T02:49:08Z</time>
      </trkpt>
      <trkpt lat="42.09797" lon="2.2805">
        <ele>1190.6</ele>
        <time>2018-11-26T02:49:09Z</time>
      </trkpt>
      <trkpt lat="42.09795" lon="2.28047">
        <ele>1190</ele>
        <time>2018-11-26T02:49:10Z</time>
      </trkpt>
      <trkpt lat="42.09794" lon="2.28044">
        <ele>1189</ele>
        <time>2018-11-26T02:49:11Z</time>
      </trkpt>
      <trkpt lat="42.09792" lon="2.28042">
        <ele>1188.5</ele>
        <time>2018-11-26T02:49:12Z</time>
      </trkpt>
      <trkpt lat="42.0979" lon="2.2804">
        <ele>1188.1</ele>
        <time>2018-11-26T02:49:13Z</time>
      </trkpt>
      <trkpt lat="42.09788" lon="2.28039">
        <ele>1186.6</ele>
        <time>2018-11-26T02:49:14Z</time>
      </trkpt>
      <trkpt lat="42.09786" lon="2.28038">
        <ele>1186.5</ele>
        <time>2018-11-26T02:49:15Z</time>
      </trkpt>
      <trkpt lat="42.09784" lon="2.28035">
        <ele>1186.5</ele>
        <time>2018-11-26T02:49:16Z</time>
      </trkpt>
      <trkpt lat="42.09782" lon="2.28032">
        <ele>1186.1</ele>
        <time>2018-11-26T02:49:17Z</time>
      </trkpt>
      <trkpt lat="42.09781" lon="2.28028">
        <ele>1186.1</ele>
        <time>2018-11-26T02:49:19Z</time>
      </trkpt>
      <trkpt lat="42.09781" lon="2.28025">
        <ele>1186.1</ele>
        <time>2018-11-26T02:49:20Z</time>
      </trkpt>
      <trkpt lat="42.09781" lon="2.28022">
        <ele>1185.6</ele>
        <time>2018-11-26T02:49:20Z</time>
      </trkpt>
      <trkpt lat="42.09781" lon="2.28019">
        <ele>1185.2</ele>
        <time>2018-11-26T02:49:21Z</time>
      </trkpt>
      <trkpt lat="42.09782" lon="2.28016">
        <ele>1185.1</ele>
        <time>2018-11-26T02:49:22Z</time>
      </trkpt>
      <trkpt lat="42.09782" lon="2.28013">
        <ele>1185.2</ele>
        <time>2018-11-26T02:49:23Z</time>
      </trkpt>
      <trkpt lat="42.09782" lon="2.28009">
        <ele>1185.2</ele>
        <time>2018-11-26T02:49:24Z</time>
      </trkpt>
      <trkpt lat="42.09782" lon="2.28006">
        <ele>1185</ele>
        <time>2018-11-26T02:49:25Z</time>
      </trkpt>
      <trkpt lat="42.09784" lon="2.28004">
        <ele>1185.1</ele>
        <time>2018-11-26T02:49:26Z</time>
      </trkpt>
      <trkpt lat="42.09785" lon="2.28002">
        <ele>1184.5</ele>
        <time>2018-11-26T02:49:27Z</time>
      </trkpt>
      <trkpt lat="42.09786" lon="2.27999">
        <ele>1184.4</ele>
        <time>2018-11-26T02:49:28Z</time>
      </trkpt>
      <trkpt lat="42.09786" lon="2.27996">
        <ele>1183.5</ele>
        <time>2018-11-26T02:49:29Z</time>
      </trkpt>
      <trkpt lat="42.09787" lon="2.27993">
        <ele>1183.5</ele>
        <time>2018-11-26T02:49:30Z</time>
      </trkpt>
      <trkpt lat="42.09789" lon="2.2799">
        <ele>1183.1</ele>
        <time>2018-11-26T02:49:31Z</time>
      </trkpt>
      <trkpt lat="42.09791" lon="2.27988">
        <ele>1183.1</ele>
        <time>2018-11-26T02:49:32Z</time>
      </trkpt>
      <trkpt lat="42.09792" lon="2.27985">
        <ele>1182.5</ele>
        <time>2018-11-26T02:49:33Z</time>
      </trkpt>
      <trkpt lat="42.09793" lon="2.27983">
        <ele>1182.5</ele>
        <time>2018-11-26T02:49:33Z</time>
      </trkpt>
      <trkpt lat="42.09795" lon="2.27982">
        <ele>1181.6</ele>
        <time>2018-11-26T02:49:34Z</time>
      </trkpt>
      <trkpt lat="42.09797" lon="2.2798">
        <ele>1181.6</ele>
        <time>2018-11-26T02:49:35Z</time>
      </trkpt>
      <trkpt lat="42.09797" lon="2.27977">
        <ele>1180.9</ele>
        <time>2018-11-26T02:49:36Z</time>
      </trkpt>
      <trkpt lat="42.09798" lon="2.27975">
        <ele>1180.8</ele>
        <time>2018-11-26T02:49:37Z</time>
      </trkpt>
      <trkpt lat="42.098" lon="2.27973">
        <ele>1179.8</ele>
        <time>2018-11-26T02:49:38Z</time>
      </trkpt>
      <trkpt lat="42.09802" lon="2.27971">
        <ele>1178.5</ele>
        <time>2018-11-26T02:49:39Z</time>
      </trkpt>
      <trkpt lat="42.09803" lon="2.27968">
        <ele>1177.8</ele>
        <time>2018-11-26T02:49:40Z</time>
      </trkpt>
      <trkpt lat="42.09804" lon="2.27964">
        <ele>1177.5</ele>
        <time>2018-11-26T02:49:41Z</time>
      </trkpt>
      <trkpt lat="42.09804" lon="2.2796">
        <ele>1177.5</ele>
        <time>2018-11-26T02:49:42Z</time>
      </trkpt>
      <trkpt lat="42.09805" lon="2.27957">
        <ele>1177.8</ele>
        <time>2018-11-26T02:49:43Z</time>
      </trkpt>
      <trkpt lat="42.09806" lon="2.27954">
        <ele>1177.1</ele>
        <time>2018-11-26T02:49:44Z</time>
      </trkpt>
      <trkpt lat="42.09807" lon="2.27952">
        <ele>1177.5</ele>
        <time>2018-11-26T02:49:45Z</time>
      </trkpt>
      <trkpt lat="42.09808" lon="2.27949">
        <ele>1177.9</ele>
        <time>2018-11-26T02:49:46Z</time>
      </trkpt>
      <trkpt lat="42.09808" lon="2.27946">
        <ele>1178</ele>
        <time>2018-11-26T02:49:46Z</time>
      </trkpt>
      <trkpt lat="42.09809" lon="2.27943">
        <ele>1178.1</ele>
        <time>2018-11-26T02:49:47Z</time>
      </trkpt>
      <trkpt lat="42.09809" lon="2.27941">
        <ele>1178.6</ele>
        <time>2018-11-26T02:49:48Z</time>
      </trkpt>
      <trkpt lat="42.0981" lon="2.27937">
        <ele>1179.5</ele>
        <time>2018-11-26T02:49:49Z</time>
      </trkpt>
      <trkpt lat="42.0981" lon="2.27934">
        <ele>1179.4</ele>
        <time>2018-11-26T02:49:50Z</time>
      </trkpt>
      <trkpt lat="42.0981" lon="2.27932">
        <ele>1178</ele>
        <time>2018-11-26T02:49:51Z</time>
      </trkpt>
      <trkpt lat="42.09809" lon="2.27929">
        <ele>1177.5</ele>
        <time>2018-11-26T02:49:52Z</time>
      </trkpt>
      <trkpt lat="42.09809" lon="2.27926">
        <ele>1177.2</ele>
        <time>2018-11-26T02:49:53Z</time>
      </trkpt>
      <trkpt lat="42.09808" lon="2.27923">
        <ele>1176.6</ele>
        <time>2018-11-26T02:49:54Z</time>
      </trkpt>
      <trkpt lat="42.09808" lon="2.27919">
        <ele>1176.2</ele>
        <time>2018-11-26T02:49:55Z</time>
      </trkpt>
      <trkpt lat="42.09808" lon="2.27916">
        <ele>1175.2</ele>
        <time>2018-11-26T02:49:56Z</time>
      </trkpt>
      <trkpt lat="42.09808" lon="2.27912">
        <ele>1174.2</ele>
        <time>2018-11-26T02:49:57Z</time>
      </trkpt>
      <trkpt lat="42.09806" lon="2.27908">
        <ele>1173.5</ele>
        <time>2018-11-26T02:49:58Z</time>
      </trkpt>
      <trkpt lat="42.09806" lon="2.27906">
        <ele>1173.1</ele>
        <time>2018-11-26T02:49:59Z</time>
      </trkpt>
      <trkpt lat="42.09805" lon="2.27904">
        <ele>1173.1</ele>
        <time>2018-11-26T02:49:59Z</time>
      </trkpt>
      <trkpt lat="42.09804" lon="2.27901">
        <ele>1173.2</ele>
        <time>2018-11-26T02:50:00Z</time>
      </trkpt>
      <trkpt lat="42.09803" lon="2.27897">
        <ele>1173.1</ele>
        <time>2018-11-26T02:50:02Z</time>
      </trkpt>
      <trkpt lat="42.09802" lon="2.27894">
        <ele>1173.1</ele>
        <time>2018-11-26T02:50:03Z</time>
      </trkpt>
      <trkpt lat="42.09801" lon="2.27891">
        <ele>1173</ele>
        <time>2018-11-26T02:50:04Z</time>
      </trkpt>
      <trkpt lat="42.098" lon="2.27889">
        <ele>1172.6</ele>
        <time>2018-11-26T02:50:04Z</time>
      </trkpt>
      <trkpt lat="42.09799" lon="2.27885">
        <ele>1172</ele>
        <time>2018-11-26T02:50:06Z</time>
      </trkpt>
      <trkpt lat="42.09799" lon="2.27881">
        <ele>1171.4</ele>
        <time>2018-11-26T02:50:07Z</time>
      </trkpt>
      <trkpt lat="42.09798" lon="2.27879">
        <ele>1170</ele>
        <time>2018-11-26T02:50:08Z</time>
      </trkpt>
      <trkpt lat="42.09798" lon="2.27875">
        <ele>1169.4</ele>
        <time>2018-11-26T02:50:08Z</time>
      </trkpt>
      <trkpt lat="42.09797" lon="2.27872">
        <ele>1169.2</ele>
        <time>2018-11-26T02:50:09Z</time>
      </trkpt>
      <trkpt lat="42.09796" lon="2.2787">
        <ele>1168.8</ele>
        <time>2018-11-26T02:50:10Z</time>
      </trkpt>
      <trkpt lat="42.09794" lon="2.27868">
        <ele>1168.1</ele>
        <time>2018-11-26T02:50:11Z</time>
      </trkpt>
      <trkpt lat="42.09793" lon="2.27865">
        <ele>1168</ele>
        <time>2018-11-26T02:50:12Z</time>
      </trkpt>
      <trkpt lat="42.09792" lon="2.27862">
        <ele>1168.5</ele>
        <time>2018-11-26T02:50:13Z</time>
      </trkpt>
      <trkpt lat="42.09791" lon="2.27859">
        <ele>1168.8</ele>
        <time>2018-11-26T02:50:14Z</time>
      </trkpt>
      <trkpt lat="42.0979" lon="2.27856">
        <ele>1169</ele>
        <time>2018-11-26T02:50:15Z</time>
      </trkpt>
      <trkpt lat="42.0979" lon="2.27853">
        <ele>1168.1</ele>
        <time>2018-11-26T02:50:16Z</time>
      </trkpt>
      <trkpt lat="42.0979" lon="2.2785">
        <ele>1167.5</ele>
        <time>2018-11-26T02:50:17Z</time>
      </trkpt>
      <trkpt lat="42.09789" lon="2.27847">
        <ele>1166.5</ele>
        <time>2018-11-26T02:50:18Z</time>
      </trkpt>
      <trkpt lat="42.09787" lon="2.27845">
        <ele>1166.1</ele>
        <time>2018-11-26T02:50:19Z</time>
      </trkpt>
      <trkpt lat="42.09786" lon="2.27842">
        <ele>1165.3</ele>
        <time>2018-11-26T02:50:20Z</time>
      </trkpt>
      <trkpt lat="42.09786" lon="2.2784">
        <ele>1164.9</ele>
        <time>2018-11-26T02:50:20Z</time>
      </trkpt>
      <trkpt lat="42.09786" lon="2.27837">
        <ele>1163.2</ele>
        <time>2018-11-26T02:50:21Z</time>
      </trkpt>
      <trkpt lat="42.09785" lon="2.27834">
        <ele>1163.1</ele>
        <time>2018-11-26T02:50:22Z</time>
      </trkpt>
      <trkpt lat="42.09785" lon="2.2783">
        <ele>1162</ele>
        <time>2018-11-26T02:50:23Z</time>
      </trkpt>
      <trkpt lat="42.09786" lon="2.27827">
        <ele>1161.8</ele>
        <time>2018-11-26T02:50:24Z</time>
      </trkpt>
      <trkpt lat="42.09786" lon="2.27823">
        <ele>1160.8</ele>
        <time>2018-11-26T02:50:25Z</time>
      </trkpt>
      <trkpt lat="42.09787" lon="2.27821">
        <ele>1160.6</ele>
        <time>2018-11-26T02:50:26Z</time>
      </trkpt>
      <trkpt lat="42.09787" lon="2.27818">
        <ele>1160.2</ele>
        <time>2018-11-26T02:50:27Z</time>
      </trkpt>
      <trkpt lat="42.09787" lon="2.27815">
        <ele>1159.5</ele>
        <time>2018-11-26T02:50:28Z</time>
      </trkpt>
      <trkpt lat="42.09786" lon="2.27812">
        <ele>1159.2</ele>
        <time>2018-11-26T02:50:29Z</time>
      </trkpt>
      <trkpt lat="42.09786" lon="2.27808">
        <ele>1158.9</ele>
        <time>2018-11-26T02:50:30Z</time>
      </trkpt>
      <trkpt lat="42.09786" lon="2.27805">
        <ele>1158.9</ele>
        <time>2018-11-26T02:50:31Z</time>
      </trkpt>
      <trkpt lat="42.09787" lon="2.27802">
        <ele>1158.9</ele>
        <time>2018-11-26T02:50:32Z</time>
      </trkpt>
      <trkpt lat="42.09788" lon="2.27799">
        <ele>1158.8</ele>
        <time>2018-11-26T02:50:33Z</time>
      </trkpt>
      <trkpt lat="42.09789" lon="2.27797">
        <ele>1158.4</ele>
        <time>2018-11-26T02:50:34Z</time>
      </trkpt>
      <trkpt lat="42.09791" lon="2.27794">
        <ele>1157.9</ele>
        <time>2018-11-26T02:50:35Z</time>
      </trkpt>
      <trkpt lat="42.09791" lon="2.27792">
        <ele>1157.5</ele>
        <time>2018-11-26T02:50:36Z</time>
      </trkpt>
      <trkpt lat="42.09792" lon="2.27789">
        <ele>1157.1</ele>
        <time>2018-11-26T02:50:36Z</time>
      </trkpt>
      <trkpt lat="42.09792" lon="2.27786">
        <ele>1156.9</ele>
        <time>2018-11-26T02:50:37Z</time>
      </trkpt>
      <trkpt lat="42.09798" lon="2.27776">
        <ele>1155.6</ele>
        <time>2018-11-26T02:50:41Z</time>
      </trkpt>
      <trkpt lat="42.098" lon="2.27764">
        <ele>1152.5</ele>
        <time>2018-11-26T02:50:45Z</time>
      </trkpt>
      <trkpt lat="42.09796" lon="2.27751">
        <ele>1152</ele>
        <time>2018-11-26T02:50:49Z</time>
      </trkpt>
      <trkpt lat="42.09795" lon="2.27744">
        <ele>1151.4</ele>
        <time>2018-11-26T02:50:51Z</time>
      </trkpt>
      <trkpt lat="42.09794" lon="2.27741">
        <ele>1150.8</ele>
        <time>2018-11-26T02:50:52Z</time>
      </trkpt>
      <trkpt lat="42.09793" lon="2.27739">
        <ele>1149.2</ele>
        <time>2018-11-26T02:50:53Z</time>
      </trkpt>
      <trkpt lat="42.09793" lon="2.27736">
        <ele>1149</ele>
        <time>2018-11-26T02:50:54Z</time>
      </trkpt>
      <trkpt lat="42.09792" lon="2.27733">
        <ele>1148.9</ele>
        <time>2018-11-26T02:50:55Z</time>
      </trkpt>
      <trkpt lat="42.09791" lon="2.2773">
        <ele>1148.1</ele>
        <time>2018-11-26T02:50:56Z</time>
      </trkpt>
      <trkpt lat="42.09789" lon="2.27726">
        <ele>1147.4</ele>
        <time>2018-11-26T02:50:57Z</time>
      </trkpt>
      <trkpt lat="42.09788" lon="2.27724">
        <ele>1147.1</ele>
        <time>2018-11-26T02:50:58Z</time>
      </trkpt>
      <trkpt lat="42.09786" lon="2.2772">
        <ele>1145.9</ele>
        <time>2018-11-26T02:50:59Z</time>
      </trkpt>
      <trkpt lat="42.09784" lon="2.27716">
        <ele>1145.9</ele>
        <time>2018-11-26T02:51:01Z</time>
      </trkpt>
      <trkpt lat="42.09784" lon="2.27713">
        <ele>1145.8</ele>
        <time>2018-11-26T02:51:01Z</time>
      </trkpt>
      <trkpt lat="42.09782" lon="2.2771">
        <ele>1146</ele>
        <time>2018-11-26T02:51:03Z</time>
      </trkpt>
      <trkpt lat="42.09781" lon="2.27707">
        <ele>1146.1</ele>
        <time>2018-11-26T02:51:04Z</time>
      </trkpt>
      <trkpt lat="42.09781" lon="2.27704">
        <ele>1145.1</ele>
        <time>2018-11-26T02:51:04Z</time>
      </trkpt>
      <trkpt lat="42.09781" lon="2.27701">
        <ele>1144.1</ele>
        <time>2018-11-26T02:51:05Z</time>
      </trkpt>
      <trkpt lat="42.09779" lon="2.27699">
        <ele>1144.1</ele>
        <time>2018-11-26T02:51:06Z</time>
      </trkpt>
      <trkpt lat="42.09778" lon="2.27696">
        <ele>1143.4</ele>
        <time>2018-11-26T02:51:07Z</time>
      </trkpt>
      <trkpt lat="42.09777" lon="2.27693">
        <ele>1141.8</ele>
        <time>2018-11-26T02:51:08Z</time>
      </trkpt>
      <trkpt lat="42.09777" lon="2.2769">
        <ele>1141.1</ele>
        <time>2018-11-26T02:51:09Z</time>
      </trkpt>
      <trkpt lat="42.09777" lon="2.27687">
        <ele>1140</ele>
        <time>2018-11-26T02:51:10Z</time>
      </trkpt>
      <trkpt lat="42.09777" lon="2.27684">
        <ele>1139.5</ele>
        <time>2018-11-26T02:51:11Z</time>
      </trkpt>
      <trkpt lat="42.09777" lon="2.27682">
        <ele>1139.1</ele>
        <time>2018-11-26T02:51:11Z</time>
      </trkpt>
      <trkpt lat="42.09777" lon="2.27679">
        <ele>1137.9</ele>
        <time>2018-11-26T02:51:12Z</time>
      </trkpt>
      <trkpt lat="42.09777" lon="2.27676">
        <ele>1137.1</ele>
        <time>2018-11-26T02:51:13Z</time>
      </trkpt>
      <trkpt lat="42.09777" lon="2.27673">
        <ele>1136.6</ele>
        <time>2018-11-26T02:51:14Z</time>
      </trkpt>
      <trkpt lat="42.09777" lon="2.2767">
        <ele>1135.6</ele>
        <time>2018-11-26T02:51:15Z</time>
      </trkpt>
      <trkpt lat="42.09777" lon="2.27667">
        <ele>1135.1</ele>
        <time>2018-11-26T02:51:16Z</time>
      </trkpt>
      <trkpt lat="42.09777" lon="2.27665">
        <ele>1134.4</ele>
        <time>2018-11-26T02:51:17Z</time>
      </trkpt>
      <trkpt lat="42.09778" lon="2.27661">
        <ele>1133.5</ele>
        <time>2018-11-26T02:51:18Z</time>
      </trkpt>
      <trkpt lat="42.09778" lon="2.27658">
        <ele>1133</ele>
        <time>2018-11-26T02:51:19Z</time>
      </trkpt>
      <trkpt lat="42.09778" lon="2.27655">
        <ele>1133</ele>
        <time>2018-11-26T02:51:19Z</time>
      </trkpt>
      <trkpt lat="42.09777" lon="2.27653">
        <ele>1133</ele>
        <time>2018-11-26T02:51:20Z</time>
      </trkpt>
      <trkpt lat="42.09777" lon="2.2765">
        <ele>1133.2</ele>
        <time>2018-11-26T02:51:21Z</time>
      </trkpt>
      <trkpt lat="42.09777" lon="2.27646">
        <ele>1133.4</ele>
        <time>2018-11-26T02:51:22Z</time>
      </trkpt>
      <trkpt lat="42.09776" lon="2.27643">
        <ele>1133.4</ele>
        <time>2018-11-26T02:51:23Z</time>
      </trkpt>
      <trkpt lat="42.09776" lon="2.2764">
        <ele>1133.1</ele>
        <time>2018-11-26T02:51:24Z</time>
      </trkpt>
      <trkpt lat="42.09776" lon="2.27636">
        <ele>1133.1</ele>
        <time>2018-11-26T02:51:25Z</time>
      </trkpt>
      <trkpt lat="42.09776" lon="2.27633">
        <ele>1133.2</ele>
        <time>2018-11-26T02:51:26Z</time>
      </trkpt>
      <trkpt lat="42.09776" lon="2.2763">
        <ele>1132.5</ele>
        <time>2018-11-26T02:51:27Z</time>
      </trkpt>
      <trkpt lat="42.09776" lon="2.27627">
        <ele>1132.6</ele>
        <time>2018-11-26T02:51:28Z</time>
      </trkpt>
      <trkpt lat="42.09775" lon="2.27625">
        <ele>1132.2</ele>
        <time>2018-11-26T02:51:29Z</time>
      </trkpt>
      <trkpt lat="42.09775" lon="2.27622">
        <ele>1131.1</ele>
        <time>2018-11-26T02:51:30Z</time>
      </trkpt>
      <trkpt lat="42.09777" lon="2.27619">
        <ele>1130.5</ele>
        <time>2018-11-26T02:51:30Z</time>
      </trkpt>
      <trkpt lat="42.09777" lon="2.27617">
        <ele>1130</ele>
        <time>2018-11-26T02:51:31Z</time>
      </trkpt>
      <trkpt lat="42.09777" lon="2.27614">
        <ele>1128</ele>
        <time>2018-11-26T02:51:32Z</time>
      </trkpt>
      <trkpt lat="42.09776" lon="2.27612">
        <ele>1127.6</ele>
        <time>2018-11-26T02:51:33Z</time>
      </trkpt>
      <trkpt lat="42.09774" lon="2.27609">
        <ele>1126.9</ele>
        <time>2018-11-26T02:51:34Z</time>
      </trkpt>
      <trkpt lat="42.09773" lon="2.27606">
        <ele>1126.8</ele>
        <time>2018-11-26T02:51:35Z</time>
      </trkpt>
      <trkpt lat="42.09771" lon="2.27604">
        <ele>1126.9</ele>
        <time>2018-11-26T02:51:36Z</time>
      </trkpt>
      <trkpt lat="42.09768" lon="2.27602">
        <ele>1126.5</ele>
        <time>2018-11-26T02:51:37Z</time>
      </trkpt>
      <trkpt lat="42.09766" lon="2.27599">
        <ele>1126.4</ele>
        <time>2018-11-26T02:51:38Z</time>
      </trkpt>
      <trkpt lat="42.09765" lon="2.27597">
        <ele>1126.5</ele>
        <time>2018-11-26T02:51:39Z</time>
      </trkpt>
      <trkpt lat="42.09763" lon="2.27595">
        <ele>1126.6</ele>
        <time>2018-11-26T02:51:40Z</time>
      </trkpt>
      <trkpt lat="42.09762" lon="2.27592">
        <ele>1126.5</ele>
        <time>2018-11-26T02:51:41Z</time>
      </trkpt>
      <trkpt lat="42.09762" lon="2.2759">
        <ele>1127.8</ele>
        <time>2018-11-26T02:51:42Z</time>
      </trkpt>
      <trkpt lat="42.09762" lon="2.27586">
        <ele>1128</ele>
        <time>2018-11-26T02:51:43Z</time>
      </trkpt>
      <trkpt lat="42.09761" lon="2.27583">
        <ele>1128.1</ele>
        <time>2018-11-26T02:51:44Z</time>
      </trkpt>
      <trkpt lat="42.0976" lon="2.2758">
        <ele>1128</ele>
        <time>2018-11-26T02:51:45Z</time>
      </trkpt>
      <trkpt lat="42.09759" lon="2.27577">
        <ele>1127.8</ele>
        <time>2018-11-26T02:51:46Z</time>
      </trkpt>
      <trkpt lat="42.09758" lon="2.27573">
        <ele>1127.9</ele>
        <time>2018-11-26T02:51:47Z</time>
      </trkpt>
      <trkpt lat="42.09756" lon="2.2757">
        <ele>1127.4</ele>
        <time>2018-11-26T02:51:48Z</time>
      </trkpt>
      <trkpt lat="42.09755" lon="2.27567">
        <ele>1127.5</ele>
        <time>2018-11-26T02:51:49Z</time>
      </trkpt>
      <trkpt lat="42.09753" lon="2.27563">
        <ele>1127.5</ele>
        <time>2018-11-26T02:51:50Z</time>
      </trkpt>
      <trkpt lat="42.09752" lon="2.2756">
        <ele>1127.5</ele>
        <time>2018-11-26T02:51:51Z</time>
      </trkpt>
      <trkpt lat="42.09751" lon="2.27557">
        <ele>1126.6</ele>
        <time>2018-11-26T02:51:52Z</time>
      </trkpt>
      <trkpt lat="42.0975" lon="2.27555">
        <ele>1126.6</ele>
        <time>2018-11-26T02:51:53Z</time>
      </trkpt>
      <trkpt lat="42.09751" lon="2.27551">
        <ele>1126.5</ele>
        <time>2018-11-26T02:51:54Z</time>
      </trkpt>
      <trkpt lat="42.09751" lon="2.27548">
        <ele>1126.5</ele>
        <time>2018-11-26T02:51:55Z</time>
      </trkpt>
      <trkpt lat="42.0975" lon="2.27546">
        <ele>1125.9</ele>
        <time>2018-11-26T02:51:56Z</time>
      </trkpt>
      <trkpt lat="42.09748" lon="2.27544">
        <ele>1125.5</ele>
        <time>2018-11-26T02:51:57Z</time>
      </trkpt>
      <trkpt lat="42.09747" lon="2.27541">
        <ele>1125.1</ele>
        <time>2018-11-26T02:51:58Z</time>
      </trkpt>
      <trkpt lat="42.09746" lon="2.27539">
        <ele>1125</ele>
        <time>2018-11-26T02:51:59Z</time>
      </trkpt>
      <trkpt lat="42.09745" lon="2.27535">
        <ele>1125.2</ele>
        <time>2018-11-26T02:52:00Z</time>
      </trkpt>
      <trkpt lat="42.09744" lon="2.27533">
        <ele>1125.2</ele>
        <time>2018-11-26T02:52:00Z</time>
      </trkpt>
      <trkpt lat="42.09743" lon="2.2753">
        <ele>1124.5</ele>
        <time>2018-11-26T02:52:01Z</time>
      </trkpt>
      <trkpt lat="42.09743" lon="2.27527">
        <ele>1124.2</ele>
        <time>2018-11-26T02:52:02Z</time>
      </trkpt>
      <trkpt lat="42.09742" lon="2.27525">
        <ele>1123.9</ele>
        <time>2018-11-26T02:52:03Z</time>
      </trkpt>
      <trkpt lat="42.09741" lon="2.27523">
        <ele>1123.2</ele>
        <time>2018-11-26T02:52:04Z</time>
      </trkpt>
      <trkpt lat="42.0974" lon="2.2752">
        <ele>1122.5</ele>
        <time>2018-11-26T02:52:05Z</time>
      </trkpt>
      <trkpt lat="42.0974" lon="2.27517">
        <ele>1122</ele>
        <time>2018-11-26T02:52:06Z</time>
      </trkpt>
      <trkpt lat="42.09739" lon="2.27513">
        <ele>1120.6</ele>
        <time>2018-11-26T02:52:07Z</time>
      </trkpt>
      <trkpt lat="42.09739" lon="2.27509">
        <ele>1120</ele>
        <time>2018-11-26T02:52:08Z</time>
      </trkpt>
      <trkpt lat="42.09739" lon="2.27505">
        <ele>1119.9</ele>
        <time>2018-11-26T02:52:09Z</time>
      </trkpt>
      <trkpt lat="42.09738" lon="2.27502">
        <ele>1119.8</ele>
        <time>2018-11-26T02:52:10Z</time>
      </trkpt>
      <trkpt lat="42.09737" lon="2.27499">
        <ele>1120.1</ele>
        <time>2018-11-26T02:52:11Z</time>
      </trkpt>
      <trkpt lat="42.09736" lon="2.27496">
        <ele>1120.5</ele>
        <time>2018-11-26T02:52:12Z</time>
      </trkpt>
      <trkpt lat="42.09735" lon="2.27493">
        <ele>1120.1</ele>
        <time>2018-11-26T02:52:13Z</time>
      </trkpt>
      <trkpt lat="42.09735" lon="2.2749">
        <ele>1120.1</ele>
        <time>2018-11-26T02:52:14Z</time>
      </trkpt>
      <trkpt lat="42.09735" lon="2.27488">
        <ele>1120.6</ele>
        <time>2018-11-26T02:52:15Z</time>
      </trkpt>
      <trkpt lat="42.09734" lon="2.27485">
        <ele>1120.5</ele>
        <time>2018-11-26T02:52:16Z</time>
      </trkpt>
      <trkpt lat="42.09733" lon="2.27482">
        <ele>1120.5</ele>
        <time>2018-11-26T02:52:16Z</time>
      </trkpt>
      <trkpt lat="42.09732" lon="2.27479">
        <ele>1121</ele>
        <time>2018-11-26T02:52:17Z</time>
      </trkpt>
      <trkpt lat="42.09731" lon="2.27476">
        <ele>1121.2</ele>
        <time>2018-11-26T02:52:18Z</time>
      </trkpt>
      <trkpt lat="42.09731" lon="2.27473">
        <ele>1122</ele>
        <time>2018-11-26T02:52:19Z</time>
      </trkpt>
      <trkpt lat="42.09729" lon="2.27471">
        <ele>1122.2</ele>
        <time>2018-11-26T02:52:20Z</time>
      </trkpt>
      <trkpt lat="42.09728" lon="2.27468">
        <ele>1122.1</ele>
        <time>2018-11-26T02:52:21Z</time>
      </trkpt>
      <trkpt lat="42.09728" lon="2.27465">
        <ele>1123.1</ele>
        <time>2018-11-26T02:52:22Z</time>
      </trkpt>
      <trkpt lat="42.09728" lon="2.27462">
        <ele>1123.5</ele>
        <time>2018-11-26T02:52:23Z</time>
      </trkpt>
      <trkpt lat="42.09727" lon="2.27458">
        <ele>1123.8</ele>
        <time>2018-11-26T02:52:24Z</time>
      </trkpt>
      <trkpt lat="42.09727" lon="2.27455">
        <ele>1123.9</ele>
        <time>2018-11-26T02:52:25Z</time>
      </trkpt>
      <trkpt lat="42.09726" lon="2.27452">
        <ele>1123.9</ele>
        <time>2018-11-26T02:52:26Z</time>
      </trkpt>
      <trkpt lat="42.09725" lon="2.27448">
        <ele>1123.8</ele>
        <time>2018-11-26T02:52:27Z</time>
      </trkpt>
      <trkpt lat="42.09724" lon="2.27444">
        <ele>1124</ele>
        <time>2018-11-26T02:52:28Z</time>
      </trkpt>
      <trkpt lat="42.09723" lon="2.27442">
        <ele>1124</ele>
        <time>2018-11-26T02:52:29Z</time>
      </trkpt>
      <trkpt lat="42.09722" lon="2.27439">
        <ele>1123.6</ele>
        <time>2018-11-26T02:52:30Z</time>
      </trkpt>
      <trkpt lat="42.09721" lon="2.27435">
        <ele>1123.1</ele>
        <time>2018-11-26T02:52:31Z</time>
      </trkpt>
      <trkpt lat="42.09721" lon="2.27432">
        <ele>1122.6</ele>
        <time>2018-11-26T02:52:32Z</time>
      </trkpt>
      <trkpt lat="42.0972" lon="2.27429">
        <ele>1122.6</ele>
        <time>2018-11-26T02:52:33Z</time>
      </trkpt>
      <trkpt lat="42.09719" lon="2.27427">
        <ele>1122.2</ele>
        <time>2018-11-26T02:52:34Z</time>
      </trkpt>
      <trkpt lat="42.09717" lon="2.27424">
        <ele>1122.5</ele>
        <time>2018-11-26T02:52:35Z</time>
      </trkpt>
      <trkpt lat="42.09717" lon="2.27421">
        <ele>1122.8</ele>
        <time>2018-11-26T02:52:36Z</time>
      </trkpt>
      <trkpt lat="42.09715" lon="2.27418">
        <ele>1122.9</ele>
        <time>2018-11-26T02:52:37Z</time>
      </trkpt>
      <trkpt lat="42.09714" lon="2.27416">
        <ele>1122.9</ele>
        <time>2018-11-26T02:52:38Z</time>
      </trkpt>
      <trkpt lat="42.09713" lon="2.27413">
        <ele>1122.9</ele>
        <time>2018-11-26T02:52:39Z</time>
      </trkpt>
      <trkpt lat="42.09711" lon="2.27411">
        <ele>1122.5</ele>
        <time>2018-11-26T02:52:40Z</time>
      </trkpt>
      <trkpt lat="42.09709" lon="2.27408">
        <ele>1122.4</ele>
        <time>2018-11-26T02:52:41Z</time>
      </trkpt>
      <trkpt lat="42.09708" lon="2.27405">
        <ele>1121.5</ele>
        <time>2018-11-26T02:52:42Z</time>
      </trkpt>
      <trkpt lat="42.09706" lon="2.27403">
        <ele>1121.5</ele>
        <time>2018-11-26T02:52:43Z</time>
      </trkpt>
      <trkpt lat="42.09705" lon="2.274">
        <ele>1121.5</ele>
        <time>2018-11-26T02:52:44Z</time>
      </trkpt>
      <trkpt lat="42.09703" lon="2.27397">
        <ele>1120.9</ele>
        <time>2018-11-26T02:52:45Z</time>
      </trkpt>
      <trkpt lat="42.09701" lon="2.27395">
        <ele>1120.9</ele>
        <time>2018-11-26T02:52:46Z</time>
      </trkpt>
      <trkpt lat="42.097" lon="2.27392">
        <ele>1120.9</ele>
        <time>2018-11-26T02:52:47Z</time>
      </trkpt>
      <trkpt lat="42.09699" lon="2.27389">
        <ele>1120.8</ele>
        <time>2018-11-26T02:52:48Z</time>
      </trkpt>
      <trkpt lat="42.09697" lon="2.27386">
        <ele>1120.5</ele>
        <time>2018-11-26T02:52:49Z</time>
      </trkpt>
      <trkpt lat="42.09696" lon="2.27384">
        <ele>1120.5</ele>
        <time>2018-11-26T02:52:50Z</time>
      </trkpt>
      <trkpt lat="42.09694" lon="2.27382">
        <ele>1119.4</ele>
        <time>2018-11-26T02:52:51Z</time>
      </trkpt>
      <trkpt lat="42.09692" lon="2.27378">
        <ele>1119.1</ele>
        <time>2018-11-26T02:52:52Z</time>
      </trkpt>
      <trkpt lat="42.0969" lon="2.27375">
        <ele>1119</ele>
        <time>2018-11-26T02:52:54Z</time>
      </trkpt>
      <trkpt lat="42.09688" lon="2.27372">
        <ele>1119</ele>
        <time>2018-11-26T02:52:55Z</time>
      </trkpt>
      <trkpt lat="42.09687" lon="2.27371">
        <ele>1118.9</ele>
        <time>2018-11-26T02:52:55Z</time>
      </trkpt>
      <trkpt lat="42.09685" lon="2.27369">
        <ele>1118.9</ele>
        <time>2018-11-26T02:52:56Z</time>
      </trkpt>
      <trkpt lat="42.09683" lon="2.27368">
        <ele>1118.4</ele>
        <time>2018-11-26T02:52:57Z</time>
      </trkpt>
      <trkpt lat="42.09681" lon="2.27365">
        <ele>1118.2</ele>
        <time>2018-11-26T02:52:58Z</time>
      </trkpt>
      <trkpt lat="42.09681" lon="2.27362">
        <ele>1116.5</ele>
        <time>2018-11-26T02:52:59Z</time>
      </trkpt>
      <trkpt lat="42.0968" lon="2.27359">
        <ele>1116.1</ele>
        <time>2018-11-26T02:53:00Z</time>
      </trkpt>
      <trkpt lat="42.09679" lon="2.27356">
        <ele>1115.6</ele>
        <time>2018-11-26T02:53:01Z</time>
      </trkpt>
      <trkpt lat="42.09678" lon="2.27353">
        <ele>1115.6</ele>
        <time>2018-11-26T02:53:02Z</time>
      </trkpt>
      <trkpt lat="42.09676" lon="2.2735">
        <ele>1114.5</ele>
        <time>2018-11-26T02:53:03Z</time>
      </trkpt>
      <trkpt lat="42.09674" lon="2.27346">
        <ele>1114.1</ele>
        <time>2018-11-26T02:53:05Z</time>
      </trkpt>
      <trkpt lat="42.09673" lon="2.27343">
        <ele>1113.8</ele>
        <time>2018-11-26T02:53:06Z</time>
      </trkpt>
      <trkpt lat="42.09672" lon="2.2734">
        <ele>1113.1</ele>
        <time>2018-11-26T02:53:07Z</time>
      </trkpt>
      <trkpt lat="42.0967" lon="2.27337">
        <ele>1112.9</ele>
        <time>2018-11-26T02:53:08Z</time>
      </trkpt>
      <trkpt lat="42.09669" lon="2.27335">
        <ele>1112.9</ele>
        <time>2018-11-26T02:53:09Z</time>
      </trkpt>
      <trkpt lat="42.09668" lon="2.27331">
        <ele>1112.6</ele>
        <time>2018-11-26T02:53:10Z</time>
      </trkpt>
      <trkpt lat="42.09668" lon="2.27328">
        <ele>1112.2</ele>
        <time>2018-11-26T02:53:11Z</time>
      </trkpt>
      <trkpt lat="42.09667" lon="2.27325">
        <ele>1111.5</ele>
        <time>2018-11-26T02:53:11Z</time>
      </trkpt>
      <trkpt lat="42.09666" lon="2.27322">
        <ele>1111.2</ele>
        <time>2018-11-26T02:53:13Z</time>
      </trkpt>
      <trkpt lat="42.09665" lon="2.27319">
        <ele>1111.1</ele>
        <time>2018-11-26T02:53:13Z</time>
      </trkpt>
      <trkpt lat="42.09665" lon="2.27316">
        <ele>1110.4</ele>
        <time>2018-11-26T02:53:15Z</time>
      </trkpt>
      <trkpt lat="42.09665" lon="2.27313">
        <ele>1110.5</ele>
        <time>2018-11-26T02:53:15Z</time>
      </trkpt>
      <trkpt lat="42.09665" lon="2.27309">
        <ele>1110</ele>
        <time>2018-11-26T02:53:16Z</time>
      </trkpt>
      <trkpt lat="42.09664" lon="2.27306">
        <ele>1109.5</ele>
        <time>2018-11-26T02:53:17Z</time>
      </trkpt>
      <trkpt lat="42.09664" lon="2.27304">
        <ele>1108.1</ele>
        <time>2018-11-26T02:53:18Z</time>
      </trkpt>
      <trkpt lat="42.09665" lon="2.27301">
        <ele>1108</ele>
        <time>2018-11-26T02:53:19Z</time>
      </trkpt>
      <trkpt lat="42.09664" lon="2.27298">
        <ele>1107.1</ele>
        <time>2018-11-26T02:53:20Z</time>
      </trkpt>
      <trkpt lat="42.09663" lon="2.27295">
        <ele>1106.8</ele>
        <time>2018-11-26T02:53:21Z</time>
      </trkpt>
      <trkpt lat="42.09662" lon="2.27292">
        <ele>1106.5</ele>
        <time>2018-11-26T02:53:22Z</time>
      </trkpt>
      <trkpt lat="42.09661" lon="2.27289">
        <ele>1106.1</ele>
        <time>2018-11-26T02:53:23Z</time>
      </trkpt>
      <trkpt lat="42.0966" lon="2.27287">
        <ele>1104.8</ele>
        <time>2018-11-26T02:53:24Z</time>
      </trkpt>
      <trkpt lat="42.0966" lon="2.27284">
        <ele>1104.4</ele>
        <time>2018-11-26T02:53:24Z</time>
      </trkpt>
      <trkpt lat="42.0966" lon="2.2728">
        <ele>1104</ele>
        <time>2018-11-26T02:53:25Z</time>
      </trkpt>
      <trkpt lat="42.0966" lon="2.27278">
        <ele>1103.6</ele>
        <time>2018-11-26T02:53:26Z</time>
      </trkpt>
      <trkpt lat="42.0966" lon="2.27275">
        <ele>1102.4</ele>
        <time>2018-11-26T02:53:27Z</time>
      </trkpt>
      <trkpt lat="42.0966" lon="2.27272">
        <ele>1101.8</ele>
        <time>2018-11-26T02:53:28Z</time>
      </trkpt>
      <trkpt lat="42.09658" lon="2.2727">
        <ele>1101.9</ele>
        <time>2018-11-26T02:53:29Z</time>
      </trkpt>
      <trkpt lat="42.09658" lon="2.27266">
        <ele>1101.1</ele>
        <time>2018-11-26T02:53:30Z</time>
      </trkpt>
      <trkpt lat="42.09657" lon="2.27264">
        <ele>1100.1</ele>
        <time>2018-11-26T02:53:31Z</time>
      </trkpt>
      <trkpt lat="42.09657" lon="2.27261">
        <ele>1100.1</ele>
        <time>2018-11-26T02:53:31Z</time>
      </trkpt>
      <trkpt lat="42.09656" lon="2.27259">
        <ele>1099.4</ele>
        <time>2018-11-26T02:53:32Z</time>
      </trkpt>
      <trkpt lat="42.09655" lon="2.27256">
        <ele>1098.4</ele>
        <time>2018-11-26T02:53:33Z</time>
      </trkpt>
      <trkpt lat="42.09655" lon="2.27253">
        <ele>1097.2</ele>
        <time>2018-11-26T02:53:34Z</time>
      </trkpt>
      <trkpt lat="42.09654" lon="2.27251">
        <ele>1096.5</ele>
        <time>2018-11-26T02:53:35Z</time>
      </trkpt>
      <trkpt lat="42.09653" lon="2.27248">
        <ele>1096.1</ele>
        <time>2018-11-26T02:53:36Z</time>
      </trkpt>
      <trkpt lat="42.09652" lon="2.27246">
        <ele>1095.5</ele>
        <time>2018-11-26T02:53:37Z</time>
      </trkpt>
      <trkpt lat="42.09652" lon="2.27243">
        <ele>1094.8</ele>
        <time>2018-11-26T02:53:37Z</time>
      </trkpt>
      <trkpt lat="42.09652" lon="2.2724">
        <ele>1093.1</ele>
        <time>2018-11-26T02:53:38Z</time>
      </trkpt>
      <trkpt lat="42.09651" lon="2.27237">
        <ele>1093.1</ele>
        <time>2018-11-26T02:53:39Z</time>
      </trkpt>
      <trkpt lat="42.0965" lon="2.27235">
        <ele>1092.1</ele>
        <time>2018-11-26T02:53:40Z</time>
      </trkpt>
      <trkpt lat="42.0965" lon="2.27232">
        <ele>1091.4</ele>
        <time>2018-11-26T02:53:41Z</time>
      </trkpt>
      <trkpt lat="42.09649" lon="2.27229">
        <ele>1091.2</ele>
        <time>2018-11-26T02:53:42Z</time>
      </trkpt>
      <trkpt lat="42.09649" lon="2.27226">
        <ele>1091</ele>
        <time>2018-11-26T02:53:43Z</time>
      </trkpt>
      <trkpt lat="42.09648" lon="2.27221">
        <ele>1090.2</ele>
        <time>2018-11-26T02:53:44Z</time>
      </trkpt>
      <trkpt lat="42.09647" lon="2.27218">
        <ele>1090.1</ele>
        <time>2018-11-26T02:53:45Z</time>
      </trkpt>
      <trkpt lat="42.09647" lon="2.27214">
        <ele>1089.9</ele>
        <time>2018-11-26T02:53:46Z</time>
      </trkpt>
      <trkpt lat="42.09647" lon="2.27211">
        <ele>1088.8</ele>
        <time>2018-11-26T02:53:47Z</time>
      </trkpt>
      <trkpt lat="42.09647" lon="2.27209">
        <ele>1088</ele>
        <time>2018-11-26T02:53:48Z</time>
      </trkpt>
      <trkpt lat="42.09647" lon="2.27205">
        <ele>1088</ele>
        <time>2018-11-26T02:53:49Z</time>
      </trkpt>
      <trkpt lat="42.09647" lon="2.272">
        <ele>1087.5</ele>
        <time>2018-11-26T02:53:51Z</time>
      </trkpt>
      <trkpt lat="42.09647" lon="2.27197">
        <ele>1086.6</ele>
        <time>2018-11-26T02:53:51Z</time>
      </trkpt>
      <trkpt lat="42.09647" lon="2.27194">
        <ele>1086</ele>
        <time>2018-11-26T02:53:52Z</time>
      </trkpt>
      <trkpt lat="42.09647" lon="2.27192">
        <ele>1086.1</ele>
        <time>2018-11-26T02:53:53Z</time>
      </trkpt>
      <trkpt lat="42.09647" lon="2.27189">
        <ele>1085.4</ele>
        <time>2018-11-26T02:53:54Z</time>
      </trkpt>
      <trkpt lat="42.09648" lon="2.27186">
        <ele>1084.5</ele>
        <time>2018-11-26T02:53:55Z</time>
      </trkpt>
      <trkpt lat="42.09648" lon="2.27182">
        <ele>1084.5</ele>
        <time>2018-11-26T02:53:56Z</time>
      </trkpt>
      <trkpt lat="42.09648" lon="2.27179">
        <ele>1084</ele>
        <time>2018-11-26T02:53:57Z</time>
      </trkpt>
      <trkpt lat="42.09648" lon="2.27176">
        <ele>1084</ele>
        <time>2018-11-26T02:53:58Z</time>
      </trkpt>
      <trkpt lat="42.09649" lon="2.27173">
        <ele>1082.9</ele>
        <time>2018-11-26T02:53:59Z</time>
      </trkpt>
      <trkpt lat="42.0965" lon="2.27168">
        <ele>1082.9</ele>
        <time>2018-11-26T02:54:00Z</time>
      </trkpt>
      <trkpt lat="42.09651" lon="2.27165">
        <ele>1082.4</ele>
        <time>2018-11-26T02:54:01Z</time>
      </trkpt>
      <trkpt lat="42.09651" lon="2.27162">
        <ele>1082.1</ele>
        <time>2018-11-26T02:54:02Z</time>
      </trkpt>
      <trkpt lat="42.09651" lon="2.27159">
        <ele>1081.2</ele>
        <time>2018-11-26T02:54:03Z</time>
      </trkpt>
      <trkpt lat="42.09651" lon="2.27156">
        <ele>1080.9</ele>
        <time>2018-11-26T02:54:04Z</time>
      </trkpt>
      <trkpt lat="42.09652" lon="2.27153">
        <ele>1081.2</ele>
        <time>2018-11-26T02:54:05Z</time>
      </trkpt>
      <trkpt lat="42.09652" lon="2.2715">
        <ele>1081</ele>
        <time>2018-11-26T02:54:06Z</time>
      </trkpt>
      <trkpt lat="42.09651" lon="2.27147">
        <ele>1080.9</ele>
        <time>2018-11-26T02:54:07Z</time>
      </trkpt>
      <trkpt lat="42.0965" lon="2.27144">
        <ele>1080.5</ele>
        <time>2018-11-26T02:54:08Z</time>
      </trkpt>
      <trkpt lat="42.09649" lon="2.27141">
        <ele>1080.4</ele>
        <time>2018-11-26T02:54:09Z</time>
      </trkpt>
      <trkpt lat="42.09648" lon="2.27137">
        <ele>1079.9</ele>
        <time>2018-11-26T02:54:10Z</time>
      </trkpt>
      <trkpt lat="42.09648" lon="2.27135">
        <ele>1079.8</ele>
        <time>2018-11-26T02:54:11Z</time>
      </trkpt>
      <trkpt lat="42.09647" lon="2.27131">
        <ele>1079.8</ele>
        <time>2018-11-26T02:54:12Z</time>
      </trkpt>
      <trkpt lat="42.09648" lon="2.27127">
        <ele>1079.8</ele>
        <time>2018-11-26T02:54:13Z</time>
      </trkpt>
      <trkpt lat="42.09647" lon="2.27122">
        <ele>1080</ele>
        <time>2018-11-26T02:54:15Z</time>
      </trkpt>
      <trkpt lat="42.09645" lon="2.2712">
        <ele>1080.1</ele>
        <time>2018-11-26T02:54:15Z</time>
      </trkpt>
      <trkpt lat="42.09644" lon="2.27116">
        <ele>1080.1</ele>
        <time>2018-11-26T02:54:17Z</time>
      </trkpt>
      <trkpt lat="42.09643" lon="2.27114">
        <ele>1080.1</ele>
        <time>2018-11-26T02:54:17Z</time>
      </trkpt>
      <trkpt lat="42.09643" lon="2.27111">
        <ele>1079.6</ele>
        <time>2018-11-26T02:54:18Z</time>
      </trkpt>
      <trkpt lat="42.09642" lon="2.27109">
        <ele>1079.4</ele>
        <time>2018-11-26T02:54:19Z</time>
      </trkpt>
      <trkpt lat="42.09641" lon="2.27105">
        <ele>1079</ele>
        <time>2018-11-26T02:54:20Z</time>
      </trkpt>
      <trkpt lat="42.0964" lon="2.271">
        <ele>1078.5</ele>
        <time>2018-11-26T02:54:22Z</time>
      </trkpt>
      <trkpt lat="42.09639" lon="2.27096">
        <ele>1078.5</ele>
        <time>2018-11-26T02:54:23Z</time>
      </trkpt>
      <trkpt lat="42.09638" lon="2.27093">
        <ele>1078.5</ele>
        <time>2018-11-26T02:54:24Z</time>
      </trkpt>
      <trkpt lat="42.09637" lon="2.27089">
        <ele>1078.4</ele>
        <time>2018-11-26T02:54:25Z</time>
      </trkpt>
      <trkpt lat="42.09637" lon="2.27086">
        <ele>1077.8</ele>
        <time>2018-11-26T02:54:26Z</time>
      </trkpt>
      <trkpt lat="42.09637" lon="2.27083">
        <ele>1077.4</ele>
        <time>2018-11-26T02:54:27Z</time>
      </trkpt>
      <trkpt lat="42.09637" lon="2.2708">
        <ele>1077.1</ele>
        <time>2018-11-26T02:54:28Z</time>
      </trkpt>
      <trkpt lat="42.09636" lon="2.27077">
        <ele>1076.8</ele>
        <time>2018-11-26T02:54:29Z</time>
      </trkpt>
      <trkpt lat="42.09636" lon="2.27073">
        <ele>1076.2</ele>
        <time>2018-11-26T02:54:30Z</time>
      </trkpt>
      <trkpt lat="42.09635" lon="2.27068">
        <ele>1076.1</ele>
        <time>2018-11-26T02:54:32Z</time>
      </trkpt>
      <trkpt lat="42.09634" lon="2.27066">
        <ele>1075.5</ele>
        <time>2018-11-26T02:54:32Z</time>
      </trkpt>
      <trkpt lat="42.09633" lon="2.27063">
        <ele>1074.1</ele>
        <time>2018-11-26T02:54:33Z</time>
      </trkpt>
      <trkpt lat="42.09632" lon="2.2706">
        <ele>1073.9</ele>
        <time>2018-11-26T02:54:34Z</time>
      </trkpt>
      <trkpt lat="42.09631" lon="2.27057">
        <ele>1073.4</ele>
        <time>2018-11-26T02:54:35Z</time>
      </trkpt>
      <trkpt lat="42.09629" lon="2.27054">
        <ele>1073</ele>
        <time>2018-11-26T02:54:36Z</time>
      </trkpt>
      <trkpt lat="42.09628" lon="2.27051">
        <ele>1073.1</ele>
        <time>2018-11-26T02:54:37Z</time>
      </trkpt>
      <trkpt lat="42.09626" lon="2.27049">
        <ele>1072</ele>
        <time>2018-11-26T02:54:38Z</time>
      </trkpt>
      <trkpt lat="42.09625" lon="2.27047">
        <ele>1071.8</ele>
        <time>2018-11-26T02:54:39Z</time>
      </trkpt>
      <trkpt lat="42.09624" lon="2.27044">
        <ele>1071.6</ele>
        <time>2018-11-26T02:54:40Z</time>
      </trkpt>
      <trkpt lat="42.09622" lon="2.27042">
        <ele>1071.4</ele>
        <time>2018-11-26T02:54:41Z</time>
      </trkpt>
      <trkpt lat="42.09622" lon="2.27039">
        <ele>1071.4</ele>
        <time>2018-11-26T02:54:42Z</time>
      </trkpt>
      <trkpt lat="42.0962" lon="2.27035">
        <ele>1071.5</ele>
        <time>2018-11-26T02:54:43Z</time>
      </trkpt>
      <trkpt lat="42.0962" lon="2.27032">
        <ele>1071.4</ele>
        <time>2018-11-26T02:54:44Z</time>
      </trkpt>
      <trkpt lat="42.09619" lon="2.2703">
        <ele>1071.1</ele>
        <time>2018-11-26T02:54:45Z</time>
      </trkpt>
      <trkpt lat="42.09619" lon="2.27027">
        <ele>1071</ele>
        <time>2018-11-26T02:54:46Z</time>
      </trkpt>
      <trkpt lat="42.09618" lon="2.27023">
        <ele>1070.4</ele>
        <time>2018-11-26T02:54:47Z</time>
      </trkpt>
      <trkpt lat="42.09616" lon="2.2702">
        <ele>1070.1</ele>
        <time>2018-11-26T02:54:48Z</time>
      </trkpt>
      <trkpt lat="42.09615" lon="2.27017">
        <ele>1069.8</ele>
        <time>2018-11-26T02:54:49Z</time>
      </trkpt>
      <trkpt lat="42.09615" lon="2.27014">
        <ele>1068.6</ele>
        <time>2018-11-26T02:54:50Z</time>
      </trkpt>
      <trkpt lat="42.09614" lon="2.27011">
        <ele>1068.4</ele>
        <time>2018-11-26T02:54:51Z</time>
      </trkpt>
      <trkpt lat="42.09614" lon="2.27008">
        <ele>1068.5</ele>
        <time>2018-11-26T02:54:52Z</time>
      </trkpt>
      <trkpt lat="42.09617" lon="2.27006">
        <ele>1068.2</ele>
        <time>2018-11-26T02:54:53Z</time>
      </trkpt>
      <trkpt lat="42.09619" lon="2.27007">
        <ele>1066.6</ele>
        <time>2018-11-26T02:54:54Z</time>
      </trkpt>
      <trkpt lat="42.09621" lon="2.27009">
        <ele>1066.5</ele>
        <time>2018-11-26T02:54:55Z</time>
      </trkpt>
      <trkpt lat="42.09624" lon="2.27011">
        <ele>1065.6</ele>
        <time>2018-11-26T02:54:56Z</time>
      </trkpt>
      <trkpt lat="42.09625" lon="2.27013">
        <ele>1065.5</ele>
        <time>2018-11-26T02:54:57Z</time>
      </trkpt>
      <trkpt lat="42.09628" lon="2.27016">
        <ele>1065.1</ele>
        <time>2018-11-26T02:54:58Z</time>
      </trkpt>
      <trkpt lat="42.0963" lon="2.27018">
        <ele>1065.1</ele>
        <time>2018-11-26T02:54:59Z</time>
      </trkpt>
      <trkpt lat="42.09633" lon="2.2702">
        <ele>1065.1</ele>
        <time>2018-11-26T02:55:00Z</time>
      </trkpt>
      <trkpt lat="42.09635" lon="2.27022">
        <ele>1064.5</ele>
        <time>2018-11-26T02:55:01Z</time>
      </trkpt>
      <trkpt lat="42.09638" lon="2.27024">
        <ele>1064.4</ele>
        <time>2018-11-26T02:55:03Z</time>
      </trkpt>
      <trkpt lat="42.0964" lon="2.27025">
        <ele>1064</ele>
        <time>2018-11-26T02:55:03Z</time>
      </trkpt>
      <trkpt lat="42.09642" lon="2.27028">
        <ele>1063.9</ele>
        <time>2018-11-26T02:55:05Z</time>
      </trkpt>
      <trkpt lat="42.09644" lon="2.2703">
        <ele>1064.1</ele>
        <time>2018-11-26T02:55:06Z</time>
      </trkpt>
      <trkpt lat="42.09646" lon="2.27032">
        <ele>1063.5</ele>
        <time>2018-11-26T02:55:07Z</time>
      </trkpt>
      <trkpt lat="42.09647" lon="2.27033">
        <ele>1063.4</ele>
        <time>2018-11-26T02:55:07Z</time>
      </trkpt>
      <trkpt lat="42.09649" lon="2.27034">
        <ele>1062.8</ele>
        <time>2018-11-26T02:55:08Z</time>
      </trkpt>
      <trkpt lat="42.09651" lon="2.27035">
        <ele>1062.6</ele>
        <time>2018-11-26T02:55:09Z</time>
      </trkpt>
      <trkpt lat="42.09653" lon="2.27037">
        <ele>1062.5</ele>
        <time>2018-11-26T02:55:10Z</time>
      </trkpt>
      <trkpt lat="42.09655" lon="2.27039">
        <ele>1062.1</ele>
        <time>2018-11-26T02:55:11Z</time>
      </trkpt>
      <trkpt lat="42.09657" lon="2.27042">
        <ele>1062.1</ele>
        <time>2018-11-26T02:55:12Z</time>
      </trkpt>
      <trkpt lat="42.09659" lon="2.27043">
        <ele>1061.1</ele>
        <time>2018-11-26T02:55:13Z</time>
      </trkpt>
      <trkpt lat="42.09661" lon="2.27046">
        <ele>1060.4</ele>
        <time>2018-11-26T02:55:14Z</time>
      </trkpt>
      <trkpt lat="42.09662" lon="2.27049">
        <ele>1059.8</ele>
        <time>2018-11-26T02:55:15Z</time>
      </trkpt>
      <trkpt lat="42.09664" lon="2.27051">
        <ele>1059.2</ele>
        <time>2018-11-26T02:55:16Z</time>
      </trkpt>
      <trkpt lat="42.09666" lon="2.27053">
        <ele>1059.1</ele>
        <time>2018-11-26T02:55:17Z</time>
      </trkpt>
      <trkpt lat="42.09668" lon="2.27055">
        <ele>1058.6</ele>
        <time>2018-11-26T02:55:18Z</time>
      </trkpt>
      <trkpt lat="42.0967" lon="2.27058">
        <ele>1058</ele>
        <time>2018-11-26T02:55:19Z</time>
      </trkpt>
      <trkpt lat="42.09671" lon="2.2706">
        <ele>1057.6</ele>
        <time>2018-11-26T02:55:20Z</time>
      </trkpt>
      <trkpt lat="42.09673" lon="2.27062">
        <ele>1056.8</ele>
        <time>2018-11-26T02:55:21Z</time>
      </trkpt>
      <trkpt lat="42.09677" lon="2.27074">
        <ele>1055.6</ele>
        <time>2018-11-26T02:55:25Z</time>
      </trkpt>
      <trkpt lat="42.09683" lon="2.27084">
        <ele>1054.9</ele>
        <time>2018-11-26T02:55:29Z</time>
      </trkpt>
      <trkpt lat="42.09685" lon="2.27087">
        <ele>1054.4</ele>
        <time>2018-11-26T02:55:30Z</time>
      </trkpt>
      <trkpt lat="42.09688" lon="2.27089">
        <ele>1053.5</ele>
        <time>2018-11-26T02:55:31Z</time>
      </trkpt>
      <trkpt lat="42.09691" lon="2.27091">
        <ele>1052.5</ele>
        <time>2018-11-26T02:55:32Z</time>
      </trkpt>
      <trkpt lat="42.09695" lon="2.27094">
        <ele>1052.1</ele>
        <time>2018-11-26T02:55:34Z</time>
      </trkpt>
      <trkpt lat="42.09702" lon="2.27102">
        <ele>1049.8</ele>
        <time>2018-11-26T02:55:38Z</time>
      </trkpt>
      <trkpt lat="42.09709" lon="2.27111">
        <ele>1048.2</ele>
        <time>2018-11-26T02:55:42Z</time>
      </trkpt>
      <trkpt lat="42.09717" lon="2.27118">
        <ele>1045.5</ele>
        <time>2018-11-26T02:55:46Z</time>
      </trkpt>
      <trkpt lat="42.09719" lon="2.27122">
        <ele>1044.4</ele>
        <time>2018-11-26T02:55:47Z</time>
      </trkpt>
      <trkpt lat="42.0972" lon="2.27126">
        <ele>1043.8</ele>
        <time>2018-11-26T02:55:48Z</time>
      </trkpt>
      <trkpt lat="42.09726" lon="2.27136">
        <ele>1041.1</ele>
        <time>2018-11-26T02:55:52Z</time>
      </trkpt>
      <trkpt lat="42.09732" lon="2.27147">
        <ele>1038.4</ele>
        <time>2018-11-26T02:55:56Z</time>
      </trkpt>
      <trkpt lat="42.09739" lon="2.27155">
        <ele>1036.4</ele>
        <time>2018-11-26T02:56:00Z</time>
      </trkpt>
      <trkpt lat="42.09745" lon="2.27165">
        <ele>1034.5</ele>
        <time>2018-11-26T02:56:04Z</time>
      </trkpt>
      <trkpt lat="42.09752" lon="2.27173">
        <ele>1032.3</ele>
        <time>2018-11-26T02:56:07Z</time>
      </trkpt>
      <trkpt lat="42.09759" lon="2.27182">
        <ele>1029.8</ele>
        <time>2018-11-26T02:56:11Z</time>
      </trkpt>
      <trkpt lat="42.09767" lon="2.27191">
        <ele>1027.8</ele>
        <time>2018-11-26T02:56:15Z</time>
      </trkpt>
      <trkpt lat="42.09771" lon="2.27199">
        <ele>1027.6</ele>
        <time>2018-11-26T02:56:18Z</time>
      </trkpt>
      <trkpt lat="42.09773" lon="2.27201">
        <ele>1027.5</ele>
        <time>2018-11-26T02:56:19Z</time>
      </trkpt>
      <trkpt lat="42.09776" lon="2.27203">
        <ele>1026.8</ele>
        <time>2018-11-26T02:56:21Z</time>
      </trkpt>
      <trkpt lat="42.09778" lon="2.27205">
        <ele>1026.5</ele>
        <time>2018-11-26T02:56:22Z</time>
      </trkpt>
      <trkpt lat="42.0978" lon="2.27207">
        <ele>1025.5</ele>
        <time>2018-11-26T02:56:23Z</time>
      </trkpt>
      <trkpt lat="42.09781" lon="2.27208">
        <ele>1024.9</ele>
        <time>2018-11-26T02:56:23Z</time>
      </trkpt>
      <trkpt lat="42.09783" lon="2.27209">
        <ele>1024.5</ele>
        <time>2018-11-26T02:56:24Z</time>
      </trkpt>
      <trkpt lat="42.09788" lon="2.27214">
        <ele>1021.6</ele>
        <time>2018-11-26T02:56:26Z</time>
      </trkpt>
      <trkpt lat="42.09796" lon="2.27221">
        <ele>1018</ele>
        <time>2018-11-26T02:56:30Z</time>
      </trkpt>
      <trkpt lat="42.09799" lon="2.27223">
        <ele>1017.2</ele>
        <time>2018-11-26T02:56:31Z</time>
      </trkpt>
      <trkpt lat="42.09802" lon="2.27226">
        <ele>1016.5</ele>
        <time>2018-11-26T02:56:33Z</time>
      </trkpt>
      <trkpt lat="42.09804" lon="2.27228">
        <ele>1016.2</ele>
        <time>2018-11-26T02:56:34Z</time>
      </trkpt>
      <trkpt lat="42.09805" lon="2.27231">
        <ele>1016.2</ele>
        <time>2018-11-26T02:56:35Z</time>
      </trkpt>
      <trkpt lat="42.09806" lon="2.27233">
        <ele>1015.7</ele>
        <time>2018-11-26T02:56:36Z</time>
      </trkpt>
      <trkpt lat="42.09811" lon="2.2724">
        <ele>1015.6</ele>
        <time>2018-11-26T02:56:39Z</time>
      </trkpt>
      <trkpt lat="42.09813" lon="2.27244">
        <ele>1015.1</ele>
        <time>2018-11-26T02:56:40Z</time>
      </trkpt>
      <trkpt lat="42.09814" lon="2.27246">
        <ele>1014.2</ele>
        <time>2018-11-26T02:56:41Z</time>
      </trkpt>
      <trkpt lat="42.09816" lon="2.27249">
        <ele>1014.1</ele>
        <time>2018-11-26T02:56:42Z</time>
      </trkpt>
      <trkpt lat="42.09817" lon="2.27251">
        <ele>1013.4</ele>
        <time>2018-11-26T02:56:43Z</time>
      </trkpt>
      <trkpt lat="42.09818" lon="2.27254">
        <ele>1012.5</ele>
        <time>2018-11-26T02:56:44Z</time>
      </trkpt>
      <trkpt lat="42.0982" lon="2.27258">
        <ele>1012.2</ele>
        <time>2018-11-26T02:56:45Z</time>
      </trkpt>
      <trkpt lat="42.09821" lon="2.27261">
        <ele>1012</ele>
        <time>2018-11-26T02:56:46Z</time>
      </trkpt>
      <trkpt lat="42.09822" lon="2.27263">
        <ele>1011.5</ele>
        <time>2018-11-26T02:56:47Z</time>
      </trkpt>
      <trkpt lat="42.09823" lon="2.27266">
        <ele>1011.4</ele>
        <time>2018-11-26T02:56:48Z</time>
      </trkpt>
      <trkpt lat="42.09827" lon="2.27272">
        <ele>1010.3</ele>
        <time>2018-11-26T02:56:50Z</time>
      </trkpt>
      <trkpt lat="42.09828" lon="2.27274">
        <ele>1010.2</ele>
        <time>2018-11-26T02:56:51Z</time>
      </trkpt>
      <trkpt lat="42.09832" lon="2.27281">
        <ele>1009.7</ele>
        <time>2018-11-26T02:56:53Z</time>
      </trkpt>
      <trkpt lat="42.09834" lon="2.27287">
        <ele>1009.8</ele>
        <time>2018-11-26T02:56:55Z</time>
      </trkpt>
      <trkpt lat="42.09834" lon="2.2729">
        <ele>1009.6</ele>
        <time>2018-11-26T02:56:56Z</time>
      </trkpt>
      <trkpt lat="42.09835" lon="2.27292">
        <ele>1009.6</ele>
        <time>2018-11-26T02:56:57Z</time>
      </trkpt>
      <trkpt lat="42.0984" lon="2.27304">
        <ele>1009.5</ele>
        <time>2018-11-26T02:57:01Z</time>
      </trkpt>
      <trkpt lat="42.09846" lon="2.27313">
        <ele>1009.3</ele>
        <time>2018-11-26T02:57:05Z</time>
      </trkpt>
      <trkpt lat="42.09849" lon="2.27317">
        <ele>1009</ele>
        <time>2018-11-26T02:57:06Z</time>
      </trkpt>
      <trkpt lat="42.09851" lon="2.27318">
        <ele>1008.4</ele>
        <time>2018-11-26T02:57:07Z</time>
      </trkpt>
      <trkpt lat="42.09856" lon="2.27325">
        <ele>1007.4</ele>
        <time>2018-11-26T02:57:10Z</time>
      </trkpt>
      <trkpt lat="42.09859" lon="2.27327">
        <ele>1006</ele>
        <time>2018-11-26T02:57:11Z</time>
      </trkpt>
      <trkpt lat="42.09861" lon="2.27329">
        <ele>1005.4</ele>
        <time>2018-11-26T02:57:12Z</time>
      </trkpt>
      <trkpt lat="42.09863" lon="2.27333">
        <ele>1005.1</ele>
        <time>2018-11-26T02:57:14Z</time>
      </trkpt>
      <trkpt lat="42.09864" lon="2.27335">
        <ele>1004.3</ele>
        <time>2018-11-26T02:57:15Z</time>
      </trkpt>
      <trkpt lat="42.09864" lon="2.27338">
        <ele>1003.6</ele>
        <time>2018-11-26T02:57:15Z</time>
      </trkpt>
      <trkpt lat="42.09866" lon="2.2734">
        <ele>1003.6</ele>
        <time>2018-11-26T02:57:16Z</time>
      </trkpt>
      <trkpt lat="42.09868" lon="2.27342">
        <ele>1003.3</ele>
        <time>2018-11-26T02:57:17Z</time>
      </trkpt>
      <trkpt lat="42.0987" lon="2.27345">
        <ele>1002.8</ele>
        <time>2018-11-26T02:57:18Z</time>
      </trkpt>
      <trkpt lat="42.09872" lon="2.27348">
        <ele>1002.7</ele>
        <time>2018-11-26T02:57:20Z</time>
      </trkpt>
      <trkpt lat="42.09873" lon="2.27351">
        <ele>1002.5</ele>
        <time>2018-11-26T02:57:21Z</time>
      </trkpt>
      <trkpt lat="42.09875" lon="2.27354">
        <ele>1000.6</ele>
        <time>2018-11-26T02:57:22Z</time>
      </trkpt>
      <trkpt lat="42.09877" lon="2.27357">
        <ele>1000.2</ele>
        <time>2018-11-26T02:57:23Z</time>
      </trkpt>
      <trkpt lat="42.09879" lon="2.27357">
        <ele>1000.2</ele>
        <time>2018-11-26T02:57:24Z</time>
      </trkpt>
      <trkpt lat="42.0988" lon="2.27359">
        <ele>999.5</ele>
        <time>2018-11-26T02:57:24Z</time>
      </trkpt>
      <trkpt lat="42.09883" lon="2.2736">
        <ele>997.5</ele>
        <time>2018-11-26T02:57:26Z</time>
      </trkpt>
      <trkpt lat="42.09885" lon="2.27362">
        <ele>997.5</ele>
        <time>2018-11-26T02:57:27Z</time>
      </trkpt>
      <trkpt lat="42.09886" lon="2.27365">
        <ele>997.1</ele>
        <time>2018-11-26T02:57:28Z</time>
      </trkpt>
      <trkpt lat="42.09892" lon="2.27373">
        <ele>995.4</ele>
        <time>2018-11-26T02:57:31Z</time>
      </trkpt>
      <trkpt lat="42.09894" lon="2.27376">
        <ele>995.3</ele>
        <time>2018-11-26T02:57:32Z</time>
      </trkpt>
      <trkpt lat="42.09896" lon="2.27379">
        <ele>994.5</ele>
        <time>2018-11-26T02:57:34Z</time>
      </trkpt>
      <trkpt lat="42.09898" lon="2.27383">
        <ele>994.5</ele>
        <time>2018-11-26T02:57:35Z</time>
      </trkpt>
      <trkpt lat="42.09899" lon="2.27384">
        <ele>994.1</ele>
        <time>2018-11-26T02:57:36Z</time>
      </trkpt>
      <trkpt lat="42.09901" lon="2.27387">
        <ele>994.2</ele>
        <time>2018-11-26T02:57:36Z</time>
      </trkpt>
      <trkpt lat="42.09902" lon="2.27389">
        <ele>994.2</ele>
        <time>2018-11-26T02:57:37Z</time>
      </trkpt>
      <trkpt lat="42.09905" lon="2.27392">
        <ele>993.7</ele>
        <time>2018-11-26T02:57:39Z</time>
      </trkpt>
      <trkpt lat="42.09907" lon="2.27394">
        <ele>992.7</ele>
        <time>2018-11-26T02:57:39Z</time>
      </trkpt>
      <trkpt lat="42.09898" lon="2.27386">
        <ele>990.2</ele>
        <time>2018-11-26T02:57:43Z</time>
      </trkpt>
      <trkpt lat="42.0989" lon="2.27377">
        <ele>989.6</ele>
        <time>2018-11-26T02:57:48Z</time>
      </trkpt>
      <trkpt lat="42.09889" lon="2.27365">
        <ele>988.6</ele>
        <time>2018-11-26T02:57:51Z</time>
      </trkpt>
      <trkpt lat="42.09883" lon="2.27355">
        <ele>987.6</ele>
        <time>2018-11-26T02:57:55Z</time>
      </trkpt>
      <trkpt lat="42.0988" lon="2.27342">
        <ele>986.8</ele>
        <time>2018-11-26T02:57:59Z</time>
      </trkpt>
      <trkpt lat="42.09876" lon="2.27329">
        <ele>986</ele>
        <time>2018-11-26T02:58:03Z</time>
      </trkpt>
      <trkpt lat="42.09872" lon="2.27316">
        <ele>985.3</ele>
        <time>2018-11-26T02:58:08Z</time>
      </trkpt>
      <trkpt lat="42.09868" lon="2.27304">
        <ele>984.8</ele>
        <time>2018-11-26T02:58:11Z</time>
      </trkpt>
      <trkpt lat="42.09865" lon="2.27292">
        <ele>983.8</ele>
        <time>2018-11-26T02:58:15Z</time>
      </trkpt>
      <trkpt lat="42.09861" lon="2.27278">
        <ele>982.2</ele>
        <time>2018-11-26T02:58:20Z</time>
      </trkpt>
      <trkpt lat="42.09859" lon="2.27265">
        <ele>982</ele>
        <time>2018-11-26T02:58:24Z</time>
      </trkpt>
      <trkpt lat="42.09857" lon="2.27251">
        <ele>980.3</ele>
        <time>2018-11-26T02:58:28Z</time>
      </trkpt>
      <trkpt lat="42.09853" lon="2.27239">
        <ele>980.5</ele>
        <time>2018-11-26T02:58:32Z</time>
      </trkpt>
      <trkpt lat="42.09849" lon="2.27227">
        <ele>979.4</ele>
        <time>2018-11-26T02:58:36Z</time>
      </trkpt>
      <trkpt lat="42.09845" lon="2.27216">
        <ele>977.5</ele>
        <time>2018-11-26T02:58:39Z</time>
      </trkpt>
      <trkpt lat="42.0984" lon="2.27205">
        <ele>977.6</ele>
        <time>2018-11-26T02:58:43Z</time>
      </trkpt>
      <trkpt lat="42.09834" lon="2.27195">
        <ele>976.1</ele>
        <time>2018-11-26T02:58:47Z</time>
      </trkpt>
      <trkpt lat="42.09832" lon="2.27193">
        <ele>975.7</ele>
        <time>2018-11-26T02:58:48Z</time>
      </trkpt>
      <trkpt lat="42.09831" lon="2.27191">
        <ele>975.7</ele>
        <time>2018-11-26T02:58:49Z</time>
      </trkpt>
      <trkpt lat="42.0983" lon="2.27188">
        <ele>975.5</ele>
        <time>2018-11-26T02:58:49Z</time>
      </trkpt>
      <trkpt lat="42.09828" lon="2.27185">
        <ele>975.3</ele>
        <time>2018-11-26T02:58:51Z</time>
      </trkpt>
      <trkpt lat="42.09827" lon="2.27182">
        <ele>975</ele>
        <time>2018-11-26T02:58:52Z</time>
      </trkpt>
      <trkpt lat="42.09825" lon="2.27179">
        <ele>974</ele>
        <time>2018-11-26T02:58:53Z</time>
      </trkpt>
      <trkpt lat="42.09824" lon="2.27176">
        <ele>973.6</ele>
        <time>2018-11-26T02:58:54Z</time>
      </trkpt>
      <trkpt lat="42.09824" lon="2.27173">
        <ele>973.5</ele>
        <time>2018-11-26T02:58:55Z</time>
      </trkpt>
      <trkpt lat="42.09824" lon="2.27169">
        <ele>973.2</ele>
        <time>2018-11-26T02:58:56Z</time>
      </trkpt>
      <trkpt lat="42.09824" lon="2.27166">
        <ele>973.3</ele>
        <time>2018-11-26T02:58:57Z</time>
      </trkpt>
      <trkpt lat="42.09824" lon="2.27162">
        <ele>971.6</ele>
        <time>2018-11-26T02:58:58Z</time>
      </trkpt>
      <trkpt lat="42.09826" lon="2.27161">
        <ele>971</ele>
        <time>2018-11-26T02:58:59Z</time>
      </trkpt>
      <trkpt lat="42.09829" lon="2.27159">
        <ele>970.8</ele>
        <time>2018-11-26T02:59:00Z</time>
      </trkpt>
      <trkpt lat="42.09831" lon="2.27158">
        <ele>970.2</ele>
        <time>2018-11-26T02:59:01Z</time>
      </trkpt>
      <trkpt lat="42.09833" lon="2.27157">
        <ele>969.5</ele>
        <time>2018-11-26T02:59:02Z</time>
      </trkpt>
      <trkpt lat="42.09835" lon="2.27157">
        <ele>969.2</ele>
        <time>2018-11-26T02:59:03Z</time>
      </trkpt>
      <trkpt lat="42.09839" lon="2.27159">
        <ele>969.2</ele>
        <time>2018-11-26T02:59:04Z</time>
      </trkpt>
      <trkpt lat="42.09841" lon="2.27161">
        <ele>968.5</ele>
        <time>2018-11-26T02:59:05Z</time>
      </trkpt>
      <trkpt lat="42.09842" lon="2.27163">
        <ele>968.1</ele>
        <time>2018-11-26T02:59:06Z</time>
      </trkpt>
      <trkpt lat="42.09845" lon="2.27166">
        <ele>967</ele>
        <time>2018-11-26T02:59:07Z</time>
      </trkpt>
      <trkpt lat="42.09846" lon="2.27168">
        <ele>967.1</ele>
        <time>2018-11-26T02:59:08Z</time>
      </trkpt>
      <trkpt lat="42.09848" lon="2.27171">
        <ele>967.1</ele>
        <time>2018-11-26T02:59:09Z</time>
      </trkpt>
      <trkpt lat="42.09849" lon="2.27175">
        <ele>967.4</ele>
        <time>2018-11-26T02:59:11Z</time>
      </trkpt>
      <trkpt lat="42.09849" lon="2.27177">
        <ele>967.5</ele>
        <time>2018-11-26T02:59:11Z</time>
      </trkpt>
      <trkpt lat="42.0985" lon="2.2718">
        <ele>967.3</ele>
        <time>2018-11-26T02:59:12Z</time>
      </trkpt>
      <trkpt lat="42.09854" lon="2.27184">
        <ele>966</ele>
        <time>2018-11-26T02:59:14Z</time>
      </trkpt>
      <trkpt lat="42.09856" lon="2.27186">
        <ele>965.3</ele>
        <time>2018-11-26T02:59:15Z</time>
      </trkpt>
      <trkpt lat="42.09858" lon="2.27187">
        <ele>965.1</ele>
        <time>2018-11-26T02:59:16Z</time>
      </trkpt>
      <trkpt lat="42.0986" lon="2.27189">
        <ele>964.5</ele>
        <time>2018-11-26T02:59:17Z</time>
      </trkpt>
      <trkpt lat="42.09861" lon="2.27193">
        <ele>964.5</ele>
        <time>2018-11-26T02:59:18Z</time>
      </trkpt>
      <trkpt lat="42.09861" lon="2.27199">
        <ele>963.6</ele>
        <time>2018-11-26T02:59:20Z</time>
      </trkpt>
      <trkpt lat="42.09866" lon="2.2721">
        <ele>963.6</ele>
        <time>2018-11-26T02:59:24Z</time>
      </trkpt>
      <trkpt lat="42.09868" lon="2.27214">
        <ele>963.2</ele>
        <time>2018-11-26T02:59:25Z</time>
      </trkpt>
      <trkpt lat="42.09874" lon="2.27223">
        <ele>962.7</ele>
        <time>2018-11-26T02:59:29Z</time>
      </trkpt>
      <trkpt lat="42.09879" lon="2.27234">
        <ele>962.2</ele>
        <time>2018-11-26T02:59:33Z</time>
      </trkpt>
      <trkpt lat="42.09886" lon="2.27244">
        <ele>961.8</ele>
        <time>2018-11-26T02:59:37Z</time>
      </trkpt>
      <trkpt lat="42.09887" lon="2.27247">
        <ele>961</ele>
        <time>2018-11-26T02:59:38Z</time>
      </trkpt>
      <trkpt lat="42.09888" lon="2.2725">
        <ele>961</ele>
        <time>2018-11-26T02:59:39Z</time>
      </trkpt>
      <trkpt lat="42.0989" lon="2.27253">
        <ele>960.4</ele>
        <time>2018-11-26T02:59:40Z</time>
      </trkpt>
      <trkpt lat="42.09892" lon="2.27255">
        <ele>960.1</ele>
        <time>2018-11-26T02:59:41Z</time>
      </trkpt>
      <trkpt lat="42.099" lon="2.27262">
        <ele>956.5</ele>
        <time>2018-11-26T02:59:45Z</time>
      </trkpt>
      <trkpt lat="42.09907" lon="2.2727">
        <ele>954.4</ele>
        <time>2018-11-26T02:59:49Z</time>
      </trkpt>
      <trkpt lat="42.09912" lon="2.27282">
        <ele>953</ele>
        <time>2018-11-26T02:59:53Z</time>
      </trkpt>
      <trkpt lat="42.09917" lon="2.27293">
        <ele>952.4</ele>
        <time>2018-11-26T02:59:56Z</time>
      </trkpt>
      <trkpt lat="42.09922" lon="2.27303">
        <ele>951</ele>
        <time>2018-11-26T03:00:00Z</time>
      </trkpt>
      <trkpt lat="42.09931" lon="2.27307">
        <ele>944.8</ele>
        <time>2018-11-26T03:00:04Z</time>
      </trkpt>
      <trkpt lat="42.09932" lon="2.2732">
        <ele>943.6</ele>
        <time>2018-11-26T03:00:08Z</time>
      </trkpt>
      <trkpt lat="42.0993" lon="2.27333">
        <ele>944.5</ele>
        <time>2018-11-26T03:00:12Z</time>
      </trkpt>
      <trkpt lat="42.0994" lon="2.27342">
        <ele>944.1</ele>
        <time>2018-11-26T03:00:16Z</time>
      </trkpt>
      <trkpt lat="42.09949" lon="2.27347">
        <ele>942.4</ele>
        <time>2018-11-26T03:00:20Z</time>
      </trkpt>
      <trkpt lat="42.09959" lon="2.27348">
        <ele>940.1</ele>
        <time>2018-11-26T03:00:24Z</time>
      </trkpt>
      <trkpt lat="42.09965" lon="2.27356">
        <ele>939.5</ele>
        <time>2018-11-26T03:00:28Z</time>
      </trkpt>
      <trkpt lat="42.09975" lon="2.2736">
        <ele>939</ele>
        <time>2018-11-26T03:00:32Z</time>
      </trkpt>
      <trkpt lat="42.09985" lon="2.27362">
        <ele>938.7</ele>
        <time>2018-11-26T03:00:36Z</time>
      </trkpt>
      <trkpt lat="42.09992" lon="2.27362">
        <ele>937.3</ele>
        <time>2018-11-26T03:00:39Z</time>
      </trkpt>
      <trkpt lat="42.09995" lon="2.27361">
        <ele>937</ele>
        <time>2018-11-26T03:00:40Z</time>
      </trkpt>
      <trkpt lat="42.09997" lon="2.27363">
        <ele>936.4</ele>
        <time>2018-11-26T03:00:41Z</time>
      </trkpt>
      <trkpt lat="42.09999" lon="2.27363">
        <ele>935.5</ele>
        <time>2018-11-26T03:00:42Z</time>
      </trkpt>
      <trkpt lat="42.10002" lon="2.27363">
        <ele>934.5</ele>
        <time>2018-11-26T03:00:43Z</time>
      </trkpt>
      <trkpt lat="42.10004" lon="2.27363">
        <ele>934.5</ele>
        <time>2018-11-26T03:00:43Z</time>
      </trkpt>
      <trkpt lat="42.10006" lon="2.27365">
        <ele>934.8</ele>
        <time>2018-11-26T03:00:44Z</time>
      </trkpt>
      <trkpt lat="42.10011" lon="2.27378">
        <ele>935.5</ele>
        <time>2018-11-26T03:00:49Z</time>
      </trkpt>
      <trkpt lat="42.10015" lon="2.27389">
        <ele>936.2</ele>
        <time>2018-11-26T03:00:53Z</time>
      </trkpt>
      <trkpt lat="42.10021" lon="2.27399">
        <ele>938.4</ele>
        <time>2018-11-26T03:00:56Z</time>
      </trkpt>
      <trkpt lat="42.10026" lon="2.27409">
        <ele>939.2</ele>
        <time>2018-11-26T03:01:00Z</time>
      </trkpt>
      <trkpt lat="42.10026" lon="2.27415">
        <ele>941.7</ele>
        <time>2018-11-26T03:01:02Z</time>
      </trkpt>
      <trkpt lat="42.10027" lon="2.2741">
        <ele>942.8</ele>
        <time>2018-11-26T03:01:03Z</time>
      </trkpt>
      <trkpt lat="42.10029" lon="2.27408">
        <ele>943</ele>
        <time>2018-11-26T03:01:04Z</time>
      </trkpt>
      <trkpt lat="42.10037" lon="2.27414">
        <ele>946.5</ele>
        <time>2018-11-26T03:01:08Z</time>
      </trkpt>
      <trkpt lat="42.1004" lon="2.27417">
        <ele>947.4</ele>
        <time>2018-11-26T03:01:09Z</time>
      </trkpt>
      <trkpt lat="42.10039" lon="2.27415">
        <ele>948.7</ele>
        <time>2018-11-26T03:01:10Z</time>
      </trkpt>
      <trkpt lat="42.10039" lon="2.27412">
        <ele>948.7</ele>
        <time>2018-11-26T03:01:11Z</time>
      </trkpt>
      <trkpt lat="42.10039" lon="2.27408">
        <ele>950</ele>
        <time>2018-11-26T03:01:12Z</time>
      </trkpt>
      <trkpt lat="42.10039" lon="2.27405">
        <ele>950.2</ele>
        <time>2018-11-26T03:01:13Z</time>
      </trkpt>
      <trkpt lat="42.1004" lon="2.27402">
        <ele>950.5</ele>
        <time>2018-11-26T03:01:14Z</time>
      </trkpt>
      <trkpt lat="42.1004" lon="2.27398">
        <ele>951.2</ele>
        <time>2018-11-26T03:01:15Z</time>
      </trkpt>
      <trkpt lat="42.1004" lon="2.27396">
        <ele>952</ele>
        <time>2018-11-26T03:01:16Z</time>
      </trkpt>
      <trkpt lat="42.10041" lon="2.27393">
        <ele>952.2</ele>
        <time>2018-11-26T03:01:17Z</time>
      </trkpt>
      <trkpt lat="42.10042" lon="2.2739">
        <ele>952.5</ele>
        <time>2018-11-26T03:01:18Z</time>
      </trkpt>
      <trkpt lat="42.10043" lon="2.27387">
        <ele>952.6</ele>
        <time>2018-11-26T03:01:19Z</time>
      </trkpt>
      <trkpt lat="42.10044" lon="2.27384">
        <ele>953</ele>
        <time>2018-11-26T03:01:20Z</time>
      </trkpt>
      <trkpt lat="42.10046" lon="2.27382">
        <ele>953</ele>
        <time>2018-11-26T03:01:21Z</time>
      </trkpt>
      <trkpt lat="42.10047" lon="2.2738">
        <ele>953.1</ele>
        <time>2018-11-26T03:01:22Z</time>
      </trkpt>
      <trkpt lat="42.10049" lon="2.27378">
        <ele>952.4</ele>
        <time>2018-11-26T03:01:22Z</time>
      </trkpt>
      <trkpt lat="42.1005" lon="2.27375">
        <ele>952.3</ele>
        <time>2018-11-26T03:01:23Z</time>
      </trkpt>
      <trkpt lat="42.10051" lon="2.27373">
        <ele>952</ele>
        <time>2018-11-26T03:01:24Z</time>
      </trkpt>
      <trkpt lat="42.10053" lon="2.27372">
        <ele>952.4</ele>
        <time>2018-11-26T03:01:25Z</time>
      </trkpt>
      <trkpt lat="42.1006" lon="2.27364">
        <ele>952.5</ele>
        <time>2018-11-26T03:01:28Z</time>
      </trkpt>
      <trkpt lat="42.10068" lon="2.27358">
        <ele>953.7</ele>
        <time>2018-11-26T03:01:32Z</time>
      </trkpt>
      <trkpt lat="42.1007" lon="2.27355">
        <ele>955.2</ele>
        <time>2018-11-26T03:01:33Z</time>
      </trkpt>
      <trkpt lat="42.10071" lon="2.27353">
        <ele>955.4</ele>
        <time>2018-11-26T03:01:34Z</time>
      </trkpt>
      <trkpt lat="42.10074" lon="2.27354">
        <ele>956.3</ele>
        <time>2018-11-26T03:01:35Z</time>
      </trkpt>
      <trkpt lat="42.10076" lon="2.27353">
        <ele>956.5</ele>
        <time>2018-11-26T03:01:36Z</time>
      </trkpt>
      <trkpt lat="42.10075" lon="2.27346">
        <ele>956.7</ele>
        <time>2018-11-26T03:01:38Z</time>
      </trkpt>
      <trkpt lat="42.10077" lon="2.27344">
        <ele>957</ele>
        <time>2018-11-26T03:01:39Z</time>
      </trkpt>
      <trkpt lat="42.10078" lon="2.27341">
        <ele>958.1</ele>
        <time>2018-11-26T03:01:40Z</time>
      </trkpt>
      <trkpt lat="42.1008" lon="2.27339">
        <ele>958.2</ele>
        <time>2018-11-26T03:01:41Z</time>
      </trkpt>
      <trkpt lat="42.10081" lon="2.27337">
        <ele>958.3</ele>
        <time>2018-11-26T03:01:42Z</time>
      </trkpt>
      <trkpt lat="42.10083" lon="2.27334">
        <ele>958.5</ele>
        <time>2018-11-26T03:01:43Z</time>
      </trkpt>
      <trkpt lat="42.10083" lon="2.27332">
        <ele>958.7</ele>
        <time>2018-11-26T03:01:44Z</time>
      </trkpt>
      <trkpt lat="42.10084" lon="2.27328">
        <ele>960</ele>
        <time>2018-11-26T03:01:45Z</time>
      </trkpt>
      <trkpt lat="42.10084" lon="2.27325">
        <ele>960</ele>
        <time>2018-11-26T03:01:46Z</time>
      </trkpt>
      <trkpt lat="42.10092" lon="2.27333">
        <ele>965.4</ele>
        <time>2018-11-26T03:01:50Z</time>
      </trkpt>
      <trkpt lat="42.10098" lon="2.27342">
        <ele>966</ele>
        <time>2018-11-26T03:01:54Z</time>
      </trkpt>
      <trkpt lat="42.10106" lon="2.27351">
        <ele>966.7</ele>
        <time>2018-11-26T03:01:58Z</time>
      </trkpt>
      <trkpt lat="42.10114" lon="2.27359">
        <ele>967.1</ele>
        <time>2018-11-26T03:02:02Z</time>
      </trkpt>
      <trkpt lat="42.10122" lon="2.27365">
        <ele>967</ele>
        <time>2018-11-26T03:02:05Z</time>
      </trkpt>
      <trkpt lat="42.1013" lon="2.27371">
        <ele>967.5</ele>
        <time>2018-11-26T03:02:09Z</time>
      </trkpt>
      <trkpt lat="42.10132" lon="2.27376">
        <ele>968.2</ele>
        <time>2018-11-26T03:02:11Z</time>
      </trkpt>
      <trkpt lat="42.10134" lon="2.27377">
        <ele>968.6</ele>
        <time>2018-11-26T03:02:12Z</time>
      </trkpt>
      <trkpt lat="42.10136" lon="2.27377">
        <ele>968.5</ele>
        <time>2018-11-26T03:02:12Z</time>
      </trkpt>
      <trkpt lat="42.10146" lon="2.2738">
        <ele>969.5</ele>
        <time>2018-11-26T03:02:16Z</time>
      </trkpt>
      <trkpt lat="42.10155" lon="2.27383">
        <ele>969.7</ele>
        <time>2018-11-26T03:02:20Z</time>
      </trkpt>
      <trkpt lat="42.10163" lon="2.27388">
        <ele>970.4</ele>
        <time>2018-11-26T03:02:24Z</time>
      </trkpt>
      <trkpt lat="42.10165" lon="2.27388">
        <ele>970.5</ele>
        <time>2018-11-26T03:02:24Z</time>
      </trkpt>
      <trkpt lat="42.10166" lon="2.27391">
        <ele>970.7</ele>
        <time>2018-11-26T03:02:25Z</time>
      </trkpt>
      <trkpt lat="42.10174" lon="2.27397">
        <ele>971.5</ele>
        <time>2018-11-26T03:02:29Z</time>
      </trkpt>
      <trkpt lat="42.10182" lon="2.274">
        <ele>971.6</ele>
        <time>2018-11-26T03:02:32Z</time>
      </trkpt>
      <trkpt lat="42.10185" lon="2.27402">
        <ele>971.4</ele>
        <time>2018-11-26T03:02:34Z</time>
      </trkpt>
      <trkpt lat="42.10187" lon="2.27403">
        <ele>971.5</ele>
        <time>2018-11-26T03:02:35Z</time>
      </trkpt>
      <trkpt lat="42.10189" lon="2.27405">
        <ele>971.4</ele>
        <time>2018-11-26T03:02:36Z</time>
      </trkpt>
      <trkpt lat="42.10192" lon="2.27406">
        <ele>971.5</ele>
        <time>2018-11-26T03:02:37Z</time>
      </trkpt>
      <trkpt lat="42.10194" lon="2.27407">
        <ele>971.7</ele>
        <time>2018-11-26T03:02:38Z</time>
      </trkpt>
      <trkpt lat="42.10196" lon="2.27408">
        <ele>971.7</ele>
        <time>2018-11-26T03:02:38Z</time>
      </trkpt>
      <trkpt lat="42.10198" lon="2.27409">
        <ele>971.7</ele>
        <time>2018-11-26T03:02:39Z</time>
      </trkpt>
      <trkpt lat="42.10206" lon="2.2741">
        <ele>973.4</ele>
        <time>2018-11-26T03:02:43Z</time>
      </trkpt>
      <trkpt lat="42.10208" lon="2.2741">
        <ele>973.8</ele>
        <time>2018-11-26T03:02:43Z</time>
      </trkpt>
      <trkpt lat="42.10211" lon="2.2741">
        <ele>974.5</ele>
        <time>2018-11-26T03:02:44Z</time>
      </trkpt>
      <trkpt lat="42.10213" lon="2.2741">
        <ele>975.3</ele>
        <time>2018-11-26T03:02:45Z</time>
      </trkpt>
      <trkpt lat="42.10215" lon="2.2741">
        <ele>975.6</ele>
        <time>2018-11-26T03:02:46Z</time>
      </trkpt>
      <trkpt lat="42.10217" lon="2.27409">
        <ele>976.2</ele>
        <time>2018-11-26T03:02:47Z</time>
      </trkpt>
      <trkpt lat="42.10219" lon="2.27409">
        <ele>976.3</ele>
        <time>2018-11-26T03:02:48Z</time>
      </trkpt>
      <trkpt lat="42.10222" lon="2.27408">
        <ele>976.5</ele>
        <time>2018-11-26T03:02:49Z</time>
      </trkpt>
      <trkpt lat="42.10223" lon="2.27405">
        <ele>976.3</ele>
        <time>2018-11-26T03:02:50Z</time>
      </trkpt>
      <trkpt lat="42.10224" lon="2.27402">
        <ele>976.5</ele>
        <time>2018-11-26T03:02:51Z</time>
      </trkpt>
      <trkpt lat="42.10225" lon="2.27399">
        <ele>977.2</ele>
        <time>2018-11-26T03:02:52Z</time>
      </trkpt>
      <trkpt lat="42.10227" lon="2.27397">
        <ele>977.5</ele>
        <time>2018-11-26T03:02:53Z</time>
      </trkpt>
      <trkpt lat="42.10228" lon="2.27395">
        <ele>978.2</ele>
        <time>2018-11-26T03:02:54Z</time>
      </trkpt>
      <trkpt lat="42.1023" lon="2.27393">
        <ele>979.3</ele>
        <time>2018-11-26T03:02:55Z</time>
      </trkpt>
      <trkpt lat="42.10231" lon="2.27391">
        <ele>979.3</ele>
        <time>2018-11-26T03:02:55Z</time>
      </trkpt>
      <trkpt lat="42.10233" lon="2.27389">
        <ele>980</ele>
        <time>2018-11-26T03:02:56Z</time>
      </trkpt>
      <trkpt lat="42.10236" lon="2.27387">
        <ele>980.3</ele>
        <time>2018-11-26T03:02:57Z</time>
      </trkpt>
      <trkpt lat="42.10237" lon="2.27386">
        <ele>980.1</ele>
        <time>2018-11-26T03:02:58Z</time>
      </trkpt>
      <trkpt lat="42.10239" lon="2.27384">
        <ele>980.3</ele>
        <time>2018-11-26T03:02:59Z</time>
      </trkpt>
      <trkpt lat="42.10241" lon="2.27382">
        <ele>980.8</ele>
        <time>2018-11-26T03:03:00Z</time>
      </trkpt>
      <trkpt lat="42.10243" lon="2.27379">
        <ele>981</ele>
        <time>2018-11-26T03:03:01Z</time>
      </trkpt>
      <trkpt lat="42.10245" lon="2.27377">
        <ele>981.2</ele>
        <time>2018-11-26T03:03:02Z</time>
      </trkpt>
      <trkpt lat="42.10246" lon="2.27375">
        <ele>981.2</ele>
        <time>2018-11-26T03:03:03Z</time>
      </trkpt>
      <trkpt lat="42.10248" lon="2.27373">
        <ele>981.4</ele>
        <time>2018-11-26T03:03:04Z</time>
      </trkpt>
      <trkpt lat="42.10249" lon="2.2737">
        <ele>981.5</ele>
        <time>2018-11-26T03:03:05Z</time>
      </trkpt>
      <trkpt lat="42.10251" lon="2.27367">
        <ele>982</ele>
        <time>2018-11-26T03:03:06Z</time>
      </trkpt>
      <trkpt lat="42.10252" lon="2.27366">
        <ele>982.5</ele>
        <time>2018-11-26T03:03:07Z</time>
      </trkpt>
      <trkpt lat="42.10252" lon="2.27363">
        <ele>983.1</ele>
        <time>2018-11-26T03:03:07Z</time>
      </trkpt>
      <trkpt lat="42.10254" lon="2.27361">
        <ele>984.4</ele>
        <time>2018-11-26T03:03:08Z</time>
      </trkpt>
      <trkpt lat="42.10255" lon="2.2736">
        <ele>985.6</ele>
        <time>2018-11-26T03:03:09Z</time>
      </trkpt>
      <trkpt lat="42.10257" lon="2.2736">
        <ele>985.1</ele>
        <time>2018-11-26T03:03:10Z</time>
      </trkpt>
      <trkpt lat="42.10256" lon="2.27358">
        <ele>984.4</ele>
        <time>2018-11-26T03:03:10Z</time>
      </trkpt>
      <trkpt lat="42.10254" lon="2.27359">
        <ele>982.3</ele>
        <time>2018-11-26T03:03:11Z</time>
      </trkpt>
      <trkpt lat="42.10255" lon="2.27361">
        <ele>981.8</ele>
        <time>2018-11-26T03:03:12Z</time>
      </trkpt>
      <trkpt lat="42.10257" lon="2.27361">
        <ele>981.5</ele>
        <time>2018-11-26T03:03:13Z</time>
      </trkpt>
      <trkpt lat="42.10259" lon="2.2736">
        <ele>981.5</ele>
        <time>2018-11-26T03:03:13Z</time>
      </trkpt>
      <trkpt lat="42.10261" lon="2.2736">
        <ele>981.5</ele>
        <time>2018-11-26T03:03:14Z</time>
      </trkpt>
      <trkpt lat="42.10263" lon="2.27358">
        <ele>981.5</ele>
        <time>2018-11-26T03:03:15Z</time>
      </trkpt>
      <trkpt lat="42.10264" lon="2.27356">
        <ele>981.5</ele>
        <time>2018-11-26T03:03:16Z</time>
      </trkpt>
      <trkpt lat="42.10264" lon="2.27353">
        <ele>981.6</ele>
        <time>2018-11-26T03:03:17Z</time>
      </trkpt>
      <trkpt lat="42.10266" lon="2.27351">
        <ele>981.5</ele>
        <time>2018-11-26T03:03:18Z</time>
      </trkpt>
      <trkpt lat="42.10267" lon="2.27348">
        <ele>985.3</ele>
        <time>2018-11-26T03:03:19Z</time>
      </trkpt>
      <trkpt lat="42.10269" lon="2.27346">
        <ele>985.5</ele>
        <time>2018-11-26T03:03:20Z</time>
      </trkpt>
      <trkpt lat="42.1027" lon="2.27343">
        <ele>985.6</ele>
        <time>2018-11-26T03:03:21Z</time>
      </trkpt>
      <trkpt lat="42.10272" lon="2.27342">
        <ele>987.1</ele>
        <time>2018-11-26T03:03:21Z</time>
      </trkpt>
      <trkpt lat="42.10274" lon="2.2734">
        <ele>987</ele>
        <time>2018-11-26T03:03:22Z</time>
      </trkpt>
      <trkpt lat="42.10275" lon="2.27338">
        <ele>987.5</ele>
        <time>2018-11-26T03:03:23Z</time>
      </trkpt>
      <trkpt lat="42.10276" lon="2.27336">
        <ele>988.2</ele>
        <time>2018-11-26T03:03:24Z</time>
      </trkpt>
      <trkpt lat="42.10278" lon="2.27333">
        <ele>988.4</ele>
        <time>2018-11-26T03:03:25Z</time>
      </trkpt>
      <trkpt lat="42.1028" lon="2.27331">
        <ele>988.7</ele>
        <time>2018-11-26T03:03:26Z</time>
      </trkpt>
      <trkpt lat="42.10282" lon="2.27329">
        <ele>989.4</ele>
        <time>2018-11-26T03:03:27Z</time>
      </trkpt>
      <trkpt lat="42.10284" lon="2.27326">
        <ele>990.2</ele>
        <time>2018-11-26T03:03:28Z</time>
      </trkpt>
      <trkpt lat="42.10285" lon="2.27323">
        <ele>990.4</ele>
        <time>2018-11-26T03:03:29Z</time>
      </trkpt>
      <trkpt lat="42.10287" lon="2.27322">
        <ele>990.2</ele>
        <time>2018-11-26T03:03:30Z</time>
      </trkpt>
      <trkpt lat="42.10289" lon="2.27321">
        <ele>990.5</ele>
        <time>2018-11-26T03:03:30Z</time>
      </trkpt>
      <trkpt lat="42.1029" lon="2.27321">
        <ele>990.5</ele>
        <time>2018-11-26T03:03:31Z</time>
      </trkpt>
      <trkpt lat="42.10292" lon="2.27319">
        <ele>991.1</ele>
        <time>2018-11-26T03:03:32Z</time>
      </trkpt>
      <trkpt lat="42.10297" lon="2.27316">
        <ele>992.8</ele>
        <time>2018-11-26T03:03:34Z</time>
      </trkpt>
      <trkpt lat="42.103" lon="2.27316">
        <ele>993.5</ele>
        <time>2018-11-26T03:03:35Z</time>
      </trkpt>
      <trkpt lat="42.10301" lon="2.27315">
        <ele>994.5</ele>
        <time>2018-11-26T03:03:36Z</time>
      </trkpt>
      <trkpt lat="42.10303" lon="2.27313">
        <ele>995.4</ele>
        <time>2018-11-26T03:03:37Z</time>
      </trkpt>
      <trkpt lat="42.10304" lon="2.2731">
        <ele>995.5</ele>
        <time>2018-11-26T03:03:38Z</time>
      </trkpt>
      <trkpt lat="42.10306" lon="2.2731">
        <ele>997.2</ele>
        <time>2018-11-26T03:03:39Z</time>
      </trkpt>
      <trkpt lat="42.10308" lon="2.27312">
        <ele>996.5</ele>
        <time>2018-11-26T03:03:39Z</time>
      </trkpt>
      <trkpt lat="42.1031" lon="2.27313">
        <ele>998.1</ele>
        <time>2018-11-26T03:03:40Z</time>
      </trkpt>
      <trkpt lat="42.10311" lon="2.27314">
        <ele>998.4</ele>
        <time>2018-11-26T03:03:41Z</time>
      </trkpt>
      <trkpt lat="42.10313" lon="2.27312">
        <ele>999</ele>
        <time>2018-11-26T03:03:42Z</time>
      </trkpt>
      <trkpt lat="42.10315" lon="2.27311">
        <ele>1000.1</ele>
        <time>2018-11-26T03:03:43Z</time>
      </trkpt>
      <trkpt lat="42.10317" lon="2.27312">
        <ele>1000.6</ele>
        <time>2018-11-26T03:03:44Z</time>
      </trkpt>
      <trkpt lat="42.10319" lon="2.27311">
        <ele>1001</ele>
        <time>2018-11-26T03:03:44Z</time>
      </trkpt>
      <trkpt lat="42.10321" lon="2.27311">
        <ele>1001.4</ele>
        <time>2018-11-26T03:03:45Z</time>
      </trkpt>
      <trkpt lat="42.10323" lon="2.2731">
        <ele>1002.5</ele>
        <time>2018-11-26T03:03:46Z</time>
      </trkpt>
      <trkpt lat="42.10325" lon="2.27309">
        <ele>1003</ele>
        <time>2018-11-26T03:03:47Z</time>
      </trkpt>
      <trkpt lat="42.10327" lon="2.27307">
        <ele>1004</ele>
        <time>2018-11-26T03:03:48Z</time>
      </trkpt>
      <trkpt lat="42.10329" lon="2.27306">
        <ele>1004.2</ele>
        <time>2018-11-26T03:03:49Z</time>
      </trkpt>
      <trkpt lat="42.10331" lon="2.27304">
        <ele>1005.8</ele>
        <time>2018-11-26T03:03:50Z</time>
      </trkpt>
      <trkpt lat="42.10334" lon="2.27304">
        <ele>1006</ele>
        <time>2018-11-26T03:03:51Z</time>
      </trkpt>
      <trkpt lat="42.10336" lon="2.27306">
        <ele>1007.5</ele>
        <time>2018-11-26T03:03:52Z</time>
      </trkpt>
      <trkpt lat="42.10338" lon="2.27308">
        <ele>1007.7</ele>
        <time>2018-11-26T03:03:53Z</time>
      </trkpt>
      <trkpt lat="42.1034" lon="2.27311">
        <ele>1007.2</ele>
        <time>2018-11-26T03:03:54Z</time>
      </trkpt>
      <trkpt lat="42.10342" lon="2.27314">
        <ele>1006.5</ele>
        <time>2018-11-26T03:03:55Z</time>
      </trkpt>
      <trkpt lat="42.10343" lon="2.27316">
        <ele>1005.8</ele>
        <time>2018-11-26T03:03:56Z</time>
      </trkpt>
      <trkpt lat="42.10344" lon="2.27317">
        <ele>1005.3</ele>
        <time>2018-11-26T03:03:57Z</time>
      </trkpt>
      <trkpt lat="42.10347" lon="2.27319">
        <ele>1005</ele>
        <time>2018-11-26T03:03:58Z</time>
      </trkpt>
      <trkpt lat="42.10349" lon="2.27321">
        <ele>1004.2</ele>
        <time>2018-11-26T03:03:59Z</time>
      </trkpt>
      <trkpt lat="42.10351" lon="2.27323">
        <ele>1003.5</ele>
        <time>2018-11-26T03:04:00Z</time>
      </trkpt>
      <trkpt lat="42.10352" lon="2.27324">
        <ele>1002.2</ele>
        <time>2018-11-26T03:04:01Z</time>
      </trkpt>
      <trkpt lat="42.10355" lon="2.27326">
        <ele>1001.5</ele>
        <time>2018-11-26T03:04:02Z</time>
      </trkpt>
      <trkpt lat="42.10356" lon="2.27328">
        <ele>1000.8</ele>
        <time>2018-11-26T03:04:02Z</time>
      </trkpt>
      <trkpt lat="42.10358" lon="2.2733">
        <ele>1000.3</ele>
        <time>2018-11-26T03:04:03Z</time>
      </trkpt>
      <trkpt lat="42.1036" lon="2.27333">
        <ele>999.6</ele>
        <time>2018-11-26T03:04:05Z</time>
      </trkpt>
      <trkpt lat="42.10362" lon="2.27334">
        <ele>999.1</ele>
        <time>2018-11-26T03:04:05Z</time>
      </trkpt>
      <trkpt lat="42.10364" lon="2.27335">
        <ele>997.5</ele>
        <time>2018-11-26T03:04:06Z</time>
      </trkpt>
      <trkpt lat="42.10365" lon="2.27338">
        <ele>997.3</ele>
        <time>2018-11-26T03:04:07Z</time>
      </trkpt>
      <trkpt lat="42.10367" lon="2.27343">
        <ele>996.3</ele>
        <time>2018-11-26T03:04:09Z</time>
      </trkpt>
      <trkpt lat="42.10369" lon="2.27345">
        <ele>995.5</ele>
        <time>2018-11-26T03:04:10Z</time>
      </trkpt>
      <trkpt lat="42.10371" lon="2.27346">
        <ele>995.4</ele>
        <time>2018-11-26T03:04:11Z</time>
      </trkpt>
      <trkpt lat="42.10373" lon="2.27346">
        <ele>995.1</ele>
        <time>2018-11-26T03:04:12Z</time>
      </trkpt>
      <trkpt lat="42.10377" lon="2.27347">
        <ele>993.1</ele>
        <time>2018-11-26T03:04:13Z</time>
      </trkpt>
      <trkpt lat="42.10386" lon="2.27345">
        <ele>991.5</ele>
        <time>2018-11-26T03:04:17Z</time>
      </trkpt>
      <trkpt lat="42.10389" lon="2.27343">
        <ele>991.3</ele>
        <time>2018-11-26T03:04:18Z</time>
      </trkpt>
      <trkpt lat="42.1039" lon="2.27338">
        <ele>991.3</ele>
        <time>2018-11-26T03:04:20Z</time>
      </trkpt>
      <trkpt lat="42.10392" lon="2.27336">
        <ele>991.3</ele>
        <time>2018-11-26T03:04:21Z</time>
      </trkpt>
      <trkpt lat="42.10394" lon="2.27336">
        <ele>990.5</ele>
        <time>2018-11-26T03:04:21Z</time>
      </trkpt>
      <trkpt lat="42.10396" lon="2.27335">
        <ele>989.7</ele>
        <time>2018-11-26T03:04:22Z</time>
      </trkpt>
      <trkpt lat="42.10398" lon="2.27335">
        <ele>989.1</ele>
        <time>2018-11-26T03:04:23Z</time>
      </trkpt>
      <trkpt lat="42.104" lon="2.27334">
        <ele>988.4</ele>
        <time>2018-11-26T03:04:24Z</time>
      </trkpt>
      <trkpt lat="42.10401" lon="2.27331">
        <ele>987.5</ele>
        <time>2018-11-26T03:04:25Z</time>
      </trkpt>
      <trkpt lat="42.10403" lon="2.27328">
        <ele>987.5</ele>
        <time>2018-11-26T03:04:26Z</time>
      </trkpt>
      <trkpt lat="42.10406" lon="2.27327">
        <ele>987.1</ele>
        <time>2018-11-26T03:04:27Z</time>
      </trkpt>
      <trkpt lat="42.10408" lon="2.27325">
        <ele>986.1</ele>
        <time>2018-11-26T03:04:28Z</time>
      </trkpt>
      <trkpt lat="42.10411" lon="2.27323">
        <ele>985.4</ele>
        <time>2018-11-26T03:04:30Z</time>
      </trkpt>
      <trkpt lat="42.10414" lon="2.27322">
        <ele>984.3</ele>
        <time>2018-11-26T03:04:31Z</time>
      </trkpt>
      <trkpt lat="42.10417" lon="2.27321">
        <ele>983.8</ele>
        <time>2018-11-26T03:04:32Z</time>
      </trkpt>
      <trkpt lat="42.10419" lon="2.2732">
        <ele>983.7</ele>
        <time>2018-11-26T03:04:33Z</time>
      </trkpt>
      <trkpt lat="42.10423" lon="2.27321">
        <ele>984.1</ele>
        <time>2018-11-26T03:04:35Z</time>
      </trkpt>
      <trkpt lat="42.10426" lon="2.27322">
        <ele>984.4</ele>
        <time>2018-11-26T03:04:36Z</time>
      </trkpt>
      <trkpt lat="42.10428" lon="2.27322">
        <ele>984</ele>
        <time>2018-11-26T03:04:37Z</time>
      </trkpt>
      <trkpt lat="42.1043" lon="2.27323">
        <ele>983.8</ele>
        <time>2018-11-26T03:04:38Z</time>
      </trkpt>
      <trkpt lat="42.10432" lon="2.27321">
        <ele>983.7</ele>
        <time>2018-11-26T03:04:38Z</time>
      </trkpt>
      <trkpt lat="42.10434" lon="2.2732">
        <ele>983.4</ele>
        <time>2018-11-26T03:04:39Z</time>
      </trkpt>
      <trkpt lat="42.10435" lon="2.27322">
        <ele>981.3</ele>
        <time>2018-11-26T03:04:40Z</time>
      </trkpt>
      <trkpt lat="42.10437" lon="2.27321">
        <ele>982.1</ele>
        <time>2018-11-26T03:04:41Z</time>
      </trkpt>
      <trkpt lat="42.10439" lon="2.27319">
        <ele>981.3</ele>
        <time>2018-11-26T03:04:42Z</time>
      </trkpt>
      <trkpt lat="42.10441" lon="2.27321">
        <ele>980.2</ele>
        <time>2018-11-26T03:04:43Z</time>
      </trkpt>
      <trkpt lat="42.10442" lon="2.27325">
        <ele>979.5</ele>
        <time>2018-11-26T03:04:44Z</time>
      </trkpt>
      <trkpt lat="42.10443" lon="2.27327">
        <ele>978.8</ele>
        <time>2018-11-26T03:04:45Z</time>
      </trkpt>
      <trkpt lat="42.10445" lon="2.27329">
        <ele>977.6</ele>
        <time>2018-11-26T03:04:46Z</time>
      </trkpt>
      <trkpt lat="42.10446" lon="2.27332">
        <ele>977.2</ele>
        <time>2018-11-26T03:04:47Z</time>
      </trkpt>
      <trkpt lat="42.10447" lon="2.27334">
        <ele>977.3</ele>
        <time>2018-11-26T03:04:47Z</time>
      </trkpt>
      <trkpt lat="42.10449" lon="2.27337">
        <ele>976.1</ele>
        <time>2018-11-26T03:04:49Z</time>
      </trkpt>
      <trkpt lat="42.10452" lon="2.27343">
        <ele>975.5</ele>
        <time>2018-11-26T03:04:51Z</time>
      </trkpt>
      <trkpt lat="42.10457" lon="2.27347">
        <ele>973.2</ele>
        <time>2018-11-26T03:04:53Z</time>
      </trkpt>
      <trkpt lat="42.1046" lon="2.27348">
        <ele>973.3</ele>
        <time>2018-11-26T03:04:54Z</time>
      </trkpt>
      <trkpt lat="42.10462" lon="2.27349">
        <ele>973.3</ele>
        <time>2018-11-26T03:04:55Z</time>
      </trkpt>
      <trkpt lat="42.10465" lon="2.2735">
        <ele>971.8</ele>
        <time>2018-11-26T03:04:56Z</time>
      </trkpt>
      <trkpt lat="42.10467" lon="2.2735">
        <ele>971.7</ele>
        <time>2018-11-26T03:04:57Z</time>
      </trkpt>
      <trkpt lat="42.1047" lon="2.2735">
        <ele>971.7</ele>
        <time>2018-11-26T03:04:58Z</time>
      </trkpt>
      <trkpt lat="42.10474" lon="2.2735">
        <ele>971.8</ele>
        <time>2018-11-26T03:05:00Z</time>
      </trkpt>
      <trkpt lat="42.10477" lon="2.27351">
        <ele>971.1</ele>
        <time>2018-11-26T03:05:01Z</time>
      </trkpt>
      <trkpt lat="42.10479" lon="2.27351">
        <ele>970.2</ele>
        <time>2018-11-26T03:05:02Z</time>
      </trkpt>
      <trkpt lat="42.10481" lon="2.27351">
        <ele>970</ele>
        <time>2018-11-26T03:05:03Z</time>
      </trkpt>
      <trkpt lat="42.10483" lon="2.27352">
        <ele>969.6</ele>
        <time>2018-11-26T03:05:04Z</time>
      </trkpt>
      <trkpt lat="42.10486" lon="2.27353">
        <ele>969.4</ele>
        <time>2018-11-26T03:05:05Z</time>
      </trkpt>
      <trkpt lat="42.10488" lon="2.27355">
        <ele>969.2</ele>
        <time>2018-11-26T03:05:06Z</time>
      </trkpt>
      <trkpt lat="42.1049" lon="2.27357">
        <ele>968.3</ele>
        <time>2018-11-26T03:05:07Z</time>
      </trkpt>
      <trkpt lat="42.10492" lon="2.27361">
        <ele>967.5</ele>
        <time>2018-11-26T03:05:08Z</time>
      </trkpt>
      <trkpt lat="42.10495" lon="2.27365">
        <ele>966.8</ele>
        <time>2018-11-26T03:05:10Z</time>
      </trkpt>
      <trkpt lat="42.10497" lon="2.27367">
        <ele>966.2</ele>
        <time>2018-11-26T03:05:11Z</time>
      </trkpt>
      <trkpt lat="42.10498" lon="2.27365">
        <ele>965.2</ele>
        <time>2018-11-26T03:05:12Z</time>
      </trkpt>
      <trkpt lat="42.10498" lon="2.27362">
        <ele>964.1</ele>
        <time>2018-11-26T03:05:12Z</time>
      </trkpt>
      <trkpt lat="42.10496" lon="2.2736">
        <ele>963.8</ele>
        <time>2018-11-26T03:05:13Z</time>
      </trkpt>
      <trkpt lat="42.10495" lon="2.27356">
        <ele>963.1</ele>
        <time>2018-11-26T03:05:14Z</time>
      </trkpt>
      <trkpt lat="42.10496" lon="2.27353">
        <ele>962.1</ele>
        <time>2018-11-26T03:05:16Z</time>
      </trkpt>
      <trkpt lat="42.10498" lon="2.27352">
        <ele>960.7</ele>
        <time>2018-11-26T03:05:16Z</time>
      </trkpt>
      <trkpt lat="42.105" lon="2.27352">
        <ele>960.5</ele>
        <time>2018-11-26T03:05:17Z</time>
      </trkpt>
      <trkpt lat="42.10502" lon="2.27352">
        <ele>959.5</ele>
        <time>2018-11-26T03:05:18Z</time>
      </trkpt>
      <trkpt lat="42.10504" lon="2.27354">
        <ele>958.8</ele>
        <time>2018-11-26T03:05:19Z</time>
      </trkpt>
      <trkpt lat="42.10505" lon="2.27357">
        <ele>958.5</ele>
        <time>2018-11-26T03:05:20Z</time>
      </trkpt>
      <trkpt lat="42.10506" lon="2.27361">
        <ele>957.6</ele>
        <time>2018-11-26T03:05:21Z</time>
      </trkpt>
      <trkpt lat="42.10507" lon="2.27364">
        <ele>957.3</ele>
        <time>2018-11-26T03:05:22Z</time>
      </trkpt>
      <trkpt lat="42.1051" lon="2.27366">
        <ele>957.1</ele>
        <time>2018-11-26T03:05:23Z</time>
      </trkpt>
      <trkpt lat="42.10512" lon="2.27367">
        <ele>956.5</ele>
        <time>2018-11-26T03:05:24Z</time>
      </trkpt>
      <trkpt lat="42.10515" lon="2.27368">
        <ele>956.3</ele>
        <time>2018-11-26T03:05:25Z</time>
      </trkpt>
      <trkpt lat="42.10517" lon="2.2737">
        <ele>955.7</ele>
        <time>2018-11-26T03:05:27Z</time>
      </trkpt>
      <trkpt lat="42.10519" lon="2.2737">
        <ele>953.5</ele>
        <time>2018-11-26T03:05:27Z</time>
      </trkpt>
      <trkpt lat="42.10521" lon="2.27368">
        <ele>952.6</ele>
        <time>2018-11-26T03:05:28Z</time>
      </trkpt>
      <trkpt lat="42.10523" lon="2.27371">
        <ele>952.4</ele>
        <time>2018-11-26T03:05:29Z</time>
      </trkpt>
      <trkpt lat="42.10525" lon="2.27374">
        <ele>952.2</ele>
        <time>2018-11-26T03:05:31Z</time>
      </trkpt>
      <trkpt lat="42.10527" lon="2.27377">
        <ele>950.8</ele>
        <time>2018-11-26T03:05:32Z</time>
      </trkpt>
      <trkpt lat="42.10529" lon="2.2738">
        <ele>950.3</ele>
        <time>2018-11-26T03:05:33Z</time>
      </trkpt>
      <trkpt lat="42.1053" lon="2.27382">
        <ele>950</ele>
        <time>2018-11-26T03:05:34Z</time>
      </trkpt>
      <trkpt lat="42.10533" lon="2.27385">
        <ele>949.7</ele>
        <time>2018-11-26T03:05:35Z</time>
      </trkpt>
      <trkpt lat="42.10535" lon="2.27388">
        <ele>949.1</ele>
        <time>2018-11-26T03:05:36Z</time>
      </trkpt>
      <trkpt lat="42.10536" lon="2.27391">
        <ele>949</ele>
        <time>2018-11-26T03:05:38Z</time>
      </trkpt>
      <trkpt lat="42.10537" lon="2.27395">
        <ele>948.6</ele>
        <time>2018-11-26T03:05:39Z</time>
      </trkpt>
      <trkpt lat="42.10539" lon="2.27396">
        <ele>947.6</ele>
        <time>2018-11-26T03:05:39Z</time>
      </trkpt>
      <trkpt lat="42.1054" lon="2.27399">
        <ele>946.4</ele>
        <time>2018-11-26T03:05:40Z</time>
      </trkpt>
      <trkpt lat="42.10542" lon="2.27401">
        <ele>946.2</ele>
        <time>2018-11-26T03:05:41Z</time>
      </trkpt>
      <trkpt lat="42.10544" lon="2.27401">
        <ele>945.5</ele>
        <time>2018-11-26T03:05:42Z</time>
      </trkpt>
      <trkpt lat="42.10546" lon="2.27403">
        <ele>945</ele>
        <time>2018-11-26T03:05:43Z</time>
      </trkpt>
      <trkpt lat="42.10547" lon="2.27405">
        <ele>944.1</ele>
        <time>2018-11-26T03:05:44Z</time>
      </trkpt>
      <trkpt lat="42.10549" lon="2.27406">
        <ele>943.6</ele>
        <time>2018-11-26T03:05:45Z</time>
      </trkpt>
      <trkpt lat="42.10551" lon="2.27409">
        <ele>943.5</ele>
        <time>2018-11-26T03:05:46Z</time>
      </trkpt>
      <trkpt lat="42.10552" lon="2.27412">
        <ele>943.4</ele>
        <time>2018-11-26T03:05:47Z</time>
      </trkpt>
      <trkpt lat="42.10552" lon="2.27415">
        <ele>942</ele>
        <time>2018-11-26T03:05:48Z</time>
      </trkpt>
      <trkpt lat="42.10554" lon="2.27417">
        <ele>941.5</ele>
        <time>2018-11-26T03:05:48Z</time>
      </trkpt>
      <trkpt lat="42.10556" lon="2.27418">
        <ele>941.5</ele>
        <time>2018-11-26T03:05:49Z</time>
      </trkpt>
      <trkpt lat="42.10559" lon="2.27417">
        <ele>940.1</ele>
        <time>2018-11-26T03:05:50Z</time>
      </trkpt>
      <trkpt lat="42.10561" lon="2.27417">
        <ele>939.5</ele>
        <time>2018-11-26T03:05:51Z</time>
      </trkpt>
      <trkpt lat="42.10562" lon="2.27416">
        <ele>937.1</ele>
        <time>2018-11-26T03:05:52Z</time>
      </trkpt>
      <trkpt lat="42.10564" lon="2.27414">
        <ele>936.7</ele>
        <time>2018-11-26T03:05:53Z</time>
      </trkpt>
      <trkpt lat="42.10565" lon="2.27411">
        <ele>936.4</ele>
        <time>2018-11-26T03:05:54Z</time>
      </trkpt>
      <trkpt lat="42.10562" lon="2.27409">
        <ele>934.2</ele>
        <time>2018-11-26T03:05:55Z</time>
      </trkpt>
      <trkpt lat="42.1056" lon="2.27408">
        <ele>934</ele>
        <time>2018-11-26T03:05:56Z</time>
      </trkpt>
      <trkpt lat="42.10559" lon="2.27411">
        <ele>933.1</ele>
        <time>2018-11-26T03:05:57Z</time>
      </trkpt>
      <trkpt lat="42.10559" lon="2.27408">
        <ele>932.2</ele>
        <time>2018-11-26T03:05:57Z</time>
      </trkpt>
      <trkpt lat="42.1056" lon="2.27406">
        <ele>931.4</ele>
        <time>2018-11-26T03:05:58Z</time>
      </trkpt>
      <trkpt lat="42.10561" lon="2.27402">
        <ele>931.3</ele>
        <time>2018-11-26T03:05:59Z</time>
      </trkpt>
      <trkpt lat="42.10562" lon="2.274">
        <ele>930.8</ele>
        <time>2018-11-26T03:06:00Z</time>
      </trkpt>
      <trkpt lat="42.10564" lon="2.27398">
        <ele>929.8</ele>
        <time>2018-11-26T03:06:01Z</time>
      </trkpt>
      <trkpt lat="42.10566" lon="2.27395">
        <ele>928.4</ele>
        <time>2018-11-26T03:06:02Z</time>
      </trkpt>
      <trkpt lat="42.10568" lon="2.27393">
        <ele>928.2</ele>
        <time>2018-11-26T03:06:03Z</time>
      </trkpt>
      <trkpt lat="42.10573" lon="2.27392">
        <ele>926.5</ele>
        <time>2018-11-26T03:06:05Z</time>
      </trkpt>
      <trkpt lat="42.10575" lon="2.27391">
        <ele>926.2</ele>
        <time>2018-11-26T03:06:06Z</time>
      </trkpt>
      <trkpt lat="42.10577" lon="2.27391">
        <ele>926</ele>
        <time>2018-11-26T03:06:07Z</time>
      </trkpt>
      <trkpt lat="42.1058" lon="2.27391">
        <ele>925.3</ele>
        <time>2018-11-26T03:06:08Z</time>
      </trkpt>
      <trkpt lat="42.10582" lon="2.2739">
        <ele>924.5</ele>
        <time>2018-11-26T03:06:09Z</time>
      </trkpt>
      <trkpt lat="42.10584" lon="2.27389">
        <ele>924.2</ele>
        <time>2018-11-26T03:06:10Z</time>
      </trkpt>
      <trkpt lat="42.10585" lon="2.27387">
        <ele>923.3</ele>
        <time>2018-11-26T03:06:11Z</time>
      </trkpt>
      <trkpt lat="42.10588" lon="2.27386">
        <ele>922.2</ele>
        <time>2018-11-26T03:06:12Z</time>
      </trkpt>
      <trkpt lat="42.10591" lon="2.27385">
        <ele>921.5</ele>
        <time>2018-11-26T03:06:13Z</time>
      </trkpt>
      <trkpt lat="42.10593" lon="2.27386">
        <ele>921.1</ele>
        <time>2018-11-26T03:06:14Z</time>
      </trkpt>
      <trkpt lat="42.10596" lon="2.27386">
        <ele>921.1</ele>
        <time>2018-11-26T03:06:15Z</time>
      </trkpt>
      <trkpt lat="42.10599" lon="2.27385">
        <ele>920</ele>
        <time>2018-11-26T03:06:16Z</time>
      </trkpt>
      <trkpt lat="42.10608" lon="2.27382">
        <ele>918.5</ele>
        <time>2018-11-26T03:06:20Z</time>
      </trkpt>
      <trkpt lat="42.10618" lon="2.27381">
        <ele>916.7</ele>
        <time>2018-11-26T03:06:24Z</time>
      </trkpt>
      <trkpt lat="42.10627" lon="2.27378">
        <ele>915.5</ele>
        <time>2018-11-26T03:06:28Z</time>
      </trkpt>
      <trkpt lat="42.10637" lon="2.27378">
        <ele>914.3</ele>
        <time>2018-11-26T03:06:31Z</time>
      </trkpt>
      <trkpt lat="42.10639" lon="2.27378">
        <ele>914.5</ele>
        <time>2018-11-26T03:06:33Z</time>
      </trkpt>
      <trkpt lat="42.10641" lon="2.27378">
        <ele>914.4</ele>
        <time>2018-11-26T03:06:33Z</time>
      </trkpt>
      <trkpt lat="42.10644" lon="2.27377">
        <ele>914.8</ele>
        <time>2018-11-26T03:06:35Z</time>
      </trkpt>
      <trkpt lat="42.10647" lon="2.27376">
        <ele>915</ele>
        <time>2018-11-26T03:06:36Z</time>
      </trkpt>
      <trkpt lat="42.10649" lon="2.27376">
        <ele>914.8</ele>
        <time>2018-11-26T03:06:37Z</time>
      </trkpt>
      <trkpt lat="42.10651" lon="2.27374">
        <ele>914.5</ele>
        <time>2018-11-26T03:06:37Z</time>
      </trkpt>
      <trkpt lat="42.10653" lon="2.27373">
        <ele>914.2</ele>
        <time>2018-11-26T03:06:38Z</time>
      </trkpt>
      <trkpt lat="42.10655" lon="2.27371">
        <ele>914</ele>
        <time>2018-11-26T03:06:39Z</time>
      </trkpt>
      <trkpt lat="42.10656" lon="2.27368">
        <ele>913</ele>
        <time>2018-11-26T03:06:40Z</time>
      </trkpt>
      <trkpt lat="42.10658" lon="2.27366">
        <ele>912.7</ele>
        <time>2018-11-26T03:06:41Z</time>
      </trkpt>
      <trkpt lat="42.1066" lon="2.27365">
        <ele>912.1</ele>
        <time>2018-11-26T03:06:42Z</time>
      </trkpt>
      <trkpt lat="42.10662" lon="2.27363">
        <ele>911</ele>
        <time>2018-11-26T03:06:43Z</time>
      </trkpt>
      <trkpt lat="42.10664" lon="2.27361">
        <ele>910.1</ele>
        <time>2018-11-26T03:06:44Z</time>
      </trkpt>
      <trkpt lat="42.10666" lon="2.2736">
        <ele>909.6</ele>
        <time>2018-11-26T03:06:45Z</time>
      </trkpt>
      <trkpt lat="42.10668" lon="2.27359">
        <ele>909.4</ele>
        <time>2018-11-26T03:06:46Z</time>
      </trkpt>
      <trkpt lat="42.1067" lon="2.27358">
        <ele>909.4</ele>
        <time>2018-11-26T03:06:47Z</time>
      </trkpt>
      <trkpt lat="42.10672" lon="2.27356">
        <ele>907.5</ele>
        <time>2018-11-26T03:06:48Z</time>
      </trkpt>
      <trkpt lat="42.10674" lon="2.27354">
        <ele>907</ele>
        <time>2018-11-26T03:06:49Z</time>
      </trkpt>
      <trkpt lat="42.10676" lon="2.27352">
        <ele>905.4</ele>
        <time>2018-11-26T03:06:50Z</time>
      </trkpt>
      <trkpt lat="42.10678" lon="2.27351">
        <ele>903.5</ele>
        <time>2018-11-26T03:06:50Z</time>
      </trkpt>
      <trkpt lat="42.1068" lon="2.27347">
        <ele>903</ele>
        <time>2018-11-26T03:06:52Z</time>
      </trkpt>
      <trkpt lat="42.10681" lon="2.27345">
        <ele>902.4</ele>
        <time>2018-11-26T03:06:53Z</time>
      </trkpt>
      <trkpt lat="42.10683" lon="2.27343">
        <ele>901.4</ele>
        <time>2018-11-26T03:06:54Z</time>
      </trkpt>
      <trkpt lat="42.10686" lon="2.27341">
        <ele>901.3</ele>
        <time>2018-11-26T03:06:55Z</time>
      </trkpt>
      <trkpt lat="42.10687" lon="2.27338">
        <ele>900.4</ele>
        <time>2018-11-26T03:06:56Z</time>
      </trkpt>
      <trkpt lat="42.10688" lon="2.27336">
        <ele>899.1</ele>
        <time>2018-11-26T03:06:56Z</time>
      </trkpt>
      <trkpt lat="42.1069" lon="2.27334">
        <ele>897.7</ele>
        <time>2018-11-26T03:06:57Z</time>
      </trkpt>
      <trkpt lat="42.10692" lon="2.27333">
        <ele>897.8</ele>
        <time>2018-11-26T03:06:58Z</time>
      </trkpt>
      <trkpt lat="42.10694" lon="2.27333">
        <ele>897.7</ele>
        <time>2018-11-26T03:06:59Z</time>
      </trkpt>
      <trkpt lat="42.10696" lon="2.27333">
        <ele>897.6</ele>
        <time>2018-11-26T03:07:00Z</time>
      </trkpt>
      <trkpt lat="42.10698" lon="2.27334">
        <ele>895.8</ele>
        <time>2018-11-26T03:07:01Z</time>
      </trkpt>
      <trkpt lat="42.107" lon="2.27333">
        <ele>895.6</ele>
        <time>2018-11-26T03:07:02Z</time>
      </trkpt>
      <trkpt lat="42.10702" lon="2.27333">
        <ele>895</ele>
        <time>2018-11-26T03:07:02Z</time>
      </trkpt>
      <trkpt lat="42.10702" lon="2.2733">
        <ele>893.5</ele>
        <time>2018-11-26T03:07:03Z</time>
      </trkpt>
      <trkpt lat="42.10703" lon="2.27328">
        <ele>893.5</ele>
        <time>2018-11-26T03:07:04Z</time>
      </trkpt>
      <trkpt lat="42.10705" lon="2.27325">
        <ele>893.5</ele>
        <time>2018-11-26T03:07:05Z</time>
      </trkpt>
      <trkpt lat="42.10706" lon="2.27322">
        <ele>893.1</ele>
        <time>2018-11-26T03:07:06Z</time>
      </trkpt>
      <trkpt lat="42.10709" lon="2.27318">
        <ele>892</ele>
        <time>2018-11-26T03:07:08Z</time>
      </trkpt>
      <trkpt lat="42.1071" lon="2.27314">
        <ele>891.3</ele>
        <time>2018-11-26T03:07:09Z</time>
      </trkpt>
      <trkpt lat="42.1071" lon="2.27312">
        <ele>890.5</ele>
        <time>2018-11-26T03:07:10Z</time>
      </trkpt>
      <trkpt lat="42.10711" lon="2.27309">
        <ele>890.6</ele>
        <time>2018-11-26T03:07:10Z</time>
      </trkpt>
      <trkpt lat="42.10711" lon="2.27307">
        <ele>890.4</ele>
        <time>2018-11-26T03:07:11Z</time>
      </trkpt>
      <trkpt lat="42.10712" lon="2.27303">
        <ele>889.3</ele>
        <time>2018-11-26T03:07:12Z</time>
      </trkpt>
      <trkpt lat="42.10712" lon="2.27299">
        <ele>888.3</ele>
        <time>2018-11-26T03:07:14Z</time>
      </trkpt>
      <trkpt lat="42.10713" lon="2.27296">
        <ele>887.5</ele>
        <time>2018-11-26T03:07:14Z</time>
      </trkpt>
      <trkpt lat="42.10714" lon="2.27294">
        <ele>887.2</ele>
        <time>2018-11-26T03:07:15Z</time>
      </trkpt>
      <trkpt lat="42.10715" lon="2.27292">
        <ele>886.7</ele>
        <time>2018-11-26T03:07:16Z</time>
      </trkpt>
      <trkpt lat="42.10717" lon="2.27289">
        <ele>886.4</ele>
        <time>2018-11-26T03:07:17Z</time>
      </trkpt>
      <trkpt lat="42.10727" lon="2.27288">
        <ele>883.4</ele>
        <time>2018-11-26T03:07:21Z</time>
      </trkpt>
      <trkpt lat="42.10734" lon="2.27296">
        <ele>881.3</ele>
        <time>2018-11-26T03:07:25Z</time>
      </trkpt>
      <trkpt lat="42.10736" lon="2.27309">
        <ele>880.5</ele>
        <time>2018-11-26T03:07:29Z</time>
      </trkpt>
      <trkpt lat="42.10735" lon="2.27323">
        <ele>876.7</ele>
        <time>2018-11-26T03:07:33Z</time>
      </trkpt>
      <trkpt lat="42.10736" lon="2.27334">
        <ele>875.4</ele>
        <time>2018-11-26T03:07:36Z</time>
      </trkpt>
      <trkpt lat="42.10736" lon="2.27337">
        <ele>874.6</ele>
        <time>2018-11-26T03:07:37Z</time>
      </trkpt>
      <trkpt lat="42.10737" lon="2.27338">
        <ele>873.2</ele>
        <time>2018-11-26T03:07:38Z</time>
      </trkpt>
      <trkpt lat="42.10738" lon="2.27341">
        <ele>871.6</ele>
        <time>2018-11-26T03:07:39Z</time>
      </trkpt>
      <trkpt lat="42.10742" lon="2.27352">
        <ele>868.4</ele>
        <time>2018-11-26T03:07:43Z</time>
      </trkpt>
      <trkpt lat="42.10744" lon="2.27365">
        <ele>864.5</ele>
        <time>2018-11-26T03:07:46Z</time>
      </trkpt>
      <trkpt lat="42.10744" lon="2.27368">
        <ele>864.6</ele>
        <time>2018-11-26T03:07:47Z</time>
      </trkpt>
      <trkpt lat="42.10744" lon="2.27373">
        <ele>864.4</ele>
        <time>2018-11-26T03:07:49Z</time>
      </trkpt>
      <trkpt lat="42.10745" lon="2.27377">
        <ele>864.1</ele>
        <time>2018-11-26T03:07:50Z</time>
      </trkpt>
      <trkpt lat="42.10747" lon="2.27379">
        <ele>863.4</ele>
        <time>2018-11-26T03:07:51Z</time>
      </trkpt>
      <trkpt lat="42.10748" lon="2.27381">
        <ele>861.7</ele>
        <time>2018-11-26T03:07:52Z</time>
      </trkpt>
      <trkpt lat="42.10749" lon="2.27384">
        <ele>861.5</ele>
        <time>2018-11-26T03:07:53Z</time>
      </trkpt>
      <trkpt lat="42.1075" lon="2.27387">
        <ele>861.4</ele>
        <time>2018-11-26T03:07:54Z</time>
      </trkpt>
      <trkpt lat="42.1075" lon="2.27389">
        <ele>860.5</ele>
        <time>2018-11-26T03:07:54Z</time>
      </trkpt>
      <trkpt lat="42.1075" lon="2.27392">
        <ele>859.7</ele>
        <time>2018-11-26T03:07:55Z</time>
      </trkpt>
      <trkpt lat="42.10751" lon="2.27395">
        <ele>859.5</ele>
        <time>2018-11-26T03:07:56Z</time>
      </trkpt>
      <trkpt lat="42.10754" lon="2.27383">
        <ele>852.5</ele>
        <time>2018-11-26T03:08:00Z</time>
      </trkpt>
      <trkpt lat="42.10762" lon="2.27376">
        <ele>849.5</ele>
        <time>2018-11-26T03:08:04Z</time>
      </trkpt>
      <trkpt lat="42.1077" lon="2.27368">
        <ele>849.1</ele>
        <time>2018-11-26T03:08:08Z</time>
      </trkpt>
      <trkpt lat="42.10779" lon="2.27364">
        <ele>848</ele>
        <time>2018-11-26T03:08:11Z</time>
      </trkpt>
      <trkpt lat="42.10787" lon="2.27356">
        <ele>847.7</ele>
        <time>2018-11-26T03:08:16Z</time>
      </trkpt>
      <trkpt lat="42.10797" lon="2.27352">
        <ele>846.1</ele>
        <time>2018-11-26T03:08:19Z</time>
      </trkpt>
      <trkpt lat="42.10806" lon="2.27348">
        <ele>845</ele>
        <time>2018-11-26T03:08:23Z</time>
      </trkpt>
      <trkpt lat="42.10816" lon="2.27345">
        <ele>843.1</ele>
        <time>2018-11-26T03:08:27Z</time>
      </trkpt>
      <trkpt lat="42.10826" lon="2.27345">
        <ele>843.1</ele>
        <time>2018-11-26T03:08:32Z</time>
      </trkpt>
      <trkpt lat="42.10833" lon="2.27346">
        <ele>843.5</ele>
        <time>2018-11-26T03:08:34Z</time>
      </trkpt>
      <trkpt lat="42.10837" lon="2.27346">
        <ele>843.4</ele>
        <time>2018-11-26T03:08:36Z</time>
      </trkpt>
      <trkpt lat="42.1084" lon="2.27346">
        <ele>843.7</ele>
        <time>2018-11-26T03:08:37Z</time>
      </trkpt>
      <trkpt lat="42.10843" lon="2.27347">
        <ele>843.5</ele>
        <time>2018-11-26T03:08:38Z</time>
      </trkpt>
      <trkpt lat="42.10846" lon="2.27347">
        <ele>843.5</ele>
        <time>2018-11-26T03:08:39Z</time>
      </trkpt>
      <trkpt lat="42.10849" lon="2.27347">
        <ele>843.6</ele>
        <time>2018-11-26T03:08:41Z</time>
      </trkpt>
      <trkpt lat="42.10852" lon="2.27348">
        <ele>843.8</ele>
        <time>2018-11-26T03:08:42Z</time>
      </trkpt>
      <trkpt lat="42.10855" lon="2.27348">
        <ele>843.8</ele>
        <time>2018-11-26T03:08:43Z</time>
      </trkpt>
      <trkpt lat="42.10857" lon="2.27351">
        <ele>844</ele>
        <time>2018-11-26T03:08:44Z</time>
      </trkpt>
      <trkpt lat="42.10859" lon="2.27355">
        <ele>844.6</ele>
        <time>2018-11-26T03:08:46Z</time>
      </trkpt>
      <trkpt lat="42.10861" lon="2.27358">
        <ele>844.6</ele>
        <time>2018-11-26T03:08:47Z</time>
      </trkpt>
      <trkpt lat="42.10862" lon="2.2736">
        <ele>844.5</ele>
        <time>2018-11-26T03:08:48Z</time>
      </trkpt>
      <trkpt lat="42.10863" lon="2.27363">
        <ele>844.2</ele>
        <time>2018-11-26T03:08:49Z</time>
      </trkpt>
      <trkpt lat="42.10864" lon="2.27366">
        <ele>843.6</ele>
        <time>2018-11-26T03:08:50Z</time>
      </trkpt>
      <trkpt lat="42.10863" lon="2.27369">
        <ele>843.2</ele>
        <time>2018-11-26T03:08:50Z</time>
      </trkpt>
      <trkpt lat="42.10863" lon="2.27372">
        <ele>842.7</ele>
        <time>2018-11-26T03:08:51Z</time>
      </trkpt>
      <trkpt lat="42.10863" lon="2.27374">
        <ele>842.2</ele>
        <time>2018-11-26T03:08:52Z</time>
      </trkpt>
      <trkpt lat="42.10864" lon="2.27377">
        <ele>841.8</ele>
        <time>2018-11-26T03:08:53Z</time>
      </trkpt>
      <trkpt lat="42.10863" lon="2.27381">
        <ele>841.5</ele>
        <time>2018-11-26T03:08:54Z</time>
      </trkpt>
      <trkpt lat="42.10862" lon="2.27383">
        <ele>840.5</ele>
        <time>2018-11-26T03:08:55Z</time>
      </trkpt>
      <trkpt lat="42.10861" lon="2.27386">
        <ele>840.3</ele>
        <time>2018-11-26T03:08:56Z</time>
      </trkpt>
      <trkpt lat="42.10862" lon="2.27389">
        <ele>839.4</ele>
        <time>2018-11-26T03:08:57Z</time>
      </trkpt>
      <trkpt lat="42.10863" lon="2.27392">
        <ele>839.2</ele>
        <time>2018-11-26T03:08:58Z</time>
      </trkpt>
      <trkpt lat="42.10863" lon="2.27396">
        <ele>838.5</ele>
        <time>2018-11-26T03:08:59Z</time>
      </trkpt>
      <trkpt lat="42.10862" lon="2.27399">
        <ele>837.5</ele>
        <time>2018-11-26T03:09:00Z</time>
      </trkpt>
      <trkpt lat="42.10861" lon="2.27402">
        <ele>837.3</ele>
        <time>2018-11-26T03:09:01Z</time>
      </trkpt>
      <trkpt lat="42.10861" lon="2.27405">
        <ele>836.5</ele>
        <time>2018-11-26T03:09:01Z</time>
      </trkpt>
      <trkpt lat="42.10864" lon="2.27417">
        <ele>833.5</ele>
        <time>2018-11-26T03:09:05Z</time>
      </trkpt>
      <trkpt lat="42.10866" lon="2.27429">
        <ele>832.7</ele>
        <time>2018-11-26T03:09:09Z</time>
      </trkpt>
      <trkpt lat="42.1087" lon="2.27442">
        <ele>830.2</ele>
        <time>2018-11-26T03:09:13Z</time>
      </trkpt>
      <trkpt lat="42.10878" lon="2.27451">
        <ele>828.6</ele>
        <time>2018-11-26T03:09:17Z</time>
      </trkpt>
      <trkpt lat="42.10882" lon="2.27464">
        <ele>825.4</ele>
        <time>2018-11-26T03:09:21Z</time>
      </trkpt>
      <trkpt lat="42.10886" lon="2.27474">
        <ele>823.5</ele>
        <time>2018-11-26T03:09:25Z</time>
      </trkpt>
      <trkpt lat="42.10889" lon="2.27487">
        <ele>821.5</ele>
        <time>2018-11-26T03:09:29Z</time>
      </trkpt>
      <trkpt lat="42.10892" lon="2.275">
        <ele>820.5</ele>
        <time>2018-11-26T03:09:33Z</time>
      </trkpt>
      <trkpt lat="42.1089" lon="2.27512">
        <ele>819.2</ele>
        <time>2018-11-26T03:09:36Z</time>
      </trkpt>
      <trkpt lat="42.10899" lon="2.27519">
        <ele>820.3</ele>
        <time>2018-11-26T03:09:41Z</time>
      </trkpt>
      <trkpt lat="42.10907" lon="2.27522">
        <ele>820.1</ele>
        <time>2018-11-26T03:09:44Z</time>
      </trkpt>
      <trkpt lat="42.10915" lon="2.27522">
        <ele>821</ele>
        <time>2018-11-26T03:09:47Z</time>
      </trkpt>
      <trkpt lat="42.10919" lon="2.27524">
        <ele>822</ele>
        <time>2018-11-26T03:09:49Z</time>
      </trkpt>
      <trkpt lat="42.10921" lon="2.27525">
        <ele>822</ele>
        <time>2018-11-26T03:09:50Z</time>
      </trkpt>
      <trkpt lat="42.10925" lon="2.27527">
        <ele>822.2</ele>
        <time>2018-11-26T03:09:51Z</time>
      </trkpt>
      <trkpt lat="42.10933" lon="2.27534">
        <ele>823</ele>
        <time>2018-11-26T03:09:55Z</time>
      </trkpt>
      <trkpt lat="42.10941" lon="2.27538">
        <ele>824.5</ele>
        <time>2018-11-26T03:09:59Z</time>
      </trkpt>
      <trkpt lat="42.10945" lon="2.2754">
        <ele>824.5</ele>
        <time>2018-11-26T03:10:01Z</time>
      </trkpt>
      <trkpt lat="42.10948" lon="2.2754">
        <ele>824.5</ele>
        <time>2018-11-26T03:10:02Z</time>
      </trkpt>
      <trkpt lat="42.10951" lon="2.27541">
        <ele>824.4</ele>
        <time>2018-11-26T03:10:03Z</time>
      </trkpt>
      <trkpt lat="42.10953" lon="2.2754">
        <ele>824.8</ele>
        <time>2018-11-26T03:10:04Z</time>
      </trkpt>
      <trkpt lat="42.10955" lon="2.2754">
        <ele>825.5</ele>
        <time>2018-11-26T03:10:05Z</time>
      </trkpt>
      <trkpt lat="42.10964" lon="2.27539">
        <ele>825</ele>
        <time>2018-11-26T03:10:08Z</time>
      </trkpt>
      <trkpt lat="42.10969" lon="2.27539">
        <ele>825.5</ele>
        <time>2018-11-26T03:10:10Z</time>
      </trkpt>
      <trkpt lat="42.10974" lon="2.27539">
        <ele>825.4</ele>
        <time>2018-11-26T03:10:12Z</time>
      </trkpt>
      <trkpt lat="42.10976" lon="2.27539">
        <ele>825.4</ele>
        <time>2018-11-26T03:10:13Z</time>
      </trkpt>
      <trkpt lat="42.10985" lon="2.27537">
        <ele>825.6</ele>
        <time>2018-11-26T03:10:17Z</time>
      </trkpt>
      <trkpt lat="42.10988" lon="2.27535">
        <ele>825.4</ele>
        <time>2018-11-26T03:10:18Z</time>
      </trkpt>
      <trkpt lat="42.10993" lon="2.27531">
        <ele>825.8</ele>
        <time>2018-11-26T03:10:20Z</time>
      </trkpt>
      <trkpt lat="42.10995" lon="2.2753">
        <ele>825.7</ele>
        <time>2018-11-26T03:10:21Z</time>
      </trkpt>
      <trkpt lat="42.10998" lon="2.2753">
        <ele>825.8</ele>
        <time>2018-11-26T03:10:22Z</time>
      </trkpt>
      <trkpt lat="42.11" lon="2.27529">
        <ele>825.8</ele>
        <time>2018-11-26T03:10:23Z</time>
      </trkpt>
      <trkpt lat="42.11002" lon="2.27527">
        <ele>825.7</ele>
        <time>2018-11-26T03:10:24Z</time>
      </trkpt>
      <trkpt lat="42.11003" lon="2.27524">
        <ele>825.2</ele>
        <time>2018-11-26T03:10:25Z</time>
      </trkpt>
      <trkpt lat="42.11006" lon="2.27517">
        <ele>825.2</ele>
        <time>2018-11-26T03:10:27Z</time>
      </trkpt>
      <trkpt lat="42.11007" lon="2.27514">
        <ele>825.5</ele>
        <time>2018-11-26T03:10:29Z</time>
      </trkpt>
      <trkpt lat="42.11008" lon="2.27511">
        <ele>826</ele>
        <time>2018-11-26T03:10:29Z</time>
      </trkpt>
      <trkpt lat="42.11009" lon="2.27508">
        <ele>826.2</ele>
        <time>2018-11-26T03:10:30Z</time>
      </trkpt>
      <trkpt lat="42.1101" lon="2.27502">
        <ele>826</ele>
        <time>2018-11-26T03:10:32Z</time>
      </trkpt>
      <trkpt lat="42.11011" lon="2.27498">
        <ele>826.1</ele>
        <time>2018-11-26T03:10:34Z</time>
      </trkpt>
      <trkpt lat="42.11013" lon="2.27493">
        <ele>826.1</ele>
        <time>2018-11-26T03:10:35Z</time>
      </trkpt>
      <trkpt lat="42.11014" lon="2.2749">
        <ele>826.5</ele>
        <time>2018-11-26T03:10:36Z</time>
      </trkpt>
      <trkpt lat="42.11015" lon="2.27488">
        <ele>826.8</ele>
        <time>2018-11-26T03:10:37Z</time>
      </trkpt>
      <trkpt lat="42.11017" lon="2.27485">
        <ele>827.2</ele>
        <time>2018-11-26T03:10:38Z</time>
      </trkpt>
      <trkpt lat="42.11018" lon="2.27481">
        <ele>827.1</ele>
        <time>2018-11-26T03:10:39Z</time>
      </trkpt>
      <trkpt lat="42.11016" lon="2.27478">
        <ele>827.3</ele>
        <time>2018-11-26T03:10:40Z</time>
      </trkpt>
      <trkpt lat="42.11015" lon="2.27475">
        <ele>827.5</ele>
        <time>2018-11-26T03:10:41Z</time>
      </trkpt>
      <trkpt lat="42.11014" lon="2.27472">
        <ele>827.5</ele>
        <time>2018-11-26T03:10:42Z</time>
      </trkpt>
      <trkpt lat="42.11014" lon="2.27468">
        <ele>827.5</ele>
        <time>2018-11-26T03:10:44Z</time>
      </trkpt>
      <trkpt lat="42.11014" lon="2.27464">
        <ele>827.5</ele>
        <time>2018-11-26T03:10:45Z</time>
      </trkpt>
      <trkpt lat="42.11014" lon="2.2746">
        <ele>827.2</ele>
        <time>2018-11-26T03:10:46Z</time>
      </trkpt>
      <trkpt lat="42.11013" lon="2.27457">
        <ele>827.6</ele>
        <time>2018-11-26T03:10:47Z</time>
      </trkpt>
      <trkpt lat="42.11012" lon="2.27454">
        <ele>828.3</ele>
        <time>2018-11-26T03:10:48Z</time>
      </trkpt>
      <trkpt lat="42.11011" lon="2.27451">
        <ele>827.8</ele>
        <time>2018-11-26T03:10:49Z</time>
      </trkpt>
      <trkpt lat="42.11009" lon="2.27447">
        <ele>827.8</ele>
        <time>2018-11-26T03:10:50Z</time>
      </trkpt>
      <trkpt lat="42.11009" lon="2.27443">
        <ele>827.7</ele>
        <time>2018-11-26T03:10:51Z</time>
      </trkpt>
      <trkpt lat="42.11008" lon="2.2744">
        <ele>827.7</ele>
        <time>2018-11-26T03:10:52Z</time>
      </trkpt>
      <trkpt lat="42.11008" lon="2.27437">
        <ele>827.7</ele>
        <time>2018-11-26T03:10:53Z</time>
      </trkpt>
      <trkpt lat="42.11007" lon="2.27433">
        <ele>827.2</ele>
        <time>2018-11-26T03:10:54Z</time>
      </trkpt>
      <trkpt lat="42.11007" lon="2.2743">
        <ele>827.5</ele>
        <time>2018-11-26T03:10:55Z</time>
      </trkpt>
      <trkpt lat="42.11006" lon="2.27428">
        <ele>827.5</ele>
        <time>2018-11-26T03:10:56Z</time>
      </trkpt>
      <trkpt lat="42.11004" lon="2.27425">
        <ele>827.4</ele>
        <time>2018-11-26T03:10:57Z</time>
      </trkpt>
      <trkpt lat="42.11003" lon="2.27421">
        <ele>827</ele>
        <time>2018-11-26T03:10:58Z</time>
      </trkpt>
      <trkpt lat="42.11002" lon="2.27417">
        <ele>826.6</ele>
        <time>2018-11-26T03:11:00Z</time>
      </trkpt>
      <trkpt lat="42.11002" lon="2.27413">
        <ele>825.7</ele>
        <time>2018-11-26T03:11:01Z</time>
      </trkpt>
      <trkpt lat="42.11003" lon="2.27409">
        <ele>825.5</ele>
        <time>2018-11-26T03:11:02Z</time>
      </trkpt>
      <trkpt lat="42.11003" lon="2.27405">
        <ele>825.5</ele>
        <time>2018-11-26T03:11:03Z</time>
      </trkpt>
      <trkpt lat="42.11003" lon="2.27401">
        <ele>825</ele>
        <time>2018-11-26T03:11:05Z</time>
      </trkpt>
      <trkpt lat="42.11004" lon="2.27397">
        <ele>824.6</ele>
        <time>2018-11-26T03:11:06Z</time>
      </trkpt>
      <trkpt lat="42.11004" lon="2.27393">
        <ele>824.5</ele>
        <time>2018-11-26T03:11:07Z</time>
      </trkpt>
      <trkpt lat="42.11004" lon="2.2739">
        <ele>824.1</ele>
        <time>2018-11-26T03:11:08Z</time>
      </trkpt>
      <trkpt lat="42.11004" lon="2.27386">
        <ele>823.8</ele>
        <time>2018-11-26T03:11:09Z</time>
      </trkpt>
      <trkpt lat="42.11005" lon="2.27382">
        <ele>823.5</ele>
        <time>2018-11-26T03:11:10Z</time>
      </trkpt>
      <trkpt lat="42.11005" lon="2.27379">
        <ele>823.2</ele>
        <time>2018-11-26T03:11:11Z</time>
      </trkpt>
      <trkpt lat="42.11005" lon="2.27376">
        <ele>823.3</ele>
        <time>2018-11-26T03:11:12Z</time>
      </trkpt>
      <trkpt lat="42.11005" lon="2.27373">
        <ele>822</ele>
        <time>2018-11-26T03:11:13Z</time>
      </trkpt>
      <trkpt lat="42.11005" lon="2.27369">
        <ele>821.8</ele>
        <time>2018-11-26T03:11:14Z</time>
      </trkpt>
      <trkpt lat="42.11006" lon="2.27366">
        <ele>821.7</ele>
        <time>2018-11-26T03:11:15Z</time>
      </trkpt>
      <trkpt lat="42.11006" lon="2.27363">
        <ele>821.8</ele>
        <time>2018-11-26T03:11:16Z</time>
      </trkpt>
      <trkpt lat="42.11007" lon="2.27359">
        <ele>821.6</ele>
        <time>2018-11-26T03:11:17Z</time>
      </trkpt>
      <trkpt lat="42.1101" lon="2.27356">
        <ele>821</ele>
        <time>2018-11-26T03:11:19Z</time>
      </trkpt>
      <trkpt lat="42.11012" lon="2.27354">
        <ele>821</ele>
        <time>2018-11-26T03:11:20Z</time>
      </trkpt>
      <trkpt lat="42.11014" lon="2.27352">
        <ele>821.1</ele>
        <time>2018-11-26T03:11:21Z</time>
      </trkpt>
      <trkpt lat="42.11017" lon="2.27349">
        <ele>821.1</ele>
        <time>2018-11-26T03:11:22Z</time>
      </trkpt>
      <trkpt lat="42.11019" lon="2.27347">
        <ele>820.7</ele>
        <time>2018-11-26T03:11:23Z</time>
      </trkpt>
      <trkpt lat="42.11021" lon="2.27344">
        <ele>820.4</ele>
        <time>2018-11-26T03:11:24Z</time>
      </trkpt>
      <trkpt lat="42.11023" lon="2.27343">
        <ele>819.4</ele>
        <time>2018-11-26T03:11:25Z</time>
      </trkpt>
      <trkpt lat="42.11026" lon="2.27343">
        <ele>818.5</ele>
        <time>2018-11-26T03:11:26Z</time>
      </trkpt>
      <trkpt lat="42.11034" lon="2.27341">
        <ele>818.5</ele>
        <time>2018-11-26T03:11:30Z</time>
      </trkpt>
      <trkpt lat="42.11038" lon="2.2734">
        <ele>818.4</ele>
        <time>2018-11-26T03:11:31Z</time>
      </trkpt>
      <trkpt lat="42.11041" lon="2.2734">
        <ele>818.3</ele>
        <time>2018-11-26T03:11:32Z</time>
      </trkpt>
      <trkpt lat="42.11044" lon="2.27338">
        <ele>817.5</ele>
        <time>2018-11-26T03:11:34Z</time>
      </trkpt>
      <trkpt lat="42.11051" lon="2.27338">
        <ele>815.6</ele>
        <time>2018-11-26T03:11:37Z</time>
      </trkpt>
      <trkpt lat="42.11058" lon="2.27337">
        <ele>815.4</ele>
        <time>2018-11-26T03:11:39Z</time>
      </trkpt>
      <trkpt lat="42.1106" lon="2.27337">
        <ele>815.1</ele>
        <time>2018-11-26T03:11:40Z</time>
      </trkpt>
      <trkpt lat="42.11062" lon="2.27337">
        <ele>815.1</ele>
        <time>2018-11-26T03:11:41Z</time>
      </trkpt>
      <trkpt lat="42.11065" lon="2.27336">
        <ele>814.4</ele>
        <time>2018-11-26T03:11:42Z</time>
      </trkpt>
      <trkpt lat="42.11068" lon="2.27335">
        <ele>814.4</ele>
        <time>2018-11-26T03:11:43Z</time>
      </trkpt>
      <trkpt lat="42.1107" lon="2.27335">
        <ele>814.5</ele>
        <time>2018-11-26T03:11:45Z</time>
      </trkpt>
      <trkpt lat="42.11073" lon="2.27336">
        <ele>814</ele>
        <time>2018-11-26T03:11:46Z</time>
      </trkpt>
      <trkpt lat="42.11081" lon="2.27342">
        <ele>813</ele>
        <time>2018-11-26T03:11:50Z</time>
      </trkpt>
      <trkpt lat="42.11083" lon="2.27344">
        <ele>813</ele>
        <time>2018-11-26T03:11:50Z</time>
      </trkpt>
      <trkpt lat="42.11085" lon="2.27347">
        <ele>813.2</ele>
        <time>2018-11-26T03:11:52Z</time>
      </trkpt>
      <trkpt lat="42.11088" lon="2.27348">
        <ele>813.5</ele>
        <time>2018-11-26T03:11:53Z</time>
      </trkpt>
      <trkpt lat="42.1109" lon="2.27349">
        <ele>813.6</ele>
        <time>2018-11-26T03:11:53Z</time>
      </trkpt>
      <trkpt lat="42.111" lon="2.27351">
        <ele>813.2</ele>
        <time>2018-11-26T03:11:58Z</time>
      </trkpt>
      <trkpt lat="42.1111" lon="2.27353">
        <ele>811.7</ele>
        <time>2018-11-26T03:12:02Z</time>
      </trkpt>
      <trkpt lat="42.11118" lon="2.27361">
        <ele>811.8</ele>
        <time>2018-11-26T03:12:06Z</time>
      </trkpt>
      <trkpt lat="42.11121" lon="2.27372">
        <ele>812.4</ele>
        <time>2018-11-26T03:12:09Z</time>
      </trkpt>
      <trkpt lat="42.1113" lon="2.27378">
        <ele>813.4</ele>
        <time>2018-11-26T03:12:13Z</time>
      </trkpt>
      <trkpt lat="42.11134" lon="2.27379">
        <ele>813.8</ele>
        <time>2018-11-26T03:12:15Z</time>
      </trkpt>
      <trkpt lat="42.11136" lon="2.27378">
        <ele>814.4</ele>
        <time>2018-11-26T03:12:16Z</time>
      </trkpt>
      <trkpt lat="42.11138" lon="2.27376">
        <ele>814.4</ele>
        <time>2018-11-26T03:12:17Z</time>
      </trkpt>
      <trkpt lat="42.11139" lon="2.27374">
        <ele>814.5</ele>
        <time>2018-11-26T03:12:18Z</time>
      </trkpt>
      <trkpt lat="42.1114" lon="2.27371">
        <ele>815.5</ele>
        <time>2018-11-26T03:12:18Z</time>
      </trkpt>
      <trkpt lat="42.11141" lon="2.27368">
        <ele>816.2</ele>
        <time>2018-11-26T03:12:19Z</time>
      </trkpt>
      <trkpt lat="42.11141" lon="2.27366">
        <ele>816.4</ele>
        <time>2018-11-26T03:12:20Z</time>
      </trkpt>
      <trkpt lat="42.11142" lon="2.27364">
        <ele>816.8</ele>
        <time>2018-11-26T03:12:21Z</time>
      </trkpt>
      <trkpt lat="42.11141" lon="2.27364">
        <ele>818.2</ele>
        <time>2018-11-26T03:12:22Z</time>
      </trkpt>
      <trkpt lat="42.11139" lon="2.27366">
        <ele>818.3</ele>
        <time>2018-11-26T03:12:23Z</time>
      </trkpt>
      <trkpt lat="42.11137" lon="2.27367">
        <ele>819.2</ele>
        <time>2018-11-26T03:12:23Z</time>
      </trkpt>
      <trkpt lat="42.11135" lon="2.27365">
        <ele>819.4</ele>
        <time>2018-11-26T03:12:25Z</time>
      </trkpt>
      <trkpt lat="42.11133" lon="2.27362">
        <ele>820.2</ele>
        <time>2018-11-26T03:12:26Z</time>
      </trkpt>
      <trkpt lat="42.11132" lon="2.2736">
        <ele>820.2</ele>
        <time>2018-11-26T03:12:26Z</time>
      </trkpt>
      <trkpt lat="42.11134" lon="2.27357">
        <ele>820.5</ele>
        <time>2018-11-26T03:12:27Z</time>
      </trkpt>
      <trkpt lat="42.11135" lon="2.27355">
        <ele>821.1</ele>
        <time>2018-11-26T03:12:28Z</time>
      </trkpt>
      <trkpt lat="42.11136" lon="2.27352">
        <ele>821</ele>
        <time>2018-11-26T03:12:29Z</time>
      </trkpt>
      <trkpt lat="42.11137" lon="2.2735">
        <ele>821.7</ele>
        <time>2018-11-26T03:12:30Z</time>
      </trkpt>
      <trkpt lat="42.11137" lon="2.27345">
        <ele>822.5</ele>
        <time>2018-11-26T03:12:31Z</time>
      </trkpt>
      <trkpt lat="42.11138" lon="2.2734">
        <ele>822.8</ele>
        <time>2018-11-26T03:12:33Z</time>
      </trkpt>
      <trkpt lat="42.11144" lon="2.27329">
        <ele>824.4</ele>
        <time>2018-11-26T03:12:37Z</time>
      </trkpt>
      <trkpt lat="42.11152" lon="2.27324">
        <ele>827.1</ele>
        <time>2018-11-26T03:12:41Z</time>
      </trkpt>
      <trkpt lat="42.11161" lon="2.27316">
        <ele>828</ele>
        <time>2018-11-26T03:12:45Z</time>
      </trkpt>
      <trkpt lat="42.11167" lon="2.27306">
        <ele>831.4</ele>
        <time>2018-11-26T03:12:49Z</time>
      </trkpt>
      <trkpt lat="42.11164" lon="2.27294">
        <ele>835.8</ele>
        <time>2018-11-26T03:12:52Z</time>
      </trkpt>
      <trkpt lat="42.1116" lon="2.27283">
        <ele>838.7</ele>
        <time>2018-11-26T03:12:56Z</time>
      </trkpt>
      <trkpt lat="42.11157" lon="2.27282">
        <ele>840</ele>
        <time>2018-11-26T03:12:57Z</time>
      </trkpt>
      <trkpt lat="42.11155" lon="2.27282">
        <ele>840.6</ele>
        <time>2018-11-26T03:12:58Z</time>
      </trkpt>
      <trkpt lat="42.11152" lon="2.27283">
        <ele>840.8</ele>
        <time>2018-11-26T03:12:59Z</time>
      </trkpt>
      <trkpt lat="42.11147" lon="2.2728">
        <ele>842.8</ele>
        <time>2018-11-26T03:13:01Z</time>
      </trkpt>
      <trkpt lat="42.11146" lon="2.27277">
        <ele>844.3</ele>
        <time>2018-11-26T03:13:02Z</time>
      </trkpt>
      <trkpt lat="42.11146" lon="2.27274">
        <ele>844.4</ele>
        <time>2018-11-26T03:13:03Z</time>
      </trkpt>
      <trkpt lat="42.11145" lon="2.27269">
        <ele>845.3</ele>
        <time>2018-11-26T03:13:05Z</time>
      </trkpt>
      <trkpt lat="42.1114" lon="2.27258">
        <ele>846.1</ele>
        <time>2018-11-26T03:13:09Z</time>
      </trkpt>
      <trkpt lat="42.11138" lon="2.27256">
        <ele>846</ele>
        <time>2018-11-26T03:13:09Z</time>
      </trkpt>
      <trkpt lat="42.11131" lon="2.27247">
        <ele>848.1</ele>
        <time>2018-11-26T03:13:13Z</time>
      </trkpt>
      <trkpt lat="42.11124" lon="2.27243">
        <ele>849.6</ele>
        <time>2018-11-26T03:13:17Z</time>
      </trkpt>
      <trkpt lat="42.11122" lon="2.27241">
        <ele>849.6</ele>
        <time>2018-11-26T03:13:18Z</time>
      </trkpt>
      <trkpt lat="42.11119" lon="2.27239">
        <ele>850.3</ele>
        <time>2018-11-26T03:13:19Z</time>
      </trkpt>
      <trkpt lat="42.11116" lon="2.27235">
        <ele>850.5</ele>
        <time>2018-11-26T03:13:20Z</time>
      </trkpt>
      <trkpt lat="42.11115" lon="2.27233">
        <ele>850.4</ele>
        <time>2018-11-26T03:13:21Z</time>
      </trkpt>
      <trkpt lat="42.11113" lon="2.2723">
        <ele>850.4</ele>
        <time>2018-11-26T03:13:22Z</time>
      </trkpt>
      <trkpt lat="42.11111" lon="2.27227">
        <ele>850.2</ele>
        <time>2018-11-26T03:13:24Z</time>
      </trkpt>
      <trkpt lat="42.11109" lon="2.27225">
        <ele>850.3</ele>
        <time>2018-11-26T03:13:25Z</time>
      </trkpt>
      <trkpt lat="42.11107" lon="2.27224">
        <ele>850</ele>
        <time>2018-11-26T03:13:25Z</time>
      </trkpt>
      <trkpt lat="42.11105" lon="2.27222">
        <ele>850</ele>
        <time>2018-11-26T03:13:26Z</time>
      </trkpt>
      <trkpt lat="42.11103" lon="2.2722">
        <ele>849.7</ele>
        <time>2018-11-26T03:13:27Z</time>
      </trkpt>
      <trkpt lat="42.11102" lon="2.27218">
        <ele>849.7</ele>
        <time>2018-11-26T03:13:28Z</time>
      </trkpt>
      <trkpt lat="42.11099" lon="2.27218">
        <ele>849.5</ele>
        <time>2018-11-26T03:13:29Z</time>
      </trkpt>
      <trkpt lat="42.11098" lon="2.27216">
        <ele>849.5</ele>
        <time>2018-11-26T03:13:30Z</time>
      </trkpt>
      <trkpt lat="42.11093" lon="2.27214">
        <ele>849.7</ele>
        <time>2018-11-26T03:13:32Z</time>
      </trkpt>
      <trkpt lat="42.11091" lon="2.27214">
        <ele>849.5</ele>
        <time>2018-11-26T03:13:33Z</time>
      </trkpt>
      <trkpt lat="42.11089" lon="2.27214">
        <ele>849.5</ele>
        <time>2018-11-26T03:13:34Z</time>
      </trkpt>
      <trkpt lat="42.11087" lon="2.27213">
        <ele>850.1</ele>
        <time>2018-11-26T03:13:35Z</time>
      </trkpt>
      <trkpt lat="42.11085" lon="2.27211">
        <ele>850.3</ele>
        <time>2018-11-26T03:13:35Z</time>
      </trkpt>
      <trkpt lat="42.11084" lon="2.27208">
        <ele>850.6</ele>
        <time>2018-11-26T03:13:36Z</time>
      </trkpt>
      <trkpt lat="42.11083" lon="2.27205">
        <ele>850.4</ele>
        <time>2018-11-26T03:13:37Z</time>
      </trkpt>
      <trkpt lat="42.11082" lon="2.27202">
        <ele>851.1</ele>
        <time>2018-11-26T03:13:38Z</time>
      </trkpt>
      <trkpt lat="42.11081" lon="2.272">
        <ele>852</ele>
        <time>2018-11-26T03:13:39Z</time>
      </trkpt>
      <trkpt lat="42.11083" lon="2.27198">
        <ele>852.2</ele>
        <time>2018-11-26T03:13:40Z</time>
      </trkpt>
      <trkpt lat="42.11085" lon="2.27197">
        <ele>853.8</ele>
        <time>2018-11-26T03:13:41Z</time>
      </trkpt>
      <trkpt lat="42.11087" lon="2.27196">
        <ele>855.1</ele>
        <time>2018-11-26T03:13:42Z</time>
      </trkpt>
      <trkpt lat="42.11088" lon="2.27195">
        <ele>856</ele>
        <time>2018-11-26T03:13:42Z</time>
      </trkpt>
      <trkpt lat="42.1109" lon="2.27193">
        <ele>855.8</ele>
        <time>2018-11-26T03:13:43Z</time>
      </trkpt>
      <trkpt lat="42.11092" lon="2.27191">
        <ele>856.6</ele>
        <time>2018-11-26T03:13:44Z</time>
      </trkpt>
      <trkpt lat="42.11093" lon="2.27188">
        <ele>857.4</ele>
        <time>2018-11-26T03:13:45Z</time>
      </trkpt>
      <trkpt lat="42.11093" lon="2.27186">
        <ele>858.6</ele>
        <time>2018-11-26T03:13:46Z</time>
      </trkpt>
      <trkpt lat="42.11093" lon="2.27184">
        <ele>859.8</ele>
        <time>2018-11-26T03:13:47Z</time>
      </trkpt>
      <trkpt lat="42.11092" lon="2.27181">
        <ele>860.3</ele>
        <time>2018-11-26T03:13:47Z</time>
      </trkpt>
      <trkpt lat="42.11095" lon="2.2718">
        <ele>862</ele>
        <time>2018-11-26T03:13:48Z</time>
      </trkpt>
      <trkpt lat="42.11097" lon="2.2718">
        <ele>861.7</ele>
        <time>2018-11-26T03:13:49Z</time>
      </trkpt>
      <trkpt lat="42.111" lon="2.2718">
        <ele>862</ele>
        <time>2018-11-26T03:13:51Z</time>
      </trkpt>
      <trkpt lat="42.11102" lon="2.27179">
        <ele>863.2</ele>
        <time>2018-11-26T03:13:51Z</time>
      </trkpt>
      <trkpt lat="42.11104" lon="2.27177">
        <ele>863.1</ele>
        <time>2018-11-26T03:13:52Z</time>
      </trkpt>
      <trkpt lat="42.11105" lon="2.27175">
        <ele>863</ele>
        <time>2018-11-26T03:13:53Z</time>
      </trkpt>
      <trkpt lat="42.11107" lon="2.27174">
        <ele>863.4</ele>
        <time>2018-11-26T03:13:54Z</time>
      </trkpt>
      <trkpt lat="42.11109" lon="2.27172">
        <ele>864.2</ele>
        <time>2018-11-26T03:13:55Z</time>
      </trkpt>
      <trkpt lat="42.1111" lon="2.2717">
        <ele>865</ele>
        <time>2018-11-26T03:13:56Z</time>
      </trkpt>
      <trkpt lat="42.11112" lon="2.2717">
        <ele>865.4</ele>
        <time>2018-11-26T03:13:56Z</time>
      </trkpt>
      <trkpt lat="42.11114" lon="2.27171">
        <ele>865.8</ele>
        <time>2018-11-26T03:13:57Z</time>
      </trkpt>
      <trkpt lat="42.11116" lon="2.27171">
        <ele>866</ele>
        <time>2018-11-26T03:13:58Z</time>
      </trkpt>
      <trkpt lat="42.11117" lon="2.27169">
        <ele>866.5</ele>
        <time>2018-11-26T03:13:59Z</time>
      </trkpt>
      <trkpt lat="42.11119" lon="2.27168">
        <ele>867.7</ele>
        <time>2018-11-26T03:14:00Z</time>
      </trkpt>
      <trkpt lat="42.11121" lon="2.27167">
        <ele>868.7</ele>
        <time>2018-11-26T03:14:00Z</time>
      </trkpt>
      <trkpt lat="42.11123" lon="2.27167">
        <ele>870</ele>
        <time>2018-11-26T03:14:01Z</time>
      </trkpt>
      <trkpt lat="42.11121" lon="2.27166">
        <ele>871.8</ele>
        <time>2018-11-26T03:14:02Z</time>
      </trkpt>
      <trkpt lat="42.1112" lon="2.27164">
        <ele>872.4</ele>
        <time>2018-11-26T03:14:03Z</time>
      </trkpt>
      <trkpt lat="42.11121" lon="2.27162">
        <ele>873.1</ele>
        <time>2018-11-26T03:14:04Z</time>
      </trkpt>
      <trkpt lat="42.11124" lon="2.27162">
        <ele>873.6</ele>
        <time>2018-11-26T03:14:05Z</time>
      </trkpt>
      <trkpt lat="42.11125" lon="2.27161">
        <ele>875.5</ele>
        <time>2018-11-26T03:14:05Z</time>
      </trkpt>
      <trkpt lat="42.11127" lon="2.27158">
        <ele>876.5</ele>
        <time>2018-11-26T03:14:06Z</time>
      </trkpt>
      <trkpt lat="42.11128" lon="2.27156">
        <ele>878.3</ele>
        <time>2018-11-26T03:14:07Z</time>
      </trkpt>
      <trkpt lat="42.11131" lon="2.27155">
        <ele>879.1</ele>
        <time>2018-11-26T03:14:08Z</time>
      </trkpt>
      <trkpt lat="42.1113" lon="2.27152">
        <ele>880.1</ele>
        <time>2018-11-26T03:14:09Z</time>
      </trkpt>
      <trkpt lat="42.11129" lon="2.2715">
        <ele>881.5</ele>
        <time>2018-11-26T03:14:10Z</time>
      </trkpt>
      <trkpt lat="42.11129" lon="2.27147">
        <ele>882.7</ele>
        <time>2018-11-26T03:14:11Z</time>
      </trkpt>
      <trkpt lat="42.1113" lon="2.27144">
        <ele>883.5</ele>
        <time>2018-11-26T03:14:12Z</time>
      </trkpt>
      <trkpt lat="42.11132" lon="2.27142">
        <ele>884.3</ele>
        <time>2018-11-26T03:14:13Z</time>
      </trkpt>
      <trkpt lat="42.11133" lon="2.2714">
        <ele>885.3</ele>
        <time>2018-11-26T03:14:14Z</time>
      </trkpt>
      <trkpt lat="42.11132" lon="2.27137">
        <ele>885.7</ele>
        <time>2018-11-26T03:14:15Z</time>
      </trkpt>
      <trkpt lat="42.11133" lon="2.27135">
        <ele>886.6</ele>
        <time>2018-11-26T03:14:15Z</time>
      </trkpt>
      <trkpt lat="42.11134" lon="2.27132">
        <ele>888.1</ele>
        <time>2018-11-26T03:14:16Z</time>
      </trkpt>
      <trkpt lat="42.11136" lon="2.2713">
        <ele>888.5</ele>
        <time>2018-11-26T03:14:17Z</time>
      </trkpt>
      <trkpt lat="42.11138" lon="2.27128">
        <ele>889.3</ele>
        <time>2018-11-26T03:14:18Z</time>
      </trkpt>
      <trkpt lat="42.1114" lon="2.27126">
        <ele>889.4</ele>
        <time>2018-11-26T03:14:19Z</time>
      </trkpt>
      <trkpt lat="42.11142" lon="2.27123">
        <ele>889.8</ele>
        <time>2018-11-26T03:14:20Z</time>
      </trkpt>
      <trkpt lat="42.11143" lon="2.27121">
        <ele>890.7</ele>
        <time>2018-11-26T03:14:21Z</time>
      </trkpt>
      <trkpt lat="42.11143" lon="2.27119">
        <ele>891.5</ele>
        <time>2018-11-26T03:14:22Z</time>
      </trkpt>
      <trkpt lat="42.11143" lon="2.27116">
        <ele>892.2</ele>
        <time>2018-11-26T03:14:23Z</time>
      </trkpt>
      <trkpt lat="42.11144" lon="2.27114">
        <ele>893.4</ele>
        <time>2018-11-26T03:14:23Z</time>
      </trkpt>
      <trkpt lat="42.11146" lon="2.27111">
        <ele>893.5</ele>
        <time>2018-11-26T03:14:24Z</time>
      </trkpt>
      <trkpt lat="42.11145" lon="2.27109">
        <ele>893.5</ele>
        <time>2018-11-26T03:14:25Z</time>
      </trkpt>
      <trkpt lat="42.11146" lon="2.27107">
        <ele>893.9</ele>
        <time>2018-11-26T03:14:26Z</time>
      </trkpt>
      <trkpt lat="42.11146" lon="2.27103">
        <ele>894.5</ele>
        <time>2018-11-26T03:14:27Z</time>
      </trkpt>
      <trkpt lat="42.11146" lon="2.27101">
        <ele>894.8</ele>
        <time>2018-11-26T03:14:27Z</time>
      </trkpt>
      <trkpt lat="42.11148" lon="2.27094">
        <ele>895.7</ele>
        <time>2018-11-26T03:14:29Z</time>
      </trkpt>
      <trkpt lat="42.11148" lon="2.27091">
        <ele>896.4</ele>
        <time>2018-11-26T03:14:30Z</time>
      </trkpt>
      <trkpt lat="42.11149" lon="2.27081">
        <ele>897.5</ele>
        <time>2018-11-26T03:14:33Z</time>
      </trkpt>
      <trkpt lat="42.11149" lon="2.27078">
        <ele>898.2</ele>
        <time>2018-11-26T03:14:34Z</time>
      </trkpt>
      <trkpt lat="42.11149" lon="2.27075">
        <ele>898.4</ele>
        <time>2018-11-26T03:14:35Z</time>
      </trkpt>
      <trkpt lat="42.11149" lon="2.27072">
        <ele>898.8</ele>
        <time>2018-11-26T03:14:36Z</time>
      </trkpt>
      <trkpt lat="42.11148" lon="2.27069">
        <ele>899.5</ele>
        <time>2018-11-26T03:14:37Z</time>
      </trkpt>
      <trkpt lat="42.11148" lon="2.27066">
        <ele>899.7</ele>
        <time>2018-11-26T03:14:38Z</time>
      </trkpt>
      <trkpt lat="42.11148" lon="2.27064">
        <ele>900.1</ele>
        <time>2018-11-26T03:14:39Z</time>
      </trkpt>
      <trkpt lat="42.11147" lon="2.27061">
        <ele>900.6</ele>
        <time>2018-11-26T03:14:40Z</time>
      </trkpt>
      <trkpt lat="42.11148" lon="2.27059">
        <ele>900.7</ele>
        <time>2018-11-26T03:14:40Z</time>
      </trkpt>
      <trkpt lat="42.11146" lon="2.27057">
        <ele>901.5</ele>
        <time>2018-11-26T03:14:41Z</time>
      </trkpt>
      <trkpt lat="42.11146" lon="2.27054">
        <ele>901.5</ele>
        <time>2018-11-26T03:14:42Z</time>
      </trkpt>
      <trkpt lat="42.11145" lon="2.27051">
        <ele>901.7</ele>
        <time>2018-11-26T03:14:43Z</time>
      </trkpt>
      <trkpt lat="42.11144" lon="2.27048">
        <ele>902.6</ele>
        <time>2018-11-26T03:14:44Z</time>
      </trkpt>
      <trkpt lat="42.11144" lon="2.27046">
        <ele>902.5</ele>
        <time>2018-11-26T03:14:45Z</time>
      </trkpt>
      <trkpt lat="42.11143" lon="2.27044">
        <ele>902.5</ele>
        <time>2018-11-26T03:14:45Z</time>
      </trkpt>
      <trkpt lat="42.11143" lon="2.27041">
        <ele>902.7</ele>
        <time>2018-11-26T03:14:46Z</time>
      </trkpt>
      <trkpt lat="42.11142" lon="2.27039">
        <ele>902.7</ele>
        <time>2018-11-26T03:14:47Z</time>
      </trkpt>
      <trkpt lat="42.11141" lon="2.27036">
        <ele>903.5</ele>
        <time>2018-11-26T03:14:48Z</time>
      </trkpt>
      <trkpt lat="42.1114" lon="2.27033">
        <ele>903.5</ele>
        <time>2018-11-26T03:14:49Z</time>
      </trkpt>
      <trkpt lat="42.11139" lon="2.2703">
        <ele>904.3</ele>
        <time>2018-11-26T03:14:50Z</time>
      </trkpt>
      <trkpt lat="42.11138" lon="2.27026">
        <ele>904.1</ele>
        <time>2018-11-26T03:14:51Z</time>
      </trkpt>
      <trkpt lat="42.11138" lon="2.27023">
        <ele>904.5</ele>
        <time>2018-11-26T03:14:52Z</time>
      </trkpt>
      <trkpt lat="42.11139" lon="2.2702">
        <ele>904.2</ele>
        <time>2018-11-26T03:14:53Z</time>
      </trkpt>
      <trkpt lat="42.11139" lon="2.27017">
        <ele>904.5</ele>
        <time>2018-11-26T03:14:54Z</time>
      </trkpt>
      <trkpt lat="42.11141" lon="2.27015">
        <ele>904.3</ele>
        <time>2018-11-26T03:14:55Z</time>
      </trkpt>
      <trkpt lat="42.11143" lon="2.27012">
        <ele>904.2</ele>
        <time>2018-11-26T03:14:56Z</time>
      </trkpt>
      <trkpt lat="42.11144" lon="2.27008">
        <ele>904.4</ele>
        <time>2018-11-26T03:14:57Z</time>
      </trkpt>
      <trkpt lat="42.11146" lon="2.27005">
        <ele>904.3</ele>
        <time>2018-11-26T03:14:58Z</time>
      </trkpt>
      <trkpt lat="42.11148" lon="2.27004">
        <ele>904</ele>
        <time>2018-11-26T03:14:59Z</time>
      </trkpt>
      <trkpt lat="42.11151" lon="2.27001">
        <ele>903.7</ele>
        <time>2018-11-26T03:15:01Z</time>
      </trkpt>
      <trkpt lat="42.11153" lon="2.26998">
        <ele>903.7</ele>
        <time>2018-11-26T03:15:02Z</time>
      </trkpt>
      <trkpt lat="42.11156" lon="2.26996">
        <ele>903.8</ele>
        <time>2018-11-26T03:15:03Z</time>
      </trkpt>
      <trkpt lat="42.11158" lon="2.26994">
        <ele>904</ele>
        <time>2018-11-26T03:15:04Z</time>
      </trkpt>
      <trkpt lat="42.1116" lon="2.26992">
        <ele>903.5</ele>
        <time>2018-11-26T03:15:05Z</time>
      </trkpt>
      <trkpt lat="42.11162" lon="2.2699">
        <ele>903.5</ele>
        <time>2018-11-26T03:15:06Z</time>
      </trkpt>
      <trkpt lat="42.11165" lon="2.26988">
        <ele>903.6</ele>
        <time>2018-11-26T03:15:08Z</time>
      </trkpt>
      <trkpt lat="42.11168" lon="2.26986">
        <ele>903.5</ele>
        <time>2018-11-26T03:15:09Z</time>
      </trkpt>
      <trkpt lat="42.11171" lon="2.26984">
        <ele>903.4</ele>
        <time>2018-11-26T03:15:10Z</time>
      </trkpt>
      <trkpt lat="42.11173" lon="2.26981">
        <ele>903.2</ele>
        <time>2018-11-26T03:15:11Z</time>
      </trkpt>
      <trkpt lat="42.11175" lon="2.26979">
        <ele>903.3</ele>
        <time>2018-11-26T03:15:12Z</time>
      </trkpt>
      <trkpt lat="42.11177" lon="2.26978">
        <ele>903.1</ele>
        <time>2018-11-26T03:15:13Z</time>
      </trkpt>
      <trkpt lat="42.11181" lon="2.26975">
        <ele>903.1</ele>
        <time>2018-11-26T03:15:15Z</time>
      </trkpt>
      <trkpt lat="42.11183" lon="2.26973">
        <ele>902.5</ele>
        <time>2018-11-26T03:15:16Z</time>
      </trkpt>
      <trkpt lat="42.11185" lon="2.26971">
        <ele>902</ele>
        <time>2018-11-26T03:15:17Z</time>
      </trkpt>
      <trkpt lat="42.11187" lon="2.26969">
        <ele>902</ele>
        <time>2018-11-26T03:15:18Z</time>
      </trkpt>
      <trkpt lat="42.1119" lon="2.26967">
        <ele>901.8</ele>
        <time>2018-11-26T03:15:19Z</time>
      </trkpt>
      <trkpt lat="42.11192" lon="2.26965">
        <ele>901.8</ele>
        <time>2018-11-26T03:15:20Z</time>
      </trkpt>
      <trkpt lat="42.11195" lon="2.26964">
        <ele>901.4</ele>
        <time>2018-11-26T03:15:22Z</time>
      </trkpt>
      <trkpt lat="42.11198" lon="2.26964">
        <ele>901.5</ele>
        <time>2018-11-26T03:15:23Z</time>
      </trkpt>
      <trkpt lat="42.112" lon="2.26963">
        <ele>901.4</ele>
        <time>2018-11-26T03:15:24Z</time>
      </trkpt>
      <trkpt lat="42.11202" lon="2.26962">
        <ele>901.2</ele>
        <time>2018-11-26T03:15:24Z</time>
      </trkpt>
      <trkpt lat="42.11205" lon="2.26962">
        <ele>901.4</ele>
        <time>2018-11-26T03:15:25Z</time>
      </trkpt>
      <trkpt lat="42.11207" lon="2.26962">
        <ele>901.5</ele>
        <time>2018-11-26T03:15:26Z</time>
      </trkpt>
      <trkpt lat="42.1121" lon="2.26961">
        <ele>901.6</ele>
        <time>2018-11-26T03:15:28Z</time>
      </trkpt>
      <trkpt lat="42.11213" lon="2.26962">
        <ele>901.6</ele>
        <time>2018-11-26T03:15:29Z</time>
      </trkpt>
      <trkpt lat="42.11216" lon="2.26962">
        <ele>901.5</ele>
        <time>2018-11-26T03:15:30Z</time>
      </trkpt>
      <trkpt lat="42.11219" lon="2.26962">
        <ele>902</ele>
        <time>2018-11-26T03:15:31Z</time>
      </trkpt>
      <trkpt lat="42.11221" lon="2.2696">
        <ele>902.3</ele>
        <time>2018-11-26T03:15:32Z</time>
      </trkpt>
      <trkpt lat="42.11223" lon="2.26959">
        <ele>902</ele>
        <time>2018-11-26T03:15:33Z</time>
      </trkpt>
      <trkpt lat="42.11225" lon="2.26956">
        <ele>902</ele>
        <time>2018-11-26T03:15:34Z</time>
      </trkpt>
      <trkpt lat="42.11227" lon="2.26954">
        <ele>901.3</ele>
        <time>2018-11-26T03:15:35Z</time>
      </trkpt>
      <trkpt lat="42.11228" lon="2.26951">
        <ele>901</ele>
        <time>2018-11-26T03:15:36Z</time>
      </trkpt>
      <trkpt lat="42.1123" lon="2.26949">
        <ele>900.7</ele>
        <time>2018-11-26T03:15:37Z</time>
      </trkpt>
      <trkpt lat="42.11233" lon="2.26945">
        <ele>899.6</ele>
        <time>2018-11-26T03:15:39Z</time>
      </trkpt>
      <trkpt lat="42.11237" lon="2.26941">
        <ele>899.3</ele>
        <time>2018-11-26T03:15:41Z</time>
      </trkpt>
      <trkpt lat="42.11239" lon="2.26939">
        <ele>899.1</ele>
        <time>2018-11-26T03:15:42Z</time>
      </trkpt>
      <trkpt lat="42.11241" lon="2.26936">
        <ele>899.2</ele>
        <time>2018-11-26T03:15:43Z</time>
      </trkpt>
      <trkpt lat="42.11248" lon="2.26929">
        <ele>898.5</ele>
        <time>2018-11-26T03:15:46Z</time>
      </trkpt>
      <trkpt lat="42.11256" lon="2.26922">
        <ele>896.6</ele>
        <time>2018-11-26T03:15:50Z</time>
      </trkpt>
      <trkpt lat="42.11264" lon="2.26914">
        <ele>896.2</ele>
        <time>2018-11-26T03:15:54Z</time>
      </trkpt>
      <trkpt lat="42.1127" lon="2.26908">
        <ele>896</ele>
        <time>2018-11-26T03:15:57Z</time>
      </trkpt>
      <trkpt lat="42.11272" lon="2.26906">
        <ele>896.4</ele>
        <time>2018-11-26T03:15:58Z</time>
      </trkpt>
      <trkpt lat="42.11274" lon="2.26904">
        <ele>896.5</ele>
        <time>2018-11-26T03:15:59Z</time>
      </trkpt>
      <trkpt lat="42.11276" lon="2.26902">
        <ele>897.4</ele>
        <time>2018-11-26T03:16:00Z</time>
      </trkpt>
      <trkpt lat="42.11277" lon="2.26899">
        <ele>897.5</ele>
        <time>2018-11-26T03:16:01Z</time>
      </trkpt>
      <trkpt lat="42.11279" lon="2.26896">
        <ele>898.4</ele>
        <time>2018-11-26T03:16:02Z</time>
      </trkpt>
      <trkpt lat="42.11281" lon="2.26895">
        <ele>898.4</ele>
        <time>2018-11-26T03:16:03Z</time>
      </trkpt>
      <trkpt lat="42.11283" lon="2.26894">
        <ele>898.4</ele>
        <time>2018-11-26T03:16:04Z</time>
      </trkpt>
      <trkpt lat="42.11285" lon="2.26893">
        <ele>898.6</ele>
        <time>2018-11-26T03:16:05Z</time>
      </trkpt>
      <trkpt lat="42.11286" lon="2.2689">
        <ele>899</ele>
        <time>2018-11-26T03:16:06Z</time>
      </trkpt>
      <trkpt lat="42.11289" lon="2.26887">
        <ele>900</ele>
        <time>2018-11-26T03:16:07Z</time>
      </trkpt>
      <trkpt lat="42.11295" lon="2.26881">
        <ele>900.5</ele>
        <time>2018-11-26T03:16:10Z</time>
      </trkpt>
      <trkpt lat="42.11297" lon="2.26879">
        <ele>900.6</ele>
        <time>2018-11-26T03:16:11Z</time>
      </trkpt>
      <trkpt lat="42.11298" lon="2.26877">
        <ele>900.6</ele>
        <time>2018-11-26T03:16:12Z</time>
      </trkpt>
      <trkpt lat="42.113" lon="2.26875">
        <ele>901.5</ele>
        <time>2018-11-26T03:16:13Z</time>
      </trkpt>
      <trkpt lat="42.11301" lon="2.26873">
        <ele>901.4</ele>
        <time>2018-11-26T03:16:14Z</time>
      </trkpt>
      <trkpt lat="42.11302" lon="2.26871">
        <ele>902.2</ele>
        <time>2018-11-26T03:16:15Z</time>
      </trkpt>
      <trkpt lat="42.11303" lon="2.26868">
        <ele>902.3</ele>
        <time>2018-11-26T03:16:15Z</time>
      </trkpt>
      <trkpt lat="42.11304" lon="2.26865">
        <ele>903.1</ele>
        <time>2018-11-26T03:16:16Z</time>
      </trkpt>
      <trkpt lat="42.11305" lon="2.26862">
        <ele>902.7</ele>
        <time>2018-11-26T03:16:17Z</time>
      </trkpt>
      <trkpt lat="42.11307" lon="2.2686">
        <ele>902.8</ele>
        <time>2018-11-26T03:16:18Z</time>
      </trkpt>
      <trkpt lat="42.11309" lon="2.26858">
        <ele>902.8</ele>
        <time>2018-11-26T03:16:19Z</time>
      </trkpt>
      <trkpt lat="42.11312" lon="2.26856">
        <ele>902.7</ele>
        <time>2018-11-26T03:16:21Z</time>
      </trkpt>
      <trkpt lat="42.11314" lon="2.26855">
        <ele>903.6</ele>
        <time>2018-11-26T03:16:22Z</time>
      </trkpt>
      <trkpt lat="42.11316" lon="2.26854">
        <ele>903.8</ele>
        <time>2018-11-26T03:16:22Z</time>
      </trkpt>
      <trkpt lat="42.11318" lon="2.26851">
        <ele>903.7</ele>
        <time>2018-11-26T03:16:23Z</time>
      </trkpt>
      <trkpt lat="42.1132" lon="2.26849">
        <ele>904</ele>
        <time>2018-11-26T03:16:24Z</time>
      </trkpt>
      <trkpt lat="42.1132" lon="2.26847">
        <ele>903.2</ele>
        <time>2018-11-26T03:16:25Z</time>
      </trkpt>
      <trkpt lat="42.11322" lon="2.26844">
        <ele>903.2</ele>
        <time>2018-11-26T03:16:26Z</time>
      </trkpt>
      <trkpt lat="42.11324" lon="2.26841">
        <ele>903.3</ele>
        <time>2018-11-26T03:16:27Z</time>
      </trkpt>
      <trkpt lat="42.11325" lon="2.26838">
        <ele>903.2</ele>
        <time>2018-11-26T03:16:28Z</time>
      </trkpt>
      <trkpt lat="42.11326" lon="2.26836">
        <ele>903.2</ele>
        <time>2018-11-26T03:16:29Z</time>
      </trkpt>
      <trkpt lat="42.11329" lon="2.26834">
        <ele>903</ele>
        <time>2018-11-26T03:16:30Z</time>
      </trkpt>
      <trkpt lat="42.1133" lon="2.26832">
        <ele>903.1</ele>
        <time>2018-11-26T03:16:31Z</time>
      </trkpt>
      <trkpt lat="42.11333" lon="2.2683">
        <ele>903.1</ele>
        <time>2018-11-26T03:16:32Z</time>
      </trkpt>
      <trkpt lat="42.11335" lon="2.26828">
        <ele>903</ele>
        <time>2018-11-26T03:16:33Z</time>
      </trkpt>
      <trkpt lat="42.11336" lon="2.26826">
        <ele>904</ele>
        <time>2018-11-26T03:16:34Z</time>
      </trkpt>
      <trkpt lat="42.11337" lon="2.26824">
        <ele>904.8</ele>
        <time>2018-11-26T03:16:35Z</time>
      </trkpt>
      <trkpt lat="42.11339" lon="2.26821">
        <ele>904.7</ele>
        <time>2018-11-26T03:16:36Z</time>
      </trkpt>
      <trkpt lat="42.1134" lon="2.26819">
        <ele>905.2</ele>
        <time>2018-11-26T03:16:37Z</time>
      </trkpt>
      <trkpt lat="42.11342" lon="2.26816">
        <ele>905.2</ele>
        <time>2018-11-26T03:16:38Z</time>
      </trkpt>
      <trkpt lat="42.11343" lon="2.26813">
        <ele>904.7</ele>
        <time>2018-11-26T03:16:39Z</time>
      </trkpt>
      <trkpt lat="42.11344" lon="2.2681">
        <ele>904.8</ele>
        <time>2018-11-26T03:16:40Z</time>
      </trkpt>
      <trkpt lat="42.11345" lon="2.26807">
        <ele>905.1</ele>
        <time>2018-11-26T03:16:41Z</time>
      </trkpt>
      <trkpt lat="42.11347" lon="2.26804">
        <ele>905.2</ele>
        <time>2018-11-26T03:16:42Z</time>
      </trkpt>
      <trkpt lat="42.11347" lon="2.26801">
        <ele>905.3</ele>
        <time>2018-11-26T03:16:43Z</time>
      </trkpt>
      <trkpt lat="42.11348" lon="2.26799">
        <ele>905.8</ele>
        <time>2018-11-26T03:16:44Z</time>
      </trkpt>
      <trkpt lat="42.11349" lon="2.26795">
        <ele>905.4</ele>
        <time>2018-11-26T03:16:45Z</time>
      </trkpt>
      <trkpt lat="42.1135" lon="2.26792">
        <ele>905.5</ele>
        <time>2018-11-26T03:16:46Z</time>
      </trkpt>
      <trkpt lat="42.11351" lon="2.26789">
        <ele>905.2</ele>
        <time>2018-11-26T03:16:47Z</time>
      </trkpt>
      <trkpt lat="42.11352" lon="2.26786">
        <ele>905.2</ele>
        <time>2018-11-26T03:16:48Z</time>
      </trkpt>
      <trkpt lat="42.11353" lon="2.26783">
        <ele>905</ele>
        <time>2018-11-26T03:16:49Z</time>
      </trkpt>
      <trkpt lat="42.11354" lon="2.26779">
        <ele>905</ele>
        <time>2018-11-26T03:16:50Z</time>
      </trkpt>
      <trkpt lat="42.11354" lon="2.26776">
        <ele>905</ele>
        <time>2018-11-26T03:16:51Z</time>
      </trkpt>
      <trkpt lat="42.11354" lon="2.26773">
        <ele>904.6</ele>
        <time>2018-11-26T03:16:52Z</time>
      </trkpt>
      <trkpt lat="42.11354" lon="2.2677">
        <ele>903.5</ele>
        <time>2018-11-26T03:16:53Z</time>
      </trkpt>
      <trkpt lat="42.11355" lon="2.26767">
        <ele>903.4</ele>
        <time>2018-11-26T03:16:54Z</time>
      </trkpt>
      <trkpt lat="42.11356" lon="2.26764">
        <ele>903.3</ele>
        <time>2018-11-26T03:16:55Z</time>
      </trkpt>
      <trkpt lat="42.11357" lon="2.26762">
        <ele>903.6</ele>
        <time>2018-11-26T03:16:56Z</time>
      </trkpt>
      <trkpt lat="42.11358" lon="2.26759">
        <ele>904.1</ele>
        <time>2018-11-26T03:16:57Z</time>
      </trkpt>
      <trkpt lat="42.11358" lon="2.26756">
        <ele>904.5</ele>
        <time>2018-11-26T03:16:57Z</time>
      </trkpt>
      <trkpt lat="42.11359" lon="2.26753">
        <ele>904.8</ele>
        <time>2018-11-26T03:16:58Z</time>
      </trkpt>
      <trkpt lat="42.1136" lon="2.2675">
        <ele>905</ele>
        <time>2018-11-26T03:16:59Z</time>
      </trkpt>
      <trkpt lat="42.11362" lon="2.26748">
        <ele>905.4</ele>
        <time>2018-11-26T03:17:00Z</time>
      </trkpt>
      <trkpt lat="42.11361" lon="2.26744">
        <ele>905.4</ele>
        <time>2018-11-26T03:17:01Z</time>
      </trkpt>
      <trkpt lat="42.11361" lon="2.26741">
        <ele>905.8</ele>
        <time>2018-11-26T03:17:02Z</time>
      </trkpt>
      <trkpt lat="42.11361" lon="2.26738">
        <ele>906.2</ele>
        <time>2018-11-26T03:17:03Z</time>
      </trkpt>
      <trkpt lat="42.1136" lon="2.26733">
        <ele>906.1</ele>
        <time>2018-11-26T03:17:05Z</time>
      </trkpt>
      <trkpt lat="42.11361" lon="2.2673">
        <ele>905.5</ele>
        <time>2018-11-26T03:17:06Z</time>
      </trkpt>
      <trkpt lat="42.11361" lon="2.26728">
        <ele>905.5</ele>
        <time>2018-11-26T03:17:06Z</time>
      </trkpt>
      <trkpt lat="42.11363" lon="2.26725">
        <ele>905.5</ele>
        <time>2018-11-26T03:17:07Z</time>
      </trkpt>
      <trkpt lat="42.11364" lon="2.26723">
        <ele>904.4</ele>
        <time>2018-11-26T03:17:08Z</time>
      </trkpt>
      <trkpt lat="42.11364" lon="2.26721">
        <ele>903.2</ele>
        <time>2018-11-26T03:17:09Z</time>
      </trkpt>
      <trkpt lat="42.11365" lon="2.26718">
        <ele>903.1</ele>
        <time>2018-11-26T03:17:10Z</time>
      </trkpt>
      <trkpt lat="42.11365" lon="2.26715">
        <ele>902.6</ele>
        <time>2018-11-26T03:17:11Z</time>
      </trkpt>
      <trkpt lat="42.11366" lon="2.26713">
        <ele>902.5</ele>
        <time>2018-11-26T03:17:11Z</time>
      </trkpt>
      <trkpt lat="42.11366" lon="2.2671">
        <ele>901.5</ele>
        <time>2018-11-26T03:17:12Z</time>
      </trkpt>
      <trkpt lat="42.11367" lon="2.26708">
        <ele>900.5</ele>
        <time>2018-11-26T03:17:13Z</time>
      </trkpt>
      <trkpt lat="42.11369" lon="2.26706">
        <ele>900.2</ele>
        <time>2018-11-26T03:17:14Z</time>
      </trkpt>
      <trkpt lat="42.11371" lon="2.26704">
        <ele>900.3</ele>
        <time>2018-11-26T03:17:15Z</time>
      </trkpt>
      <trkpt lat="42.11373" lon="2.26702">
        <ele>899.6</ele>
        <time>2018-11-26T03:17:16Z</time>
      </trkpt>
      <trkpt lat="42.11374" lon="2.26699">
        <ele>899.6</ele>
        <time>2018-11-26T03:17:17Z</time>
      </trkpt>
      <trkpt lat="42.11376" lon="2.26696">
        <ele>899.6</ele>
        <time>2018-11-26T03:17:18Z</time>
      </trkpt>
      <trkpt lat="42.11377" lon="2.26693">
        <ele>900</ele>
        <time>2018-11-26T03:17:19Z</time>
      </trkpt>
      <trkpt lat="42.11378" lon="2.2669">
        <ele>900.3</ele>
        <time>2018-11-26T03:17:20Z</time>
      </trkpt>
      <trkpt lat="42.1138" lon="2.26688">
        <ele>900.3</ele>
        <time>2018-11-26T03:17:21Z</time>
      </trkpt>
      <trkpt lat="42.11383" lon="2.26687">
        <ele>900.6</ele>
        <time>2018-11-26T03:17:22Z</time>
      </trkpt>
      <trkpt lat="42.11391" lon="2.26683">
        <ele>900.7</ele>
        <time>2018-11-26T03:17:26Z</time>
      </trkpt>
      <trkpt lat="42.11394" lon="2.26682">
        <ele>900.7</ele>
        <time>2018-11-26T03:17:27Z</time>
      </trkpt>
      <trkpt lat="42.11403" lon="2.2668">
        <ele>900.8</ele>
        <time>2018-11-26T03:17:30Z</time>
      </trkpt>
      <trkpt lat="42.11413" lon="2.26678">
        <ele>901.3</ele>
        <time>2018-11-26T03:17:34Z</time>
      </trkpt>
      <trkpt lat="42.11422" lon="2.26674">
        <ele>900.5</ele>
        <time>2018-11-26T03:17:38Z</time>
      </trkpt>
      <trkpt lat="42.11426" lon="2.26671">
        <ele>900.5</ele>
        <time>2018-11-26T03:17:40Z</time>
      </trkpt>
      <trkpt lat="42.11427" lon="2.2667">
        <ele>900.4</ele>
        <time>2018-11-26T03:17:41Z</time>
      </trkpt>
      <trkpt lat="42.11429" lon="2.26669">
        <ele>900.6</ele>
        <time>2018-11-26T03:17:41Z</time>
      </trkpt>
      <trkpt lat="42.11431" lon="2.26667">
        <ele>900.5</ele>
        <time>2018-11-26T03:17:42Z</time>
      </trkpt>
      <trkpt lat="42.11433" lon="2.26666">
        <ele>900.6</ele>
        <time>2018-11-26T03:17:43Z</time>
      </trkpt>
      <trkpt lat="42.11435" lon="2.26665">
        <ele>900.5</ele>
        <time>2018-11-26T03:17:44Z</time>
      </trkpt>
      <trkpt lat="42.11437" lon="2.26665">
        <ele>899.7</ele>
        <time>2018-11-26T03:17:45Z</time>
      </trkpt>
      <trkpt lat="42.11442" lon="2.2666">
        <ele>899.4</ele>
        <time>2018-11-26T03:17:47Z</time>
      </trkpt>
      <trkpt lat="42.11448" lon="2.26651">
        <ele>898.7</ele>
        <time>2018-11-26T03:17:51Z</time>
      </trkpt>
      <trkpt lat="42.11454" lon="2.26638">
        <ele>898.5</ele>
        <time>2018-11-26T03:17:55Z</time>
      </trkpt>
      <trkpt lat="42.11458" lon="2.26635">
        <ele>897.8</ele>
        <time>2018-11-26T03:17:57Z</time>
      </trkpt>
      <trkpt lat="42.1146" lon="2.26634">
        <ele>898.1</ele>
        <time>2018-11-26T03:17:58Z</time>
      </trkpt>
      <trkpt lat="42.11462" lon="2.26633">
        <ele>898</ele>
        <time>2018-11-26T03:17:59Z</time>
      </trkpt>
      <trkpt lat="42.11466" lon="2.26633">
        <ele>898.3</ele>
        <time>2018-11-26T03:18:00Z</time>
      </trkpt>
      <trkpt lat="42.11469" lon="2.26633">
        <ele>898</ele>
        <time>2018-11-26T03:18:02Z</time>
      </trkpt>
      <trkpt lat="42.11472" lon="2.26634">
        <ele>897.4</ele>
        <time>2018-11-26T03:18:03Z</time>
      </trkpt>
      <trkpt lat="42.11475" lon="2.26635">
        <ele>897.4</ele>
        <time>2018-11-26T03:18:04Z</time>
      </trkpt>
      <trkpt lat="42.11477" lon="2.26637">
        <ele>897.4</ele>
        <time>2018-11-26T03:18:05Z</time>
      </trkpt>
      <trkpt lat="42.1148" lon="2.2664">
        <ele>897.2</ele>
        <time>2018-11-26T03:18:07Z</time>
      </trkpt>
      <trkpt lat="42.11482" lon="2.26643">
        <ele>897.2</ele>
        <time>2018-11-26T03:18:08Z</time>
      </trkpt>
      <trkpt lat="42.11484" lon="2.26646">
        <ele>896.7</ele>
        <time>2018-11-26T03:18:09Z</time>
      </trkpt>
      <trkpt lat="42.11488" lon="2.2665">
        <ele>896.6</ele>
        <time>2018-11-26T03:18:11Z</time>
      </trkpt>
      <trkpt lat="42.11491" lon="2.26653">
        <ele>896.6</ele>
        <time>2018-11-26T03:18:13Z</time>
      </trkpt>
      <trkpt lat="42.11493" lon="2.26656">
        <ele>896.5</ele>
        <time>2018-11-26T03:18:14Z</time>
      </trkpt>
      <trkpt lat="42.11495" lon="2.26658">
        <ele>896.5</ele>
        <time>2018-11-26T03:18:15Z</time>
      </trkpt>
      <trkpt lat="42.11496" lon="2.2666">
        <ele>896.6</ele>
        <time>2018-11-26T03:18:16Z</time>
      </trkpt>
      <trkpt lat="42.11498" lon="2.26663">
        <ele>896.3</ele>
        <time>2018-11-26T03:18:17Z</time>
      </trkpt>
      <trkpt lat="42.115" lon="2.26665">
        <ele>896.2</ele>
        <time>2018-11-26T03:18:18Z</time>
      </trkpt>
      <trkpt lat="42.11507" lon="2.26674">
        <ele>894.5</ele>
        <time>2018-11-26T03:18:22Z</time>
      </trkpt>
      <trkpt lat="42.11514" lon="2.26684">
        <ele>893.3</ele>
        <time>2018-11-26T03:18:26Z</time>
      </trkpt>
      <trkpt lat="42.11518" lon="2.26688">
        <ele>892.3</ele>
        <time>2018-11-26T03:18:28Z</time>
      </trkpt>
      <trkpt lat="42.11521" lon="2.26693">
        <ele>892</ele>
        <time>2018-11-26T03:18:30Z</time>
      </trkpt>
      <trkpt lat="42.11527" lon="2.26703">
        <ele>890.7</ele>
        <time>2018-11-26T03:18:33Z</time>
      </trkpt>
      <trkpt lat="42.11532" lon="2.26715">
        <ele>889.3</ele>
        <time>2018-11-26T03:18:38Z</time>
      </trkpt>
      <trkpt lat="42.11538" lon="2.26724">
        <ele>887.2</ele>
        <time>2018-11-26T03:18:41Z</time>
      </trkpt>
      <trkpt lat="42.11546" lon="2.26732">
        <ele>885.5</ele>
        <time>2018-11-26T03:18:45Z</time>
      </trkpt>
      <trkpt lat="42.11553" lon="2.26742">
        <ele>884.4</ele>
        <time>2018-11-26T03:18:49Z</time>
      </trkpt>
      <trkpt lat="42.11558" lon="2.26753">
        <ele>882.8</ele>
        <time>2018-11-26T03:18:53Z</time>
      </trkpt>
      <trkpt lat="42.11561" lon="2.26764">
        <ele>882.3</ele>
        <time>2018-11-26T03:18:57Z</time>
      </trkpt>
      <trkpt lat="42.11564" lon="2.26777">
        <ele>881</ele>
        <time>2018-11-26T03:19:01Z</time>
      </trkpt>
      <trkpt lat="42.11564" lon="2.26781">
        <ele>881.5</ele>
        <time>2018-11-26T03:19:02Z</time>
      </trkpt>
      <trkpt lat="42.11564" lon="2.26785">
        <ele>882</ele>
        <time>2018-11-26T03:19:03Z</time>
      </trkpt>
      <trkpt lat="42.11564" lon="2.26788">
        <ele>882.1</ele>
        <time>2018-11-26T03:19:04Z</time>
      </trkpt>
      <trkpt lat="42.11565" lon="2.26792">
        <ele>882</ele>
        <time>2018-11-26T03:19:05Z</time>
      </trkpt>
      <trkpt lat="42.11565" lon="2.26795">
        <ele>882</ele>
        <time>2018-11-26T03:19:06Z</time>
      </trkpt>
      <trkpt lat="42.11566" lon="2.26799">
        <ele>882.1</ele>
        <time>2018-11-26T03:19:07Z</time>
      </trkpt>
      <trkpt lat="42.11566" lon="2.26803">
        <ele>882.1</ele>
        <time>2018-11-26T03:19:08Z</time>
      </trkpt>
      <trkpt lat="42.11566" lon="2.26806">
        <ele>882.5</ele>
        <time>2018-11-26T03:19:09Z</time>
      </trkpt>
      <trkpt lat="42.11566" lon="2.2681">
        <ele>882.2</ele>
        <time>2018-11-26T03:19:10Z</time>
      </trkpt>
      <trkpt lat="42.11566" lon="2.26813">
        <ele>882.4</ele>
        <time>2018-11-26T03:19:11Z</time>
      </trkpt>
      <trkpt lat="42.11566" lon="2.26816">
        <ele>882.4</ele>
        <time>2018-11-26T03:19:12Z</time>
      </trkpt>
      <trkpt lat="42.11568" lon="2.2682">
        <ele>882.5</ele>
        <time>2018-11-26T03:19:14Z</time>
      </trkpt>
      <trkpt lat="42.11569" lon="2.26823">
        <ele>882.4</ele>
        <time>2018-11-26T03:19:15Z</time>
      </trkpt>
      <trkpt lat="42.1157" lon="2.26826">
        <ele>882.5</ele>
        <time>2018-11-26T03:19:16Z</time>
      </trkpt>
      <trkpt lat="42.11571" lon="2.2683">
        <ele>882.5</ele>
        <time>2018-11-26T03:19:17Z</time>
      </trkpt>
      <trkpt lat="42.11575" lon="2.26841">
        <ele>881.4</ele>
        <time>2018-11-26T03:19:21Z</time>
      </trkpt>
      <trkpt lat="42.11579" lon="2.26853">
        <ele>881.4</ele>
        <time>2018-11-26T03:19:24Z</time>
      </trkpt>
      <trkpt lat="42.1158" lon="2.26855">
        <ele>881.3</ele>
        <time>2018-11-26T03:19:25Z</time>
      </trkpt>
      <trkpt lat="42.11582" lon="2.26855">
        <ele>881.2</ele>
        <time>2018-11-26T03:19:26Z</time>
      </trkpt>
      <trkpt lat="42.11585" lon="2.26857">
        <ele>881.3</ele>
        <time>2018-11-26T03:19:27Z</time>
      </trkpt>
      <trkpt lat="42.11588" lon="2.26858">
        <ele>880.7</ele>
        <time>2018-11-26T03:19:29Z</time>
      </trkpt>
      <trkpt lat="42.1159" lon="2.2686">
        <ele>879.8</ele>
        <time>2018-11-26T03:19:30Z</time>
      </trkpt>
      <trkpt lat="42.11593" lon="2.26862">
        <ele>879.1</ele>
        <time>2018-11-26T03:19:31Z</time>
      </trkpt>
      <trkpt lat="42.11594" lon="2.26864">
        <ele>879.1</ele>
        <time>2018-11-26T03:19:32Z</time>
      </trkpt>
      <trkpt lat="42.11596" lon="2.26866">
        <ele>879</ele>
        <time>2018-11-26T03:19:33Z</time>
      </trkpt>
      <trkpt lat="42.11598" lon="2.26866">
        <ele>879.5</ele>
        <time>2018-11-26T03:19:33Z</time>
      </trkpt>
      <trkpt lat="42.116" lon="2.26867">
        <ele>879.1</ele>
        <time>2018-11-26T03:19:34Z</time>
      </trkpt>
      <trkpt lat="42.11603" lon="2.26867">
        <ele>879.2</ele>
        <time>2018-11-26T03:19:35Z</time>
      </trkpt>
      <trkpt lat="42.11605" lon="2.26868">
        <ele>879.2</ele>
        <time>2018-11-26T03:19:36Z</time>
      </trkpt>
      <trkpt lat="42.11608" lon="2.2687">
        <ele>879.5</ele>
        <time>2018-11-26T03:19:38Z</time>
      </trkpt>
      <trkpt lat="42.1161" lon="2.26873">
        <ele>879.5</ele>
        <time>2018-11-26T03:19:39Z</time>
      </trkpt>
      <trkpt lat="42.11613" lon="2.26874">
        <ele>881.6</ele>
        <time>2018-11-26T03:19:40Z</time>
      </trkpt>
      <trkpt lat="42.11615" lon="2.26875">
        <ele>881.5</ele>
        <time>2018-11-26T03:19:41Z</time>
      </trkpt>
      <trkpt lat="42.11617" lon="2.26877">
        <ele>881</ele>
        <time>2018-11-26T03:19:42Z</time>
      </trkpt>
      <trkpt lat="42.11619" lon="2.26878">
        <ele>880.4</ele>
        <time>2018-11-26T03:19:43Z</time>
      </trkpt>
      <trkpt lat="42.11621" lon="2.26879">
        <ele>880.4</ele>
        <time>2018-11-26T03:19:44Z</time>
      </trkpt>
      <trkpt lat="42.11623" lon="2.26881">
        <ele>880.5</ele>
        <time>2018-11-26T03:19:44Z</time>
      </trkpt>
      <trkpt lat="42.11626" lon="2.26882">
        <ele>881.4</ele>
        <time>2018-11-26T03:19:45Z</time>
      </trkpt>
      <trkpt lat="42.11628" lon="2.26882">
        <ele>882</ele>
        <time>2018-11-26T03:19:46Z</time>
      </trkpt>
      <trkpt lat="42.1163" lon="2.26882">
        <ele>882</ele>
        <time>2018-11-26T03:19:47Z</time>
      </trkpt>
      <trkpt lat="42.11632" lon="2.26881">
        <ele>881.5</ele>
        <time>2018-11-26T03:19:48Z</time>
      </trkpt>
      <trkpt lat="42.11632" lon="2.26877">
        <ele>880.2</ele>
        <time>2018-11-26T03:19:49Z</time>
      </trkpt>
      <trkpt lat="42.11632" lon="2.26873">
        <ele>878.5</ele>
        <time>2018-11-26T03:19:50Z</time>
      </trkpt>
      <trkpt lat="42.11633" lon="2.26869">
        <ele>878.2</ele>
        <time>2018-11-26T03:19:52Z</time>
      </trkpt>
      <trkpt lat="42.11635" lon="2.26867">
        <ele>878.2</ele>
        <time>2018-11-26T03:19:53Z</time>
      </trkpt>
      <trkpt lat="42.11638" lon="2.26866">
        <ele>877.6</ele>
        <time>2018-11-26T03:19:54Z</time>
      </trkpt>
      <trkpt lat="42.1164" lon="2.26865">
        <ele>877</ele>
        <time>2018-11-26T03:19:55Z</time>
      </trkpt>
      <trkpt lat="42.1164" lon="2.26862">
        <ele>876.2</ele>
        <time>2018-11-26T03:19:56Z</time>
      </trkpt>
      <trkpt lat="42.1164" lon="2.26859">
        <ele>876.1</ele>
        <time>2018-11-26T03:19:57Z</time>
      </trkpt>
      <trkpt lat="42.11639" lon="2.26857">
        <ele>873.8</ele>
        <time>2018-11-26T03:19:57Z</time>
      </trkpt>
      <trkpt lat="42.11638" lon="2.26853">
        <ele>873.5</ele>
        <time>2018-11-26T03:19:58Z</time>
      </trkpt>
      <trkpt lat="42.11639" lon="2.26851">
        <ele>873.4</ele>
        <time>2018-11-26T03:19:59Z</time>
      </trkpt>
      <trkpt lat="42.11641" lon="2.26849">
        <ele>873.4</ele>
        <time>2018-11-26T03:20:00Z</time>
      </trkpt>
      <trkpt lat="42.11643" lon="2.26847">
        <ele>871.6</ele>
        <time>2018-11-26T03:20:01Z</time>
      </trkpt>
      <trkpt lat="42.11644" lon="2.26844">
        <ele>870.7</ele>
        <time>2018-11-26T03:20:02Z</time>
      </trkpt>
      <trkpt lat="42.11645" lon="2.26841">
        <ele>870.2</ele>
        <time>2018-11-26T03:20:03Z</time>
      </trkpt>
      <trkpt lat="42.11645" lon="2.26838">
        <ele>869.2</ele>
        <time>2018-11-26T03:20:04Z</time>
      </trkpt>
      <trkpt lat="42.11646" lon="2.26835">
        <ele>868.7</ele>
        <time>2018-11-26T03:20:05Z</time>
      </trkpt>
      <trkpt lat="42.11645" lon="2.26825">
        <ele>868.3</ele>
        <time>2018-11-26T03:20:08Z</time>
      </trkpt>
      <trkpt lat="42.11645" lon="2.26821">
        <ele>868.3</ele>
        <time>2018-11-26T03:20:09Z</time>
      </trkpt>
      <trkpt lat="42.11645" lon="2.26817">
        <ele>867.5</ele>
        <time>2018-11-26T03:20:10Z</time>
      </trkpt>
      <trkpt lat="42.11646" lon="2.26813">
        <ele>866.4</ele>
        <time>2018-11-26T03:20:11Z</time>
      </trkpt>
      <trkpt lat="42.11646" lon="2.26809">
        <ele>866.3</ele>
        <time>2018-11-26T03:20:13Z</time>
      </trkpt>
      <trkpt lat="42.11647" lon="2.26806">
        <ele>865.4</ele>
        <time>2018-11-26T03:20:14Z</time>
      </trkpt>
      <trkpt lat="42.11648" lon="2.26803">
        <ele>865.2</ele>
        <time>2018-11-26T03:20:15Z</time>
      </trkpt>
      <trkpt lat="42.1165" lon="2.26801">
        <ele>865.5</ele>
        <time>2018-11-26T03:20:15Z</time>
      </trkpt>
      <trkpt lat="42.11652" lon="2.26799">
        <ele>865.5</ele>
        <time>2018-11-26T03:20:17Z</time>
      </trkpt>
      <trkpt lat="42.11654" lon="2.26797">
        <ele>864.4</ele>
        <time>2018-11-26T03:20:17Z</time>
      </trkpt>
      <trkpt lat="42.11656" lon="2.26794">
        <ele>863.7</ele>
        <time>2018-11-26T03:20:19Z</time>
      </trkpt>
      <trkpt lat="42.11658" lon="2.26793">
        <ele>862.7</ele>
        <time>2018-11-26T03:20:20Z</time>
      </trkpt>
      <trkpt lat="42.1166" lon="2.26794">
        <ele>862.3</ele>
        <time>2018-11-26T03:20:20Z</time>
      </trkpt>
      <trkpt lat="42.1166" lon="2.26797">
        <ele>861.8</ele>
        <time>2018-11-26T03:20:21Z</time>
      </trkpt>
      <trkpt lat="42.11661" lon="2.268">
        <ele>861.8</ele>
        <time>2018-11-26T03:20:22Z</time>
      </trkpt>
      <trkpt lat="42.11663" lon="2.26803">
        <ele>861.5</ele>
        <time>2018-11-26T03:20:23Z</time>
      </trkpt>
      <trkpt lat="42.11665" lon="2.26805">
        <ele>861.4</ele>
        <time>2018-11-26T03:20:24Z</time>
      </trkpt>
      <trkpt lat="42.11667" lon="2.26808">
        <ele>861.4</ele>
        <time>2018-11-26T03:20:26Z</time>
      </trkpt>
      <trkpt lat="42.11669" lon="2.2681">
        <ele>861.2</ele>
        <time>2018-11-26T03:20:27Z</time>
      </trkpt>
      <trkpt lat="42.11671" lon="2.26813">
        <ele>860.5</ele>
        <time>2018-11-26T03:20:28Z</time>
      </trkpt>
      <trkpt lat="42.11672" lon="2.26815">
        <ele>860.1</ele>
        <time>2018-11-26T03:20:29Z</time>
      </trkpt>
      <trkpt lat="42.11675" lon="2.26817">
        <ele>858.5</ele>
        <time>2018-11-26T03:20:30Z</time>
      </trkpt>
      <trkpt lat="42.11677" lon="2.26819">
        <ele>858.6</ele>
        <time>2018-11-26T03:20:31Z</time>
      </trkpt>
      <trkpt lat="42.11678" lon="2.26822">
        <ele>859</ele>
        <time>2018-11-26T03:20:32Z</time>
      </trkpt>
      <trkpt lat="42.1168" lon="2.26825">
        <ele>859.1</ele>
        <time>2018-11-26T03:20:33Z</time>
      </trkpt>
      <trkpt lat="42.11681" lon="2.26828">
        <ele>858.8</ele>
        <time>2018-11-26T03:20:34Z</time>
      </trkpt>
      <trkpt lat="42.11682" lon="2.26831">
        <ele>858.7</ele>
        <time>2018-11-26T03:20:35Z</time>
      </trkpt>
      <trkpt lat="42.11683" lon="2.26834">
        <ele>858.8</ele>
        <time>2018-11-26T03:20:36Z</time>
      </trkpt>
      <trkpt lat="42.11684" lon="2.26837">
        <ele>859</ele>
        <time>2018-11-26T03:20:37Z</time>
      </trkpt>
      <trkpt lat="42.11686" lon="2.26838">
        <ele>858.5</ele>
        <time>2018-11-26T03:20:38Z</time>
      </trkpt>
      <trkpt lat="42.11688" lon="2.2684">
        <ele>858.5</ele>
        <time>2018-11-26T03:20:39Z</time>
      </trkpt>
      <trkpt lat="42.11691" lon="2.26841">
        <ele>858.8</ele>
        <time>2018-11-26T03:20:40Z</time>
      </trkpt>
      <trkpt lat="42.11693" lon="2.26842">
        <ele>859.1</ele>
        <time>2018-11-26T03:20:41Z</time>
      </trkpt>
      <trkpt lat="42.11696" lon="2.26843">
        <ele>859</ele>
        <time>2018-11-26T03:20:42Z</time>
      </trkpt>
      <trkpt lat="42.11698" lon="2.26844">
        <ele>858.7</ele>
        <time>2018-11-26T03:20:43Z</time>
      </trkpt>
      <trkpt lat="42.117" lon="2.26846">
        <ele>858.8</ele>
        <time>2018-11-26T03:20:44Z</time>
      </trkpt>
      <trkpt lat="42.11702" lon="2.26846">
        <ele>858.8</ele>
        <time>2018-11-26T03:20:45Z</time>
      </trkpt>
      <trkpt lat="42.11704" lon="2.26846">
        <ele>859.3</ele>
        <time>2018-11-26T03:20:45Z</time>
      </trkpt>
      <trkpt lat="42.11706" lon="2.26845">
        <ele>858.5</ele>
        <time>2018-11-26T03:20:46Z</time>
      </trkpt>
      <trkpt lat="42.11708" lon="2.26844">
        <ele>858.5</ele>
        <time>2018-11-26T03:20:47Z</time>
      </trkpt>
      <trkpt lat="42.11711" lon="2.26843">
        <ele>858.5</ele>
        <time>2018-11-26T03:20:48Z</time>
      </trkpt>
      <trkpt lat="42.11713" lon="2.26842">
        <ele>858.5</ele>
        <time>2018-11-26T03:20:49Z</time>
      </trkpt>
      <trkpt lat="42.11716" lon="2.26842">
        <ele>858.7</ele>
        <time>2018-11-26T03:20:50Z</time>
      </trkpt>
      <trkpt lat="42.11719" lon="2.26841">
        <ele>858.8</ele>
        <time>2018-11-26T03:20:52Z</time>
      </trkpt>
      <trkpt lat="42.11721" lon="2.26841">
        <ele>858.8</ele>
        <time>2018-11-26T03:20:53Z</time>
      </trkpt>
      <trkpt lat="42.11724" lon="2.2684">
        <ele>859.6</ele>
        <time>2018-11-26T03:20:54Z</time>
      </trkpt>
      <trkpt lat="42.11727" lon="2.2684">
        <ele>858.8</ele>
        <time>2018-11-26T03:20:55Z</time>
      </trkpt>
      <trkpt lat="42.11729" lon="2.2684">
        <ele>859.1</ele>
        <time>2018-11-26T03:20:56Z</time>
      </trkpt>
      <trkpt lat="42.11732" lon="2.26841">
        <ele>858.5</ele>
        <time>2018-11-26T03:20:57Z</time>
      </trkpt>
      <trkpt lat="42.11735" lon="2.2684">
        <ele>858.8</ele>
        <time>2018-11-26T03:20:58Z</time>
      </trkpt>
      <trkpt lat="42.11738" lon="2.26841">
        <ele>859.2</ele>
        <time>2018-11-26T03:20:59Z</time>
      </trkpt>
      <trkpt lat="42.11741" lon="2.26841">
        <ele>859.3</ele>
        <time>2018-11-26T03:21:01Z</time>
      </trkpt>
      <trkpt lat="42.11744" lon="2.2684">
        <ele>859.4</ele>
        <time>2018-11-26T03:21:02Z</time>
      </trkpt>
      <trkpt lat="42.11746" lon="2.26838">
        <ele>859.4</ele>
        <time>2018-11-26T03:21:02Z</time>
      </trkpt>
      <trkpt lat="42.11747" lon="2.26837">
        <ele>859.4</ele>
        <time>2018-11-26T03:21:03Z</time>
      </trkpt>
      <trkpt lat="42.1175" lon="2.26835">
        <ele>858.6</ele>
        <time>2018-11-26T03:21:04Z</time>
      </trkpt>
      <trkpt lat="42.11752" lon="2.26834">
        <ele>858.6</ele>
        <time>2018-11-26T03:21:05Z</time>
      </trkpt>
      <trkpt lat="42.11755" lon="2.26835">
        <ele>858</ele>
        <time>2018-11-26T03:21:07Z</time>
      </trkpt>
      <trkpt lat="42.11756" lon="2.26838">
        <ele>857.4</ele>
        <time>2018-11-26T03:21:08Z</time>
      </trkpt>
      <trkpt lat="42.11757" lon="2.26842">
        <ele>856.8</ele>
        <time>2018-11-26T03:21:09Z</time>
      </trkpt>
      <trkpt lat="42.11758" lon="2.26846">
        <ele>855.5</ele>
        <time>2018-11-26T03:21:10Z</time>
      </trkpt>
      <trkpt lat="42.11758" lon="2.2685">
        <ele>855.3</ele>
        <time>2018-11-26T03:21:11Z</time>
      </trkpt>
      <trkpt lat="42.11757" lon="2.26853">
        <ele>854.8</ele>
        <time>2018-11-26T03:21:12Z</time>
      </trkpt>
      <trkpt lat="42.11757" lon="2.26856">
        <ele>854.2</ele>
        <time>2018-11-26T03:21:13Z</time>
      </trkpt>
      <trkpt lat="42.11756" lon="2.26859">
        <ele>854.1</ele>
        <time>2018-11-26T03:21:14Z</time>
      </trkpt>
      <trkpt lat="42.11755" lon="2.26863">
        <ele>854</ele>
        <time>2018-11-26T03:21:15Z</time>
      </trkpt>
      <trkpt lat="42.11755" lon="2.26866">
        <ele>854</ele>
        <time>2018-11-26T03:21:16Z</time>
      </trkpt>
      <trkpt lat="42.11754" lon="2.2687">
        <ele>854.7</ele>
        <time>2018-11-26T03:21:17Z</time>
      </trkpt>
      <trkpt lat="42.11754" lon="2.26874">
        <ele>855</ele>
        <time>2018-11-26T03:21:19Z</time>
      </trkpt>
      <trkpt lat="42.11753" lon="2.26878">
        <ele>855</ele>
        <time>2018-11-26T03:21:20Z</time>
      </trkpt>
      <trkpt lat="42.11754" lon="2.26881">
        <ele>855.4</ele>
        <time>2018-11-26T03:21:21Z</time>
      </trkpt>
      <trkpt lat="42.11755" lon="2.26884">
        <ele>855.7</ele>
        <time>2018-11-26T03:21:22Z</time>
      </trkpt>
      <trkpt lat="42.11756" lon="2.26887">
        <ele>855.8</ele>
        <time>2018-11-26T03:21:23Z</time>
      </trkpt>
      <trkpt lat="42.11757" lon="2.26891">
        <ele>855.8</ele>
        <time>2018-11-26T03:21:24Z</time>
      </trkpt>
      <trkpt lat="42.11758" lon="2.26892">
        <ele>855.7</ele>
        <time>2018-11-26T03:21:25Z</time>
      </trkpt>
      <trkpt lat="42.1176" lon="2.26897">
        <ele>855.8</ele>
        <time>2018-11-26T03:21:26Z</time>
      </trkpt>
      <trkpt lat="42.1176" lon="2.26901">
        <ele>855.8</ele>
        <time>2018-11-26T03:21:27Z</time>
      </trkpt>
      <trkpt lat="42.11761" lon="2.26905">
        <ele>855.7</ele>
        <time>2018-11-26T03:21:29Z</time>
      </trkpt>
      <trkpt lat="42.11762" lon="2.26909">
        <ele>856.2</ele>
        <time>2018-11-26T03:21:30Z</time>
      </trkpt>
      <trkpt lat="42.11762" lon="2.26913">
        <ele>856.3</ele>
        <time>2018-11-26T03:21:31Z</time>
      </trkpt>
      <trkpt lat="42.11763" lon="2.26917">
        <ele>856.3</ele>
        <time>2018-11-26T03:21:32Z</time>
      </trkpt>
      <trkpt lat="42.11763" lon="2.2692">
        <ele>856.2</ele>
        <time>2018-11-26T03:21:33Z</time>
      </trkpt>
      <trkpt lat="42.11763" lon="2.26924">
        <ele>856.2</ele>
        <time>2018-11-26T03:21:34Z</time>
      </trkpt>
      <trkpt lat="42.11764" lon="2.26927">
        <ele>856.3</ele>
        <time>2018-11-26T03:21:35Z</time>
      </trkpt>
      <trkpt lat="42.11764" lon="2.26931">
        <ele>856.2</ele>
        <time>2018-11-26T03:21:36Z</time>
      </trkpt>
      <trkpt lat="42.11765" lon="2.26934">
        <ele>856.2</ele>
        <time>2018-11-26T03:21:37Z</time>
      </trkpt>
      <trkpt lat="42.11765" lon="2.26938">
        <ele>856.2</ele>
        <time>2018-11-26T03:21:38Z</time>
      </trkpt>
      <trkpt lat="42.11766" lon="2.26941">
        <ele>856.3</ele>
        <time>2018-11-26T03:21:39Z</time>
      </trkpt>
      <trkpt lat="42.11768" lon="2.26943">
        <ele>856.3</ele>
        <time>2018-11-26T03:21:40Z</time>
      </trkpt>
      <trkpt lat="42.11768" lon="2.26946">
        <ele>856.2</ele>
        <time>2018-11-26T03:21:41Z</time>
      </trkpt>
      <trkpt lat="42.1177" lon="2.26948">
        <ele>856.2</ele>
        <time>2018-11-26T03:21:42Z</time>
      </trkpt>
      <trkpt lat="42.11772" lon="2.26951">
        <ele>855.8</ele>
        <time>2018-11-26T03:21:43Z</time>
      </trkpt>
      <trkpt lat="42.11774" lon="2.26954">
        <ele>855.6</ele>
        <time>2018-11-26T03:21:45Z</time>
      </trkpt>
      <trkpt lat="42.11777" lon="2.26957">
        <ele>855.5</ele>
        <time>2018-11-26T03:21:46Z</time>
      </trkpt>
      <trkpt lat="42.11779" lon="2.2696">
        <ele>855.1</ele>
        <time>2018-11-26T03:21:47Z</time>
      </trkpt>
      <trkpt lat="42.1178" lon="2.26962">
        <ele>855.1</ele>
        <time>2018-11-26T03:21:48Z</time>
      </trkpt>
      <trkpt lat="42.11781" lon="2.26965">
        <ele>854.6</ele>
        <time>2018-11-26T03:21:49Z</time>
      </trkpt>
      <trkpt lat="42.11783" lon="2.26967">
        <ele>854.4</ele>
        <time>2018-11-26T03:21:50Z</time>
      </trkpt>
      <trkpt lat="42.11785" lon="2.26969">
        <ele>854.5</ele>
        <time>2018-11-26T03:21:51Z</time>
      </trkpt>
      <trkpt lat="42.11788" lon="2.2697">
        <ele>854.5</ele>
        <time>2018-11-26T03:21:52Z</time>
      </trkpt>
      <trkpt lat="42.1179" lon="2.2697">
        <ele>854.4</ele>
        <time>2018-11-26T03:21:53Z</time>
      </trkpt>
      <trkpt lat="42.11793" lon="2.26969">
        <ele>853.5</ele>
        <time>2018-11-26T03:21:54Z</time>
      </trkpt>
      <trkpt lat="42.11795" lon="2.26968">
        <ele>853.4</ele>
        <time>2018-11-26T03:21:55Z</time>
      </trkpt>
      <trkpt lat="42.11796" lon="2.26967">
        <ele>853.5</ele>
        <time>2018-11-26T03:21:56Z</time>
      </trkpt>
      <trkpt lat="42.11798" lon="2.26965">
        <ele>853.4</ele>
        <time>2018-11-26T03:21:57Z</time>
      </trkpt>
      <trkpt lat="42.118" lon="2.26964">
        <ele>852.8</ele>
        <time>2018-11-26T03:21:57Z</time>
      </trkpt>
      <trkpt lat="42.11802" lon="2.26963">
        <ele>852.3</ele>
        <time>2018-11-26T03:21:58Z</time>
      </trkpt>
      <trkpt lat="42.11804" lon="2.26963">
        <ele>851.6</ele>
        <time>2018-11-26T03:21:59Z</time>
      </trkpt>
      <trkpt lat="42.11806" lon="2.26961">
        <ele>851.5</ele>
        <time>2018-11-26T03:22:00Z</time>
      </trkpt>
      <trkpt lat="42.11809" lon="2.26961">
        <ele>851.2</ele>
        <time>2018-11-26T03:22:01Z</time>
      </trkpt>
      <trkpt lat="42.11811" lon="2.26959">
        <ele>849.7</ele>
        <time>2018-11-26T03:22:02Z</time>
      </trkpt>
      <trkpt lat="42.11814" lon="2.26958">
        <ele>849.6</ele>
        <time>2018-11-26T03:22:03Z</time>
      </trkpt>
      <trkpt lat="42.11816" lon="2.26959">
        <ele>849.5</ele>
        <time>2018-11-26T03:22:04Z</time>
      </trkpt>
      <trkpt lat="42.11819" lon="2.26961">
        <ele>849.4</ele>
        <time>2018-11-26T03:22:05Z</time>
      </trkpt>
      <trkpt lat="42.11821" lon="2.26962">
        <ele>847.7</ele>
        <time>2018-11-26T03:22:06Z</time>
      </trkpt>
      <trkpt lat="42.11823" lon="2.26964">
        <ele>847.7</ele>
        <time>2018-11-26T03:22:07Z</time>
      </trkpt>
      <trkpt lat="42.11825" lon="2.26965">
        <ele>848.3</ele>
        <time>2018-11-26T03:22:08Z</time>
      </trkpt>
      <trkpt lat="42.11828" lon="2.26967">
        <ele>848.5</ele>
        <time>2018-11-26T03:22:10Z</time>
      </trkpt>
      <trkpt lat="42.1183" lon="2.26969">
        <ele>848.7</ele>
        <time>2018-11-26T03:22:11Z</time>
      </trkpt>
      <trkpt lat="42.11832" lon="2.26972">
        <ele>848.6</ele>
        <time>2018-11-26T03:22:12Z</time>
      </trkpt>
      <trkpt lat="42.11834" lon="2.26975">
        <ele>848.5</ele>
        <time>2018-11-26T03:22:13Z</time>
      </trkpt>
      <trkpt lat="42.11837" lon="2.26978">
        <ele>848.5</ele>
        <time>2018-11-26T03:22:14Z</time>
      </trkpt>
      <trkpt lat="42.11838" lon="2.2698">
        <ele>848.2</ele>
        <time>2018-11-26T03:22:15Z</time>
      </trkpt>
      <trkpt lat="42.1184" lon="2.26983">
        <ele>848.3</ele>
        <time>2018-11-26T03:22:16Z</time>
      </trkpt>
      <trkpt lat="42.11842" lon="2.26985">
        <ele>848.4</ele>
        <time>2018-11-26T03:22:17Z</time>
      </trkpt>
      <trkpt lat="42.11844" lon="2.26987">
        <ele>848.4</ele>
        <time>2018-11-26T03:22:18Z</time>
      </trkpt>
      <trkpt lat="42.11846" lon="2.26991">
        <ele>848.4</ele>
        <time>2018-11-26T03:22:20Z</time>
      </trkpt>
      <trkpt lat="42.11848" lon="2.26993">
        <ele>848.2</ele>
        <time>2018-11-26T03:22:21Z</time>
      </trkpt>
      <trkpt lat="42.11848" lon="2.26997">
        <ele>847.8</ele>
        <time>2018-11-26T03:22:22Z</time>
      </trkpt>
      <trkpt lat="42.1185" lon="2.27001">
        <ele>847.5</ele>
        <time>2018-11-26T03:22:23Z</time>
      </trkpt>
      <trkpt lat="42.11852" lon="2.27004">
        <ele>847.4</ele>
        <time>2018-11-26T03:22:24Z</time>
      </trkpt>
      <trkpt lat="42.11852" lon="2.27008">
        <ele>847.5</ele>
        <time>2018-11-26T03:22:26Z</time>
      </trkpt>
      <trkpt lat="42.11853" lon="2.2701">
        <ele>847.3</ele>
        <time>2018-11-26T03:22:26Z</time>
      </trkpt>
      <trkpt lat="42.11854" lon="2.27014">
        <ele>847</ele>
        <time>2018-11-26T03:22:28Z</time>
      </trkpt>
      <trkpt lat="42.11855" lon="2.27017">
        <ele>846.3</ele>
        <time>2018-11-26T03:22:29Z</time>
      </trkpt>
      <trkpt lat="42.11856" lon="2.2702">
        <ele>846.1</ele>
        <time>2018-11-26T03:22:29Z</time>
      </trkpt>
      <trkpt lat="42.11856" lon="2.27024">
        <ele>845.6</ele>
        <time>2018-11-26T03:22:31Z</time>
      </trkpt>
      <trkpt lat="42.11856" lon="2.27029">
        <ele>845.5</ele>
        <time>2018-11-26T03:22:32Z</time>
      </trkpt>
      <trkpt lat="42.11856" lon="2.27033">
        <ele>845.5</ele>
        <time>2018-11-26T03:22:33Z</time>
      </trkpt>
      <trkpt lat="42.11855" lon="2.27037">
        <ele>846.3</ele>
        <time>2018-11-26T03:22:35Z</time>
      </trkpt>
      <trkpt lat="42.11856" lon="2.27041">
        <ele>846.2</ele>
        <time>2018-11-26T03:22:36Z</time>
      </trkpt>
      <trkpt lat="42.11857" lon="2.27044">
        <ele>846.5</ele>
        <time>2018-11-26T03:22:37Z</time>
      </trkpt>
      <trkpt lat="42.11858" lon="2.27046">
        <ele>846.6</ele>
        <time>2018-11-26T03:22:38Z</time>
      </trkpt>
      <trkpt lat="42.11861" lon="2.27047">
        <ele>846</ele>
        <time>2018-11-26T03:22:39Z</time>
      </trkpt>
      <trkpt lat="42.11864" lon="2.27047">
        <ele>845.5</ele>
        <time>2018-11-26T03:22:40Z</time>
      </trkpt>
      <trkpt lat="42.11867" lon="2.27047">
        <ele>845.2</ele>
        <time>2018-11-26T03:22:41Z</time>
      </trkpt>
      <trkpt lat="42.11869" lon="2.27047">
        <ele>845.1</ele>
        <time>2018-11-26T03:22:42Z</time>
      </trkpt>
      <trkpt lat="42.11872" lon="2.27047">
        <ele>845</ele>
        <time>2018-11-26T03:22:43Z</time>
      </trkpt>
      <trkpt lat="42.11875" lon="2.27047">
        <ele>845</ele>
        <time>2018-11-26T03:22:44Z</time>
      </trkpt>
      <trkpt lat="42.11878" lon="2.27046">
        <ele>844.5</ele>
        <time>2018-11-26T03:22:45Z</time>
      </trkpt>
      <trkpt lat="42.11881" lon="2.27045">
        <ele>844.4</ele>
        <time>2018-11-26T03:22:47Z</time>
      </trkpt>
      <trkpt lat="42.11884" lon="2.27043">
        <ele>844.2</ele>
        <time>2018-11-26T03:22:48Z</time>
      </trkpt>
      <trkpt lat="42.11886" lon="2.27042">
        <ele>844.1</ele>
        <time>2018-11-26T03:22:49Z</time>
      </trkpt>
      <trkpt lat="42.11889" lon="2.27041">
        <ele>843.5</ele>
        <time>2018-11-26T03:22:50Z</time>
      </trkpt>
      <trkpt lat="42.11891" lon="2.27039">
        <ele>843.8</ele>
        <time>2018-11-26T03:22:51Z</time>
      </trkpt>
      <trkpt lat="42.11893" lon="2.27036">
        <ele>843.8</ele>
        <time>2018-11-26T03:22:52Z</time>
      </trkpt>
      <trkpt lat="42.11895" lon="2.27035">
        <ele>843.5</ele>
        <time>2018-11-26T03:22:53Z</time>
      </trkpt>
      <trkpt lat="42.11897" lon="2.27033">
        <ele>843.3</ele>
        <time>2018-11-26T03:22:54Z</time>
      </trkpt>
      <trkpt lat="42.11899" lon="2.27031">
        <ele>843.3</ele>
        <time>2018-11-26T03:22:55Z</time>
      </trkpt>
      <trkpt lat="42.11901" lon="2.27029">
        <ele>843.1</ele>
        <time>2018-11-26T03:22:56Z</time>
      </trkpt>
      <trkpt lat="42.11904" lon="2.27027">
        <ele>842.1</ele>
        <time>2018-11-26T03:22:57Z</time>
      </trkpt>
      <trkpt lat="42.11906" lon="2.27026">
        <ele>842</ele>
        <time>2018-11-26T03:22:58Z</time>
      </trkpt>
      <trkpt lat="42.11907" lon="2.27023">
        <ele>842</ele>
        <time>2018-11-26T03:22:59Z</time>
      </trkpt>
      <trkpt lat="42.11909" lon="2.27021">
        <ele>841.7</ele>
        <time>2018-11-26T03:23:00Z</time>
      </trkpt>
      <trkpt lat="42.11912" lon="2.27018">
        <ele>841.7</ele>
        <time>2018-11-26T03:23:01Z</time>
      </trkpt>
      <trkpt lat="42.11914" lon="2.27016">
        <ele>841.7</ele>
        <time>2018-11-26T03:23:03Z</time>
      </trkpt>
      <trkpt lat="42.11916" lon="2.27014">
        <ele>841.5</ele>
        <time>2018-11-26T03:23:04Z</time>
      </trkpt>
      <trkpt lat="42.11918" lon="2.27012">
        <ele>841.4</ele>
        <time>2018-11-26T03:23:05Z</time>
      </trkpt>
      <trkpt lat="42.1192" lon="2.2701">
        <ele>841.4</ele>
        <time>2018-11-26T03:23:06Z</time>
      </trkpt>
      <trkpt lat="42.11922" lon="2.27007">
        <ele>841.4</ele>
        <time>2018-11-26T03:23:07Z</time>
      </trkpt>
      <trkpt lat="42.11924" lon="2.27005">
        <ele>841.5</ele>
        <time>2018-11-26T03:23:08Z</time>
      </trkpt>
      <trkpt lat="42.11926" lon="2.27003">
        <ele>841.8</ele>
        <time>2018-11-26T03:23:09Z</time>
      </trkpt>
      <trkpt lat="42.11928" lon="2.27001">
        <ele>841.8</ele>
        <time>2018-11-26T03:23:10Z</time>
      </trkpt>
      <trkpt lat="42.1193" lon="2.26999">
        <ele>841.7</ele>
        <time>2018-11-26T03:23:11Z</time>
      </trkpt>
      <trkpt lat="42.11931" lon="2.26997">
        <ele>842.2</ele>
        <time>2018-11-26T03:23:12Z</time>
      </trkpt>
      <trkpt lat="42.11932" lon="2.26995">
        <ele>842.8</ele>
        <time>2018-11-26T03:23:12Z</time>
      </trkpt>
      <trkpt lat="42.11933" lon="2.26992">
        <ele>844</ele>
        <time>2018-11-26T03:23:13Z</time>
      </trkpt>
      <trkpt lat="42.11934" lon="2.26988">
        <ele>844.1</ele>
        <time>2018-11-26T03:23:14Z</time>
      </trkpt>
      <trkpt lat="42.11935" lon="2.26986">
        <ele>844.3</ele>
        <time>2018-11-26T03:23:15Z</time>
      </trkpt>
      <trkpt lat="42.11935" lon="2.26983">
        <ele>844</ele>
        <time>2018-11-26T03:23:16Z</time>
      </trkpt>
      <trkpt lat="42.11934" lon="2.2698">
        <ele>844.1</ele>
        <time>2018-11-26T03:23:17Z</time>
      </trkpt>
      <trkpt lat="42.11934" lon="2.26978">
        <ele>844</ele>
        <time>2018-11-26T03:23:18Z</time>
      </trkpt>
      <trkpt lat="42.11934" lon="2.26974">
        <ele>844.1</ele>
        <time>2018-11-26T03:23:19Z</time>
      </trkpt>
      <trkpt lat="42.11935" lon="2.2697">
        <ele>843.5</ele>
        <time>2018-11-26T03:23:20Z</time>
      </trkpt>
      <trkpt lat="42.11936" lon="2.26966">
        <ele>842.4</ele>
        <time>2018-11-26T03:23:21Z</time>
      </trkpt>
      <trkpt lat="42.11938" lon="2.26964">
        <ele>842.4</ele>
        <time>2018-11-26T03:23:22Z</time>
      </trkpt>
      <trkpt lat="42.1194" lon="2.26962">
        <ele>842.2</ele>
        <time>2018-11-26T03:23:23Z</time>
      </trkpt>
      <trkpt lat="42.11941" lon="2.26961">
        <ele>842.1</ele>
        <time>2018-11-26T03:23:24Z</time>
      </trkpt>
      <trkpt lat="42.11943" lon="2.2696">
        <ele>841.3</ele>
        <time>2018-11-26T03:23:25Z</time>
      </trkpt>
      <trkpt lat="42.11947" lon="2.26957">
        <ele>840.7</ele>
        <time>2018-11-26T03:23:27Z</time>
      </trkpt>
      <trkpt lat="42.11949" lon="2.26955">
        <ele>840.5</ele>
        <time>2018-11-26T03:23:27Z</time>
      </trkpt>
      <trkpt lat="42.11951" lon="2.26955">
        <ele>840.4</ele>
        <time>2018-11-26T03:23:28Z</time>
      </trkpt>
      <trkpt lat="42.11953" lon="2.26955">
        <ele>840.5</ele>
        <time>2018-11-26T03:23:29Z</time>
      </trkpt>
      <trkpt lat="42.11956" lon="2.26955">
        <ele>840.5</ele>
        <time>2018-11-26T03:23:30Z</time>
      </trkpt>
      <trkpt lat="42.11958" lon="2.26954">
        <ele>840.4</ele>
        <time>2018-11-26T03:23:31Z</time>
      </trkpt>
      <trkpt lat="42.11961" lon="2.26954">
        <ele>840.3</ele>
        <time>2018-11-26T03:23:32Z</time>
      </trkpt>
      <trkpt lat="42.11963" lon="2.26953">
        <ele>839.7</ele>
        <time>2018-11-26T03:23:33Z</time>
      </trkpt>
      <trkpt lat="42.11965" lon="2.26953">
        <ele>839.5</ele>
        <time>2018-11-26T03:23:34Z</time>
      </trkpt>
      <trkpt lat="42.11967" lon="2.26954">
        <ele>839.4</ele>
        <time>2018-11-26T03:23:35Z</time>
      </trkpt>
      <trkpt lat="42.11969" lon="2.26955">
        <ele>839.4</ele>
        <time>2018-11-26T03:23:36Z</time>
      </trkpt>
      <trkpt lat="42.11972" lon="2.26957">
        <ele>839.7</ele>
        <time>2018-11-26T03:23:37Z</time>
      </trkpt>
      <trkpt lat="42.11974" lon="2.26959">
        <ele>840</ele>
        <time>2018-11-26T03:23:38Z</time>
      </trkpt>
      <trkpt lat="42.11976" lon="2.26962">
        <ele>840.5</ele>
        <time>2018-11-26T03:23:39Z</time>
      </trkpt>
      <trkpt lat="42.11977" lon="2.26963">
        <ele>840.6</ele>
        <time>2018-11-26T03:23:40Z</time>
      </trkpt>
      <trkpt lat="42.11979" lon="2.26965">
        <ele>841.2</ele>
        <time>2018-11-26T03:23:41Z</time>
      </trkpt>
      <trkpt lat="42.11981" lon="2.26968">
        <ele>842</ele>
        <time>2018-11-26T03:23:42Z</time>
      </trkpt>
      <trkpt lat="42.11983" lon="2.2697">
        <ele>842.6</ele>
        <time>2018-11-26T03:23:43Z</time>
      </trkpt>
      <trkpt lat="42.11985" lon="2.26971">
        <ele>842.6</ele>
        <time>2018-11-26T03:23:44Z</time>
      </trkpt>
      <trkpt lat="42.11987" lon="2.26971">
        <ele>843.5</ele>
        <time>2018-11-26T03:23:45Z</time>
      </trkpt>
      <trkpt lat="42.11989" lon="2.26973">
        <ele>844</ele>
        <time>2018-11-26T03:23:46Z</time>
      </trkpt>
      <trkpt lat="42.11991" lon="2.26972">
        <ele>844</ele>
        <time>2018-11-26T03:23:46Z</time>
      </trkpt>
      <trkpt lat="42.11993" lon="2.26973">
        <ele>844.8</ele>
        <time>2018-11-26T03:23:47Z</time>
      </trkpt>
      <trkpt lat="42.11996" lon="2.26973">
        <ele>845.3</ele>
        <time>2018-11-26T03:23:48Z</time>
      </trkpt>
      <trkpt lat="42.11997" lon="2.26971">
        <ele>845.6</ele>
        <time>2018-11-26T03:23:49Z</time>
      </trkpt>
      <trkpt lat="42.12" lon="2.26969">
        <ele>845.5</ele>
        <time>2018-11-26T03:23:50Z</time>
      </trkpt>
      <trkpt lat="42.12001" lon="2.26966">
        <ele>845.5</ele>
        <time>2018-11-26T03:23:51Z</time>
      </trkpt>
      <trkpt lat="42.12003" lon="2.26966">
        <ele>845.5</ele>
        <time>2018-11-26T03:23:52Z</time>
      </trkpt>
      <trkpt lat="42.12006" lon="2.2696">
        <ele>845.6</ele>
        <time>2018-11-26T03:23:54Z</time>
      </trkpt>
      <trkpt lat="42.12008" lon="2.26958">
        <ele>845</ele>
        <time>2018-11-26T03:23:55Z</time>
      </trkpt>
      <trkpt lat="42.12011" lon="2.26956">
        <ele>845.1</ele>
        <time>2018-11-26T03:23:56Z</time>
      </trkpt>
      <trkpt lat="42.12013" lon="2.26953">
        <ele>845.1</ele>
        <time>2018-11-26T03:23:57Z</time>
      </trkpt>
      <trkpt lat="42.12015" lon="2.26951">
        <ele>845</ele>
        <time>2018-11-26T03:23:59Z</time>
      </trkpt>
      <trkpt lat="42.12018" lon="2.26948">
        <ele>845</ele>
        <time>2018-11-26T03:24:00Z</time>
      </trkpt>
      <trkpt lat="42.12021" lon="2.26947">
        <ele>844.4</ele>
        <time>2018-11-26T03:24:01Z</time>
      </trkpt>
      <trkpt lat="42.12024" lon="2.26947">
        <ele>842.5</ele>
        <time>2018-11-26T03:24:02Z</time>
      </trkpt>
      <trkpt lat="42.12025" lon="2.26947">
        <ele>842.6</ele>
        <time>2018-11-26T03:24:03Z</time>
      </trkpt>
      <trkpt lat="42.12027" lon="2.26947">
        <ele>842.5</ele>
        <time>2018-11-26T03:24:04Z</time>
      </trkpt>
      <trkpt lat="42.1203" lon="2.26946">
        <ele>843.2</ele>
        <time>2018-11-26T03:24:05Z</time>
      </trkpt>
      <trkpt lat="42.12032" lon="2.26946">
        <ele>843.5</ele>
        <time>2018-11-26T03:24:05Z</time>
      </trkpt>
      <trkpt lat="42.12034" lon="2.26945">
        <ele>843.4</ele>
        <time>2018-11-26T03:24:06Z</time>
      </trkpt>
      <trkpt lat="42.12036" lon="2.26946">
        <ele>843.7</ele>
        <time>2018-11-26T03:24:07Z</time>
      </trkpt>
      <trkpt lat="42.12039" lon="2.26945">
        <ele>843.7</ele>
        <time>2018-11-26T03:24:08Z</time>
      </trkpt>
      <trkpt lat="42.12041" lon="2.26945">
        <ele>843.7</ele>
        <time>2018-11-26T03:24:09Z</time>
      </trkpt>
      <trkpt lat="42.12051" lon="2.26946">
        <ele>844.4</ele>
        <time>2018-11-26T03:24:13Z</time>
      </trkpt>
      <trkpt lat="42.1206" lon="2.2695">
        <ele>845</ele>
        <time>2018-11-26T03:24:17Z</time>
      </trkpt>
      <trkpt lat="42.12065" lon="2.26951">
        <ele>844.7</ele>
        <time>2018-11-26T03:24:19Z</time>
      </trkpt>
      <trkpt lat="42.12067" lon="2.26951">
        <ele>845.6</ele>
        <time>2018-11-26T03:24:20Z</time>
      </trkpt>
      <trkpt lat="42.1207" lon="2.26951">
        <ele>845.5</ele>
        <time>2018-11-26T03:24:21Z</time>
      </trkpt>
      <trkpt lat="42.12073" lon="2.26951">
        <ele>845.6</ele>
        <time>2018-11-26T03:24:22Z</time>
      </trkpt>
      <trkpt lat="42.12075" lon="2.26952">
        <ele>845.8</ele>
        <time>2018-11-26T03:24:23Z</time>
      </trkpt>
      <trkpt lat="42.12078" lon="2.26953">
        <ele>846.3</ele>
        <time>2018-11-26T03:24:24Z</time>
      </trkpt>
      <trkpt lat="42.12084" lon="2.26958">
        <ele>847.3</ele>
        <time>2018-11-26T03:24:27Z</time>
      </trkpt>
      <trkpt lat="42.12086" lon="2.26959">
        <ele>847.6</ele>
        <time>2018-11-26T03:24:28Z</time>
      </trkpt>
      <trkpt lat="42.12088" lon="2.2696">
        <ele>848.3</ele>
        <time>2018-11-26T03:24:29Z</time>
      </trkpt>
      <trkpt lat="42.1209" lon="2.2696">
        <ele>848.7</ele>
        <time>2018-11-26T03:24:30Z</time>
      </trkpt>
      <trkpt lat="42.12092" lon="2.26961">
        <ele>849.4</ele>
        <time>2018-11-26T03:24:31Z</time>
      </trkpt>
      <trkpt lat="42.12094" lon="2.2696">
        <ele>849.5</ele>
        <time>2018-11-26T03:24:31Z</time>
      </trkpt>
      <trkpt lat="42.12099" lon="2.26956">
        <ele>850.6</ele>
        <time>2018-11-26T03:24:34Z</time>
      </trkpt>
      <trkpt lat="42.12101" lon="2.26954">
        <ele>850.8</ele>
        <time>2018-11-26T03:24:35Z</time>
      </trkpt>
      <trkpt lat="42.12103" lon="2.26952">
        <ele>851.2</ele>
        <time>2018-11-26T03:24:35Z</time>
      </trkpt>
      <trkpt lat="42.12104" lon="2.26951">
        <ele>851.7</ele>
        <time>2018-11-26T03:24:36Z</time>
      </trkpt>
      <trkpt lat="42.12106" lon="2.2695">
        <ele>851.8</ele>
        <time>2018-11-26T03:24:37Z</time>
      </trkpt>
      <trkpt lat="42.12108" lon="2.26948">
        <ele>852</ele>
        <time>2018-11-26T03:24:38Z</time>
      </trkpt>
      <trkpt lat="42.12109" lon="2.26947">
        <ele>852</ele>
        <time>2018-11-26T03:24:39Z</time>
      </trkpt>
      <trkpt lat="42.12111" lon="2.26945">
        <ele>852.3</ele>
        <time>2018-11-26T03:24:40Z</time>
      </trkpt>
      <trkpt lat="42.12113" lon="2.26942">
        <ele>852.5</ele>
        <time>2018-11-26T03:24:41Z</time>
      </trkpt>
      <trkpt lat="42.12115" lon="2.2694">
        <ele>852.5</ele>
        <time>2018-11-26T03:24:42Z</time>
      </trkpt>
      <trkpt lat="42.12117" lon="2.26938">
        <ele>852.7</ele>
        <time>2018-11-26T03:24:43Z</time>
      </trkpt>
      <trkpt lat="42.12118" lon="2.26934">
        <ele>853.2</ele>
        <time>2018-11-26T03:24:44Z</time>
      </trkpt>
      <trkpt lat="42.12119" lon="2.26932">
        <ele>853.3</ele>
        <time>2018-11-26T03:24:45Z</time>
      </trkpt>
      <trkpt lat="42.1212" lon="2.26929">
        <ele>853.5</ele>
        <time>2018-11-26T03:24:45Z</time>
      </trkpt>
      <trkpt lat="42.12121" lon="2.26927">
        <ele>854.2</ele>
        <time>2018-11-26T03:24:46Z</time>
      </trkpt>
      <trkpt lat="42.12122" lon="2.26925">
        <ele>854.5</ele>
        <time>2018-11-26T03:24:47Z</time>
      </trkpt>
      <trkpt lat="42.12123" lon="2.26922">
        <ele>854.6</ele>
        <time>2018-11-26T03:24:48Z</time>
      </trkpt>
      <trkpt lat="42.12124" lon="2.2692">
        <ele>854.5</ele>
        <time>2018-11-26T03:24:49Z</time>
      </trkpt>
      <trkpt lat="42.12126" lon="2.26917">
        <ele>855.8</ele>
        <time>2018-11-26T03:24:50Z</time>
      </trkpt>
      <trkpt lat="42.12128" lon="2.26916">
        <ele>855.7</ele>
        <time>2018-11-26T03:24:51Z</time>
      </trkpt>
      <trkpt lat="42.12131" lon="2.26914">
        <ele>855.7</ele>
        <time>2018-11-26T03:24:52Z</time>
      </trkpt>
      <trkpt lat="42.12133" lon="2.26914">
        <ele>855.7</ele>
        <time>2018-11-26T03:24:53Z</time>
      </trkpt>
      <trkpt lat="42.12136" lon="2.26913">
        <ele>855.7</ele>
        <time>2018-11-26T03:24:54Z</time>
      </trkpt>
      <trkpt lat="42.12138" lon="2.26912">
        <ele>856</ele>
        <time>2018-11-26T03:24:55Z</time>
      </trkpt>
      <trkpt lat="42.1214" lon="2.26911">
        <ele>856.1</ele>
        <time>2018-11-26T03:24:56Z</time>
      </trkpt>
      <trkpt lat="42.12143" lon="2.26913">
        <ele>856.5</ele>
        <time>2018-11-26T03:24:57Z</time>
      </trkpt>
      <trkpt lat="42.12145" lon="2.26914">
        <ele>857.2</ele>
        <time>2018-11-26T03:24:58Z</time>
      </trkpt>
      <trkpt lat="42.12148" lon="2.26916">
        <ele>857</ele>
        <time>2018-11-26T03:24:59Z</time>
      </trkpt>
      <trkpt lat="42.12149" lon="2.26919">
        <ele>856.6</ele>
        <time>2018-11-26T03:25:00Z</time>
      </trkpt>
      <trkpt lat="42.12151" lon="2.26922">
        <ele>856.4</ele>
        <time>2018-11-26T03:25:01Z</time>
      </trkpt>
      <trkpt lat="42.12153" lon="2.26924">
        <ele>856.3</ele>
        <time>2018-11-26T03:25:02Z</time>
      </trkpt>
      <trkpt lat="42.12155" lon="2.26927">
        <ele>856</ele>
        <time>2018-11-26T03:25:04Z</time>
      </trkpt>
      <trkpt lat="42.12158" lon="2.26933">
        <ele>855.4</ele>
        <time>2018-11-26T03:25:06Z</time>
      </trkpt>
      <trkpt lat="42.1216" lon="2.26937">
        <ele>855.1</ele>
        <time>2018-11-26T03:25:07Z</time>
      </trkpt>
      <trkpt lat="42.12165" lon="2.26944">
        <ele>854.5</ele>
        <time>2018-11-26T03:25:10Z</time>
      </trkpt>
      <trkpt lat="42.12166" lon="2.26947">
        <ele>854.2</ele>
        <time>2018-11-26T03:25:11Z</time>
      </trkpt>
      <trkpt lat="42.12168" lon="2.26949">
        <ele>854.1</ele>
        <time>2018-11-26T03:25:12Z</time>
      </trkpt>
      <trkpt lat="42.12173" lon="2.2696">
        <ele>853.7</ele>
        <time>2018-11-26T03:25:16Z</time>
      </trkpt>
      <trkpt lat="42.12175" lon="2.26964">
        <ele>853.2</ele>
        <time>2018-11-26T03:25:17Z</time>
      </trkpt>
      <trkpt lat="42.12176" lon="2.26966">
        <ele>853.1</ele>
        <time>2018-11-26T03:25:18Z</time>
      </trkpt>
      <trkpt lat="42.12178" lon="2.26969">
        <ele>853.1</ele>
        <time>2018-11-26T03:25:19Z</time>
      </trkpt>
      <trkpt lat="42.12181" lon="2.2697">
        <ele>853.1</ele>
        <time>2018-11-26T03:25:20Z</time>
      </trkpt>
      <trkpt lat="42.12182" lon="2.26971">
        <ele>852.7</ele>
        <time>2018-11-26T03:25:21Z</time>
      </trkpt>
      <trkpt lat="42.12185" lon="2.26971">
        <ele>851.8</ele>
        <time>2018-11-26T03:25:22Z</time>
      </trkpt>
      <trkpt lat="42.12188" lon="2.26972">
        <ele>851.7</ele>
        <time>2018-11-26T03:25:23Z</time>
      </trkpt>
      <trkpt lat="42.1219" lon="2.26973">
        <ele>851.7</ele>
        <time>2018-11-26T03:25:24Z</time>
      </trkpt>
      <trkpt lat="42.12193" lon="2.26974">
        <ele>851.5</ele>
        <time>2018-11-26T03:25:25Z</time>
      </trkpt>
      <trkpt lat="42.12196" lon="2.26974">
        <ele>851.4</ele>
        <time>2018-11-26T03:25:27Z</time>
      </trkpt>
      <trkpt lat="42.12199" lon="2.26975">
        <ele>851.3</ele>
        <time>2018-11-26T03:25:28Z</time>
      </trkpt>
      <trkpt lat="42.12201" lon="2.26977">
        <ele>850.5</ele>
        <time>2018-11-26T03:25:29Z</time>
      </trkpt>
      <trkpt lat="42.12208" lon="2.26978">
        <ele>849.6</ele>
        <time>2018-11-26T03:25:31Z</time>
      </trkpt>
      <trkpt lat="42.1221" lon="2.26978">
        <ele>849</ele>
        <time>2018-11-26T03:25:32Z</time>
      </trkpt>
      <trkpt lat="42.12212" lon="2.26979">
        <ele>848.8</ele>
        <time>2018-11-26T03:25:33Z</time>
      </trkpt>
      <trkpt lat="42.12215" lon="2.26979">
        <ele>848.5</ele>
        <time>2018-11-26T03:25:34Z</time>
      </trkpt>
      <trkpt lat="42.12218" lon="2.26979">
        <ele>848.5</ele>
        <time>2018-11-26T03:25:36Z</time>
      </trkpt>
      <trkpt lat="42.12222" lon="2.26979">
        <ele>848.3</ele>
        <time>2018-11-26T03:25:37Z</time>
      </trkpt>
      <trkpt lat="42.12225" lon="2.26978">
        <ele>848.1</ele>
        <time>2018-11-26T03:25:38Z</time>
      </trkpt>
      <trkpt lat="42.12228" lon="2.26977">
        <ele>847.5</ele>
        <time>2018-11-26T03:25:39Z</time>
      </trkpt>
      <trkpt lat="42.12229" lon="2.26976">
        <ele>847.2</ele>
        <time>2018-11-26T03:25:40Z</time>
      </trkpt>
      <trkpt lat="42.12231" lon="2.26974">
        <ele>846.7</ele>
        <time>2018-11-26T03:25:41Z</time>
      </trkpt>
      <trkpt lat="42.12233" lon="2.26972">
        <ele>846.5</ele>
        <time>2018-11-26T03:25:42Z</time>
      </trkpt>
      <trkpt lat="42.12234" lon="2.26969">
        <ele>846.3</ele>
        <time>2018-11-26T03:25:43Z</time>
      </trkpt>
      <trkpt lat="42.12232" lon="2.26967">
        <ele>846</ele>
        <time>2018-11-26T03:25:44Z</time>
      </trkpt>
      <trkpt lat="42.1223" lon="2.26966">
        <ele>845.6</ele>
        <time>2018-11-26T03:25:45Z</time>
      </trkpt>
      <trkpt lat="42.12228" lon="2.26961">
        <ele>845</ele>
        <time>2018-11-26T03:25:46Z</time>
      </trkpt>
      <trkpt lat="42.12226" lon="2.26958">
        <ele>845.1</ele>
        <time>2018-11-26T03:25:47Z</time>
      </trkpt>
      <trkpt lat="42.12224" lon="2.26957">
        <ele>845</ele>
        <time>2018-11-26T03:25:48Z</time>
      </trkpt>
      <trkpt lat="42.12222" lon="2.26955">
        <ele>845</ele>
        <time>2018-11-26T03:25:49Z</time>
      </trkpt>
      <trkpt lat="42.1222" lon="2.26953">
        <ele>845.5</ele>
        <time>2018-11-26T03:25:50Z</time>
      </trkpt>
      <trkpt lat="42.12221" lon="2.26949">
        <ele>845.5</ele>
        <time>2018-11-26T03:25:52Z</time>
      </trkpt>
      <trkpt lat="42.12221" lon="2.26945">
        <ele>845.5</ele>
        <time>2018-11-26T03:25:53Z</time>
      </trkpt>
      <trkpt lat="42.1222" lon="2.26943">
        <ele>845.7</ele>
        <time>2018-11-26T03:25:54Z</time>
      </trkpt>
      <trkpt lat="42.12221" lon="2.2694">
        <ele>846.1</ele>
        <time>2018-11-26T03:25:54Z</time>
      </trkpt>
      <trkpt lat="42.12222" lon="2.26937">
        <ele>847</ele>
        <time>2018-11-26T03:25:55Z</time>
      </trkpt>
      <trkpt lat="42.12224" lon="2.26935">
        <ele>847.1</ele>
        <time>2018-11-26T03:25:56Z</time>
      </trkpt>
      <trkpt lat="42.12225" lon="2.26933">
        <ele>847</ele>
        <time>2018-11-26T03:25:57Z</time>
      </trkpt>
      <trkpt lat="42.12227" lon="2.26931">
        <ele>847.2</ele>
        <time>2018-11-26T03:25:58Z</time>
      </trkpt>
      <trkpt lat="42.12228" lon="2.26928">
        <ele>848.1</ele>
        <time>2018-11-26T03:25:59Z</time>
      </trkpt>
      <trkpt lat="42.1223" lon="2.26926">
        <ele>848</ele>
        <time>2018-11-26T03:26:00Z</time>
      </trkpt>
      <trkpt lat="42.12231" lon="2.26924">
        <ele>848</ele>
        <time>2018-11-26T03:26:01Z</time>
      </trkpt>
      <trkpt lat="42.12232" lon="2.26921">
        <ele>848.4</ele>
        <time>2018-11-26T03:26:02Z</time>
      </trkpt>
      <trkpt lat="42.12232" lon="2.26918">
        <ele>848.4</ele>
        <time>2018-11-26T03:26:03Z</time>
      </trkpt>
      <trkpt lat="42.12233" lon="2.26916">
        <ele>848.4</ele>
        <time>2018-11-26T03:26:03Z</time>
      </trkpt>
      <trkpt lat="42.12235" lon="2.26913">
        <ele>848.5</ele>
        <time>2018-11-26T03:26:04Z</time>
      </trkpt>
      <trkpt lat="42.12236" lon="2.26911">
        <ele>849.5</ele>
        <time>2018-11-26T03:26:05Z</time>
      </trkpt>
      <trkpt lat="42.12238" lon="2.2691">
        <ele>849.4</ele>
        <time>2018-11-26T03:26:06Z</time>
      </trkpt>
      <trkpt lat="42.1224" lon="2.26908">
        <ele>849.6</ele>
        <time>2018-11-26T03:26:07Z</time>
      </trkpt>
      <trkpt lat="42.12242" lon="2.26906">
        <ele>849.4</ele>
        <time>2018-11-26T03:26:08Z</time>
      </trkpt>
      <trkpt lat="42.12243" lon="2.26903">
        <ele>850.4</ele>
        <time>2018-11-26T03:26:09Z</time>
      </trkpt>
      <trkpt lat="42.12244" lon="2.26901">
        <ele>850.5</ele>
        <time>2018-11-26T03:26:10Z</time>
      </trkpt>
      <trkpt lat="42.12246" lon="2.26899">
        <ele>850.5</ele>
        <time>2018-11-26T03:26:11Z</time>
      </trkpt>
      <trkpt lat="42.12248" lon="2.26896">
        <ele>850.5</ele>
        <time>2018-11-26T03:26:12Z</time>
      </trkpt>
      <trkpt lat="42.12251" lon="2.26894">
        <ele>850.8</ele>
        <time>2018-11-26T03:26:13Z</time>
      </trkpt>
      <trkpt lat="42.12253" lon="2.26893">
        <ele>850.8</ele>
        <time>2018-11-26T03:26:14Z</time>
      </trkpt>
      <trkpt lat="42.12255" lon="2.2689">
        <ele>850.7</ele>
        <time>2018-11-26T03:26:15Z</time>
      </trkpt>
      <trkpt lat="42.12257" lon="2.26888">
        <ele>850.7</ele>
        <time>2018-11-26T03:26:16Z</time>
      </trkpt>
      <trkpt lat="42.1226" lon="2.26887">
        <ele>851.6</ele>
        <time>2018-11-26T03:26:17Z</time>
      </trkpt>
      <trkpt lat="42.12262" lon="2.26886">
        <ele>853.1</ele>
        <time>2018-11-26T03:26:18Z</time>
      </trkpt>
      <trkpt lat="42.12264" lon="2.26884">
        <ele>853</ele>
        <time>2018-11-26T03:26:19Z</time>
      </trkpt>
      <trkpt lat="42.12265" lon="2.26883">
        <ele>853</ele>
        <time>2018-11-26T03:26:20Z</time>
      </trkpt>
      <trkpt lat="42.12268" lon="2.26882">
        <ele>853.2</ele>
        <time>2018-11-26T03:26:21Z</time>
      </trkpt>
      <trkpt lat="42.12269" lon="2.26881">
        <ele>853.3</ele>
        <time>2018-11-26T03:26:22Z</time>
      </trkpt>
      <trkpt lat="42.12271" lon="2.2688">
        <ele>853.6</ele>
        <time>2018-11-26T03:26:22Z</time>
      </trkpt>
      <trkpt lat="42.12273" lon="2.2688">
        <ele>854.5</ele>
        <time>2018-11-26T03:26:23Z</time>
      </trkpt>
      <trkpt lat="42.12275" lon="2.26879">
        <ele>854.5</ele>
        <time>2018-11-26T03:26:24Z</time>
      </trkpt>
      <trkpt lat="42.12277" lon="2.26878">
        <ele>855.2</ele>
        <time>2018-11-26T03:26:25Z</time>
      </trkpt>
      <trkpt lat="42.12279" lon="2.26878">
        <ele>855.5</ele>
        <time>2018-11-26T03:26:26Z</time>
      </trkpt>
      <trkpt lat="42.12281" lon="2.26878">
        <ele>856</ele>
        <time>2018-11-26T03:26:26Z</time>
      </trkpt>
      <trkpt lat="42.12283" lon="2.26877">
        <ele>856</ele>
        <time>2018-11-26T03:26:27Z</time>
      </trkpt>
      <trkpt lat="42.12286" lon="2.26876">
        <ele>856.1</ele>
        <time>2018-11-26T03:26:28Z</time>
      </trkpt>
      <trkpt lat="42.12288" lon="2.26876">
        <ele>856.3</ele>
        <time>2018-11-26T03:26:29Z</time>
      </trkpt>
      <trkpt lat="42.1229" lon="2.26876">
        <ele>857.3</ele>
        <time>2018-11-26T03:26:30Z</time>
      </trkpt>
      <trkpt lat="42.12292" lon="2.26877">
        <ele>857.4</ele>
        <time>2018-11-26T03:26:31Z</time>
      </trkpt>
      <trkpt lat="42.12295" lon="2.26879">
        <ele>858.2</ele>
        <time>2018-11-26T03:26:32Z</time>
      </trkpt>
      <trkpt lat="42.12297" lon="2.2688">
        <ele>858.4</ele>
        <time>2018-11-26T03:26:33Z</time>
      </trkpt>
      <trkpt lat="42.12299" lon="2.26879">
        <ele>860.3</ele>
        <time>2018-11-26T03:26:34Z</time>
      </trkpt>
      <trkpt lat="42.12301" lon="2.26878">
        <ele>860.4</ele>
        <time>2018-11-26T03:26:35Z</time>
      </trkpt>
      <trkpt lat="42.12302" lon="2.26876">
        <ele>860.6</ele>
        <time>2018-11-26T03:26:36Z</time>
      </trkpt>
      <trkpt lat="42.12302" lon="2.26873">
        <ele>860.7</ele>
        <time>2018-11-26T03:26:36Z</time>
      </trkpt>
      <trkpt lat="42.12302" lon="2.26871">
        <ele>861.2</ele>
        <time>2018-11-26T03:26:37Z</time>
      </trkpt>
      <trkpt lat="42.12303" lon="2.26868">
        <ele>862</ele>
        <time>2018-11-26T03:26:38Z</time>
      </trkpt>
      <trkpt lat="42.12304" lon="2.26866">
        <ele>863.5</ele>
        <time>2018-11-26T03:26:39Z</time>
      </trkpt>
      <trkpt lat="42.12304" lon="2.26863">
        <ele>863.6</ele>
        <time>2018-11-26T03:26:39Z</time>
      </trkpt>
      <trkpt lat="42.12303" lon="2.2686">
        <ele>863.6</ele>
        <time>2018-11-26T03:26:40Z</time>
      </trkpt>
      <trkpt lat="42.12303" lon="2.26857">
        <ele>864</ele>
        <time>2018-11-26T03:26:41Z</time>
      </trkpt>
      <trkpt lat="42.12304" lon="2.26854">
        <ele>864</ele>
        <time>2018-11-26T03:26:42Z</time>
      </trkpt>
      <trkpt lat="42.12306" lon="2.26851">
        <ele>863.8</ele>
        <time>2018-11-26T03:26:43Z</time>
      </trkpt>
      <trkpt lat="42.12308" lon="2.26849">
        <ele>864.2</ele>
        <time>2018-11-26T03:26:44Z</time>
      </trkpt>
      <trkpt lat="42.12308" lon="2.26847">
        <ele>864.5</ele>
        <time>2018-11-26T03:26:45Z</time>
      </trkpt>
      <trkpt lat="42.12309" lon="2.26844">
        <ele>865</ele>
        <time>2018-11-26T03:26:46Z</time>
      </trkpt>
      <trkpt lat="42.12309" lon="2.26841">
        <ele>865.7</ele>
        <time>2018-11-26T03:26:47Z</time>
      </trkpt>
      <trkpt lat="42.12311" lon="2.26839">
        <ele>866.2</ele>
        <time>2018-11-26T03:26:48Z</time>
      </trkpt>
      <trkpt lat="42.12314" lon="2.26837">
        <ele>866.8</ele>
        <time>2018-11-26T03:26:49Z</time>
      </trkpt>
      <trkpt lat="42.12316" lon="2.26836">
        <ele>866.7</ele>
        <time>2018-11-26T03:26:50Z</time>
      </trkpt>
      <trkpt lat="42.12318" lon="2.26835">
        <ele>867.1</ele>
        <time>2018-11-26T03:26:51Z</time>
      </trkpt>
      <trkpt lat="42.12321" lon="2.26833">
        <ele>867.4</ele>
        <time>2018-11-26T03:26:52Z</time>
      </trkpt>
      <trkpt lat="42.12323" lon="2.26832">
        <ele>867.5</ele>
        <time>2018-11-26T03:26:53Z</time>
      </trkpt>
      <trkpt lat="42.12324" lon="2.26831">
        <ele>868.3</ele>
        <time>2018-11-26T03:26:54Z</time>
      </trkpt>
      <trkpt lat="42.12326" lon="2.2683">
        <ele>868.2</ele>
        <time>2018-11-26T03:26:54Z</time>
      </trkpt>
      <trkpt lat="42.12329" lon="2.2683">
        <ele>868.5</ele>
        <time>2018-11-26T03:26:55Z</time>
      </trkpt>
      <trkpt lat="42.12331" lon="2.26829">
        <ele>868.8</ele>
        <time>2018-11-26T03:26:56Z</time>
      </trkpt>
      <trkpt lat="42.12333" lon="2.26829">
        <ele>869.1</ele>
        <time>2018-11-26T03:26:57Z</time>
      </trkpt>
      <trkpt lat="42.12335" lon="2.26829">
        <ele>869.2</ele>
        <time>2018-11-26T03:26:58Z</time>
      </trkpt>
      <trkpt lat="42.12337" lon="2.2683">
        <ele>869.5</ele>
        <time>2018-11-26T03:26:59Z</time>
      </trkpt>
      <trkpt lat="42.12339" lon="2.26831">
        <ele>869.3</ele>
        <time>2018-11-26T03:27:00Z</time>
      </trkpt>
      <trkpt lat="42.12341" lon="2.26831">
        <ele>869.7</ele>
        <time>2018-11-26T03:27:00Z</time>
      </trkpt>
      <trkpt lat="42.12344" lon="2.26832">
        <ele>869.7</ele>
        <time>2018-11-26T03:27:01Z</time>
      </trkpt>
      <trkpt lat="42.12346" lon="2.26832">
        <ele>869.7</ele>
        <time>2018-11-26T03:27:02Z</time>
      </trkpt>
      <trkpt lat="42.12349" lon="2.26833">
        <ele>870.1</ele>
        <time>2018-11-26T03:27:04Z</time>
      </trkpt>
      <trkpt lat="42.12352" lon="2.26833">
        <ele>870</ele>
        <time>2018-11-26T03:27:05Z</time>
      </trkpt>
      <trkpt lat="42.12355" lon="2.26834">
        <ele>870</ele>
        <time>2018-11-26T03:27:06Z</time>
      </trkpt>
      <trkpt lat="42.12357" lon="2.26834">
        <ele>869.6</ele>
        <time>2018-11-26T03:27:07Z</time>
      </trkpt>
      <trkpt lat="42.12359" lon="2.26834">
        <ele>869.5</ele>
        <time>2018-11-26T03:27:08Z</time>
      </trkpt>
      <trkpt lat="42.12362" lon="2.26834">
        <ele>869.5</ele>
        <time>2018-11-26T03:27:09Z</time>
      </trkpt>
      <trkpt lat="42.12364" lon="2.26834">
        <ele>869.5</ele>
        <time>2018-11-26T03:27:10Z</time>
      </trkpt>
      <trkpt lat="42.12367" lon="2.26835">
        <ele>869.5</ele>
        <time>2018-11-26T03:27:11Z</time>
      </trkpt>
      <trkpt lat="42.1237" lon="2.26837">
        <ele>869.5</ele>
        <time>2018-11-26T03:27:12Z</time>
      </trkpt>
      <trkpt lat="42.12372" lon="2.26838">
        <ele>869.5</ele>
        <time>2018-11-26T03:27:13Z</time>
      </trkpt>
      <trkpt lat="42.12374" lon="2.26839">
        <ele>869.4</ele>
        <time>2018-11-26T03:27:14Z</time>
      </trkpt>
      <trkpt lat="42.12384" lon="2.26845">
        <ele>869.8</ele>
        <time>2018-11-26T03:27:18Z</time>
      </trkpt>
      <trkpt lat="42.12391" lon="2.26848">
        <ele>869.5</ele>
        <time>2018-11-26T03:27:21Z</time>
      </trkpt>
      <trkpt lat="42.12395" lon="2.26848">
        <ele>869.3</ele>
        <time>2018-11-26T03:27:23Z</time>
      </trkpt>
      <trkpt lat="42.12404" lon="2.26845">
        <ele>869.8</ele>
        <time>2018-11-26T03:27:27Z</time>
      </trkpt>
      <trkpt lat="42.12406" lon="2.26844">
        <ele>870</ele>
        <time>2018-11-26T03:27:27Z</time>
      </trkpt>
      <trkpt lat="42.12408" lon="2.26841">
        <ele>870.5</ele>
        <time>2018-11-26T03:27:29Z</time>
      </trkpt>
      <trkpt lat="42.12409" lon="2.26838">
        <ele>870.5</ele>
        <time>2018-11-26T03:27:30Z</time>
      </trkpt>
      <trkpt lat="42.1241" lon="2.26835">
        <ele>870.4</ele>
        <time>2018-11-26T03:27:31Z</time>
      </trkpt>
      <trkpt lat="42.12411" lon="2.26833">
        <ele>870.4</ele>
        <time>2018-11-26T03:27:31Z</time>
      </trkpt>
      <trkpt lat="42.12416" lon="2.26823">
        <ele>870.5</ele>
        <time>2018-11-26T03:27:35Z</time>
      </trkpt>
      <trkpt lat="42.12417" lon="2.26819">
        <ele>870.5</ele>
        <time>2018-11-26T03:27:36Z</time>
      </trkpt>
      <trkpt lat="42.12418" lon="2.26816">
        <ele>870.6</ele>
        <time>2018-11-26T03:27:37Z</time>
      </trkpt>
      <trkpt lat="42.12422" lon="2.26806">
        <ele>871.5</ele>
        <time>2018-11-26T03:27:41Z</time>
      </trkpt>
      <trkpt lat="42.12427" lon="2.26795">
        <ele>872.7</ele>
        <time>2018-11-26T03:27:44Z</time>
      </trkpt>
      <trkpt lat="42.12427" lon="2.26792">
        <ele>872.8</ele>
        <time>2018-11-26T03:27:45Z</time>
      </trkpt>
      <trkpt lat="42.12428" lon="2.26789">
        <ele>873.1</ele>
        <time>2018-11-26T03:27:46Z</time>
      </trkpt>
      <trkpt lat="42.12429" lon="2.26787">
        <ele>873.3</ele>
        <time>2018-11-26T03:27:47Z</time>
      </trkpt>
      <trkpt lat="42.12429" lon="2.26784">
        <ele>872.5</ele>
        <time>2018-11-26T03:27:48Z</time>
      </trkpt>
      <trkpt lat="42.12428" lon="2.26781">
        <ele>872.7</ele>
        <time>2018-11-26T03:27:49Z</time>
      </trkpt>
      <trkpt lat="42.12428" lon="2.26778">
        <ele>873.2</ele>
        <time>2018-11-26T03:27:50Z</time>
      </trkpt>
      <trkpt lat="42.12429" lon="2.26775">
        <ele>873.2</ele>
        <time>2018-11-26T03:27:50Z</time>
      </trkpt>
      <trkpt lat="42.12432" lon="2.26763">
        <ele>873.5</ele>
        <time>2018-11-26T03:27:54Z</time>
      </trkpt>
      <trkpt lat="42.12433" lon="2.26755">
        <ele>873.5</ele>
        <time>2018-11-26T03:27:57Z</time>
      </trkpt>
      <trkpt lat="42.12434" lon="2.26752">
        <ele>874.1</ele>
        <time>2018-11-26T03:27:58Z</time>
      </trkpt>
      <trkpt lat="42.12434" lon="2.26749">
        <ele>874.8</ele>
        <time>2018-11-26T03:27:59Z</time>
      </trkpt>
      <trkpt lat="42.12435" lon="2.26746">
        <ele>874.7</ele>
        <time>2018-11-26T03:28:00Z</time>
      </trkpt>
      <trkpt lat="42.12436" lon="2.26744">
        <ele>874.7</ele>
        <time>2018-11-26T03:28:00Z</time>
      </trkpt>
      <trkpt lat="42.12437" lon="2.26741">
        <ele>875.3</ele>
        <time>2018-11-26T03:28:01Z</time>
      </trkpt>
      <trkpt lat="42.12437" lon="2.26738">
        <ele>875.3</ele>
        <time>2018-11-26T03:28:02Z</time>
      </trkpt>
      <trkpt lat="42.12438" lon="2.26736">
        <ele>875.5</ele>
        <time>2018-11-26T03:28:03Z</time>
      </trkpt>
      <trkpt lat="42.12438" lon="2.26733">
        <ele>876.1</ele>
        <time>2018-11-26T03:28:04Z</time>
      </trkpt>
      <trkpt lat="42.12439" lon="2.26731">
        <ele>876</ele>
        <time>2018-11-26T03:28:04Z</time>
      </trkpt>
      <trkpt lat="42.1244" lon="2.26727">
        <ele>876.5</ele>
        <time>2018-11-26T03:28:05Z</time>
      </trkpt>
      <trkpt lat="42.12441" lon="2.26725">
        <ele>877</ele>
        <time>2018-11-26T03:28:06Z</time>
      </trkpt>
      <trkpt lat="42.1244" lon="2.26722">
        <ele>877.2</ele>
        <time>2018-11-26T03:28:07Z</time>
      </trkpt>
      <trkpt lat="42.12441" lon="2.26719">
        <ele>877.8</ele>
        <time>2018-11-26T03:28:08Z</time>
      </trkpt>
      <trkpt lat="42.12441" lon="2.26716">
        <ele>878.8</ele>
        <time>2018-11-26T03:28:09Z</time>
      </trkpt>
      <trkpt lat="42.1244" lon="2.26713">
        <ele>878.8</ele>
        <time>2018-11-26T03:28:10Z</time>
      </trkpt>
      <trkpt lat="42.12439" lon="2.26708">
        <ele>878.7</ele>
        <time>2018-11-26T03:28:11Z</time>
      </trkpt>
      <trkpt lat="42.12438" lon="2.26705">
        <ele>879.1</ele>
        <time>2018-11-26T03:28:12Z</time>
      </trkpt>
      <trkpt lat="42.12437" lon="2.26702">
        <ele>879</ele>
        <time>2018-11-26T03:28:13Z</time>
      </trkpt>
      <trkpt lat="42.12436" lon="2.267">
        <ele>879.1</ele>
        <time>2018-11-26T03:28:14Z</time>
      </trkpt>
      <trkpt lat="42.12436" lon="2.26696">
        <ele>879.2</ele>
        <time>2018-11-26T03:28:15Z</time>
      </trkpt>
      <trkpt lat="42.12435" lon="2.26693">
        <ele>879.2</ele>
        <time>2018-11-26T03:28:16Z</time>
      </trkpt>
      <trkpt lat="42.12434" lon="2.26689">
        <ele>879.2</ele>
        <time>2018-11-26T03:28:18Z</time>
      </trkpt>
      <trkpt lat="42.12434" lon="2.26685">
        <ele>879.1</ele>
        <time>2018-11-26T03:28:19Z</time>
      </trkpt>
      <trkpt lat="42.12434" lon="2.26681">
        <ele>878.7</ele>
        <time>2018-11-26T03:28:20Z</time>
      </trkpt>
      <trkpt lat="42.12434" lon="2.26677">
        <ele>878.7</ele>
        <time>2018-11-26T03:28:21Z</time>
      </trkpt>
      <trkpt lat="42.12433" lon="2.26673">
        <ele>878.8</ele>
        <time>2018-11-26T03:28:22Z</time>
      </trkpt>
      <trkpt lat="42.12433" lon="2.26669">
        <ele>878.5</ele>
        <time>2018-11-26T03:28:23Z</time>
      </trkpt>
      <trkpt lat="42.12433" lon="2.26665">
        <ele>878.5</ele>
        <time>2018-11-26T03:28:24Z</time>
      </trkpt>
      <trkpt lat="42.12433" lon="2.26662">
        <ele>878.1</ele>
        <time>2018-11-26T03:28:25Z</time>
      </trkpt>
      <trkpt lat="42.12432" lon="2.26659">
        <ele>878</ele>
        <time>2018-11-26T03:28:27Z</time>
      </trkpt>
      <trkpt lat="42.12431" lon="2.26655">
        <ele>877.6</ele>
        <time>2018-11-26T03:28:28Z</time>
      </trkpt>
      <trkpt lat="42.12431" lon="2.26651">
        <ele>877.6</ele>
        <time>2018-11-26T03:28:29Z</time>
      </trkpt>
      <trkpt lat="42.12431" lon="2.26647">
        <ele>877.5</ele>
        <time>2018-11-26T03:28:30Z</time>
      </trkpt>
      <trkpt lat="42.12431" lon="2.26643">
        <ele>878</ele>
        <time>2018-11-26T03:28:31Z</time>
      </trkpt>
      <trkpt lat="42.1243" lon="2.26641">
        <ele>878.1</ele>
        <time>2018-11-26T03:28:32Z</time>
      </trkpt>
      <trkpt lat="42.1243" lon="2.26638">
        <ele>878.3</ele>
        <time>2018-11-26T03:28:33Z</time>
      </trkpt>
      <trkpt lat="42.1243" lon="2.26635">
        <ele>878.3</ele>
        <time>2018-11-26T03:28:34Z</time>
      </trkpt>
      <trkpt lat="42.1243" lon="2.26632">
        <ele>878.1</ele>
        <time>2018-11-26T03:28:35Z</time>
      </trkpt>
      <trkpt lat="42.1243" lon="2.26629">
        <ele>878.1</ele>
        <time>2018-11-26T03:28:36Z</time>
      </trkpt>
      <trkpt lat="42.1243" lon="2.26626">
        <ele>878</ele>
        <time>2018-11-26T03:28:36Z</time>
      </trkpt>
      <trkpt lat="42.1243" lon="2.26623">
        <ele>878.1</ele>
        <time>2018-11-26T03:28:37Z</time>
      </trkpt>
      <trkpt lat="42.1243" lon="2.26619">
        <ele>878.1</ele>
        <time>2018-11-26T03:28:38Z</time>
      </trkpt>
      <trkpt lat="42.1243" lon="2.26616">
        <ele>878.1</ele>
        <time>2018-11-26T03:28:39Z</time>
      </trkpt>
      <trkpt lat="42.12429" lon="2.26613">
        <ele>878</ele>
        <time>2018-11-26T03:28:40Z</time>
      </trkpt>
      <trkpt lat="42.12429" lon="2.26609">
        <ele>878.7</ele>
        <time>2018-11-26T03:28:41Z</time>
      </trkpt>
      <trkpt lat="42.12429" lon="2.26606">
        <ele>879</ele>
        <time>2018-11-26T03:28:42Z</time>
      </trkpt>
      <trkpt lat="42.1243" lon="2.26604">
        <ele>879</ele>
        <time>2018-11-26T03:28:43Z</time>
      </trkpt>
      <trkpt lat="42.12429" lon="2.26601">
        <ele>879.1</ele>
        <time>2018-11-26T03:28:44Z</time>
      </trkpt>
      <trkpt lat="42.12429" lon="2.26598">
        <ele>879.1</ele>
        <time>2018-11-26T03:28:45Z</time>
      </trkpt>
      <trkpt lat="42.12429" lon="2.26595">
        <ele>879.2</ele>
        <time>2018-11-26T03:28:46Z</time>
      </trkpt>
      <trkpt lat="42.12429" lon="2.26592">
        <ele>879.3</ele>
        <time>2018-11-26T03:28:47Z</time>
      </trkpt>
      <trkpt lat="42.12429" lon="2.26589">
        <ele>879.6</ele>
        <time>2018-11-26T03:28:47Z</time>
      </trkpt>
      <trkpt lat="42.12429" lon="2.26586">
        <ele>880.3</ele>
        <time>2018-11-26T03:28:48Z</time>
      </trkpt>
      <trkpt lat="42.12428" lon="2.26582">
        <ele>880.1</ele>
        <time>2018-11-26T03:28:50Z</time>
      </trkpt>
      <trkpt lat="42.12428" lon="2.26579">
        <ele>880.1</ele>
        <time>2018-11-26T03:28:51Z</time>
      </trkpt>
      <trkpt lat="42.12428" lon="2.26576">
        <ele>880.3</ele>
        <time>2018-11-26T03:28:51Z</time>
      </trkpt>
      <trkpt lat="42.12428" lon="2.26572">
        <ele>880.3</ele>
        <time>2018-11-26T03:28:53Z</time>
      </trkpt>
      <trkpt lat="42.12428" lon="2.26569">
        <ele>880.4</ele>
        <time>2018-11-26T03:28:54Z</time>
      </trkpt>
      <trkpt lat="42.12429" lon="2.26565">
        <ele>880.2</ele>
        <time>2018-11-26T03:28:55Z</time>
      </trkpt>
      <trkpt lat="42.12431" lon="2.26562">
        <ele>880.4</ele>
        <time>2018-11-26T03:28:56Z</time>
      </trkpt>
      <trkpt lat="42.12433" lon="2.2656">
        <ele>880.5</ele>
        <time>2018-11-26T03:28:57Z</time>
      </trkpt>
      <trkpt lat="42.12435" lon="2.26557">
        <ele>880.6</ele>
        <time>2018-11-26T03:28:58Z</time>
      </trkpt>
      <trkpt lat="42.12436" lon="2.26555">
        <ele>880.6</ele>
        <time>2018-11-26T03:28:59Z</time>
      </trkpt>
      <trkpt lat="42.12438" lon="2.26553">
        <ele>880.7</ele>
        <time>2018-11-26T03:29:00Z</time>
      </trkpt>
      <trkpt lat="42.1244" lon="2.26549">
        <ele>880.8</ele>
        <time>2018-11-26T03:29:01Z</time>
      </trkpt>
      <trkpt lat="42.12441" lon="2.26546">
        <ele>880.8</ele>
        <time>2018-11-26T03:29:02Z</time>
      </trkpt>
      <trkpt lat="42.12443" lon="2.26543">
        <ele>880.6</ele>
        <time>2018-11-26T03:29:03Z</time>
      </trkpt>
      <trkpt lat="42.12446" lon="2.26541">
        <ele>880.4</ele>
        <time>2018-11-26T03:29:05Z</time>
      </trkpt>
      <trkpt lat="42.12447" lon="2.26539">
        <ele>880.4</ele>
        <time>2018-11-26T03:29:05Z</time>
      </trkpt>
      <trkpt lat="42.12449" lon="2.26537">
        <ele>880.4</ele>
        <time>2018-11-26T03:29:06Z</time>
      </trkpt>
      <trkpt lat="42.1245" lon="2.26534">
        <ele>880.6</ele>
        <time>2018-11-26T03:29:07Z</time>
      </trkpt>
      <trkpt lat="42.12452" lon="2.26531">
        <ele>881.1</ele>
        <time>2018-11-26T03:29:09Z</time>
      </trkpt>
      <trkpt lat="42.12454" lon="2.26529">
        <ele>881</ele>
        <time>2018-11-26T03:29:10Z</time>
      </trkpt>
      <trkpt lat="42.12457" lon="2.26527">
        <ele>881.2</ele>
        <time>2018-11-26T03:29:11Z</time>
      </trkpt>
      <trkpt lat="42.12459" lon="2.26525">
        <ele>881</ele>
        <time>2018-11-26T03:29:12Z</time>
      </trkpt>
      <trkpt lat="42.12461" lon="2.26523">
        <ele>881</ele>
        <time>2018-11-26T03:29:13Z</time>
      </trkpt>
      <trkpt lat="42.12464" lon="2.26521">
        <ele>881.1</ele>
        <time>2018-11-26T03:29:14Z</time>
      </trkpt>
      <trkpt lat="42.12466" lon="2.26519">
        <ele>881.5</ele>
        <time>2018-11-26T03:29:15Z</time>
      </trkpt>
      <trkpt lat="42.12468" lon="2.26517">
        <ele>881</ele>
        <time>2018-11-26T03:29:16Z</time>
      </trkpt>
      <trkpt lat="42.1247" lon="2.26515">
        <ele>881.4</ele>
        <time>2018-11-26T03:29:17Z</time>
      </trkpt>
      <trkpt lat="42.12472" lon="2.26513">
        <ele>881.2</ele>
        <time>2018-11-26T03:29:18Z</time>
      </trkpt>
      <trkpt lat="42.12473" lon="2.26511">
        <ele>881.2</ele>
        <time>2018-11-26T03:29:19Z</time>
      </trkpt>
      <trkpt lat="42.12475" lon="2.26508">
        <ele>880.6</ele>
        <time>2018-11-26T03:29:20Z</time>
      </trkpt>
      <trkpt lat="42.12477" lon="2.26505">
        <ele>880.5</ele>
        <time>2018-11-26T03:29:21Z</time>
      </trkpt>
      <trkpt lat="42.12477" lon="2.26502">
        <ele>881</ele>
        <time>2018-11-26T03:29:22Z</time>
      </trkpt>
      <trkpt lat="42.12478" lon="2.26499">
        <ele>881.5</ele>
        <time>2018-11-26T03:29:23Z</time>
      </trkpt>
      <trkpt lat="42.12479" lon="2.26496">
        <ele>881.5</ele>
        <time>2018-11-26T03:29:24Z</time>
      </trkpt>
      <trkpt lat="42.12479" lon="2.26493">
        <ele>881.5</ele>
        <time>2018-11-26T03:29:25Z</time>
      </trkpt>
      <trkpt lat="42.12479" lon="2.2649">
        <ele>881.5</ele>
        <time>2018-11-26T03:29:26Z</time>
      </trkpt>
      <trkpt lat="42.12479" lon="2.26487">
        <ele>881.1</ele>
        <time>2018-11-26T03:29:27Z</time>
      </trkpt>
      <trkpt lat="42.1248" lon="2.26484">
        <ele>881.1</ele>
        <time>2018-11-26T03:29:28Z</time>
      </trkpt>
      <trkpt lat="42.12482" lon="2.26481">
        <ele>881</ele>
        <time>2018-11-26T03:29:29Z</time>
      </trkpt>
      <trkpt lat="42.12483" lon="2.26479">
        <ele>880.2</ele>
        <time>2018-11-26T03:29:30Z</time>
      </trkpt>
      <trkpt lat="42.12485" lon="2.26478">
        <ele>880.2</ele>
        <time>2018-11-26T03:29:31Z</time>
      </trkpt>
      <trkpt lat="42.12487" lon="2.26475">
        <ele>880.3</ele>
        <time>2018-11-26T03:29:32Z</time>
      </trkpt>
      <trkpt lat="42.1249" lon="2.26473">
        <ele>880.4</ele>
        <time>2018-11-26T03:29:33Z</time>
      </trkpt>
      <trkpt lat="42.12492" lon="2.26473">
        <ele>880.5</ele>
        <time>2018-11-26T03:29:34Z</time>
      </trkpt>
      <trkpt lat="42.12495" lon="2.26471">
        <ele>880</ele>
        <time>2018-11-26T03:29:35Z</time>
      </trkpt>
      <trkpt lat="42.12497" lon="2.26469">
        <ele>879.7</ele>
        <time>2018-11-26T03:29:36Z</time>
      </trkpt>
      <trkpt lat="42.12499" lon="2.26469">
        <ele>880.4</ele>
        <time>2018-11-26T03:29:37Z</time>
      </trkpt>
      <trkpt lat="42.12501" lon="2.26468">
        <ele>880.7</ele>
        <time>2018-11-26T03:29:37Z</time>
      </trkpt>
      <trkpt lat="42.12502" lon="2.26467">
        <ele>880.8</ele>
        <time>2018-11-26T03:29:38Z</time>
      </trkpt>
      <trkpt lat="42.12505" lon="2.26465">
        <ele>881.1</ele>
        <time>2018-11-26T03:29:40Z</time>
      </trkpt>
      <trkpt lat="42.12507" lon="2.26463">
        <ele>880.8</ele>
        <time>2018-11-26T03:29:40Z</time>
      </trkpt>
      <trkpt lat="42.12509" lon="2.2646">
        <ele>881</ele>
        <time>2018-11-26T03:29:42Z</time>
      </trkpt>
      <trkpt lat="42.12511" lon="2.26458">
        <ele>881.2</ele>
        <time>2018-11-26T03:29:43Z</time>
      </trkpt>
      <trkpt lat="42.12513" lon="2.26455">
        <ele>881</ele>
        <time>2018-11-26T03:29:44Z</time>
      </trkpt>
      <trkpt lat="42.12515" lon="2.26452">
        <ele>881.2</ele>
        <time>2018-11-26T03:29:45Z</time>
      </trkpt>
      <trkpt lat="42.12516" lon="2.2645">
        <ele>880.8</ele>
        <time>2018-11-26T03:29:46Z</time>
      </trkpt>
      <trkpt lat="42.12518" lon="2.26447">
        <ele>880.8</ele>
        <time>2018-11-26T03:29:47Z</time>
      </trkpt>
      <trkpt lat="42.12519" lon="2.26444">
        <ele>880.5</ele>
        <time>2018-11-26T03:29:48Z</time>
      </trkpt>
      <trkpt lat="42.12521" lon="2.26441">
        <ele>880.6</ele>
        <time>2018-11-26T03:29:49Z</time>
      </trkpt>
      <trkpt lat="42.12521" lon="2.26439">
        <ele>881</ele>
        <time>2018-11-26T03:29:50Z</time>
      </trkpt>
      <trkpt lat="42.12522" lon="2.26436">
        <ele>881.4</ele>
        <time>2018-11-26T03:29:51Z</time>
      </trkpt>
      <trkpt lat="42.12522" lon="2.26433">
        <ele>881.8</ele>
        <time>2018-11-26T03:29:51Z</time>
      </trkpt>
      <trkpt lat="42.12523" lon="2.2643">
        <ele>881.7</ele>
        <time>2018-11-26T03:29:52Z</time>
      </trkpt>
      <trkpt lat="42.12523" lon="2.26427">
        <ele>881.7</ele>
        <time>2018-11-26T03:29:53Z</time>
      </trkpt>
      <trkpt lat="42.12524" lon="2.26424">
        <ele>881.7</ele>
        <time>2018-11-26T03:29:54Z</time>
      </trkpt>
      <trkpt lat="42.12525" lon="2.26421">
        <ele>881.8</ele>
        <time>2018-11-26T03:29:55Z</time>
      </trkpt>
      <trkpt lat="42.12526" lon="2.26417">
        <ele>881.8</ele>
        <time>2018-11-26T03:29:56Z</time>
      </trkpt>
      <trkpt lat="42.12528" lon="2.26415">
        <ele>882</ele>
        <time>2018-11-26T03:29:57Z</time>
      </trkpt>
      <trkpt lat="42.12529" lon="2.26412">
        <ele>881.8</ele>
        <time>2018-11-26T03:29:58Z</time>
      </trkpt>
      <trkpt lat="42.1253" lon="2.26409">
        <ele>881.6</ele>
        <time>2018-11-26T03:29:59Z</time>
      </trkpt>
      <trkpt lat="42.12531" lon="2.26406">
        <ele>881.6</ele>
        <time>2018-11-26T03:30:00Z</time>
      </trkpt>
      <trkpt lat="42.12532" lon="2.26402">
        <ele>881.6</ele>
        <time>2018-11-26T03:30:01Z</time>
      </trkpt>
      <trkpt lat="42.12533" lon="2.26399">
        <ele>881.5</ele>
        <time>2018-11-26T03:30:03Z</time>
      </trkpt>
      <trkpt lat="42.12534" lon="2.26396">
        <ele>882.1</ele>
        <time>2018-11-26T03:30:04Z</time>
      </trkpt>
      <trkpt lat="42.12535" lon="2.26393">
        <ele>881.4</ele>
        <time>2018-11-26T03:30:04Z</time>
      </trkpt>
      <trkpt lat="42.12537" lon="2.2639">
        <ele>881.2</ele>
        <time>2018-11-26T03:30:06Z</time>
      </trkpt>
      <trkpt lat="42.12539" lon="2.26388">
        <ele>881.2</ele>
        <time>2018-11-26T03:30:07Z</time>
      </trkpt>
      <trkpt lat="42.1254" lon="2.26385">
        <ele>881.2</ele>
        <time>2018-11-26T03:30:08Z</time>
      </trkpt>
      <trkpt lat="42.12543" lon="2.26382">
        <ele>881.2</ele>
        <time>2018-11-26T03:30:09Z</time>
      </trkpt>
      <trkpt lat="42.12544" lon="2.26379">
        <ele>881.2</ele>
        <time>2018-11-26T03:30:10Z</time>
      </trkpt>
      <trkpt lat="42.12545" lon="2.26376">
        <ele>881.6</ele>
        <time>2018-11-26T03:30:11Z</time>
      </trkpt>
      <trkpt lat="42.12546" lon="2.26373">
        <ele>881.6</ele>
        <time>2018-11-26T03:30:12Z</time>
      </trkpt>
      <trkpt lat="42.12548" lon="2.2637">
        <ele>881.6</ele>
        <time>2018-11-26T03:30:13Z</time>
      </trkpt>
      <trkpt lat="42.1255" lon="2.26368">
        <ele>881.6</ele>
        <time>2018-11-26T03:30:14Z</time>
      </trkpt>
      <trkpt lat="42.12551" lon="2.26365">
        <ele>881.6</ele>
        <time>2018-11-26T03:30:15Z</time>
      </trkpt>
      <trkpt lat="42.12553" lon="2.26363">
        <ele>881.5</ele>
        <time>2018-11-26T03:30:16Z</time>
      </trkpt>
      <trkpt lat="42.12555" lon="2.2636">
        <ele>881.6</ele>
        <time>2018-11-26T03:30:17Z</time>
      </trkpt>
      <trkpt lat="42.12556" lon="2.26358">
        <ele>881.5</ele>
        <time>2018-11-26T03:30:18Z</time>
      </trkpt>
      <trkpt lat="42.12558" lon="2.26355">
        <ele>881.5</ele>
        <time>2018-11-26T03:30:19Z</time>
      </trkpt>
      <trkpt lat="42.12559" lon="2.26352">
        <ele>881.5</ele>
        <time>2018-11-26T03:30:20Z</time>
      </trkpt>
      <trkpt lat="42.12561" lon="2.2635">
        <ele>881.6</ele>
        <time>2018-11-26T03:30:21Z</time>
      </trkpt>
      <trkpt lat="42.12562" lon="2.26348">
        <ele>881.5</ele>
        <time>2018-11-26T03:30:22Z</time>
      </trkpt>
      <trkpt lat="42.12564" lon="2.26345">
        <ele>881.5</ele>
        <time>2018-11-26T03:30:23Z</time>
      </trkpt>
      <trkpt lat="42.12565" lon="2.26341">
        <ele>881.5</ele>
        <time>2018-11-26T03:30:24Z</time>
      </trkpt>
      <trkpt lat="42.12567" lon="2.26338">
        <ele>881.5</ele>
        <time>2018-11-26T03:30:25Z</time>
      </trkpt>
      <trkpt lat="42.12568" lon="2.26335">
        <ele>881.4</ele>
        <time>2018-11-26T03:30:26Z</time>
      </trkpt>
      <trkpt lat="42.1257" lon="2.26332">
        <ele>881.5</ele>
        <time>2018-11-26T03:30:28Z</time>
      </trkpt>
      <trkpt lat="42.12571" lon="2.26328">
        <ele>881.4</ele>
        <time>2018-11-26T03:30:29Z</time>
      </trkpt>
      <trkpt lat="42.12572" lon="2.26325">
        <ele>881.4</ele>
        <time>2018-11-26T03:30:30Z</time>
      </trkpt>
      <trkpt lat="42.12573" lon="2.26321">
        <ele>881.4</ele>
        <time>2018-11-26T03:30:31Z</time>
      </trkpt>
      <trkpt lat="42.12573" lon="2.26318">
        <ele>881.4</ele>
        <time>2018-11-26T03:30:32Z</time>
      </trkpt>
      <trkpt lat="42.12573" lon="2.26314">
        <ele>881.5</ele>
        <time>2018-11-26T03:30:33Z</time>
      </trkpt>
      <trkpt lat="42.12572" lon="2.2631">
        <ele>881.4</ele>
        <time>2018-11-26T03:30:34Z</time>
      </trkpt>
      <trkpt lat="42.12571" lon="2.26307">
        <ele>881.5</ele>
        <time>2018-11-26T03:30:35Z</time>
      </trkpt>
      <trkpt lat="42.1257" lon="2.26303">
        <ele>881.5</ele>
        <time>2018-11-26T03:30:37Z</time>
      </trkpt>
      <trkpt lat="42.12569" lon="2.263">
        <ele>881.4</ele>
        <time>2018-11-26T03:30:38Z</time>
      </trkpt>
      <trkpt lat="42.12569" lon="2.26296">
        <ele>881.5</ele>
        <time>2018-11-26T03:30:39Z</time>
      </trkpt>
      <trkpt lat="42.12569" lon="2.26293">
        <ele>881.3</ele>
        <time>2018-11-26T03:30:40Z</time>
      </trkpt>
      <trkpt lat="42.12569" lon="2.2629">
        <ele>881.2</ele>
        <time>2018-11-26T03:30:40Z</time>
      </trkpt>
      <trkpt lat="42.12569" lon="2.26287">
        <ele>881.3</ele>
        <time>2018-11-26T03:30:42Z</time>
      </trkpt>
      <trkpt lat="42.12569" lon="2.26284">
        <ele>881.2</ele>
        <time>2018-11-26T03:30:42Z</time>
      </trkpt>
      <trkpt lat="42.1257" lon="2.26281">
        <ele>881.2</ele>
        <time>2018-11-26T03:30:43Z</time>
      </trkpt>
      <trkpt lat="42.12571" lon="2.26278">
        <ele>881.2</ele>
        <time>2018-11-26T03:30:44Z</time>
      </trkpt>
      <trkpt lat="42.12572" lon="2.26275">
        <ele>881.3</ele>
        <time>2018-11-26T03:30:45Z</time>
      </trkpt>
      <trkpt lat="42.12573" lon="2.26272">
        <ele>881.3</ele>
        <time>2018-11-26T03:30:46Z</time>
      </trkpt>
      <trkpt lat="42.12575" lon="2.26269">
        <ele>881.2</ele>
        <time>2018-11-26T03:30:47Z</time>
      </trkpt>
      <trkpt lat="42.12577" lon="2.26265">
        <ele>881.3</ele>
        <time>2018-11-26T03:30:49Z</time>
      </trkpt>
      <trkpt lat="42.12579" lon="2.26263">
        <ele>881.2</ele>
        <time>2018-11-26T03:30:50Z</time>
      </trkpt>
      <trkpt lat="42.1258" lon="2.2626">
        <ele>881.2</ele>
        <time>2018-11-26T03:30:51Z</time>
      </trkpt>
      <trkpt lat="42.12582" lon="2.26258">
        <ele>881.2</ele>
        <time>2018-11-26T03:30:52Z</time>
      </trkpt>
      <trkpt lat="42.12584" lon="2.26256">
        <ele>881.2</ele>
        <time>2018-11-26T03:30:53Z</time>
      </trkpt>
      <trkpt lat="42.12586" lon="2.26254">
        <ele>881.2</ele>
        <time>2018-11-26T03:30:54Z</time>
      </trkpt>
      <trkpt lat="42.12588" lon="2.26252">
        <ele>881.2</ele>
        <time>2018-11-26T03:30:55Z</time>
      </trkpt>
      <trkpt lat="42.1259" lon="2.2625">
        <ele>881.2</ele>
        <time>2018-11-26T03:30:56Z</time>
      </trkpt>
      <trkpt lat="42.12592" lon="2.26247">
        <ele>881.2</ele>
        <time>2018-11-26T03:30:57Z</time>
      </trkpt>
      <trkpt lat="42.12594" lon="2.26245">
        <ele>881.2</ele>
        <time>2018-11-26T03:30:58Z</time>
      </trkpt>
      <trkpt lat="42.12596" lon="2.26243">
        <ele>881.2</ele>
        <time>2018-11-26T03:30:59Z</time>
      </trkpt>
      <trkpt lat="42.12598" lon="2.26241">
        <ele>881.3</ele>
        <time>2018-11-26T03:31:00Z</time>
      </trkpt>
      <trkpt lat="42.126" lon="2.26239">
        <ele>881.2</ele>
        <time>2018-11-26T03:31:01Z</time>
      </trkpt>
      <trkpt lat="42.12602" lon="2.26237">
        <ele>881.2</ele>
        <time>2018-11-26T03:31:02Z</time>
      </trkpt>
      <trkpt lat="42.12605" lon="2.26235">
        <ele>881.3</ele>
        <time>2018-11-26T03:31:03Z</time>
      </trkpt>
      <trkpt lat="42.12607" lon="2.26233">
        <ele>881.3</ele>
        <time>2018-11-26T03:31:04Z</time>
      </trkpt>
      <trkpt lat="42.12609" lon="2.26231">
        <ele>881.3</ele>
        <time>2018-11-26T03:31:05Z</time>
      </trkpt>
      <trkpt lat="42.12611" lon="2.26229">
        <ele>881.3</ele>
        <time>2018-11-26T03:31:06Z</time>
      </trkpt>
      <trkpt lat="42.12613" lon="2.26228">
        <ele>881.3</ele>
        <time>2018-11-26T03:31:07Z</time>
      </trkpt>
      <trkpt lat="42.12615" lon="2.26226">
        <ele>881.2</ele>
        <time>2018-11-26T03:31:08Z</time>
      </trkpt>
      <trkpt lat="42.12617" lon="2.26225">
        <ele>881.2</ele>
        <time>2018-11-26T03:31:09Z</time>
      </trkpt>
      <trkpt lat="42.12619" lon="2.26223">
        <ele>881.2</ele>
        <time>2018-11-26T03:31:10Z</time>
      </trkpt>
      <trkpt lat="42.12621" lon="2.26222">
        <ele>881.2</ele>
        <time>2018-11-26T03:31:11Z</time>
      </trkpt>
      <trkpt lat="42.12622" lon="2.2622">
        <ele>881.3</ele>
        <time>2018-11-26T03:31:11Z</time>
      </trkpt>
      <trkpt lat="42.12625" lon="2.2622">
        <ele>881.3</ele>
        <time>2018-11-26T03:31:12Z</time>
      </trkpt>
      <trkpt lat="42.12627" lon="2.2622">
        <ele>881.3</ele>
        <time>2018-11-26T03:31:13Z</time>
      </trkpt>
      <trkpt lat="42.12628" lon="2.26219">
        <ele>881.3</ele>
        <time>2018-11-26T03:31:14Z</time>
      </trkpt>
      <trkpt lat="42.1263" lon="2.26219">
        <ele>881.3</ele>
        <time>2018-11-26T03:31:15Z</time>
      </trkpt>
      <trkpt lat="42.12632" lon="2.26219">
        <ele>884.3</ele>
        <time>2018-11-26T03:31:15Z</time>
      </trkpt>
      <trkpt lat="42.12634" lon="2.26217">
        <ele>884.5</ele>
        <time>2018-11-26T03:31:16Z</time>
      </trkpt>
      <trkpt lat="42.12636" lon="2.26217">
        <ele>884.5</ele>
        <time>2018-11-26T03:31:17Z</time>
      </trkpt>
      <trkpt lat="42.12639" lon="2.26216">
        <ele>884.5</ele>
        <time>2018-11-26T03:31:18Z</time>
      </trkpt>
      <trkpt lat="42.12641" lon="2.26215">
        <ele>884.7</ele>
        <time>2018-11-26T03:31:19Z</time>
      </trkpt>
      <trkpt lat="42.12643" lon="2.26215">
        <ele>885</ele>
        <time>2018-11-26T03:31:20Z</time>
      </trkpt>
      <trkpt lat="42.12645" lon="2.26214">
        <ele>885.1</ele>
        <time>2018-11-26T03:31:21Z</time>
      </trkpt>
      <trkpt lat="42.12648" lon="2.26213">
        <ele>884.7</ele>
        <time>2018-11-26T03:31:22Z</time>
      </trkpt>
      <trkpt lat="42.1265" lon="2.26212">
        <ele>884.6</ele>
        <time>2018-11-26T03:31:23Z</time>
      </trkpt>
      <trkpt lat="42.12652" lon="2.26211">
        <ele>884.5</ele>
        <time>2018-11-26T03:31:24Z</time>
      </trkpt>
      <trkpt lat="42.12654" lon="2.2621">
        <ele>884.7</ele>
        <time>2018-11-26T03:31:24Z</time>
      </trkpt>
      <trkpt lat="42.12656" lon="2.26209">
        <ele>885.1</ele>
        <time>2018-11-26T03:31:25Z</time>
      </trkpt>
      <trkpt lat="42.12658" lon="2.26207">
        <ele>885.1</ele>
        <time>2018-11-26T03:31:26Z</time>
      </trkpt>
      <trkpt lat="42.12661" lon="2.26207">
        <ele>885.1</ele>
        <time>2018-11-26T03:31:27Z</time>
      </trkpt>
      <trkpt lat="42.12663" lon="2.26205">
        <ele>885</ele>
        <time>2018-11-26T03:31:28Z</time>
      </trkpt>
      <trkpt lat="42.12665" lon="2.26204">
        <ele>885</ele>
        <time>2018-11-26T03:31:29Z</time>
      </trkpt>
      <trkpt lat="42.12667" lon="2.26203">
        <ele>885</ele>
        <time>2018-11-26T03:31:30Z</time>
      </trkpt>
      <trkpt lat="42.12669" lon="2.26202">
        <ele>885.3</ele>
        <time>2018-11-26T03:31:31Z</time>
      </trkpt>
      <trkpt lat="42.12671" lon="2.262">
        <ele>885.2</ele>
        <time>2018-11-26T03:31:32Z</time>
      </trkpt>
      <trkpt lat="42.12674" lon="2.26199">
        <ele>885.4</ele>
        <time>2018-11-26T03:31:33Z</time>
      </trkpt>
      <trkpt lat="42.12677" lon="2.26199">
        <ele>885.4</ele>
        <time>2018-11-26T03:31:34Z</time>
      </trkpt>
      <trkpt lat="42.12678" lon="2.26198">
        <ele>885.4</ele>
        <time>2018-11-26T03:31:35Z</time>
      </trkpt>
      <trkpt lat="42.12681" lon="2.26196">
        <ele>885.5</ele>
        <time>2018-11-26T03:31:36Z</time>
      </trkpt>
      <trkpt lat="42.12683" lon="2.26195">
        <ele>885.5</ele>
        <time>2018-11-26T03:31:37Z</time>
      </trkpt>
      <trkpt lat="42.12685" lon="2.26193">
        <ele>885.5</ele>
        <time>2018-11-26T03:31:38Z</time>
      </trkpt>
      <trkpt lat="42.12687" lon="2.26191">
        <ele>885.5</ele>
        <time>2018-11-26T03:31:39Z</time>
      </trkpt>
      <trkpt lat="42.12689" lon="2.2619">
        <ele>885.5</ele>
        <time>2018-11-26T03:31:40Z</time>
      </trkpt>
      <trkpt lat="42.12691" lon="2.26187">
        <ele>885.4</ele>
        <time>2018-11-26T03:31:41Z</time>
      </trkpt>
      <trkpt lat="42.12692" lon="2.26185">
        <ele>885.4</ele>
        <time>2018-11-26T03:31:42Z</time>
      </trkpt>
      <trkpt lat="42.12694" lon="2.26183">
        <ele>885.5</ele>
        <time>2018-11-26T03:31:43Z</time>
      </trkpt>
      <trkpt lat="42.12696" lon="2.26181">
        <ele>885.5</ele>
        <time>2018-11-26T03:31:44Z</time>
      </trkpt>
      <trkpt lat="42.12698" lon="2.26178">
        <ele>885.4</ele>
        <time>2018-11-26T03:31:45Z</time>
      </trkpt>
      <trkpt lat="42.127" lon="2.26175">
        <ele>885.8</ele>
        <time>2018-11-26T03:31:46Z</time>
      </trkpt>
      <trkpt lat="42.12701" lon="2.26173">
        <ele>885.7</ele>
        <time>2018-11-26T03:31:47Z</time>
      </trkpt>
      <trkpt lat="42.12702" lon="2.2617">
        <ele>886.2</ele>
        <time>2018-11-26T03:31:48Z</time>
      </trkpt>
      <trkpt lat="42.12703" lon="2.26167">
        <ele>886.3</ele>
        <time>2018-11-26T03:31:49Z</time>
      </trkpt>
      <trkpt lat="42.12705" lon="2.26164">
        <ele>886.2</ele>
        <time>2018-11-26T03:31:50Z</time>
      </trkpt>
      <trkpt lat="42.12706" lon="2.26162">
        <ele>885.6</ele>
        <time>2018-11-26T03:31:51Z</time>
      </trkpt>
      <trkpt lat="42.12707" lon="2.26159">
        <ele>886</ele>
        <time>2018-11-26T03:31:52Z</time>
      </trkpt>
      <trkpt lat="42.12708" lon="2.26155">
        <ele>886</ele>
        <time>2018-11-26T03:31:53Z</time>
      </trkpt>
      <trkpt lat="42.12709" lon="2.26153">
        <ele>885.7</ele>
        <time>2018-11-26T03:31:54Z</time>
      </trkpt>
      <trkpt lat="42.12711" lon="2.26151">
        <ele>885.5</ele>
        <time>2018-11-26T03:31:54Z</time>
      </trkpt>
      <trkpt lat="42.12711" lon="2.26147">
        <ele>885.5</ele>
        <time>2018-11-26T03:31:56Z</time>
      </trkpt>
      <trkpt lat="42.12712" lon="2.26143">
        <ele>885.5</ele>
        <time>2018-11-26T03:31:57Z</time>
      </trkpt>
      <trkpt lat="42.12713" lon="2.2614">
        <ele>885.4</ele>
        <time>2018-11-26T03:31:58Z</time>
      </trkpt>
      <trkpt lat="42.12714" lon="2.26137">
        <ele>885.5</ele>
        <time>2018-11-26T03:31:59Z</time>
      </trkpt>
      <trkpt lat="42.12714" lon="2.26133">
        <ele>885.5</ele>
        <time>2018-11-26T03:32:00Z</time>
      </trkpt>
      <trkpt lat="42.12715" lon="2.2613">
        <ele>885.5</ele>
        <time>2018-11-26T03:32:01Z</time>
      </trkpt>
      <trkpt lat="42.12715" lon="2.26126">
        <ele>885.4</ele>
        <time>2018-11-26T03:32:02Z</time>
      </trkpt>
      <trkpt lat="42.12716" lon="2.26123">
        <ele>885.5</ele>
        <time>2018-11-26T03:32:03Z</time>
      </trkpt>
      <trkpt lat="42.12717" lon="2.26119">
        <ele>885.6</ele>
        <time>2018-11-26T03:32:04Z</time>
      </trkpt>
      <trkpt lat="42.12718" lon="2.26116">
        <ele>885.4</ele>
        <time>2018-11-26T03:32:05Z</time>
      </trkpt>
      <trkpt lat="42.12718" lon="2.26113">
        <ele>885</ele>
        <time>2018-11-26T03:32:06Z</time>
      </trkpt>
      <trkpt lat="42.12718" lon="2.2611">
        <ele>885.1</ele>
        <time>2018-11-26T03:32:07Z</time>
      </trkpt>
      <trkpt lat="42.12718" lon="2.26106">
        <ele>884.8</ele>
        <time>2018-11-26T03:32:08Z</time>
      </trkpt>
      <trkpt lat="42.12717" lon="2.26102">
        <ele>884.8</ele>
        <time>2018-11-26T03:32:09Z</time>
      </trkpt>
      <trkpt lat="42.12717" lon="2.26098">
        <ele>884.7</ele>
        <time>2018-11-26T03:32:11Z</time>
      </trkpt>
      <trkpt lat="42.12716" lon="2.26095">
        <ele>884.5</ele>
        <time>2018-11-26T03:32:12Z</time>
      </trkpt>
      <trkpt lat="42.12716" lon="2.26091">
        <ele>884.6</ele>
        <time>2018-11-26T03:32:13Z</time>
      </trkpt>
      <trkpt lat="42.12716" lon="2.26087">
        <ele>884.5</ele>
        <time>2018-11-26T03:32:14Z</time>
      </trkpt>
      <trkpt lat="42.12716" lon="2.26084">
        <ele>884.6</ele>
        <time>2018-11-26T03:32:15Z</time>
      </trkpt>
      <trkpt lat="42.12715" lon="2.26079">
        <ele>884.5</ele>
        <time>2018-11-26T03:32:16Z</time>
      </trkpt>
      <trkpt lat="42.12715" lon="2.26075">
        <ele>884.6</ele>
        <time>2018-11-26T03:32:18Z</time>
      </trkpt>
      <trkpt lat="42.12714" lon="2.2607">
        <ele>884.5</ele>
        <time>2018-11-26T03:32:19Z</time>
      </trkpt>
      <trkpt lat="42.12714" lon="2.26066">
        <ele>884.5</ele>
        <time>2018-11-26T03:32:20Z</time>
      </trkpt>
      <trkpt lat="42.12714" lon="2.26062">
        <ele>884.5</ele>
        <time>2018-11-26T03:32:21Z</time>
      </trkpt>
      <trkpt lat="42.12714" lon="2.26058">
        <ele>884.6</ele>
        <time>2018-11-26T03:32:23Z</time>
      </trkpt>
      <trkpt lat="42.12714" lon="2.26054">
        <ele>884.5</ele>
        <time>2018-11-26T03:32:24Z</time>
      </trkpt>
      <trkpt lat="42.12714" lon="2.2605">
        <ele>884.6</ele>
        <time>2018-11-26T03:32:25Z</time>
      </trkpt>
      <trkpt lat="42.12713" lon="2.26045">
        <ele>884.6</ele>
        <time>2018-11-26T03:32:26Z</time>
      </trkpt>
      <trkpt lat="42.12713" lon="2.26041">
        <ele>881.4</ele>
        <time>2018-11-26T03:32:28Z</time>
      </trkpt>
      <trkpt lat="42.12713" lon="2.26037">
        <ele>881.5</ele>
        <time>2018-11-26T03:32:29Z</time>
      </trkpt>
      <trkpt lat="42.12713" lon="2.26033">
        <ele>881.2</ele>
        <time>2018-11-26T03:32:30Z</time>
      </trkpt>
      <trkpt lat="42.12712" lon="2.26029">
        <ele>881.3</ele>
        <time>2018-11-26T03:32:31Z</time>
      </trkpt>
      <trkpt lat="42.12712" lon="2.26025">
        <ele>881.3</ele>
        <time>2018-11-26T03:32:33Z</time>
      </trkpt>
      <trkpt lat="42.12712" lon="2.2602">
        <ele>881.2</ele>
        <time>2018-11-26T03:32:34Z</time>
      </trkpt>
      <trkpt lat="42.12712" lon="2.26016">
        <ele>881.2</ele>
        <time>2018-11-26T03:32:35Z</time>
      </trkpt>
      <trkpt lat="42.12713" lon="2.26012">
        <ele>881.1</ele>
        <time>2018-11-26T03:32:37Z</time>
      </trkpt>
      <trkpt lat="42.12712" lon="2.26007">
        <ele>881.1</ele>
        <time>2018-11-26T03:32:38Z</time>
      </trkpt>
      <trkpt lat="42.12712" lon="2.26003">
        <ele>880.6</ele>
        <time>2018-11-26T03:32:39Z</time>
      </trkpt>
      <trkpt lat="42.12711" lon="2.25998">
        <ele>880.5</ele>
        <time>2018-11-26T03:32:41Z</time>
      </trkpt>
      <trkpt lat="42.1271" lon="2.25995">
        <ele>880.3</ele>
        <time>2018-11-26T03:32:42Z</time>
      </trkpt>
      <trkpt lat="42.1271" lon="2.25993">
        <ele>880.1</ele>
        <time>2018-11-26T03:32:42Z</time>
      </trkpt>
      <trkpt lat="42.12711" lon="2.2599">
        <ele>879.8</ele>
        <time>2018-11-26T03:32:43Z</time>
      </trkpt>
      <trkpt lat="42.12711" lon="2.25986">
        <ele>879.7</ele>
        <time>2018-11-26T03:32:44Z</time>
      </trkpt>
      <trkpt lat="42.1271" lon="2.25982">
        <ele>879.5</ele>
        <time>2018-11-26T03:32:45Z</time>
      </trkpt>
      <trkpt lat="42.12709" lon="2.25978">
        <ele>878.7</ele>
        <time>2018-11-26T03:32:47Z</time>
      </trkpt>
      <trkpt lat="42.12707" lon="2.25976">
        <ele>878.7</ele>
        <time>2018-11-26T03:32:48Z</time>
      </trkpt>
      <trkpt lat="42.12706" lon="2.25974">
        <ele>878.6</ele>
        <time>2018-11-26T03:32:48Z</time>
      </trkpt>
      <trkpt lat="42.12705" lon="2.25972">
        <ele>878.8</ele>
        <time>2018-11-26T03:32:49Z</time>
      </trkpt>
      <trkpt lat="42.12704" lon="2.25967">
        <ele>878.5</ele>
        <time>2018-11-26T03:32:51Z</time>
      </trkpt>
      <trkpt lat="42.12704" lon="2.25964">
        <ele>878.4</ele>
        <time>2018-11-26T03:32:51Z</time>
      </trkpt>
      <trkpt lat="42.12704" lon="2.25962">
        <ele>878.4</ele>
        <time>2018-11-26T03:32:52Z</time>
      </trkpt>
      <trkpt lat="42.12704" lon="2.25957">
        <ele>878.4</ele>
        <time>2018-11-26T03:32:54Z</time>
      </trkpt>
      <trkpt lat="42.12704" lon="2.25954">
        <ele>877.5</ele>
        <time>2018-11-26T03:32:55Z</time>
      </trkpt>
      <trkpt lat="42.12704" lon="2.2595">
        <ele>877.2</ele>
        <time>2018-11-26T03:32:56Z</time>
      </trkpt>
      <trkpt lat="42.12704" lon="2.25947">
        <ele>877.3</ele>
        <time>2018-11-26T03:32:57Z</time>
      </trkpt>
      <trkpt lat="42.12703" lon="2.25942">
        <ele>877.3</ele>
        <time>2018-11-26T03:32:58Z</time>
      </trkpt>
      <trkpt lat="42.12703" lon="2.25938">
        <ele>877.1</ele>
        <time>2018-11-26T03:32:59Z</time>
      </trkpt>
      <trkpt lat="42.12703" lon="2.25934">
        <ele>876.5</ele>
        <time>2018-11-26T03:33:01Z</time>
      </trkpt>
      <trkpt lat="42.12703" lon="2.25929">
        <ele>876.5</ele>
        <time>2018-11-26T03:33:02Z</time>
      </trkpt>
      <trkpt lat="42.12702" lon="2.25925">
        <ele>876.7</ele>
        <time>2018-11-26T03:33:03Z</time>
      </trkpt>
      <trkpt lat="42.12701" lon="2.25921">
        <ele>876.4</ele>
        <time>2018-11-26T03:33:04Z</time>
      </trkpt>
      <trkpt lat="42.127" lon="2.25918">
        <ele>876.6</ele>
        <time>2018-11-26T03:33:06Z</time>
      </trkpt>
      <trkpt lat="42.127" lon="2.25913">
        <ele>876.5</ele>
        <time>2018-11-26T03:33:07Z</time>
      </trkpt>
      <trkpt lat="42.127" lon="2.2591">
        <ele>876.5</ele>
        <time>2018-11-26T03:33:08Z</time>
      </trkpt>
      <trkpt lat="42.12699" lon="2.25907">
        <ele>876.6</ele>
        <time>2018-11-26T03:33:09Z</time>
      </trkpt>
      <trkpt lat="42.12698" lon="2.25903">
        <ele>876.5</ele>
        <time>2018-11-26T03:33:10Z</time>
      </trkpt>
      <trkpt lat="42.12698" lon="2.25899">
        <ele>876.3</ele>
        <time>2018-11-26T03:33:11Z</time>
      </trkpt>
      <trkpt lat="42.12697" lon="2.25896">
        <ele>875.5</ele>
        <time>2018-11-26T03:33:12Z</time>
      </trkpt>
      <trkpt lat="42.12696" lon="2.25892">
        <ele>875.3</ele>
        <time>2018-11-26T03:33:14Z</time>
      </trkpt>
      <trkpt lat="42.12695" lon="2.25888">
        <ele>875.2</ele>
        <time>2018-11-26T03:33:15Z</time>
      </trkpt>
      <trkpt lat="42.12695" lon="2.25884">
        <ele>875.2</ele>
        <time>2018-11-26T03:33:16Z</time>
      </trkpt>
      <trkpt lat="42.12694" lon="2.25881">
        <ele>875.2</ele>
        <time>2018-11-26T03:33:17Z</time>
      </trkpt>
      <trkpt lat="42.12694" lon="2.25878">
        <ele>875.3</ele>
        <time>2018-11-26T03:33:18Z</time>
      </trkpt>
      <trkpt lat="42.12695" lon="2.25873">
        <ele>875.2</ele>
        <time>2018-11-26T03:33:19Z</time>
      </trkpt>
      <trkpt lat="42.12695" lon="2.25871">
        <ele>875.2</ele>
        <time>2018-11-26T03:33:20Z</time>
      </trkpt>
      <trkpt lat="42.12696" lon="2.25866">
        <ele>875.2</ele>
        <time>2018-11-26T03:33:21Z</time>
      </trkpt>
      <trkpt lat="42.12696" lon="2.25861">
        <ele>874.8</ele>
        <time>2018-11-26T03:33:23Z</time>
      </trkpt>
      <trkpt lat="42.12696" lon="2.25858">
        <ele>874.7</ele>
        <time>2018-11-26T03:33:24Z</time>
      </trkpt>
      <trkpt lat="42.12695" lon="2.25852">
        <ele>874.6</ele>
        <time>2018-11-26T03:33:26Z</time>
      </trkpt>
      <trkpt lat="42.12694" lon="2.25847">
        <ele>874.5</ele>
        <time>2018-11-26T03:33:27Z</time>
      </trkpt>
      <trkpt lat="42.12694" lon="2.25845">
        <ele>874.3</ele>
        <time>2018-11-26T03:33:28Z</time>
      </trkpt>
      <trkpt lat="42.12693" lon="2.25841">
        <ele>873.7</ele>
        <time>2018-11-26T03:33:29Z</time>
      </trkpt>
      <trkpt lat="42.12691" lon="2.25837">
        <ele>873.4</ele>
        <time>2018-11-26T03:33:30Z</time>
      </trkpt>
      <trkpt lat="42.12691" lon="2.25835">
        <ele>873.5</ele>
        <time>2018-11-26T03:33:31Z</time>
      </trkpt>
      <trkpt lat="42.12689" lon="2.25832">
        <ele>873.5</ele>
        <time>2018-11-26T03:33:32Z</time>
      </trkpt>
      <trkpt lat="42.12688" lon="2.2583">
        <ele>873.7</ele>
        <time>2018-11-26T03:33:33Z</time>
      </trkpt>
      <trkpt lat="42.12685" lon="2.25828">
        <ele>873.8</ele>
        <time>2018-11-26T03:33:34Z</time>
      </trkpt>
      <trkpt lat="42.12684" lon="2.25826">
        <ele>873.5</ele>
        <time>2018-11-26T03:33:35Z</time>
      </trkpt>
      <trkpt lat="42.12684" lon="2.25823">
        <ele>872.7</ele>
        <time>2018-11-26T03:33:36Z</time>
      </trkpt>
      <trkpt lat="42.12686" lon="2.2582">
        <ele>872.7</ele>
        <time>2018-11-26T03:33:37Z</time>
      </trkpt>
      <trkpt lat="42.12688" lon="2.25819">
        <ele>873.4</ele>
        <time>2018-11-26T03:33:38Z</time>
      </trkpt>
      <trkpt lat="42.12688" lon="2.25822">
        <ele>873.6</ele>
        <time>2018-11-26T03:33:39Z</time>
      </trkpt>
      <trkpt lat="42.12688" lon="2.25819">
        <ele>874.7</ele>
        <time>2018-11-26T03:33:39Z</time>
      </trkpt>
      <trkpt lat="42.1269" lon="2.25819">
        <ele>874.4</ele>
        <time>2018-11-26T03:33:40Z</time>
      </trkpt>
      <trkpt lat="42.12692" lon="2.25818">
        <ele>874.7</ele>
        <time>2018-11-26T03:33:41Z</time>
      </trkpt>
      <trkpt lat="42.12692" lon="2.25821">
        <ele>875.2</ele>
        <time>2018-11-26T03:33:41Z</time>
      </trkpt>
      <trkpt lat="42.1269" lon="2.25821">
        <ele>875.6</ele>
        <time>2018-11-26T03:33:42Z</time>
      </trkpt>
      <trkpt lat="42.12688" lon="2.25822">
        <ele>875.6</ele>
        <time>2018-11-26T03:33:43Z</time>
      </trkpt>
      <trkpt lat="42.12686" lon="2.25821">
        <ele>875.4</ele>
        <time>2018-11-26T03:33:44Z</time>
      </trkpt>
      <trkpt lat="42.12686" lon="2.25823">
        <ele>875.5</ele>
        <time>2018-11-26T03:33:45Z</time>
      </trkpt>
      <trkpt lat="42.12687" lon="2.25822">
        <ele>875.5</ele>
        <time>2018-11-26T03:33:45Z</time>
      </trkpt>
      <trkpt lat="42.12686" lon="2.25819">
        <ele>875.5</ele>
        <time>2018-11-26T03:33:46Z</time>
      </trkpt>
      <trkpt lat="42.12685" lon="2.25816">
        <ele>875.5</ele>
        <time>2018-11-26T03:33:47Z</time>
      </trkpt>
      <trkpt lat="42.12686" lon="2.25814">
        <ele>875.5</ele>
        <time>2018-11-26T03:33:48Z</time>
      </trkpt>
      <trkpt lat="42.12685" lon="2.25811">
        <ele>875.6</ele>
        <time>2018-11-26T03:33:49Z</time>
      </trkpt>
      <trkpt lat="42.12684" lon="2.25809">
        <ele>875.5</ele>
        <time>2018-11-26T03:33:49Z</time>
      </trkpt>
      <trkpt lat="42.12681" lon="2.25808">
        <ele>875.5</ele>
        <time>2018-11-26T03:33:51Z</time>
      </trkpt>
      <trkpt lat="42.12679" lon="2.25807">
        <ele>875.5</ele>
        <time>2018-11-26T03:33:52Z</time>
      </trkpt>
      <trkpt lat="42.12677" lon="2.25806">
        <ele>875.6</ele>
        <time>2018-11-26T03:33:52Z</time>
      </trkpt>
      <trkpt lat="42.12675" lon="2.25805">
        <ele>875.6</ele>
        <time>2018-11-26T03:33:53Z</time>
      </trkpt>
      <trkpt lat="42.12674" lon="2.25801">
        <ele>875.6</ele>
        <time>2018-11-26T03:33:55Z</time>
      </trkpt>
      <trkpt lat="42.12674" lon="2.25797">
        <ele>875.6</ele>
        <time>2018-11-26T03:33:56Z</time>
      </trkpt>
      <trkpt lat="42.12674" lon="2.25792">
        <ele>875.5</ele>
        <time>2018-11-26T03:33:57Z</time>
      </trkpt>
      <trkpt lat="42.12675" lon="2.25788">
        <ele>875.5</ele>
        <time>2018-11-26T03:33:59Z</time>
      </trkpt>
      <trkpt lat="42.12675" lon="2.25784">
        <ele>875.5</ele>
        <time>2018-11-26T03:34:00Z</time>
      </trkpt>
      <trkpt lat="42.12676" lon="2.2578">
        <ele>875.5</ele>
        <time>2018-11-26T03:34:01Z</time>
      </trkpt>
      <trkpt lat="42.12676" lon="2.25776">
        <ele>875.6</ele>
        <time>2018-11-26T03:34:02Z</time>
      </trkpt>
      <trkpt lat="42.12677" lon="2.25772">
        <ele>875.5</ele>
        <time>2018-11-26T03:34:03Z</time>
      </trkpt>
      <trkpt lat="42.12678" lon="2.25768">
        <ele>875.5</ele>
        <time>2018-11-26T03:34:04Z</time>
      </trkpt>
      <trkpt lat="42.12679" lon="2.25765">
        <ele>875.6</ele>
        <time>2018-11-26T03:34:06Z</time>
      </trkpt>
      <trkpt lat="42.12679" lon="2.25762">
        <ele>875.6</ele>
        <time>2018-11-26T03:34:06Z</time>
      </trkpt>
      <trkpt lat="42.12679" lon="2.25759">
        <ele>875.5</ele>
        <time>2018-11-26T03:34:07Z</time>
      </trkpt>
      <trkpt lat="42.12678" lon="2.25757">
        <ele>875.5</ele>
        <time>2018-11-26T03:34:08Z</time>
      </trkpt>
      <trkpt lat="42.12676" lon="2.25755">
        <ele>875.6</ele>
        <time>2018-11-26T03:34:09Z</time>
      </trkpt>
      <trkpt lat="42.12674" lon="2.25753">
        <ele>875.6</ele>
        <time>2018-11-26T03:34:10Z</time>
      </trkpt>
      <trkpt lat="42.12672" lon="2.25751">
        <ele>875.6</ele>
        <time>2018-11-26T03:34:11Z</time>
      </trkpt>
      <trkpt lat="42.1267" lon="2.25748">
        <ele>875.5</ele>
        <time>2018-11-26T03:34:12Z</time>
      </trkpt>
      <trkpt lat="42.12668" lon="2.25744">
        <ele>871.8</ele>
        <time>2018-11-26T03:34:14Z</time>
      </trkpt>
      <trkpt lat="42.12668" lon="2.25741">
        <ele>871.3</ele>
        <time>2018-11-26T03:34:15Z</time>
      </trkpt>
      <trkpt lat="42.12668" lon="2.25737">
        <ele>871.2</ele>
        <time>2018-11-26T03:34:16Z</time>
      </trkpt>
      <trkpt lat="42.12668" lon="2.25733">
        <ele>871.2</ele>
        <time>2018-11-26T03:34:17Z</time>
      </trkpt>
      <trkpt lat="42.12668" lon="2.25729">
        <ele>871.1</ele>
        <time>2018-11-26T03:34:18Z</time>
      </trkpt>
      <trkpt lat="42.12669" lon="2.25726">
        <ele>870.5</ele>
        <time>2018-11-26T03:34:19Z</time>
      </trkpt>
      <trkpt lat="42.12669" lon="2.25722">
        <ele>870.5</ele>
        <time>2018-11-26T03:34:20Z</time>
      </trkpt>
      <trkpt lat="42.12669" lon="2.25718">
        <ele>870.4</ele>
        <time>2018-11-26T03:34:21Z</time>
      </trkpt>
      <trkpt lat="42.1267" lon="2.25715">
        <ele>870.5</ele>
        <time>2018-11-26T03:34:22Z</time>
      </trkpt>
      <trkpt lat="42.1267" lon="2.25711">
        <ele>870.5</ele>
        <time>2018-11-26T03:34:24Z</time>
      </trkpt>
      <trkpt lat="42.12671" lon="2.25708">
        <ele>870.5</ele>
        <time>2018-11-26T03:34:25Z</time>
      </trkpt>
      <trkpt lat="42.12671" lon="2.25704">
        <ele>870.5</ele>
        <time>2018-11-26T03:34:26Z</time>
      </trkpt>
      <trkpt lat="42.12674" lon="2.25703">
        <ele>870.6</ele>
        <time>2018-11-26T03:34:27Z</time>
      </trkpt>
      <trkpt lat="42.12677" lon="2.25702">
        <ele>870.6</ele>
        <time>2018-11-26T03:34:28Z</time>
      </trkpt>
      <trkpt lat="42.1268" lon="2.25702">
        <ele>870.4</ele>
        <time>2018-11-26T03:34:29Z</time>
      </trkpt>
      <trkpt lat="42.12682" lon="2.25702">
        <ele>869.7</ele>
        <time>2018-11-26T03:34:30Z</time>
      </trkpt>
      <trkpt lat="42.12684" lon="2.25701">
        <ele>869.7</ele>
        <time>2018-11-26T03:34:31Z</time>
      </trkpt>
      <trkpt lat="42.12686" lon="2.25701">
        <ele>869.7</ele>
        <time>2018-11-26T03:34:32Z</time>
      </trkpt>
      <trkpt lat="42.12687" lon="2.257">
        <ele>869.8</ele>
        <time>2018-11-26T03:34:32Z</time>
      </trkpt>
      <trkpt lat="42.12689" lon="2.25697">
        <ele>869.8</ele>
        <time>2018-11-26T03:34:33Z</time>
      </trkpt>
      <trkpt lat="42.12691" lon="2.25695">
        <ele>870.1</ele>
        <time>2018-11-26T03:34:34Z</time>
      </trkpt>
      <trkpt lat="42.12692" lon="2.25692">
        <ele>870.1</ele>
        <time>2018-11-26T03:34:35Z</time>
      </trkpt>
      <trkpt lat="42.12693" lon="2.25689">
        <ele>870.1</ele>
        <time>2018-11-26T03:34:36Z</time>
      </trkpt>
      <trkpt lat="42.12694" lon="2.25687">
        <ele>869.7</ele>
        <time>2018-11-26T03:34:37Z</time>
      </trkpt>
      <trkpt lat="42.12696" lon="2.25685">
        <ele>870.1</ele>
        <time>2018-11-26T03:34:38Z</time>
      </trkpt>
      <trkpt lat="42.12698" lon="2.25683">
        <ele>870.5</ele>
        <time>2018-11-26T03:34:39Z</time>
      </trkpt>
      <trkpt lat="42.12699" lon="2.2568">
        <ele>871.4</ele>
        <time>2018-11-26T03:34:40Z</time>
      </trkpt>
      <trkpt lat="42.127" lon="2.25676">
        <ele>871.5</ele>
        <time>2018-11-26T03:34:41Z</time>
      </trkpt>
      <trkpt lat="42.127" lon="2.25672">
        <ele>871.5</ele>
        <time>2018-11-26T03:34:42Z</time>
      </trkpt>
      <trkpt lat="42.127" lon="2.25668">
        <ele>870.8</ele>
        <time>2018-11-26T03:34:44Z</time>
      </trkpt>
      <trkpt lat="42.12701" lon="2.25664">
        <ele>870.7</ele>
        <time>2018-11-26T03:34:45Z</time>
      </trkpt>
      <trkpt lat="42.12702" lon="2.25661">
        <ele>870.5</ele>
        <time>2018-11-26T03:34:46Z</time>
      </trkpt>
      <trkpt lat="42.12703" lon="2.25658">
        <ele>870.5</ele>
        <time>2018-11-26T03:34:47Z</time>
      </trkpt>
      <trkpt lat="42.12703" lon="2.25655">
        <ele>870.5</ele>
        <time>2018-11-26T03:34:48Z</time>
      </trkpt>
      <trkpt lat="42.12704" lon="2.25652">
        <ele>870.5</ele>
        <time>2018-11-26T03:34:49Z</time>
      </trkpt>
      <trkpt lat="42.12705" lon="2.25649">
        <ele>870.6</ele>
        <time>2018-11-26T03:34:50Z</time>
      </trkpt>
      <trkpt lat="42.12705" lon="2.25645">
        <ele>870</ele>
        <time>2018-11-26T03:34:51Z</time>
      </trkpt>
      <trkpt lat="42.12706" lon="2.25641">
        <ele>869.7</ele>
        <time>2018-11-26T03:34:52Z</time>
      </trkpt>
      <trkpt lat="42.12706" lon="2.25638">
        <ele>869.7</ele>
        <time>2018-11-26T03:34:53Z</time>
      </trkpt>
      <trkpt lat="42.12707" lon="2.25634">
        <ele>869.7</ele>
        <time>2018-11-26T03:34:54Z</time>
      </trkpt>
      <trkpt lat="42.12706" lon="2.2563">
        <ele>869.7</ele>
        <time>2018-11-26T03:34:55Z</time>
      </trkpt>
      <trkpt lat="42.12706" lon="2.25626">
        <ele>869.8</ele>
        <time>2018-11-26T03:34:56Z</time>
      </trkpt>
      <trkpt lat="42.12706" lon="2.25623">
        <ele>869.8</ele>
        <time>2018-11-26T03:34:57Z</time>
      </trkpt>
      <trkpt lat="42.12705" lon="2.2562">
        <ele>869.8</ele>
        <time>2018-11-26T03:34:58Z</time>
      </trkpt>
      <trkpt lat="42.12704" lon="2.25617">
        <ele>869.5</ele>
        <time>2018-11-26T03:34:59Z</time>
      </trkpt>
      <trkpt lat="42.12703" lon="2.25613">
        <ele>869.5</ele>
        <time>2018-11-26T03:35:00Z</time>
      </trkpt>
      <trkpt lat="42.12702" lon="2.2561">
        <ele>869.6</ele>
        <time>2018-11-26T03:35:02Z</time>
      </trkpt>
      <trkpt lat="42.12704" lon="2.25607">
        <ele>869.4</ele>
        <time>2018-11-26T03:35:02Z</time>
      </trkpt>
      <trkpt lat="42.12706" lon="2.25605">
        <ele>869.4</ele>
        <time>2018-11-26T03:35:03Z</time>
      </trkpt>
      <trkpt lat="42.12708" lon="2.25604">
        <ele>869.5</ele>
        <time>2018-11-26T03:35:04Z</time>
      </trkpt>
      <trkpt lat="42.12709" lon="2.25602">
        <ele>869.2</ele>
        <time>2018-11-26T03:35:05Z</time>
      </trkpt>
      <trkpt lat="42.12709" lon="2.25598">
        <ele>869.2</ele>
        <time>2018-11-26T03:35:06Z</time>
      </trkpt>
      <trkpt lat="42.12708" lon="2.25596">
        <ele>869.7</ele>
        <time>2018-11-26T03:35:07Z</time>
      </trkpt>
      <trkpt lat="42.12707" lon="2.25593">
        <ele>869.5</ele>
        <time>2018-11-26T03:35:08Z</time>
      </trkpt>
      <trkpt lat="42.12706" lon="2.2559">
        <ele>869.5</ele>
        <time>2018-11-26T03:35:09Z</time>
      </trkpt>
      <trkpt lat="42.12705" lon="2.25588">
        <ele>869.6</ele>
        <time>2018-11-26T03:35:10Z</time>
      </trkpt>
      <trkpt lat="42.12705" lon="2.25585">
        <ele>869.6</ele>
        <time>2018-11-26T03:35:11Z</time>
      </trkpt>
      <trkpt lat="42.12704" lon="2.25582">
        <ele>869.5</ele>
        <time>2018-11-26T03:35:12Z</time>
      </trkpt>
      <trkpt lat="42.12703" lon="2.25579">
        <ele>869.5</ele>
        <time>2018-11-26T03:35:13Z</time>
      </trkpt>
      <trkpt lat="42.12702" lon="2.25575">
        <ele>869.8</ele>
        <time>2018-11-26T03:35:14Z</time>
      </trkpt>
      <trkpt lat="42.12701" lon="2.25572">
        <ele>870.1</ele>
        <time>2018-11-26T03:35:15Z</time>
      </trkpt>
      <trkpt lat="42.12767" lon="2.25587">
        <ele>868.5</ele>
        <time>2018-11-26T05:00:16Z</time>
      </trkpt>
      <trkpt lat="42.12793" lon="2.25585">
        <ele>867.7</ele>
        <time>2018-11-26T05:00:26Z</time>
      </trkpt>
      <trkpt lat="42.1281" lon="2.25588">
        <ele>863.5</ele>
        <time>2018-11-26T05:00:33Z</time>
      </trkpt>
      <trkpt lat="42.12815" lon="2.25595">
        <ele>862.7</ele>
        <time>2018-11-26T05:00:36Z</time>
      </trkpt>
      <trkpt lat="42.12824" lon="2.25598">
        <ele>860.8</ele>
        <time>2018-11-26T05:00:40Z</time>
      </trkpt>
      <trkpt lat="42.12835" lon="2.25599">
        <ele>858.4</ele>
        <time>2018-11-26T05:00:44Z</time>
      </trkpt>
      <trkpt lat="42.12845" lon="2.25593">
        <ele>855.3</ele>
        <time>2018-11-26T05:00:48Z</time>
      </trkpt>
      <trkpt lat="42.12854" lon="2.25586">
        <ele>852</ele>
        <time>2018-11-26T05:00:52Z</time>
      </trkpt>
      <trkpt lat="42.12859" lon="2.25576">
        <ele>848.9</ele>
        <time>2018-11-26T05:00:56Z</time>
      </trkpt>
      <trkpt lat="42.12863" lon="2.25564">
        <ele>845.8</ele>
        <time>2018-11-26T05:01:00Z</time>
      </trkpt>
      <trkpt lat="42.12868" lon="2.25553">
        <ele>842</ele>
        <time>2018-11-26T05:01:04Z</time>
      </trkpt>
      <trkpt lat="42.12876" lon="2.25548">
        <ele>838.3</ele>
        <time>2018-11-26T05:01:07Z</time>
      </trkpt>
      <trkpt lat="42.12884" lon="2.2554">
        <ele>836.5</ele>
        <time>2018-11-26T05:01:11Z</time>
      </trkpt>
      <trkpt lat="42.1288" lon="2.25526">
        <ele>839.5</ele>
        <time>2018-11-26T05:01:16Z</time>
      </trkpt>
      <trkpt lat="42.12872" lon="2.25518">
        <ele>842.4</ele>
        <time>2018-11-26T05:01:20Z</time>
      </trkpt>
      <trkpt lat="42.12866" lon="2.25507">
        <ele>846.1</ele>
        <time>2018-11-26T05:01:24Z</time>
      </trkpt>
      <trkpt lat="42.12857" lon="2.255">
        <ele>850.2</ele>
        <time>2018-11-26T05:01:28Z</time>
      </trkpt>
      <trkpt lat="42.12853" lon="2.25489">
        <ele>853.3</ele>
        <time>2018-11-26T05:01:32Z</time>
      </trkpt>
      <trkpt lat="42.12862" lon="2.25486">
        <ele>851.1</ele>
        <time>2018-11-26T05:01:35Z</time>
      </trkpt>
      <trkpt lat="42.12872" lon="2.25486">
        <ele>847.9</ele>
        <time>2018-11-26T05:01:40Z</time>
      </trkpt>
      <trkpt lat="42.12881" lon="2.25487">
        <ele>846.4</ele>
        <time>2018-11-26T05:01:43Z</time>
      </trkpt>
      <trkpt lat="42.1289" lon="2.25491">
        <ele>845.1</ele>
        <time>2018-11-26T05:01:47Z</time>
      </trkpt>
      <trkpt lat="42.12898" lon="2.25497">
        <ele>843.3</ele>
        <time>2018-11-26T05:01:51Z</time>
      </trkpt>
      <trkpt lat="42.12908" lon="2.25497">
        <ele>842.4</ele>
        <time>2018-11-26T05:01:55Z</time>
      </trkpt>
      <trkpt lat="42.12917" lon="2.25494">
        <ele>842.3</ele>
        <time>2018-11-26T05:01:58Z</time>
      </trkpt>
      <trkpt lat="42.12926" lon="2.25492">
        <ele>841.8</ele>
        <time>2018-11-26T05:02:02Z</time>
      </trkpt>
      <trkpt lat="42.12935" lon="2.25486">
        <ele>842.5</ele>
        <time>2018-11-26T05:02:06Z</time>
      </trkpt>
      <trkpt lat="42.12944" lon="2.25483">
        <ele>842.2</ele>
        <time>2018-11-26T05:02:10Z</time>
      </trkpt>
      <trkpt lat="42.12954" lon="2.25482">
        <ele>841.6</ele>
        <time>2018-11-26T05:02:14Z</time>
      </trkpt>
      <trkpt lat="42.12961" lon="2.25476">
        <ele>841.5</ele>
        <time>2018-11-26T05:02:17Z</time>
      </trkpt>
      <trkpt lat="42.12971" lon="2.25472">
        <ele>839.4</ele>
        <time>2018-11-26T05:02:21Z</time>
      </trkpt>
      <trkpt lat="42.1298" lon="2.2547">
        <ele>837</ele>
        <time>2018-11-26T05:02:25Z</time>
      </trkpt>
      <trkpt lat="42.1299" lon="2.2547">
        <ele>834.2</ele>
        <time>2018-11-26T05:02:29Z</time>
      </trkpt>
      <trkpt lat="42.13001" lon="2.25466">
        <ele>831.6</ele>
        <time>2018-11-26T05:02:33Z</time>
      </trkpt>
      <trkpt lat="42.1301" lon="2.25461">
        <ele>829.5</ele>
        <time>2018-11-26T05:02:37Z</time>
      </trkpt>
      <trkpt lat="42.13017" lon="2.25453">
        <ele>828</ele>
        <time>2018-11-26T05:02:41Z</time>
      </trkpt>
      <trkpt lat="42.13022" lon="2.25442">
        <ele>827</ele>
        <time>2018-11-26T05:02:45Z</time>
      </trkpt>
      <trkpt lat="42.13025" lon="2.25431">
        <ele>826.3</ele>
        <time>2018-11-26T05:02:48Z</time>
      </trkpt>
      <trkpt lat="42.13028" lon="2.25419">
        <ele>825.9</ele>
        <time>2018-11-26T05:02:52Z</time>
      </trkpt>
      <trkpt lat="42.13031" lon="2.25406">
        <ele>825.3</ele>
        <time>2018-11-26T05:02:56Z</time>
      </trkpt>
      <trkpt lat="42.13034" lon="2.25394">
        <ele>824</ele>
        <time>2018-11-26T05:03:00Z</time>
      </trkpt>
      <trkpt lat="42.13035" lon="2.25381">
        <ele>824</ele>
        <time>2018-11-26T05:03:04Z</time>
      </trkpt>
      <trkpt lat="42.13036" lon="2.25369">
        <ele>823.4</ele>
        <time>2018-11-26T05:03:07Z</time>
      </trkpt>
      <trkpt lat="42.13035" lon="2.25355">
        <ele>822.8</ele>
        <time>2018-11-26T05:03:11Z</time>
      </trkpt>
      <trkpt lat="42.13035" lon="2.25343">
        <ele>822.2</ele>
        <time>2018-11-26T05:03:15Z</time>
      </trkpt>
      <trkpt lat="42.13039" lon="2.25331">
        <ele>819.5</ele>
        <time>2018-11-26T05:03:19Z</time>
      </trkpt>
      <trkpt lat="42.13043" lon="2.2532">
        <ele>816.4</ele>
        <time>2018-11-26T05:03:23Z</time>
      </trkpt>
      <trkpt lat="42.13046" lon="2.25307">
        <ele>814.6</ele>
        <time>2018-11-26T05:03:27Z</time>
      </trkpt>
      <trkpt lat="42.13046" lon="2.25293">
        <ele>813.7</ele>
        <time>2018-11-26T05:03:31Z</time>
      </trkpt>
      <trkpt lat="42.13049" lon="2.2528">
        <ele>811.3</ele>
        <time>2018-11-26T05:03:35Z</time>
      </trkpt>
      <trkpt lat="42.13051" lon="2.25268">
        <ele>809.4</ele>
        <time>2018-11-26T05:03:39Z</time>
      </trkpt>
      <trkpt lat="42.13053" lon="2.25255">
        <ele>807.4</ele>
        <time>2018-11-26T05:03:43Z</time>
      </trkpt>
      <trkpt lat="42.13055" lon="2.25243">
        <ele>805.3</ele>
        <time>2018-11-26T05:03:46Z</time>
      </trkpt>
      <trkpt lat="42.13056" lon="2.25229">
        <ele>803.9</ele>
        <time>2018-11-26T05:03:50Z</time>
      </trkpt>
      <trkpt lat="42.13056" lon="2.25216">
        <ele>802.6</ele>
        <time>2018-11-26T05:03:54Z</time>
      </trkpt>
      <trkpt lat="42.13056" lon="2.25203">
        <ele>800.8</ele>
        <time>2018-11-26T05:03:58Z</time>
      </trkpt>
      <trkpt lat="42.13057" lon="2.25189">
        <ele>798.6</ele>
        <time>2018-11-26T05:04:02Z</time>
      </trkpt>
      <trkpt lat="42.13058" lon="2.25176">
        <ele>796.3</ele>
        <time>2018-11-26T05:04:06Z</time>
      </trkpt>
      <trkpt lat="42.13059" lon="2.25164">
        <ele>794.2</ele>
        <time>2018-11-26T05:04:10Z</time>
      </trkpt>
      <trkpt lat="42.13059" lon="2.25151">
        <ele>792.3</ele>
        <time>2018-11-26T05:04:14Z</time>
      </trkpt>
      <trkpt lat="42.13061" lon="2.25139">
        <ele>790.1</ele>
        <time>2018-11-26T05:04:17Z</time>
      </trkpt>
      <trkpt lat="42.13063" lon="2.25126">
        <ele>787.9</ele>
        <time>2018-11-26T05:04:21Z</time>
      </trkpt>
      <trkpt lat="42.13063" lon="2.25111">
        <ele>785.4</ele>
        <time>2018-11-26T05:04:26Z</time>
      </trkpt>
      <trkpt lat="42.13063" lon="2.25097">
        <ele>783.2</ele>
        <time>2018-11-26T05:04:30Z</time>
      </trkpt>
      <trkpt lat="42.13063" lon="2.25085">
        <ele>781.2</ele>
        <time>2018-11-26T05:04:33Z</time>
      </trkpt>
      <trkpt lat="42.13063" lon="2.25072">
        <ele>779.2</ele>
        <time>2018-11-26T05:04:37Z</time>
      </trkpt>
      <trkpt lat="42.13064" lon="2.25059">
        <ele>777.1</ele>
        <time>2018-11-26T05:04:41Z</time>
      </trkpt>
      <trkpt lat="42.13065" lon="2.25047">
        <ele>775.3</ele>
        <time>2018-11-26T05:04:45Z</time>
      </trkpt>
      <trkpt lat="42.13067" lon="2.25034">
        <ele>774.3</ele>
        <time>2018-11-26T05:04:49Z</time>
      </trkpt>
      <trkpt lat="42.1307" lon="2.25022">
        <ele>774.3</ele>
        <time>2018-11-26T05:04:52Z</time>
      </trkpt>
      <trkpt lat="42.13075" lon="2.25012">
        <ele>774.8</ele>
        <time>2018-11-26T05:04:56Z</time>
      </trkpt>
      <trkpt lat="42.13071" lon="2.25">
        <ele>773.9</ele>
        <time>2018-11-26T05:05:00Z</time>
      </trkpt>
      <trkpt lat="42.13069" lon="2.24987">
        <ele>773.2</ele>
        <time>2018-11-26T05:05:04Z</time>
      </trkpt>
      <trkpt lat="42.1307" lon="2.24973">
        <ele>773.3</ele>
        <time>2018-11-26T05:05:08Z</time>
      </trkpt>
      <trkpt lat="42.1307" lon="2.24961">
        <ele>773</ele>
        <time>2018-11-26T05:05:12Z</time>
      </trkpt>
      <trkpt lat="42.13069" lon="2.24948">
        <ele>772.8</ele>
        <time>2018-11-26T05:05:16Z</time>
      </trkpt>
      <trkpt lat="42.13065" lon="2.24937">
        <ele>771.7</ele>
        <time>2018-11-26T05:05:19Z</time>
      </trkpt>
      <trkpt lat="42.13061" lon="2.24925">
        <ele>770.6</ele>
        <time>2018-11-26T05:05:23Z</time>
      </trkpt>
      <trkpt lat="42.13058" lon="2.24913">
        <ele>769.7</ele>
        <time>2018-11-26T05:05:27Z</time>
      </trkpt>
      <trkpt lat="42.13057" lon="2.24901">
        <ele>769.6</ele>
        <time>2018-11-26T05:05:30Z</time>
      </trkpt>
      <trkpt lat="42.13058" lon="2.24889">
        <ele>770.2</ele>
        <time>2018-11-26T05:05:34Z</time>
      </trkpt>
      <trkpt lat="42.13056" lon="2.24877">
        <ele>769.4</ele>
        <time>2018-11-26T05:05:38Z</time>
      </trkpt>
      <trkpt lat="42.13055" lon="2.24864">
        <ele>768.4</ele>
        <time>2018-11-26T05:05:42Z</time>
      </trkpt>
      <trkpt lat="42.13054" lon="2.2485">
        <ele>767.5</ele>
        <time>2018-11-26T05:05:46Z</time>
      </trkpt>
      <trkpt lat="42.13061" lon="2.24841">
        <ele>769.5</ele>
        <time>2018-11-26T05:05:49Z</time>
      </trkpt>
      <trkpt lat="42.13068" lon="2.24834">
        <ele>771.6</ele>
        <time>2018-11-26T05:05:53Z</time>
      </trkpt>
      <trkpt lat="42.13069" lon="2.2482">
        <ele>770.7</ele>
        <time>2018-11-26T05:05:57Z</time>
      </trkpt>
      <trkpt lat="42.13074" lon="2.24809">
        <ele>771.3</ele>
        <time>2018-11-26T05:06:01Z</time>
      </trkpt>
      <trkpt lat="42.13078" lon="2.24798">
        <ele>771.4</ele>
        <time>2018-11-26T05:06:05Z</time>
      </trkpt>
      <trkpt lat="42.13085" lon="2.24789">
        <ele>772.5</ele>
        <time>2018-11-26T05:06:08Z</time>
      </trkpt>
      <trkpt lat="42.13092" lon="2.2478">
        <ele>774.5</ele>
        <time>2018-11-26T05:06:12Z</time>
      </trkpt>
      <trkpt lat="42.13097" lon="2.2477">
        <ele>776.2</ele>
        <time>2018-11-26T05:06:16Z</time>
      </trkpt>
      <trkpt lat="42.13104" lon="2.2476">
        <ele>778</ele>
        <time>2018-11-26T05:06:20Z</time>
      </trkpt>
      <trkpt lat="42.13112" lon="2.24753">
        <ele>780.2</ele>
        <time>2018-11-26T05:06:24Z</time>
      </trkpt>
      <trkpt lat="42.1312" lon="2.24747">
        <ele>782.2</ele>
        <time>2018-11-26T05:06:28Z</time>
      </trkpt>
      <trkpt lat="42.13128" lon="2.24738">
        <ele>784.6</ele>
        <time>2018-11-26T05:06:32Z</time>
      </trkpt>
      <trkpt lat="42.13136" lon="2.24729">
        <ele>786.4</ele>
        <time>2018-11-26T05:06:36Z</time>
      </trkpt>
      <trkpt lat="42.1314" lon="2.24717">
        <ele>787</ele>
        <time>2018-11-26T05:06:40Z</time>
      </trkpt>
      <trkpt lat="42.13145" lon="2.24705">
        <ele>788.2</ele>
        <time>2018-11-26T05:06:44Z</time>
      </trkpt>
      <trkpt lat="42.13148" lon="2.24693">
        <ele>790.9</ele>
        <time>2018-11-26T05:06:48Z</time>
      </trkpt>
      <trkpt lat="42.13156" lon="2.24687">
        <ele>793.3</ele>
        <time>2018-11-26T05:06:51Z</time>
      </trkpt>
      <trkpt lat="42.13167" lon="2.24689">
        <ele>794.9</ele>
        <time>2018-11-26T05:06:55Z</time>
      </trkpt>
      <trkpt lat="42.13176" lon="2.24691">
        <ele>796.4</ele>
        <time>2018-11-26T05:06:59Z</time>
      </trkpt>
      <trkpt lat="42.13185" lon="2.24687">
        <ele>798.5</ele>
        <time>2018-11-26T05:07:03Z</time>
      </trkpt>
      <trkpt lat="42.13192" lon="2.24678">
        <ele>801.3</ele>
        <time>2018-11-26T05:07:07Z</time>
      </trkpt>
      <trkpt lat="42.13201" lon="2.2467">
        <ele>804.1</ele>
        <time>2018-11-26T05:07:11Z</time>
      </trkpt>
      <trkpt lat="42.13211" lon="2.2467">
        <ele>805.9</ele>
        <time>2018-11-26T05:07:15Z</time>
      </trkpt>
      <trkpt lat="42.13221" lon="2.24669">
        <ele>807.2</ele>
        <time>2018-11-26T05:07:19Z</time>
      </trkpt>
      <trkpt lat="42.13231" lon="2.24669">
        <ele>808.6</ele>
        <time>2018-11-26T05:07:23Z</time>
      </trkpt>
      <trkpt lat="42.1324" lon="2.24671">
        <ele>809.5</ele>
        <time>2018-11-26T05:07:27Z</time>
      </trkpt>
      <trkpt lat="42.1325" lon="2.24674">
        <ele>810.3</ele>
        <time>2018-11-26T05:07:31Z</time>
      </trkpt>
      <trkpt lat="42.13264" lon="2.24677">
        <ele>811.7</ele>
        <time>2018-11-26T05:07:36Z</time>
      </trkpt>
      <trkpt lat="42.13273" lon="2.24672">
        <ele>813.8</ele>
        <time>2018-11-26T05:07:40Z</time>
      </trkpt>
      <trkpt lat="42.13279" lon="2.24663">
        <ele>816.1</ele>
        <time>2018-11-26T05:07:44Z</time>
      </trkpt>
      <trkpt lat="42.13286" lon="2.24651">
        <ele>818.9</ele>
        <time>2018-11-26T05:07:48Z</time>
      </trkpt>
      <trkpt lat="42.13294" lon="2.24645">
        <ele>820.6</ele>
        <time>2018-11-26T05:07:52Z</time>
      </trkpt>
      <trkpt lat="42.13302" lon="2.24637">
        <ele>821.6</ele>
        <time>2018-11-26T05:07:56Z</time>
      </trkpt>
      <trkpt lat="42.13311" lon="2.24632">
        <ele>821.9</ele>
        <time>2018-11-26T05:08:00Z</time>
      </trkpt>
      <trkpt lat="42.1332" lon="2.24629">
        <ele>821.8</ele>
        <time>2018-11-26T05:08:04Z</time>
      </trkpt>
      <trkpt lat="42.13328" lon="2.24625">
        <ele>821.9</ele>
        <time>2018-11-26T05:08:07Z</time>
      </trkpt>
      <trkpt lat="42.13332" lon="2.24614">
        <ele>824.4</ele>
        <time>2018-11-26T05:08:11Z</time>
      </trkpt>
      <trkpt lat="42.13333" lon="2.24601">
        <ele>827.4</ele>
        <time>2018-11-26T05:08:15Z</time>
      </trkpt>
      <trkpt lat="42.13335" lon="2.24589">
        <ele>830.1</ele>
        <time>2018-11-26T05:08:18Z</time>
      </trkpt>
      <trkpt lat="42.13338" lon="2.24578">
        <ele>832.8</ele>
        <time>2018-11-26T05:08:22Z</time>
      </trkpt>
      <trkpt lat="42.13345" lon="2.24569">
        <ele>834.1</ele>
        <time>2018-11-26T05:08:26Z</time>
      </trkpt>
      <trkpt lat="42.13353" lon="2.24563">
        <ele>834.8</ele>
        <time>2018-11-26T05:08:29Z</time>
      </trkpt>
      <trkpt lat="42.1336" lon="2.24554">
        <ele>836.2</ele>
        <time>2018-11-26T05:08:33Z</time>
      </trkpt>
      <trkpt lat="42.13361" lon="2.24541">
        <ele>838.8</ele>
        <time>2018-11-26T05:08:37Z</time>
      </trkpt>
      <trkpt lat="42.1336" lon="2.24528">
        <ele>838.7</ele>
        <time>2018-11-26T05:08:41Z</time>
      </trkpt>
      <trkpt lat="42.13359" lon="2.24515">
        <ele>838.5</ele>
        <time>2018-11-26T05:08:45Z</time>
      </trkpt>
      <trkpt lat="42.13361" lon="2.24503">
        <ele>838.1</ele>
        <time>2018-11-26T05:08:48Z</time>
      </trkpt>
      <trkpt lat="42.13359" lon="2.24491">
        <ele>838.2</ele>
        <time>2018-11-26T05:08:52Z</time>
      </trkpt>
      <trkpt lat="42.13355" lon="2.24479">
        <ele>838.4</ele>
        <time>2018-11-26T05:08:56Z</time>
      </trkpt>
      <trkpt lat="42.13354" lon="2.24466">
        <ele>838.2</ele>
        <time>2018-11-26T05:09:00Z</time>
      </trkpt>
      <trkpt lat="42.13356" lon="2.24452">
        <ele>836.5</ele>
        <time>2018-11-26T05:09:04Z</time>
      </trkpt>
      <trkpt lat="42.13361" lon="2.24441">
        <ele>833.7</ele>
        <time>2018-11-26T05:09:08Z</time>
      </trkpt>
      <trkpt lat="42.13365" lon="2.24432">
        <ele>831.6</ele>
        <time>2018-11-26T05:09:11Z</time>
      </trkpt>
      <trkpt lat="42.13365" lon="2.24423">
        <ele>829.5</ele>
        <time>2018-11-26T05:09:14Z</time>
      </trkpt>
      <trkpt lat="42.13366" lon="2.24407">
        <ele>826.1</ele>
        <time>2018-11-26T05:09:18Z</time>
      </trkpt>
      <trkpt lat="42.1337" lon="2.24397">
        <ele>824.1</ele>
        <time>2018-11-26T05:09:22Z</time>
      </trkpt>
      <trkpt lat="42.1338" lon="2.24388">
        <ele>823.3</ele>
        <time>2018-11-26T05:09:26Z</time>
      </trkpt>
      <trkpt lat="42.13389" lon="2.24388">
        <ele>825</ele>
        <time>2018-11-26T05:09:30Z</time>
      </trkpt>
      <trkpt lat="42.13409" lon="2.24377">
        <ele>826.9</ele>
        <time>2018-11-26T05:09:39Z</time>
      </trkpt>
      <trkpt lat="42.13414" lon="2.24369">
        <ele>827.5</ele>
        <time>2018-11-26T05:09:42Z</time>
      </trkpt>
      <trkpt lat="42.13406" lon="2.24372">
        <ele>825.9</ele>
        <time>2018-11-26T05:09:45Z</time>
      </trkpt>
      <trkpt lat="42.13401" lon="2.24371">
        <ele>824.8</ele>
        <time>2018-11-26T05:09:48Z</time>
      </trkpt>
      <trkpt lat="42.13386" lon="2.24367">
        <ele>822</ele>
        <time>2018-11-26T05:09:53Z</time>
      </trkpt>
      <trkpt lat="42.13379" lon="2.2437">
        <ele>820.5</ele>
        <time>2018-11-26T05:09:57Z</time>
      </trkpt>
      <trkpt lat="42.13359" lon="2.24368">
        <ele>818.6</ele>
        <time>2018-11-26T05:10:04Z</time>
      </trkpt>
      <trkpt lat="42.13354" lon="2.24356">
        <ele>817.8</ele>
        <time>2018-11-26T05:10:08Z</time>
      </trkpt>
      <trkpt lat="42.13352" lon="2.24343">
        <ele>817.1</ele>
        <time>2018-11-26T05:10:12Z</time>
      </trkpt>
      <trkpt lat="42.13342" lon="2.24327">
        <ele>815.9</ele>
        <time>2018-11-26T05:10:18Z</time>
      </trkpt>
      <trkpt lat="42.13334" lon="2.24321">
        <ele>815.1</ele>
        <time>2018-11-26T05:10:22Z</time>
      </trkpt>
      <trkpt lat="42.13328" lon="2.2431">
        <ele>814.3</ele>
        <time>2018-11-26T05:10:26Z</time>
      </trkpt>
      <trkpt lat="42.13325" lon="2.24298">
        <ele>813.7</ele>
        <time>2018-11-26T05:10:30Z</time>
      </trkpt>
      <trkpt lat="42.13322" lon="2.24286">
        <ele>814.5</ele>
        <time>2018-11-26T05:10:34Z</time>
      </trkpt>
      <trkpt lat="42.13319" lon="2.24273">
        <ele>817.5</ele>
        <time>2018-11-26T05:10:38Z</time>
      </trkpt>
      <trkpt lat="42.13321" lon="2.2426">
        <ele>820.9</ele>
        <time>2018-11-26T05:10:42Z</time>
      </trkpt>
      <trkpt lat="42.13323" lon="2.24247">
        <ele>823.9</ele>
        <time>2018-11-26T05:10:46Z</time>
      </trkpt>
      <trkpt lat="42.13322" lon="2.24235">
        <ele>826.8</ele>
        <time>2018-11-26T05:10:49Z</time>
      </trkpt>
      <trkpt lat="42.1332" lon="2.24223">
        <ele>829.8</ele>
        <time>2018-11-26T05:10:53Z</time>
      </trkpt>
      <trkpt lat="42.13323" lon="2.2421">
        <ele>832.9</ele>
        <time>2018-11-26T05:10:57Z</time>
      </trkpt>
      <trkpt lat="42.13327" lon="2.24199">
        <ele>836</ele>
        <time>2018-11-26T05:11:00Z</time>
      </trkpt>
      <trkpt lat="42.13334" lon="2.2419">
        <ele>838.9</ele>
        <time>2018-11-26T05:11:04Z</time>
      </trkpt>
      <trkpt lat="42.13338" lon="2.24178">
        <ele>842.6</ele>
        <time>2018-11-26T05:11:08Z</time>
      </trkpt>
      <trkpt lat="42.13341" lon="2.24165">
        <ele>846.9</ele>
        <time>2018-11-26T05:11:12Z</time>
      </trkpt>
      <trkpt lat="42.13345" lon="2.24149">
        <ele>851.9</ele>
        <time>2018-11-26T05:11:17Z</time>
      </trkpt>
      <trkpt lat="42.1335" lon="2.24134">
        <ele>856.5</ele>
        <time>2018-11-26T05:11:22Z</time>
      </trkpt>
      <trkpt lat="42.13358" lon="2.24123">
        <ele>859.1</ele>
        <time>2018-11-26T05:11:27Z</time>
      </trkpt>
      <trkpt lat="42.13367" lon="2.24109">
        <ele>860.9</ele>
        <time>2018-11-26T05:11:32Z</time>
      </trkpt>
      <trkpt lat="42.13378" lon="2.24103">
        <ele>860.6</ele>
        <time>2018-11-26T05:11:37Z</time>
      </trkpt>
      <trkpt lat="42.13388" lon="2.24104">
        <ele>859.3</ele>
        <time>2018-11-26T05:11:41Z</time>
      </trkpt>
      <trkpt lat="42.13398" lon="2.24108">
        <ele>857.6</ele>
        <time>2018-11-26T05:11:45Z</time>
      </trkpt>
      <trkpt lat="42.13407" lon="2.24109">
        <ele>856.4</ele>
        <time>2018-11-26T05:11:49Z</time>
      </trkpt>
      <trkpt lat="42.13416" lon="2.24106">
        <ele>855.9</ele>
        <time>2018-11-26T05:11:53Z</time>
      </trkpt>
      <trkpt lat="42.13424" lon="2.241">
        <ele>855.9</ele>
        <time>2018-11-26T05:11:56Z</time>
      </trkpt>
      <trkpt lat="42.1343" lon="2.2409">
        <ele>856.7</ele>
        <time>2018-11-26T05:12:00Z</time>
      </trkpt>
      <trkpt lat="42.13438" lon="2.24083">
        <ele>856.7</ele>
        <time>2018-11-26T05:12:04Z</time>
      </trkpt>
      <trkpt lat="42.13445" lon="2.24073">
        <ele>857.1</ele>
        <time>2018-11-26T05:12:08Z</time>
      </trkpt>
      <trkpt lat="42.1345" lon="2.24061">
        <ele>857.9</ele>
        <time>2018-11-26T05:12:12Z</time>
      </trkpt>
      <trkpt lat="42.13458" lon="2.24055">
        <ele>857.5</ele>
        <time>2018-11-26T05:12:16Z</time>
      </trkpt>
      <trkpt lat="42.13468" lon="2.24057">
        <ele>856.8</ele>
        <time>2018-11-26T05:12:19Z</time>
      </trkpt>
      <trkpt lat="42.13476" lon="2.24063">
        <ele>856</ele>
        <time>2018-11-26T05:12:23Z</time>
      </trkpt>
      <trkpt lat="42.13485" lon="2.24068">
        <ele>855.3</ele>
        <time>2018-11-26T05:12:27Z</time>
      </trkpt>
      <trkpt lat="42.13494" lon="2.24073">
        <ele>855</ele>
        <time>2018-11-26T05:12:31Z</time>
      </trkpt>
      <trkpt lat="42.13504" lon="2.24076">
        <ele>854.9</ele>
        <time>2018-11-26T05:12:35Z</time>
      </trkpt>
      <trkpt lat="42.13509" lon="2.24086">
        <ele>855</ele>
        <time>2018-11-26T05:12:39Z</time>
      </trkpt>
      <trkpt lat="42.13513" lon="2.24098">
        <ele>855.3</ele>
        <time>2018-11-26T05:12:43Z</time>
      </trkpt>
      <trkpt lat="42.1352" lon="2.24109">
        <ele>855.9</ele>
        <time>2018-11-26T05:12:47Z</time>
      </trkpt>
      <trkpt lat="42.13528" lon="2.24115">
        <ele>856.9</ele>
        <time>2018-11-26T05:12:51Z</time>
      </trkpt>
      <trkpt lat="42.13538" lon="2.24118">
        <ele>858.1</ele>
        <time>2018-11-26T05:12:55Z</time>
      </trkpt>
      <trkpt lat="42.13547" lon="2.24119">
        <ele>858.9</ele>
        <time>2018-11-26T05:12:58Z</time>
      </trkpt>
      <trkpt lat="42.13557" lon="2.24123">
        <ele>859.8</ele>
        <time>2018-11-26T05:13:02Z</time>
      </trkpt>
      <trkpt lat="42.13567" lon="2.24127">
        <ele>860.6</ele>
        <time>2018-11-26T05:13:06Z</time>
      </trkpt>
      <trkpt lat="42.13569" lon="2.24114">
        <ele>859.4</ele>
        <time>2018-11-26T05:13:10Z</time>
      </trkpt>
      <trkpt lat="42.13574" lon="2.24101">
        <ele>858.2</ele>
        <time>2018-11-26T05:13:15Z</time>
      </trkpt>
      <trkpt lat="42.1358" lon="2.24089">
        <ele>857.1</ele>
        <time>2018-11-26T05:13:19Z</time>
      </trkpt>
      <trkpt lat="42.13579" lon="2.24081">
        <ele>856.1</ele>
        <time>2018-11-26T05:13:21Z</time>
      </trkpt>
      <trkpt lat="42.13587" lon="2.24077">
        <ele>855.8</ele>
        <time>2018-11-26T05:13:25Z</time>
      </trkpt>
      <trkpt lat="42.13594" lon="2.24072">
        <ele>855.3</ele>
        <time>2018-11-26T05:13:28Z</time>
      </trkpt>
      <trkpt lat="42.13606" lon="2.24068">
        <ele>854.9</ele>
        <time>2018-11-26T05:13:33Z</time>
      </trkpt>
      <trkpt lat="42.13617" lon="2.24064">
        <ele>854.5</ele>
        <time>2018-11-26T05:13:37Z</time>
      </trkpt>
      <trkpt lat="42.13624" lon="2.24062">
        <ele>854.1</ele>
        <time>2018-11-26T05:13:40Z</time>
      </trkpt>
      <trkpt lat="42.1363" lon="2.2406">
        <ele>855.1</ele>
        <time>2018-11-26T05:13:43Z</time>
      </trkpt>
      <trkpt lat="42.13637" lon="2.24053">
        <ele>855.2</ele>
        <time>2018-11-26T05:13:46Z</time>
      </trkpt>
      <trkpt lat="42.13643" lon="2.24042">
        <ele>854.7</ele>
        <time>2018-11-26T05:13:50Z</time>
      </trkpt>
      <trkpt lat="42.13648" lon="2.24032">
        <ele>854.1</ele>
        <time>2018-11-26T05:13:54Z</time>
      </trkpt>
      <trkpt lat="42.13656" lon="2.24019">
        <ele>853.2</ele>
        <time>2018-11-26T05:13:59Z</time>
      </trkpt>
      <trkpt lat="42.13662" lon="2.24005">
        <ele>852.1</ele>
        <time>2018-11-26T05:14:04Z</time>
      </trkpt>
      <trkpt lat="42.13668" lon="2.23992">
        <ele>850.9</ele>
        <time>2018-11-26T05:14:08Z</time>
      </trkpt>
      <trkpt lat="42.13673" lon="2.2398">
        <ele>849.5</ele>
        <time>2018-11-26T05:14:12Z</time>
      </trkpt>
      <trkpt lat="42.1368" lon="2.23967">
        <ele>848.2</ele>
        <time>2018-11-26T05:14:17Z</time>
      </trkpt>
      <trkpt lat="42.13687" lon="2.23954">
        <ele>847.3</ele>
        <time>2018-11-26T05:14:22Z</time>
      </trkpt>
      <trkpt lat="42.13694" lon="2.23941">
        <ele>847.1</ele>
        <time>2018-11-26T05:14:27Z</time>
      </trkpt>
      <trkpt lat="42.13696" lon="2.23931">
        <ele>846.6</ele>
        <time>2018-11-26T05:14:30Z</time>
      </trkpt>
      <trkpt lat="42.13698" lon="2.23921">
        <ele>845.9</ele>
        <time>2018-11-26T05:14:33Z</time>
      </trkpt>
      <trkpt lat="42.137" lon="2.23904">
        <ele>844.7</ele>
        <time>2018-11-26T05:14:38Z</time>
      </trkpt>
      <trkpt lat="42.13701" lon="2.23886">
        <ele>843.4</ele>
        <time>2018-11-26T05:14:43Z</time>
      </trkpt>
      <trkpt lat="42.13702" lon="2.23872">
        <ele>842.5</ele>
        <time>2018-11-26T05:14:47Z</time>
      </trkpt>
      <trkpt lat="42.13702" lon="2.23858">
        <ele>842.9</ele>
        <time>2018-11-26T05:14:52Z</time>
      </trkpt>
      <trkpt lat="42.13702" lon="2.23845">
        <ele>843</ele>
        <time>2018-11-26T05:14:55Z</time>
      </trkpt>
      <trkpt lat="42.13702" lon="2.23832">
        <ele>843.3</ele>
        <time>2018-11-26T05:14:59Z</time>
      </trkpt>
      <trkpt lat="42.13703" lon="2.2382">
        <ele>843.5</ele>
        <time>2018-11-26T05:15:03Z</time>
      </trkpt>
      <trkpt lat="42.13702" lon="2.23806">
        <ele>843.3</ele>
        <time>2018-11-26T05:15:07Z</time>
      </trkpt>
      <trkpt lat="42.13701" lon="2.23793">
        <ele>843.2</ele>
        <time>2018-11-26T05:15:11Z</time>
      </trkpt>
      <trkpt lat="42.13698" lon="2.23783">
        <ele>842.7</ele>
        <time>2018-11-26T05:15:14Z</time>
      </trkpt>
      <trkpt lat="42.13695" lon="2.23774">
        <ele>842.3</ele>
        <time>2018-11-26T05:15:17Z</time>
      </trkpt>
      <trkpt lat="42.13692" lon="2.23765">
        <ele>841.4</ele>
        <time>2018-11-26T05:15:20Z</time>
      </trkpt>
      <trkpt lat="42.13689" lon="2.23756">
        <ele>840.8</ele>
        <time>2018-11-26T05:15:23Z</time>
      </trkpt>
      <trkpt lat="42.13685" lon="2.23745">
        <ele>839.8</ele>
        <time>2018-11-26T05:15:27Z</time>
      </trkpt>
      <trkpt lat="42.13681" lon="2.23735">
        <ele>839</ele>
        <time>2018-11-26T05:15:30Z</time>
      </trkpt>
      <trkpt lat="42.1368" lon="2.23723">
        <ele>838.8</ele>
        <time>2018-11-26T05:15:34Z</time>
      </trkpt>
      <trkpt lat="42.13678" lon="2.23711">
        <ele>838.7</ele>
        <time>2018-11-26T05:15:37Z</time>
      </trkpt>
      <trkpt lat="42.13676" lon="2.23699">
        <ele>838.6</ele>
        <time>2018-11-26T05:15:41Z</time>
      </trkpt>
      <trkpt lat="42.13675" lon="2.23687">
        <ele>838.9</ele>
        <time>2018-11-26T05:15:44Z</time>
      </trkpt>
      <trkpt lat="42.13674" lon="2.23675">
        <ele>839.2</ele>
        <time>2018-11-26T05:15:48Z</time>
      </trkpt>
      <trkpt lat="42.13674" lon="2.23663">
        <ele>839.8</ele>
        <time>2018-11-26T05:15:52Z</time>
      </trkpt>
      <trkpt lat="42.1367" lon="2.23649">
        <ele>838.7</ele>
        <time>2018-11-26T05:15:56Z</time>
      </trkpt>
      <trkpt lat="42.13666" lon="2.23636">
        <ele>837.7</ele>
        <time>2018-11-26T05:16:00Z</time>
      </trkpt>
      <trkpt lat="42.13663" lon="2.23623">
        <ele>836.7</ele>
        <time>2018-11-26T05:16:04Z</time>
      </trkpt>
      <trkpt lat="42.13659" lon="2.23609">
        <ele>835.3</ele>
        <time>2018-11-26T05:16:09Z</time>
      </trkpt>
      <trkpt lat="42.13656" lon="2.23595">
        <ele>833.8</ele>
        <time>2018-11-26T05:16:13Z</time>
      </trkpt>
      <trkpt lat="42.13652" lon="2.23581">
        <ele>832.1</ele>
        <time>2018-11-26T05:16:17Z</time>
      </trkpt>
      <trkpt lat="42.13649" lon="2.23567">
        <ele>830.4</ele>
        <time>2018-11-26T05:16:22Z</time>
      </trkpt>
      <trkpt lat="42.13645" lon="2.2355">
        <ele>828.6</ele>
        <time>2018-11-26T05:16:27Z</time>
      </trkpt>
      <trkpt lat="42.13641" lon="2.23533">
        <ele>826.6</ele>
        <time>2018-11-26T05:16:32Z</time>
      </trkpt>
      <trkpt lat="42.1364" lon="2.2352">
        <ele>825.8</ele>
        <time>2018-11-26T05:16:36Z</time>
      </trkpt>
      <trkpt lat="42.13638" lon="2.23506">
        <ele>825</ele>
        <time>2018-11-26T05:16:40Z</time>
      </trkpt>
      <trkpt lat="42.1364" lon="2.23492">
        <ele>825.6</ele>
        <time>2018-11-26T05:16:44Z</time>
      </trkpt>
      <trkpt lat="42.13641" lon="2.23479">
        <ele>826.2</ele>
        <time>2018-11-26T05:16:48Z</time>
      </trkpt>
      <trkpt lat="42.13639" lon="2.23465">
        <ele>825.1</ele>
        <time>2018-11-26T05:16:53Z</time>
      </trkpt>
      <trkpt lat="42.13636" lon="2.2345">
        <ele>824.2</ele>
        <time>2018-11-26T05:16:57Z</time>
      </trkpt>
      <trkpt lat="42.13633" lon="2.23434">
        <ele>823.1</ele>
        <time>2018-11-26T05:17:02Z</time>
      </trkpt>
      <trkpt lat="42.13631" lon="2.23417">
        <ele>822.3</ele>
        <time>2018-11-26T05:17:07Z</time>
      </trkpt>
      <trkpt lat="42.13629" lon="2.23405">
        <ele>821.8</ele>
        <time>2018-11-26T05:17:11Z</time>
      </trkpt>
      <trkpt lat="42.13631" lon="2.23398">
        <ele>822.3</ele>
        <time>2018-11-26T05:17:13Z</time>
      </trkpt>
      <trkpt lat="42.13636" lon="2.2339">
        <ele>823.9</ele>
        <time>2018-11-26T05:17:17Z</time>
      </trkpt>
      <trkpt lat="42.13642" lon="2.23381">
        <ele>825.3</ele>
        <time>2018-11-26T05:17:20Z</time>
      </trkpt>
      <trkpt lat="42.13648" lon="2.23371">
        <ele>826.6</ele>
        <time>2018-11-26T05:17:24Z</time>
      </trkpt>
      <trkpt lat="42.1365" lon="2.23362">
        <ele>827.7</ele>
        <time>2018-11-26T05:17:27Z</time>
      </trkpt>
      <trkpt lat="42.13653" lon="2.23352">
        <ele>828.6</ele>
        <time>2018-11-26T05:17:30Z</time>
      </trkpt>
      <trkpt lat="42.13654" lon="2.2334">
        <ele>829.3</ele>
        <time>2018-11-26T05:17:33Z</time>
      </trkpt>
      <trkpt lat="42.13656" lon="2.23329">
        <ele>830.1</ele>
        <time>2018-11-26T05:17:37Z</time>
      </trkpt>
      <trkpt lat="42.13655" lon="2.23314">
        <ele>830.7</ele>
        <time>2018-11-26T05:17:41Z</time>
      </trkpt>
      <trkpt lat="42.13658" lon="2.23305">
        <ele>831.4</ele>
        <time>2018-11-26T05:17:44Z</time>
      </trkpt>
      <trkpt lat="42.1366" lon="2.23296">
        <ele>832.2</ele>
        <time>2018-11-26T05:17:47Z</time>
      </trkpt>
      <trkpt lat="42.13664" lon="2.23287">
        <ele>833.7</ele>
        <time>2018-11-26T05:17:50Z</time>
      </trkpt>
      <trkpt lat="42.13668" lon="2.23278">
        <ele>835.3</ele>
        <time>2018-11-26T05:17:53Z</time>
      </trkpt>
      <trkpt lat="42.13669" lon="2.23266">
        <ele>837.1</ele>
        <time>2018-11-26T05:17:57Z</time>
      </trkpt>
      <trkpt lat="42.1367" lon="2.23254">
        <ele>838.7</ele>
        <time>2018-11-26T05:18:00Z</time>
      </trkpt>
      <trkpt lat="42.13672" lon="2.23243">
        <ele>840.3</ele>
        <time>2018-11-26T05:18:04Z</time>
      </trkpt>
      <trkpt lat="42.13673" lon="2.23232">
        <ele>841.7</ele>
        <time>2018-11-26T05:18:07Z</time>
      </trkpt>
      <trkpt lat="42.13678" lon="2.23224">
        <ele>843.2</ele>
        <time>2018-11-26T05:18:10Z</time>
      </trkpt>
      <trkpt lat="42.13681" lon="2.23216">
        <ele>844.6</ele>
        <time>2018-11-26T05:18:12Z</time>
      </trkpt>
      <trkpt lat="42.13684" lon="2.23207">
        <ele>845.8</ele>
        <time>2018-11-26T05:18:15Z</time>
      </trkpt>
      <trkpt lat="42.13687" lon="2.23199">
        <ele>846</ele>
        <time>2018-11-26T05:18:18Z</time>
      </trkpt>
      <trkpt lat="42.13687" lon="2.23186">
        <ele>845.7</ele>
        <time>2018-11-26T05:18:22Z</time>
      </trkpt>
      <trkpt lat="42.13688" lon="2.23174">
        <ele>845.5</ele>
        <time>2018-11-26T05:18:26Z</time>
      </trkpt>
      <trkpt lat="42.13687" lon="2.23159">
        <ele>845</ele>
        <time>2018-11-26T05:18:30Z</time>
      </trkpt>
      <trkpt lat="42.13686" lon="2.23144">
        <ele>844.7</ele>
        <time>2018-11-26T05:18:34Z</time>
      </trkpt>
      <trkpt lat="42.13686" lon="2.2313">
        <ele>844.2</ele>
        <time>2018-11-26T05:18:38Z</time>
      </trkpt>
      <trkpt lat="42.13685" lon="2.23115">
        <ele>842.4</ele>
        <time>2018-11-26T05:18:43Z</time>
      </trkpt>
      <trkpt lat="42.13686" lon="2.231">
        <ele>840</ele>
        <time>2018-11-26T05:18:47Z</time>
      </trkpt>
      <trkpt lat="42.13693" lon="2.2309">
        <ele>839.1</ele>
        <time>2018-11-26T05:18:51Z</time>
      </trkpt>
      <trkpt lat="42.13699" lon="2.23083">
        <ele>838.7</ele>
        <time>2018-11-26T05:18:55Z</time>
      </trkpt>
      <trkpt lat="42.13705" lon="2.23075">
        <ele>838.3</ele>
        <time>2018-11-26T05:18:58Z</time>
      </trkpt>
      <trkpt lat="42.13714" lon="2.23065">
        <ele>838</ele>
        <time>2018-11-26T05:19:03Z</time>
      </trkpt>
      <trkpt lat="42.13722" lon="2.23051">
        <ele>836.6</ele>
        <time>2018-11-26T05:19:08Z</time>
      </trkpt>
      <trkpt lat="42.13725" lon="2.23041">
        <ele>835.4</ele>
        <time>2018-11-26T05:19:11Z</time>
      </trkpt>
      <trkpt lat="42.13729" lon="2.2303">
        <ele>834.4</ele>
        <time>2018-11-26T05:19:15Z</time>
      </trkpt>
      <trkpt lat="42.13732" lon="2.23022">
        <ele>833.8</ele>
        <time>2018-11-26T05:19:17Z</time>
      </trkpt>
      <trkpt lat="42.13734" lon="2.23013">
        <ele>833</ele>
        <time>2018-11-26T05:19:20Z</time>
      </trkpt>
      <trkpt lat="42.13733" lon="2.23004">
        <ele>831.7</ele>
        <time>2018-11-26T05:19:23Z</time>
      </trkpt>
      <trkpt lat="42.13726" lon="2.23039">
        <ele>841.4</ele>
        <time>2018-11-26T06:00:40Z</time>
      </trkpt>
      <trkpt lat="42.13729" lon="2.23026">
        <ele>840.6</ele>
        <time>2018-11-26T06:00:43Z</time>
      </trkpt>
      <trkpt lat="42.13733" lon="2.23012">
        <ele>840.4</ele>
        <time>2018-11-26T06:00:48Z</time>
      </trkpt>
      <trkpt lat="42.13742" lon="2.23003">
        <ele>840.3</ele>
        <time>2018-11-26T06:00:52Z</time>
      </trkpt>
      <trkpt lat="42.13751" lon="2.23">
        <ele>839.5</ele>
        <time>2018-11-26T06:00:56Z</time>
      </trkpt>
      <trkpt lat="42.13761" lon="2.22994">
        <ele>838.3</ele>
        <time>2018-11-26T06:01:00Z</time>
      </trkpt>
      <trkpt lat="42.1377" lon="2.22989">
        <ele>837.1</ele>
        <time>2018-11-26T06:01:04Z</time>
      </trkpt>
      <trkpt lat="42.1378" lon="2.22983">
        <ele>834.2</ele>
        <time>2018-11-26T06:01:09Z</time>
      </trkpt>
      <trkpt lat="42.1379" lon="2.22982">
        <ele>832.5</ele>
        <time>2018-11-26T06:01:13Z</time>
      </trkpt>
      <trkpt lat="42.138" lon="2.2298">
        <ele>830.7</ele>
        <time>2018-11-26T06:01:17Z</time>
      </trkpt>
      <trkpt lat="42.1381" lon="2.22978">
        <ele>828.8</ele>
        <time>2018-11-26T06:01:21Z</time>
      </trkpt>
      <trkpt lat="42.13819" lon="2.22976">
        <ele>828.8</ele>
        <time>2018-11-26T06:01:25Z</time>
      </trkpt>
      <trkpt lat="42.13829" lon="2.22976">
        <ele>828.8</ele>
        <time>2018-11-26T06:01:28Z</time>
      </trkpt>
      <trkpt lat="42.1384" lon="2.2298">
        <ele>827.6</ele>
        <time>2018-11-26T06:01:33Z</time>
      </trkpt>
      <trkpt lat="42.13849" lon="2.22984">
        <ele>828.6</ele>
        <time>2018-11-26T06:01:37Z</time>
      </trkpt>
      <trkpt lat="42.1386" lon="2.22986">
        <ele>828.8</ele>
        <time>2018-11-26T06:01:41Z</time>
      </trkpt>
      <trkpt lat="42.1387" lon="2.22988">
        <ele>829</ele>
        <time>2018-11-26T06:01:45Z</time>
      </trkpt>
      <trkpt lat="42.13878" lon="2.22992">
        <ele>828.5</ele>
        <time>2018-11-26T06:01:49Z</time>
      </trkpt>
      <trkpt lat="42.13888" lon="2.22996">
        <ele>829.3</ele>
        <time>2018-11-26T06:01:53Z</time>
      </trkpt>
      <trkpt lat="42.13898" lon="2.22996">
        <ele>829</ele>
        <time>2018-11-26T06:01:57Z</time>
      </trkpt>
      <trkpt lat="42.13908" lon="2.22992">
        <ele>828</ele>
        <time>2018-11-26T06:02:01Z</time>
      </trkpt>
      <trkpt lat="42.13918" lon="2.22991">
        <ele>828.2</ele>
        <time>2018-11-26T06:02:05Z</time>
      </trkpt>
      <trkpt lat="42.13929" lon="2.2299">
        <ele>829.2</ele>
        <time>2018-11-26T06:02:09Z</time>
      </trkpt>
      <trkpt lat="42.13937" lon="2.22996">
        <ele>829.5</ele>
        <time>2018-11-26T06:02:13Z</time>
      </trkpt>
      <trkpt lat="42.13945" lon="2.23005">
        <ele>829.5</ele>
        <time>2018-11-26T06:02:17Z</time>
      </trkpt>
      <trkpt lat="42.1395" lon="2.23016">
        <ele>831.2</ele>
        <time>2018-11-26T06:02:21Z</time>
      </trkpt>
      <trkpt lat="42.13958" lon="2.23027">
        <ele>831</ele>
        <time>2018-11-26T06:02:26Z</time>
      </trkpt>
      <trkpt lat="42.13966" lon="2.23037">
        <ele>832.2</ele>
        <time>2018-11-26T06:02:30Z</time>
      </trkpt>
      <trkpt lat="42.13974" lon="2.23045">
        <ele>832.3</ele>
        <time>2018-11-26T06:02:34Z</time>
      </trkpt>
      <trkpt lat="42.13974" lon="2.23059">
        <ele>833.5</ele>
        <time>2018-11-26T06:02:38Z</time>
      </trkpt>
      <trkpt lat="42.1397" lon="2.2307">
        <ele>835.5</ele>
        <time>2018-11-26T06:02:42Z</time>
      </trkpt>
      <trkpt lat="42.13968" lon="2.23083">
        <ele>836.4</ele>
        <time>2018-11-26T06:02:46Z</time>
      </trkpt>
      <trkpt lat="42.13967" lon="2.23097">
        <ele>837.7</ele>
        <time>2018-11-26T06:02:50Z</time>
      </trkpt>
      <trkpt lat="42.13972" lon="2.23108">
        <ele>838.8</ele>
        <time>2018-11-26T06:02:54Z</time>
      </trkpt>
      <trkpt lat="42.13976" lon="2.2312">
        <ele>841.5</ele>
        <time>2018-11-26T06:02:58Z</time>
      </trkpt>
      <trkpt lat="42.13977" lon="2.23133">
        <ele>843.1</ele>
        <time>2018-11-26T06:03:01Z</time>
      </trkpt>
      <trkpt lat="42.13978" lon="2.23146">
        <ele>843.7</ele>
        <time>2018-11-26T06:03:05Z</time>
      </trkpt>
      <trkpt lat="42.13981" lon="2.23157">
        <ele>845.2</ele>
        <time>2018-11-26T06:03:09Z</time>
      </trkpt>
      <trkpt lat="42.13987" lon="2.23167">
        <ele>847</ele>
        <time>2018-11-26T06:03:13Z</time>
      </trkpt>
      <trkpt lat="42.13988" lon="2.23179">
        <ele>848</ele>
        <time>2018-11-26T06:03:16Z</time>
      </trkpt>
      <trkpt lat="42.13984" lon="2.23192">
        <ele>850.5</ele>
        <time>2018-11-26T06:03:20Z</time>
      </trkpt>
      <trkpt lat="42.1398" lon="2.23204">
        <ele>850.8</ele>
        <time>2018-11-26T06:03:24Z</time>
      </trkpt>
      <trkpt lat="42.13977" lon="2.23216">
        <ele>852.7</ele>
        <time>2018-11-26T06:03:28Z</time>
      </trkpt>
      <trkpt lat="42.13974" lon="2.23229">
        <ele>853.2</ele>
        <time>2018-11-26T06:03:32Z</time>
      </trkpt>
      <trkpt lat="42.1397" lon="2.23242">
        <ele>855</ele>
        <time>2018-11-26T06:03:36Z</time>
      </trkpt>
      <trkpt lat="42.13967" lon="2.23256">
        <ele>855.3</ele>
        <time>2018-11-26T06:03:41Z</time>
      </trkpt>
      <trkpt lat="42.13959" lon="2.23266">
        <ele>856.3</ele>
        <time>2018-11-26T06:03:45Z</time>
      </trkpt>
      <trkpt lat="42.13953" lon="2.23276">
        <ele>856.7</ele>
        <time>2018-11-26T06:03:49Z</time>
      </trkpt>
      <trkpt lat="42.13953" lon="2.23291">
        <ele>855.5</ele>
        <time>2018-11-26T06:03:53Z</time>
      </trkpt>
      <trkpt lat="42.13953" lon="2.23305">
        <ele>854.4</ele>
        <time>2018-11-26T06:03:57Z</time>
      </trkpt>
      <trkpt lat="42.1395" lon="2.23319">
        <ele>853.5</ele>
        <time>2018-11-26T06:04:02Z</time>
      </trkpt>
      <trkpt lat="42.13946" lon="2.23331">
        <ele>853.5</ele>
        <time>2018-11-26T06:04:05Z</time>
      </trkpt>
      <trkpt lat="42.13938" lon="2.2334">
        <ele>853.3</ele>
        <time>2018-11-26T06:04:10Z</time>
      </trkpt>
      <trkpt lat="42.13927" lon="2.23341">
        <ele>852.1</ele>
        <time>2018-11-26T06:04:14Z</time>
      </trkpt>
      <trkpt lat="42.1392" lon="2.23351">
        <ele>856.1</ele>
        <time>2018-11-26T06:04:18Z</time>
      </trkpt>
      <trkpt lat="42.13915" lon="2.23362">
        <ele>858</ele>
        <time>2018-11-26T06:04:22Z</time>
      </trkpt>
      <trkpt lat="42.13908" lon="2.23371">
        <ele>859.4</ele>
        <time>2018-11-26T06:04:26Z</time>
      </trkpt>
      <trkpt lat="42.13905" lon="2.23382">
        <ele>863.1</ele>
        <time>2018-11-26T06:04:29Z</time>
      </trkpt>
      <trkpt lat="42.13906" lon="2.23395">
        <ele>865.5</ele>
        <time>2018-11-26T06:04:33Z</time>
      </trkpt>
      <trkpt lat="42.13903" lon="2.23407">
        <ele>869.5</ele>
        <time>2018-11-26T06:04:37Z</time>
      </trkpt>
      <trkpt lat="42.13898" lon="2.23417">
        <ele>873.6</ele>
        <time>2018-11-26T06:04:41Z</time>
      </trkpt>
      <trkpt lat="42.13889" lon="2.23426">
        <ele>872.7</ele>
        <time>2018-11-26T06:04:45Z</time>
      </trkpt>
      <trkpt lat="42.13883" lon="2.23435">
        <ele>873.2</ele>
        <time>2018-11-26T06:04:49Z</time>
      </trkpt>
      <trkpt lat="42.13884" lon="2.23449">
        <ele>877.2</ele>
        <time>2018-11-26T06:04:53Z</time>
      </trkpt>
      <trkpt lat="42.13882" lon="2.23462">
        <ele>879.6</ele>
        <time>2018-11-26T06:04:57Z</time>
      </trkpt>
      <trkpt lat="42.13872" lon="2.23463">
        <ele>882.5</ele>
        <time>2018-11-26T06:05:00Z</time>
      </trkpt>
      <trkpt lat="42.1387" lon="2.23475">
        <ele>883.3</ele>
        <time>2018-11-26T06:05:04Z</time>
      </trkpt>
      <trkpt lat="42.13863" lon="2.23483">
        <ele>890.4</ele>
        <time>2018-11-26T06:05:08Z</time>
      </trkpt>
      <trkpt lat="42.13857" lon="2.23493">
        <ele>893.2</ele>
        <time>2018-11-26T06:05:12Z</time>
      </trkpt>
      <trkpt lat="42.13851" lon="2.23503">
        <ele>895.5</ele>
        <time>2018-11-26T06:05:16Z</time>
      </trkpt>
      <trkpt lat="42.13841" lon="2.23508">
        <ele>896.5</ele>
        <time>2018-11-26T06:05:20Z</time>
      </trkpt>
      <trkpt lat="42.13846" lon="2.23495">
        <ele>901.1</ele>
        <time>2018-11-26T06:05:24Z</time>
      </trkpt>
      <trkpt lat="42.13838" lon="2.23503">
        <ele>904.1</ele>
        <time>2018-11-26T06:05:27Z</time>
      </trkpt>
      <trkpt lat="42.13827" lon="2.23507">
        <ele>903.7</ele>
        <time>2018-11-26T06:05:32Z</time>
      </trkpt>
      <trkpt lat="42.13823" lon="2.23522">
        <ele>905</ele>
        <time>2018-11-26T06:05:37Z</time>
      </trkpt>
      <trkpt lat="42.13816" lon="2.23535">
        <ele>905.5</ele>
        <time>2018-11-26T06:05:42Z</time>
      </trkpt>
      <trkpt lat="42.13814" lon="2.23548">
        <ele>904.1</ele>
        <time>2018-11-26T06:05:45Z</time>
      </trkpt>
      <trkpt lat="42.13817" lon="2.2356">
        <ele>904.3</ele>
        <time>2018-11-26T06:05:49Z</time>
      </trkpt>
      <trkpt lat="42.13824" lon="2.23569">
        <ele>906</ele>
        <time>2018-11-26T06:05:53Z</time>
      </trkpt>
      <trkpt lat="42.13824" lon="2.23584">
        <ele>907.2</ele>
        <time>2018-11-26T06:05:57Z</time>
      </trkpt>
      <trkpt lat="42.13826" lon="2.23597">
        <ele>905.2</ele>
        <time>2018-11-26T06:06:01Z</time>
      </trkpt>
      <trkpt lat="42.13825" lon="2.23609">
        <ele>906.4</ele>
        <time>2018-11-26T06:06:05Z</time>
      </trkpt>
      <trkpt lat="42.13822" lon="2.23621">
        <ele>908.7</ele>
        <time>2018-11-26T06:06:09Z</time>
      </trkpt>
      <trkpt lat="42.13826" lon="2.23632">
        <ele>911.2</ele>
        <time>2018-11-26T06:06:12Z</time>
      </trkpt>
      <trkpt lat="42.1382" lon="2.23642">
        <ele>913.1</ele>
        <time>2018-11-26T06:06:16Z</time>
      </trkpt>
      <trkpt lat="42.13821" lon="2.23654">
        <ele>914.7</ele>
        <time>2018-11-26T06:06:20Z</time>
      </trkpt>
      <trkpt lat="42.13825" lon="2.23665">
        <ele>916.6</ele>
        <time>2018-11-26T06:06:23Z</time>
      </trkpt>
      <trkpt lat="42.13828" lon="2.23678">
        <ele>919.1</ele>
        <time>2018-11-26T06:06:27Z</time>
      </trkpt>
      <trkpt lat="42.13826" lon="2.2369">
        <ele>922.1</ele>
        <time>2018-11-26T06:06:31Z</time>
      </trkpt>
      <trkpt lat="42.13824" lon="2.23703">
        <ele>923.7</ele>
        <time>2018-11-26T06:06:35Z</time>
      </trkpt>
      <trkpt lat="42.13818" lon="2.23713">
        <ele>924.5</ele>
        <time>2018-11-26T06:06:39Z</time>
      </trkpt>
      <trkpt lat="42.13814" lon="2.23725">
        <ele>923.2</ele>
        <time>2018-11-26T06:06:43Z</time>
      </trkpt>
      <trkpt lat="42.13815" lon="2.23741">
        <ele>920.5</ele>
        <time>2018-11-26T06:06:47Z</time>
      </trkpt>
      <trkpt lat="42.13817" lon="2.23754">
        <ele>918.2</ele>
        <time>2018-11-26T06:06:51Z</time>
      </trkpt>
      <trkpt lat="42.13819" lon="2.23767">
        <ele>917.1</ele>
        <time>2018-11-26T06:06:55Z</time>
      </trkpt>
      <trkpt lat="42.13827" lon="2.23779">
        <ele>916.7</ele>
        <time>2018-11-26T06:07:00Z</time>
      </trkpt>
      <trkpt lat="42.13829" lon="2.23793">
        <ele>916.1</ele>
        <time>2018-11-26T06:07:04Z</time>
      </trkpt>
      <trkpt lat="42.13828" lon="2.23806">
        <ele>915.7</ele>
        <time>2018-11-26T06:07:08Z</time>
      </trkpt>
      <trkpt lat="42.13829" lon="2.23818">
        <ele>918.4</ele>
        <time>2018-11-26T06:07:12Z</time>
      </trkpt>
      <trkpt lat="42.1383" lon="2.23831">
        <ele>920.5</ele>
        <time>2018-11-26T06:07:16Z</time>
      </trkpt>
      <trkpt lat="42.13833" lon="2.23843">
        <ele>921.6</ele>
        <time>2018-11-26T06:07:19Z</time>
      </trkpt>
      <trkpt lat="42.13832" lon="2.23855">
        <ele>922.1</ele>
        <time>2018-11-26T06:07:23Z</time>
      </trkpt>
      <trkpt lat="42.13828" lon="2.23867">
        <ele>921.6</ele>
        <time>2018-11-26T06:07:27Z</time>
      </trkpt>
      <trkpt lat="42.13827" lon="2.23882">
        <ele>921</ele>
        <time>2018-11-26T06:07:31Z</time>
      </trkpt>
      <trkpt lat="42.13832" lon="2.23896">
        <ele>922.4</ele>
        <time>2018-11-26T06:07:36Z</time>
      </trkpt>
      <trkpt lat="42.1384" lon="2.23903">
        <ele>917.5</ele>
        <time>2018-11-26T06:07:40Z</time>
      </trkpt>
      <trkpt lat="42.13845" lon="2.23913">
        <ele>915.3</ele>
        <time>2018-11-26T06:07:43Z</time>
      </trkpt>
      <trkpt lat="42.1385" lon="2.23925">
        <ele>912.5</ele>
        <time>2018-11-26T06:07:48Z</time>
      </trkpt>
      <trkpt lat="42.13853" lon="2.23939">
        <ele>910</ele>
        <time>2018-11-26T06:07:52Z</time>
      </trkpt>
      <trkpt lat="42.13856" lon="2.23951">
        <ele>907.1</ele>
        <time>2018-11-26T06:07:56Z</time>
      </trkpt>
      <trkpt lat="42.13854" lon="2.23965">
        <ele>904</ele>
        <time>2018-11-26T06:08:00Z</time>
      </trkpt>
      <trkpt lat="42.13854" lon="2.23978">
        <ele>901.2</ele>
        <time>2018-11-26T06:08:04Z</time>
      </trkpt>
      <trkpt lat="42.13859" lon="2.23992">
        <ele>899.8</ele>
        <time>2018-11-26T06:08:08Z</time>
      </trkpt>
      <trkpt lat="42.13862" lon="2.24003">
        <ele>897.1</ele>
        <time>2018-11-26T06:08:12Z</time>
      </trkpt>
      <trkpt lat="42.13865" lon="2.24015">
        <ele>894.4</ele>
        <time>2018-11-26T06:08:16Z</time>
      </trkpt>
      <trkpt lat="42.1387" lon="2.24028">
        <ele>892.7</ele>
        <time>2018-11-26T06:08:20Z</time>
      </trkpt>
      <trkpt lat="42.13874" lon="2.24017">
        <ele>885</ele>
        <time>2018-11-26T06:08:24Z</time>
      </trkpt>
      <trkpt lat="42.13881" lon="2.24006">
        <ele>876.3</ele>
        <time>2018-11-26T06:08:28Z</time>
      </trkpt>
      <trkpt lat="42.13891" lon="2.24001">
        <ele>870.5</ele>
        <time>2018-11-26T06:08:32Z</time>
      </trkpt>
      <trkpt lat="42.13899" lon="2.23991">
        <ele>867.3</ele>
        <time>2018-11-26T06:08:37Z</time>
      </trkpt>
      <trkpt lat="42.13907" lon="2.23983">
        <ele>864.3</ele>
        <time>2018-11-26T06:08:41Z</time>
      </trkpt>
      <trkpt lat="42.13914" lon="2.23972">
        <ele>861</ele>
        <time>2018-11-26T06:08:45Z</time>
      </trkpt>
      <trkpt lat="42.1392" lon="2.23959">
        <ele>859.5</ele>
        <time>2018-11-26T06:08:49Z</time>
      </trkpt>
      <trkpt lat="42.13925" lon="2.23947">
        <ele>857.4</ele>
        <time>2018-11-26T06:08:54Z</time>
      </trkpt>
      <trkpt lat="42.13933" lon="2.23956">
        <ele>854.8</ele>
        <time>2018-11-26T06:08:58Z</time>
      </trkpt>
      <trkpt lat="42.13933" lon="2.2397">
        <ele>851.3</ele>
        <time>2018-11-26T06:09:02Z</time>
      </trkpt>
      <trkpt lat="42.13929" lon="2.23983">
        <ele>849.5</ele>
        <time>2018-11-26T06:09:06Z</time>
      </trkpt>
      <trkpt lat="42.13926" lon="2.23996">
        <ele>846</ele>
        <time>2018-11-26T06:09:10Z</time>
      </trkpt>
      <trkpt lat="42.13931" lon="2.24006">
        <ele>843.5</ele>
        <time>2018-11-26T06:09:14Z</time>
      </trkpt>
      <trkpt lat="42.1394" lon="2.24014">
        <ele>839.7</ele>
        <time>2018-11-26T06:09:18Z</time>
      </trkpt>
      <trkpt lat="42.13946" lon="2.24024">
        <ele>838.1</ele>
        <time>2018-11-26T06:09:22Z</time>
      </trkpt>
      <trkpt lat="42.13955" lon="2.24024">
        <ele>832.5</ele>
        <time>2018-11-26T06:09:25Z</time>
      </trkpt>
      <trkpt lat="42.13961" lon="2.24012">
        <ele>828.4</ele>
        <time>2018-11-26T06:09:29Z</time>
      </trkpt>
      <trkpt lat="42.13967" lon="2.24002">
        <ele>822.1</ele>
        <time>2018-11-26T06:09:33Z</time>
      </trkpt>
      <trkpt lat="42.13974" lon="2.23993">
        <ele>818</ele>
        <time>2018-11-26T06:09:37Z</time>
      </trkpt>
      <trkpt lat="42.13981" lon="2.23985">
        <ele>814.1</ele>
        <time>2018-11-26T06:09:41Z</time>
      </trkpt>
      <trkpt lat="42.13987" lon="2.23977">
        <ele>810.7</ele>
        <time>2018-11-26T06:09:44Z</time>
      </trkpt>
      <trkpt lat="42.13996" lon="2.2397">
        <ele>809.3</ele>
        <time>2018-11-26T06:09:48Z</time>
      </trkpt>
      <trkpt lat="42.14005" lon="2.23965">
        <ele>805</ele>
        <time>2018-11-26T06:09:52Z</time>
      </trkpt>
      <trkpt lat="42.14014" lon="2.23959">
        <ele>802</ele>
        <time>2018-11-26T06:09:56Z</time>
      </trkpt>
      <trkpt lat="42.14025" lon="2.23967">
        <ele>799.2</ele>
        <time>2018-11-26T06:10:01Z</time>
      </trkpt>
      <trkpt lat="42.14034" lon="2.23972">
        <ele>797.1</ele>
        <time>2018-11-26T06:10:05Z</time>
      </trkpt>
      <trkpt lat="42.14044" lon="2.23971">
        <ele>793.7</ele>
        <time>2018-11-26T06:10:09Z</time>
      </trkpt>
      <trkpt lat="42.14054" lon="2.23972">
        <ele>791.3</ele>
        <time>2018-11-26T06:10:13Z</time>
      </trkpt>
      <trkpt lat="42.14064" lon="2.23974">
        <ele>790.7</ele>
        <time>2018-11-26T06:10:17Z</time>
      </trkpt>
      <trkpt lat="42.14074" lon="2.23975">
        <ele>789</ele>
        <time>2018-11-26T06:10:21Z</time>
      </trkpt>
      <trkpt lat="42.14082" lon="2.23979">
        <ele>787.2</ele>
        <time>2018-11-26T06:10:25Z</time>
      </trkpt>
      <trkpt lat="42.14093" lon="2.23977">
        <ele>784.5</ele>
        <time>2018-11-26T06:10:29Z</time>
      </trkpt>
      <trkpt lat="42.14104" lon="2.23975">
        <ele>782.6</ele>
        <time>2018-11-26T06:10:34Z</time>
      </trkpt>
      <trkpt lat="42.14114" lon="2.23972">
        <ele>780.5</ele>
        <time>2018-11-26T06:10:38Z</time>
      </trkpt>
      <trkpt lat="42.14123" lon="2.23971">
        <ele>780.5</ele>
        <time>2018-11-26T06:10:41Z</time>
      </trkpt>
      <trkpt lat="42.14132" lon="2.23965">
        <ele>778.7</ele>
        <time>2018-11-26T06:10:45Z</time>
      </trkpt>
      <trkpt lat="42.14142" lon="2.23965">
        <ele>776.2</ele>
        <time>2018-11-26T06:10:50Z</time>
      </trkpt>
      <trkpt lat="42.14152" lon="2.23965">
        <ele>775.5</ele>
        <time>2018-11-26T06:10:54Z</time>
      </trkpt>
      <trkpt lat="42.14162" lon="2.23965">
        <ele>773.8</ele>
        <time>2018-11-26T06:10:57Z</time>
      </trkpt>
      <trkpt lat="42.14172" lon="2.23958">
        <ele>773.2</ele>
        <time>2018-11-26T06:11:02Z</time>
      </trkpt>
      <trkpt lat="42.14181" lon="2.23955">
        <ele>771.4</ele>
        <time>2018-11-26T06:11:06Z</time>
      </trkpt>
      <trkpt lat="42.1419" lon="2.23947">
        <ele>770</ele>
        <time>2018-11-26T06:11:10Z</time>
      </trkpt>
      <trkpt lat="42.14196" lon="2.23935">
        <ele>767.3</ele>
        <time>2018-11-26T06:11:14Z</time>
      </trkpt>
      <trkpt lat="42.14203" lon="2.23925">
        <ele>766.7</ele>
        <time>2018-11-26T06:11:18Z</time>
      </trkpt>
      <trkpt lat="42.14206" lon="2.23912">
        <ele>764.8</ele>
        <time>2018-11-26T06:11:22Z</time>
      </trkpt>
      <trkpt lat="42.14211" lon="2.239">
        <ele>764</ele>
        <time>2018-11-26T06:11:26Z</time>
      </trkpt>
      <trkpt lat="42.14219" lon="2.23891">
        <ele>764.2</ele>
        <time>2018-11-26T06:11:30Z</time>
      </trkpt>
      <trkpt lat="42.14228" lon="2.23886">
        <ele>764.2</ele>
        <time>2018-11-26T06:11:34Z</time>
      </trkpt>
      <trkpt lat="42.14235" lon="2.23878">
        <ele>762.4</ele>
        <time>2018-11-26T06:11:38Z</time>
      </trkpt>
      <trkpt lat="42.14241" lon="2.23867">
        <ele>759.3</ele>
        <time>2018-11-26T06:11:42Z</time>
      </trkpt>
      <trkpt lat="42.14251" lon="2.23867">
        <ele>756.6</ele>
        <time>2018-11-26T06:11:46Z</time>
      </trkpt>
      <trkpt lat="42.14256" lon="2.23855">
        <ele>753.8</ele>
        <time>2018-11-26T06:11:50Z</time>
      </trkpt>
      <trkpt lat="42.14261" lon="2.23845">
        <ele>752.4</ele>
        <time>2018-11-26T06:11:54Z</time>
      </trkpt>
      <trkpt lat="42.14267" lon="2.23833">
        <ele>751.8</ele>
        <time>2018-11-26T06:11:58Z</time>
      </trkpt>
      <trkpt lat="42.14272" lon="2.23823">
        <ele>750.4</ele>
        <time>2018-11-26T06:12:02Z</time>
      </trkpt>
      <trkpt lat="42.14282" lon="2.23818">
        <ele>750.2</ele>
        <time>2018-11-26T06:12:06Z</time>
      </trkpt>
      <trkpt lat="42.14291" lon="2.23819">
        <ele>750.5</ele>
        <time>2018-11-26T06:12:10Z</time>
      </trkpt>
      <trkpt lat="42.14301" lon="2.23822">
        <ele>750.4</ele>
        <time>2018-11-26T06:12:13Z</time>
      </trkpt>
      <trkpt lat="42.14309" lon="2.23828">
        <ele>748.5</ele>
        <time>2018-11-26T06:12:17Z</time>
      </trkpt>
      <trkpt lat="42.1432" lon="2.23828">
        <ele>749.2</ele>
        <time>2018-11-26T06:12:22Z</time>
      </trkpt>
      <trkpt lat="42.1433" lon="2.23825">
        <ele>747.5</ele>
        <time>2018-11-26T06:12:26Z</time>
      </trkpt>
      <trkpt lat="42.14341" lon="2.23826">
        <ele>747.3</ele>
        <time>2018-11-26T06:12:30Z</time>
      </trkpt>
      <trkpt lat="42.14351" lon="2.23826">
        <ele>746.2</ele>
        <time>2018-11-26T06:12:34Z</time>
      </trkpt>
      <trkpt lat="42.1436" lon="2.2383">
        <ele>744.3</ele>
        <time>2018-11-26T06:12:38Z</time>
      </trkpt>
      <trkpt lat="42.14369" lon="2.23836">
        <ele>743.5</ele>
        <time>2018-11-26T06:12:42Z</time>
      </trkpt>
      <trkpt lat="42.14378" lon="2.23838">
        <ele>738.5</ele>
        <time>2018-11-26T06:12:46Z</time>
      </trkpt>
      <trkpt lat="42.14388" lon="2.23844">
        <ele>736.7</ele>
        <time>2018-11-26T06:12:50Z</time>
      </trkpt>
      <trkpt lat="42.14396" lon="2.23852">
        <ele>734.1</ele>
        <time>2018-11-26T06:12:54Z</time>
      </trkpt>
      <trkpt lat="42.14405" lon="2.23857">
        <ele>731.5</ele>
        <time>2018-11-26T06:12:58Z</time>
      </trkpt>
      <trkpt lat="42.14407" lon="2.23844">
        <ele>728.6</ele>
        <time>2018-11-26T06:13:02Z</time>
      </trkpt>
      <trkpt lat="42.14417" lon="2.23846">
        <ele>723.7</ele>
        <time>2018-11-26T06:13:05Z</time>
      </trkpt>
      <trkpt lat="42.14426" lon="2.23848">
        <ele>721.5</ele>
        <time>2018-11-26T06:13:09Z</time>
      </trkpt>
      <trkpt lat="42.14432" lon="2.23858">
        <ele>720.2</ele>
        <time>2018-11-26T06:13:13Z</time>
      </trkpt>
      <trkpt lat="42.14436" lon="2.23868">
        <ele>719</ele>
        <time>2018-11-26T06:13:17Z</time>
      </trkpt>
      <trkpt lat="42.14438" lon="2.23882">
        <ele>714.5</ele>
        <time>2018-11-26T06:13:21Z</time>
      </trkpt>
      <trkpt lat="42.14432" lon="2.23893">
        <ele>714.3</ele>
        <time>2018-11-26T06:13:25Z</time>
      </trkpt>
      <trkpt lat="42.14438" lon="2.23902">
        <ele>713.3</ele>
        <time>2018-11-26T06:13:28Z</time>
      </trkpt>
      <trkpt lat="42.14434" lon="2.23913">
        <ele>714.1</ele>
        <time>2018-11-26T06:13:32Z</time>
      </trkpt>
      <trkpt lat="42.1443" lon="2.23902">
        <ele>717.9</ele>
        <time>2018-11-26T06:13:36Z</time>
      </trkpt>
      <trkpt lat="42.1443" lon="2.23915">
        <ele>721.8</ele>
        <time>2018-11-26T06:13:40Z</time>
      </trkpt>
      <trkpt lat="42.14438" lon="2.23927">
        <ele>725.6</ele>
        <time>2018-11-26T06:13:44Z</time>
      </trkpt>
      <trkpt lat="42.14443" lon="2.23938">
        <ele>727.6</ele>
        <time>2018-11-26T06:13:48Z</time>
      </trkpt>
      <trkpt lat="42.14449" lon="2.23948">
        <ele>729.2</ele>
        <time>2018-11-26T06:13:52Z</time>
      </trkpt>
      <trkpt lat="42.14446" lon="2.23961">
        <ele>729.7</ele>
        <time>2018-11-26T06:13:56Z</time>
      </trkpt>
      <trkpt lat="42.14452" lon="2.23971">
        <ele>731</ele>
        <time>2018-11-26T06:14:00Z</time>
      </trkpt>
      <trkpt lat="42.14459" lon="2.2398">
        <ele>732.5</ele>
        <time>2018-11-26T06:14:04Z</time>
      </trkpt>
      <trkpt lat="42.14463" lon="2.23992">
        <ele>734.5</ele>
        <time>2018-11-26T06:14:08Z</time>
      </trkpt>
      <trkpt lat="42.14472" lon="2.23997">
        <ele>738.1</ele>
        <time>2018-11-26T06:14:11Z</time>
      </trkpt>
      <trkpt lat="42.14478" lon="2.24007">
        <ele>739.2</ele>
        <time>2018-11-26T06:14:15Z</time>
      </trkpt>
      <trkpt lat="42.14475" lon="2.24019">
        <ele>742.5</ele>
        <time>2018-11-26T06:14:19Z</time>
      </trkpt>
      <trkpt lat="42.14469" lon="2.24029">
        <ele>746.5</ele>
        <time>2018-11-26T06:14:23Z</time>
      </trkpt>
      <trkpt lat="42.14466" lon="2.24033">
        <ele>746.8</ele>
        <time>2018-11-26T06:14:24Z</time>
      </trkpt>
      <trkpt lat="42.14473" lon="2.24042">
        <ele>749.4</ele>
        <time>2018-11-26T06:14:28Z</time>
      </trkpt>
      <trkpt lat="42.14482" lon="2.24043">
        <ele>754</ele>
        <time>2018-11-26T06:14:32Z</time>
      </trkpt>
      <trkpt lat="42.14492" lon="2.24047">
        <ele>755</ele>
        <time>2018-11-26T06:14:36Z</time>
      </trkpt>
      <trkpt lat="42.14498" lon="2.24057">
        <ele>758.5</ele>
        <time>2018-11-26T06:14:40Z</time>
      </trkpt>
      <trkpt lat="42.14505" lon="2.24064">
        <ele>759.5</ele>
        <time>2018-11-26T06:14:44Z</time>
      </trkpt>
      <trkpt lat="42.14515" lon="2.24069">
        <ele>761.4</ele>
        <time>2018-11-26T06:14:48Z</time>
      </trkpt>
      <trkpt lat="42.14525" lon="2.24075">
        <ele>762.3</ele>
        <time>2018-11-26T06:14:52Z</time>
      </trkpt>
      <trkpt lat="42.14533" lon="2.24083">
        <ele>763.8</ele>
        <time>2018-11-26T06:14:56Z</time>
      </trkpt>
      <trkpt lat="42.14542" lon="2.24088">
        <ele>764.8</ele>
        <time>2018-11-26T06:15:00Z</time>
      </trkpt>
      <trkpt lat="42.14547" lon="2.24096">
        <ele>765.7</ele>
        <time>2018-11-26T06:15:03Z</time>
      </trkpt>
      <trkpt lat="42.14549" lon="2.24097">
        <ele>767.3</ele>
        <time>2018-11-26T06:15:04Z</time>
      </trkpt>
      <trkpt lat="42.14551" lon="2.24099">
        <ele>767.2</ele>
        <time>2018-11-26T06:15:05Z</time>
      </trkpt>
      <trkpt lat="42.14554" lon="2.24101">
        <ele>767.6</ele>
        <time>2018-11-26T06:15:06Z</time>
      </trkpt>
      <trkpt lat="42.14555" lon="2.24103">
        <ele>768</ele>
        <time>2018-11-26T06:15:07Z</time>
      </trkpt>
      <trkpt lat="42.14562" lon="2.24112">
        <ele>769.8</ele>
        <time>2018-11-26T06:15:11Z</time>
      </trkpt>
      <trkpt lat="42.14569" lon="2.2412">
        <ele>772.5</ele>
        <time>2018-11-26T06:15:14Z</time>
      </trkpt>
      <trkpt lat="42.14577" lon="2.24127">
        <ele>775</ele>
        <time>2018-11-26T06:15:18Z</time>
      </trkpt>
      <trkpt lat="42.14586" lon="2.2413">
        <ele>775.4</ele>
        <time>2018-11-26T06:15:22Z</time>
      </trkpt>
      <trkpt lat="42.14595" lon="2.24132">
        <ele>776.3</ele>
        <time>2018-11-26T06:15:25Z</time>
      </trkpt>
      <trkpt lat="42.14604" lon="2.24135">
        <ele>777.3</ele>
        <time>2018-11-26T06:15:29Z</time>
      </trkpt>
      <trkpt lat="42.14613" lon="2.24137">
        <ele>778.7</ele>
        <time>2018-11-26T06:15:33Z</time>
      </trkpt>
      <trkpt lat="42.14622" lon="2.24139">
        <ele>782.6</ele>
        <time>2018-11-26T06:15:37Z</time>
      </trkpt>
      <trkpt lat="42.14632" lon="2.24143">
        <ele>786.2</ele>
        <time>2018-11-26T06:15:41Z</time>
      </trkpt>
      <trkpt lat="42.1463" lon="2.24155">
        <ele>789.2</ele>
        <time>2018-11-26T06:15:44Z</time>
      </trkpt>
      <trkpt lat="42.14623" lon="2.24165">
        <ele>792.8</ele>
        <time>2018-11-26T06:15:48Z</time>
      </trkpt>
      <trkpt lat="42.14627" lon="2.24177">
        <ele>797.6</ele>
        <time>2018-11-26T06:15:52Z</time>
      </trkpt>
      <trkpt lat="42.14637" lon="2.24178">
        <ele>800.2</ele>
        <time>2018-11-26T06:15:56Z</time>
      </trkpt>
      <trkpt lat="42.14635" lon="2.24191">
        <ele>802.5</ele>
        <time>2018-11-26T06:16:00Z</time>
      </trkpt>
      <trkpt lat="42.14632" lon="2.24202">
        <ele>804.2</ele>
        <time>2018-11-26T06:16:04Z</time>
      </trkpt>
      <trkpt lat="42.14638" lon="2.24214">
        <ele>805.4</ele>
        <time>2018-11-26T06:16:08Z</time>
      </trkpt>
      <trkpt lat="42.14644" lon="2.24225">
        <ele>806.3</ele>
        <time>2018-11-26T06:16:12Z</time>
      </trkpt>
      <trkpt lat="42.14651" lon="2.24236">
        <ele>806.8</ele>
        <time>2018-11-26T06:16:16Z</time>
      </trkpt>
      <trkpt lat="42.14657" lon="2.24245">
        <ele>809.1</ele>
        <time>2018-11-26T06:16:20Z</time>
      </trkpt>
      <trkpt lat="42.14664" lon="2.24252">
        <ele>810.1</ele>
        <time>2018-11-26T06:16:24Z</time>
      </trkpt>
      <trkpt lat="42.14674" lon="2.24259">
        <ele>811.8</ele>
        <time>2018-11-26T06:16:28Z</time>
      </trkpt>
      <trkpt lat="42.14681" lon="2.24269">
        <ele>811.6</ele>
        <time>2018-11-26T06:16:32Z</time>
      </trkpt>
      <trkpt lat="42.14689" lon="2.24265">
        <ele>813</ele>
        <time>2018-11-26T06:16:35Z</time>
      </trkpt>
      <trkpt lat="42.14698" lon="2.24264">
        <ele>814.2</ele>
        <time>2018-11-26T06:16:39Z</time>
      </trkpt>
      <trkpt lat="42.14708" lon="2.24262">
        <ele>814.8</ele>
        <time>2018-11-26T06:16:43Z</time>
      </trkpt>
      <trkpt lat="42.14717" lon="2.24263">
        <ele>814.7</ele>
        <time>2018-11-26T06:16:47Z</time>
      </trkpt>
      <trkpt lat="42.14727" lon="2.24257">
        <ele>816.2</ele>
        <time>2018-11-26T06:16:51Z</time>
      </trkpt>
      <trkpt lat="42.14736" lon="2.24258">
        <ele>817.8</ele>
        <time>2018-11-26T06:16:55Z</time>
      </trkpt>
      <trkpt lat="42.14745" lon="2.24258">
        <ele>819.2</ele>
        <time>2018-11-26T06:16:58Z</time>
      </trkpt>
      <trkpt lat="42.14755" lon="2.2426">
        <ele>820.4</ele>
        <time>2018-11-26T06:17:02Z</time>
      </trkpt>
      <trkpt lat="42.14764" lon="2.24264">
        <ele>823.1</ele>
        <time>2018-11-26T06:17:06Z</time>
      </trkpt>
      <trkpt lat="42.14774" lon="2.24267">
        <ele>824.8</ele>
        <time>2018-11-26T06:17:10Z</time>
      </trkpt>
      <trkpt lat="42.14782" lon="2.24273">
        <ele>826</ele>
        <time>2018-11-26T06:17:14Z</time>
      </trkpt>
      <trkpt lat="42.14791" lon="2.24276">
        <ele>828.6</ele>
        <time>2018-11-26T06:17:17Z</time>
      </trkpt>
      <trkpt lat="42.14798" lon="2.24284">
        <ele>830.7</ele>
        <time>2018-11-26T06:17:21Z</time>
      </trkpt>
      <trkpt lat="42.14806" lon="2.24291">
        <ele>831.8</ele>
        <time>2018-11-26T06:17:25Z</time>
      </trkpt>
      <trkpt lat="42.14817" lon="2.2429">
        <ele>833.5</ele>
        <time>2018-11-26T06:17:30Z</time>
      </trkpt>
      <trkpt lat="42.14826" lon="2.24291">
        <ele>833.7</ele>
        <time>2018-11-26T06:17:33Z</time>
      </trkpt>
      <trkpt lat="42.14835" lon="2.24285">
        <ele>836.5</ele>
        <time>2018-11-26T06:17:37Z</time>
      </trkpt>
      <trkpt lat="42.14844" lon="2.24283">
        <ele>838.4</ele>
        <time>2018-11-26T06:17:41Z</time>
      </trkpt>
      <trkpt lat="42.14851" lon="2.24292">
        <ele>838.5</ele>
        <time>2018-11-26T06:17:45Z</time>
      </trkpt>
      <trkpt lat="42.14857" lon="2.243">
        <ele>838.5</ele>
        <time>2018-11-26T06:17:48Z</time>
      </trkpt>
      <trkpt lat="42.14863" lon="2.2431">
        <ele>837.5</ele>
        <time>2018-11-26T06:17:52Z</time>
      </trkpt>
      <trkpt lat="42.14873" lon="2.24305">
        <ele>837.1</ele>
        <time>2018-11-26T06:17:56Z</time>
      </trkpt>
      <trkpt lat="42.14883" lon="2.24304">
        <ele>837.7</ele>
        <time>2018-11-26T06:18:00Z</time>
      </trkpt>
      <trkpt lat="42.14891" lon="2.24299">
        <ele>838.5</ele>
        <time>2018-11-26T06:18:04Z</time>
      </trkpt>
      <trkpt lat="42.149" lon="2.24295">
        <ele>839.3</ele>
        <time>2018-11-26T06:18:07Z</time>
      </trkpt>
      <trkpt lat="42.14909" lon="2.2429">
        <ele>840.5</ele>
        <time>2018-11-26T06:18:11Z</time>
      </trkpt>
      <trkpt lat="42.14919" lon="2.24286">
        <ele>841.6</ele>
        <time>2018-11-26T06:18:15Z</time>
      </trkpt>
      <trkpt lat="42.14929" lon="2.24281">
        <ele>842.4</ele>
        <time>2018-11-26T06:18:20Z</time>
      </trkpt>
      <trkpt lat="42.14938" lon="2.24277">
        <ele>843.2</ele>
        <time>2018-11-26T06:18:23Z</time>
      </trkpt>
      <trkpt lat="42.14947" lon="2.24271">
        <ele>844.7</ele>
        <time>2018-11-26T06:18:27Z</time>
      </trkpt>
      <trkpt lat="42.14953" lon="2.24261">
        <ele>845.8</ele>
        <time>2018-11-26T06:18:31Z</time>
      </trkpt>
      <trkpt lat="42.14962" lon="2.24256">
        <ele>847.5</ele>
        <time>2018-11-26T06:18:35Z</time>
      </trkpt>
      <trkpt lat="42.14971" lon="2.24252">
        <ele>847.3</ele>
        <time>2018-11-26T06:18:39Z</time>
      </trkpt>
      <trkpt lat="42.14981" lon="2.24252">
        <ele>848.2</ele>
        <time>2018-11-26T06:18:43Z</time>
      </trkpt>
      <trkpt lat="42.14991" lon="2.24252">
        <ele>849.1</ele>
        <time>2018-11-26T06:18:47Z</time>
      </trkpt>
      <trkpt lat="42.15" lon="2.24254">
        <ele>850</ele>
        <time>2018-11-26T06:18:51Z</time>
      </trkpt>
      <trkpt lat="42.1501" lon="2.24256">
        <ele>851.5</ele>
        <time>2018-11-26T06:18:55Z</time>
      </trkpt>
      <trkpt lat="42.15018" lon="2.24253">
        <ele>852.1</ele>
        <time>2018-11-26T06:18:58Z</time>
      </trkpt>
      <trkpt lat="42.15028" lon="2.24252">
        <ele>852.8</ele>
        <time>2018-11-26T06:19:02Z</time>
      </trkpt>
      <trkpt lat="42.15037" lon="2.24252">
        <ele>854.4</ele>
        <time>2018-11-26T06:19:06Z</time>
      </trkpt>
      <trkpt lat="42.15046" lon="2.24255">
        <ele>855.4</ele>
        <time>2018-11-26T06:19:09Z</time>
      </trkpt>
      <trkpt lat="42.15056" lon="2.24258">
        <ele>856.3</ele>
        <time>2018-11-26T06:19:14Z</time>
      </trkpt>
      <trkpt lat="42.15066" lon="2.24255">
        <ele>856.8</ele>
        <time>2018-11-26T06:19:17Z</time>
      </trkpt>
      <trkpt lat="42.15075" lon="2.24251">
        <ele>857</ele>
        <time>2018-11-26T06:19:21Z</time>
      </trkpt>
      <trkpt lat="42.15085" lon="2.24254">
        <ele>858.1</ele>
        <time>2018-11-26T06:19:25Z</time>
      </trkpt>
      <trkpt lat="42.15092" lon="2.24244">
        <ele>861</ele>
        <time>2018-11-26T06:19:30Z</time>
      </trkpt>
      <trkpt lat="42.15096" lon="2.24232">
        <ele>865.3</ele>
        <time>2018-11-26T06:19:33Z</time>
      </trkpt>
      <trkpt lat="42.15103" lon="2.24224">
        <ele>867.5</ele>
        <time>2018-11-26T06:19:37Z</time>
      </trkpt>
      <trkpt lat="42.15112" lon="2.2422">
        <ele>869.2</ele>
        <time>2018-11-26T06:19:41Z</time>
      </trkpt>
      <trkpt lat="42.1512" lon="2.24214">
        <ele>870.8</ele>
        <time>2018-11-26T06:19:45Z</time>
      </trkpt>
      <trkpt lat="42.1513" lon="2.24212">
        <ele>874.5</ele>
        <time>2018-11-26T06:19:48Z</time>
      </trkpt>
      <trkpt lat="42.15137" lon="2.24205">
        <ele>875.5</ele>
        <time>2018-11-26T06:19:52Z</time>
      </trkpt>
      <trkpt lat="42.15147" lon="2.24206">
        <ele>878.4</ele>
        <time>2018-11-26T06:19:56Z</time>
      </trkpt>
      <trkpt lat="42.15154" lon="2.24199">
        <ele>881.3</ele>
        <time>2018-11-26T06:19:59Z</time>
      </trkpt>
      <trkpt lat="42.15164" lon="2.24197">
        <ele>885.3</ele>
        <time>2018-11-26T06:20:03Z</time>
      </trkpt>
      <trkpt lat="42.15173" lon="2.242">
        <ele>887</ele>
        <time>2018-11-26T06:20:07Z</time>
      </trkpt>
      <trkpt lat="42.15174" lon="2.24187">
        <ele>891.8</ele>
        <time>2018-11-26T06:20:11Z</time>
      </trkpt>
      <trkpt lat="42.15182" lon="2.2418">
        <ele>895.1</ele>
        <time>2018-11-26T06:20:15Z</time>
      </trkpt>
      <trkpt lat="42.1519" lon="2.24189">
        <ele>896.3</ele>
        <time>2018-11-26T06:20:19Z</time>
      </trkpt>
      <trkpt lat="42.15198" lon="2.24195">
        <ele>898.6</ele>
        <time>2018-11-26T06:20:23Z</time>
      </trkpt>
      <trkpt lat="42.15206" lon="2.24202">
        <ele>900.7</ele>
        <time>2018-11-26T06:20:27Z</time>
      </trkpt>
      <trkpt lat="42.15215" lon="2.24201">
        <ele>900.7</ele>
        <time>2018-11-26T06:20:30Z</time>
      </trkpt>
      <trkpt lat="42.15224" lon="2.24205">
        <ele>902</ele>
        <time>2018-11-26T06:20:34Z</time>
      </trkpt>
      <trkpt lat="42.15232" lon="2.24212">
        <ele>903.4</ele>
        <time>2018-11-26T06:20:38Z</time>
      </trkpt>
      <trkpt lat="42.15241" lon="2.24218">
        <ele>904.7</ele>
        <time>2018-11-26T06:20:42Z</time>
      </trkpt>
      <trkpt lat="42.1525" lon="2.24221">
        <ele>906.5</ele>
        <time>2018-11-26T06:20:45Z</time>
      </trkpt>
      <trkpt lat="42.15257" lon="2.24213">
        <ele>909.5</ele>
        <time>2018-11-26T06:20:49Z</time>
      </trkpt>
      <trkpt lat="42.15266" lon="2.24215">
        <ele>912.2</ele>
        <time>2018-11-26T06:20:53Z</time>
      </trkpt>
      <trkpt lat="42.15275" lon="2.24219">
        <ele>913.8</ele>
        <time>2018-11-26T06:20:57Z</time>
      </trkpt>
      <trkpt lat="42.15284" lon="2.24226">
        <ele>913.6</ele>
        <time>2018-11-26T06:21:01Z</time>
      </trkpt>
      <trkpt lat="42.15293" lon="2.24232">
        <ele>914.1</ele>
        <time>2018-11-26T06:21:05Z</time>
      </trkpt>
      <trkpt lat="42.15297" lon="2.24232">
        <ele>915.1</ele>
        <time>2018-11-26T06:21:06Z</time>
      </trkpt>
      <trkpt lat="42.15299" lon="2.24232">
        <ele>915.3</ele>
        <time>2018-11-26T06:21:07Z</time>
      </trkpt>
      <trkpt lat="42.15302" lon="2.24233">
        <ele>915.3</ele>
        <time>2018-11-26T06:21:08Z</time>
      </trkpt>
      <trkpt lat="42.15311" lon="2.24235">
        <ele>915.6</ele>
        <time>2018-11-26T06:21:12Z</time>
      </trkpt>
      <trkpt lat="42.1532" lon="2.24237">
        <ele>916.7</ele>
        <time>2018-11-26T06:21:16Z</time>
      </trkpt>
      <trkpt lat="42.15329" lon="2.24232">
        <ele>917.7</ele>
        <time>2018-11-26T06:21:20Z</time>
      </trkpt>
      <trkpt lat="42.15339" lon="2.24231">
        <ele>917.8</ele>
        <time>2018-11-26T06:21:23Z</time>
      </trkpt>
      <trkpt lat="42.15348" lon="2.24234">
        <ele>917.7</ele>
        <time>2018-11-26T06:21:27Z</time>
      </trkpt>
      <trkpt lat="42.15357" lon="2.24241">
        <ele>917.2</ele>
        <time>2018-11-26T06:21:31Z</time>
      </trkpt>
      <trkpt lat="42.15366" lon="2.24248">
        <ele>917.8</ele>
        <time>2018-11-26T06:21:35Z</time>
      </trkpt>
      <trkpt lat="42.15374" lon="2.24254">
        <ele>917.6</ele>
        <time>2018-11-26T06:21:39Z</time>
      </trkpt>
      <trkpt lat="42.15384" lon="2.24258">
        <ele>918</ele>
        <time>2018-11-26T06:21:43Z</time>
      </trkpt>
      <trkpt lat="42.15393" lon="2.24266">
        <ele>918.5</ele>
        <time>2018-11-26T06:21:48Z</time>
      </trkpt>
      <trkpt lat="42.154" lon="2.24275">
        <ele>919.5</ele>
        <time>2018-11-26T06:21:52Z</time>
      </trkpt>
      <trkpt lat="42.15403" lon="2.24289">
        <ele>919.4</ele>
        <time>2018-11-26T06:21:56Z</time>
      </trkpt>
      <trkpt lat="42.15405" lon="2.24298">
        <ele>920</ele>
        <time>2018-11-26T06:21:59Z</time>
      </trkpt>
      <trkpt lat="42.15406" lon="2.24312">
        <ele>920.9</ele>
        <time>2018-11-26T06:22:03Z</time>
      </trkpt>
      <trkpt lat="42.15407" lon="2.24325">
        <ele>921.4</ele>
        <time>2018-11-26T06:22:07Z</time>
      </trkpt>
      <trkpt lat="42.15408" lon="2.24337">
        <ele>922.3</ele>
        <time>2018-11-26T06:22:10Z</time>
      </trkpt>
      <trkpt lat="42.1541" lon="2.2435">
        <ele>923</ele>
        <time>2018-11-26T06:22:14Z</time>
      </trkpt>
      <trkpt lat="42.15414" lon="2.24362">
        <ele>923.5</ele>
        <time>2018-11-26T06:22:18Z</time>
      </trkpt>
      <trkpt lat="42.15415" lon="2.24364">
        <ele>923.8</ele>
        <time>2018-11-26T06:22:19Z</time>
      </trkpt>
      <trkpt lat="42.15417" lon="2.24368">
        <ele>923.8</ele>
        <time>2018-11-26T06:22:20Z</time>
      </trkpt>
      <trkpt lat="42.15419" lon="2.24372">
        <ele>924.6</ele>
        <time>2018-11-26T06:22:22Z</time>
      </trkpt>
      <trkpt lat="42.15421" lon="2.24374">
        <ele>924.6</ele>
        <time>2018-11-26T06:22:23Z</time>
      </trkpt>
      <trkpt lat="42.15422" lon="2.24377">
        <ele>924.7</ele>
        <time>2018-11-26T06:22:23Z</time>
      </trkpt>
      <trkpt lat="42.15423" lon="2.24379">
        <ele>924.8</ele>
        <time>2018-11-26T06:22:24Z</time>
      </trkpt>
      <trkpt lat="42.1543" lon="2.2439">
        <ele>924.7</ele>
        <time>2018-11-26T06:22:29Z</time>
      </trkpt>
      <trkpt lat="42.15436" lon="2.244">
        <ele>925.4</ele>
        <time>2018-11-26T06:22:33Z</time>
      </trkpt>
      <trkpt lat="42.15442" lon="2.2441">
        <ele>925</ele>
        <time>2018-11-26T06:22:36Z</time>
      </trkpt>
      <trkpt lat="42.15448" lon="2.2442">
        <ele>925</ele>
        <time>2018-11-26T06:22:40Z</time>
      </trkpt>
      <trkpt lat="42.15454" lon="2.2443">
        <ele>925</ele>
        <time>2018-11-26T06:22:44Z</time>
      </trkpt>
      <trkpt lat="42.15461" lon="2.24441">
        <ele>924.5</ele>
        <time>2018-11-26T06:22:48Z</time>
      </trkpt>
      <trkpt lat="42.15467" lon="2.24454">
        <ele>925.1</ele>
        <time>2018-11-26T06:22:53Z</time>
      </trkpt>
      <trkpt lat="42.15469" lon="2.24465">
        <ele>925.3</ele>
        <time>2018-11-26T06:22:56Z</time>
      </trkpt>
      <trkpt lat="42.1547" lon="2.24468">
        <ele>925.3</ele>
        <time>2018-11-26T06:22:57Z</time>
      </trkpt>
      <trkpt lat="42.1547" lon="2.24471">
        <ele>925.2</ele>
        <time>2018-11-26T06:22:58Z</time>
      </trkpt>
      <trkpt lat="42.15469" lon="2.24474">
        <ele>925.3</ele>
        <time>2018-11-26T06:22:59Z</time>
      </trkpt>
      <trkpt lat="42.15469" lon="2.24489">
        <ele>925.3</ele>
        <time>2018-11-26T06:23:03Z</time>
      </trkpt>
      <trkpt lat="42.1547" lon="2.24503">
        <ele>925.3</ele>
        <time>2018-11-26T06:23:08Z</time>
      </trkpt>
      <trkpt lat="42.1547" lon="2.24518">
        <ele>925.4</ele>
        <time>2018-11-26T06:23:12Z</time>
      </trkpt>
      <trkpt lat="42.15469" lon="2.24532">
        <ele>926</ele>
        <time>2018-11-26T06:23:16Z</time>
      </trkpt>
      <trkpt lat="42.15461" lon="2.2454">
        <ele>927</ele>
        <time>2018-11-26T06:23:20Z</time>
      </trkpt>
      <trkpt lat="42.15459" lon="2.24547">
        <ele>927.3</ele>
        <time>2018-11-26T06:23:22Z</time>
      </trkpt>
      <trkpt lat="42.15458" lon="2.2455">
        <ele>928.3</ele>
        <time>2018-11-26T06:23:23Z</time>
      </trkpt>
      <trkpt lat="42.15457" lon="2.24553">
        <ele>928.2</ele>
        <time>2018-11-26T06:23:24Z</time>
      </trkpt>
      <trkpt lat="42.15456" lon="2.24556">
        <ele>928.5</ele>
        <time>2018-11-26T06:23:25Z</time>
      </trkpt>
      <trkpt lat="42.15455" lon="2.2456">
        <ele>928.7</ele>
        <time>2018-11-26T06:23:26Z</time>
      </trkpt>
      <trkpt lat="42.15455" lon="2.24562">
        <ele>928.5</ele>
        <time>2018-11-26T06:23:27Z</time>
      </trkpt>
      <trkpt lat="42.15455" lon="2.24565">
        <ele>928.6</ele>
        <time>2018-11-26T06:23:28Z</time>
      </trkpt>
      <trkpt lat="42.15454" lon="2.2457">
        <ele>928.6</ele>
        <time>2018-11-26T06:23:29Z</time>
      </trkpt>
      <trkpt lat="42.15454" lon="2.24573">
        <ele>928.7</ele>
        <time>2018-11-26T06:23:30Z</time>
      </trkpt>
      <trkpt lat="42.15453" lon="2.24575">
        <ele>928.5</ele>
        <time>2018-11-26T06:23:31Z</time>
      </trkpt>
      <trkpt lat="42.15452" lon="2.24578">
        <ele>929.2</ele>
        <time>2018-11-26T06:23:32Z</time>
      </trkpt>
      <trkpt lat="42.15444" lon="2.24585">
        <ele>929.3</ele>
        <time>2018-11-26T06:23:36Z</time>
      </trkpt>
      <trkpt lat="42.15442" lon="2.24587">
        <ele>929.2</ele>
        <time>2018-11-26T06:23:36Z</time>
      </trkpt>
      <trkpt lat="42.15442" lon="2.2459">
        <ele>929.8</ele>
        <time>2018-11-26T06:23:37Z</time>
      </trkpt>
      <trkpt lat="42.15441" lon="2.24592">
        <ele>930.6</ele>
        <time>2018-11-26T06:23:38Z</time>
      </trkpt>
      <trkpt lat="42.1544" lon="2.24595">
        <ele>931.9</ele>
        <time>2018-11-26T06:23:39Z</time>
      </trkpt>
      <trkpt lat="42.1544" lon="2.24597">
        <ele>932</ele>
        <time>2018-11-26T06:23:40Z</time>
      </trkpt>
      <trkpt lat="42.15438" lon="2.24599">
        <ele>932.4</ele>
        <time>2018-11-26T06:23:41Z</time>
      </trkpt>
      <trkpt lat="42.15437" lon="2.246">
        <ele>933.4</ele>
        <time>2018-11-26T06:23:41Z</time>
      </trkpt>
      <trkpt lat="42.15435" lon="2.24602">
        <ele>933.5</ele>
        <time>2018-11-26T06:23:42Z</time>
      </trkpt>
      <trkpt lat="42.15434" lon="2.24604">
        <ele>935.2</ele>
        <time>2018-11-26T06:23:43Z</time>
      </trkpt>
      <trkpt lat="42.15434" lon="2.24608">
        <ele>935.7</ele>
        <time>2018-11-26T06:23:44Z</time>
      </trkpt>
      <trkpt lat="42.15433" lon="2.2461">
        <ele>936</ele>
        <time>2018-11-26T06:23:45Z</time>
      </trkpt>
      <trkpt lat="42.15432" lon="2.24612">
        <ele>936.5</ele>
        <time>2018-11-26T06:23:46Z</time>
      </trkpt>
      <trkpt lat="42.1543" lon="2.24615">
        <ele>937.3</ele>
        <time>2018-11-26T06:23:47Z</time>
      </trkpt>
      <trkpt lat="42.15429" lon="2.24617">
        <ele>937.8</ele>
        <time>2018-11-26T06:23:48Z</time>
      </trkpt>
      <trkpt lat="42.15427" lon="2.24619">
        <ele>938.5</ele>
        <time>2018-11-26T06:23:49Z</time>
      </trkpt>
      <trkpt lat="42.15425" lon="2.24621">
        <ele>939</ele>
        <time>2018-11-26T06:23:49Z</time>
      </trkpt>
      <trkpt lat="42.15424" lon="2.24623">
        <ele>939.5</ele>
        <time>2018-11-26T06:23:50Z</time>
      </trkpt>
      <trkpt lat="42.15421" lon="2.24625">
        <ele>939.5</ele>
        <time>2018-11-26T06:23:52Z</time>
      </trkpt>
      <trkpt lat="42.15419" lon="2.24627">
        <ele>939.5</ele>
        <time>2018-11-26T06:23:53Z</time>
      </trkpt>
      <trkpt lat="42.15416" lon="2.24628">
        <ele>939.5</ele>
        <time>2018-11-26T06:23:54Z</time>
      </trkpt>
      <trkpt lat="42.15414" lon="2.2463">
        <ele>939.6</ele>
        <time>2018-11-26T06:23:55Z</time>
      </trkpt>
      <trkpt lat="42.15414" lon="2.24633">
        <ele>940.4</ele>
        <time>2018-11-26T06:23:56Z</time>
      </trkpt>
      <trkpt lat="42.15412" lon="2.24635">
        <ele>940.5</ele>
        <time>2018-11-26T06:23:56Z</time>
      </trkpt>
      <trkpt lat="42.15406" lon="2.24645">
        <ele>941.3</ele>
        <time>2018-11-26T06:24:00Z</time>
      </trkpt>
      <trkpt lat="42.1541" lon="2.24657">
        <ele>948.6</ele>
        <time>2018-11-26T06:24:04Z</time>
      </trkpt>
      <trkpt lat="42.15418" lon="2.24664">
        <ele>950.5</ele>
        <time>2018-11-26T06:24:08Z</time>
      </trkpt>
      <trkpt lat="42.15422" lon="2.24673">
        <ele>952</ele>
        <time>2018-11-26T06:24:11Z</time>
      </trkpt>
      <trkpt lat="42.15427" lon="2.24679">
        <ele>957.4</ele>
        <time>2018-11-26T06:24:14Z</time>
      </trkpt>
      <trkpt lat="42.15427" lon="2.24681">
        <ele>959.2</ele>
        <time>2018-11-26T06:24:15Z</time>
      </trkpt>
      <trkpt lat="42.15428" lon="2.24683">
        <ele>959.2</ele>
        <time>2018-11-26T06:24:15Z</time>
      </trkpt>
      <trkpt lat="42.1543" lon="2.24685">
        <ele>959.6</ele>
        <time>2018-11-26T06:24:16Z</time>
      </trkpt>
      <trkpt lat="42.15432" lon="2.24688">
        <ele>960.8</ele>
        <time>2018-11-26T06:24:17Z</time>
      </trkpt>
      <trkpt lat="42.15431" lon="2.24691">
        <ele>961.2</ele>
        <time>2018-11-26T06:24:18Z</time>
      </trkpt>
      <trkpt lat="42.1543" lon="2.24694">
        <ele>961</ele>
        <time>2018-11-26T06:24:19Z</time>
      </trkpt>
      <trkpt lat="42.15424" lon="2.24705">
        <ele>961</ele>
        <time>2018-11-26T06:24:23Z</time>
      </trkpt>
      <trkpt lat="42.15417" lon="2.24713">
        <ele>960.4</ele>
        <time>2018-11-26T06:24:27Z</time>
      </trkpt>
      <trkpt lat="42.15422" lon="2.24723">
        <ele>960.2</ele>
        <time>2018-11-26T06:24:31Z</time>
      </trkpt>
      <trkpt lat="42.15424" lon="2.24725">
        <ele>960.5</ele>
        <time>2018-11-26T06:24:32Z</time>
      </trkpt>
      <trkpt lat="42.15425" lon="2.24728">
        <ele>961.5</ele>
        <time>2018-11-26T06:24:32Z</time>
      </trkpt>
      <trkpt lat="42.15424" lon="2.2473">
        <ele>961.5</ele>
        <time>2018-11-26T06:24:33Z</time>
      </trkpt>
      <trkpt lat="42.15424" lon="2.24733">
        <ele>962.7</ele>
        <time>2018-11-26T06:24:34Z</time>
      </trkpt>
      <trkpt lat="42.15424" lon="2.24736">
        <ele>962.8</ele>
        <time>2018-11-26T06:24:35Z</time>
      </trkpt>
      <trkpt lat="42.15426" lon="2.24743">
        <ele>963.6</ele>
        <time>2018-11-26T06:24:37Z</time>
      </trkpt>
      <trkpt lat="42.15427" lon="2.24747">
        <ele>964.2</ele>
        <time>2018-11-26T06:24:38Z</time>
      </trkpt>
      <trkpt lat="42.15427" lon="2.2475">
        <ele>964.4</ele>
        <time>2018-11-26T06:24:39Z</time>
      </trkpt>
      <trkpt lat="42.15427" lon="2.24754">
        <ele>964.5</ele>
        <time>2018-11-26T06:24:40Z</time>
      </trkpt>
      <trkpt lat="42.15427" lon="2.24757">
        <ele>965.5</ele>
        <time>2018-11-26T06:24:41Z</time>
      </trkpt>
      <trkpt lat="42.15427" lon="2.24762">
        <ele>965.8</ele>
        <time>2018-11-26T06:24:43Z</time>
      </trkpt>
      <trkpt lat="42.15427" lon="2.24765">
        <ele>965.8</ele>
        <time>2018-11-26T06:24:44Z</time>
      </trkpt>
      <trkpt lat="42.15428" lon="2.24767">
        <ele>966.2</ele>
        <time>2018-11-26T06:24:45Z</time>
      </trkpt>
      <trkpt lat="42.15429" lon="2.2477">
        <ele>967.4</ele>
        <time>2018-11-26T06:24:45Z</time>
      </trkpt>
      <trkpt lat="42.15431" lon="2.24782">
        <ele>969.2</ele>
        <time>2018-11-26T06:24:49Z</time>
      </trkpt>
      <trkpt lat="42.15435" lon="2.24794">
        <ele>971.3</ele>
        <time>2018-11-26T06:24:53Z</time>
      </trkpt>
      <trkpt lat="42.15437" lon="2.24796">
        <ele>972</ele>
        <time>2018-11-26T06:24:54Z</time>
      </trkpt>
      <trkpt lat="42.15436" lon="2.24794">
        <ele>972.5</ele>
        <time>2018-11-26T06:24:55Z</time>
      </trkpt>
      <trkpt lat="42.1544" lon="2.24795">
        <ele>973.5</ele>
        <time>2018-11-26T06:24:57Z</time>
      </trkpt>
      <trkpt lat="42.15442" lon="2.24798">
        <ele>974.2</ele>
        <time>2018-11-26T06:24:58Z</time>
      </trkpt>
      <trkpt lat="42.15442" lon="2.24795">
        <ele>975.5</ele>
        <time>2018-11-26T06:24:58Z</time>
      </trkpt>
      <trkpt lat="42.15442" lon="2.24793">
        <ele>975.7</ele>
        <time>2018-11-26T06:24:59Z</time>
      </trkpt>
      <trkpt lat="42.15447" lon="2.24802">
        <ele>980.6</ele>
        <time>2018-11-26T06:25:03Z</time>
      </trkpt>
      <trkpt lat="42.15446" lon="2.24789">
        <ele>982.8</ele>
        <time>2018-11-26T06:25:07Z</time>
      </trkpt>
      <trkpt lat="42.15451" lon="2.24778">
        <ele>986</ele>
        <time>2018-11-26T06:25:11Z</time>
      </trkpt>
      <trkpt lat="42.15459" lon="2.24789">
        <ele>988.1</ele>
        <time>2018-11-26T06:25:15Z</time>
      </trkpt>
      <trkpt lat="42.15462" lon="2.24803">
        <ele>989.3</ele>
        <time>2018-11-26T06:25:19Z</time>
      </trkpt>
      <trkpt lat="42.15467" lon="2.24815">
        <ele>989</ele>
        <time>2018-11-26T06:25:23Z</time>
      </trkpt>
      <trkpt lat="42.15472" lon="2.24826">
        <ele>988.7</ele>
        <time>2018-11-26T06:25:27Z</time>
      </trkpt>
      <trkpt lat="42.15462" lon="2.24827">
        <ele>988.3</ele>
        <time>2018-11-26T06:25:31Z</time>
      </trkpt>
      <trkpt lat="42.15458" lon="2.24814">
        <ele>988.3</ele>
        <time>2018-11-26T06:25:35Z</time>
      </trkpt>
      <trkpt lat="42.15467" lon="2.2482">
        <ele>988.2</ele>
        <time>2018-11-26T06:25:39Z</time>
      </trkpt>
      <trkpt lat="42.1547" lon="2.24832">
        <ele>988.2</ele>
        <time>2018-11-26T06:25:43Z</time>
      </trkpt>
      <trkpt lat="42.15463" lon="2.24823">
        <ele>988.2</ele>
        <time>2018-11-26T06:25:47Z</time>
      </trkpt>
      <trkpt lat="42.15462" lon="2.24811">
        <ele>988.2</ele>
        <time>2018-11-26T06:25:50Z</time>
      </trkpt>
      <trkpt lat="42.15462" lon="2.24799">
        <ele>988.2</ele>
        <time>2018-11-26T06:25:54Z</time>
      </trkpt>
      <trkpt lat="42.15459" lon="2.24789">
        <ele>988.3</ele>
        <time>2018-11-26T06:25:57Z</time>
      </trkpt>
      <trkpt lat="42.15458" lon="2.24788">
        <ele>988.3</ele>
        <time>2018-11-26T06:25:58Z</time>
      </trkpt>
      <trkpt lat="42.1545" lon="2.24797">
        <ele>983</ele>
        <time>2018-11-26T06:26:02Z</time>
      </trkpt>
      <trkpt lat="42.15441" lon="2.24794">
        <ele>976.5</ele>
        <time>2018-11-26T06:26:06Z</time>
      </trkpt>
      <trkpt lat="42.15438" lon="2.24797">
        <ele>973.6</ele>
        <time>2018-11-26T06:26:07Z</time>
      </trkpt>
      <trkpt lat="42.15444" lon="2.24808">
        <ele>973.2</ele>
        <time>2018-11-26T06:26:12Z</time>
      </trkpt>
      <trkpt lat="42.15443" lon="2.2482">
        <ele>972</ele>
        <time>2018-11-26T06:26:15Z</time>
      </trkpt>
      <trkpt lat="42.15443" lon="2.24823">
        <ele>972</ele>
        <time>2018-11-26T06:26:16Z</time>
      </trkpt>
      <trkpt lat="42.15444" lon="2.24837">
        <ele>969.5</ele>
        <time>2018-11-26T06:26:20Z</time>
      </trkpt>
      <trkpt lat="42.15446" lon="2.24849">
        <ele>967</ele>
        <time>2018-11-26T06:26:24Z</time>
      </trkpt>
      <trkpt lat="42.15451" lon="2.24862">
        <ele>966.8</ele>
        <time>2018-11-26T06:26:28Z</time>
      </trkpt>
      <trkpt lat="42.15457" lon="2.24875">
        <ele>966.4</ele>
        <time>2018-11-26T06:26:33Z</time>
      </trkpt>
      <trkpt lat="42.15462" lon="2.24888">
        <ele>963.4</ele>
        <time>2018-11-26T06:26:37Z</time>
      </trkpt>
      <trkpt lat="42.15467" lon="2.24899">
        <ele>962.1</ele>
        <time>2018-11-26T06:26:41Z</time>
      </trkpt>
      <trkpt lat="42.15474" lon="2.24911">
        <ele>961.5</ele>
        <time>2018-11-26T06:26:45Z</time>
      </trkpt>
      <trkpt lat="42.1548" lon="2.2492">
        <ele>959.8</ele>
        <time>2018-11-26T06:26:49Z</time>
      </trkpt>
      <trkpt lat="42.15489" lon="2.24929">
        <ele>959.2</ele>
        <time>2018-11-26T06:26:53Z</time>
      </trkpt>
      <trkpt lat="42.15491" lon="2.24938">
        <ele>959.1</ele>
        <time>2018-11-26T06:26:56Z</time>
      </trkpt>
      <trkpt lat="42.15492" lon="2.24941">
        <ele>958.4</ele>
        <time>2018-11-26T06:26:57Z</time>
      </trkpt>
      <trkpt lat="42.15495" lon="2.2495">
        <ele>958.1</ele>
        <time>2018-11-26T06:27:00Z</time>
      </trkpt>
      <trkpt lat="42.155" lon="2.24962">
        <ele>957.2</ele>
        <time>2018-11-26T06:27:04Z</time>
      </trkpt>
      <trkpt lat="42.15503" lon="2.24974">
        <ele>956.7</ele>
        <time>2018-11-26T06:27:08Z</time>
      </trkpt>
      <trkpt lat="42.15506" lon="2.24986">
        <ele>956.6</ele>
        <time>2018-11-26T06:27:12Z</time>
      </trkpt>
      <trkpt lat="42.15507" lon="2.24999">
        <ele>956.4</ele>
        <time>2018-11-26T06:27:16Z</time>
      </trkpt>
      <trkpt lat="42.15507" lon="2.25007">
        <ele>956.1</ele>
        <time>2018-11-26T06:27:18Z</time>
      </trkpt>
      <trkpt lat="42.15507" lon="2.25011">
        <ele>955.4</ele>
        <time>2018-11-26T06:27:19Z</time>
      </trkpt>
      <trkpt lat="42.15507" lon="2.25027">
        <ele>955.1</ele>
        <time>2018-11-26T06:27:24Z</time>
      </trkpt>
      <trkpt lat="42.15507" lon="2.2503">
        <ele>955.4</ele>
        <time>2018-11-26T06:27:25Z</time>
      </trkpt>
      <trkpt lat="42.15506" lon="2.25038">
        <ele>955.5</ele>
        <time>2018-11-26T06:27:27Z</time>
      </trkpt>
      <trkpt lat="42.15505" lon="2.25053">
        <ele>955.4</ele>
        <time>2018-11-26T06:27:32Z</time>
      </trkpt>
      <trkpt lat="42.15504" lon="2.25065">
        <ele>955.1</ele>
        <time>2018-11-26T06:27:35Z</time>
      </trkpt>
      <trkpt lat="42.15504" lon="2.25067">
        <ele>954.7</ele>
        <time>2018-11-26T06:27:36Z</time>
      </trkpt>
      <trkpt lat="42.15505" lon="2.2507">
        <ele>954.7</ele>
        <time>2018-11-26T06:27:37Z</time>
      </trkpt>
      <trkpt lat="42.15508" lon="2.25072">
        <ele>955.4</ele>
        <time>2018-11-26T06:27:38Z</time>
      </trkpt>
      <trkpt lat="42.1551" lon="2.25073">
        <ele>955.7</ele>
        <time>2018-11-26T06:27:39Z</time>
      </trkpt>
      <trkpt lat="42.15512" lon="2.25074">
        <ele>956.1</ele>
        <time>2018-11-26T06:27:40Z</time>
      </trkpt>
      <trkpt lat="42.15514" lon="2.25075">
        <ele>956.1</ele>
        <time>2018-11-26T06:27:41Z</time>
      </trkpt>
      <trkpt lat="42.15516" lon="2.25076">
        <ele>956</ele>
        <time>2018-11-26T06:27:42Z</time>
      </trkpt>
      <trkpt lat="42.15518" lon="2.25079">
        <ele>957.2</ele>
        <time>2018-11-26T06:27:43Z</time>
      </trkpt>
      <trkpt lat="42.1552" lon="2.25081">
        <ele>958.2</ele>
        <time>2018-11-26T06:27:44Z</time>
      </trkpt>
      <trkpt lat="42.15522" lon="2.25083">
        <ele>958.3</ele>
        <time>2018-11-26T06:27:45Z</time>
      </trkpt>
      <trkpt lat="42.15523" lon="2.25087">
        <ele>958.3</ele>
        <time>2018-11-26T06:27:46Z</time>
      </trkpt>
      <trkpt lat="42.15524" lon="2.2509">
        <ele>959.1</ele>
        <time>2018-11-26T06:27:47Z</time>
      </trkpt>
      <trkpt lat="42.15525" lon="2.25093">
        <ele>959.4</ele>
        <time>2018-11-26T06:27:48Z</time>
      </trkpt>
      <trkpt lat="42.15525" lon="2.25096">
        <ele>959.4</ele>
        <time>2018-11-26T06:27:49Z</time>
      </trkpt>
      <trkpt lat="42.15526" lon="2.25099">
        <ele>960</ele>
        <time>2018-11-26T06:27:50Z</time>
      </trkpt>
      <trkpt lat="42.15526" lon="2.25103">
        <ele>960.5</ele>
        <time>2018-11-26T06:27:51Z</time>
      </trkpt>
      <trkpt lat="42.15527" lon="2.25107">
        <ele>960.7</ele>
        <time>2018-11-26T06:27:52Z</time>
      </trkpt>
      <trkpt lat="42.15526" lon="2.2511">
        <ele>960.7</ele>
        <time>2018-11-26T06:27:53Z</time>
      </trkpt>
      <trkpt lat="42.15526" lon="2.25114">
        <ele>960.7</ele>
        <time>2018-11-26T06:27:54Z</time>
      </trkpt>
      <trkpt lat="42.15525" lon="2.25117">
        <ele>961.5</ele>
        <time>2018-11-26T06:27:55Z</time>
      </trkpt>
      <trkpt lat="42.15526" lon="2.2512">
        <ele>962.1</ele>
        <time>2018-11-26T06:27:56Z</time>
      </trkpt>
      <trkpt lat="42.15526" lon="2.25122">
        <ele>962.3</ele>
        <time>2018-11-26T06:27:57Z</time>
      </trkpt>
      <trkpt lat="42.15527" lon="2.25125">
        <ele>963.3</ele>
        <time>2018-11-26T06:27:58Z</time>
      </trkpt>
      <trkpt lat="42.15529" lon="2.25127">
        <ele>963.4</ele>
        <time>2018-11-26T06:27:59Z</time>
      </trkpt>
      <trkpt lat="42.15531" lon="2.25129">
        <ele>964.5</ele>
        <time>2018-11-26T06:27:59Z</time>
      </trkpt>
      <trkpt lat="42.1553" lon="2.25132">
        <ele>966</ele>
        <time>2018-11-26T06:28:00Z</time>
      </trkpt>
      <trkpt lat="42.15532" lon="2.25134">
        <ele>968.5</ele>
        <time>2018-11-26T06:28:01Z</time>
      </trkpt>
      <trkpt lat="42.15533" lon="2.25138">
        <ele>968.8</ele>
        <time>2018-11-26T06:28:02Z</time>
      </trkpt>
      <trkpt lat="42.15533" lon="2.25141">
        <ele>969.6</ele>
        <time>2018-11-26T06:28:03Z</time>
      </trkpt>
      <trkpt lat="42.15534" lon="2.25143">
        <ele>970.6</ele>
        <time>2018-11-26T06:28:04Z</time>
      </trkpt>
      <trkpt lat="42.15535" lon="2.25145">
        <ele>970.5</ele>
        <time>2018-11-26T06:28:05Z</time>
      </trkpt>
      <trkpt lat="42.15536" lon="2.25149">
        <ele>970.5</ele>
        <time>2018-11-26T06:28:06Z</time>
      </trkpt>
      <trkpt lat="42.15536" lon="2.25152">
        <ele>971.4</ele>
        <time>2018-11-26T06:28:07Z</time>
      </trkpt>
      <trkpt lat="42.15536" lon="2.25155">
        <ele>972.6</ele>
        <time>2018-11-26T06:28:08Z</time>
      </trkpt>
      <trkpt lat="42.15536" lon="2.25157">
        <ele>972.5</ele>
        <time>2018-11-26T06:28:08Z</time>
      </trkpt>
      <trkpt lat="42.15536" lon="2.2516">
        <ele>972.8</ele>
        <time>2018-11-26T06:28:09Z</time>
      </trkpt>
      <trkpt lat="42.15536" lon="2.25162">
        <ele>972.7</ele>
        <time>2018-11-26T06:28:10Z</time>
      </trkpt>
      <trkpt lat="42.15534" lon="2.25165">
        <ele>973</ele>
        <time>2018-11-26T06:28:11Z</time>
      </trkpt>
      <trkpt lat="42.15535" lon="2.25168">
        <ele>974.5</ele>
        <time>2018-11-26T06:28:12Z</time>
      </trkpt>
      <trkpt lat="42.15536" lon="2.2517">
        <ele>975.5</ele>
        <time>2018-11-26T06:28:13Z</time>
      </trkpt>
      <trkpt lat="42.15538" lon="2.25173">
        <ele>976.8</ele>
        <time>2018-11-26T06:28:14Z</time>
      </trkpt>
      <trkpt lat="42.15538" lon="2.25175">
        <ele>978.5</ele>
        <time>2018-11-26T06:28:15Z</time>
      </trkpt>
      <trkpt lat="42.15536" lon="2.25175">
        <ele>979.4</ele>
        <time>2018-11-26T06:28:15Z</time>
      </trkpt>
      <trkpt lat="42.15538" lon="2.25176">
        <ele>981.5</ele>
        <time>2018-11-26T06:28:16Z</time>
      </trkpt>
      <trkpt lat="42.15536" lon="2.25178">
        <ele>982.7</ele>
        <time>2018-11-26T06:28:17Z</time>
      </trkpt>
      <trkpt lat="42.15535" lon="2.25181">
        <ele>983.6</ele>
        <time>2018-11-26T06:28:18Z</time>
      </trkpt>
      <trkpt lat="42.15534" lon="2.25182">
        <ele>984.5</ele>
        <time>2018-11-26T06:28:18Z</time>
      </trkpt>
      <trkpt lat="42.15533" lon="2.25185">
        <ele>984.5</ele>
        <time>2018-11-26T06:28:19Z</time>
      </trkpt>
      <trkpt lat="42.15533" lon="2.25189">
        <ele>985.4</ele>
        <time>2018-11-26T06:28:20Z</time>
      </trkpt>
      <trkpt lat="42.15534" lon="2.25193">
        <ele>986.5</ele>
        <time>2018-11-26T06:28:22Z</time>
      </trkpt>
      <trkpt lat="42.15534" lon="2.25198">
        <ele>987.2</ele>
        <time>2018-11-26T06:28:23Z</time>
      </trkpt>
      <trkpt lat="42.15534" lon="2.252">
        <ele>987.2</ele>
        <time>2018-11-26T06:28:24Z</time>
      </trkpt>
      <trkpt lat="42.15534" lon="2.25203">
        <ele>987.4</ele>
        <time>2018-11-26T06:28:25Z</time>
      </trkpt>
      <trkpt lat="42.15533" lon="2.25206">
        <ele>987.4</ele>
        <time>2018-11-26T06:28:25Z</time>
      </trkpt>
      <trkpt lat="42.15533" lon="2.25208">
        <ele>987.5</ele>
        <time>2018-11-26T06:28:26Z</time>
      </trkpt>
      <trkpt lat="42.15533" lon="2.25211">
        <ele>987.6</ele>
        <time>2018-11-26T06:28:27Z</time>
      </trkpt>
      <trkpt lat="42.15533" lon="2.25214">
        <ele>987.6</ele>
        <time>2018-11-26T06:28:28Z</time>
      </trkpt>
      <trkpt lat="42.15532" lon="2.25216">
        <ele>987.5</ele>
        <time>2018-11-26T06:28:29Z</time>
      </trkpt>
      <trkpt lat="42.15532" lon="2.25219">
        <ele>987.6</ele>
        <time>2018-11-26T06:28:29Z</time>
      </trkpt>
      <trkpt lat="42.15532" lon="2.25221">
        <ele>987</ele>
        <time>2018-11-26T06:28:30Z</time>
      </trkpt>
      <trkpt lat="42.15532" lon="2.25225">
        <ele>987</ele>
        <time>2018-11-26T06:28:31Z</time>
      </trkpt>
      <trkpt lat="42.15533" lon="2.25231">
        <ele>987</ele>
        <time>2018-11-26T06:28:33Z</time>
      </trkpt>
      <trkpt lat="42.15533" lon="2.25233">
        <ele>987</ele>
        <time>2018-11-26T06:28:34Z</time>
      </trkpt>
      <trkpt lat="42.15534" lon="2.25236">
        <ele>987.3</ele>
        <time>2018-11-26T06:28:34Z</time>
      </trkpt>
      <trkpt lat="42.15534" lon="2.25238">
        <ele>987.2</ele>
        <time>2018-11-26T06:28:35Z</time>
      </trkpt>
      <trkpt lat="42.15535" lon="2.25241">
        <ele>987.3</ele>
        <time>2018-11-26T06:28:36Z</time>
      </trkpt>
      <trkpt lat="42.15535" lon="2.25243">
        <ele>986.6</ele>
        <time>2018-11-26T06:28:37Z</time>
      </trkpt>
      <trkpt lat="42.15535" lon="2.25247">
        <ele>986.7</ele>
        <time>2018-11-26T06:28:38Z</time>
      </trkpt>
      <trkpt lat="42.15535" lon="2.25251">
        <ele>987.4</ele>
        <time>2018-11-26T06:28:39Z</time>
      </trkpt>
      <trkpt lat="42.15536" lon="2.25255">
        <ele>987.4</ele>
        <time>2018-11-26T06:28:40Z</time>
      </trkpt>
      <trkpt lat="42.15537" lon="2.25259">
        <ele>987.6</ele>
        <time>2018-11-26T06:28:42Z</time>
      </trkpt>
      <trkpt lat="42.15538" lon="2.25262">
        <ele>987.5</ele>
        <time>2018-11-26T06:28:43Z</time>
      </trkpt>
      <trkpt lat="42.15539" lon="2.25266">
        <ele>987.6</ele>
        <time>2018-11-26T06:28:44Z</time>
      </trkpt>
      <trkpt lat="42.1554" lon="2.25269">
        <ele>988</ele>
        <time>2018-11-26T06:28:45Z</time>
      </trkpt>
      <trkpt lat="42.15539" lon="2.25271">
        <ele>988.4</ele>
        <time>2018-11-26T06:28:45Z</time>
      </trkpt>
      <trkpt lat="42.15538" lon="2.25274">
        <ele>988.5</ele>
        <time>2018-11-26T06:28:46Z</time>
      </trkpt>
      <trkpt lat="42.15538" lon="2.25277">
        <ele>989.5</ele>
        <time>2018-11-26T06:28:47Z</time>
      </trkpt>
      <trkpt lat="42.15538" lon="2.2528">
        <ele>991</ele>
        <time>2018-11-26T06:28:48Z</time>
      </trkpt>
      <trkpt lat="42.15537" lon="2.25283">
        <ele>991.5</ele>
        <time>2018-11-26T06:28:49Z</time>
      </trkpt>
      <trkpt lat="42.15537" lon="2.25285">
        <ele>993</ele>
        <time>2018-11-26T06:28:50Z</time>
      </trkpt>
      <trkpt lat="42.15538" lon="2.25287">
        <ele>996.5</ele>
        <time>2018-11-26T06:28:51Z</time>
      </trkpt>
      <trkpt lat="42.15536" lon="2.25288">
        <ele>997.5</ele>
        <time>2018-11-26T06:28:51Z</time>
      </trkpt>
      <trkpt lat="42.15534" lon="2.25288">
        <ele>998.4</ele>
        <time>2018-11-26T06:28:52Z</time>
      </trkpt>
      <trkpt lat="42.15532" lon="2.25287">
        <ele>998.5</ele>
        <time>2018-11-26T06:28:53Z</time>
      </trkpt>
      <trkpt lat="42.1553" lon="2.25289">
        <ele>999.4</ele>
        <time>2018-11-26T06:28:54Z</time>
      </trkpt>
      <trkpt lat="42.15529" lon="2.25292">
        <ele>999.5</ele>
        <time>2018-11-26T06:28:55Z</time>
      </trkpt>
      <trkpt lat="42.15527" lon="2.25291">
        <ele>999.4</ele>
        <time>2018-11-26T06:28:56Z</time>
      </trkpt>
      <trkpt lat="42.15524" lon="2.25291">
        <ele>1000.3</ele>
        <time>2018-11-26T06:28:57Z</time>
      </trkpt>
      <trkpt lat="42.15523" lon="2.25294">
        <ele>1000.5</ele>
        <time>2018-11-26T06:28:58Z</time>
      </trkpt>
      <trkpt lat="42.15521" lon="2.25296">
        <ele>1000.5</ele>
        <time>2018-11-26T06:28:59Z</time>
      </trkpt>
      <trkpt lat="42.1552" lon="2.25299">
        <ele>1000.8</ele>
        <time>2018-11-26T06:29:00Z</time>
      </trkpt>
      <trkpt lat="42.15521" lon="2.25302">
        <ele>1001.1</ele>
        <time>2018-11-26T06:29:01Z</time>
      </trkpt>
      <trkpt lat="42.15522" lon="2.25304">
        <ele>1001.5</ele>
        <time>2018-11-26T06:29:01Z</time>
      </trkpt>
      <trkpt lat="42.15523" lon="2.2531">
        <ele>1003.1</ele>
        <time>2018-11-26T06:29:03Z</time>
      </trkpt>
      <trkpt lat="42.15524" lon="2.25313">
        <ele>1005.8</ele>
        <time>2018-11-26T06:29:04Z</time>
      </trkpt>
      <trkpt lat="42.15525" lon="2.25316">
        <ele>1006.7</ele>
        <time>2018-11-26T06:29:05Z</time>
      </trkpt>
      <trkpt lat="42.15527" lon="2.25317">
        <ele>1008.4</ele>
        <time>2018-11-26T06:29:06Z</time>
      </trkpt>
      <trkpt lat="42.15528" lon="2.25319">
        <ele>1009</ele>
        <time>2018-11-26T06:29:07Z</time>
      </trkpt>
      <trkpt lat="42.15528" lon="2.25322">
        <ele>1010</ele>
        <time>2018-11-26T06:29:07Z</time>
      </trkpt>
      <trkpt lat="42.15527" lon="2.25325">
        <ele>1011.5</ele>
        <time>2018-11-26T06:29:08Z</time>
      </trkpt>
      <trkpt lat="42.15527" lon="2.25327">
        <ele>1012.2</ele>
        <time>2018-11-26T06:29:09Z</time>
      </trkpt>
      <trkpt lat="42.15525" lon="2.2533">
        <ele>1013.1</ele>
        <time>2018-11-26T06:29:10Z</time>
      </trkpt>
      <trkpt lat="42.15525" lon="2.25333">
        <ele>1014.1</ele>
        <time>2018-11-26T06:29:11Z</time>
      </trkpt>
      <trkpt lat="42.15527" lon="2.25334">
        <ele>1015.1</ele>
        <time>2018-11-26T06:29:12Z</time>
      </trkpt>
      <trkpt lat="42.15528" lon="2.25337">
        <ele>1015.8</ele>
        <time>2018-11-26T06:29:13Z</time>
      </trkpt>
      <trkpt lat="42.15527" lon="2.25339">
        <ele>1017.8</ele>
        <time>2018-11-26T06:29:14Z</time>
      </trkpt>
      <trkpt lat="42.15527" lon="2.25341">
        <ele>1018.6</ele>
        <time>2018-11-26T06:29:14Z</time>
      </trkpt>
      <trkpt lat="42.15527" lon="2.25344">
        <ele>1021</ele>
        <time>2018-11-26T06:29:15Z</time>
      </trkpt>
      <trkpt lat="42.15528" lon="2.25345">
        <ele>1021.1</ele>
        <time>2018-11-26T06:29:16Z</time>
      </trkpt>
      <trkpt lat="42.15529" lon="2.25347">
        <ele>1022</ele>
        <time>2018-11-26T06:29:17Z</time>
      </trkpt>
      <trkpt lat="42.15528" lon="2.2535">
        <ele>1025</ele>
        <time>2018-11-26T06:29:18Z</time>
      </trkpt>
      <trkpt lat="42.15527" lon="2.25352">
        <ele>1025.9</ele>
        <time>2018-11-26T06:29:19Z</time>
      </trkpt>
      <trkpt lat="42.15526" lon="2.25355">
        <ele>1026.8</ele>
        <time>2018-11-26T06:29:19Z</time>
      </trkpt>
      <trkpt lat="42.15526" lon="2.25357">
        <ele>1027.5</ele>
        <time>2018-11-26T06:29:20Z</time>
      </trkpt>
      <trkpt lat="42.15528" lon="2.2536">
        <ele>1028.5</ele>
        <time>2018-11-26T06:29:21Z</time>
      </trkpt>
      <trkpt lat="42.15529" lon="2.25363">
        <ele>1029.1</ele>
        <time>2018-11-26T06:29:22Z</time>
      </trkpt>
      <trkpt lat="42.15528" lon="2.25365">
        <ele>1030</ele>
        <time>2018-11-26T06:29:23Z</time>
      </trkpt>
      <trkpt lat="42.15527" lon="2.25367">
        <ele>1030.8</ele>
        <time>2018-11-26T06:29:24Z</time>
      </trkpt>
      <trkpt lat="42.15527" lon="2.25369">
        <ele>1031.4</ele>
        <time>2018-11-26T06:29:24Z</time>
      </trkpt>
      <trkpt lat="42.15527" lon="2.25372">
        <ele>1032.6</ele>
        <time>2018-11-26T06:29:25Z</time>
      </trkpt>
      <trkpt lat="42.15527" lon="2.25376">
        <ele>1033</ele>
        <time>2018-11-26T06:29:26Z</time>
      </trkpt>
      <trkpt lat="42.15528" lon="2.25378">
        <ele>1033</ele>
        <time>2018-11-26T06:29:27Z</time>
      </trkpt>
      <trkpt lat="42.15528" lon="2.25381">
        <ele>1034</ele>
        <time>2018-11-26T06:29:28Z</time>
      </trkpt>
      <trkpt lat="42.15528" lon="2.25384">
        <ele>1034.2</ele>
        <time>2018-11-26T06:29:29Z</time>
      </trkpt>
      <trkpt lat="42.15527" lon="2.25388">
        <ele>1034.6</ele>
        <time>2018-11-26T06:29:30Z</time>
      </trkpt>
      <trkpt lat="42.15527" lon="2.25391">
        <ele>1035.2</ele>
        <time>2018-11-26T06:29:31Z</time>
      </trkpt>
      <trkpt lat="42.15528" lon="2.25394">
        <ele>1035.4</ele>
        <time>2018-11-26T06:29:32Z</time>
      </trkpt>
      <trkpt lat="42.15529" lon="2.25397">
        <ele>1035.9</ele>
        <time>2018-11-26T06:29:33Z</time>
      </trkpt>
      <trkpt lat="42.15531" lon="2.25399">
        <ele>1036.5</ele>
        <time>2018-11-26T06:29:34Z</time>
      </trkpt>
      <trkpt lat="42.15533" lon="2.25401">
        <ele>1036.5</ele>
        <time>2018-11-26T06:29:35Z</time>
      </trkpt>
      <trkpt lat="42.15535" lon="2.25404">
        <ele>1036.5</ele>
        <time>2018-11-26T06:29:36Z</time>
      </trkpt>
      <trkpt lat="42.15537" lon="2.25407">
        <ele>1036</ele>
        <time>2018-11-26T06:29:37Z</time>
      </trkpt>
      <trkpt lat="42.15538" lon="2.2541">
        <ele>1036</ele>
        <time>2018-11-26T06:29:38Z</time>
      </trkpt>
      <trkpt lat="42.15538" lon="2.25413">
        <ele>1036.5</ele>
        <time>2018-11-26T06:29:39Z</time>
      </trkpt>
      <trkpt lat="42.15532" lon="2.25422">
        <ele>1040</ele>
        <time>2018-11-26T06:29:43Z</time>
      </trkpt>
      <trkpt lat="42.15527" lon="2.25424">
        <ele>1042.5</ele>
        <time>2018-11-26T06:29:45Z</time>
      </trkpt>
      <trkpt lat="42.15525" lon="2.25426">
        <ele>1042.9</ele>
        <time>2018-11-26T06:29:46Z</time>
      </trkpt>
      <trkpt lat="42.1552" lon="2.25437">
        <ele>1046.4</ele>
        <time>2018-11-26T06:29:50Z</time>
      </trkpt>
      <trkpt lat="42.15517" lon="2.25437">
        <ele>1047.2</ele>
        <time>2018-11-26T06:29:51Z</time>
      </trkpt>
      <trkpt lat="42.15523" lon="2.25442">
        <ele>1050.6</ele>
        <time>2018-11-26T06:29:53Z</time>
      </trkpt>
      <trkpt lat="42.15525" lon="2.25446">
        <ele>1051.8</ele>
        <time>2018-11-26T06:29:55Z</time>
      </trkpt>
      <trkpt lat="42.15526" lon="2.25449">
        <ele>1052.2</ele>
        <time>2018-11-26T06:29:56Z</time>
      </trkpt>
      <trkpt lat="42.15526" lon="2.25451">
        <ele>1053.1</ele>
        <time>2018-11-26T06:29:56Z</time>
      </trkpt>
      <trkpt lat="42.15527" lon="2.25454">
        <ele>1053.9</ele>
        <time>2018-11-26T06:29:57Z</time>
      </trkpt>
      <trkpt lat="42.15526" lon="2.2546">
        <ele>1056.8</ele>
        <time>2018-11-26T06:29:59Z</time>
      </trkpt>
      <trkpt lat="42.15529" lon="2.25473">
        <ele>1060</ele>
        <time>2018-11-26T06:30:03Z</time>
      </trkpt>
      <trkpt lat="42.15529" lon="2.25475">
        <ele>1061.1</ele>
        <time>2018-11-26T06:30:04Z</time>
      </trkpt>
      <trkpt lat="42.15527" lon="2.25477">
        <ele>1061.4</ele>
        <time>2018-11-26T06:30:05Z</time>
      </trkpt>
      <trkpt lat="42.15526" lon="2.25479">
        <ele>1063.4</ele>
        <time>2018-11-26T06:30:06Z</time>
      </trkpt>
      <trkpt lat="42.15521" lon="2.25478">
        <ele>1064.4</ele>
        <time>2018-11-26T06:30:08Z</time>
      </trkpt>
      <trkpt lat="42.15519" lon="2.25478">
        <ele>1066</ele>
        <time>2018-11-26T06:30:08Z</time>
      </trkpt>
      <trkpt lat="42.15517" lon="2.25479">
        <ele>1066.9</ele>
        <time>2018-11-26T06:30:09Z</time>
      </trkpt>
      <trkpt lat="42.15519" lon="2.25481">
        <ele>1068.1</ele>
        <time>2018-11-26T06:30:10Z</time>
      </trkpt>
      <trkpt lat="42.15519" lon="2.25484">
        <ele>1068.1</ele>
        <time>2018-11-26T06:30:11Z</time>
      </trkpt>
      <trkpt lat="42.15518" lon="2.25487">
        <ele>1068.5</ele>
        <time>2018-11-26T06:30:11Z</time>
      </trkpt>
      <trkpt lat="42.1552" lon="2.25489">
        <ele>1068.5</ele>
        <time>2018-11-26T06:30:12Z</time>
      </trkpt>
      <trkpt lat="42.15522" lon="2.25493">
        <ele>1070</ele>
        <time>2018-11-26T06:30:14Z</time>
      </trkpt>
      <trkpt lat="42.15524" lon="2.25495">
        <ele>1070.1</ele>
        <time>2018-11-26T06:30:15Z</time>
      </trkpt>
      <trkpt lat="42.15527" lon="2.25499">
        <ele>1070.1</ele>
        <time>2018-11-26T06:30:16Z</time>
      </trkpt>
      <trkpt lat="42.15533" lon="2.25509">
        <ele>1070.1</ele>
        <time>2018-11-26T06:30:20Z</time>
      </trkpt>
      <trkpt lat="42.15535" lon="2.25512">
        <ele>1070.1</ele>
        <time>2018-11-26T06:30:21Z</time>
      </trkpt>
      <trkpt lat="42.15541" lon="2.25522">
        <ele>1071.2</ele>
        <time>2018-11-26T06:30:25Z</time>
      </trkpt>
      <trkpt lat="42.15546" lon="2.25535">
        <ele>1071.1</ele>
        <time>2018-11-26T06:30:30Z</time>
      </trkpt>
      <trkpt lat="42.1555" lon="2.25546">
        <ele>1070.2</ele>
        <time>2018-11-26T06:30:33Z</time>
      </trkpt>
      <trkpt lat="42.15553" lon="2.2555">
        <ele>1070.2</ele>
        <time>2018-11-26T06:30:35Z</time>
      </trkpt>
      <trkpt lat="42.15558" lon="2.25562">
        <ele>1070.6</ele>
        <time>2018-11-26T06:30:39Z</time>
      </trkpt>
      <trkpt lat="42.1556" lon="2.25574">
        <ele>1070.6</ele>
        <time>2018-11-26T06:30:43Z</time>
      </trkpt>
      <trkpt lat="42.15563" lon="2.25587">
        <ele>1070.6</ele>
        <time>2018-11-26T06:30:47Z</time>
      </trkpt>
      <trkpt lat="42.15569" lon="2.25597">
        <ele>1072.1</ele>
        <time>2018-11-26T06:30:50Z</time>
      </trkpt>
      <trkpt lat="42.15573" lon="2.25609">
        <ele>1072.1</ele>
        <time>2018-11-26T06:30:54Z</time>
      </trkpt>
      <trkpt lat="42.15581" lon="2.25619">
        <ele>1071.5</ele>
        <time>2018-11-26T06:30:59Z</time>
      </trkpt>
      <trkpt lat="42.15588" lon="2.2563">
        <ele>1071.5</ele>
        <time>2018-11-26T06:31:03Z</time>
      </trkpt>
      <trkpt lat="42.15593" lon="2.25641">
        <ele>1072.1</ele>
        <time>2018-11-26T06:31:07Z</time>
      </trkpt>
      <trkpt lat="42.15594" lon="2.2565">
        <ele>1072.4</ele>
        <time>2018-11-26T06:31:10Z</time>
      </trkpt>
      <trkpt lat="42.15595" lon="2.25653">
        <ele>1072.2</ele>
        <time>2018-11-26T06:31:11Z</time>
      </trkpt>
      <trkpt lat="42.15596" lon="2.25657">
        <ele>1072.1</ele>
        <time>2018-11-26T06:31:12Z</time>
      </trkpt>
      <trkpt lat="42.15596" lon="2.2566">
        <ele>1072.4</ele>
        <time>2018-11-26T06:31:13Z</time>
      </trkpt>
      <trkpt lat="42.15597" lon="2.25662">
        <ele>1072.5</ele>
        <time>2018-11-26T06:31:13Z</time>
      </trkpt>
      <trkpt lat="42.15597" lon="2.25665">
        <ele>1072.2</ele>
        <time>2018-11-26T06:31:14Z</time>
      </trkpt>
      <trkpt lat="42.15598" lon="2.25668">
        <ele>1072.5</ele>
        <time>2018-11-26T06:31:15Z</time>
      </trkpt>
      <trkpt lat="42.15602" lon="2.25679">
        <ele>1072</ele>
        <time>2018-11-26T06:31:19Z</time>
      </trkpt>
      <trkpt lat="42.15608" lon="2.25689">
        <ele>1071.8</ele>
        <time>2018-11-26T06:31:22Z</time>
      </trkpt>
      <trkpt lat="42.15609" lon="2.25691">
        <ele>1071.8</ele>
        <time>2018-11-26T06:31:23Z</time>
      </trkpt>
      <trkpt lat="42.15611" lon="2.25693">
        <ele>1072</ele>
        <time>2018-11-26T06:31:24Z</time>
      </trkpt>
      <trkpt lat="42.15613" lon="2.25695">
        <ele>1072.2</ele>
        <time>2018-11-26T06:31:25Z</time>
      </trkpt>
      <trkpt lat="42.15614" lon="2.25697">
        <ele>1072.2</ele>
        <time>2018-11-26T06:31:26Z</time>
      </trkpt>
      <trkpt lat="42.15616" lon="2.25699">
        <ele>1072.2</ele>
        <time>2018-11-26T06:31:27Z</time>
      </trkpt>
      <trkpt lat="42.15617" lon="2.25702">
        <ele>1072.5</ele>
        <time>2018-11-26T06:31:28Z</time>
      </trkpt>
      <trkpt lat="42.15619" lon="2.25705">
        <ele>1072.3</ele>
        <time>2018-11-26T06:31:29Z</time>
      </trkpt>
      <trkpt lat="42.1562" lon="2.25707">
        <ele>1072.5</ele>
        <time>2018-11-26T06:31:30Z</time>
      </trkpt>
      <trkpt lat="42.15621" lon="2.2571">
        <ele>1072.4</ele>
        <time>2018-11-26T06:31:31Z</time>
      </trkpt>
      <trkpt lat="42.15622" lon="2.25712">
        <ele>1072.1</ele>
        <time>2018-11-26T06:31:32Z</time>
      </trkpt>
      <trkpt lat="42.15623" lon="2.25714">
        <ele>1072.1</ele>
        <time>2018-11-26T06:31:32Z</time>
      </trkpt>
      <trkpt lat="42.15625" lon="2.25716">
        <ele>1072.4</ele>
        <time>2018-11-26T06:31:33Z</time>
      </trkpt>
      <trkpt lat="42.15627" lon="2.25719">
        <ele>1073.1</ele>
        <time>2018-11-26T06:31:34Z</time>
      </trkpt>
      <trkpt lat="42.15629" lon="2.25723">
        <ele>1072.5</ele>
        <time>2018-11-26T06:31:36Z</time>
      </trkpt>
      <trkpt lat="42.15629" lon="2.25726">
        <ele>1073.1</ele>
        <time>2018-11-26T06:31:37Z</time>
      </trkpt>
      <trkpt lat="42.15628" lon="2.2573">
        <ele>1073.4</ele>
        <time>2018-11-26T06:31:38Z</time>
      </trkpt>
      <trkpt lat="42.15628" lon="2.25733">
        <ele>1074</ele>
        <time>2018-11-26T06:31:39Z</time>
      </trkpt>
      <trkpt lat="42.15629" lon="2.25736">
        <ele>1074.4</ele>
        <time>2018-11-26T06:31:40Z</time>
      </trkpt>
      <trkpt lat="42.1563" lon="2.25742">
        <ele>1074.4</ele>
        <time>2018-11-26T06:31:41Z</time>
      </trkpt>
      <trkpt lat="42.15632" lon="2.25753">
        <ele>1075.6</ele>
        <time>2018-11-26T06:31:45Z</time>
      </trkpt>
      <trkpt lat="42.15636" lon="2.25761">
        <ele>1078.2</ele>
        <time>2018-11-26T06:31:48Z</time>
      </trkpt>
      <trkpt lat="42.15638" lon="2.25764">
        <ele>1079.1</ele>
        <time>2018-11-26T06:31:49Z</time>
      </trkpt>
      <trkpt lat="42.15641" lon="2.25771">
        <ele>1081.1</ele>
        <time>2018-11-26T06:31:51Z</time>
      </trkpt>
      <trkpt lat="42.1564" lon="2.25773">
        <ele>1082.4</ele>
        <time>2018-11-26T06:31:52Z</time>
      </trkpt>
      <trkpt lat="42.15641" lon="2.25776">
        <ele>1083.4</ele>
        <time>2018-11-26T06:31:53Z</time>
      </trkpt>
      <trkpt lat="42.15645" lon="2.25787">
        <ele>1085.9</ele>
        <time>2018-11-26T06:31:57Z</time>
      </trkpt>
      <trkpt lat="42.15651" lon="2.25796">
        <ele>1089.1</ele>
        <time>2018-11-26T06:32:00Z</time>
      </trkpt>
      <trkpt lat="42.15657" lon="2.25806">
        <ele>1092.1</ele>
        <time>2018-11-26T06:32:04Z</time>
      </trkpt>
      <trkpt lat="42.15649" lon="2.25813">
        <ele>1096.4</ele>
        <time>2018-11-26T06:32:08Z</time>
      </trkpt>
      <trkpt lat="42.15648" lon="2.25817">
        <ele>1098.9</ele>
        <time>2018-11-26T06:32:09Z</time>
      </trkpt>
      <trkpt lat="42.15646" lon="2.25819">
        <ele>1099.9</ele>
        <time>2018-11-26T06:32:10Z</time>
      </trkpt>
      <trkpt lat="42.15644" lon="2.2582">
        <ele>1100</ele>
        <time>2018-11-26T06:32:11Z</time>
      </trkpt>
      <trkpt lat="42.15638" lon="2.2583">
        <ele>1100.4</ele>
        <time>2018-11-26T06:32:15Z</time>
      </trkpt>
      <trkpt lat="42.15639" lon="2.25834">
        <ele>1100.5</ele>
        <time>2018-11-26T06:32:16Z</time>
      </trkpt>
      <trkpt lat="42.1564" lon="2.25837">
        <ele>1100.6</ele>
        <time>2018-11-26T06:32:17Z</time>
      </trkpt>
      <trkpt lat="42.1564" lon="2.25839">
        <ele>1102.4</ele>
        <time>2018-11-26T06:32:18Z</time>
      </trkpt>
      <trkpt lat="42.15641" lon="2.25842">
        <ele>1103.3</ele>
        <time>2018-11-26T06:32:19Z</time>
      </trkpt>
      <trkpt lat="42.15643" lon="2.25843">
        <ele>1103.8</ele>
        <time>2018-11-26T06:32:20Z</time>
      </trkpt>
      <trkpt lat="42.15644" lon="2.25846">
        <ele>1104.6</ele>
        <time>2018-11-26T06:32:21Z</time>
      </trkpt>
      <trkpt lat="42.15647" lon="2.25849">
        <ele>1104.1</ele>
        <time>2018-11-26T06:32:22Z</time>
      </trkpt>
      <trkpt lat="42.15648" lon="2.2585">
        <ele>1104.6</ele>
        <time>2018-11-26T06:32:23Z</time>
      </trkpt>
      <trkpt lat="42.15651" lon="2.25851">
        <ele>1104.5</ele>
        <time>2018-11-26T06:32:24Z</time>
      </trkpt>
      <trkpt lat="42.15653" lon="2.25853">
        <ele>1104.5</ele>
        <time>2018-11-26T06:32:25Z</time>
      </trkpt>
      <trkpt lat="42.15655" lon="2.25855">
        <ele>1105.2</ele>
        <time>2018-11-26T06:32:26Z</time>
      </trkpt>
      <trkpt lat="42.15658" lon="2.25858">
        <ele>1104.4</ele>
        <time>2018-11-26T06:32:27Z</time>
      </trkpt>
      <trkpt lat="42.15659" lon="2.2586">
        <ele>1105.4</ele>
        <time>2018-11-26T06:32:28Z</time>
      </trkpt>
      <trkpt lat="42.15662" lon="2.25863">
        <ele>1105.4</ele>
        <time>2018-11-26T06:32:30Z</time>
      </trkpt>
      <trkpt lat="42.15664" lon="2.25865">
        <ele>1105.4</ele>
        <time>2018-11-26T06:32:30Z</time>
      </trkpt>
      <trkpt lat="42.15665" lon="2.25866">
        <ele>1105.4</ele>
        <time>2018-11-26T06:32:31Z</time>
      </trkpt>
      <trkpt lat="42.15668" lon="2.25869">
        <ele>1105.5</ele>
        <time>2018-11-26T06:32:33Z</time>
      </trkpt>
      <trkpt lat="42.1567" lon="2.25871">
        <ele>1106</ele>
        <time>2018-11-26T06:32:33Z</time>
      </trkpt>
      <trkpt lat="42.15671" lon="2.25872">
        <ele>1106</ele>
        <time>2018-11-26T06:32:34Z</time>
      </trkpt>
      <trkpt lat="42.15677" lon="2.25877">
        <ele>1106.5</ele>
        <time>2018-11-26T06:32:37Z</time>
      </trkpt>
      <trkpt lat="42.15685" lon="2.25884">
        <ele>1107.1</ele>
        <time>2018-11-26T06:32:41Z</time>
      </trkpt>
      <trkpt lat="42.15687" lon="2.25888">
        <ele>1107.8</ele>
        <time>2018-11-26T06:32:42Z</time>
      </trkpt>
      <trkpt lat="42.15689" lon="2.2589">
        <ele>1108</ele>
        <time>2018-11-26T06:32:43Z</time>
      </trkpt>
      <trkpt lat="42.15692" lon="2.25893">
        <ele>1108.1</ele>
        <time>2018-11-26T06:32:45Z</time>
      </trkpt>
      <trkpt lat="42.15695" lon="2.25895">
        <ele>1108</ele>
        <time>2018-11-26T06:32:46Z</time>
      </trkpt>
      <trkpt lat="42.15698" lon="2.25897">
        <ele>1108.2</ele>
        <time>2018-11-26T06:32:47Z</time>
      </trkpt>
      <trkpt lat="42.15705" lon="2.25904">
        <ele>1109.1</ele>
        <time>2018-11-26T06:32:51Z</time>
      </trkpt>
      <trkpt lat="42.15709" lon="2.25917">
        <ele>1110.8</ele>
        <time>2018-11-26T06:32:55Z</time>
      </trkpt>
      <trkpt lat="42.15711" lon="2.25926">
        <ele>1111.1</ele>
        <time>2018-11-26T06:32:58Z</time>
      </trkpt>
      <trkpt lat="42.15712" lon="2.25929">
        <ele>1111.8</ele>
        <time>2018-11-26T06:32:59Z</time>
      </trkpt>
      <trkpt lat="42.15711" lon="2.25932">
        <ele>1112.1</ele>
        <time>2018-11-26T06:33:00Z</time>
      </trkpt>
      <trkpt lat="42.15708" lon="2.25933">
        <ele>1112</ele>
        <time>2018-11-26T06:33:01Z</time>
      </trkpt>
      <trkpt lat="42.15708" lon="2.25937">
        <ele>1112.2</ele>
        <time>2018-11-26T06:33:02Z</time>
      </trkpt>
      <trkpt lat="42.15708" lon="2.25939">
        <ele>1113.1</ele>
        <time>2018-11-26T06:33:03Z</time>
      </trkpt>
      <trkpt lat="42.15709" lon="2.25942">
        <ele>1113.1</ele>
        <time>2018-11-26T06:33:03Z</time>
      </trkpt>
      <trkpt lat="42.1571" lon="2.25946">
        <ele>1114</ele>
        <time>2018-11-26T06:33:05Z</time>
      </trkpt>
      <trkpt lat="42.15712" lon="2.25948">
        <ele>1114.6</ele>
        <time>2018-11-26T06:33:06Z</time>
      </trkpt>
      <trkpt lat="42.15713" lon="2.25951">
        <ele>1115.1</ele>
        <time>2018-11-26T06:33:06Z</time>
      </trkpt>
      <trkpt lat="42.15714" lon="2.25952">
        <ele>1115</ele>
        <time>2018-11-26T06:33:07Z</time>
      </trkpt>
      <trkpt lat="42.15715" lon="2.25955">
        <ele>1115.5</ele>
        <time>2018-11-26T06:33:08Z</time>
      </trkpt>
      <trkpt lat="42.15716" lon="2.25959">
        <ele>1116.6</ele>
        <time>2018-11-26T06:33:09Z</time>
      </trkpt>
      <trkpt lat="42.15721" lon="2.25964">
        <ele>1118.6</ele>
        <time>2018-11-26T06:33:12Z</time>
      </trkpt>
      <trkpt lat="42.15726" lon="2.25971">
        <ele>1121.4</ele>
        <time>2018-11-26T06:33:15Z</time>
      </trkpt>
      <trkpt lat="42.15729" lon="2.25979">
        <ele>1122.9</ele>
        <time>2018-11-26T06:33:17Z</time>
      </trkpt>
      <trkpt lat="42.15735" lon="2.25989">
        <ele>1126.4</ele>
        <time>2018-11-26T06:33:21Z</time>
      </trkpt>
      <trkpt lat="42.15736" lon="2.26002">
        <ele>1127.9</ele>
        <time>2018-11-26T06:33:25Z</time>
      </trkpt>
      <trkpt lat="42.1574" lon="2.26015">
        <ele>1128.5</ele>
        <time>2018-11-26T06:33:29Z</time>
      </trkpt>
      <trkpt lat="42.15743" lon="2.26019">
        <ele>1128.5</ele>
        <time>2018-11-26T06:33:31Z</time>
      </trkpt>
      <trkpt lat="42.15745" lon="2.26022">
        <ele>1128.5</ele>
        <time>2018-11-26T06:33:32Z</time>
      </trkpt>
      <trkpt lat="42.15749" lon="2.26033">
        <ele>1128.2</ele>
        <time>2018-11-26T06:33:36Z</time>
      </trkpt>
      <trkpt lat="42.15753" lon="2.26041">
        <ele>1129</ele>
        <time>2018-11-26T06:33:38Z</time>
      </trkpt>
      <trkpt lat="42.15755" lon="2.26042">
        <ele>1129.5</ele>
        <time>2018-11-26T06:33:39Z</time>
      </trkpt>
      <trkpt lat="42.15753" lon="2.26055">
        <ele>1131.8</ele>
        <time>2018-11-26T06:33:43Z</time>
      </trkpt>
      <trkpt lat="42.15749" lon="2.26067">
        <ele>1133.5</ele>
        <time>2018-11-26T06:33:47Z</time>
      </trkpt>
      <trkpt lat="42.15747" lon="2.2608">
        <ele>1134.6</ele>
        <time>2018-11-26T06:33:51Z</time>
      </trkpt>
      <trkpt lat="42.15747" lon="2.26088">
        <ele>1137.2</ele>
        <time>2018-11-26T06:33:53Z</time>
      </trkpt>
      <trkpt lat="42.15751" lon="2.26093">
        <ele>1139.6</ele>
        <time>2018-11-26T06:33:56Z</time>
      </trkpt>
      <trkpt lat="42.15753" lon="2.26094">
        <ele>1139.8</ele>
        <time>2018-11-26T06:33:57Z</time>
      </trkpt>
      <trkpt lat="42.15756" lon="2.26094">
        <ele>1140.2</ele>
        <time>2018-11-26T06:33:58Z</time>
      </trkpt>
      <trkpt lat="42.15758" lon="2.26093">
        <ele>1140.9</ele>
        <time>2018-11-26T06:33:58Z</time>
      </trkpt>
      <trkpt lat="42.1576" lon="2.26093">
        <ele>1141.5</ele>
        <time>2018-11-26T06:33:59Z</time>
      </trkpt>
      <trkpt lat="42.15762" lon="2.26093">
        <ele>1141.5</ele>
        <time>2018-11-26T06:34:00Z</time>
      </trkpt>
      <trkpt lat="42.15764" lon="2.26095">
        <ele>1141.8</ele>
        <time>2018-11-26T06:34:01Z</time>
      </trkpt>
      <trkpt lat="42.1577" lon="2.26105">
        <ele>1143.5</ele>
        <time>2018-11-26T06:34:05Z</time>
      </trkpt>
      <trkpt lat="42.15774" lon="2.26116">
        <ele>1148</ele>
        <time>2018-11-26T06:34:08Z</time>
      </trkpt>
      <trkpt lat="42.15775" lon="2.26124">
        <ele>1151.2</ele>
        <time>2018-11-26T06:34:11Z</time>
      </trkpt>
      <trkpt lat="42.15776" lon="2.26126">
        <ele>1152.1</ele>
        <time>2018-11-26T06:34:12Z</time>
      </trkpt>
      <trkpt lat="42.15777" lon="2.26129">
        <ele>1152.8</ele>
        <time>2018-11-26T06:34:12Z</time>
      </trkpt>
      <trkpt lat="42.15784" lon="2.26133">
        <ele>1158.5</ele>
        <time>2018-11-26T06:34:15Z</time>
      </trkpt>
      <trkpt lat="42.15785" lon="2.26135">
        <ele>1159</ele>
        <time>2018-11-26T06:34:16Z</time>
      </trkpt>
      <trkpt lat="42.15787" lon="2.26137">
        <ele>1159.6</ele>
        <time>2018-11-26T06:34:17Z</time>
      </trkpt>
      <trkpt lat="42.15788" lon="2.26139">
        <ele>1161.2</ele>
        <time>2018-11-26T06:34:18Z</time>
      </trkpt>
      <trkpt lat="42.15789" lon="2.2614">
        <ele>1161.9</ele>
        <time>2018-11-26T06:34:19Z</time>
      </trkpt>
      <trkpt lat="42.15791" lon="2.2614">
        <ele>1162.4</ele>
        <time>2018-11-26T06:34:19Z</time>
      </trkpt>
      <trkpt lat="42.15793" lon="2.2614">
        <ele>1164.1</ele>
        <time>2018-11-26T06:34:20Z</time>
      </trkpt>
      <trkpt lat="42.15796" lon="2.26138">
        <ele>1165.1</ele>
        <time>2018-11-26T06:34:21Z</time>
      </trkpt>
      <trkpt lat="42.15798" lon="2.26139">
        <ele>1165.2</ele>
        <time>2018-11-26T06:34:22Z</time>
      </trkpt>
      <trkpt lat="42.158" lon="2.26141">
        <ele>1165.9</ele>
        <time>2018-11-26T06:34:23Z</time>
      </trkpt>
      <trkpt lat="42.15801" lon="2.26144">
        <ele>1166.4</ele>
        <time>2018-11-26T06:34:24Z</time>
      </trkpt>
      <trkpt lat="42.15803" lon="2.26146">
        <ele>1166.5</ele>
        <time>2018-11-26T06:34:25Z</time>
      </trkpt>
      <trkpt lat="42.15805" lon="2.26148">
        <ele>1167.5</ele>
        <time>2018-11-26T06:34:26Z</time>
      </trkpt>
      <trkpt lat="42.15807" lon="2.2615">
        <ele>1168.1</ele>
        <time>2018-11-26T06:34:27Z</time>
      </trkpt>
      <trkpt lat="42.15808" lon="2.26151">
        <ele>1168</ele>
        <time>2018-11-26T06:34:28Z</time>
      </trkpt>
      <trkpt lat="42.15809" lon="2.26155">
        <ele>1168.5</ele>
        <time>2018-11-26T06:34:29Z</time>
      </trkpt>
      <trkpt lat="42.1581" lon="2.26157">
        <ele>1169.6</ele>
        <time>2018-11-26T06:34:29Z</time>
      </trkpt>
      <trkpt lat="42.15812" lon="2.26157">
        <ele>1172.9</ele>
        <time>2018-11-26T06:34:30Z</time>
      </trkpt>
      <trkpt lat="42.15814" lon="2.26158">
        <ele>1174.8</ele>
        <time>2018-11-26T06:34:31Z</time>
      </trkpt>
      <trkpt lat="42.15815" lon="2.2616">
        <ele>1176.1</ele>
        <time>2018-11-26T06:34:32Z</time>
      </trkpt>
      <trkpt lat="42.15817" lon="2.26162">
        <ele>1176.5</ele>
        <time>2018-11-26T06:34:33Z</time>
      </trkpt>
      <trkpt lat="42.15819" lon="2.26164">
        <ele>1177</ele>
        <time>2018-11-26T06:34:34Z</time>
      </trkpt>
      <trkpt lat="42.15821" lon="2.26166">
        <ele>1177.9</ele>
        <time>2018-11-26T06:34:35Z</time>
      </trkpt>
      <trkpt lat="42.15823" lon="2.26168">
        <ele>1178.1</ele>
        <time>2018-11-26T06:34:36Z</time>
      </trkpt>
      <trkpt lat="42.15825" lon="2.26169">
        <ele>1178.1</ele>
        <time>2018-11-26T06:34:36Z</time>
      </trkpt>
      <trkpt lat="42.15827" lon="2.2617">
        <ele>1178.8</ele>
        <time>2018-11-26T06:34:37Z</time>
      </trkpt>
      <trkpt lat="42.15829" lon="2.26172">
        <ele>1179</ele>
        <time>2018-11-26T06:34:38Z</time>
      </trkpt>
      <trkpt lat="42.15831" lon="2.26175">
        <ele>1179</ele>
        <time>2018-11-26T06:34:40Z</time>
      </trkpt>
      <trkpt lat="42.15833" lon="2.26177">
        <ele>1179.6</ele>
        <time>2018-11-26T06:34:41Z</time>
      </trkpt>
      <trkpt lat="42.15836" lon="2.2618">
        <ele>1179.6</ele>
        <time>2018-11-26T06:34:42Z</time>
      </trkpt>
      <trkpt lat="42.15837" lon="2.26182">
        <ele>1180</ele>
        <time>2018-11-26T06:34:43Z</time>
      </trkpt>
      <trkpt lat="42.15839" lon="2.26184">
        <ele>1180.1</ele>
        <time>2018-11-26T06:34:44Z</time>
      </trkpt>
      <trkpt lat="42.15841" lon="2.26186">
        <ele>1180.1</ele>
        <time>2018-11-26T06:34:45Z</time>
      </trkpt>
      <trkpt lat="42.15843" lon="2.26189">
        <ele>1180.5</ele>
        <time>2018-11-26T06:34:46Z</time>
      </trkpt>
      <trkpt lat="42.15844" lon="2.26191">
        <ele>1180.8</ele>
        <time>2018-11-26T06:34:47Z</time>
      </trkpt>
      <trkpt lat="42.15845" lon="2.26194">
        <ele>1181</ele>
        <time>2018-11-26T06:34:48Z</time>
      </trkpt>
      <trkpt lat="42.15847" lon="2.26197">
        <ele>1181.1</ele>
        <time>2018-11-26T06:34:49Z</time>
      </trkpt>
      <trkpt lat="42.15849" lon="2.262">
        <ele>1181.6</ele>
        <time>2018-11-26T06:34:50Z</time>
      </trkpt>
      <trkpt lat="42.15851" lon="2.26202">
        <ele>1181.8</ele>
        <time>2018-11-26T06:34:51Z</time>
      </trkpt>
      <trkpt lat="42.15853" lon="2.26203">
        <ele>1182.2</ele>
        <time>2018-11-26T06:34:52Z</time>
      </trkpt>
      <trkpt lat="42.15856" lon="2.26205">
        <ele>1182.4</ele>
        <time>2018-11-26T06:34:53Z</time>
      </trkpt>
      <trkpt lat="42.15858" lon="2.26207">
        <ele>1182.2</ele>
        <time>2018-11-26T06:34:54Z</time>
      </trkpt>
      <trkpt lat="42.1586" lon="2.26208">
        <ele>1182.1</ele>
        <time>2018-11-26T06:34:55Z</time>
      </trkpt>
      <trkpt lat="42.15863" lon="2.2621">
        <ele>1182.4</ele>
        <time>2018-11-26T06:34:56Z</time>
      </trkpt>
      <trkpt lat="42.15865" lon="2.26211">
        <ele>1182.5</ele>
        <time>2018-11-26T06:34:57Z</time>
      </trkpt>
      <trkpt lat="42.15868" lon="2.26213">
        <ele>1183.2</ele>
        <time>2018-11-26T06:34:59Z</time>
      </trkpt>
      <trkpt lat="42.1587" lon="2.26215">
        <ele>1183.4</ele>
        <time>2018-11-26T06:35:00Z</time>
      </trkpt>
      <trkpt lat="42.15873" lon="2.26216">
        <ele>1183.4</ele>
        <time>2018-11-26T06:35:01Z</time>
      </trkpt>
      <trkpt lat="42.15875" lon="2.26217">
        <ele>1184</ele>
        <time>2018-11-26T06:35:02Z</time>
      </trkpt>
      <trkpt lat="42.15877" lon="2.26218">
        <ele>1184.1</ele>
        <time>2018-11-26T06:35:03Z</time>
      </trkpt>
      <trkpt lat="42.1588" lon="2.26218">
        <ele>1184.4</ele>
        <time>2018-11-26T06:35:04Z</time>
      </trkpt>
      <trkpt lat="42.15882" lon="2.26218">
        <ele>1184.8</ele>
        <time>2018-11-26T06:35:05Z</time>
      </trkpt>
      <trkpt lat="42.15884" lon="2.26218">
        <ele>1184.8</ele>
        <time>2018-11-26T06:35:05Z</time>
      </trkpt>
      <trkpt lat="42.15887" lon="2.26219">
        <ele>1185.4</ele>
        <time>2018-11-26T06:35:07Z</time>
      </trkpt>
      <trkpt lat="42.1589" lon="2.26222">
        <ele>1186.1</ele>
        <time>2018-11-26T06:35:08Z</time>
      </trkpt>
      <trkpt lat="42.15892" lon="2.26224">
        <ele>1187.1</ele>
        <time>2018-11-26T06:35:09Z</time>
      </trkpt>
      <trkpt lat="42.15894" lon="2.26226">
        <ele>1187.2</ele>
        <time>2018-11-26T06:35:10Z</time>
      </trkpt>
      <trkpt lat="42.15896" lon="2.26228">
        <ele>1187.6</ele>
        <time>2018-11-26T06:35:11Z</time>
      </trkpt>
      <trkpt lat="42.15898" lon="2.26229">
        <ele>1187.6</ele>
        <time>2018-11-26T06:35:12Z</time>
      </trkpt>
      <trkpt lat="42.15891" lon="2.26236">
        <ele>1190.6</ele>
        <time>2018-11-26T06:35:16Z</time>
      </trkpt>
      <trkpt lat="42.15889" lon="2.2624">
        <ele>1192</ele>
        <time>2018-11-26T06:35:17Z</time>
      </trkpt>
      <trkpt lat="42.15891" lon="2.26241">
        <ele>1193.1</ele>
        <time>2018-11-26T06:35:18Z</time>
      </trkpt>
      <trkpt lat="42.15893" lon="2.26243">
        <ele>1193.6</ele>
        <time>2018-11-26T06:35:19Z</time>
      </trkpt>
      <trkpt lat="42.15893" lon="2.26247">
        <ele>1194.1</ele>
        <time>2018-11-26T06:35:20Z</time>
      </trkpt>
      <trkpt lat="42.15893" lon="2.2625">
        <ele>1194.4</ele>
        <time>2018-11-26T06:35:21Z</time>
      </trkpt>
      <trkpt lat="42.15894" lon="2.26252">
        <ele>1195</ele>
        <time>2018-11-26T06:35:22Z</time>
      </trkpt>
      <trkpt lat="42.15895" lon="2.26254">
        <ele>1195.4</ele>
        <time>2018-11-26T06:35:22Z</time>
      </trkpt>
      <trkpt lat="42.15899" lon="2.26261">
        <ele>1197.5</ele>
        <time>2018-11-26T06:35:25Z</time>
      </trkpt>
      <trkpt lat="42.159" lon="2.26264">
        <ele>1198.4</ele>
        <time>2018-11-26T06:35:26Z</time>
      </trkpt>
      <trkpt lat="42.159" lon="2.26267">
        <ele>1198.4</ele>
        <time>2018-11-26T06:35:27Z</time>
      </trkpt>
      <trkpt lat="42.159" lon="2.2627">
        <ele>1198.4</ele>
        <time>2018-11-26T06:35:28Z</time>
      </trkpt>
      <trkpt lat="42.159" lon="2.26273">
        <ele>1198.5</ele>
        <time>2018-11-26T06:35:29Z</time>
      </trkpt>
      <trkpt lat="42.15902" lon="2.26275">
        <ele>1198.4</ele>
        <time>2018-11-26T06:35:29Z</time>
      </trkpt>
      <trkpt lat="42.15904" lon="2.26273">
        <ele>1199.1</ele>
        <time>2018-11-26T06:35:30Z</time>
      </trkpt>
      <trkpt lat="42.15905" lon="2.26274">
        <ele>1202.8</ele>
        <time>2018-11-26T06:35:31Z</time>
      </trkpt>
      <trkpt lat="42.15908" lon="2.26272">
        <ele>1202.9</ele>
        <time>2018-11-26T06:35:32Z</time>
      </trkpt>
      <trkpt lat="42.15909" lon="2.2627">
        <ele>1204.9</ele>
        <time>2018-11-26T06:35:33Z</time>
      </trkpt>
      <trkpt lat="42.15911" lon="2.26268">
        <ele>1205</ele>
        <time>2018-11-26T06:35:34Z</time>
      </trkpt>
      <trkpt lat="42.15912" lon="2.26269">
        <ele>1205.4</ele>
        <time>2018-11-26T06:35:35Z</time>
      </trkpt>
      <trkpt lat="42.15914" lon="2.26273">
        <ele>1206.1</ele>
        <time>2018-11-26T06:35:36Z</time>
      </trkpt>
      <trkpt lat="42.15915" lon="2.26274">
        <ele>1206.5</ele>
        <time>2018-11-26T06:35:37Z</time>
      </trkpt>
      <trkpt lat="42.15917" lon="2.26277">
        <ele>1208.1</ele>
        <time>2018-11-26T06:35:38Z</time>
      </trkpt>
      <trkpt lat="42.15919" lon="2.26279">
        <ele>1208.2</ele>
        <time>2018-11-26T06:35:39Z</time>
      </trkpt>
      <trkpt lat="42.15921" lon="2.26279">
        <ele>1208.4</ele>
        <time>2018-11-26T06:35:39Z</time>
      </trkpt>
      <trkpt lat="42.15923" lon="2.2628">
        <ele>1209.1</ele>
        <time>2018-11-26T06:35:40Z</time>
      </trkpt>
      <trkpt lat="42.15926" lon="2.26281">
        <ele>1209.6</ele>
        <time>2018-11-26T06:35:41Z</time>
      </trkpt>
      <trkpt lat="42.15927" lon="2.26283">
        <ele>1209.8</ele>
        <time>2018-11-26T06:35:42Z</time>
      </trkpt>
      <trkpt lat="42.15926" lon="2.26285">
        <ele>1211.2</ele>
        <time>2018-11-26T06:35:43Z</time>
      </trkpt>
      <trkpt lat="42.15925" lon="2.26288">
        <ele>1211.6</ele>
        <time>2018-11-26T06:35:44Z</time>
      </trkpt>
      <trkpt lat="42.15932" lon="2.26291">
        <ele>1213.4</ele>
        <time>2018-11-26T06:35:47Z</time>
      </trkpt>
      <trkpt lat="42.15935" lon="2.26292">
        <ele>1214.4</ele>
        <time>2018-11-26T06:35:48Z</time>
      </trkpt>
      <trkpt lat="42.15937" lon="2.26295">
        <ele>1215.1</ele>
        <time>2018-11-26T06:35:49Z</time>
      </trkpt>
      <trkpt lat="42.15936" lon="2.26298">
        <ele>1216.8</ele>
        <time>2018-11-26T06:35:50Z</time>
      </trkpt>
      <trkpt lat="42.15938" lon="2.263">
        <ele>1217.9</ele>
        <time>2018-11-26T06:35:51Z</time>
      </trkpt>
      <trkpt lat="42.1594" lon="2.26303">
        <ele>1218.5</ele>
        <time>2018-11-26T06:35:52Z</time>
      </trkpt>
      <trkpt lat="42.15941" lon="2.26305">
        <ele>1219</ele>
        <time>2018-11-26T06:35:53Z</time>
      </trkpt>
      <trkpt lat="42.15942" lon="2.26309">
        <ele>1219.9</ele>
        <time>2018-11-26T06:35:54Z</time>
      </trkpt>
      <trkpt lat="42.15941" lon="2.26312">
        <ele>1221</ele>
        <time>2018-11-26T06:35:55Z</time>
      </trkpt>
      <trkpt lat="42.15942" lon="2.26314">
        <ele>1222.8</ele>
        <time>2018-11-26T06:35:56Z</time>
      </trkpt>
      <trkpt lat="42.15944" lon="2.26313">
        <ele>1224.5</ele>
        <time>2018-11-26T06:35:56Z</time>
      </trkpt>
      <trkpt lat="42.15946" lon="2.26314">
        <ele>1224.8</ele>
        <time>2018-11-26T06:35:57Z</time>
      </trkpt>
      <trkpt lat="42.15947" lon="2.26317">
        <ele>1225.8</ele>
        <time>2018-11-26T06:35:58Z</time>
      </trkpt>
      <trkpt lat="42.15948" lon="2.26319">
        <ele>1226.5</ele>
        <time>2018-11-26T06:35:59Z</time>
      </trkpt>
      <trkpt lat="42.15949" lon="2.26322">
        <ele>1227.5</ele>
        <time>2018-11-26T06:36:00Z</time>
      </trkpt>
      <trkpt lat="42.1595" lon="2.26324">
        <ele>1228</ele>
        <time>2018-11-26T06:36:01Z</time>
      </trkpt>
      <trkpt lat="42.15952" lon="2.26327">
        <ele>1228</ele>
        <time>2018-11-26T06:36:02Z</time>
      </trkpt>
      <trkpt lat="42.15953" lon="2.2633">
        <ele>1228.6</ele>
        <time>2018-11-26T06:36:03Z</time>
      </trkpt>
      <trkpt lat="42.15955" lon="2.26333">
        <ele>1228.5</ele>
        <time>2018-11-26T06:36:04Z</time>
      </trkpt>
      <trkpt lat="42.15955" lon="2.26336">
        <ele>1228.6</ele>
        <time>2018-11-26T06:36:05Z</time>
      </trkpt>
      <trkpt lat="42.15956" lon="2.26338">
        <ele>1228.2</ele>
        <time>2018-11-26T06:36:06Z</time>
      </trkpt>
      <trkpt lat="42.15958" lon="2.2634">
        <ele>1228.8</ele>
        <time>2018-11-26T06:36:07Z</time>
      </trkpt>
      <trkpt lat="42.1596" lon="2.2634">
        <ele>1230.1</ele>
        <time>2018-11-26T06:36:07Z</time>
      </trkpt>
      <trkpt lat="42.15962" lon="2.2634">
        <ele>1232.1</ele>
        <time>2018-11-26T06:36:08Z</time>
      </trkpt>
      <trkpt lat="42.15965" lon="2.26343">
        <ele>1234.4</ele>
        <time>2018-11-26T06:36:10Z</time>
      </trkpt>
      <trkpt lat="42.15966" lon="2.26346">
        <ele>1235.1</ele>
        <time>2018-11-26T06:36:11Z</time>
      </trkpt>
      <trkpt lat="42.15967" lon="2.26349">
        <ele>1236.4</ele>
        <time>2018-11-26T06:36:12Z</time>
      </trkpt>
      <trkpt lat="42.15969" lon="2.26351">
        <ele>1237.1</ele>
        <time>2018-11-26T06:36:13Z</time>
      </trkpt>
      <trkpt lat="42.1597" lon="2.26353">
        <ele>1238</ele>
        <time>2018-11-26T06:36:13Z</time>
      </trkpt>
      <trkpt lat="42.15971" lon="2.26355">
        <ele>1238.6</ele>
        <time>2018-11-26T06:36:14Z</time>
      </trkpt>
      <trkpt lat="42.15973" lon="2.26356">
        <ele>1239.1</ele>
        <time>2018-11-26T06:36:15Z</time>
      </trkpt>
      <trkpt lat="42.15975" lon="2.26357">
        <ele>1240.2</ele>
        <time>2018-11-26T06:36:16Z</time>
      </trkpt>
      <trkpt lat="42.15977" lon="2.26359">
        <ele>1241.2</ele>
        <time>2018-11-26T06:36:17Z</time>
      </trkpt>
      <trkpt lat="42.15979" lon="2.2636">
        <ele>1242.6</ele>
        <time>2018-11-26T06:36:17Z</time>
      </trkpt>
      <trkpt lat="42.15981" lon="2.26359">
        <ele>1243.5</ele>
        <time>2018-11-26T06:36:18Z</time>
      </trkpt>
      <trkpt lat="42.15983" lon="2.2636">
        <ele>1244</ele>
        <time>2018-11-26T06:36:19Z</time>
      </trkpt>
      <trkpt lat="42.15985" lon="2.26361">
        <ele>1245.4</ele>
        <time>2018-11-26T06:36:20Z</time>
      </trkpt>
      <trkpt lat="42.15987" lon="2.26361">
        <ele>1245.5</ele>
        <time>2018-11-26T06:36:21Z</time>
      </trkpt>
      <trkpt lat="42.15987" lon="2.26363">
        <ele>1246.5</ele>
        <time>2018-11-26T06:36:22Z</time>
      </trkpt>
      <trkpt lat="42.15987" lon="2.26366">
        <ele>1247.2</ele>
        <time>2018-11-26T06:36:22Z</time>
      </trkpt>
      <trkpt lat="42.15989" lon="2.26367">
        <ele>1248.5</ele>
        <time>2018-11-26T06:36:23Z</time>
      </trkpt>
      <trkpt lat="42.15991" lon="2.26368">
        <ele>1249.1</ele>
        <time>2018-11-26T06:36:24Z</time>
      </trkpt>
      <trkpt lat="42.15993" lon="2.26369">
        <ele>1249.5</ele>
        <time>2018-11-26T06:36:25Z</time>
      </trkpt>
      <trkpt lat="42.15995" lon="2.2637">
        <ele>1250.1</ele>
        <time>2018-11-26T06:36:26Z</time>
      </trkpt>
      <trkpt lat="42.15997" lon="2.26371">
        <ele>1250.8</ele>
        <time>2018-11-26T06:36:27Z</time>
      </trkpt>
      <trkpt lat="42.15998" lon="2.26373">
        <ele>1251.1</ele>
        <time>2018-11-26T06:36:27Z</time>
      </trkpt>
      <trkpt lat="42.16" lon="2.26373">
        <ele>1251.5</ele>
        <time>2018-11-26T06:36:28Z</time>
      </trkpt>
      <trkpt lat="42.16002" lon="2.26374">
        <ele>1252.9</ele>
        <time>2018-11-26T06:36:29Z</time>
      </trkpt>
      <trkpt lat="42.16004" lon="2.26375">
        <ele>1254.6</ele>
        <time>2018-11-26T06:36:30Z</time>
      </trkpt>
      <trkpt lat="42.16006" lon="2.26375">
        <ele>1254.8</ele>
        <time>2018-11-26T06:36:31Z</time>
      </trkpt>
      <trkpt lat="42.16008" lon="2.26376">
        <ele>1255.1</ele>
        <time>2018-11-26T06:36:31Z</time>
      </trkpt>
      <trkpt lat="42.16011" lon="2.26378">
        <ele>1256.8</ele>
        <time>2018-11-26T06:36:32Z</time>
      </trkpt>
      <trkpt lat="42.16012" lon="2.26379">
        <ele>1257.5</ele>
        <time>2018-11-26T06:36:33Z</time>
      </trkpt>
      <trkpt lat="42.16014" lon="2.26379">
        <ele>1258.1</ele>
        <time>2018-11-26T06:36:34Z</time>
      </trkpt>
      <trkpt lat="42.16016" lon="2.26379">
        <ele>1258.2</ele>
        <time>2018-11-26T06:36:35Z</time>
      </trkpt>
      <trkpt lat="42.16019" lon="2.2638">
        <ele>1258.5</ele>
        <time>2018-11-26T06:36:36Z</time>
      </trkpt>
      <trkpt lat="42.1602" lon="2.2638">
        <ele>1259.1</ele>
        <time>2018-11-26T06:36:36Z</time>
      </trkpt>
      <trkpt lat="42.16022" lon="2.26382">
        <ele>1259.2</ele>
        <time>2018-11-26T06:36:37Z</time>
      </trkpt>
      <trkpt lat="42.16025" lon="2.26383">
        <ele>1259.5</ele>
        <time>2018-11-26T06:36:38Z</time>
      </trkpt>
      <trkpt lat="42.16028" lon="2.26384">
        <ele>1259.8</ele>
        <time>2018-11-26T06:36:40Z</time>
      </trkpt>
      <trkpt lat="42.1603" lon="2.26385">
        <ele>1260.4</ele>
        <time>2018-11-26T06:36:40Z</time>
      </trkpt>
      <trkpt lat="42.16031" lon="2.26385">
        <ele>1260.8</ele>
        <time>2018-11-26T06:36:41Z</time>
      </trkpt>
      <trkpt lat="42.16034" lon="2.26386">
        <ele>1261</ele>
        <time>2018-11-26T06:36:42Z</time>
      </trkpt>
      <trkpt lat="42.16036" lon="2.26386">
        <ele>1261.9</ele>
        <time>2018-11-26T06:36:43Z</time>
      </trkpt>
      <trkpt lat="42.16039" lon="2.26385">
        <ele>1261.8</ele>
        <time>2018-11-26T06:36:44Z</time>
      </trkpt>
      <trkpt lat="42.16041" lon="2.26386">
        <ele>1262.1</ele>
        <time>2018-11-26T06:36:45Z</time>
      </trkpt>
      <trkpt lat="42.16043" lon="2.26387">
        <ele>1263</ele>
        <time>2018-11-26T06:36:46Z</time>
      </trkpt>
      <trkpt lat="42.16046" lon="2.26387">
        <ele>1263.5</ele>
        <time>2018-11-26T06:36:47Z</time>
      </trkpt>
      <trkpt lat="42.1605" lon="2.26389">
        <ele>1263.6</ele>
        <time>2018-11-26T06:36:49Z</time>
      </trkpt>
      <trkpt lat="42.16052" lon="2.26389">
        <ele>1263.9</ele>
        <time>2018-11-26T06:36:50Z</time>
      </trkpt>
      <trkpt lat="42.16055" lon="2.26389">
        <ele>1264.4</ele>
        <time>2018-11-26T06:36:51Z</time>
      </trkpt>
      <trkpt lat="42.16057" lon="2.26389">
        <ele>1264.8</ele>
        <time>2018-11-26T06:36:52Z</time>
      </trkpt>
      <trkpt lat="42.16059" lon="2.26389">
        <ele>1264.9</ele>
        <time>2018-11-26T06:36:53Z</time>
      </trkpt>
      <trkpt lat="42.16062" lon="2.2639">
        <ele>1264.8</ele>
        <time>2018-11-26T06:36:54Z</time>
      </trkpt>
      <trkpt lat="42.16064" lon="2.2639">
        <ele>1265.4</ele>
        <time>2018-11-26T06:36:55Z</time>
      </trkpt>
      <trkpt lat="42.16067" lon="2.26392">
        <ele>1266</ele>
        <time>2018-11-26T06:36:56Z</time>
      </trkpt>
      <trkpt lat="42.16069" lon="2.26393">
        <ele>1266.5</ele>
        <time>2018-11-26T06:36:57Z</time>
      </trkpt>
      <trkpt lat="42.16078" lon="2.26395">
        <ele>1268.1</ele>
        <time>2018-11-26T06:37:00Z</time>
      </trkpt>
      <trkpt lat="42.1608" lon="2.26394">
        <ele>1268.5</ele>
        <time>2018-11-26T06:37:01Z</time>
      </trkpt>
      <trkpt lat="42.16082" lon="2.26395">
        <ele>1268.9</ele>
        <time>2018-11-26T06:37:02Z</time>
      </trkpt>
      <trkpt lat="42.16085" lon="2.26396">
        <ele>1270.5</ele>
        <time>2018-11-26T06:37:03Z</time>
      </trkpt>
      <trkpt lat="42.16087" lon="2.26397">
        <ele>1270.5</ele>
        <time>2018-11-26T06:37:04Z</time>
      </trkpt>
      <trkpt lat="42.1609" lon="2.26397">
        <ele>1270.2</ele>
        <time>2018-11-26T06:37:05Z</time>
      </trkpt>
      <trkpt lat="42.16099" lon="2.26396">
        <ele>1272.1</ele>
        <time>2018-11-26T06:37:09Z</time>
      </trkpt>
      <trkpt lat="42.1611" lon="2.26398">
        <ele>1272.8</ele>
        <time>2018-11-26T06:37:13Z</time>
      </trkpt>
      <trkpt lat="42.1612" lon="2.26399">
        <ele>1273</ele>
        <time>2018-11-26T06:37:17Z</time>
      </trkpt>
      <trkpt lat="42.1613" lon="2.26398">
        <ele>1273.4</ele>
        <time>2018-11-26T06:37:21Z</time>
      </trkpt>
      <trkpt lat="42.16132" lon="2.26399">
        <ele>1273.4</ele>
        <time>2018-11-26T06:37:22Z</time>
      </trkpt>
      <trkpt lat="42.16134" lon="2.264">
        <ele>1273.2</ele>
        <time>2018-11-26T06:37:23Z</time>
      </trkpt>
      <trkpt lat="42.16136" lon="2.26401">
        <ele>1273.5</ele>
        <time>2018-11-26T06:37:24Z</time>
      </trkpt>
      <trkpt lat="42.16139" lon="2.26401">
        <ele>1273.8</ele>
        <time>2018-11-26T06:37:25Z</time>
      </trkpt>
      <trkpt lat="42.16141" lon="2.26401">
        <ele>1274.5</ele>
        <time>2018-11-26T06:37:26Z</time>
      </trkpt>
      <trkpt lat="42.16144" lon="2.26401">
        <ele>1275.1</ele>
        <time>2018-11-26T06:37:27Z</time>
      </trkpt>
      <trkpt lat="42.16147" lon="2.264">
        <ele>1275.1</ele>
        <time>2018-11-26T06:37:28Z</time>
      </trkpt>
      <trkpt lat="42.16148" lon="2.26399">
        <ele>1276.1</ele>
        <time>2018-11-26T06:37:29Z</time>
      </trkpt>
      <trkpt lat="42.1615" lon="2.26398">
        <ele>1276.6</ele>
        <time>2018-11-26T06:37:30Z</time>
      </trkpt>
      <trkpt lat="42.16153" lon="2.26398">
        <ele>1276.8</ele>
        <time>2018-11-26T06:37:31Z</time>
      </trkpt>
      <trkpt lat="42.16156" lon="2.26396">
        <ele>1277.1</ele>
        <time>2018-11-26T06:37:32Z</time>
      </trkpt>
      <trkpt lat="42.16159" lon="2.26396">
        <ele>1277.5</ele>
        <time>2018-11-26T06:37:33Z</time>
      </trkpt>
      <trkpt lat="42.16162" lon="2.26395">
        <ele>1277.8</ele>
        <time>2018-11-26T06:37:34Z</time>
      </trkpt>
      <trkpt lat="42.16163" lon="2.26393">
        <ele>1278.1</ele>
        <time>2018-11-26T06:37:35Z</time>
      </trkpt>
      <trkpt lat="42.16164" lon="2.2639">
        <ele>1277.8</ele>
        <time>2018-11-26T06:37:36Z</time>
      </trkpt>
      <trkpt lat="42.16165" lon="2.26386">
        <ele>1278</ele>
        <time>2018-11-26T06:37:37Z</time>
      </trkpt>
      <trkpt lat="42.16166" lon="2.26382">
        <ele>1278</ele>
        <time>2018-11-26T06:37:39Z</time>
      </trkpt>
      <trkpt lat="42.16168" lon="2.26379">
        <ele>1278.8</ele>
        <time>2018-11-26T06:37:40Z</time>
      </trkpt>
      <trkpt lat="42.16169" lon="2.26376">
        <ele>1279</ele>
        <time>2018-11-26T06:37:41Z</time>
      </trkpt>
      <trkpt lat="42.1617" lon="2.26373">
        <ele>1279.5</ele>
        <time>2018-11-26T06:37:42Z</time>
      </trkpt>
      <trkpt lat="42.16171" lon="2.2637">
        <ele>1279.5</ele>
        <time>2018-11-26T06:37:43Z</time>
      </trkpt>
      <trkpt lat="42.16171" lon="2.26366">
        <ele>1280</ele>
        <time>2018-11-26T06:37:44Z</time>
      </trkpt>
      <trkpt lat="42.16172" lon="2.26363">
        <ele>1280</ele>
        <time>2018-11-26T06:37:45Z</time>
      </trkpt>
      <trkpt lat="42.16172" lon="2.26359">
        <ele>1280</ele>
        <time>2018-11-26T06:37:46Z</time>
      </trkpt>
      <trkpt lat="42.16173" lon="2.26356">
        <ele>1280.5</ele>
        <time>2018-11-26T06:37:47Z</time>
      </trkpt>
      <trkpt lat="42.16173" lon="2.26353">
        <ele>1280.6</ele>
        <time>2018-11-26T06:37:48Z</time>
      </trkpt>
      <trkpt lat="42.16173" lon="2.2635">
        <ele>1281.1</ele>
        <time>2018-11-26T06:37:49Z</time>
      </trkpt>
      <trkpt lat="42.16174" lon="2.26347">
        <ele>1281.2</ele>
        <time>2018-11-26T06:37:50Z</time>
      </trkpt>
      <trkpt lat="42.16175" lon="2.26343">
        <ele>1281.9</ele>
        <time>2018-11-26T06:37:51Z</time>
      </trkpt>
      <trkpt lat="42.16176" lon="2.2634">
        <ele>1281.8</ele>
        <time>2018-11-26T06:37:52Z</time>
      </trkpt>
      <trkpt lat="42.16177" lon="2.26336">
        <ele>1281.9</ele>
        <time>2018-11-26T06:37:53Z</time>
      </trkpt>
      <trkpt lat="42.16178" lon="2.26333">
        <ele>1282.1</ele>
        <time>2018-11-26T06:37:54Z</time>
      </trkpt>
      <trkpt lat="42.1618" lon="2.2633">
        <ele>1282.4</ele>
        <time>2018-11-26T06:37:55Z</time>
      </trkpt>
      <trkpt lat="42.16181" lon="2.26327">
        <ele>1282.5</ele>
        <time>2018-11-26T06:37:56Z</time>
      </trkpt>
      <trkpt lat="42.16182" lon="2.26323">
        <ele>1283</ele>
        <time>2018-11-26T06:37:57Z</time>
      </trkpt>
      <trkpt lat="42.16183" lon="2.2632">
        <ele>1283.1</ele>
        <time>2018-11-26T06:37:59Z</time>
      </trkpt>
      <trkpt lat="42.16184" lon="2.26317">
        <ele>1283.6</ele>
        <time>2018-11-26T06:37:59Z</time>
      </trkpt>
      <trkpt lat="42.16184" lon="2.26313">
        <ele>1283.5</ele>
        <time>2018-11-26T06:38:01Z</time>
      </trkpt>
      <trkpt lat="42.16185" lon="2.2631">
        <ele>1284.2</ele>
        <time>2018-11-26T06:38:02Z</time>
      </trkpt>
      <trkpt lat="42.16185" lon="2.26308">
        <ele>1284.5</ele>
        <time>2018-11-26T06:38:02Z</time>
      </trkpt>
      <trkpt lat="42.16184" lon="2.26304">
        <ele>1285.1</ele>
        <time>2018-11-26T06:38:03Z</time>
      </trkpt>
      <trkpt lat="42.16184" lon="2.26301">
        <ele>1285.2</ele>
        <time>2018-11-26T06:38:04Z</time>
      </trkpt>
      <trkpt lat="42.16185" lon="2.26296">
        <ele>1285</ele>
        <time>2018-11-26T06:38:06Z</time>
      </trkpt>
      <trkpt lat="42.16185" lon="2.26292">
        <ele>1285.1</ele>
        <time>2018-11-26T06:38:07Z</time>
      </trkpt>
      <trkpt lat="42.16185" lon="2.2629">
        <ele>1285</ele>
        <time>2018-11-26T06:38:08Z</time>
      </trkpt>
      <trkpt lat="42.16187" lon="2.26285">
        <ele>1285.1</ele>
        <time>2018-11-26T06:38:09Z</time>
      </trkpt>
      <trkpt lat="42.16188" lon="2.26282">
        <ele>1285.1</ele>
        <time>2018-11-26T06:38:10Z</time>
      </trkpt>
      <trkpt lat="42.16188" lon="2.26279">
        <ele>1285.1</ele>
        <time>2018-11-26T06:38:11Z</time>
      </trkpt>
      <trkpt lat="42.16189" lon="2.26276">
        <ele>1286.1</ele>
        <time>2018-11-26T06:38:12Z</time>
      </trkpt>
      <trkpt lat="42.1619" lon="2.26274">
        <ele>1287.2</ele>
        <time>2018-11-26T06:38:13Z</time>
      </trkpt>
      <trkpt lat="42.16191" lon="2.26271">
        <ele>1289</ele>
        <time>2018-11-26T06:38:14Z</time>
      </trkpt>
      <trkpt lat="42.16189" lon="2.26268">
        <ele>1290.1</ele>
        <time>2018-11-26T06:38:15Z</time>
      </trkpt>
      <trkpt lat="42.16189" lon="2.26266">
        <ele>1290.5</ele>
        <time>2018-11-26T06:38:16Z</time>
      </trkpt>
      <trkpt lat="42.1619" lon="2.26262">
        <ele>1290.5</ele>
        <time>2018-11-26T06:38:17Z</time>
      </trkpt>
      <trkpt lat="42.1619" lon="2.26258">
        <ele>1291.1</ele>
        <time>2018-11-26T06:38:18Z</time>
      </trkpt>
      <trkpt lat="42.16191" lon="2.26255">
        <ele>1291.9</ele>
        <time>2018-11-26T06:38:19Z</time>
      </trkpt>
      <trkpt lat="42.16192" lon="2.26251">
        <ele>1292.1</ele>
        <time>2018-11-26T06:38:20Z</time>
      </trkpt>
      <trkpt lat="42.16192" lon="2.26247">
        <ele>1292.5</ele>
        <time>2018-11-26T06:38:21Z</time>
      </trkpt>
      <trkpt lat="42.16193" lon="2.26244">
        <ele>1292.5</ele>
        <time>2018-11-26T06:38:22Z</time>
      </trkpt>
      <trkpt lat="42.16195" lon="2.2624">
        <ele>1292.8</ele>
        <time>2018-11-26T06:38:24Z</time>
      </trkpt>
      <trkpt lat="42.16196" lon="2.26236">
        <ele>1292.9</ele>
        <time>2018-11-26T06:38:25Z</time>
      </trkpt>
      <trkpt lat="42.16198" lon="2.26232">
        <ele>1292.5</ele>
        <time>2018-11-26T06:38:26Z</time>
      </trkpt>
      <trkpt lat="42.16199" lon="2.2623">
        <ele>1292.5</ele>
        <time>2018-11-26T06:38:27Z</time>
      </trkpt>
      <trkpt lat="42.162" lon="2.26227">
        <ele>1292.1</ele>
        <time>2018-11-26T06:38:28Z</time>
      </trkpt>
      <trkpt lat="42.162" lon="2.26225">
        <ele>1292</ele>
        <time>2018-11-26T06:38:29Z</time>
      </trkpt>
      <trkpt lat="42.16201" lon="2.26221">
        <ele>1291.6</ele>
        <time>2018-11-26T06:38:30Z</time>
      </trkpt>
      <trkpt lat="42.16201" lon="2.26218">
        <ele>1291.5</ele>
        <time>2018-11-26T06:38:31Z</time>
      </trkpt>
      <trkpt lat="42.16201" lon="2.26216">
        <ele>1292.6</ele>
        <time>2018-11-26T06:38:32Z</time>
      </trkpt>
      <trkpt lat="42.16201" lon="2.26211">
        <ele>1292.6</ele>
        <time>2018-11-26T06:38:33Z</time>
      </trkpt>
      <trkpt lat="42.16202" lon="2.26207">
        <ele>1292.9</ele>
        <time>2018-11-26T06:38:34Z</time>
      </trkpt>
      <trkpt lat="42.16203" lon="2.26203">
        <ele>1292.8</ele>
        <time>2018-11-26T06:38:35Z</time>
      </trkpt>
      <trkpt lat="42.16204" lon="2.26199">
        <ele>1293</ele>
        <time>2018-11-26T06:38:37Z</time>
      </trkpt>
      <trkpt lat="42.16206" lon="2.26196">
        <ele>1293.9</ele>
        <time>2018-11-26T06:38:38Z</time>
      </trkpt>
      <trkpt lat="42.16207" lon="2.26194">
        <ele>1294.1</ele>
        <time>2018-11-26T06:38:38Z</time>
      </trkpt>
      <trkpt lat="42.16209" lon="2.26192">
        <ele>1294.1</ele>
        <time>2018-11-26T06:38:39Z</time>
      </trkpt>
      <trkpt lat="42.1621" lon="2.26191">
        <ele>1294.1</ele>
        <time>2018-11-26T06:38:40Z</time>
      </trkpt>
      <trkpt lat="42.16213" lon="2.2619">
        <ele>1294.9</ele>
        <time>2018-11-26T06:38:41Z</time>
      </trkpt>
      <trkpt lat="42.16222" lon="2.26187">
        <ele>1296.9</ele>
        <time>2018-11-26T06:38:45Z</time>
      </trkpt>
      <trkpt lat="42.16226" lon="2.26186">
        <ele>1297.8</ele>
        <time>2018-11-26T06:38:47Z</time>
      </trkpt>
      <trkpt lat="42.16229" lon="2.26186">
        <ele>1298</ele>
        <time>2018-11-26T06:38:48Z</time>
      </trkpt>
      <trkpt lat="42.16232" lon="2.26188">
        <ele>1298.4</ele>
        <time>2018-11-26T06:38:49Z</time>
      </trkpt>
      <trkpt lat="42.16238" lon="2.26198">
        <ele>1301.2</ele>
        <time>2018-11-26T06:38:53Z</time>
      </trkpt>
      <trkpt lat="42.16241" lon="2.26202">
        <ele>1302.4</ele>
        <time>2018-11-26T06:38:54Z</time>
      </trkpt>
      <trkpt lat="42.16242" lon="2.26204">
        <ele>1302.4</ele>
        <time>2018-11-26T06:38:55Z</time>
      </trkpt>
      <trkpt lat="42.16245" lon="2.26207">
        <ele>1302.8</ele>
        <time>2018-11-26T06:38:57Z</time>
      </trkpt>
      <trkpt lat="42.16248" lon="2.26209">
        <ele>1303.8</ele>
        <time>2018-11-26T06:38:58Z</time>
      </trkpt>
      <trkpt lat="42.1625" lon="2.2621">
        <ele>1304.1</ele>
        <time>2018-11-26T06:38:59Z</time>
      </trkpt>
      <trkpt lat="42.16255" lon="2.26217">
        <ele>1305.1</ele>
        <time>2018-11-26T06:39:02Z</time>
      </trkpt>
      <trkpt lat="42.16258" lon="2.26219">
        <ele>1305.5</ele>
        <time>2018-11-26T06:39:03Z</time>
      </trkpt>
      <trkpt lat="42.1626" lon="2.26222">
        <ele>1306.1</ele>
        <time>2018-11-26T06:39:04Z</time>
      </trkpt>
      <trkpt lat="42.16262" lon="2.26226">
        <ele>1306.5</ele>
        <time>2018-11-26T06:39:06Z</time>
      </trkpt>
      <trkpt lat="42.16264" lon="2.26228">
        <ele>1306.6</ele>
        <time>2018-11-26T06:39:07Z</time>
      </trkpt>
      <trkpt lat="42.16265" lon="2.2623">
        <ele>1308</ele>
        <time>2018-11-26T06:39:07Z</time>
      </trkpt>
      <trkpt lat="42.16267" lon="2.26233">
        <ele>1308.5</ele>
        <time>2018-11-26T06:39:08Z</time>
      </trkpt>
      <trkpt lat="42.16275" lon="2.26238">
        <ele>1310.1</ele>
        <time>2018-11-26T06:39:12Z</time>
      </trkpt>
      <trkpt lat="42.16283" lon="2.26242">
        <ele>1311.7</ele>
        <time>2018-11-26T06:39:16Z</time>
      </trkpt>
      <trkpt lat="42.16285" lon="2.26243">
        <ele>1312</ele>
        <time>2018-11-26T06:39:16Z</time>
      </trkpt>
      <trkpt lat="42.16288" lon="2.26245">
        <ele>1312.4</ele>
        <time>2018-11-26T06:39:17Z</time>
      </trkpt>
      <trkpt lat="42.16292" lon="2.2625">
        <ele>1313.1</ele>
        <time>2018-11-26T06:39:20Z</time>
      </trkpt>
      <trkpt lat="42.16296" lon="2.26255">
        <ele>1313.9</ele>
        <time>2018-11-26T06:39:22Z</time>
      </trkpt>
      <trkpt lat="42.16299" lon="2.26257">
        <ele>1314.5</ele>
        <time>2018-11-26T06:39:23Z</time>
      </trkpt>
      <trkpt lat="42.16301" lon="2.26259">
        <ele>1314.8</ele>
        <time>2018-11-26T06:39:24Z</time>
      </trkpt>
      <trkpt lat="42.16303" lon="2.26261">
        <ele>1315.1</ele>
        <time>2018-11-26T06:39:25Z</time>
      </trkpt>
      <trkpt lat="42.16305" lon="2.26264">
        <ele>1315.8</ele>
        <time>2018-11-26T06:39:26Z</time>
      </trkpt>
      <trkpt lat="42.16307" lon="2.26266">
        <ele>1315.9</ele>
        <time>2018-11-26T06:39:27Z</time>
      </trkpt>
      <trkpt lat="42.16309" lon="2.26268">
        <ele>1316.5</ele>
        <time>2018-11-26T06:39:28Z</time>
      </trkpt>
      <trkpt lat="42.16311" lon="2.26269">
        <ele>1316.1</ele>
        <time>2018-11-26T06:39:30Z</time>
      </trkpt>
      <trkpt lat="42.16314" lon="2.26271">
        <ele>1316.1</ele>
        <time>2018-11-26T06:39:31Z</time>
      </trkpt>
      <trkpt lat="42.16315" lon="2.26273">
        <ele>1316.2</ele>
        <time>2018-11-26T06:39:31Z</time>
      </trkpt>
      <trkpt lat="42.16317" lon="2.26275">
        <ele>1316.4</ele>
        <time>2018-11-26T06:39:32Z</time>
      </trkpt>
      <trkpt lat="42.16319" lon="2.26278">
        <ele>1316.4</ele>
        <time>2018-11-26T06:39:34Z</time>
      </trkpt>
      <trkpt lat="42.16321" lon="2.26281">
        <ele>1316.6</ele>
        <time>2018-11-26T06:39:35Z</time>
      </trkpt>
      <trkpt lat="42.16321" lon="2.26283">
        <ele>1316.5</ele>
        <time>2018-11-26T06:39:35Z</time>
      </trkpt>
      <trkpt lat="42.16323" lon="2.26286">
        <ele>1316.4</ele>
        <time>2018-11-26T06:39:36Z</time>
      </trkpt>
      <trkpt lat="42.16324" lon="2.26288">
        <ele>1316.5</ele>
        <time>2018-11-26T06:39:37Z</time>
      </trkpt>
      <trkpt lat="42.16325" lon="2.26291">
        <ele>1316.5</ele>
        <time>2018-11-26T06:39:38Z</time>
      </trkpt>
      <trkpt lat="42.16326" lon="2.26293">
        <ele>1316.5</ele>
        <time>2018-11-26T06:39:39Z</time>
      </trkpt>
      <trkpt lat="42.16327" lon="2.26296">
        <ele>1316.5</ele>
        <time>2018-11-26T06:39:40Z</time>
      </trkpt>
      <trkpt lat="42.16328" lon="2.26299">
        <ele>1316.5</ele>
        <time>2018-11-26T06:39:41Z</time>
      </trkpt>
      <trkpt lat="42.16328" lon="2.26301">
        <ele>1316.5</ele>
        <time>2018-11-26T06:39:41Z</time>
      </trkpt>
      <trkpt lat="42.16327" lon="2.26305">
        <ele>1316.5</ele>
        <time>2018-11-26T06:39:43Z</time>
      </trkpt>
      <trkpt lat="42.16326" lon="2.2631">
        <ele>1316.2</ele>
        <time>2018-11-26T06:39:44Z</time>
      </trkpt>
      <trkpt lat="42.16325" lon="2.26312">
        <ele>1316.2</ele>
        <time>2018-11-26T06:39:45Z</time>
      </trkpt>
      <trkpt lat="42.16324" lon="2.26315">
        <ele>1315.9</ele>
        <time>2018-11-26T06:39:46Z</time>
      </trkpt>
      <trkpt lat="42.16323" lon="2.26317">
        <ele>1315.9</ele>
        <time>2018-11-26T06:39:47Z</time>
      </trkpt>
      <trkpt lat="42.16323" lon="2.2632">
        <ele>1315.8</ele>
        <time>2018-11-26T06:39:47Z</time>
      </trkpt>
      <trkpt lat="42.16322" lon="2.26323">
        <ele>1316.1</ele>
        <time>2018-11-26T06:39:48Z</time>
      </trkpt>
      <trkpt lat="42.16321" lon="2.26326">
        <ele>1315.9</ele>
        <time>2018-11-26T06:39:49Z</time>
      </trkpt>
      <trkpt lat="42.16319" lon="2.26329">
        <ele>1316.2</ele>
        <time>2018-11-26T06:39:50Z</time>
      </trkpt>
      <trkpt lat="42.16318" lon="2.26332">
        <ele>1315.8</ele>
        <time>2018-11-26T06:39:51Z</time>
      </trkpt>
      <trkpt lat="42.16317" lon="2.26335">
        <ele>1315.5</ele>
        <time>2018-11-26T06:39:52Z</time>
      </trkpt>
      <trkpt lat="42.16316" lon="2.26338">
        <ele>1315.5</ele>
        <time>2018-11-26T06:39:53Z</time>
      </trkpt>
      <trkpt lat="42.16315" lon="2.26341">
        <ele>1315.4</ele>
        <time>2018-11-26T06:39:54Z</time>
      </trkpt>
      <trkpt lat="42.16313" lon="2.26343">
        <ele>1313.8</ele>
        <time>2018-11-26T06:39:55Z</time>
      </trkpt>
      <trkpt lat="42.16312" lon="2.26346">
        <ele>1314.5</ele>
        <time>2018-11-26T06:39:56Z</time>
      </trkpt>
      <trkpt lat="42.16311" lon="2.26348">
        <ele>1314.1</ele>
        <time>2018-11-26T06:39:57Z</time>
      </trkpt>
      <trkpt lat="42.16308" lon="2.26351">
        <ele>1313.8</ele>
        <time>2018-11-26T06:39:59Z</time>
      </trkpt>
      <trkpt lat="42.16307" lon="2.26354">
        <ele>1314.1</ele>
        <time>2018-11-26T06:39:59Z</time>
      </trkpt>
      <trkpt lat="42.16306" lon="2.26357">
        <ele>1313.8</ele>
        <time>2018-11-26T06:40:00Z</time>
      </trkpt>
      <trkpt lat="42.16305" lon="2.26359">
        <ele>1313.9</ele>
        <time>2018-11-26T06:40:01Z</time>
      </trkpt>
      <trkpt lat="42.16305" lon="2.26362">
        <ele>1313.8</ele>
        <time>2018-11-26T06:40:02Z</time>
      </trkpt>
      <trkpt lat="42.16303" lon="2.26366">
        <ele>1313.1</ele>
        <time>2018-11-26T06:40:03Z</time>
      </trkpt>
      <trkpt lat="42.16302" lon="2.26369">
        <ele>1313</ele>
        <time>2018-11-26T06:40:04Z</time>
      </trkpt>
      <trkpt lat="42.16301" lon="2.26372">
        <ele>1311.8</ele>
        <time>2018-11-26T06:40:05Z</time>
      </trkpt>
      <trkpt lat="42.163" lon="2.26375">
        <ele>1311.8</ele>
        <time>2018-11-26T06:40:06Z</time>
      </trkpt>
      <trkpt lat="42.16299" lon="2.26377">
        <ele>1311.6</ele>
        <time>2018-11-26T06:40:07Z</time>
      </trkpt>
      <trkpt lat="42.16298" lon="2.2638">
        <ele>1311.5</ele>
        <time>2018-11-26T06:40:08Z</time>
      </trkpt>
      <trkpt lat="42.16297" lon="2.26383">
        <ele>1311.6</ele>
        <time>2018-11-26T06:40:09Z</time>
      </trkpt>
      <trkpt lat="42.16297" lon="2.26385">
        <ele>1311.1</ele>
        <time>2018-11-26T06:40:10Z</time>
      </trkpt>
      <trkpt lat="42.16296" lon="2.26388">
        <ele>1311.2</ele>
        <time>2018-11-26T06:40:11Z</time>
      </trkpt>
      <trkpt lat="42.16294" lon="2.2639">
        <ele>1311</ele>
        <time>2018-11-26T06:40:11Z</time>
      </trkpt>
      <trkpt lat="42.16293" lon="2.26392">
        <ele>1310.8</ele>
        <time>2018-11-26T06:40:12Z</time>
      </trkpt>
      <trkpt lat="42.16286" lon="2.26398">
        <ele>1310.1</ele>
        <time>2018-11-26T06:40:15Z</time>
      </trkpt>
      <trkpt lat="42.16284" lon="2.26399">
        <ele>1309.5</ele>
        <time>2018-11-26T06:40:16Z</time>
      </trkpt>
      <trkpt lat="42.16283" lon="2.26401">
        <ele>1308.4</ele>
        <time>2018-11-26T06:40:17Z</time>
      </trkpt>
      <trkpt lat="42.16281" lon="2.26403">
        <ele>1308.4</ele>
        <time>2018-11-26T06:40:18Z</time>
      </trkpt>
      <trkpt lat="42.16279" lon="2.26406">
        <ele>1307.6</ele>
        <time>2018-11-26T06:40:19Z</time>
      </trkpt>
      <trkpt lat="42.16277" lon="2.26409">
        <ele>1307.4</ele>
        <time>2018-11-26T06:40:20Z</time>
      </trkpt>
      <trkpt lat="42.16276" lon="2.26411">
        <ele>1307.5</ele>
        <time>2018-11-26T06:40:21Z</time>
      </trkpt>
      <trkpt lat="42.16274" lon="2.26414">
        <ele>1307.5</ele>
        <time>2018-11-26T06:40:22Z</time>
      </trkpt>
      <trkpt lat="42.16273" lon="2.26416">
        <ele>1306.1</ele>
        <time>2018-11-26T06:40:23Z</time>
      </trkpt>
      <trkpt lat="42.16271" lon="2.26419">
        <ele>1306.1</ele>
        <time>2018-11-26T06:40:24Z</time>
      </trkpt>
      <trkpt lat="42.16269" lon="2.26422">
        <ele>1305.9</ele>
        <time>2018-11-26T06:40:25Z</time>
      </trkpt>
      <trkpt lat="42.16267" lon="2.26424">
        <ele>1305.8</ele>
        <time>2018-11-26T06:40:26Z</time>
      </trkpt>
      <trkpt lat="42.16266" lon="2.26426">
        <ele>1305.5</ele>
        <time>2018-11-26T06:40:27Z</time>
      </trkpt>
      <trkpt lat="42.16264" lon="2.26429">
        <ele>1305.1</ele>
        <time>2018-11-26T06:40:28Z</time>
      </trkpt>
      <trkpt lat="42.16262" lon="2.26431">
        <ele>1305</ele>
        <time>2018-11-26T06:40:29Z</time>
      </trkpt>
      <trkpt lat="42.16261" lon="2.26434">
        <ele>1304.1</ele>
        <time>2018-11-26T06:40:30Z</time>
      </trkpt>
      <trkpt lat="42.16258" lon="2.26439">
        <ele>1303.5</ele>
        <time>2018-11-26T06:40:32Z</time>
      </trkpt>
      <trkpt lat="42.16257" lon="2.26441">
        <ele>1302.8</ele>
        <time>2018-11-26T06:40:33Z</time>
      </trkpt>
      <trkpt lat="42.16255" lon="2.26444">
        <ele>1302.5</ele>
        <time>2018-11-26T06:40:34Z</time>
      </trkpt>
      <trkpt lat="42.16253" lon="2.26446">
        <ele>1302.1</ele>
        <time>2018-11-26T06:40:35Z</time>
      </trkpt>
      <trkpt lat="42.16252" lon="2.26448">
        <ele>1301.5</ele>
        <time>2018-11-26T06:40:36Z</time>
      </trkpt>
      <trkpt lat="42.16248" lon="2.26452">
        <ele>1300.8</ele>
        <time>2018-11-26T06:40:38Z</time>
      </trkpt>
      <trkpt lat="42.16245" lon="2.26455">
        <ele>1300.6</ele>
        <time>2018-11-26T06:40:39Z</time>
      </trkpt>
      <trkpt lat="42.16243" lon="2.26456">
        <ele>1300.6</ele>
        <time>2018-11-26T06:40:40Z</time>
      </trkpt>
      <trkpt lat="42.16241" lon="2.26458">
        <ele>1299.8</ele>
        <time>2018-11-26T06:40:41Z</time>
      </trkpt>
      <trkpt lat="42.16234" lon="2.26468">
        <ele>1298</ele>
        <time>2018-11-26T06:40:45Z</time>
      </trkpt>
      <trkpt lat="42.16226" lon="2.26474">
        <ele>1297.4</ele>
        <time>2018-11-26T06:40:49Z</time>
      </trkpt>
      <trkpt lat="42.16216" lon="2.26476">
        <ele>1296</ele>
        <time>2018-11-26T06:40:53Z</time>
      </trkpt>
      <trkpt lat="42.16206" lon="2.2647">
        <ele>1294.1</ele>
        <time>2018-11-26T06:40:57Z</time>
      </trkpt>
      <trkpt lat="42.16197" lon="2.26463">
        <ele>1293.9</ele>
        <time>2018-11-26T06:41:01Z</time>
      </trkpt>
      <trkpt lat="42.16188" lon="2.26457">
        <ele>1293.5</ele>
        <time>2018-11-26T06:41:05Z</time>
      </trkpt>
      <trkpt lat="42.1618" lon="2.26454">
        <ele>1293.1</ele>
        <time>2018-11-26T06:41:09Z</time>
      </trkpt>
      <trkpt lat="42.16178" lon="2.26453">
        <ele>1292.9</ele>
        <time>2018-11-26T06:41:09Z</time>
      </trkpt>
      <trkpt lat="42.16175" lon="2.26452">
        <ele>1292.5</ele>
        <time>2018-11-26T06:41:11Z</time>
      </trkpt>
      <trkpt lat="42.16174" lon="2.26451">
        <ele>1291.8</ele>
        <time>2018-11-26T06:41:11Z</time>
      </trkpt>
      <trkpt lat="42.16171" lon="2.2645">
        <ele>1292.1</ele>
        <time>2018-11-26T06:41:12Z</time>
      </trkpt>
      <trkpt lat="42.16169" lon="2.26449">
        <ele>1291.9</ele>
        <time>2018-11-26T06:41:13Z</time>
      </trkpt>
      <trkpt lat="42.16167" lon="2.26448">
        <ele>1290.8</ele>
        <time>2018-11-26T06:41:14Z</time>
      </trkpt>
      <trkpt lat="42.16164" lon="2.26447">
        <ele>1290.5</ele>
        <time>2018-11-26T06:41:15Z</time>
      </trkpt>
      <trkpt lat="42.16162" lon="2.26446">
        <ele>1290</ele>
        <time>2018-11-26T06:41:16Z</time>
      </trkpt>
      <trkpt lat="42.1616" lon="2.26445">
        <ele>1290.6</ele>
        <time>2018-11-26T06:41:17Z</time>
      </trkpt>
      <trkpt lat="42.16158" lon="2.26444">
        <ele>1290.6</ele>
        <time>2018-11-26T06:41:18Z</time>
      </trkpt>
      <trkpt lat="42.16155" lon="2.26443">
        <ele>1290.4</ele>
        <time>2018-11-26T06:41:19Z</time>
      </trkpt>
      <trkpt lat="42.16146" lon="2.26437">
        <ele>1288.5</ele>
        <time>2018-11-26T06:41:23Z</time>
      </trkpt>
      <trkpt lat="42.16137" lon="2.26436">
        <ele>1287.2</ele>
        <time>2018-11-26T06:41:27Z</time>
      </trkpt>
      <trkpt lat="42.16135" lon="2.26437">
        <ele>1287.2</ele>
        <time>2018-11-26T06:41:28Z</time>
      </trkpt>
      <trkpt lat="42.1613" lon="2.26439">
        <ele>1286.5</ele>
        <time>2018-11-26T06:41:30Z</time>
      </trkpt>
      <trkpt lat="42.16122" lon="2.26442">
        <ele>1285.5</ele>
        <time>2018-11-26T06:41:33Z</time>
      </trkpt>
      <trkpt lat="42.16114" lon="2.26446">
        <ele>1284.5</ele>
        <time>2018-11-26T06:41:37Z</time>
      </trkpt>
      <trkpt lat="42.16109" lon="2.26456">
        <ele>1283.1</ele>
        <time>2018-11-26T06:41:40Z</time>
      </trkpt>
      <trkpt lat="42.16107" lon="2.26459">
        <ele>1283</ele>
        <time>2018-11-26T06:41:41Z</time>
      </trkpt>
      <trkpt lat="42.16105" lon="2.26461">
        <ele>1281.8</ele>
        <time>2018-11-26T06:41:42Z</time>
      </trkpt>
      <trkpt lat="42.16104" lon="2.26465">
        <ele>1281.6</ele>
        <time>2018-11-26T06:41:43Z</time>
      </trkpt>
      <trkpt lat="42.16104" lon="2.26468">
        <ele>1280.9</ele>
        <time>2018-11-26T06:41:44Z</time>
      </trkpt>
      <trkpt lat="42.16103" lon="2.26471">
        <ele>1280.4</ele>
        <time>2018-11-26T06:41:45Z</time>
      </trkpt>
      <trkpt lat="42.16103" lon="2.26475">
        <ele>1280.4</ele>
        <time>2018-11-26T06:41:46Z</time>
      </trkpt>
      <trkpt lat="42.16103" lon="2.26477">
        <ele>1280.4</ele>
        <time>2018-11-26T06:41:47Z</time>
      </trkpt>
      <trkpt lat="42.16103" lon="2.2648">
        <ele>1280.2</ele>
        <time>2018-11-26T06:41:48Z</time>
      </trkpt>
      <trkpt lat="42.16102" lon="2.26483">
        <ele>1279.8</ele>
        <time>2018-11-26T06:41:49Z</time>
      </trkpt>
      <trkpt lat="42.16102" lon="2.26486">
        <ele>1279.5</ele>
        <time>2018-11-26T06:41:50Z</time>
      </trkpt>
      <trkpt lat="42.16101" lon="2.26491">
        <ele>1279.1</ele>
        <time>2018-11-26T06:41:51Z</time>
      </trkpt>
      <trkpt lat="42.16101" lon="2.265">
        <ele>1278.8</ele>
        <time>2018-11-26T06:41:54Z</time>
      </trkpt>
      <trkpt lat="42.16101" lon="2.26503">
        <ele>1277.5</ele>
        <time>2018-11-26T06:41:55Z</time>
      </trkpt>
      <trkpt lat="42.16101" lon="2.26506">
        <ele>1277.4</ele>
        <time>2018-11-26T06:41:56Z</time>
      </trkpt>
      <trkpt lat="42.161" lon="2.26509">
        <ele>1277.4</ele>
        <time>2018-11-26T06:41:57Z</time>
      </trkpt>
      <trkpt lat="42.16097" lon="2.26512">
        <ele>1276.9</ele>
        <time>2018-11-26T06:41:58Z</time>
      </trkpt>
      <trkpt lat="42.16097" lon="2.26515">
        <ele>1276.8</ele>
        <time>2018-11-26T06:41:59Z</time>
      </trkpt>
      <trkpt lat="42.16094" lon="2.26529">
        <ele>1274.8</ele>
        <time>2018-11-26T06:42:03Z</time>
      </trkpt>
      <trkpt lat="42.16092" lon="2.26541">
        <ele>1273.4</ele>
        <time>2018-11-26T06:42:07Z</time>
      </trkpt>
      <trkpt lat="42.16089" lon="2.26554">
        <ele>1272.8</ele>
        <time>2018-11-26T06:42:11Z</time>
      </trkpt>
      <trkpt lat="42.16085" lon="2.26566">
        <ele>1271</ele>
        <time>2018-11-26T06:42:15Z</time>
      </trkpt>
      <trkpt lat="42.16084" lon="2.26572">
        <ele>1270.4</ele>
        <time>2018-11-26T06:42:17Z</time>
      </trkpt>
      <trkpt lat="42.16083" lon="2.26575">
        <ele>1270.1</ele>
        <time>2018-11-26T06:42:18Z</time>
      </trkpt>
      <trkpt lat="42.16082" lon="2.26577">
        <ele>1269.6</ele>
        <time>2018-11-26T06:42:18Z</time>
      </trkpt>
      <trkpt lat="42.16077" lon="2.26588">
        <ele>1268.4</ele>
        <time>2018-11-26T06:42:22Z</time>
      </trkpt>
      <trkpt lat="42.16076" lon="2.26603">
        <ele>1268</ele>
        <time>2018-11-26T06:42:27Z</time>
      </trkpt>
      <trkpt lat="42.16075" lon="2.26606">
        <ele>1268</ele>
        <time>2018-11-26T06:42:28Z</time>
      </trkpt>
      <trkpt lat="42.16074" lon="2.26609">
        <ele>1267.5</ele>
        <time>2018-11-26T06:42:29Z</time>
      </trkpt>
      <trkpt lat="42.16066" lon="2.26614">
        <ele>1267.1</ele>
        <time>2018-11-26T06:42:32Z</time>
      </trkpt>
      <trkpt lat="42.16063" lon="2.26616">
        <ele>1265.9</ele>
        <time>2018-11-26T06:42:34Z</time>
      </trkpt>
      <trkpt lat="42.1606" lon="2.26616">
        <ele>1266.2</ele>
        <time>2018-11-26T06:42:35Z</time>
      </trkpt>
      <trkpt lat="42.16058" lon="2.26614">
        <ele>1266</ele>
        <time>2018-11-26T06:42:36Z</time>
      </trkpt>
      <trkpt lat="42.16061" lon="2.26615">
        <ele>1266.6</ele>
        <time>2018-11-26T06:42:37Z</time>
      </trkpt>
      <trkpt lat="42.16062" lon="2.26616">
        <ele>1266.6</ele>
        <time>2018-11-26T06:42:37Z</time>
      </trkpt>
      <trkpt lat="42.16066" lon="2.26617">
        <ele>1267.4</ele>
        <time>2018-11-26T06:42:39Z</time>
      </trkpt>
      <trkpt lat="42.16068" lon="2.2662">
        <ele>1267.4</ele>
        <time>2018-11-26T06:42:40Z</time>
      </trkpt>
      <trkpt lat="42.16068" lon="2.26622">
        <ele>1267.4</ele>
        <time>2018-11-26T06:42:41Z</time>
      </trkpt>
      <trkpt lat="42.16068" lon="2.26626">
        <ele>1267.4</ele>
        <time>2018-11-26T06:42:42Z</time>
      </trkpt>
      <trkpt lat="42.16068" lon="2.26638">
        <ele>1266.1</ele>
        <time>2018-11-26T06:42:45Z</time>
      </trkpt>
      <trkpt lat="42.16069" lon="2.26652">
        <ele>1266</ele>
        <time>2018-11-26T06:42:49Z</time>
      </trkpt>
      <trkpt lat="42.16068" lon="2.26665">
        <ele>1266.2</ele>
        <time>2018-11-26T06:42:53Z</time>
      </trkpt>
      <trkpt lat="42.16068" lon="2.26679">
        <ele>1264.5</ele>
        <time>2018-11-26T06:42:57Z</time>
      </trkpt>
      <trkpt lat="42.16068" lon="2.26691">
        <ele>1264.2</ele>
        <time>2018-11-26T06:43:01Z</time>
      </trkpt>
      <trkpt lat="42.16061" lon="2.26701">
        <ele>1263.5</ele>
        <time>2018-11-26T06:43:05Z</time>
      </trkpt>
      <trkpt lat="42.1606" lon="2.26705">
        <ele>1263.5</ele>
        <time>2018-11-26T06:43:06Z</time>
      </trkpt>
      <trkpt lat="42.16059" lon="2.26707">
        <ele>1262.8</ele>
        <time>2018-11-26T06:43:07Z</time>
      </trkpt>
      <trkpt lat="42.16058" lon="2.26714">
        <ele>1263</ele>
        <time>2018-11-26T06:43:09Z</time>
      </trkpt>
      <trkpt lat="42.16058" lon="2.26717">
        <ele>1263.1</ele>
        <time>2018-11-26T06:43:10Z</time>
      </trkpt>
      <trkpt lat="42.16057" lon="2.26721">
        <ele>1263.1</ele>
        <time>2018-11-26T06:43:11Z</time>
      </trkpt>
      <trkpt lat="42.16056" lon="2.26726">
        <ele>1263.4</ele>
        <time>2018-11-26T06:43:13Z</time>
      </trkpt>
      <trkpt lat="42.16055" lon="2.26729">
        <ele>1263.5</ele>
        <time>2018-11-26T06:43:14Z</time>
      </trkpt>
      <trkpt lat="42.16054" lon="2.26732">
        <ele>1263.5</ele>
        <time>2018-11-26T06:43:15Z</time>
      </trkpt>
      <trkpt lat="42.16052" lon="2.26734">
        <ele>1262.9</ele>
        <time>2018-11-26T06:43:16Z</time>
      </trkpt>
      <trkpt lat="42.1605" lon="2.26735">
        <ele>1262.9</ele>
        <time>2018-11-26T06:43:17Z</time>
      </trkpt>
      <trkpt lat="42.16048" lon="2.26736">
        <ele>1262.6</ele>
        <time>2018-11-26T06:43:18Z</time>
      </trkpt>
      <trkpt lat="42.16037" lon="2.26736">
        <ele>1262.1</ele>
        <time>2018-11-26T06:43:22Z</time>
      </trkpt>
      <trkpt lat="42.16027" lon="2.26736">
        <ele>1260.1</ele>
        <time>2018-11-26T06:43:26Z</time>
      </trkpt>
      <trkpt lat="42.16017" lon="2.26737">
        <ele>1258.8</ele>
        <time>2018-11-26T06:43:30Z</time>
      </trkpt>
      <trkpt lat="42.16007" lon="2.26736">
        <ele>1257.5</ele>
        <time>2018-11-26T06:43:34Z</time>
      </trkpt>
      <trkpt lat="42.15998" lon="2.26735">
        <ele>1257.5</ele>
        <time>2018-11-26T06:43:38Z</time>
      </trkpt>
      <trkpt lat="42.15987" lon="2.26731">
        <ele>1257</ele>
        <time>2018-11-26T06:43:42Z</time>
      </trkpt>
      <trkpt lat="42.15977" lon="2.26729">
        <ele>1255.4</ele>
        <time>2018-11-26T06:43:46Z</time>
      </trkpt>
      <trkpt lat="42.15968" lon="2.26728">
        <ele>1253.5</ele>
        <time>2018-11-26T06:43:50Z</time>
      </trkpt>
      <trkpt lat="42.15956" lon="2.26729">
        <ele>1252.9</ele>
        <time>2018-11-26T06:43:55Z</time>
      </trkpt>
      <trkpt lat="42.15946" lon="2.26729">
        <ele>1252</ele>
        <time>2018-11-26T06:43:59Z</time>
      </trkpt>
      <trkpt lat="42.15933" lon="2.26728">
        <ele>1251.5</ele>
        <time>2018-11-26T06:44:04Z</time>
      </trkpt>
      <trkpt lat="42.1593" lon="2.26728">
        <ele>1251.2</ele>
        <time>2018-11-26T06:44:05Z</time>
      </trkpt>
      <trkpt lat="42.15927" lon="2.26729">
        <ele>1250.9</ele>
        <time>2018-11-26T06:44:07Z</time>
      </trkpt>
      <trkpt lat="42.15924" lon="2.2673">
        <ele>1251.4</ele>
        <time>2018-11-26T06:44:08Z</time>
      </trkpt>
      <trkpt lat="42.15921" lon="2.26731">
        <ele>1251.5</ele>
        <time>2018-11-26T06:44:09Z</time>
      </trkpt>
      <trkpt lat="42.15919" lon="2.26732">
        <ele>1250.6</ele>
        <time>2018-11-26T06:44:10Z</time>
      </trkpt>
      <trkpt lat="42.15916" lon="2.26732">
        <ele>1250.4</ele>
        <time>2018-11-26T06:44:11Z</time>
      </trkpt>
      <trkpt lat="42.15913" lon="2.26734">
        <ele>1250</ele>
        <time>2018-11-26T06:44:12Z</time>
      </trkpt>
      <trkpt lat="42.15911" lon="2.26735">
        <ele>1250.4</ele>
        <time>2018-11-26T06:44:13Z</time>
      </trkpt>
      <trkpt lat="42.15908" lon="2.26736">
        <ele>1250.5</ele>
        <time>2018-11-26T06:44:15Z</time>
      </trkpt>
      <trkpt lat="42.15905" lon="2.26737">
        <ele>1250.1</ele>
        <time>2018-11-26T06:44:16Z</time>
      </trkpt>
      <trkpt lat="42.15902" lon="2.26738">
        <ele>1249.5</ele>
        <time>2018-11-26T06:44:17Z</time>
      </trkpt>
      <trkpt lat="42.159" lon="2.26739">
        <ele>1249.1</ele>
        <time>2018-11-26T06:44:18Z</time>
      </trkpt>
      <trkpt lat="42.15897" lon="2.26741">
        <ele>1249.1</ele>
        <time>2018-11-26T06:44:19Z</time>
      </trkpt>
      <trkpt lat="42.15895" lon="2.26742">
        <ele>1249.1</ele>
        <time>2018-11-26T06:44:20Z</time>
      </trkpt>
      <trkpt lat="42.15892" lon="2.26743">
        <ele>1248.9</ele>
        <time>2018-11-26T06:44:21Z</time>
      </trkpt>
      <trkpt lat="42.1589" lon="2.26744">
        <ele>1248.4</ele>
        <time>2018-11-26T06:44:22Z</time>
      </trkpt>
      <trkpt lat="42.15888" lon="2.26745">
        <ele>1248.4</ele>
        <time>2018-11-26T06:44:23Z</time>
      </trkpt>
      <trkpt lat="42.15885" lon="2.26746">
        <ele>1247.5</ele>
        <time>2018-11-26T06:44:24Z</time>
      </trkpt>
      <trkpt lat="42.15883" lon="2.26747">
        <ele>1247.4</ele>
        <time>2018-11-26T06:44:25Z</time>
      </trkpt>
      <trkpt lat="42.15881" lon="2.26748">
        <ele>1247.1</ele>
        <time>2018-11-26T06:44:26Z</time>
      </trkpt>
      <trkpt lat="42.15878" lon="2.26748">
        <ele>1246.8</ele>
        <time>2018-11-26T06:44:27Z</time>
      </trkpt>
      <trkpt lat="42.15876" lon="2.26749">
        <ele>1246.9</ele>
        <time>2018-11-26T06:44:28Z</time>
      </trkpt>
      <trkpt lat="42.15873" lon="2.2675">
        <ele>1246.1</ele>
        <time>2018-11-26T06:44:29Z</time>
      </trkpt>
      <trkpt lat="42.15871" lon="2.2675">
        <ele>1246</ele>
        <time>2018-11-26T06:44:30Z</time>
      </trkpt>
      <trkpt lat="42.15869" lon="2.26752">
        <ele>1244.9</ele>
        <time>2018-11-26T06:44:31Z</time>
      </trkpt>
      <trkpt lat="42.15869" lon="2.26755">
        <ele>1244.2</ele>
        <time>2018-11-26T06:44:32Z</time>
      </trkpt>
      <trkpt lat="42.15869" lon="2.26759">
        <ele>1242.9</ele>
        <time>2018-11-26T06:44:33Z</time>
      </trkpt>
      <trkpt lat="42.1587" lon="2.26768">
        <ele>1242.2</ele>
        <time>2018-11-26T06:44:35Z</time>
      </trkpt>
      <trkpt lat="42.1587" lon="2.26771">
        <ele>1241.1</ele>
        <time>2018-11-26T06:44:36Z</time>
      </trkpt>
      <trkpt lat="42.1587" lon="2.26776">
        <ele>1241.2</ele>
        <time>2018-11-26T06:44:38Z</time>
      </trkpt>
      <trkpt lat="42.1587" lon="2.2678">
        <ele>1240.1</ele>
        <time>2018-11-26T06:44:39Z</time>
      </trkpt>
      <trkpt lat="42.15871" lon="2.26784">
        <ele>1239.4</ele>
        <time>2018-11-26T06:44:40Z</time>
      </trkpt>
      <trkpt lat="42.15871" lon="2.26787">
        <ele>1238.1</ele>
        <time>2018-11-26T06:44:41Z</time>
      </trkpt>
      <trkpt lat="42.15872" lon="2.2679">
        <ele>1238.2</ele>
        <time>2018-11-26T06:44:42Z</time>
      </trkpt>
      <trkpt lat="42.15872" lon="2.26792">
        <ele>1237.9</ele>
        <time>2018-11-26T06:44:43Z</time>
      </trkpt>
      <trkpt lat="42.15875" lon="2.26805">
        <ele>1236.2</ele>
        <time>2018-11-26T06:44:47Z</time>
      </trkpt>
      <trkpt lat="42.15877" lon="2.26818">
        <ele>1234</ele>
        <time>2018-11-26T06:44:51Z</time>
      </trkpt>
      <trkpt lat="42.15879" lon="2.26831">
        <ele>1232.4</ele>
        <time>2018-11-26T06:44:55Z</time>
      </trkpt>
      <trkpt lat="42.15882" lon="2.26845">
        <ele>1228.2</ele>
        <time>2018-11-26T06:44:59Z</time>
      </trkpt>
      <trkpt lat="42.15887" lon="2.26857">
        <ele>1227.8</ele>
        <time>2018-11-26T06:45:03Z</time>
      </trkpt>
      <trkpt lat="42.15895" lon="2.26866">
        <ele>1225.5</ele>
        <time>2018-11-26T06:45:07Z</time>
      </trkpt>
      <trkpt lat="42.15902" lon="2.26873">
        <ele>1224.6</ele>
        <time>2018-11-26T06:45:11Z</time>
      </trkpt>
      <trkpt lat="42.15912" lon="2.26883">
        <ele>1222.8</ele>
        <time>2018-11-26T06:45:15Z</time>
      </trkpt>
      <trkpt lat="42.15917" lon="2.26892">
        <ele>1221</ele>
        <time>2018-11-26T06:45:19Z</time>
      </trkpt>
      <trkpt lat="42.15926" lon="2.26897">
        <ele>1220.1</ele>
        <time>2018-11-26T06:45:23Z</time>
      </trkpt>
      <trkpt lat="42.15938" lon="2.26901">
        <ele>1219.5</ele>
        <time>2018-11-26T06:45:28Z</time>
      </trkpt>
      <trkpt lat="42.15947" lon="2.26906">
        <ele>1220</ele>
        <time>2018-11-26T06:45:32Z</time>
      </trkpt>
      <trkpt lat="42.15956" lon="2.26912">
        <ele>1219.8</ele>
        <time>2018-11-26T06:45:36Z</time>
      </trkpt>
      <trkpt lat="42.15965" lon="2.2692">
        <ele>1219.5</ele>
        <time>2018-11-26T06:45:40Z</time>
      </trkpt>
      <trkpt lat="42.15973" lon="2.26928">
        <ele>1217.8</ele>
        <time>2018-11-26T06:45:44Z</time>
      </trkpt>
      <trkpt lat="42.15979" lon="2.2694">
        <ele>1213.5</ele>
        <time>2018-11-26T06:45:48Z</time>
      </trkpt>
      <trkpt lat="42.15983" lon="2.26953">
        <ele>1212.2</ele>
        <time>2018-11-26T06:45:53Z</time>
      </trkpt>
      <trkpt lat="42.15989" lon="2.26962">
        <ele>1209.6</ele>
        <time>2018-11-26T06:45:56Z</time>
      </trkpt>
      <trkpt lat="42.15997" lon="2.26975">
        <ele>1209.1</ele>
        <time>2018-11-26T06:46:01Z</time>
      </trkpt>
      <trkpt lat="42.16004" lon="2.26985">
        <ele>1208.4</ele>
        <time>2018-11-26T06:46:05Z</time>
      </trkpt>
      <trkpt lat="42.16009" lon="2.26998">
        <ele>1206.8</ele>
        <time>2018-11-26T06:46:09Z</time>
      </trkpt>
      <trkpt lat="42.16015" lon="2.27008">
        <ele>1205.1</ele>
        <time>2018-11-26T06:46:13Z</time>
      </trkpt>
      <trkpt lat="42.16022" lon="2.27018">
        <ele>1205.8</ele>
        <time>2018-11-26T06:46:17Z</time>
      </trkpt>
      <trkpt lat="42.16018" lon="2.2703">
        <ele>1203.1</ele>
        <time>2018-11-26T06:46:21Z</time>
      </trkpt>
      <trkpt lat="42.16017" lon="2.27042">
        <ele>1201</ele>
        <time>2018-11-26T06:46:25Z</time>
      </trkpt>
      <trkpt lat="42.16019" lon="2.27056">
        <ele>1199.8</ele>
        <time>2018-11-26T06:46:29Z</time>
      </trkpt>
      <trkpt lat="42.16021" lon="2.27071">
        <ele>1199.5</ele>
        <time>2018-11-26T06:46:34Z</time>
      </trkpt>
      <trkpt lat="42.16027" lon="2.27084">
        <ele>1199.5</ele>
        <time>2018-11-26T06:46:38Z</time>
      </trkpt>
      <trkpt lat="42.16032" lon="2.27097">
        <ele>1199.2</ele>
        <time>2018-11-26T06:46:42Z</time>
      </trkpt>
      <trkpt lat="42.1604" lon="2.27106">
        <ele>1197.9</ele>
        <time>2018-11-26T06:46:47Z</time>
      </trkpt>
      <trkpt lat="42.16048" lon="2.27114">
        <ele>1195.6</ele>
        <time>2018-11-26T06:46:51Z</time>
      </trkpt>
      <trkpt lat="42.16053" lon="2.27125">
        <ele>1194.5</ele>
        <time>2018-11-26T06:46:54Z</time>
      </trkpt>
      <trkpt lat="42.16059" lon="2.27136">
        <ele>1193.4</ele>
        <time>2018-11-26T06:46:58Z</time>
      </trkpt>
      <trkpt lat="42.16065" lon="2.27148">
        <ele>1190.9</ele>
        <time>2018-11-26T06:47:03Z</time>
      </trkpt>
      <trkpt lat="42.16071" lon="2.27158">
        <ele>1186.1</ele>
        <time>2018-11-26T06:47:06Z</time>
      </trkpt>
      <trkpt lat="42.16062" lon="2.27164">
        <ele>1177.5</ele>
        <time>2018-11-26T06:47:11Z</time>
      </trkpt>
      <trkpt lat="42.16055" lon="2.27171">
        <ele>1170.5</ele>
        <time>2018-11-26T06:47:14Z</time>
      </trkpt>
      <trkpt lat="42.16052" lon="2.27183">
        <ele>1165.2</ele>
        <time>2018-11-26T06:47:18Z</time>
      </trkpt>
      <trkpt lat="42.16052" lon="2.27198">
        <ele>1164.9</ele>
        <time>2018-11-26T06:47:22Z</time>
      </trkpt>
      <trkpt lat="42.16053" lon="2.27211">
        <ele>1164.5</ele>
        <time>2018-11-26T06:47:26Z</time>
      </trkpt>
      <trkpt lat="42.16053" lon="2.27232">
        <ele>1162.4</ele>
        <time>2018-11-26T06:47:33Z</time>
      </trkpt>
      <trkpt lat="42.1605" lon="2.2722">
        <ele>1162</ele>
        <time>2018-11-26T06:47:36Z</time>
      </trkpt>
      <trkpt lat="42.16039" lon="2.27214">
        <ele>1161.2</ele>
        <time>2018-11-26T06:47:41Z</time>
      </trkpt>
      <trkpt lat="42.1603" lon="2.27207">
        <ele>1161.5</ele>
        <time>2018-11-26T06:47:45Z</time>
      </trkpt>
      <trkpt lat="42.16021" lon="2.27208">
        <ele>1160.8</ele>
        <time>2018-11-26T06:47:49Z</time>
      </trkpt>
      <trkpt lat="42.16018" lon="2.2722">
        <ele>1161.1</ele>
        <time>2018-11-26T06:47:53Z</time>
      </trkpt>
      <trkpt lat="42.16025" lon="2.27228">
        <ele>1161.6</ele>
        <time>2018-11-26T06:47:56Z</time>
      </trkpt>
      <trkpt lat="42.16025" lon="2.27241">
        <ele>1156.5</ele>
        <time>2018-11-26T06:48:00Z</time>
      </trkpt>
      <trkpt lat="42.16022" lon="2.27229">
        <ele>1153.8</ele>
        <time>2018-11-26T06:48:04Z</time>
      </trkpt>
      <trkpt lat="42.16021" lon="2.27217">
        <ele>1152.2</ele>
        <time>2018-11-26T06:48:08Z</time>
      </trkpt>
      <trkpt lat="42.16022" lon="2.27231">
        <ele>1149.2</ele>
        <time>2018-11-26T06:48:12Z</time>
      </trkpt>
      <trkpt lat="42.16019" lon="2.27244">
        <ele>1149.1</ele>
        <time>2018-11-26T06:48:16Z</time>
      </trkpt>
      <trkpt lat="42.16017" lon="2.27256">
        <ele>1147.8</ele>
        <time>2018-11-26T06:48:20Z</time>
      </trkpt>
      <trkpt lat="42.16008" lon="2.27264">
        <ele>1146.9</ele>
        <time>2018-11-26T06:48:24Z</time>
      </trkpt>
      <trkpt lat="42.16" lon="2.27273">
        <ele>1146.2</ele>
        <time>2018-11-26T06:48:28Z</time>
      </trkpt>
      <trkpt lat="42.15994" lon="2.27282">
        <ele>1144</ele>
        <time>2018-11-26T06:48:32Z</time>
      </trkpt>
      <trkpt lat="42.15988" lon="2.27293">
        <ele>1142.5</ele>
        <time>2018-11-26T06:48:36Z</time>
      </trkpt>
      <trkpt lat="42.15983" lon="2.27304">
        <ele>1141.9</ele>
        <time>2018-11-26T06:48:40Z</time>
      </trkpt>
      <trkpt lat="42.15978" lon="2.27315">
        <ele>1141.9</ele>
        <time>2018-11-26T06:48:44Z</time>
      </trkpt>
      <trkpt lat="42.15976" lon="2.27329">
        <ele>1140.6</ele>
        <time>2018-11-26T06:48:48Z</time>
      </trkpt>
      <trkpt lat="42.15976" lon="2.27343">
        <ele>1138.5</ele>
        <time>2018-11-26T06:48:52Z</time>
      </trkpt>
      <trkpt lat="42.15975" lon="2.27355">
        <ele>1137.5</ele>
        <time>2018-11-26T06:48:55Z</time>
      </trkpt>
      <trkpt lat="42.15977" lon="2.27369">
        <ele>1137.4</ele>
        <time>2018-11-26T06:49:00Z</time>
      </trkpt>
      <trkpt lat="42.15973" lon="2.2738">
        <ele>1135.1</ele>
        <time>2018-11-26T06:49:03Z</time>
      </trkpt>
      <trkpt lat="42.15966" lon="2.2739">
        <ele>1129.6</ele>
        <time>2018-11-26T06:49:07Z</time>
      </trkpt>
      <trkpt lat="42.15958" lon="2.27398">
        <ele>1126.9</ele>
        <time>2018-11-26T06:49:11Z</time>
      </trkpt>
      <trkpt lat="42.15949" lon="2.27403">
        <ele>1122.6</ele>
        <time>2018-11-26T06:49:15Z</time>
      </trkpt>
      <trkpt lat="42.15941" lon="2.27398">
        <ele>1118.5</ele>
        <time>2018-11-26T06:49:19Z</time>
      </trkpt>
      <trkpt lat="42.15932" lon="2.27393">
        <ele>1114.8</ele>
        <time>2018-11-26T06:49:23Z</time>
      </trkpt>
      <trkpt lat="42.15924" lon="2.27384">
        <ele>1111.4</ele>
        <time>2018-11-26T06:49:27Z</time>
      </trkpt>
      <trkpt lat="42.15919" lon="2.27373">
        <ele>1110.1</ele>
        <time>2018-11-26T06:49:31Z</time>
      </trkpt>
      <trkpt lat="42.15913" lon="2.27361">
        <ele>1106.5</ele>
        <time>2018-11-26T06:49:35Z</time>
      </trkpt>
      <trkpt lat="42.15906" lon="2.27352">
        <ele>1101.9</ele>
        <time>2018-11-26T06:49:39Z</time>
      </trkpt>
      <trkpt lat="42.15898" lon="2.27345">
        <ele>1098.9</ele>
        <time>2018-11-26T06:49:43Z</time>
      </trkpt>
      <trkpt lat="42.15892" lon="2.27335">
        <ele>1095.9</ele>
        <time>2018-11-26T06:49:46Z</time>
      </trkpt>
      <trkpt lat="42.15887" lon="2.27324">
        <ele>1093.9</ele>
        <time>2018-11-26T06:49:50Z</time>
      </trkpt>
      <trkpt lat="42.15886" lon="2.27309">
        <ele>1093.2</ele>
        <time>2018-11-26T06:49:55Z</time>
      </trkpt>
      <trkpt lat="42.15879" lon="2.273">
        <ele>1090.7</ele>
        <time>2018-11-26T06:49:59Z</time>
      </trkpt>
      <trkpt lat="42.15869" lon="2.27295">
        <ele>1089.9</ele>
        <time>2018-11-26T06:50:03Z</time>
      </trkpt>
      <trkpt lat="42.15861" lon="2.27286">
        <ele>1086.4</ele>
        <time>2018-11-26T06:50:07Z</time>
      </trkpt>
      <trkpt lat="42.15854" lon="2.27276">
        <ele>1084.8</ele>
        <time>2018-11-26T06:50:11Z</time>
      </trkpt>
      <trkpt lat="42.15846" lon="2.27267">
        <ele>1082.5</ele>
        <time>2018-11-26T06:50:15Z</time>
      </trkpt>
      <trkpt lat="42.15837" lon="2.27262">
        <ele>1081.1</ele>
        <time>2018-11-26T06:50:19Z</time>
      </trkpt>
      <trkpt lat="42.15829" lon="2.27255">
        <ele>1080.1</ele>
        <time>2018-11-26T06:50:23Z</time>
      </trkpt>
      <trkpt lat="42.15825" lon="2.27248">
        <ele>1079.6</ele>
        <time>2018-11-26T06:50:25Z</time>
      </trkpt>
      <trkpt lat="42.15826" lon="2.27251">
        <ele>1079.4</ele>
        <time>2018-11-26T06:50:26Z</time>
      </trkpt>
      <trkpt lat="42.15827" lon="2.27253">
        <ele>1080.1</ele>
        <time>2018-11-26T06:50:27Z</time>
      </trkpt>
      <trkpt lat="42.15828" lon="2.2725">
        <ele>1079.4</ele>
        <time>2018-11-26T06:50:28Z</time>
      </trkpt>
      <trkpt lat="42.15829" lon="2.27248">
        <ele>1079.9</ele>
        <time>2018-11-26T06:50:29Z</time>
      </trkpt>
      <trkpt lat="42.15829" lon="2.2725">
        <ele>1079.9</ele>
        <time>2018-11-26T06:50:30Z</time>
      </trkpt>
      <trkpt lat="42.15829" lon="2.27253">
        <ele>1079.8</ele>
        <time>2018-11-26T06:50:30Z</time>
      </trkpt>
      <trkpt lat="42.15829" lon="2.27255">
        <ele>1079.8</ele>
        <time>2018-11-26T06:50:31Z</time>
      </trkpt>
      <trkpt lat="42.15829" lon="2.27253">
        <ele>1079.5</ele>
        <time>2018-11-26T06:50:32Z</time>
      </trkpt>
      <trkpt lat="42.15829" lon="2.2725">
        <ele>1079.6</ele>
        <time>2018-11-26T06:50:33Z</time>
      </trkpt>
      <trkpt lat="42.15828" lon="2.27247">
        <ele>1079.6</ele>
        <time>2018-11-26T06:50:33Z</time>
      </trkpt>
      <trkpt lat="42.15829" lon="2.27245">
        <ele>1079.5</ele>
        <time>2018-11-26T06:50:34Z</time>
      </trkpt>
      <trkpt lat="42.15828" lon="2.27248">
        <ele>1079.5</ele>
        <time>2018-11-26T06:50:35Z</time>
      </trkpt>
      <trkpt lat="42.15826" lon="2.27249">
        <ele>1079.5</ele>
        <time>2018-11-26T06:50:36Z</time>
      </trkpt>
      <trkpt lat="42.15824" lon="2.2725">
        <ele>1079.6</ele>
        <time>2018-11-26T06:50:37Z</time>
      </trkpt>
      <trkpt lat="42.15819" lon="2.27249">
        <ele>1079.6</ele>
        <time>2018-11-26T06:50:39Z</time>
      </trkpt>
      <trkpt lat="42.1581" lon="2.27242">
        <ele>1079.4</ele>
        <time>2018-11-26T06:50:43Z</time>
      </trkpt>
      <trkpt lat="42.15802" lon="2.27236">
        <ele>1074.2</ele>
        <time>2018-11-26T06:50:47Z</time>
      </trkpt>
      <trkpt lat="42.15795" lon="2.27226">
        <ele>1073</ele>
        <time>2018-11-26T06:50:51Z</time>
      </trkpt>
      <trkpt lat="42.15786" lon="2.27219">
        <ele>1071.4</ele>
        <time>2018-11-26T06:50:55Z</time>
      </trkpt>
      <trkpt lat="42.15776" lon="2.27216">
        <ele>1070</ele>
        <time>2018-11-26T06:50:59Z</time>
      </trkpt>
      <trkpt lat="42.15768" lon="2.27211">
        <ele>1068</ele>
        <time>2018-11-26T06:51:03Z</time>
      </trkpt>
      <trkpt lat="42.15758" lon="2.27207">
        <ele>1065.2</ele>
        <time>2018-11-26T06:51:07Z</time>
      </trkpt>
      <trkpt lat="42.15749" lon="2.27198">
        <ele>1064.2</ele>
        <time>2018-11-26T06:51:12Z</time>
      </trkpt>
      <trkpt lat="42.15739" lon="2.27191">
        <ele>1063.2</ele>
        <time>2018-11-26T06:51:16Z</time>
      </trkpt>
      <trkpt lat="42.15728" lon="2.27187">
        <ele>1062.2</ele>
        <time>2018-11-26T06:51:20Z</time>
      </trkpt>
      <trkpt lat="42.15718" lon="2.27186">
        <ele>1060.4</ele>
        <time>2018-11-26T06:51:24Z</time>
      </trkpt>
      <trkpt lat="42.1571" lon="2.27184">
        <ele>1058.9</ele>
        <time>2018-11-26T06:51:28Z</time>
      </trkpt>
      <trkpt lat="42.157" lon="2.27176">
        <ele>1056.9</ele>
        <time>2018-11-26T06:51:32Z</time>
      </trkpt>
      <trkpt lat="42.1569" lon="2.2717">
        <ele>1055.5</ele>
        <time>2018-11-26T06:51:37Z</time>
      </trkpt>
      <trkpt lat="42.15681" lon="2.27167">
        <ele>1054.2</ele>
        <time>2018-11-26T06:51:41Z</time>
      </trkpt>
      <trkpt lat="42.15672" lon="2.27162">
        <ele>1052.8</ele>
        <time>2018-11-26T06:51:44Z</time>
      </trkpt>
      <trkpt lat="42.15663" lon="2.27153">
        <ele>1051.5</ele>
        <time>2018-11-26T06:51:49Z</time>
      </trkpt>
      <trkpt lat="42.15653" lon="2.27145">
        <ele>1050.5</ele>
        <time>2018-11-26T06:51:53Z</time>
      </trkpt>
      <trkpt lat="42.15644" lon="2.27146">
        <ele>1048.6</ele>
        <time>2018-11-26T06:51:57Z</time>
      </trkpt>
      <trkpt lat="42.15635" lon="2.27145">
        <ele>1046.9</ele>
        <time>2018-11-26T06:52:01Z</time>
      </trkpt>
      <trkpt lat="42.15627" lon="2.27138">
        <ele>1046.5</ele>
        <time>2018-11-26T06:52:05Z</time>
      </trkpt>
      <trkpt lat="42.15617" lon="2.27132">
        <ele>1045.5</ele>
        <time>2018-11-26T06:52:09Z</time>
      </trkpt>
      <trkpt lat="42.15609" lon="2.27122">
        <ele>1046.6</ele>
        <time>2018-11-26T06:52:13Z</time>
      </trkpt>
      <trkpt lat="42.15604" lon="2.27112">
        <ele>1046.6</ele>
        <time>2018-11-26T06:52:17Z</time>
      </trkpt>
      <trkpt lat="42.156" lon="2.27101">
        <ele>1046.6</ele>
        <time>2018-11-26T06:52:21Z</time>
      </trkpt>
      <trkpt lat="42.15596" lon="2.27089">
        <ele>1046.2</ele>
        <time>2018-11-26T06:52:25Z</time>
      </trkpt>
      <trkpt lat="42.1559" lon="2.27077">
        <ele>1047.1</ele>
        <time>2018-11-26T06:52:29Z</time>
      </trkpt>
      <trkpt lat="42.15584" lon="2.27066">
        <ele>1047.4</ele>
        <time>2018-11-26T06:52:33Z</time>
      </trkpt>
      <trkpt lat="42.15577" lon="2.27055">
        <ele>1047.5</ele>
        <time>2018-11-26T06:52:37Z</time>
      </trkpt>
      <trkpt lat="42.15568" lon="2.27046">
        <ele>1047.6</ele>
        <time>2018-11-26T06:52:42Z</time>
      </trkpt>
      <trkpt lat="42.15558" lon="2.2704">
        <ele>1048.4</ele>
        <time>2018-11-26T06:52:46Z</time>
      </trkpt>
      <trkpt lat="42.15551" lon="2.27032">
        <ele>1048.4</ele>
        <time>2018-11-26T06:52:50Z</time>
      </trkpt>
      <trkpt lat="42.15544" lon="2.27021">
        <ele>1048</ele>
        <time>2018-11-26T06:52:54Z</time>
      </trkpt>
      <trkpt lat="42.15536" lon="2.27012">
        <ele>1048.2</ele>
        <time>2018-11-26T06:52:58Z</time>
      </trkpt>
      <trkpt lat="42.15526" lon="2.27005">
        <ele>1048.9</ele>
        <time>2018-11-26T06:53:03Z</time>
      </trkpt>
      <trkpt lat="42.15515" lon="2.27001">
        <ele>1047.5</ele>
        <time>2018-11-26T06:53:07Z</time>
      </trkpt>
      <trkpt lat="42.15505" lon="2.26996">
        <ele>1047</ele>
        <time>2018-11-26T06:53:12Z</time>
      </trkpt>
      <trkpt lat="42.15494" lon="2.26993">
        <ele>1047.2</ele>
        <time>2018-11-26T06:53:16Z</time>
      </trkpt>
      <trkpt lat="42.15498" lon="2.27008">
        <ele>1044.8</ele>
        <time>2018-11-26T06:53:21Z</time>
      </trkpt>
      <trkpt lat="42.1551" lon="2.27015">
        <ele>1044.1</ele>
        <time>2018-11-26T06:53:26Z</time>
      </trkpt>
      <trkpt lat="42.1552" lon="2.27018">
        <ele>1044.1</ele>
        <time>2018-11-26T06:53:30Z</time>
      </trkpt>
      <trkpt lat="42.15528" lon="2.2702">
        <ele>1043.9</ele>
        <time>2018-11-26T06:53:34Z</time>
      </trkpt>
      <trkpt lat="42.15531" lon="2.27021">
        <ele>1043.8</ele>
        <time>2018-11-26T06:53:35Z</time>
      </trkpt>
      <trkpt lat="42.15534" lon="2.27022">
        <ele>1043.8</ele>
        <time>2018-11-26T06:53:36Z</time>
      </trkpt>
      <trkpt lat="42.15536" lon="2.27023">
        <ele>1043.8</ele>
        <time>2018-11-26T06:53:37Z</time>
      </trkpt>
      <trkpt lat="42.15545" lon="2.27029">
        <ele>1043</ele>
        <time>2018-11-26T06:53:41Z</time>
      </trkpt>
      <trkpt lat="42.15551" lon="2.27039">
        <ele>1041.9</ele>
        <time>2018-11-26T06:53:45Z</time>
      </trkpt>
      <trkpt lat="42.15559" lon="2.27051">
        <ele>1038.2</ele>
        <time>2018-11-26T06:53:49Z</time>
      </trkpt>
      <trkpt lat="42.15567" lon="2.2706">
        <ele>1036</ele>
        <time>2018-11-26T06:53:53Z</time>
      </trkpt>
      <trkpt lat="42.15573" lon="2.2707">
        <ele>1035.2</ele>
        <time>2018-11-26T06:53:57Z</time>
      </trkpt>
      <trkpt lat="42.15578" lon="2.27083">
        <ele>1033.6</ele>
        <time>2018-11-26T06:54:02Z</time>
      </trkpt>
      <trkpt lat="42.15585" lon="2.27097">
        <ele>1033.4</ele>
        <time>2018-11-26T06:54:07Z</time>
      </trkpt>
      <trkpt lat="42.1559" lon="2.2711">
        <ele>1032.1</ele>
        <time>2018-11-26T06:54:11Z</time>
      </trkpt>
      <trkpt lat="42.15596" lon="2.2712">
        <ele>1030.2</ele>
        <time>2018-11-26T06:54:15Z</time>
      </trkpt>
      <trkpt lat="42.156" lon="2.27133">
        <ele>1029.5</ele>
        <time>2018-11-26T06:54:19Z</time>
      </trkpt>
      <trkpt lat="42.15592" lon="2.27138">
        <ele>1026.4</ele>
        <time>2018-11-26T06:54:23Z</time>
      </trkpt>
      <trkpt lat="42.15584" lon="2.27144">
        <ele>1021.6</ele>
        <time>2018-11-26T06:54:27Z</time>
      </trkpt>
      <trkpt lat="42.15575" lon="2.27139">
        <ele>1020.7</ele>
        <time>2018-11-26T06:54:30Z</time>
      </trkpt>
      <trkpt lat="42.15564" lon="2.27135">
        <ele>1020.7</ele>
        <time>2018-11-26T06:54:35Z</time>
      </trkpt>
      <trkpt lat="42.15553" lon="2.27133">
        <ele>1020.2</ele>
        <time>2018-11-26T06:54:39Z</time>
      </trkpt>
      <trkpt lat="42.15543" lon="2.27128">
        <ele>1019</ele>
        <time>2018-11-26T06:54:44Z</time>
      </trkpt>
      <trkpt lat="42.15534" lon="2.27126">
        <ele>1018</ele>
        <time>2018-11-26T06:54:47Z</time>
      </trkpt>
      <trkpt lat="42.15522" lon="2.27121">
        <ele>1016.4</ele>
        <time>2018-11-26T06:54:52Z</time>
      </trkpt>
      <trkpt lat="42.15514" lon="2.27116">
        <ele>1015.4</ele>
        <time>2018-11-26T06:54:56Z</time>
      </trkpt>
      <trkpt lat="42.15503" lon="2.27114">
        <ele>1013.7</ele>
        <time>2018-11-26T06:55:00Z</time>
      </trkpt>
      <trkpt lat="42.15493" lon="2.27111">
        <ele>1012.5</ele>
        <time>2018-11-26T06:55:04Z</time>
      </trkpt>
      <trkpt lat="42.15483" lon="2.27107">
        <ele>1012.2</ele>
        <time>2018-11-26T06:55:09Z</time>
      </trkpt>
      <trkpt lat="42.15472" lon="2.27102">
        <ele>1011.7</ele>
        <time>2018-11-26T06:55:13Z</time>
      </trkpt>
      <trkpt lat="42.15462" lon="2.27103">
        <ele>1010.6</ele>
        <time>2018-11-26T06:55:17Z</time>
      </trkpt>
      <trkpt lat="42.15454" lon="2.27109">
        <ele>1009.5</ele>
        <time>2018-11-26T06:55:21Z</time>
      </trkpt>
      <trkpt lat="42.15446" lon="2.27117">
        <ele>1009.5</ele>
        <time>2018-11-26T06:55:25Z</time>
      </trkpt>
      <trkpt lat="42.15437" lon="2.27125">
        <ele>1010.3</ele>
        <time>2018-11-26T06:55:29Z</time>
      </trkpt>
      <trkpt lat="42.15429" lon="2.27131">
        <ele>1010.3</ele>
        <time>2018-11-26T06:55:33Z</time>
      </trkpt>
      <trkpt lat="42.15419" lon="2.27133">
        <ele>1011.6</ele>
        <time>2018-11-26T06:55:37Z</time>
      </trkpt>
      <trkpt lat="42.1541" lon="2.2714">
        <ele>1010.8</ele>
        <time>2018-11-26T06:55:41Z</time>
      </trkpt>
      <trkpt lat="42.15399" lon="2.27144">
        <ele>1010.7</ele>
        <time>2018-11-26T06:55:45Z</time>
      </trkpt>
      <trkpt lat="42.1539" lon="2.27148">
        <ele>1010.4</ele>
        <time>2018-11-26T06:55:49Z</time>
      </trkpt>
      <trkpt lat="42.1538" lon="2.27154">
        <ele>1009.3</ele>
        <time>2018-11-26T06:55:54Z</time>
      </trkpt>
      <trkpt lat="42.15371" lon="2.27157">
        <ele>1010.2</ele>
        <time>2018-11-26T06:55:57Z</time>
      </trkpt>
      <trkpt lat="42.15362" lon="2.27161">
        <ele>1010.2</ele>
        <time>2018-11-26T06:56:01Z</time>
      </trkpt>
      <trkpt lat="42.15353" lon="2.27163">
        <ele>1010.3</ele>
        <time>2018-11-26T06:56:05Z</time>
      </trkpt>
      <trkpt lat="42.15342" lon="2.27167">
        <ele>1008.6</ele>
        <time>2018-11-26T06:56:09Z</time>
      </trkpt>
      <trkpt lat="42.15334" lon="2.27171">
        <ele>1008.5</ele>
        <time>2018-11-26T06:56:13Z</time>
      </trkpt>
      <trkpt lat="42.15323" lon="2.27174">
        <ele>1008.1</ele>
        <time>2018-11-26T06:56:17Z</time>
      </trkpt>
      <trkpt lat="42.15313" lon="2.27178">
        <ele>1006.7</ele>
        <time>2018-11-26T06:56:22Z</time>
      </trkpt>
      <trkpt lat="42.15306" lon="2.27186">
        <ele>1005.8</ele>
        <time>2018-11-26T06:56:25Z</time>
      </trkpt>
      <trkpt lat="42.15305" lon="2.27201">
        <ele>1004.4</ele>
        <time>2018-11-26T06:56:30Z</time>
      </trkpt>
      <trkpt lat="42.15305" lon="2.27216">
        <ele>1003.7</ele>
        <time>2018-11-26T06:56:34Z</time>
      </trkpt>
      <trkpt lat="42.15303" lon="2.27229">
        <ele>1004</ele>
        <time>2018-11-26T06:56:38Z</time>
      </trkpt>
      <trkpt lat="42.15304" lon="2.27237">
        <ele>1004.4</ele>
        <time>2018-11-26T06:56:40Z</time>
      </trkpt>
      <trkpt lat="42.15303" lon="2.2724">
        <ele>1004.1</ele>
        <time>2018-11-26T06:56:41Z</time>
      </trkpt>
      <trkpt lat="42.15302" lon="2.27246">
        <ele>1004.1</ele>
        <time>2018-11-26T06:56:43Z</time>
      </trkpt>
      <trkpt lat="42.15302" lon="2.2725">
        <ele>1004.1</ele>
        <time>2018-11-26T06:56:44Z</time>
      </trkpt>
      <trkpt lat="42.15302" lon="2.27254">
        <ele>1004</ele>
        <time>2018-11-26T06:56:45Z</time>
      </trkpt>
      <trkpt lat="42.15302" lon="2.27257">
        <ele>1003.8</ele>
        <time>2018-11-26T06:56:47Z</time>
      </trkpt>
      <trkpt lat="42.15301" lon="2.27261">
        <ele>1004.1</ele>
        <time>2018-11-26T06:56:48Z</time>
      </trkpt>
      <trkpt lat="42.15301" lon="2.27265">
        <ele>1004.1</ele>
        <time>2018-11-26T06:56:49Z</time>
      </trkpt>
      <trkpt lat="42.15301" lon="2.27268">
        <ele>1003.7</ele>
        <time>2018-11-26T06:56:50Z</time>
      </trkpt>
      <trkpt lat="42.15301" lon="2.27271">
        <ele>1003.7</ele>
        <time>2018-11-26T06:56:51Z</time>
      </trkpt>
      <trkpt lat="42.153" lon="2.27274">
        <ele>1003.7</ele>
        <time>2018-11-26T06:56:51Z</time>
      </trkpt>
      <trkpt lat="42.153" lon="2.27277">
        <ele>1003.7</ele>
        <time>2018-11-26T06:56:52Z</time>
      </trkpt>
      <trkpt lat="42.153" lon="2.27279">
        <ele>1003.8</ele>
        <time>2018-11-26T06:56:53Z</time>
      </trkpt>
      <trkpt lat="42.153" lon="2.27282">
        <ele>1003.8</ele>
        <time>2018-11-26T06:56:54Z</time>
      </trkpt>
      <trkpt lat="42.153" lon="2.27285">
        <ele>1004</ele>
        <time>2018-11-26T06:56:55Z</time>
      </trkpt>
      <trkpt lat="42.153" lon="2.27288">
        <ele>1004.2</ele>
        <time>2018-11-26T06:56:56Z</time>
      </trkpt>
      <trkpt lat="42.153" lon="2.27291">
        <ele>1004.3</ele>
        <time>2018-11-26T06:56:57Z</time>
      </trkpt>
      <trkpt lat="42.153" lon="2.27305">
        <ele>1004.5</ele>
        <time>2018-11-26T06:57:01Z</time>
      </trkpt>
      <trkpt lat="42.15301" lon="2.2732">
        <ele>1004.1</ele>
        <time>2018-11-26T06:57:05Z</time>
      </trkpt>
      <trkpt lat="42.15301" lon="2.27333">
        <ele>1004.1</ele>
        <time>2018-11-26T06:57:09Z</time>
      </trkpt>
      <trkpt lat="42.15304" lon="2.27345">
        <ele>1005.5</ele>
        <time>2018-11-26T06:57:13Z</time>
      </trkpt>
      <trkpt lat="42.15307" lon="2.27358">
        <ele>1006.2</ele>
        <time>2018-11-26T06:57:17Z</time>
      </trkpt>
      <trkpt lat="42.15305" lon="2.27371">
        <ele>1005.7</ele>
        <time>2018-11-26T06:57:21Z</time>
      </trkpt>
      <trkpt lat="42.15306" lon="2.27385">
        <ele>1005.2</ele>
        <time>2018-11-26T06:57:25Z</time>
      </trkpt>
      <trkpt lat="42.15307" lon="2.274">
        <ele>1006</ele>
        <time>2018-11-26T06:57:29Z</time>
      </trkpt>
      <trkpt lat="42.15307" lon="2.27413">
        <ele>1006.4</ele>
        <time>2018-11-26T06:57:33Z</time>
      </trkpt>
      <trkpt lat="42.15306" lon="2.27426">
        <ele>1006</ele>
        <time>2018-11-26T06:57:37Z</time>
      </trkpt>
      <trkpt lat="42.15302" lon="2.27439">
        <ele>1005.8</ele>
        <time>2018-11-26T06:57:41Z</time>
      </trkpt>
      <trkpt lat="42.15299" lon="2.27454">
        <ele>1004.6</ele>
        <time>2018-11-26T06:57:46Z</time>
      </trkpt>
      <trkpt lat="42.15294" lon="2.27465">
        <ele>1003.8</ele>
        <time>2018-11-26T06:57:50Z</time>
      </trkpt>
      <trkpt lat="42.15288" lon="2.27477">
        <ele>1002.7</ele>
        <time>2018-11-26T06:57:54Z</time>
      </trkpt>
      <trkpt lat="42.15285" lon="2.27489">
        <ele>1000.8</ele>
        <time>2018-11-26T06:57:58Z</time>
      </trkpt>
      <trkpt lat="42.15276" lon="2.27493">
        <ele>1000.1</ele>
        <time>2018-11-26T06:58:02Z</time>
      </trkpt>
      <trkpt lat="42.15273" lon="2.2748">
        <ele>1001.1</ele>
        <time>2018-11-26T06:58:06Z</time>
      </trkpt>
      <trkpt lat="42.15265" lon="2.27474">
        <ele>1002.5</ele>
        <time>2018-11-26T06:58:09Z</time>
      </trkpt>
      <trkpt lat="42.15262" lon="2.27462">
        <ele>1005.7</ele>
        <time>2018-11-26T06:58:13Z</time>
      </trkpt>
      <trkpt lat="42.15257" lon="2.27451">
        <ele>1008.5</ele>
        <time>2018-11-26T06:58:17Z</time>
      </trkpt>
      <trkpt lat="42.15255" lon="2.27463">
        <ele>1014.4</ele>
        <time>2018-11-26T06:58:20Z</time>
      </trkpt>
      <trkpt lat="42.15255" lon="2.27475">
        <ele>1014.7</ele>
        <time>2018-11-26T06:58:24Z</time>
      </trkpt>
      <trkpt lat="42.15258" lon="2.27488">
        <ele>1014.8</ele>
        <time>2018-11-26T06:58:28Z</time>
      </trkpt>
      <trkpt lat="42.15258" lon="2.27501">
        <ele>1012.8</ele>
        <time>2018-11-26T06:58:31Z</time>
      </trkpt>
      <trkpt lat="42.15259" lon="2.27503">
        <ele>1012.8</ele>
        <time>2018-11-26T06:58:32Z</time>
      </trkpt>
      <trkpt lat="42.15262" lon="2.27505">
        <ele>1013</ele>
        <time>2018-11-26T06:58:34Z</time>
      </trkpt>
      <trkpt lat="42.15264" lon="2.27509">
        <ele>1012.5</ele>
        <time>2018-11-26T06:58:35Z</time>
      </trkpt>
      <trkpt lat="42.15272" lon="2.27516">
        <ele>1012.5</ele>
        <time>2018-11-26T06:58:39Z</time>
      </trkpt>
      <trkpt lat="42.15275" lon="2.27516">
        <ele>1013.3</ele>
        <time>2018-11-26T06:58:40Z</time>
      </trkpt>
      <trkpt lat="42.15277" lon="2.27516">
        <ele>1013.2</ele>
        <time>2018-11-26T06:58:41Z</time>
      </trkpt>
      <trkpt lat="42.1528" lon="2.27517">
        <ele>1013.2</ele>
        <time>2018-11-26T06:58:42Z</time>
      </trkpt>
      <trkpt lat="42.15283" lon="2.2752">
        <ele>1013.3</ele>
        <time>2018-11-26T06:58:44Z</time>
      </trkpt>
      <trkpt lat="42.15285" lon="2.27521">
        <ele>1013.8</ele>
        <time>2018-11-26T06:58:44Z</time>
      </trkpt>
      <trkpt lat="42.15287" lon="2.27524">
        <ele>1013.6</ele>
        <time>2018-11-26T06:58:46Z</time>
      </trkpt>
      <trkpt lat="42.15289" lon="2.27527">
        <ele>1013.5</ele>
        <time>2018-11-26T06:58:47Z</time>
      </trkpt>
      <trkpt lat="42.1529" lon="2.2753">
        <ele>1013.6</ele>
        <time>2018-11-26T06:58:48Z</time>
      </trkpt>
      <trkpt lat="42.15291" lon="2.27534">
        <ele>1013.4</ele>
        <time>2018-11-26T06:58:49Z</time>
      </trkpt>
      <trkpt lat="42.15293" lon="2.27539">
        <ele>1014.1</ele>
        <time>2018-11-26T06:58:51Z</time>
      </trkpt>
      <trkpt lat="42.15299" lon="2.27549">
        <ele>1015</ele>
        <time>2018-11-26T06:58:55Z</time>
      </trkpt>
      <trkpt lat="42.15301" lon="2.27562">
        <ele>1016.1</ele>
        <time>2018-11-26T06:58:59Z</time>
      </trkpt>
      <trkpt lat="42.15304" lon="2.27574">
        <ele>1015.8</ele>
        <time>2018-11-26T06:59:02Z</time>
      </trkpt>
      <trkpt lat="42.15311" lon="2.27585">
        <ele>1016</ele>
        <time>2018-11-26T06:59:07Z</time>
      </trkpt>
      <trkpt lat="42.15313" lon="2.27597">
        <ele>1016.2</ele>
        <time>2018-11-26T06:59:10Z</time>
      </trkpt>
      <trkpt lat="42.15315" lon="2.2761">
        <ele>1016.2</ele>
        <time>2018-11-26T06:59:14Z</time>
      </trkpt>
      <trkpt lat="42.15318" lon="2.27624">
        <ele>1016.7</ele>
        <time>2018-11-26T06:59:19Z</time>
      </trkpt>
      <trkpt lat="42.15318" lon="2.27638">
        <ele>1017.2</ele>
        <time>2018-11-26T06:59:23Z</time>
      </trkpt>
      <trkpt lat="42.15321" lon="2.2765">
        <ele>1017.6</ele>
        <time>2018-11-26T06:59:26Z</time>
      </trkpt>
      <trkpt lat="42.15327" lon="2.2766">
        <ele>1018</ele>
        <time>2018-11-26T06:59:30Z</time>
      </trkpt>
      <trkpt lat="42.15334" lon="2.27667">
        <ele>1021.6</ele>
        <time>2018-11-26T06:59:34Z</time>
      </trkpt>
      <trkpt lat="42.15339" lon="2.27679">
        <ele>1023.8</ele>
        <time>2018-11-26T06:59:38Z</time>
      </trkpt>
      <trkpt lat="42.15343" lon="2.27691">
        <ele>1025.2</ele>
        <time>2018-11-26T06:59:42Z</time>
      </trkpt>
      <trkpt lat="42.15348" lon="2.27703">
        <ele>1026</ele>
        <time>2018-11-26T06:59:46Z</time>
      </trkpt>
      <trkpt lat="42.15355" lon="2.27712">
        <ele>1026.4</ele>
        <time>2018-11-26T06:59:50Z</time>
      </trkpt>
      <trkpt lat="42.15361" lon="2.27722">
        <ele>1027.1</ele>
        <time>2018-11-26T06:59:54Z</time>
      </trkpt>
      <trkpt lat="42.15367" lon="2.27733">
        <ele>1029.1</ele>
        <time>2018-11-26T06:59:58Z</time>
      </trkpt>
      <trkpt lat="42.1537" lon="2.27745">
        <ele>1031.1</ele>
        <time>2018-11-26T07:00:01Z</time>
      </trkpt>
      <trkpt lat="42.15373" lon="2.27757">
        <ele>1032.2</ele>
        <time>2018-11-26T07:00:05Z</time>
      </trkpt>
      <trkpt lat="42.15376" lon="2.27771">
        <ele>1032.1</ele>
        <time>2018-11-26T07:00:09Z</time>
      </trkpt>
      <trkpt lat="42.15381" lon="2.27782">
        <ele>1032.8</ele>
        <time>2018-11-26T07:00:13Z</time>
      </trkpt>
      <trkpt lat="42.15383" lon="2.27795">
        <ele>1035</ele>
        <time>2018-11-26T07:00:17Z</time>
      </trkpt>
      <trkpt lat="42.15385" lon="2.27807">
        <ele>1037.4</ele>
        <time>2018-11-26T07:00:21Z</time>
      </trkpt>
      <trkpt lat="42.15389" lon="2.27819">
        <ele>1038.5</ele>
        <time>2018-11-26T07:00:25Z</time>
      </trkpt>
      <trkpt lat="42.15393" lon="2.2783">
        <ele>1039.9</ele>
        <time>2018-11-26T07:00:28Z</time>
      </trkpt>
      <trkpt lat="42.15402" lon="2.27836">
        <ele>1042</ele>
        <time>2018-11-26T07:00:32Z</time>
      </trkpt>
      <trkpt lat="42.1541" lon="2.27842">
        <ele>1042.5</ele>
        <time>2018-11-26T07:00:36Z</time>
      </trkpt>
      <trkpt lat="42.15418" lon="2.27849">
        <ele>1044</ele>
        <time>2018-11-26T07:00:40Z</time>
      </trkpt>
      <trkpt lat="42.15427" lon="2.27853">
        <ele>1044.5</ele>
        <time>2018-11-26T07:00:44Z</time>
      </trkpt>
      <trkpt lat="42.15435" lon="2.2786">
        <ele>1044.5</ele>
        <time>2018-11-26T07:00:48Z</time>
      </trkpt>
      <trkpt lat="42.15443" lon="2.27867">
        <ele>1042.5</ele>
        <time>2018-11-26T07:00:51Z</time>
      </trkpt>
      <trkpt lat="42.15451" lon="2.2786">
        <ele>1046.5</ele>
        <time>2018-11-26T07:00:55Z</time>
      </trkpt>
      <trkpt lat="42.15461" lon="2.27859">
        <ele>1048.8</ele>
        <time>2018-11-26T07:00:59Z</time>
      </trkpt>
      <trkpt lat="42.1547" lon="2.27861">
        <ele>1050</ele>
        <time>2018-11-26T07:01:02Z</time>
      </trkpt>
      <trkpt lat="42.15478" lon="2.27866">
        <ele>1052.1</ele>
        <time>2018-11-26T07:01:06Z</time>
      </trkpt>
      <trkpt lat="42.15487" lon="2.27868">
        <ele>1053.2</ele>
        <time>2018-11-26T07:01:10Z</time>
      </trkpt>
      <trkpt lat="42.15496" lon="2.27864">
        <ele>1057.9</ele>
        <time>2018-11-26T07:01:14Z</time>
      </trkpt>
      <trkpt lat="42.15505" lon="2.27866">
        <ele>1059.6</ele>
        <time>2018-11-26T07:01:17Z</time>
      </trkpt>
      <trkpt lat="42.15514" lon="2.27869">
        <ele>1061</ele>
        <time>2018-11-26T07:01:21Z</time>
      </trkpt>
      <trkpt lat="42.15523" lon="2.27867">
        <ele>1063</ele>
        <time>2018-11-26T07:01:25Z</time>
      </trkpt>
      <trkpt lat="42.15533" lon="2.27869">
        <ele>1064.8</ele>
        <time>2018-11-26T07:01:29Z</time>
      </trkpt>
      <trkpt lat="42.15542" lon="2.27871">
        <ele>1066.4</ele>
        <time>2018-11-26T07:01:32Z</time>
      </trkpt>
      <trkpt lat="42.15549" lon="2.27882">
        <ele>1068.6</ele>
        <time>2018-11-26T07:01:37Z</time>
      </trkpt>
      <trkpt lat="42.15558" lon="2.27883">
        <ele>1072.5</ele>
        <time>2018-11-26T07:01:40Z</time>
      </trkpt>
      <trkpt lat="42.15567" lon="2.27882">
        <ele>1075.1</ele>
        <time>2018-11-26T07:01:44Z</time>
      </trkpt>
      <trkpt lat="42.15576" lon="2.27886">
        <ele>1078.2</ele>
        <time>2018-11-26T07:01:48Z</time>
      </trkpt>
      <trkpt lat="42.15585" lon="2.27887">
        <ele>1081.6</ele>
        <time>2018-11-26T07:01:51Z</time>
      </trkpt>
      <trkpt lat="42.15593" lon="2.27881">
        <ele>1085.5</ele>
        <time>2018-11-26T07:01:55Z</time>
      </trkpt>
      <trkpt lat="42.15601" lon="2.27887">
        <ele>1086.1</ele>
        <time>2018-11-26T07:01:59Z</time>
      </trkpt>
      <trkpt lat="42.15611" lon="2.27886">
        <ele>1087.9</ele>
        <time>2018-11-26T07:02:03Z</time>
      </trkpt>
      <trkpt lat="42.15619" lon="2.27893">
        <ele>1089.6</ele>
        <time>2018-11-26T07:02:07Z</time>
      </trkpt>
      <trkpt lat="42.15626" lon="2.27901">
        <ele>1091.1</ele>
        <time>2018-11-26T07:02:11Z</time>
      </trkpt>
      <trkpt lat="42.15634" lon="2.27906">
        <ele>1091.5</ele>
        <time>2018-11-26T07:02:14Z</time>
      </trkpt>
      <trkpt lat="42.15644" lon="2.27907">
        <ele>1095.2</ele>
        <time>2018-11-26T07:02:18Z</time>
      </trkpt>
      <trkpt lat="42.15653" lon="2.27908">
        <ele>1100</ele>
        <time>2018-11-26T07:02:22Z</time>
      </trkpt>
      <trkpt lat="42.15663" lon="2.27909">
        <ele>1103.5</ele>
        <time>2018-11-26T07:02:26Z</time>
      </trkpt>
      <trkpt lat="42.15673" lon="2.27914">
        <ele>1105.2</ele>
        <time>2018-11-26T07:02:30Z</time>
      </trkpt>
      <trkpt lat="42.15682" lon="2.27917">
        <ele>1107.5</ele>
        <time>2018-11-26T07:02:34Z</time>
      </trkpt>
      <trkpt lat="42.15689" lon="2.27923">
        <ele>1111.1</ele>
        <time>2018-11-26T07:02:37Z</time>
      </trkpt>
      <trkpt lat="42.15698" lon="2.27929">
        <ele>1114.6</ele>
        <time>2018-11-26T07:02:41Z</time>
      </trkpt>
      <trkpt lat="42.15704" lon="2.27938">
        <ele>1115.6</ele>
        <time>2018-11-26T07:02:45Z</time>
      </trkpt>
      <trkpt lat="42.15708" lon="2.27949">
        <ele>1121.9</ele>
        <time>2018-11-26T07:02:48Z</time>
      </trkpt>
      <trkpt lat="42.15714" lon="2.27959">
        <ele>1123.4</ele>
        <time>2018-11-26T07:02:52Z</time>
      </trkpt>
      <trkpt lat="42.15722" lon="2.27953">
        <ele>1123.1</ele>
        <time>2018-11-26T07:02:56Z</time>
      </trkpt>
      <trkpt lat="42.15712" lon="2.27948">
        <ele>1125</ele>
        <time>2018-11-26T07:03:00Z</time>
      </trkpt>
      <trkpt lat="42.15708" lon="2.27936">
        <ele>1126.4</ele>
        <time>2018-11-26T07:03:04Z</time>
      </trkpt>
      <trkpt lat="42.15709" lon="2.27924">
        <ele>1129.5</ele>
        <time>2018-11-26T07:03:08Z</time>
      </trkpt>
      <trkpt lat="42.15707" lon="2.2791">
        <ele>1130.2</ele>
        <time>2018-11-26T07:03:12Z</time>
      </trkpt>
      <trkpt lat="42.15706" lon="2.27897">
        <ele>1131</ele>
        <time>2018-11-26T07:03:16Z</time>
      </trkpt>
      <trkpt lat="42.15707" lon="2.27884">
        <ele>1133.6</ele>
        <time>2018-11-26T07:03:19Z</time>
      </trkpt>
      <trkpt lat="42.157" lon="2.27875">
        <ele>1135.6</ele>
        <time>2018-11-26T07:03:23Z</time>
      </trkpt>
      <trkpt lat="42.15699" lon="2.27861">
        <ele>1136.4</ele>
        <time>2018-11-26T07:03:27Z</time>
      </trkpt>
      <trkpt lat="42.15697" lon="2.27848">
        <ele>1136.6</ele>
        <time>2018-11-26T07:03:31Z</time>
      </trkpt>
      <trkpt lat="42.15698" lon="2.27834">
        <ele>1137.9</ele>
        <time>2018-11-26T07:03:35Z</time>
      </trkpt>
      <trkpt lat="42.15698" lon="2.27822">
        <ele>1141.1</ele>
        <time>2018-11-26T07:03:39Z</time>
      </trkpt>
      <trkpt lat="42.15703" lon="2.27811">
        <ele>1143.4</ele>
        <time>2018-11-26T07:03:43Z</time>
      </trkpt>
      <trkpt lat="42.15713" lon="2.2781">
        <ele>1149.1</ele>
        <time>2018-11-26T07:03:47Z</time>
      </trkpt>
      <trkpt lat="42.15721" lon="2.27816">
        <ele>1154.5</ele>
        <time>2018-11-26T07:03:51Z</time>
      </trkpt>
      <trkpt lat="42.15719" lon="2.27828">
        <ele>1158</ele>
        <time>2018-11-26T07:03:54Z</time>
      </trkpt>
      <trkpt lat="42.15721" lon="2.27841">
        <ele>1158.1</ele>
        <time>2018-11-26T07:03:58Z</time>
      </trkpt>
      <trkpt lat="42.15724" lon="2.27852">
        <ele>1158.5</ele>
        <time>2018-11-26T07:04:02Z</time>
      </trkpt>
      <trkpt lat="42.15727" lon="2.27864">
        <ele>1159.5</ele>
        <time>2018-11-26T07:04:06Z</time>
      </trkpt>
      <trkpt lat="42.1573" lon="2.27876">
        <ele>1161.1</ele>
        <time>2018-11-26T07:04:09Z</time>
      </trkpt>
      <trkpt lat="42.15735" lon="2.27886">
        <ele>1161.9</ele>
        <time>2018-11-26T07:04:13Z</time>
      </trkpt>
      <trkpt lat="42.15743" lon="2.27895">
        <ele>1164.2</ele>
        <time>2018-11-26T07:04:17Z</time>
      </trkpt>
      <trkpt lat="42.15749" lon="2.27905">
        <ele>1164.8</ele>
        <time>2018-11-26T07:04:21Z</time>
      </trkpt>
      <trkpt lat="42.15755" lon="2.27916">
        <ele>1166</ele>
        <time>2018-11-26T07:04:25Z</time>
      </trkpt>
      <trkpt lat="42.15762" lon="2.27926">
        <ele>1166.5</ele>
        <time>2018-11-26T07:04:29Z</time>
      </trkpt>
      <trkpt lat="42.15765" lon="2.27937">
        <ele>1167.5</ele>
        <time>2018-11-26T07:04:32Z</time>
      </trkpt>
      <trkpt lat="42.1577" lon="2.27948">
        <ele>1169.1</ele>
        <time>2018-11-26T07:04:36Z</time>
      </trkpt>
      <trkpt lat="42.15775" lon="2.2796">
        <ele>1169.1</ele>
        <time>2018-11-26T07:04:40Z</time>
      </trkpt>
      <trkpt lat="42.1578" lon="2.27971">
        <ele>1170.4</ele>
        <time>2018-11-26T07:04:44Z</time>
      </trkpt>
      <trkpt lat="42.15784" lon="2.27982">
        <ele>1169.9</ele>
        <time>2018-11-26T07:04:48Z</time>
      </trkpt>
      <trkpt lat="42.15775" lon="2.27985">
        <ele>1170.1</ele>
        <time>2018-11-26T07:04:52Z</time>
      </trkpt>
      <trkpt lat="42.15765" lon="2.27982">
        <ele>1170.4</ele>
        <time>2018-11-26T07:04:55Z</time>
      </trkpt>
      <trkpt lat="42.15756" lon="2.2798">
        <ele>1170.5</ele>
        <time>2018-11-26T07:04:59Z</time>
      </trkpt>
      <trkpt lat="42.15747" lon="2.27981">
        <ele>1173.4</ele>
        <time>2018-11-26T07:05:03Z</time>
      </trkpt>
      <trkpt lat="42.15746" lon="2.27994">
        <ele>1177.5</ele>
        <time>2018-11-26T07:05:07Z</time>
      </trkpt>
      <trkpt lat="42.15746" lon="2.28007">
        <ele>1181.4</ele>
        <time>2018-11-26T07:05:10Z</time>
      </trkpt>
      <trkpt lat="42.15743" lon="2.28019">
        <ele>1184.4</ele>
        <time>2018-11-26T07:05:14Z</time>
      </trkpt>
      <trkpt lat="42.15748" lon="2.28029">
        <ele>1190.4</ele>
        <time>2018-11-26T07:05:18Z</time>
      </trkpt>
      <trkpt lat="42.15757" lon="2.28031">
        <ele>1193.1</ele>
        <time>2018-11-26T07:05:21Z</time>
      </trkpt>
      <trkpt lat="42.1576" lon="2.28042">
        <ele>1196.5</ele>
        <time>2018-11-26T07:05:25Z</time>
      </trkpt>
      <trkpt lat="42.15751" lon="2.28046">
        <ele>1199.6</ele>
        <time>2018-11-26T07:05:29Z</time>
      </trkpt>
      <trkpt lat="42.15741" lon="2.2805">
        <ele>1199.6</ele>
        <time>2018-11-26T07:05:33Z</time>
      </trkpt>
      <trkpt lat="42.15734" lon="2.28059">
        <ele>1200.9</ele>
        <time>2018-11-26T07:05:37Z</time>
      </trkpt>
      <trkpt lat="42.15725" lon="2.28059">
        <ele>1200.1</ele>
        <time>2018-11-26T07:05:41Z</time>
      </trkpt>
      <trkpt lat="42.15716" lon="2.2806">
        <ele>1198.9</ele>
        <time>2018-11-26T07:05:44Z</time>
      </trkpt>
      <trkpt lat="42.15708" lon="2.28068">
        <ele>1199.1</ele>
        <time>2018-11-26T07:05:48Z</time>
      </trkpt>
      <trkpt lat="42.157" lon="2.28074">
        <ele>1199.6</ele>
        <time>2018-11-26T07:05:52Z</time>
      </trkpt>
      <trkpt lat="42.1569" lon="2.28075">
        <ele>1195.8</ele>
        <time>2018-11-26T07:05:56Z</time>
      </trkpt>
      <trkpt lat="42.15683" lon="2.28083">
        <ele>1195.5</ele>
        <time>2018-11-26T07:06:00Z</time>
      </trkpt>
      <trkpt lat="42.15673" lon="2.28085">
        <ele>1195.8</ele>
        <time>2018-11-26T07:06:04Z</time>
      </trkpt>
      <trkpt lat="42.15665" lon="2.2809">
        <ele>1197.1</ele>
        <time>2018-11-26T07:06:07Z</time>
      </trkpt>
      <trkpt lat="42.15656" lon="2.28093">
        <ele>1194.6</ele>
        <time>2018-11-26T07:06:11Z</time>
      </trkpt>
      <trkpt lat="42.15648" lon="2.281">
        <ele>1193.9</ele>
        <time>2018-11-26T07:06:15Z</time>
      </trkpt>
      <trkpt lat="42.15638" lon="2.28102">
        <ele>1195</ele>
        <time>2018-11-26T07:06:19Z</time>
      </trkpt>
      <trkpt lat="42.15628" lon="2.28104">
        <ele>1193.5</ele>
        <time>2018-11-26T07:06:23Z</time>
      </trkpt>
      <trkpt lat="42.15618" lon="2.2811">
        <ele>1192.6</ele>
        <time>2018-11-26T07:06:27Z</time>
      </trkpt>
      <trkpt lat="42.15617" lon="2.28122">
        <ele>1192.6</ele>
        <time>2018-11-26T07:06:31Z</time>
      </trkpt>
      <trkpt lat="42.15617" lon="2.28125">
        <ele>1192.6</ele>
        <time>2018-11-26T07:06:32Z</time>
      </trkpt>
      <trkpt lat="42.15618" lon="2.2813">
        <ele>1192.9</ele>
        <time>2018-11-26T07:06:33Z</time>
      </trkpt>
      <trkpt lat="42.15619" lon="2.28133">
        <ele>1192.8</ele>
        <time>2018-11-26T07:06:34Z</time>
      </trkpt>
      <trkpt lat="42.15621" lon="2.28136">
        <ele>1192.8</ele>
        <time>2018-11-26T07:06:35Z</time>
      </trkpt>
      <trkpt lat="42.15621" lon="2.28139">
        <ele>1192.5</ele>
        <time>2018-11-26T07:06:36Z</time>
      </trkpt>
      <trkpt lat="42.15622" lon="2.28143">
        <ele>1192.8</ele>
        <time>2018-11-26T07:06:37Z</time>
      </trkpt>
      <trkpt lat="42.15624" lon="2.28154">
        <ele>1191.4</ele>
        <time>2018-11-26T07:06:41Z</time>
      </trkpt>
      <trkpt lat="42.15627" lon="2.28168">
        <ele>1191.1</ele>
        <time>2018-11-26T07:06:45Z</time>
      </trkpt>
      <trkpt lat="42.15631" lon="2.28179">
        <ele>1191.5</ele>
        <time>2018-11-26T07:06:49Z</time>
      </trkpt>
      <trkpt lat="42.15634" lon="2.28193">
        <ele>1191.9</ele>
        <time>2018-11-26T07:06:53Z</time>
      </trkpt>
      <trkpt lat="42.15635" lon="2.28205">
        <ele>1191.4</ele>
        <time>2018-11-26T07:06:57Z</time>
      </trkpt>
      <trkpt lat="42.15636" lon="2.28219">
        <ele>1190.2</ele>
        <time>2018-11-26T07:07:01Z</time>
      </trkpt>
      <trkpt lat="42.15638" lon="2.28232">
        <ele>1190.5</ele>
        <time>2018-11-26T07:07:05Z</time>
      </trkpt>
      <trkpt lat="42.1564" lon="2.28244">
        <ele>1191.5</ele>
        <time>2018-11-26T07:07:08Z</time>
      </trkpt>
      <trkpt lat="42.15643" lon="2.28256">
        <ele>1192.6</ele>
        <time>2018-11-26T07:07:12Z</time>
      </trkpt>
      <trkpt lat="42.15645" lon="2.28268">
        <ele>1193.4</ele>
        <time>2018-11-26T07:07:16Z</time>
      </trkpt>
      <trkpt lat="42.15644" lon="2.28281">
        <ele>1196.5</ele>
        <time>2018-11-26T07:07:20Z</time>
      </trkpt>
      <trkpt lat="42.15645" lon="2.28294">
        <ele>1198.2</ele>
        <time>2018-11-26T07:07:23Z</time>
      </trkpt>
      <trkpt lat="42.15645" lon="2.28307">
        <ele>1198.1</ele>
        <time>2018-11-26T07:07:27Z</time>
      </trkpt>
      <trkpt lat="42.15647" lon="2.28319">
        <ele>1199.9</ele>
        <time>2018-11-26T07:07:31Z</time>
      </trkpt>
      <trkpt lat="42.15645" lon="2.28331">
        <ele>1199.2</ele>
        <time>2018-11-26T07:07:35Z</time>
      </trkpt>
      <trkpt lat="42.15642" lon="2.28343">
        <ele>1198.6</ele>
        <time>2018-11-26T07:07:38Z</time>
      </trkpt>
      <trkpt lat="42.15638" lon="2.28356">
        <ele>1198</ele>
        <time>2018-11-26T07:07:42Z</time>
      </trkpt>
      <trkpt lat="42.15634" lon="2.28368">
        <ele>1200</ele>
        <time>2018-11-26T07:07:46Z</time>
      </trkpt>
      <trkpt lat="42.15628" lon="2.28377">
        <ele>1201.2</ele>
        <time>2018-11-26T07:07:50Z</time>
      </trkpt>
      <trkpt lat="42.15625" lon="2.28389">
        <ele>1199.2</ele>
        <time>2018-11-26T07:07:54Z</time>
      </trkpt>
      <trkpt lat="42.1562" lon="2.28399">
        <ele>1199.5</ele>
        <time>2018-11-26T07:07:57Z</time>
      </trkpt>
      <trkpt lat="42.15615" lon="2.28409">
        <ele>1201.8</ele>
        <time>2018-11-26T07:08:01Z</time>
      </trkpt>
      <trkpt lat="42.15615" lon="2.28422">
        <ele>1202.5</ele>
        <time>2018-11-26T07:08:05Z</time>
      </trkpt>
      <trkpt lat="42.15617" lon="2.28432">
        <ele>1205.5</ele>
        <time>2018-11-26T07:08:08Z</time>
      </trkpt>
      <trkpt lat="42.15616" lon="2.2843">
        <ele>1206.1</ele>
        <time>2018-11-26T07:08:09Z</time>
      </trkpt>
      <trkpt lat="42.15615" lon="2.28428">
        <ele>1206</ele>
        <time>2018-11-26T07:08:09Z</time>
      </trkpt>
      <trkpt lat="42.15616" lon="2.28426">
        <ele>1207.6</ele>
        <time>2018-11-26T07:08:10Z</time>
      </trkpt>
      <trkpt lat="42.15618" lon="2.28424">
        <ele>1208.5</ele>
        <time>2018-11-26T07:08:11Z</time>
      </trkpt>
      <trkpt lat="42.1562" lon="2.28425">
        <ele>1210.9</ele>
        <time>2018-11-26T07:08:12Z</time>
      </trkpt>
      <trkpt lat="42.15621" lon="2.28426">
        <ele>1212.5</ele>
        <time>2018-11-26T07:08:13Z</time>
      </trkpt>
      <trkpt lat="42.15623" lon="2.28426">
        <ele>1213.6</ele>
        <time>2018-11-26T07:08:13Z</time>
      </trkpt>
      <trkpt lat="42.15624" lon="2.28428">
        <ele>1215.1</ele>
        <time>2018-11-26T07:08:14Z</time>
      </trkpt>
      <trkpt lat="42.15626" lon="2.2843">
        <ele>1215.6</ele>
        <time>2018-11-26T07:08:15Z</time>
      </trkpt>
      <trkpt lat="42.15628" lon="2.2843">
        <ele>1216.5</ele>
        <time>2018-11-26T07:08:16Z</time>
      </trkpt>
      <trkpt lat="42.15634" lon="2.2843">
        <ele>1219.4</ele>
        <time>2018-11-26T07:08:18Z</time>
      </trkpt>
      <trkpt lat="42.15636" lon="2.28431">
        <ele>1220.9</ele>
        <time>2018-11-26T07:08:19Z</time>
      </trkpt>
      <trkpt lat="42.15639" lon="2.28431">
        <ele>1222.1</ele>
        <time>2018-11-26T07:08:20Z</time>
      </trkpt>
      <trkpt lat="42.15641" lon="2.28429">
        <ele>1224.4</ele>
        <time>2018-11-26T07:08:21Z</time>
      </trkpt>
      <trkpt lat="42.15643" lon="2.28429">
        <ele>1227.1</ele>
        <time>2018-11-26T07:08:22Z</time>
      </trkpt>
      <trkpt lat="42.15645" lon="2.28429">
        <ele>1228.5</ele>
        <time>2018-11-26T07:08:23Z</time>
      </trkpt>
      <trkpt lat="42.15647" lon="2.2843">
        <ele>1230.1</ele>
        <time>2018-11-26T07:08:24Z</time>
      </trkpt>
      <trkpt lat="42.15648" lon="2.28433">
        <ele>1231.5</ele>
        <time>2018-11-26T07:08:25Z</time>
      </trkpt>
      <trkpt lat="42.1565" lon="2.28444">
        <ele>1231.8</ele>
        <time>2018-11-26T07:08:28Z</time>
      </trkpt>
      <trkpt lat="42.15658" lon="2.28451">
        <ele>1231.9</ele>
        <time>2018-11-26T07:08:32Z</time>
      </trkpt>
      <trkpt lat="42.15661" lon="2.28463">
        <ele>1231.1</ele>
        <time>2018-11-26T07:08:36Z</time>
      </trkpt>
      <trkpt lat="42.15662" lon="2.28476">
        <ele>1229.8</ele>
        <time>2018-11-26T07:08:39Z</time>
      </trkpt>
      <trkpt lat="42.15659" lon="2.28488">
        <ele>1229.4</ele>
        <time>2018-11-26T07:08:43Z</time>
      </trkpt>
      <trkpt lat="42.15657" lon="2.28502">
        <ele>1229.5</ele>
        <time>2018-11-26T07:08:47Z</time>
      </trkpt>
      <trkpt lat="42.15654" lon="2.28515">
        <ele>1228.8</ele>
        <time>2018-11-26T07:08:51Z</time>
      </trkpt>
      <trkpt lat="42.15649" lon="2.28526">
        <ele>1226.9</ele>
        <time>2018-11-26T07:08:55Z</time>
      </trkpt>
      <trkpt lat="42.15649" lon="2.28538">
        <ele>1229.2</ele>
        <time>2018-11-26T07:08:59Z</time>
      </trkpt>
      <trkpt lat="42.15647" lon="2.28551">
        <ele>1231.1</ele>
        <time>2018-11-26T07:09:03Z</time>
      </trkpt>
      <trkpt lat="42.15643" lon="2.28563">
        <ele>1229.4</ele>
        <time>2018-11-26T07:09:07Z</time>
      </trkpt>
      <trkpt lat="42.1564" lon="2.28575">
        <ele>1229.5</ele>
        <time>2018-11-26T07:09:10Z</time>
      </trkpt>
      <trkpt lat="42.1564" lon="2.28578">
        <ele>1229.8</ele>
        <time>2018-11-26T07:09:11Z</time>
      </trkpt>
      <trkpt lat="42.15638" lon="2.2859">
        <ele>1228.6</ele>
        <time>2018-11-26T07:09:15Z</time>
      </trkpt>
      <trkpt lat="42.15637" lon="2.28593">
        <ele>1228.4</ele>
        <time>2018-11-26T07:09:16Z</time>
      </trkpt>
      <trkpt lat="42.15637" lon="2.28596">
        <ele>1227.8</ele>
        <time>2018-11-26T07:09:17Z</time>
      </trkpt>
      <trkpt lat="42.15638" lon="2.28598">
        <ele>1228.4</ele>
        <time>2018-11-26T07:09:18Z</time>
      </trkpt>
      <trkpt lat="42.15637" lon="2.28601">
        <ele>1228.4</ele>
        <time>2018-11-26T07:09:19Z</time>
      </trkpt>
      <trkpt lat="42.15633" lon="2.28614">
        <ele>1228.6</ele>
        <time>2018-11-26T07:09:23Z</time>
      </trkpt>
      <trkpt lat="42.15631" lon="2.28626">
        <ele>1228.9</ele>
        <time>2018-11-26T07:09:26Z</time>
      </trkpt>
      <trkpt lat="42.15633" lon="2.2864">
        <ele>1225.9</ele>
        <time>2018-11-26T07:09:30Z</time>
      </trkpt>
      <trkpt lat="42.15632" lon="2.28652">
        <ele>1225.2</ele>
        <time>2018-11-26T07:09:34Z</time>
      </trkpt>
      <trkpt lat="42.1563" lon="2.28664">
        <ele>1225.1</ele>
        <time>2018-11-26T07:09:38Z</time>
      </trkpt>
      <trkpt lat="42.15629" lon="2.28677">
        <ele>1225.9</ele>
        <time>2018-11-26T07:09:42Z</time>
      </trkpt>
      <trkpt lat="42.1563" lon="2.28689">
        <ele>1227.1</ele>
        <time>2018-11-26T07:09:45Z</time>
      </trkpt>
      <trkpt lat="42.15626" lon="2.28701">
        <ele>1227.2</ele>
        <time>2018-11-26T07:09:49Z</time>
      </trkpt>
      <trkpt lat="42.15625" lon="2.28715">
        <ele>1226.8</ele>
        <time>2018-11-26T07:09:53Z</time>
      </trkpt>
      <trkpt lat="42.15624" lon="2.2873">
        <ele>1226</ele>
        <time>2018-11-26T07:09:58Z</time>
      </trkpt>
      <trkpt lat="42.15621" lon="2.28743">
        <ele>1226</ele>
        <time>2018-11-26T07:10:02Z</time>
      </trkpt>
      <trkpt lat="42.1562" lon="2.28755">
        <ele>1226.1</ele>
        <time>2018-11-26T07:10:05Z</time>
      </trkpt>
      <trkpt lat="42.15626" lon="2.28765">
        <ele>1226.9</ele>
        <time>2018-11-26T07:10:09Z</time>
      </trkpt>
      <trkpt lat="42.15625" lon="2.2878">
        <ele>1223.9</ele>
        <time>2018-11-26T07:10:14Z</time>
      </trkpt>
      <trkpt lat="42.15624" lon="2.28794">
        <ele>1223.2</ele>
        <time>2018-11-26T07:10:18Z</time>
      </trkpt>
      <trkpt lat="42.15626" lon="2.28806">
        <ele>1223.2</ele>
        <time>2018-11-26T07:10:21Z</time>
      </trkpt>
      <trkpt lat="42.15627" lon="2.28821">
        <ele>1221.9</ele>
        <time>2018-11-26T07:10:26Z</time>
      </trkpt>
      <trkpt lat="42.1563" lon="2.28833">
        <ele>1220</ele>
        <time>2018-11-26T07:10:30Z</time>
      </trkpt>
      <trkpt lat="42.15632" lon="2.28845">
        <ele>1218.8</ele>
        <time>2018-11-26T07:10:33Z</time>
      </trkpt>
      <trkpt lat="42.15631" lon="2.28858">
        <ele>1213.6</ele>
        <time>2018-11-26T07:10:37Z</time>
      </trkpt>
      <trkpt lat="42.15635" lon="2.28869">
        <ele>1212.1</ele>
        <time>2018-11-26T07:10:41Z</time>
      </trkpt>
      <trkpt lat="42.15637" lon="2.28882">
        <ele>1210.5</ele>
        <time>2018-11-26T07:10:45Z</time>
      </trkpt>
      <trkpt lat="42.15639" lon="2.28895">
        <ele>1210.4</ele>
        <time>2018-11-26T07:10:49Z</time>
      </trkpt>
      <trkpt lat="42.15639" lon="2.28908">
        <ele>1211.8</ele>
        <time>2018-11-26T07:10:53Z</time>
      </trkpt>
      <trkpt lat="42.15638" lon="2.28921">
        <ele>1212.4</ele>
        <time>2018-11-26T07:10:57Z</time>
      </trkpt>
      <trkpt lat="42.15633" lon="2.28931">
        <ele>1210</ele>
        <time>2018-11-26T07:11:00Z</time>
      </trkpt>
      <trkpt lat="42.15635" lon="2.28943">
        <ele>1210.6</ele>
        <time>2018-11-26T07:11:04Z</time>
      </trkpt>
      <trkpt lat="42.1564" lon="2.28953">
        <ele>1213.4</ele>
        <time>2018-11-26T07:11:08Z</time>
      </trkpt>
      <trkpt lat="42.15647" lon="2.28963">
        <ele>1216.7</ele>
        <time>2018-11-26T07:11:12Z</time>
      </trkpt>
      <trkpt lat="42.15651" lon="2.28974">
        <ele>1219.4</ele>
        <time>2018-11-26T07:11:15Z</time>
      </trkpt>
      <trkpt lat="42.15655" lon="2.28985">
        <ele>1220.5</ele>
        <time>2018-11-26T07:11:19Z</time>
      </trkpt>
      <trkpt lat="42.15661" lon="2.28997">
        <ele>1218.9</ele>
        <time>2018-11-26T07:11:23Z</time>
      </trkpt>
      <trkpt lat="42.15663" lon="2.29009">
        <ele>1218.8</ele>
        <time>2018-11-26T07:11:27Z</time>
      </trkpt>
      <trkpt lat="42.15666" lon="2.29022">
        <ele>1218.1</ele>
        <time>2018-11-26T07:11:31Z</time>
      </trkpt>
      <trkpt lat="42.15672" lon="2.29031">
        <ele>1219.8</ele>
        <time>2018-11-26T07:11:35Z</time>
      </trkpt>
      <trkpt lat="42.15678" lon="2.29041">
        <ele>1223.4</ele>
        <time>2018-11-26T07:11:38Z</time>
      </trkpt>
      <trkpt lat="42.15683" lon="2.29052">
        <ele>1236.6</ele>
        <time>2018-11-26T07:11:42Z</time>
      </trkpt>
      <trkpt lat="42.15693" lon="2.29052">
        <ele>1241</ele>
        <time>2018-11-26T07:11:46Z</time>
      </trkpt>
      <trkpt lat="42.15693" lon="2.29049">
        <ele>1241.5</ele>
        <time>2018-11-26T07:11:47Z</time>
      </trkpt>
      <trkpt lat="42.15694" lon="2.29047">
        <ele>1244.1</ele>
        <time>2018-11-26T07:11:48Z</time>
      </trkpt>
      <trkpt lat="42.15695" lon="2.29044">
        <ele>1244.5</ele>
        <time>2018-11-26T07:11:49Z</time>
      </trkpt>
      <trkpt lat="42.15696" lon="2.29042">
        <ele>1244</ele>
        <time>2018-11-26T07:11:50Z</time>
      </trkpt>
      <trkpt lat="42.15697" lon="2.2904">
        <ele>1244.1</ele>
        <time>2018-11-26T07:11:50Z</time>
      </trkpt>
      <trkpt lat="42.15698" lon="2.29036">
        <ele>1244.7</ele>
        <time>2018-11-26T07:11:51Z</time>
      </trkpt>
      <trkpt lat="42.157" lon="2.29035">
        <ele>1244.9</ele>
        <time>2018-11-26T07:11:52Z</time>
      </trkpt>
      <trkpt lat="42.15702" lon="2.29034">
        <ele>1244.8</ele>
        <time>2018-11-26T07:11:53Z</time>
      </trkpt>
      <trkpt lat="42.15705" lon="2.29033">
        <ele>1245.1</ele>
        <time>2018-11-26T07:11:54Z</time>
      </trkpt>
      <trkpt lat="42.15707" lon="2.29032">
        <ele>1245.2</ele>
        <time>2018-11-26T07:11:55Z</time>
      </trkpt>
      <trkpt lat="42.15709" lon="2.29032">
        <ele>1245.1</ele>
        <time>2018-11-26T07:11:56Z</time>
      </trkpt>
      <trkpt lat="42.15712" lon="2.29032">
        <ele>1244.9</ele>
        <time>2018-11-26T07:11:57Z</time>
      </trkpt>
      <trkpt lat="42.15714" lon="2.29032">
        <ele>1244.9</ele>
        <time>2018-11-26T07:11:58Z</time>
      </trkpt>
      <trkpt lat="42.15716" lon="2.29032">
        <ele>1244.9</ele>
        <time>2018-11-26T07:11:59Z</time>
      </trkpt>
      <trkpt lat="42.15718" lon="2.29032">
        <ele>1244.9</ele>
        <time>2018-11-26T07:12:00Z</time>
      </trkpt>
      <trkpt lat="42.1572" lon="2.29032">
        <ele>1244.9</ele>
        <time>2018-11-26T07:12:01Z</time>
      </trkpt>
      <trkpt lat="42.15723" lon="2.29031">
        <ele>1245.1</ele>
        <time>2018-11-26T07:12:02Z</time>
      </trkpt>
      <trkpt lat="42.15726" lon="2.29031">
        <ele>1245.5</ele>
        <time>2018-11-26T07:12:03Z</time>
      </trkpt>
      <trkpt lat="42.15728" lon="2.29031">
        <ele>1246.1</ele>
        <time>2018-11-26T07:12:04Z</time>
      </trkpt>
      <trkpt lat="42.1573" lon="2.29032">
        <ele>1245.5</ele>
        <time>2018-11-26T07:12:04Z</time>
      </trkpt>
      <trkpt lat="42.15732" lon="2.29031">
        <ele>1246</ele>
        <time>2018-11-26T07:12:05Z</time>
      </trkpt>
      <trkpt lat="42.15733" lon="2.2903">
        <ele>1246</ele>
        <time>2018-11-26T07:12:06Z</time>
      </trkpt>
      <trkpt lat="42.15735" lon="2.2903">
        <ele>1246.2</ele>
        <time>2018-11-26T07:12:07Z</time>
      </trkpt>
      <trkpt lat="42.15738" lon="2.29029">
        <ele>1246.1</ele>
        <time>2018-11-26T07:12:08Z</time>
      </trkpt>
      <trkpt lat="42.1574" lon="2.29029">
        <ele>1246.2</ele>
        <time>2018-11-26T07:12:08Z</time>
      </trkpt>
      <trkpt lat="42.15742" lon="2.29028">
        <ele>1246.2</ele>
        <time>2018-11-26T07:12:09Z</time>
      </trkpt>
      <trkpt lat="42.15744" lon="2.29027">
        <ele>1246.5</ele>
        <time>2018-11-26T07:12:10Z</time>
      </trkpt>
      <trkpt lat="42.15746" lon="2.29026">
        <ele>1246.6</ele>
        <time>2018-11-26T07:12:11Z</time>
      </trkpt>
      <trkpt lat="42.15749" lon="2.29025">
        <ele>1246.9</ele>
        <time>2018-11-26T07:12:13Z</time>
      </trkpt>
      <trkpt lat="42.15752" lon="2.29024">
        <ele>1247.1</ele>
        <time>2018-11-26T07:12:14Z</time>
      </trkpt>
      <trkpt lat="42.15754" lon="2.29022">
        <ele>1247.6</ele>
        <time>2018-11-26T07:12:15Z</time>
      </trkpt>
      <trkpt lat="42.15755" lon="2.29019">
        <ele>1247.5</ele>
        <time>2018-11-26T07:12:16Z</time>
      </trkpt>
      <trkpt lat="42.15757" lon="2.29017">
        <ele>1247.5</ele>
        <time>2018-11-26T07:12:17Z</time>
      </trkpt>
      <trkpt lat="42.1576" lon="2.29015">
        <ele>1247.5</ele>
        <time>2018-11-26T07:12:18Z</time>
      </trkpt>
      <trkpt lat="42.15762" lon="2.29015">
        <ele>1247.6</ele>
        <time>2018-11-26T07:12:18Z</time>
      </trkpt>
      <trkpt lat="42.15764" lon="2.29014">
        <ele>1248</ele>
        <time>2018-11-26T07:12:19Z</time>
      </trkpt>
      <trkpt lat="42.15766" lon="2.29013">
        <ele>1248.5</ele>
        <time>2018-11-26T07:12:20Z</time>
      </trkpt>
      <trkpt lat="42.15767" lon="2.29011">
        <ele>1249.1</ele>
        <time>2018-11-26T07:12:21Z</time>
      </trkpt>
      <trkpt lat="42.15769" lon="2.2901">
        <ele>1249.5</ele>
        <time>2018-11-26T07:12:22Z</time>
      </trkpt>
      <trkpt lat="42.15771" lon="2.29009">
        <ele>1250.1</ele>
        <time>2018-11-26T07:12:23Z</time>
      </trkpt>
      <trkpt lat="42.15774" lon="2.29007">
        <ele>1250.1</ele>
        <time>2018-11-26T07:12:24Z</time>
      </trkpt>
      <trkpt lat="42.15777" lon="2.29006">
        <ele>1249.9</ele>
        <time>2018-11-26T07:12:25Z</time>
      </trkpt>
      <trkpt lat="42.1578" lon="2.29005">
        <ele>1250</ele>
        <time>2018-11-26T07:12:26Z</time>
      </trkpt>
      <trkpt lat="42.15782" lon="2.29005">
        <ele>1250.1</ele>
        <time>2018-11-26T07:12:27Z</time>
      </trkpt>
      <trkpt lat="42.15785" lon="2.29005">
        <ele>1250.5</ele>
        <time>2018-11-26T07:12:28Z</time>
      </trkpt>
      <trkpt lat="42.15786" lon="2.29005">
        <ele>1250.6</ele>
        <time>2018-11-26T07:12:29Z</time>
      </trkpt>
      <trkpt lat="42.15788" lon="2.29004">
        <ele>1250.9</ele>
        <time>2018-11-26T07:12:30Z</time>
      </trkpt>
      <trkpt lat="42.1579" lon="2.29004">
        <ele>1251.1</ele>
        <time>2018-11-26T07:12:31Z</time>
      </trkpt>
      <trkpt lat="42.15793" lon="2.29005">
        <ele>1251.1</ele>
        <time>2018-11-26T07:12:32Z</time>
      </trkpt>
      <trkpt lat="42.15802" lon="2.29007">
        <ele>1252.8</ele>
        <time>2018-11-26T07:12:36Z</time>
      </trkpt>
      <trkpt lat="42.15808" lon="2.29005">
        <ele>1253.6</ele>
        <time>2018-11-26T07:12:38Z</time>
      </trkpt>
      <trkpt lat="42.1581" lon="2.29003">
        <ele>1254.4</ele>
        <time>2018-11-26T07:12:39Z</time>
      </trkpt>
      <trkpt lat="42.15812" lon="2.29003">
        <ele>1254.8</ele>
        <time>2018-11-26T07:12:40Z</time>
      </trkpt>
      <trkpt lat="42.15815" lon="2.29004">
        <ele>1255.1</ele>
        <time>2018-11-26T07:12:41Z</time>
      </trkpt>
      <trkpt lat="42.15817" lon="2.29005">
        <ele>1255.5</ele>
        <time>2018-11-26T07:12:42Z</time>
      </trkpt>
      <trkpt lat="42.1582" lon="2.29007">
        <ele>1256</ele>
        <time>2018-11-26T07:12:43Z</time>
      </trkpt>
      <trkpt lat="42.15822" lon="2.2901">
        <ele>1256.8</ele>
        <time>2018-11-26T07:12:44Z</time>
      </trkpt>
      <trkpt lat="42.15823" lon="2.29013">
        <ele>1257.1</ele>
        <time>2018-11-26T07:12:45Z</time>
      </trkpt>
      <trkpt lat="42.15824" lon="2.29016">
        <ele>1257.1</ele>
        <time>2018-11-26T07:12:46Z</time>
      </trkpt>
      <trkpt lat="42.15825" lon="2.29019">
        <ele>1257.1</ele>
        <time>2018-11-26T07:12:47Z</time>
      </trkpt>
      <trkpt lat="42.15825" lon="2.29023">
        <ele>1257.8</ele>
        <time>2018-11-26T07:12:48Z</time>
      </trkpt>
      <trkpt lat="42.15822" lon="2.29026">
        <ele>1259.2</ele>
        <time>2018-11-26T07:12:50Z</time>
      </trkpt>
      <trkpt lat="42.15831" lon="2.29032">
        <ele>1261.1</ele>
        <time>2018-11-26T07:12:53Z</time>
      </trkpt>
      <trkpt lat="42.15836" lon="2.29031">
        <ele>1263</ele>
        <time>2018-11-26T07:12:56Z</time>
      </trkpt>
      <trkpt lat="42.15839" lon="2.2903">
        <ele>1263.8</ele>
        <time>2018-11-26T07:12:57Z</time>
      </trkpt>
      <trkpt lat="42.15841" lon="2.29031">
        <ele>1264.8</ele>
        <time>2018-11-26T07:12:58Z</time>
      </trkpt>
      <trkpt lat="42.1584" lon="2.29034">
        <ele>1265</ele>
        <time>2018-11-26T07:12:59Z</time>
      </trkpt>
      <trkpt lat="42.1584" lon="2.29037">
        <ele>1265.8</ele>
        <time>2018-11-26T07:12:59Z</time>
      </trkpt>
      <trkpt lat="42.15841" lon="2.29039">
        <ele>1266</ele>
        <time>2018-11-26T07:13:00Z</time>
      </trkpt>
      <trkpt lat="42.15843" lon="2.29041">
        <ele>1266.1</ele>
        <time>2018-11-26T07:13:01Z</time>
      </trkpt>
      <trkpt lat="42.15845" lon="2.29042">
        <ele>1266.4</ele>
        <time>2018-11-26T07:13:02Z</time>
      </trkpt>
      <trkpt lat="42.15846" lon="2.29042">
        <ele>1266.4</ele>
        <time>2018-11-26T07:13:03Z</time>
      </trkpt>
      <trkpt lat="42.15849" lon="2.29042">
        <ele>1265.1</ele>
        <time>2018-11-26T07:13:03Z</time>
      </trkpt>
      <trkpt lat="42.15847" lon="2.29044">
        <ele>1265.5</ele>
        <time>2018-11-26T07:13:04Z</time>
      </trkpt>
      <trkpt lat="42.15849" lon="2.29045">
        <ele>1265.9</ele>
        <time>2018-11-26T07:13:05Z</time>
      </trkpt>
      <trkpt lat="42.15847" lon="2.29044">
        <ele>1266.4</ele>
        <time>2018-11-26T07:13:06Z</time>
      </trkpt>
      <trkpt lat="42.15845" lon="2.29043">
        <ele>1266.9</ele>
        <time>2018-11-26T07:13:07Z</time>
      </trkpt>
      <trkpt lat="42.15843" lon="2.29043">
        <ele>1265.6</ele>
        <time>2018-11-26T07:13:08Z</time>
      </trkpt>
      <trkpt lat="42.15844" lon="2.29044">
        <ele>1266.1</ele>
        <time>2018-11-26T07:13:09Z</time>
      </trkpt>
      <trkpt lat="42.15845" lon="2.29046">
        <ele>1266.4</ele>
        <time>2018-11-26T07:13:09Z</time>
      </trkpt>
      <trkpt lat="42.15847" lon="2.29047">
        <ele>1265.5</ele>
        <time>2018-11-26T07:13:10Z</time>
      </trkpt>
      <trkpt lat="42.1585" lon="2.29046">
        <ele>1265.9</ele>
        <time>2018-11-26T07:13:11Z</time>
      </trkpt>
      <trkpt lat="42.15851" lon="2.29043">
        <ele>1266.1</ele>
        <time>2018-11-26T07:13:12Z</time>
      </trkpt>
      <trkpt lat="42.15854" lon="2.29039">
        <ele>1266.1</ele>
        <time>2018-11-26T07:13:14Z</time>
      </trkpt>
      <trkpt lat="42.15856" lon="2.29037">
        <ele>1266.1</ele>
        <time>2018-11-26T07:13:15Z</time>
      </trkpt>
      <trkpt lat="42.15858" lon="2.29037">
        <ele>1266.2</ele>
        <time>2018-11-26T07:13:16Z</time>
      </trkpt>
      <trkpt lat="42.15861" lon="2.29036">
        <ele>1267.1</ele>
        <time>2018-11-26T07:13:17Z</time>
      </trkpt>
      <trkpt lat="42.15863" lon="2.29037">
        <ele>1267.9</ele>
        <time>2018-11-26T07:13:18Z</time>
      </trkpt>
      <trkpt lat="42.15865" lon="2.29037">
        <ele>1268.2</ele>
        <time>2018-11-26T07:13:19Z</time>
      </trkpt>
      <trkpt lat="42.15867" lon="2.29037">
        <ele>1268.5</ele>
        <time>2018-11-26T07:13:19Z</time>
      </trkpt>
      <trkpt lat="42.15869" lon="2.29037">
        <ele>1268.5</ele>
        <time>2018-11-26T07:13:20Z</time>
      </trkpt>
      <trkpt lat="42.15872" lon="2.29036">
        <ele>1268.4</ele>
        <time>2018-11-26T07:13:22Z</time>
      </trkpt>
      <trkpt lat="42.15874" lon="2.29037">
        <ele>1268.4</ele>
        <time>2018-11-26T07:13:22Z</time>
      </trkpt>
      <trkpt lat="42.15878" lon="2.29037">
        <ele>1268.9</ele>
        <time>2018-11-26T07:13:24Z</time>
      </trkpt>
      <trkpt lat="42.15881" lon="2.29036">
        <ele>1269.5</ele>
        <time>2018-11-26T07:13:25Z</time>
      </trkpt>
      <trkpt lat="42.15883" lon="2.29035">
        <ele>1270</ele>
        <time>2018-11-26T07:13:26Z</time>
      </trkpt>
      <trkpt lat="42.15885" lon="2.29034">
        <ele>1270.1</ele>
        <time>2018-11-26T07:13:27Z</time>
      </trkpt>
      <trkpt lat="42.15887" lon="2.29033">
        <ele>1270.2</ele>
        <time>2018-11-26T07:13:28Z</time>
      </trkpt>
      <trkpt lat="42.1589" lon="2.29032">
        <ele>1270.5</ele>
        <time>2018-11-26T07:13:29Z</time>
      </trkpt>
      <trkpt lat="42.15892" lon="2.29031">
        <ele>1270.8</ele>
        <time>2018-11-26T07:13:30Z</time>
      </trkpt>
      <trkpt lat="42.15895" lon="2.29031">
        <ele>1271.5</ele>
        <time>2018-11-26T07:13:31Z</time>
      </trkpt>
      <trkpt lat="42.15897" lon="2.2903">
        <ele>1271.8</ele>
        <time>2018-11-26T07:13:32Z</time>
      </trkpt>
      <trkpt lat="42.15899" lon="2.2903">
        <ele>1272</ele>
        <time>2018-11-26T07:13:33Z</time>
      </trkpt>
      <trkpt lat="42.15902" lon="2.2903">
        <ele>1272.5</ele>
        <time>2018-11-26T07:13:34Z</time>
      </trkpt>
      <trkpt lat="42.15905" lon="2.29029">
        <ele>1272.8</ele>
        <time>2018-11-26T07:13:35Z</time>
      </trkpt>
      <trkpt lat="42.15907" lon="2.29028">
        <ele>1272.8</ele>
        <time>2018-11-26T07:13:36Z</time>
      </trkpt>
      <trkpt lat="42.1591" lon="2.29031">
        <ele>1273.5</ele>
        <time>2018-11-26T07:13:37Z</time>
      </trkpt>
      <trkpt lat="42.15911" lon="2.29033">
        <ele>1273.5</ele>
        <time>2018-11-26T07:13:38Z</time>
      </trkpt>
      <trkpt lat="42.15913" lon="2.29034">
        <ele>1274.5</ele>
        <time>2018-11-26T07:13:39Z</time>
      </trkpt>
      <trkpt lat="42.15915" lon="2.29035">
        <ele>1273.4</ele>
        <time>2018-11-26T07:13:40Z</time>
      </trkpt>
      <trkpt lat="42.15916" lon="2.29036">
        <ele>1273.2</ele>
        <time>2018-11-26T07:13:40Z</time>
      </trkpt>
      <trkpt lat="42.15915" lon="2.29034">
        <ele>1275.5</ele>
        <time>2018-11-26T07:13:41Z</time>
      </trkpt>
      <trkpt lat="42.15915" lon="2.29036">
        <ele>1275.1</ele>
        <time>2018-11-26T07:13:42Z</time>
      </trkpt>
      <trkpt lat="42.15917" lon="2.29037">
        <ele>1276.8</ele>
        <time>2018-11-26T07:13:43Z</time>
      </trkpt>
      <trkpt lat="42.1592" lon="2.29035">
        <ele>1275</ele>
        <time>2018-11-26T07:13:44Z</time>
      </trkpt>
      <trkpt lat="42.15921" lon="2.29034">
        <ele>1274.8</ele>
        <time>2018-11-26T07:13:45Z</time>
      </trkpt>
      <trkpt lat="42.15924" lon="2.29034">
        <ele>1275.1</ele>
        <time>2018-11-26T07:13:46Z</time>
      </trkpt>
      <trkpt lat="42.15926" lon="2.29034">
        <ele>1275.6</ele>
        <time>2018-11-26T07:13:47Z</time>
      </trkpt>
      <trkpt lat="42.15928" lon="2.29034">
        <ele>1275.5</ele>
        <time>2018-11-26T07:13:48Z</time>
      </trkpt>
      <trkpt lat="42.1593" lon="2.29035">
        <ele>1275.9</ele>
        <time>2018-11-26T07:13:48Z</time>
      </trkpt>
      <trkpt lat="42.15933" lon="2.29035">
        <ele>1276</ele>
        <time>2018-11-26T07:13:50Z</time>
      </trkpt>
      <trkpt lat="42.15935" lon="2.29035">
        <ele>1276.4</ele>
        <time>2018-11-26T07:13:51Z</time>
      </trkpt>
      <trkpt lat="42.15938" lon="2.29034">
        <ele>1276.6</ele>
        <time>2018-11-26T07:13:52Z</time>
      </trkpt>
      <trkpt lat="42.1594" lon="2.29034">
        <ele>1276.6</ele>
        <time>2018-11-26T07:13:53Z</time>
      </trkpt>
      <trkpt lat="42.15943" lon="2.29034">
        <ele>1276.5</ele>
        <time>2018-11-26T07:13:54Z</time>
      </trkpt>
      <trkpt lat="42.15945" lon="2.29034">
        <ele>1276.4</ele>
        <time>2018-11-26T07:13:55Z</time>
      </trkpt>
      <trkpt lat="42.15948" lon="2.29033">
        <ele>1276.6</ele>
        <time>2018-11-26T07:13:56Z</time>
      </trkpt>
      <trkpt lat="42.15954" lon="2.2903">
        <ele>1277.1</ele>
        <time>2018-11-26T07:13:58Z</time>
      </trkpt>
      <trkpt lat="42.15956" lon="2.29029">
        <ele>1277.1</ele>
        <time>2018-11-26T07:13:59Z</time>
      </trkpt>
      <trkpt lat="42.15959" lon="2.29027">
        <ele>1277.9</ele>
        <time>2018-11-26T07:14:01Z</time>
      </trkpt>
      <trkpt lat="42.15953" lon="2.29015">
        <ele>1277.9</ele>
        <time>2018-11-26T07:14:05Z</time>
      </trkpt>
      <trkpt lat="42.15943" lon="2.29011">
        <ele>1277.8</ele>
        <time>2018-11-26T07:14:09Z</time>
      </trkpt>
      <trkpt lat="42.15934" lon="2.29006">
        <ele>1278.1</ele>
        <time>2018-11-26T07:14:13Z</time>
      </trkpt>
      <trkpt lat="42.15924" lon="2.29002">
        <ele>1278.1</ele>
        <time>2018-11-26T07:14:17Z</time>
      </trkpt>
      <trkpt lat="42.15922" lon="2.29">
        <ele>1278</ele>
        <time>2018-11-26T07:14:18Z</time>
      </trkpt>
      <trkpt lat="42.1592" lon="2.28997">
        <ele>1278.1</ele>
        <time>2018-11-26T07:14:19Z</time>
      </trkpt>
      <trkpt lat="42.15918" lon="2.28991">
        <ele>1277.9</ele>
        <time>2018-11-26T07:14:21Z</time>
      </trkpt>
      <trkpt lat="42.15919" lon="2.28977">
        <ele>1278</ele>
        <time>2018-11-26T07:14:25Z</time>
      </trkpt>
      <trkpt lat="42.15921" lon="2.2897">
        <ele>1278.1</ele>
        <time>2018-11-26T07:14:27Z</time>
      </trkpt>
      <trkpt lat="42.15921" lon="2.28966">
        <ele>1278.8</ele>
        <time>2018-11-26T07:14:29Z</time>
      </trkpt>
      <trkpt lat="42.15921" lon="2.28963">
        <ele>1278.1</ele>
        <time>2018-11-26T07:14:29Z</time>
      </trkpt>
      <trkpt lat="42.15922" lon="2.2896">
        <ele>1278.9</ele>
        <time>2018-11-26T07:14:30Z</time>
      </trkpt>
      <trkpt lat="42.15923" lon="2.28958">
        <ele>1278.9</ele>
        <time>2018-11-26T07:14:31Z</time>
      </trkpt>
      <trkpt lat="42.15923" lon="2.28956">
        <ele>1278.9</ele>
        <time>2018-11-26T07:14:32Z</time>
      </trkpt>
      <trkpt lat="42.15924" lon="2.28952">
        <ele>1279.1</ele>
        <time>2018-11-26T07:14:33Z</time>
      </trkpt>
      <trkpt lat="42.15925" lon="2.28948">
        <ele>1280.4</ele>
        <time>2018-11-26T07:14:34Z</time>
      </trkpt>
      <trkpt lat="42.15926" lon="2.28945">
        <ele>1280.4</ele>
        <time>2018-11-26T07:14:35Z</time>
      </trkpt>
      <trkpt lat="42.15926" lon="2.28942">
        <ele>1280.5</ele>
        <time>2018-11-26T07:14:36Z</time>
      </trkpt>
      <trkpt lat="42.15926" lon="2.28939">
        <ele>1281.1</ele>
        <time>2018-11-26T07:14:37Z</time>
      </trkpt>
      <trkpt lat="42.15928" lon="2.28931">
        <ele>1281.6</ele>
        <time>2018-11-26T07:14:40Z</time>
      </trkpt>
      <trkpt lat="42.15928" lon="2.28928">
        <ele>1282.1</ele>
        <time>2018-11-26T07:14:40Z</time>
      </trkpt>
      <trkpt lat="42.1593" lon="2.28924">
        <ele>1282.8</ele>
        <time>2018-11-26T07:14:42Z</time>
      </trkpt>
      <trkpt lat="42.15931" lon="2.28921">
        <ele>1283</ele>
        <time>2018-11-26T07:14:43Z</time>
      </trkpt>
      <trkpt lat="42.15932" lon="2.28918">
        <ele>1283.9</ele>
        <time>2018-11-26T07:14:44Z</time>
      </trkpt>
      <trkpt lat="42.15933" lon="2.28916">
        <ele>1284.1</ele>
        <time>2018-11-26T07:14:45Z</time>
      </trkpt>
      <trkpt lat="42.15935" lon="2.28913">
        <ele>1284.6</ele>
        <time>2018-11-26T07:14:46Z</time>
      </trkpt>
      <trkpt lat="42.15936" lon="2.2891">
        <ele>1285.5</ele>
        <time>2018-11-26T07:14:47Z</time>
      </trkpt>
      <trkpt lat="42.15938" lon="2.28908">
        <ele>1285.5</ele>
        <time>2018-11-26T07:14:48Z</time>
      </trkpt>
      <trkpt lat="42.15939" lon="2.28906">
        <ele>1286.6</ele>
        <time>2018-11-26T07:14:48Z</time>
      </trkpt>
      <trkpt lat="42.15941" lon="2.28902">
        <ele>1287.4</ele>
        <time>2018-11-26T07:14:50Z</time>
      </trkpt>
      <trkpt lat="42.15944" lon="2.28898">
        <ele>1288.9</ele>
        <time>2018-11-26T07:14:51Z</time>
      </trkpt>
      <trkpt lat="42.15945" lon="2.28896">
        <ele>1289.6</ele>
        <time>2018-11-26T07:14:52Z</time>
      </trkpt>
      <trkpt lat="42.15946" lon="2.28894">
        <ele>1290.1</ele>
        <time>2018-11-26T07:14:53Z</time>
      </trkpt>
      <trkpt lat="42.15947" lon="2.28891">
        <ele>1291.1</ele>
        <time>2018-11-26T07:14:54Z</time>
      </trkpt>
      <trkpt lat="42.15948" lon="2.28889">
        <ele>1291.1</ele>
        <time>2018-11-26T07:14:55Z</time>
      </trkpt>
      <trkpt lat="42.15948" lon="2.28886">
        <ele>1291.9</ele>
        <time>2018-11-26T07:14:55Z</time>
      </trkpt>
      <trkpt lat="42.15948" lon="2.28884">
        <ele>1292</ele>
        <time>2018-11-26T07:14:56Z</time>
      </trkpt>
      <trkpt lat="42.15949" lon="2.28879">
        <ele>1293.1</ele>
        <time>2018-11-26T07:14:58Z</time>
      </trkpt>
      <trkpt lat="42.15943" lon="2.28871">
        <ele>1295.6</ele>
        <time>2018-11-26T07:15:01Z</time>
      </trkpt>
      <trkpt lat="42.15938" lon="2.28872">
        <ele>1295.9</ele>
        <time>2018-11-26T07:15:03Z</time>
      </trkpt>
      <trkpt lat="42.15935" lon="2.28873">
        <ele>1296.5</ele>
        <time>2018-11-26T07:15:04Z</time>
      </trkpt>
      <trkpt lat="42.15933" lon="2.28873">
        <ele>1297</ele>
        <time>2018-11-26T07:15:05Z</time>
      </trkpt>
      <trkpt lat="42.15931" lon="2.28874">
        <ele>1297.9</ele>
        <time>2018-11-26T07:15:06Z</time>
      </trkpt>
      <trkpt lat="42.15928" lon="2.28875">
        <ele>1298.5</ele>
        <time>2018-11-26T07:15:07Z</time>
      </trkpt>
      <trkpt lat="42.15926" lon="2.28875">
        <ele>1299.2</ele>
        <time>2018-11-26T07:15:08Z</time>
      </trkpt>
      <trkpt lat="42.15924" lon="2.28875">
        <ele>1299.1</ele>
        <time>2018-11-26T07:15:08Z</time>
      </trkpt>
      <trkpt lat="42.15922" lon="2.28875">
        <ele>1299.4</ele>
        <time>2018-11-26T07:15:09Z</time>
      </trkpt>
      <trkpt lat="42.1592" lon="2.28876">
        <ele>1300.1</ele>
        <time>2018-11-26T07:15:10Z</time>
      </trkpt>
      <trkpt lat="42.15918" lon="2.28876">
        <ele>1300.5</ele>
        <time>2018-11-26T07:15:11Z</time>
      </trkpt>
      <trkpt lat="42.15916" lon="2.28877">
        <ele>1301.2</ele>
        <time>2018-11-26T07:15:12Z</time>
      </trkpt>
      <trkpt lat="42.15906" lon="2.28875">
        <ele>1304.1</ele>
        <time>2018-11-26T07:15:16Z</time>
      </trkpt>
      <trkpt lat="42.15901" lon="2.28877">
        <ele>1304.8</ele>
        <time>2018-11-26T07:15:18Z</time>
      </trkpt>
      <trkpt lat="42.15899" lon="2.28877">
        <ele>1304.9</ele>
        <time>2018-11-26T07:15:19Z</time>
      </trkpt>
      <trkpt lat="42.15896" lon="2.28878">
        <ele>1305</ele>
        <time>2018-11-26T07:15:20Z</time>
      </trkpt>
      <trkpt lat="42.15894" lon="2.28878">
        <ele>1305.4</ele>
        <time>2018-11-26T07:15:21Z</time>
      </trkpt>
      <trkpt lat="42.15892" lon="2.28879">
        <ele>1305.4</ele>
        <time>2018-11-26T07:15:22Z</time>
      </trkpt>
      <trkpt lat="42.15889" lon="2.28879">
        <ele>1306.2</ele>
        <time>2018-11-26T07:15:23Z</time>
      </trkpt>
      <trkpt lat="42.15887" lon="2.28879">
        <ele>1306.1</ele>
        <time>2018-11-26T07:15:24Z</time>
      </trkpt>
      <trkpt lat="42.15884" lon="2.28878">
        <ele>1306.1</ele>
        <time>2018-11-26T07:15:25Z</time>
      </trkpt>
      <trkpt lat="42.15881" lon="2.28876">
        <ele>1306.2</ele>
        <time>2018-11-26T07:15:26Z</time>
      </trkpt>
      <trkpt lat="42.15879" lon="2.28875">
        <ele>1307.1</ele>
        <time>2018-11-26T07:15:27Z</time>
      </trkpt>
      <trkpt lat="42.15877" lon="2.28874">
        <ele>1307.2</ele>
        <time>2018-11-26T07:15:28Z</time>
      </trkpt>
      <trkpt lat="42.15875" lon="2.28873">
        <ele>1307.9</ele>
        <time>2018-11-26T07:15:29Z</time>
      </trkpt>
      <trkpt lat="42.15872" lon="2.28871">
        <ele>1308.5</ele>
        <time>2018-11-26T07:15:30Z</time>
      </trkpt>
      <trkpt lat="42.1587" lon="2.28869">
        <ele>1308.2</ele>
        <time>2018-11-26T07:15:31Z</time>
      </trkpt>
      <trkpt lat="42.15868" lon="2.28867">
        <ele>1308.9</ele>
        <time>2018-11-26T07:15:32Z</time>
      </trkpt>
      <trkpt lat="42.15866" lon="2.28864">
        <ele>1308.8</ele>
        <time>2018-11-26T07:15:33Z</time>
      </trkpt>
      <trkpt lat="42.15865" lon="2.28862">
        <ele>1309.1</ele>
        <time>2018-11-26T07:15:34Z</time>
      </trkpt>
      <trkpt lat="42.15864" lon="2.2886">
        <ele>1309.4</ele>
        <time>2018-11-26T07:15:35Z</time>
      </trkpt>
      <trkpt lat="42.15862" lon="2.28858">
        <ele>1309.8</ele>
        <time>2018-11-26T07:15:36Z</time>
      </trkpt>
      <trkpt lat="42.1586" lon="2.28856">
        <ele>1310.1</ele>
        <time>2018-11-26T07:15:37Z</time>
      </trkpt>
      <trkpt lat="42.15859" lon="2.28853">
        <ele>1310.9</ele>
        <time>2018-11-26T07:15:37Z</time>
      </trkpt>
      <trkpt lat="42.15859" lon="2.2885">
        <ele>1311.2</ele>
        <time>2018-11-26T07:15:38Z</time>
      </trkpt>
      <trkpt lat="42.15858" lon="2.28847">
        <ele>1311.4</ele>
        <time>2018-11-26T07:15:39Z</time>
      </trkpt>
      <trkpt lat="42.15859" lon="2.28844">
        <ele>1311.6</ele>
        <time>2018-11-26T07:15:40Z</time>
      </trkpt>
      <trkpt lat="42.15859" lon="2.2884">
        <ele>1312.1</ele>
        <time>2018-11-26T07:15:42Z</time>
      </trkpt>
      <trkpt lat="42.1586" lon="2.28837">
        <ele>1313.5</ele>
        <time>2018-11-26T07:15:43Z</time>
      </trkpt>
      <trkpt lat="42.15861" lon="2.28834">
        <ele>1313.2</ele>
        <time>2018-11-26T07:15:43Z</time>
      </trkpt>
      <trkpt lat="42.15861" lon="2.28831">
        <ele>1313.5</ele>
        <time>2018-11-26T07:15:44Z</time>
      </trkpt>
      <trkpt lat="42.15862" lon="2.28827">
        <ele>1313.9</ele>
        <time>2018-11-26T07:15:45Z</time>
      </trkpt>
      <trkpt lat="42.15862" lon="2.28824">
        <ele>1314.5</ele>
        <time>2018-11-26T07:15:46Z</time>
      </trkpt>
      <trkpt lat="42.15862" lon="2.28821">
        <ele>1314.8</ele>
        <time>2018-11-26T07:15:47Z</time>
      </trkpt>
      <trkpt lat="42.15863" lon="2.28817">
        <ele>1315</ele>
        <time>2018-11-26T07:15:48Z</time>
      </trkpt>
      <trkpt lat="42.15863" lon="2.28814">
        <ele>1315.2</ele>
        <time>2018-11-26T07:15:49Z</time>
      </trkpt>
      <trkpt lat="42.15863" lon="2.2881">
        <ele>1315.4</ele>
        <time>2018-11-26T07:15:50Z</time>
      </trkpt>
      <trkpt lat="42.15864" lon="2.28806">
        <ele>1315.4</ele>
        <time>2018-11-26T07:15:52Z</time>
      </trkpt>
      <trkpt lat="42.15864" lon="2.28803">
        <ele>1316.4</ele>
        <time>2018-11-26T07:15:53Z</time>
      </trkpt>
      <trkpt lat="42.15864" lon="2.288">
        <ele>1316.5</ele>
        <time>2018-11-26T07:15:54Z</time>
      </trkpt>
      <trkpt lat="42.15865" lon="2.28796">
        <ele>1317.2</ele>
        <time>2018-11-26T07:15:55Z</time>
      </trkpt>
      <trkpt lat="42.15865" lon="2.28793">
        <ele>1317.1</ele>
        <time>2018-11-26T07:15:56Z</time>
      </trkpt>
      <trkpt lat="42.15866" lon="2.2879">
        <ele>1317.1</ele>
        <time>2018-11-26T07:15:57Z</time>
      </trkpt>
      <trkpt lat="42.15866" lon="2.28787">
        <ele>1317.6</ele>
        <time>2018-11-26T07:15:57Z</time>
      </trkpt>
      <trkpt lat="42.15866" lon="2.28785">
        <ele>1318.5</ele>
        <time>2018-11-26T07:15:58Z</time>
      </trkpt>
      <trkpt lat="42.15867" lon="2.28782">
        <ele>1318.5</ele>
        <time>2018-11-26T07:15:59Z</time>
      </trkpt>
      <trkpt lat="42.15867" lon="2.2878">
        <ele>1318.8</ele>
        <time>2018-11-26T07:16:00Z</time>
      </trkpt>
      <trkpt lat="42.15867" lon="2.28776">
        <ele>1320.1</ele>
        <time>2018-11-26T07:16:01Z</time>
      </trkpt>
      <trkpt lat="42.15868" lon="2.28773">
        <ele>1320.1</ele>
        <time>2018-11-26T07:16:02Z</time>
      </trkpt>
      <trkpt lat="42.15868" lon="2.2877">
        <ele>1321.4</ele>
        <time>2018-11-26T07:16:03Z</time>
      </trkpt>
      <trkpt lat="42.15868" lon="2.28767">
        <ele>1321.5</ele>
        <time>2018-11-26T07:16:04Z</time>
      </trkpt>
      <trkpt lat="42.15868" lon="2.28764">
        <ele>1321.4</ele>
        <time>2018-11-26T07:16:05Z</time>
      </trkpt>
      <trkpt lat="42.15868" lon="2.2876">
        <ele>1322.5</ele>
        <time>2018-11-26T07:16:06Z</time>
      </trkpt>
      <trkpt lat="42.15869" lon="2.28757">
        <ele>1322.4</ele>
        <time>2018-11-26T07:16:07Z</time>
      </trkpt>
      <trkpt lat="42.15869" lon="2.28753">
        <ele>1322.5</ele>
        <time>2018-11-26T07:16:08Z</time>
      </trkpt>
      <trkpt lat="42.1587" lon="2.2875">
        <ele>1322.6</ele>
        <time>2018-11-26T07:16:09Z</time>
      </trkpt>
      <trkpt lat="42.15871" lon="2.28748">
        <ele>1322.8</ele>
        <time>2018-11-26T07:16:09Z</time>
      </trkpt>
      <trkpt lat="42.15871" lon="2.28745">
        <ele>1322.8</ele>
        <time>2018-11-26T07:16:10Z</time>
      </trkpt>
      <trkpt lat="42.15871" lon="2.28742">
        <ele>1323.5</ele>
        <time>2018-11-26T07:16:11Z</time>
      </trkpt>
      <trkpt lat="42.15872" lon="2.28739">
        <ele>1324.5</ele>
        <time>2018-11-26T07:16:12Z</time>
      </trkpt>
      <trkpt lat="42.15873" lon="2.28737">
        <ele>1325</ele>
        <time>2018-11-26T07:16:13Z</time>
      </trkpt>
      <trkpt lat="42.15874" lon="2.28734">
        <ele>1325.1</ele>
        <time>2018-11-26T07:16:14Z</time>
      </trkpt>
      <trkpt lat="42.15874" lon="2.28731">
        <ele>1325.8</ele>
        <time>2018-11-26T07:16:15Z</time>
      </trkpt>
      <trkpt lat="42.15874" lon="2.28728">
        <ele>1326.4</ele>
        <time>2018-11-26T07:16:15Z</time>
      </trkpt>
      <trkpt lat="42.15875" lon="2.28725">
        <ele>1326.8</ele>
        <time>2018-11-26T07:16:16Z</time>
      </trkpt>
      <trkpt lat="42.15876" lon="2.28722">
        <ele>1327.5</ele>
        <time>2018-11-26T07:16:17Z</time>
      </trkpt>
      <trkpt lat="42.15877" lon="2.2872">
        <ele>1327.9</ele>
        <time>2018-11-26T07:16:18Z</time>
      </trkpt>
      <trkpt lat="42.15878" lon="2.28717">
        <ele>1328.4</ele>
        <time>2018-11-26T07:16:19Z</time>
      </trkpt>
      <trkpt lat="42.15879" lon="2.28715">
        <ele>1329.4</ele>
        <time>2018-11-26T07:16:20Z</time>
      </trkpt>
      <trkpt lat="42.1588" lon="2.28713">
        <ele>1329.8</ele>
        <time>2018-11-26T07:16:21Z</time>
      </trkpt>
      <trkpt lat="42.15882" lon="2.28711">
        <ele>1330.1</ele>
        <time>2018-11-26T07:16:21Z</time>
      </trkpt>
      <trkpt lat="42.15883" lon="2.28709">
        <ele>1331.6</ele>
        <time>2018-11-26T07:16:22Z</time>
      </trkpt>
      <trkpt lat="42.15884" lon="2.28706">
        <ele>1332.4</ele>
        <time>2018-11-26T07:16:23Z</time>
      </trkpt>
      <trkpt lat="42.15886" lon="2.28704">
        <ele>1332.4</ele>
        <time>2018-11-26T07:16:24Z</time>
      </trkpt>
      <trkpt lat="42.15887" lon="2.28701">
        <ele>1332.6</ele>
        <time>2018-11-26T07:16:25Z</time>
      </trkpt>
      <trkpt lat="42.15887" lon="2.28698">
        <ele>1333.8</ele>
        <time>2018-11-26T07:16:26Z</time>
      </trkpt>
      <trkpt lat="42.15889" lon="2.28698">
        <ele>1335</ele>
        <time>2018-11-26T07:16:27Z</time>
      </trkpt>
      <trkpt lat="42.15891" lon="2.28698">
        <ele>1336.6</ele>
        <time>2018-11-26T07:16:28Z</time>
      </trkpt>
      <trkpt lat="42.15893" lon="2.28696">
        <ele>1337</ele>
        <time>2018-11-26T07:16:28Z</time>
      </trkpt>
      <trkpt lat="42.15893" lon="2.28693">
        <ele>1337.1</ele>
        <time>2018-11-26T07:16:29Z</time>
      </trkpt>
      <trkpt lat="42.15894" lon="2.28691">
        <ele>1338.1</ele>
        <time>2018-11-26T07:16:30Z</time>
      </trkpt>
      <trkpt lat="42.15896" lon="2.28691">
        <ele>1338.5</ele>
        <time>2018-11-26T07:16:31Z</time>
      </trkpt>
      <trkpt lat="42.15898" lon="2.28692">
        <ele>1339.5</ele>
        <time>2018-11-26T07:16:32Z</time>
      </trkpt>
      <trkpt lat="42.15899" lon="2.28691">
        <ele>1341.2</ele>
        <time>2018-11-26T07:16:32Z</time>
      </trkpt>
      <trkpt lat="42.15901" lon="2.28689">
        <ele>1342.1</ele>
        <time>2018-11-26T07:16:33Z</time>
      </trkpt>
      <trkpt lat="42.15903" lon="2.28689">
        <ele>1343.1</ele>
        <time>2018-11-26T07:16:34Z</time>
      </trkpt>
      <trkpt lat="42.15905" lon="2.28688">
        <ele>1344.1</ele>
        <time>2018-11-26T07:16:35Z</time>
      </trkpt>
      <trkpt lat="42.15907" lon="2.28686">
        <ele>1344.1</ele>
        <time>2018-11-26T07:16:36Z</time>
      </trkpt>
      <trkpt lat="42.15909" lon="2.28685">
        <ele>1344.6</ele>
        <time>2018-11-26T07:16:37Z</time>
      </trkpt>
      <trkpt lat="42.15911" lon="2.28684">
        <ele>1345.5</ele>
        <time>2018-11-26T07:16:37Z</time>
      </trkpt>
      <trkpt lat="42.15912" lon="2.28682">
        <ele>1345.8</ele>
        <time>2018-11-26T07:16:38Z</time>
      </trkpt>
      <trkpt lat="42.15913" lon="2.28679">
        <ele>1346.9</ele>
        <time>2018-11-26T07:16:39Z</time>
      </trkpt>
      <trkpt lat="42.15913" lon="2.28676">
        <ele>1346.9</ele>
        <time>2018-11-26T07:16:40Z</time>
      </trkpt>
      <trkpt lat="42.15914" lon="2.28674">
        <ele>1347.8</ele>
        <time>2018-11-26T07:16:41Z</time>
      </trkpt>
      <trkpt lat="42.15916" lon="2.28671">
        <ele>1349.1</ele>
        <time>2018-11-26T07:16:42Z</time>
      </trkpt>
      <trkpt lat="42.15916" lon="2.28668">
        <ele>1350.5</ele>
        <time>2018-11-26T07:16:43Z</time>
      </trkpt>
      <trkpt lat="42.15918" lon="2.2867">
        <ele>1352.4</ele>
        <time>2018-11-26T07:16:43Z</time>
      </trkpt>
      <trkpt lat="42.15919" lon="2.28669">
        <ele>1353.5</ele>
        <time>2018-11-26T07:16:44Z</time>
      </trkpt>
      <trkpt lat="42.15921" lon="2.28668">
        <ele>1353.9</ele>
        <time>2018-11-26T07:16:45Z</time>
      </trkpt>
      <trkpt lat="42.15923" lon="2.28666">
        <ele>1354.4</ele>
        <time>2018-11-26T07:16:46Z</time>
      </trkpt>
      <trkpt lat="42.15926" lon="2.28666">
        <ele>1354.5</ele>
        <time>2018-11-26T07:16:47Z</time>
      </trkpt>
      <trkpt lat="42.15927" lon="2.28663">
        <ele>1355.1</ele>
        <time>2018-11-26T07:16:48Z</time>
      </trkpt>
      <trkpt lat="42.15929" lon="2.28661">
        <ele>1355.1</ele>
        <time>2018-11-26T07:16:49Z</time>
      </trkpt>
      <trkpt lat="42.1593" lon="2.28659">
        <ele>1355.5</ele>
        <time>2018-11-26T07:16:50Z</time>
      </trkpt>
      <trkpt lat="42.15932" lon="2.2866">
        <ele>1357.1</ele>
        <time>2018-11-26T07:16:50Z</time>
      </trkpt>
      <trkpt lat="42.15934" lon="2.28663">
        <ele>1358.4</ele>
        <time>2018-11-26T07:16:51Z</time>
      </trkpt>
      <trkpt lat="42.15936" lon="2.28661">
        <ele>1358.4</ele>
        <time>2018-11-26T07:16:52Z</time>
      </trkpt>
      <trkpt lat="42.15937" lon="2.28658">
        <ele>1358.6</ele>
        <time>2018-11-26T07:16:53Z</time>
      </trkpt>
      <trkpt lat="42.15938" lon="2.28656">
        <ele>1358.5</ele>
        <time>2018-11-26T07:16:54Z</time>
      </trkpt>
      <trkpt lat="42.15939" lon="2.28654">
        <ele>1359.1</ele>
        <time>2018-11-26T07:16:55Z</time>
      </trkpt>
      <trkpt lat="42.15941" lon="2.28652">
        <ele>1360</ele>
        <time>2018-11-26T07:16:56Z</time>
      </trkpt>
      <trkpt lat="42.15942" lon="2.2865">
        <ele>1361.2</ele>
        <time>2018-11-26T07:16:56Z</time>
      </trkpt>
      <trkpt lat="42.15943" lon="2.28648">
        <ele>1361.9</ele>
        <time>2018-11-26T07:16:57Z</time>
      </trkpt>
      <trkpt lat="42.15946" lon="2.28647">
        <ele>1362.1</ele>
        <time>2018-11-26T07:16:58Z</time>
      </trkpt>
      <trkpt lat="42.15948" lon="2.28646">
        <ele>1362.6</ele>
        <time>2018-11-26T07:16:59Z</time>
      </trkpt>
      <trkpt lat="42.15949" lon="2.28644">
        <ele>1363.9</ele>
        <time>2018-11-26T07:17:00Z</time>
      </trkpt>
      <trkpt lat="42.15951" lon="2.28642">
        <ele>1364.5</ele>
        <time>2018-11-26T07:17:01Z</time>
      </trkpt>
      <trkpt lat="42.15951" lon="2.28639">
        <ele>1365.5</ele>
        <time>2018-11-26T07:17:01Z</time>
      </trkpt>
      <trkpt lat="42.15952" lon="2.28637">
        <ele>1367</ele>
        <time>2018-11-26T07:17:02Z</time>
      </trkpt>
      <trkpt lat="42.15952" lon="2.28634">
        <ele>1368.5</ele>
        <time>2018-11-26T07:17:03Z</time>
      </trkpt>
      <trkpt lat="42.15953" lon="2.28633">
        <ele>1369.1</ele>
        <time>2018-11-26T07:17:04Z</time>
      </trkpt>
      <trkpt lat="42.15955" lon="2.28631">
        <ele>1370.1</ele>
        <time>2018-11-26T07:17:05Z</time>
      </trkpt>
      <trkpt lat="42.15957" lon="2.2863">
        <ele>1371.5</ele>
        <time>2018-11-26T07:17:06Z</time>
      </trkpt>
      <trkpt lat="42.15957" lon="2.28627">
        <ele>1372.5</ele>
        <time>2018-11-26T07:17:06Z</time>
      </trkpt>
      <trkpt lat="42.15959" lon="2.28626">
        <ele>1374.2</ele>
        <time>2018-11-26T07:17:07Z</time>
      </trkpt>
      <trkpt lat="42.15961" lon="2.28624">
        <ele>1374.6</ele>
        <time>2018-11-26T07:17:08Z</time>
      </trkpt>
      <trkpt lat="42.15964" lon="2.28623">
        <ele>1375.2</ele>
        <time>2018-11-26T07:17:09Z</time>
      </trkpt>
      <trkpt lat="42.15966" lon="2.28622">
        <ele>1375.5</ele>
        <time>2018-11-26T07:17:10Z</time>
      </trkpt>
      <trkpt lat="42.15968" lon="2.28621">
        <ele>1375.5</ele>
        <time>2018-11-26T07:17:11Z</time>
      </trkpt>
      <trkpt lat="42.15968" lon="2.28618">
        <ele>1376</ele>
        <time>2018-11-26T07:17:12Z</time>
      </trkpt>
      <trkpt lat="42.15968" lon="2.28614">
        <ele>1376.5</ele>
        <time>2018-11-26T07:17:13Z</time>
      </trkpt>
      <trkpt lat="42.15969" lon="2.28612">
        <ele>1377.1</ele>
        <time>2018-11-26T07:17:14Z</time>
      </trkpt>
      <trkpt lat="42.15971" lon="2.28613">
        <ele>1378.5</ele>
        <time>2018-11-26T07:17:15Z</time>
      </trkpt>
      <trkpt lat="42.15972" lon="2.28615">
        <ele>1379.5</ele>
        <time>2018-11-26T07:17:15Z</time>
      </trkpt>
      <trkpt lat="42.15975" lon="2.28616">
        <ele>1379.6</ele>
        <time>2018-11-26T07:17:16Z</time>
      </trkpt>
      <trkpt lat="42.15977" lon="2.28616">
        <ele>1380.5</ele>
        <time>2018-11-26T07:17:17Z</time>
      </trkpt>
      <trkpt lat="42.15979" lon="2.28616">
        <ele>1380.6</ele>
        <time>2018-11-26T07:17:18Z</time>
      </trkpt>
      <trkpt lat="42.15981" lon="2.28617">
        <ele>1382.1</ele>
        <time>2018-11-26T07:17:19Z</time>
      </trkpt>
      <trkpt lat="42.15983" lon="2.28617">
        <ele>1383</ele>
        <time>2018-11-26T07:17:20Z</time>
      </trkpt>
      <trkpt lat="42.15985" lon="2.28617">
        <ele>1383.1</ele>
        <time>2018-11-26T07:17:21Z</time>
      </trkpt>
      <trkpt lat="42.15988" lon="2.28618">
        <ele>1384</ele>
        <time>2018-11-26T07:17:22Z</time>
      </trkpt>
      <trkpt lat="42.1599" lon="2.28618">
        <ele>1384.5</ele>
        <time>2018-11-26T07:17:23Z</time>
      </trkpt>
      <trkpt lat="42.15992" lon="2.28618">
        <ele>1384.5</ele>
        <time>2018-11-26T07:17:23Z</time>
      </trkpt>
      <trkpt lat="42.15994" lon="2.28619">
        <ele>1384.9</ele>
        <time>2018-11-26T07:17:24Z</time>
      </trkpt>
      <trkpt lat="42.15996" lon="2.28619">
        <ele>1385.8</ele>
        <time>2018-11-26T07:17:25Z</time>
      </trkpt>
      <trkpt lat="42.15998" lon="2.2862">
        <ele>1386.1</ele>
        <time>2018-11-26T07:17:26Z</time>
      </trkpt>
      <trkpt lat="42.16001" lon="2.28621">
        <ele>1386.1</ele>
        <time>2018-11-26T07:17:27Z</time>
      </trkpt>
      <trkpt lat="42.16003" lon="2.28623">
        <ele>1387.2</ele>
        <time>2018-11-26T07:17:28Z</time>
      </trkpt>
      <trkpt lat="42.16005" lon="2.28623">
        <ele>1387.5</ele>
        <time>2018-11-26T07:17:29Z</time>
      </trkpt>
      <trkpt lat="42.16007" lon="2.28623">
        <ele>1387.5</ele>
        <time>2018-11-26T07:17:30Z</time>
      </trkpt>
      <trkpt lat="42.16009" lon="2.28624">
        <ele>1388.5</ele>
        <time>2018-11-26T07:17:31Z</time>
      </trkpt>
      <trkpt lat="42.16011" lon="2.28624">
        <ele>1388.9</ele>
        <time>2018-11-26T07:17:31Z</time>
      </trkpt>
      <trkpt lat="42.16014" lon="2.28624">
        <ele>1389</ele>
        <time>2018-11-26T07:17:32Z</time>
      </trkpt>
      <trkpt lat="42.16016" lon="2.28624">
        <ele>1389.8</ele>
        <time>2018-11-26T07:17:33Z</time>
      </trkpt>
      <trkpt lat="42.16019" lon="2.28624">
        <ele>1390</ele>
        <time>2018-11-26T07:17:34Z</time>
      </trkpt>
      <trkpt lat="42.16022" lon="2.28623">
        <ele>1390</ele>
        <time>2018-11-26T07:17:35Z</time>
      </trkpt>
      <trkpt lat="42.16023" lon="2.28624">
        <ele>1390.2</ele>
        <time>2018-11-26T07:17:36Z</time>
      </trkpt>
      <trkpt lat="42.16026" lon="2.28624">
        <ele>1390.1</ele>
        <time>2018-11-26T07:17:37Z</time>
      </trkpt>
      <trkpt lat="42.16028" lon="2.28624">
        <ele>1390.6</ele>
        <time>2018-11-26T07:17:38Z</time>
      </trkpt>
      <trkpt lat="42.16031" lon="2.28625">
        <ele>1390.6</ele>
        <time>2018-11-26T07:17:39Z</time>
      </trkpt>
      <trkpt lat="42.16033" lon="2.28626">
        <ele>1391</ele>
        <time>2018-11-26T07:17:40Z</time>
      </trkpt>
      <trkpt lat="42.16036" lon="2.28626">
        <ele>1391.9</ele>
        <time>2018-11-26T07:17:41Z</time>
      </trkpt>
      <trkpt lat="42.16038" lon="2.28627">
        <ele>1392.2</ele>
        <time>2018-11-26T07:17:42Z</time>
      </trkpt>
      <trkpt lat="42.16041" lon="2.28628">
        <ele>1393.1</ele>
        <time>2018-11-26T07:17:43Z</time>
      </trkpt>
      <trkpt lat="42.16043" lon="2.28629">
        <ele>1393.5</ele>
        <time>2018-11-26T07:17:44Z</time>
      </trkpt>
      <trkpt lat="42.16046" lon="2.2863">
        <ele>1393.4</ele>
        <time>2018-11-26T07:17:45Z</time>
      </trkpt>
      <trkpt lat="42.16048" lon="2.2863">
        <ele>1393.5</ele>
        <time>2018-11-26T07:17:46Z</time>
      </trkpt>
      <trkpt lat="42.16051" lon="2.2863">
        <ele>1393.5</ele>
        <time>2018-11-26T07:17:47Z</time>
      </trkpt>
      <trkpt lat="42.16054" lon="2.2863">
        <ele>1393.4</ele>
        <time>2018-11-26T07:17:48Z</time>
      </trkpt>
      <trkpt lat="42.16056" lon="2.28631">
        <ele>1393.1</ele>
        <time>2018-11-26T07:17:49Z</time>
      </trkpt>
      <trkpt lat="42.16058" lon="2.28632">
        <ele>1393.1</ele>
        <time>2018-11-26T07:17:50Z</time>
      </trkpt>
      <trkpt lat="42.16061" lon="2.28633">
        <ele>1393</ele>
        <time>2018-11-26T07:17:51Z</time>
      </trkpt>
      <trkpt lat="42.16063" lon="2.28633">
        <ele>1393.5</ele>
        <time>2018-11-26T07:17:52Z</time>
      </trkpt>
      <trkpt lat="42.16066" lon="2.28634">
        <ele>1393.4</ele>
        <time>2018-11-26T07:17:54Z</time>
      </trkpt>
      <trkpt lat="42.16068" lon="2.28634">
        <ele>1393.1</ele>
        <time>2018-11-26T07:17:55Z</time>
      </trkpt>
      <trkpt lat="42.16072" lon="2.28635">
        <ele>1393.1</ele>
        <time>2018-11-26T07:17:56Z</time>
      </trkpt>
      <trkpt lat="42.16074" lon="2.28636">
        <ele>1393.1</ele>
        <time>2018-11-26T07:17:57Z</time>
      </trkpt>
      <trkpt lat="42.16076" lon="2.28636">
        <ele>1394.1</ele>
        <time>2018-11-26T07:17:58Z</time>
      </trkpt>
      <trkpt lat="42.16079" lon="2.28637">
        <ele>1394.1</ele>
        <time>2018-11-26T07:17:59Z</time>
      </trkpt>
      <trkpt lat="42.16081" lon="2.28637">
        <ele>1394.1</ele>
        <time>2018-11-26T07:18:00Z</time>
      </trkpt>
      <trkpt lat="42.16084" lon="2.28638">
        <ele>1394.2</ele>
        <time>2018-11-26T07:18:01Z</time>
      </trkpt>
      <trkpt lat="42.16086" lon="2.28638">
        <ele>1394</ele>
        <time>2018-11-26T07:18:02Z</time>
      </trkpt>
      <trkpt lat="42.16088" lon="2.28638">
        <ele>1394.5</ele>
        <time>2018-11-26T07:18:03Z</time>
      </trkpt>
      <trkpt lat="42.16091" lon="2.28637">
        <ele>1394.8</ele>
        <time>2018-11-26T07:18:04Z</time>
      </trkpt>
      <trkpt lat="42.16094" lon="2.28637">
        <ele>1395.1</ele>
        <time>2018-11-26T07:18:05Z</time>
      </trkpt>
      <trkpt lat="42.16096" lon="2.28639">
        <ele>1395.9</ele>
        <time>2018-11-26T07:18:06Z</time>
      </trkpt>
      <trkpt lat="42.16098" lon="2.28639">
        <ele>1395.9</ele>
        <time>2018-11-26T07:18:07Z</time>
      </trkpt>
      <trkpt lat="42.161" lon="2.2864">
        <ele>1396.2</ele>
        <time>2018-11-26T07:18:07Z</time>
      </trkpt>
      <trkpt lat="42.16102" lon="2.28641">
        <ele>1396.4</ele>
        <time>2018-11-26T07:18:08Z</time>
      </trkpt>
      <trkpt lat="42.16105" lon="2.28642">
        <ele>1397.4</ele>
        <time>2018-11-26T07:18:10Z</time>
      </trkpt>
      <trkpt lat="42.16107" lon="2.28641">
        <ele>1397.4</ele>
        <time>2018-11-26T07:18:11Z</time>
      </trkpt>
      <trkpt lat="42.16111" lon="2.28642">
        <ele>1397.6</ele>
        <time>2018-11-26T07:18:12Z</time>
      </trkpt>
      <trkpt lat="42.16113" lon="2.28642">
        <ele>1398</ele>
        <time>2018-11-26T07:18:13Z</time>
      </trkpt>
      <trkpt lat="42.16116" lon="2.28643">
        <ele>1398.1</ele>
        <time>2018-11-26T07:18:14Z</time>
      </trkpt>
      <trkpt lat="42.16118" lon="2.28644">
        <ele>1398.8</ele>
        <time>2018-11-26T07:18:15Z</time>
      </trkpt>
      <trkpt lat="42.16121" lon="2.28645">
        <ele>1399.1</ele>
        <time>2018-11-26T07:18:16Z</time>
      </trkpt>
      <trkpt lat="42.16122" lon="2.28645">
        <ele>1399.5</ele>
        <time>2018-11-26T07:18:17Z</time>
      </trkpt>
      <trkpt lat="42.16125" lon="2.28646">
        <ele>1400</ele>
        <time>2018-11-26T07:18:18Z</time>
      </trkpt>
      <trkpt lat="42.16127" lon="2.28647">
        <ele>1400.2</ele>
        <time>2018-11-26T07:18:19Z</time>
      </trkpt>
      <trkpt lat="42.16129" lon="2.28648">
        <ele>1401.4</ele>
        <time>2018-11-26T07:18:20Z</time>
      </trkpt>
      <trkpt lat="42.16132" lon="2.28648">
        <ele>1402.2</ele>
        <time>2018-11-26T07:18:20Z</time>
      </trkpt>
      <trkpt lat="42.16134" lon="2.28648">
        <ele>1403</ele>
        <time>2018-11-26T07:18:21Z</time>
      </trkpt>
      <trkpt lat="42.16137" lon="2.28649">
        <ele>1403</ele>
        <time>2018-11-26T07:18:23Z</time>
      </trkpt>
      <trkpt lat="42.16139" lon="2.28649">
        <ele>1403.4</ele>
        <time>2018-11-26T07:18:23Z</time>
      </trkpt>
      <trkpt lat="42.16142" lon="2.2865">
        <ele>1403.9</ele>
        <time>2018-11-26T07:18:25Z</time>
      </trkpt>
      <trkpt lat="42.16144" lon="2.28652">
        <ele>1404.1</ele>
        <time>2018-11-26T07:18:26Z</time>
      </trkpt>
      <trkpt lat="42.16146" lon="2.28653">
        <ele>1404.8</ele>
        <time>2018-11-26T07:18:27Z</time>
      </trkpt>
      <trkpt lat="42.16148" lon="2.28653">
        <ele>1405.2</ele>
        <time>2018-11-26T07:18:27Z</time>
      </trkpt>
      <trkpt lat="42.1615" lon="2.28654">
        <ele>1406.2</ele>
        <time>2018-11-26T07:18:28Z</time>
      </trkpt>
      <trkpt lat="42.16152" lon="2.28655">
        <ele>1406.7</ele>
        <time>2018-11-26T07:18:29Z</time>
      </trkpt>
      <trkpt lat="42.16154" lon="2.28657">
        <ele>1407</ele>
        <time>2018-11-26T07:18:30Z</time>
      </trkpt>
      <trkpt lat="42.16157" lon="2.28659">
        <ele>1407</ele>
        <time>2018-11-26T07:18:31Z</time>
      </trkpt>
      <trkpt lat="42.16159" lon="2.2866">
        <ele>1407.2</ele>
        <time>2018-11-26T07:18:32Z</time>
      </trkpt>
      <trkpt lat="42.16162" lon="2.28661">
        <ele>1407.8</ele>
        <time>2018-11-26T07:18:33Z</time>
      </trkpt>
      <trkpt lat="42.16164" lon="2.28663">
        <ele>1408.4</ele>
        <time>2018-11-26T07:18:34Z</time>
      </trkpt>
      <trkpt lat="42.16166" lon="2.28664">
        <ele>1408.9</ele>
        <time>2018-11-26T07:18:35Z</time>
      </trkpt>
      <trkpt lat="42.16168" lon="2.28665">
        <ele>1409.1</ele>
        <time>2018-11-26T07:18:36Z</time>
      </trkpt>
      <trkpt lat="42.1617" lon="2.28667">
        <ele>1409.1</ele>
        <time>2018-11-26T07:18:37Z</time>
      </trkpt>
      <trkpt lat="42.16172" lon="2.28668">
        <ele>1409.1</ele>
        <time>2018-11-26T07:18:38Z</time>
      </trkpt>
      <trkpt lat="42.16175" lon="2.2867">
        <ele>1409.8</ele>
        <time>2018-11-26T07:18:39Z</time>
      </trkpt>
      <trkpt lat="42.16177" lon="2.28672">
        <ele>1410</ele>
        <time>2018-11-26T07:18:40Z</time>
      </trkpt>
      <trkpt lat="42.16179" lon="2.28673">
        <ele>1410.2</ele>
        <time>2018-11-26T07:18:41Z</time>
      </trkpt>
      <trkpt lat="42.16182" lon="2.28675">
        <ele>1410.5</ele>
        <time>2018-11-26T07:18:43Z</time>
      </trkpt>
      <trkpt lat="42.16185" lon="2.28676">
        <ele>1410.5</ele>
        <time>2018-11-26T07:18:44Z</time>
      </trkpt>
      <trkpt lat="42.16186" lon="2.28677">
        <ele>1410.6</ele>
        <time>2018-11-26T07:18:44Z</time>
      </trkpt>
      <trkpt lat="42.16189" lon="2.28679">
        <ele>1411.5</ele>
        <time>2018-11-26T07:18:45Z</time>
      </trkpt>
      <trkpt lat="42.16191" lon="2.2868">
        <ele>1412</ele>
        <time>2018-11-26T07:18:46Z</time>
      </trkpt>
      <trkpt lat="42.16192" lon="2.28682">
        <ele>1412.5</ele>
        <time>2018-11-26T07:18:47Z</time>
      </trkpt>
      <trkpt lat="42.16195" lon="2.28684">
        <ele>1412.9</ele>
        <time>2018-11-26T07:18:48Z</time>
      </trkpt>
      <trkpt lat="42.16197" lon="2.28685">
        <ele>1413.8</ele>
        <time>2018-11-26T07:18:49Z</time>
      </trkpt>
      <trkpt lat="42.16199" lon="2.28687">
        <ele>1413.8</ele>
        <time>2018-11-26T07:18:50Z</time>
      </trkpt>
      <trkpt lat="42.16201" lon="2.2869">
        <ele>1414.4</ele>
        <time>2018-11-26T07:18:51Z</time>
      </trkpt>
      <trkpt lat="42.16203" lon="2.28691">
        <ele>1414.6</ele>
        <time>2018-11-26T07:18:52Z</time>
      </trkpt>
      <trkpt lat="42.16206" lon="2.28692">
        <ele>1415</ele>
        <time>2018-11-26T07:18:53Z</time>
      </trkpt>
      <trkpt lat="42.16207" lon="2.28693">
        <ele>1416.1</ele>
        <time>2018-11-26T07:18:54Z</time>
      </trkpt>
      <trkpt lat="42.1621" lon="2.28695">
        <ele>1416.2</ele>
        <time>2018-11-26T07:18:55Z</time>
      </trkpt>
      <trkpt lat="42.16212" lon="2.28695">
        <ele>1417.4</ele>
        <time>2018-11-26T07:18:56Z</time>
      </trkpt>
      <trkpt lat="42.16214" lon="2.28696">
        <ele>1418.1</ele>
        <time>2018-11-26T07:18:57Z</time>
      </trkpt>
      <trkpt lat="42.16216" lon="2.28696">
        <ele>1418.4</ele>
        <time>2018-11-26T07:18:58Z</time>
      </trkpt>
      <trkpt lat="42.16218" lon="2.28696">
        <ele>1419.1</ele>
        <time>2018-11-26T07:18:59Z</time>
      </trkpt>
      <trkpt lat="42.16221" lon="2.28697">
        <ele>1420.1</ele>
        <time>2018-11-26T07:19:00Z</time>
      </trkpt>
      <trkpt lat="42.16223" lon="2.28697">
        <ele>1421.4</ele>
        <time>2018-11-26T07:19:00Z</time>
      </trkpt>
      <trkpt lat="42.16225" lon="2.28697">
        <ele>1422.1</ele>
        <time>2018-11-26T07:19:01Z</time>
      </trkpt>
      <trkpt lat="42.16226" lon="2.287">
        <ele>1423.5</ele>
        <time>2018-11-26T07:19:02Z</time>
      </trkpt>
      <trkpt lat="42.16227" lon="2.28703">
        <ele>1424</ele>
        <time>2018-11-26T07:19:03Z</time>
      </trkpt>
      <trkpt lat="42.16229" lon="2.28705">
        <ele>1424.6</ele>
        <time>2018-11-26T07:19:04Z</time>
      </trkpt>
      <trkpt lat="42.1623" lon="2.28706">
        <ele>1426.1</ele>
        <time>2018-11-26T07:19:05Z</time>
      </trkpt>
      <trkpt lat="42.16232" lon="2.28707">
        <ele>1426.2</ele>
        <time>2018-11-26T07:19:06Z</time>
      </trkpt>
      <trkpt lat="42.16234" lon="2.28707">
        <ele>1426.4</ele>
        <time>2018-11-26T07:19:06Z</time>
      </trkpt>
      <trkpt lat="42.16234" lon="2.28704">
        <ele>1429</ele>
        <time>2018-11-26T07:19:07Z</time>
      </trkpt>
      <trkpt lat="42.16236" lon="2.28706">
        <ele>1429.8</ele>
        <time>2018-11-26T07:19:08Z</time>
      </trkpt>
      <trkpt lat="42.16237" lon="2.2871">
        <ele>1431.5</ele>
        <time>2018-11-26T07:19:09Z</time>
      </trkpt>
      <trkpt lat="42.16238" lon="2.28712">
        <ele>1432.5</ele>
        <time>2018-11-26T07:19:10Z</time>
      </trkpt>
      <trkpt lat="42.1624" lon="2.28711">
        <ele>1432.9</ele>
        <time>2018-11-26T07:19:11Z</time>
      </trkpt>
      <trkpt lat="42.16242" lon="2.28709">
        <ele>1432.8</ele>
        <time>2018-11-26T07:19:11Z</time>
      </trkpt>
      <trkpt lat="42.16244" lon="2.28708">
        <ele>1432.9</ele>
        <time>2018-11-26T07:19:13Z</time>
      </trkpt>
      <trkpt lat="42.16246" lon="2.28707">
        <ele>1432.6</ele>
        <time>2018-11-26T07:19:13Z</time>
      </trkpt>
      <trkpt lat="42.16249" lon="2.28707">
        <ele>1432.5</ele>
        <time>2018-11-26T07:19:14Z</time>
      </trkpt>
      <trkpt lat="42.16251" lon="2.28706">
        <ele>1432.5</ele>
        <time>2018-11-26T07:19:15Z</time>
      </trkpt>
      <trkpt lat="42.16253" lon="2.28706">
        <ele>1433.5</ele>
        <time>2018-11-26T07:19:16Z</time>
      </trkpt>
      <trkpt lat="42.16255" lon="2.28705">
        <ele>1433.6</ele>
        <time>2018-11-26T07:19:17Z</time>
      </trkpt>
      <trkpt lat="42.16257" lon="2.28704">
        <ele>1435.1</ele>
        <time>2018-11-26T07:19:18Z</time>
      </trkpt>
      <trkpt lat="42.1626" lon="2.28705">
        <ele>1435.5</ele>
        <time>2018-11-26T07:19:19Z</time>
      </trkpt>
      <trkpt lat="42.16262" lon="2.28706">
        <ele>1435.5</ele>
        <time>2018-11-26T07:19:20Z</time>
      </trkpt>
      <trkpt lat="42.16264" lon="2.28707">
        <ele>1436</ele>
        <time>2018-11-26T07:19:21Z</time>
      </trkpt>
      <trkpt lat="42.16266" lon="2.28709">
        <ele>1436.6</ele>
        <time>2018-11-26T07:19:22Z</time>
      </trkpt>
      <trkpt lat="42.16268" lon="2.2871">
        <ele>1436.6</ele>
        <time>2018-11-26T07:19:23Z</time>
      </trkpt>
      <trkpt lat="42.1627" lon="2.28711">
        <ele>1437.1</ele>
        <time>2018-11-26T07:19:23Z</time>
      </trkpt>
      <trkpt lat="42.16272" lon="2.28711">
        <ele>1437.5</ele>
        <time>2018-11-26T07:19:24Z</time>
      </trkpt>
      <trkpt lat="42.16275" lon="2.28711">
        <ele>1438</ele>
        <time>2018-11-26T07:19:25Z</time>
      </trkpt>
      <trkpt lat="42.16277" lon="2.28712">
        <ele>1438.2</ele>
        <time>2018-11-26T07:19:26Z</time>
      </trkpt>
      <trkpt lat="42.1628" lon="2.28713">
        <ele>1439.1</ele>
        <time>2018-11-26T07:19:27Z</time>
      </trkpt>
      <trkpt lat="42.16282" lon="2.28714">
        <ele>1439.9</ele>
        <time>2018-11-26T07:19:28Z</time>
      </trkpt>
      <trkpt lat="42.16284" lon="2.28715">
        <ele>1439.8</ele>
        <time>2018-11-26T07:19:29Z</time>
      </trkpt>
      <trkpt lat="42.16286" lon="2.28716">
        <ele>1440.4</ele>
        <time>2018-11-26T07:19:30Z</time>
      </trkpt>
      <trkpt lat="42.16288" lon="2.28718">
        <ele>1441.1</ele>
        <time>2018-11-26T07:19:31Z</time>
      </trkpt>
      <trkpt lat="42.16289" lon="2.28722">
        <ele>1441.2</ele>
        <time>2018-11-26T07:19:32Z</time>
      </trkpt>
      <trkpt lat="42.1629" lon="2.28725">
        <ele>1441.5</ele>
        <time>2018-11-26T07:19:33Z</time>
      </trkpt>
      <trkpt lat="42.16292" lon="2.28727">
        <ele>1441.5</ele>
        <time>2018-11-26T07:19:34Z</time>
      </trkpt>
      <trkpt lat="42.16294" lon="2.2873">
        <ele>1442</ele>
        <time>2018-11-26T07:19:35Z</time>
      </trkpt>
      <trkpt lat="42.16295" lon="2.28732">
        <ele>1442</ele>
        <time>2018-11-26T07:19:36Z</time>
      </trkpt>
      <trkpt lat="42.16298" lon="2.28734">
        <ele>1442</ele>
        <time>2018-11-26T07:19:37Z</time>
      </trkpt>
      <trkpt lat="42.163" lon="2.28735">
        <ele>1442.6</ele>
        <time>2018-11-26T07:19:38Z</time>
      </trkpt>
      <trkpt lat="42.16302" lon="2.28738">
        <ele>1442.8</ele>
        <time>2018-11-26T07:19:39Z</time>
      </trkpt>
      <trkpt lat="42.16303" lon="2.28741">
        <ele>1442.9</ele>
        <time>2018-11-26T07:19:40Z</time>
      </trkpt>
      <trkpt lat="42.16305" lon="2.28743">
        <ele>1443</ele>
        <time>2018-11-26T07:19:41Z</time>
      </trkpt>
      <trkpt lat="42.16308" lon="2.28744">
        <ele>1443.4</ele>
        <time>2018-11-26T07:19:42Z</time>
      </trkpt>
      <trkpt lat="42.1631" lon="2.28745">
        <ele>1443.5</ele>
        <time>2018-11-26T07:19:43Z</time>
      </trkpt>
      <trkpt lat="42.16312" lon="2.28746">
        <ele>1443.6</ele>
        <time>2018-11-26T07:19:44Z</time>
      </trkpt>
      <trkpt lat="42.16314" lon="2.28745">
        <ele>1444.1</ele>
        <time>2018-11-26T07:19:45Z</time>
      </trkpt>
      <trkpt lat="42.16316" lon="2.28745">
        <ele>1444.4</ele>
        <time>2018-11-26T07:19:46Z</time>
      </trkpt>
      <trkpt lat="42.16318" lon="2.28745">
        <ele>1445.6</ele>
        <time>2018-11-26T07:19:47Z</time>
      </trkpt>
      <trkpt lat="42.16321" lon="2.28745">
        <ele>1446.5</ele>
        <time>2018-11-26T07:19:48Z</time>
      </trkpt>
      <trkpt lat="42.16323" lon="2.28746">
        <ele>1446.6</ele>
        <time>2018-11-26T07:19:48Z</time>
      </trkpt>
      <trkpt lat="42.16325" lon="2.28745">
        <ele>1447.2</ele>
        <time>2018-11-26T07:19:49Z</time>
      </trkpt>
      <trkpt lat="42.16327" lon="2.28746">
        <ele>1447.6</ele>
        <time>2018-11-26T07:19:50Z</time>
      </trkpt>
      <trkpt lat="42.16329" lon="2.28748">
        <ele>1448.1</ele>
        <time>2018-11-26T07:19:51Z</time>
      </trkpt>
      <trkpt lat="42.16331" lon="2.2875">
        <ele>1449.4</ele>
        <time>2018-11-26T07:19:52Z</time>
      </trkpt>
      <trkpt lat="42.16333" lon="2.28751">
        <ele>1450</ele>
        <time>2018-11-26T07:19:53Z</time>
      </trkpt>
      <trkpt lat="42.16335" lon="2.28752">
        <ele>1450.4</ele>
        <time>2018-11-26T07:19:54Z</time>
      </trkpt>
      <trkpt lat="42.16337" lon="2.28753">
        <ele>1450.5</ele>
        <time>2018-11-26T07:19:55Z</time>
      </trkpt>
      <trkpt lat="42.16339" lon="2.28755">
        <ele>1451</ele>
        <time>2018-11-26T07:19:56Z</time>
      </trkpt>
      <trkpt lat="42.16341" lon="2.28757">
        <ele>1451.9</ele>
        <time>2018-11-26T07:19:56Z</time>
      </trkpt>
      <trkpt lat="42.16342" lon="2.28758">
        <ele>1452.6</ele>
        <time>2018-11-26T07:19:57Z</time>
      </trkpt>
      <trkpt lat="42.16343" lon="2.2876">
        <ele>1452.9</ele>
        <time>2018-11-26T07:19:58Z</time>
      </trkpt>
      <trkpt lat="42.16345" lon="2.28762">
        <ele>1453.1</ele>
        <time>2018-11-26T07:19:59Z</time>
      </trkpt>
      <trkpt lat="42.16347" lon="2.28763">
        <ele>1453.6</ele>
        <time>2018-11-26T07:20:00Z</time>
      </trkpt>
      <trkpt lat="42.16349" lon="2.28764">
        <ele>1454.6</ele>
        <time>2018-11-26T07:20:01Z</time>
      </trkpt>
      <trkpt lat="42.16351" lon="2.28767">
        <ele>1455.2</ele>
        <time>2018-11-26T07:20:02Z</time>
      </trkpt>
      <trkpt lat="42.16353" lon="2.28768">
        <ele>1456.1</ele>
        <time>2018-11-26T07:20:02Z</time>
      </trkpt>
      <trkpt lat="42.16355" lon="2.2877">
        <ele>1456</ele>
        <time>2018-11-26T07:20:03Z</time>
      </trkpt>
      <trkpt lat="42.16357" lon="2.28772">
        <ele>1456.2</ele>
        <time>2018-11-26T07:20:04Z</time>
      </trkpt>
      <trkpt lat="42.16359" lon="2.28774">
        <ele>1456.1</ele>
        <time>2018-11-26T07:20:06Z</time>
      </trkpt>
      <trkpt lat="42.16361" lon="2.28776">
        <ele>1456.5</ele>
        <time>2018-11-26T07:20:07Z</time>
      </trkpt>
      <trkpt lat="42.16363" lon="2.28778">
        <ele>1457</ele>
        <time>2018-11-26T07:20:08Z</time>
      </trkpt>
      <trkpt lat="42.16366" lon="2.28779">
        <ele>1457.4</ele>
        <time>2018-11-26T07:20:09Z</time>
      </trkpt>
      <trkpt lat="42.16368" lon="2.28781">
        <ele>1457.9</ele>
        <time>2018-11-26T07:20:10Z</time>
      </trkpt>
      <trkpt lat="42.16369" lon="2.28783">
        <ele>1457.5</ele>
        <time>2018-11-26T07:20:10Z</time>
      </trkpt>
      <trkpt lat="42.16372" lon="2.28784">
        <ele>1457.8</ele>
        <time>2018-11-26T07:20:12Z</time>
      </trkpt>
      <trkpt lat="42.16375" lon="2.28785">
        <ele>1458.1</ele>
        <time>2018-11-26T07:20:13Z</time>
      </trkpt>
      <trkpt lat="42.16377" lon="2.28786">
        <ele>1458.4</ele>
        <time>2018-11-26T07:20:14Z</time>
      </trkpt>
      <trkpt lat="42.16379" lon="2.28789">
        <ele>1459</ele>
        <time>2018-11-26T07:20:15Z</time>
      </trkpt>
      <trkpt lat="42.16381" lon="2.2879">
        <ele>1459.1</ele>
        <time>2018-11-26T07:20:16Z</time>
      </trkpt>
      <trkpt lat="42.16383" lon="2.28792">
        <ele>1460.1</ele>
        <time>2018-11-26T07:20:17Z</time>
      </trkpt>
      <trkpt lat="42.16385" lon="2.28794">
        <ele>1460.1</ele>
        <time>2018-11-26T07:20:18Z</time>
      </trkpt>
      <trkpt lat="42.16386" lon="2.28796">
        <ele>1460.4</ele>
        <time>2018-11-26T07:20:18Z</time>
      </trkpt>
      <trkpt lat="42.16388" lon="2.28798">
        <ele>1461.1</ele>
        <time>2018-11-26T07:20:19Z</time>
      </trkpt>
      <trkpt lat="42.1639" lon="2.28801">
        <ele>1461.1</ele>
        <time>2018-11-26T07:20:21Z</time>
      </trkpt>
      <trkpt lat="42.16393" lon="2.28803">
        <ele>1461.1</ele>
        <time>2018-11-26T07:20:22Z</time>
      </trkpt>
      <trkpt lat="42.16395" lon="2.28805">
        <ele>1461.2</ele>
        <time>2018-11-26T07:20:23Z</time>
      </trkpt>
      <trkpt lat="42.16397" lon="2.28807">
        <ele>1461.2</ele>
        <time>2018-11-26T07:20:24Z</time>
      </trkpt>
      <trkpt lat="42.16399" lon="2.28809">
        <ele>1461.2</ele>
        <time>2018-11-26T07:20:25Z</time>
      </trkpt>
      <trkpt lat="42.16402" lon="2.28812">
        <ele>1461.2</ele>
        <time>2018-11-26T07:20:26Z</time>
      </trkpt>
      <trkpt lat="42.16404" lon="2.28814">
        <ele>1461.1</ele>
        <time>2018-11-26T07:20:27Z</time>
      </trkpt>
      <trkpt lat="42.16406" lon="2.28816">
        <ele>1461.1</ele>
        <time>2018-11-26T07:20:28Z</time>
      </trkpt>
      <trkpt lat="42.16408" lon="2.28818">
        <ele>1461.5</ele>
        <time>2018-11-26T07:20:29Z</time>
      </trkpt>
      <trkpt lat="42.1641" lon="2.2882">
        <ele>1461.9</ele>
        <time>2018-11-26T07:20:30Z</time>
      </trkpt>
      <trkpt lat="42.16411" lon="2.28822">
        <ele>1462</ele>
        <time>2018-11-26T07:20:31Z</time>
      </trkpt>
      <trkpt lat="42.16413" lon="2.28824">
        <ele>1463.4</ele>
        <time>2018-11-26T07:20:32Z</time>
      </trkpt>
      <trkpt lat="42.16415" lon="2.28825">
        <ele>1463.5</ele>
        <time>2018-11-26T07:20:33Z</time>
      </trkpt>
      <trkpt lat="42.16417" lon="2.28827">
        <ele>1464</ele>
        <time>2018-11-26T07:20:34Z</time>
      </trkpt>
      <trkpt lat="42.16419" lon="2.28828">
        <ele>1464.5</ele>
        <time>2018-11-26T07:20:35Z</time>
      </trkpt>
      <trkpt lat="42.16422" lon="2.28829">
        <ele>1465.2</ele>
        <time>2018-11-26T07:20:36Z</time>
      </trkpt>
      <trkpt lat="42.16424" lon="2.28832">
        <ele>1465.6</ele>
        <time>2018-11-26T07:20:37Z</time>
      </trkpt>
      <trkpt lat="42.16425" lon="2.28833">
        <ele>1465.5</ele>
        <time>2018-11-26T07:20:38Z</time>
      </trkpt>
      <trkpt lat="42.16428" lon="2.28835">
        <ele>1466.1</ele>
        <time>2018-11-26T07:20:39Z</time>
      </trkpt>
      <trkpt lat="42.16429" lon="2.28837">
        <ele>1467.1</ele>
        <time>2018-11-26T07:20:40Z</time>
      </trkpt>
      <trkpt lat="42.16431" lon="2.28839">
        <ele>1467.5</ele>
        <time>2018-11-26T07:20:41Z</time>
      </trkpt>
      <trkpt lat="42.16434" lon="2.28841">
        <ele>1467.9</ele>
        <time>2018-11-26T07:20:42Z</time>
      </trkpt>
      <trkpt lat="42.16436" lon="2.28843">
        <ele>1468.4</ele>
        <time>2018-11-26T07:20:43Z</time>
      </trkpt>
      <trkpt lat="42.16438" lon="2.28846">
        <ele>1468.4</ele>
        <time>2018-11-26T07:20:44Z</time>
      </trkpt>
      <trkpt lat="42.1644" lon="2.28847">
        <ele>1468.4</ele>
        <time>2018-11-26T07:20:45Z</time>
      </trkpt>
      <trkpt lat="42.16442" lon="2.28848">
        <ele>1468.4</ele>
        <time>2018-11-26T07:20:46Z</time>
      </trkpt>
      <trkpt lat="42.16445" lon="2.28849">
        <ele>1468.6</ele>
        <time>2018-11-26T07:20:47Z</time>
      </trkpt>
      <trkpt lat="42.16448" lon="2.2885">
        <ele>1468.6</ele>
        <time>2018-11-26T07:20:48Z</time>
      </trkpt>
      <trkpt lat="42.16451" lon="2.28851">
        <ele>1468.5</ele>
        <time>2018-11-26T07:20:49Z</time>
      </trkpt>
      <trkpt lat="42.16453" lon="2.28852">
        <ele>1468.9</ele>
        <time>2018-11-26T07:20:50Z</time>
      </trkpt>
      <trkpt lat="42.16455" lon="2.28853">
        <ele>1468.8</ele>
        <time>2018-11-26T07:20:51Z</time>
      </trkpt>
      <trkpt lat="42.16457" lon="2.28855">
        <ele>1469</ele>
        <time>2018-11-26T07:20:52Z</time>
      </trkpt>
      <trkpt lat="42.16459" lon="2.28856">
        <ele>1470</ele>
        <time>2018-11-26T07:20:53Z</time>
      </trkpt>
      <trkpt lat="42.16462" lon="2.28858">
        <ele>1470.1</ele>
        <time>2018-11-26T07:20:54Z</time>
      </trkpt>
      <trkpt lat="42.16464" lon="2.28859">
        <ele>1470.1</ele>
        <time>2018-11-26T07:20:55Z</time>
      </trkpt>
      <trkpt lat="42.16465" lon="2.28861">
        <ele>1470.2</ele>
        <time>2018-11-26T07:20:56Z</time>
      </trkpt>
      <trkpt lat="42.16467" lon="2.28862">
        <ele>1470.6</ele>
        <time>2018-11-26T07:20:57Z</time>
      </trkpt>
      <trkpt lat="42.1647" lon="2.28863">
        <ele>1471.4</ele>
        <time>2018-11-26T07:20:58Z</time>
      </trkpt>
      <trkpt lat="42.16472" lon="2.28864">
        <ele>1471.6</ele>
        <time>2018-11-26T07:20:59Z</time>
      </trkpt>
      <trkpt lat="42.16474" lon="2.28865">
        <ele>1472.1</ele>
        <time>2018-11-26T07:20:59Z</time>
      </trkpt>
      <trkpt lat="42.16476" lon="2.28867">
        <ele>1472.8</ele>
        <time>2018-11-26T07:21:00Z</time>
      </trkpt>
      <trkpt lat="42.16478" lon="2.28868">
        <ele>1473.1</ele>
        <time>2018-11-26T07:21:01Z</time>
      </trkpt>
      <trkpt lat="42.1648" lon="2.28869">
        <ele>1473.5</ele>
        <time>2018-11-26T07:21:02Z</time>
      </trkpt>
      <trkpt lat="42.16482" lon="2.2887">
        <ele>1473.5</ele>
        <time>2018-11-26T07:21:03Z</time>
      </trkpt>
      <trkpt lat="42.16484" lon="2.28872">
        <ele>1474.8</ele>
        <time>2018-11-26T07:21:04Z</time>
      </trkpt>
      <trkpt lat="42.16486" lon="2.28873">
        <ele>1475.1</ele>
        <time>2018-11-26T07:21:05Z</time>
      </trkpt>
      <trkpt lat="42.16488" lon="2.28875">
        <ele>1475.1</ele>
        <time>2018-11-26T07:21:06Z</time>
      </trkpt>
      <trkpt lat="42.16489" lon="2.28876">
        <ele>1477.2</ele>
        <time>2018-11-26T07:21:07Z</time>
      </trkpt>
      <trkpt lat="42.16491" lon="2.28877">
        <ele>1477.1</ele>
        <time>2018-11-26T07:21:07Z</time>
      </trkpt>
      <trkpt lat="42.16493" lon="2.28879">
        <ele>1477.4</ele>
        <time>2018-11-26T07:21:08Z</time>
      </trkpt>
      <trkpt lat="42.16495" lon="2.28881">
        <ele>1478.2</ele>
        <time>2018-11-26T07:21:09Z</time>
      </trkpt>
      <trkpt lat="42.16497" lon="2.28884">
        <ele>1478.5</ele>
        <time>2018-11-26T07:21:10Z</time>
      </trkpt>
      <trkpt lat="42.16498" lon="2.28886">
        <ele>1480.1</ele>
        <time>2018-11-26T07:21:11Z</time>
      </trkpt>
      <trkpt lat="42.165" lon="2.28889">
        <ele>1481.1</ele>
        <time>2018-11-26T07:21:12Z</time>
      </trkpt>
      <trkpt lat="42.16502" lon="2.28889">
        <ele>1482.3</ele>
        <time>2018-11-26T07:21:13Z</time>
      </trkpt>
      <trkpt lat="42.16504" lon="2.2889">
        <ele>1483</ele>
        <time>2018-11-26T07:21:14Z</time>
      </trkpt>
      <trkpt lat="42.16506" lon="2.28891">
        <ele>1484</ele>
        <time>2018-11-26T07:21:15Z</time>
      </trkpt>
      <trkpt lat="42.16508" lon="2.28891">
        <ele>1484.1</ele>
        <time>2018-11-26T07:21:16Z</time>
      </trkpt>
      <trkpt lat="42.1651" lon="2.28892">
        <ele>1484.6</ele>
        <time>2018-11-26T07:21:16Z</time>
      </trkpt>
      <trkpt lat="42.16512" lon="2.28893">
        <ele>1485.2</ele>
        <time>2018-11-26T07:21:17Z</time>
      </trkpt>
      <trkpt lat="42.16514" lon="2.28894">
        <ele>1486.9</ele>
        <time>2018-11-26T07:21:18Z</time>
      </trkpt>
      <trkpt lat="42.16516" lon="2.28894">
        <ele>1487.8</ele>
        <time>2018-11-26T07:21:19Z</time>
      </trkpt>
      <trkpt lat="42.16518" lon="2.28894">
        <ele>1488.2</ele>
        <time>2018-11-26T07:21:20Z</time>
      </trkpt>
      <trkpt lat="42.1652" lon="2.28895">
        <ele>1488.2</ele>
        <time>2018-11-26T07:21:21Z</time>
      </trkpt>
      <trkpt lat="42.16523" lon="2.28896">
        <ele>1488.6</ele>
        <time>2018-11-26T07:21:22Z</time>
      </trkpt>
      <trkpt lat="42.16561" lon="2.29024">
        <ele>1503</ele>
        <time>2018-11-26T10:01:07Z</time>
      </trkpt>
      <trkpt lat="42.1656" lon="2.29023">
        <ele>1503</ele>
        <time>2018-11-26T10:01:07Z</time>
      </trkpt>
      <trkpt lat="42.16558" lon="2.29021">
        <ele>1503</ele>
        <time>2018-11-26T10:01:08Z</time>
      </trkpt>
      <trkpt lat="42.16557" lon="2.29019">
        <ele>1503</ele>
        <time>2018-11-26T10:01:09Z</time>
      </trkpt>
      <trkpt lat="42.16556" lon="2.29017">
        <ele>1504</ele>
        <time>2018-11-26T10:01:10Z</time>
      </trkpt>
      <trkpt lat="42.16555" lon="2.29015">
        <ele>1504.1</ele>
        <time>2018-11-26T10:01:10Z</time>
      </trkpt>
      <trkpt lat="42.16552" lon="2.29013">
        <ele>1504.1</ele>
        <time>2018-11-26T10:01:12Z</time>
      </trkpt>
      <trkpt lat="42.16551" lon="2.29011">
        <ele>1505</ele>
        <time>2018-11-26T10:01:12Z</time>
      </trkpt>
      <trkpt lat="42.16553" lon="2.29011">
        <ele>1506</ele>
        <time>2018-11-26T10:01:13Z</time>
      </trkpt>
      <trkpt lat="42.16555" lon="2.29012">
        <ele>1506</ele>
        <time>2018-11-26T10:01:14Z</time>
      </trkpt>
      <trkpt lat="42.16557" lon="2.29012">
        <ele>1508</ele>
        <time>2018-11-26T10:01:15Z</time>
      </trkpt>
      <trkpt lat="42.16559" lon="2.29012">
        <ele>1509</ele>
        <time>2018-11-26T10:01:16Z</time>
      </trkpt>
      <trkpt lat="42.16561" lon="2.29013">
        <ele>1509.2</ele>
        <time>2018-11-26T10:01:17Z</time>
      </trkpt>
      <trkpt lat="42.16563" lon="2.29013">
        <ele>1511</ele>
        <time>2018-11-26T10:01:17Z</time>
      </trkpt>
      <trkpt lat="42.16565" lon="2.29012">
        <ele>1512.1</ele>
        <time>2018-11-26T10:01:18Z</time>
      </trkpt>
      <trkpt lat="42.16565" lon="2.29009">
        <ele>1513</ele>
        <time>2018-11-26T10:01:19Z</time>
      </trkpt>
      <trkpt lat="42.16567" lon="2.29008">
        <ele>1514</ele>
        <time>2018-11-26T10:01:20Z</time>
      </trkpt>
      <trkpt lat="42.16566" lon="2.29006">
        <ele>1514.3</ele>
        <time>2018-11-26T10:01:21Z</time>
      </trkpt>
      <trkpt lat="42.16564" lon="2.29005">
        <ele>1515</ele>
        <time>2018-11-26T10:01:21Z</time>
      </trkpt>
      <trkpt lat="42.16562" lon="2.29003">
        <ele>1515.1</ele>
        <time>2018-11-26T10:01:22Z</time>
      </trkpt>
      <trkpt lat="42.1656" lon="2.29002">
        <ele>1517</ele>
        <time>2018-11-26T10:01:23Z</time>
      </trkpt>
      <trkpt lat="42.16558" lon="2.29">
        <ele>1517</ele>
        <time>2018-11-26T10:01:24Z</time>
      </trkpt>
      <trkpt lat="42.16556" lon="2.28998">
        <ele>1518</ele>
        <time>2018-11-26T10:01:25Z</time>
      </trkpt>
      <trkpt lat="42.16557" lon="2.28996">
        <ele>1519</ele>
        <time>2018-11-26T10:01:26Z</time>
      </trkpt>
      <trkpt lat="42.16558" lon="2.28994">
        <ele>1519</ele>
        <time>2018-11-26T10:01:27Z</time>
      </trkpt>
      <trkpt lat="42.16559" lon="2.28991">
        <ele>1519</ele>
        <time>2018-11-26T10:01:28Z</time>
      </trkpt>
      <trkpt lat="42.1656" lon="2.28988">
        <ele>1519.1</ele>
        <time>2018-11-26T10:01:29Z</time>
      </trkpt>
      <trkpt lat="42.16561" lon="2.28987">
        <ele>1521</ele>
        <time>2018-11-26T10:01:29Z</time>
      </trkpt>
      <trkpt lat="42.16561" lon="2.28984">
        <ele>1522</ele>
        <time>2018-11-26T10:01:30Z</time>
      </trkpt>
      <trkpt lat="42.1656" lon="2.28981">
        <ele>1521.2</ele>
        <time>2018-11-26T10:01:31Z</time>
      </trkpt>
      <trkpt lat="42.16558" lon="2.28979">
        <ele>1523.1</ele>
        <time>2018-11-26T10:01:32Z</time>
      </trkpt>
      <trkpt lat="42.16557" lon="2.28976">
        <ele>1523</ele>
        <time>2018-11-26T10:01:33Z</time>
      </trkpt>
      <trkpt lat="42.16556" lon="2.28974">
        <ele>1524.1</ele>
        <time>2018-11-26T10:01:34Z</time>
      </trkpt>
      <trkpt lat="42.16554" lon="2.28972">
        <ele>1525</ele>
        <time>2018-11-26T10:01:34Z</time>
      </trkpt>
      <trkpt lat="42.16553" lon="2.2897">
        <ele>1523.8</ele>
        <time>2018-11-26T10:01:35Z</time>
      </trkpt>
      <trkpt lat="42.16552" lon="2.28969">
        <ele>1523.1</ele>
        <time>2018-11-26T10:01:36Z</time>
      </trkpt>
      <trkpt lat="42.1655" lon="2.28966">
        <ele>1522.9</ele>
        <time>2018-11-26T10:01:37Z</time>
      </trkpt>
      <trkpt lat="42.16549" lon="2.28964">
        <ele>1522.1</ele>
        <time>2018-11-26T10:01:38Z</time>
      </trkpt>
      <trkpt lat="42.16548" lon="2.28962">
        <ele>1522.3</ele>
        <time>2018-11-26T10:01:39Z</time>
      </trkpt>
      <trkpt lat="42.16549" lon="2.28963">
        <ele>1523</ele>
        <time>2018-11-26T10:01:39Z</time>
      </trkpt>
      <trkpt lat="42.1655" lon="2.28966">
        <ele>1523</ele>
        <time>2018-11-26T10:01:40Z</time>
      </trkpt>
      <trkpt lat="42.16551" lon="2.28968">
        <ele>1523</ele>
        <time>2018-11-26T10:01:41Z</time>
      </trkpt>
      <trkpt lat="42.16553" lon="2.28969">
        <ele>1524.1</ele>
        <time>2018-11-26T10:01:42Z</time>
      </trkpt>
      <trkpt lat="42.16555" lon="2.2897">
        <ele>1524</ele>
        <time>2018-11-26T10:01:42Z</time>
      </trkpt>
      <trkpt lat="42.16557" lon="2.28968">
        <ele>1529.1</ele>
        <time>2018-11-26T10:01:43Z</time>
      </trkpt>
      <trkpt lat="42.16556" lon="2.2897">
        <ele>1527.1</ele>
        <time>2018-11-26T10:01:44Z</time>
      </trkpt>
      <trkpt lat="42.16556" lon="2.28973">
        <ele>1526</ele>
        <time>2018-11-26T10:01:45Z</time>
      </trkpt>
      <trkpt lat="42.16555" lon="2.28975">
        <ele>1526.1</ele>
        <time>2018-11-26T10:01:46Z</time>
      </trkpt>
      <trkpt lat="42.16555" lon="2.28978">
        <ele>1524.1</ele>
        <time>2018-11-26T10:01:47Z</time>
      </trkpt>
      <trkpt lat="42.16554" lon="2.28981">
        <ele>1524</ele>
        <time>2018-11-26T10:01:48Z</time>
      </trkpt>
      <trkpt lat="42.16552" lon="2.28983">
        <ele>1523.7</ele>
        <time>2018-11-26T10:01:49Z</time>
      </trkpt>
      <trkpt lat="42.16552" lon="2.28986">
        <ele>1522.8</ele>
        <time>2018-11-26T10:01:49Z</time>
      </trkpt>
      <trkpt lat="42.16554" lon="2.28986">
        <ele>1522</ele>
        <time>2018-11-26T10:01:50Z</time>
      </trkpt>
      <trkpt lat="42.16557" lon="2.28987">
        <ele>1521</ele>
        <time>2018-11-26T10:01:51Z</time>
      </trkpt>
      <trkpt lat="42.16558" lon="2.28989">
        <ele>1521.1</ele>
        <time>2018-11-26T10:01:52Z</time>
      </trkpt>
      <trkpt lat="42.16557" lon="2.28993">
        <ele>1520.1</ele>
        <time>2018-11-26T10:01:53Z</time>
      </trkpt>
      <trkpt lat="42.16556" lon="2.28995">
        <ele>1519</ele>
        <time>2018-11-26T10:01:54Z</time>
      </trkpt>
      <trkpt lat="42.16556" lon="2.28998">
        <ele>1519.1</ele>
        <time>2018-11-26T10:01:55Z</time>
      </trkpt>
      <trkpt lat="42.16558" lon="2.28999">
        <ele>1518.7</ele>
        <time>2018-11-26T10:01:56Z</time>
      </trkpt>
      <trkpt lat="42.16559" lon="2.29">
        <ele>1517.7</ele>
        <time>2018-11-26T10:01:56Z</time>
      </trkpt>
      <trkpt lat="42.16561" lon="2.29002">
        <ele>1516.1</ele>
        <time>2018-11-26T10:01:57Z</time>
      </trkpt>
      <trkpt lat="42.16563" lon="2.29003">
        <ele>1516</ele>
        <time>2018-11-26T10:01:58Z</time>
      </trkpt>
      <trkpt lat="42.16564" lon="2.29005">
        <ele>1515.1</ele>
        <time>2018-11-26T10:01:59Z</time>
      </trkpt>
      <trkpt lat="42.16566" lon="2.29007">
        <ele>1514.7</ele>
        <time>2018-11-26T10:02:00Z</time>
      </trkpt>
      <trkpt lat="42.16565" lon="2.29009">
        <ele>1515</ele>
        <time>2018-11-26T10:02:00Z</time>
      </trkpt>
      <trkpt lat="42.16563" lon="2.29008">
        <ele>1513.7</ele>
        <time>2018-11-26T10:02:01Z</time>
      </trkpt>
      <trkpt lat="42.16562" lon="2.2901">
        <ele>1513</ele>
        <time>2018-11-26T10:02:02Z</time>
      </trkpt>
      <trkpt lat="42.1656" lon="2.29011">
        <ele>1510.9</ele>
        <time>2018-11-26T10:02:03Z</time>
      </trkpt>
      <trkpt lat="42.16558" lon="2.2901">
        <ele>1510.1</ele>
        <time>2018-11-26T10:02:04Z</time>
      </trkpt>
      <trkpt lat="42.16556" lon="2.29009">
        <ele>1508.1</ele>
        <time>2018-11-26T10:02:05Z</time>
      </trkpt>
      <trkpt lat="42.16554" lon="2.29009">
        <ele>1507</ele>
        <time>2018-11-26T10:02:05Z</time>
      </trkpt>
      <trkpt lat="42.16552" lon="2.29008">
        <ele>1506</ele>
        <time>2018-11-26T10:02:06Z</time>
      </trkpt>
      <trkpt lat="42.16552" lon="2.29011">
        <ele>1505.1</ele>
        <time>2018-11-26T10:02:07Z</time>
      </trkpt>
      <trkpt lat="42.16554" lon="2.29013">
        <ele>1505.1</ele>
        <time>2018-11-26T10:02:08Z</time>
      </trkpt>
      <trkpt lat="42.16556" lon="2.29016">
        <ele>1503.1</ele>
        <time>2018-11-26T10:02:09Z</time>
      </trkpt>
      <trkpt lat="42.16556" lon="2.29019">
        <ele>1503</ele>
        <time>2018-11-26T10:02:10Z</time>
      </trkpt>
      <trkpt lat="42.16559" lon="2.29021">
        <ele>1503</ele>
        <time>2018-11-26T10:02:11Z</time>
      </trkpt>
      <trkpt lat="42.1656" lon="2.29022">
        <ele>1503</ele>
        <time>2018-11-26T10:02:12Z</time>
      </trkpt>
      <trkpt lat="42.16562" lon="2.29025">
        <ele>1502.1</ele>
        <time>2018-11-26T10:02:13Z</time>
      </trkpt>
      <trkpt lat="42.16562" lon="2.29028">
        <ele>1502.1</ele>
        <time>2018-11-26T10:02:14Z</time>
      </trkpt>
      <trkpt lat="42.16562" lon="2.29031">
        <ele>1501.8</ele>
        <time>2018-11-26T10:02:15Z</time>
      </trkpt>
      <trkpt lat="42.16563" lon="2.29033">
        <ele>1502</ele>
        <time>2018-11-26T10:02:16Z</time>
      </trkpt>
      <trkpt lat="42.16565" lon="2.29034">
        <ele>1502</ele>
        <time>2018-11-26T10:02:17Z</time>
      </trkpt>
      <trkpt lat="42.16567" lon="2.29035">
        <ele>1503</ele>
        <time>2018-11-26T10:02:18Z</time>
      </trkpt>
      <trkpt lat="42.1657" lon="2.29035">
        <ele>1503</ele>
        <time>2018-11-26T10:02:19Z</time>
      </trkpt>
      <trkpt lat="42.16572" lon="2.29034">
        <ele>1503</ele>
        <time>2018-11-26T10:02:19Z</time>
      </trkpt>
      <trkpt lat="42.16575" lon="2.29035">
        <ele>1502</ele>
        <time>2018-11-26T10:02:20Z</time>
      </trkpt>
      <trkpt lat="42.16574" lon="2.29038">
        <ele>1502</ele>
        <time>2018-11-26T10:02:21Z</time>
      </trkpt>
      <trkpt lat="42.16574" lon="2.29041">
        <ele>1501.7</ele>
        <time>2018-11-26T10:02:22Z</time>
      </trkpt>
      <trkpt lat="42.16573" lon="2.29043">
        <ele>1500.1</ele>
        <time>2018-11-26T10:02:23Z</time>
      </trkpt>
      <trkpt lat="42.16572" lon="2.29045">
        <ele>1499</ele>
        <time>2018-11-26T10:02:24Z</time>
      </trkpt>
      <trkpt lat="42.16571" lon="2.29047">
        <ele>1499</ele>
        <time>2018-11-26T10:02:25Z</time>
      </trkpt>
      <trkpt lat="42.16569" lon="2.29049">
        <ele>1498</ele>
        <time>2018-11-26T10:02:25Z</time>
      </trkpt>
      <trkpt lat="42.16569" lon="2.29053">
        <ele>1498</ele>
        <time>2018-11-26T10:02:26Z</time>
      </trkpt>
      <trkpt lat="42.16568" lon="2.29056">
        <ele>1496.8</ele>
        <time>2018-11-26T10:02:27Z</time>
      </trkpt>
      <trkpt lat="42.16567" lon="2.29058">
        <ele>1495.1</ele>
        <time>2018-11-26T10:02:28Z</time>
      </trkpt>
      <trkpt lat="42.16565" lon="2.29061">
        <ele>1495.1</ele>
        <time>2018-11-26T10:02:29Z</time>
      </trkpt>
      <trkpt lat="42.16564" lon="2.29063">
        <ele>1495.1</ele>
        <time>2018-11-26T10:02:30Z</time>
      </trkpt>
      <trkpt lat="42.16564" lon="2.29065">
        <ele>1494.9</ele>
        <time>2018-11-26T10:02:31Z</time>
      </trkpt>
      <trkpt lat="42.16563" lon="2.29068">
        <ele>1494</ele>
        <time>2018-11-26T10:02:32Z</time>
      </trkpt>
      <trkpt lat="42.16561" lon="2.2907">
        <ele>1494</ele>
        <time>2018-11-26T10:02:32Z</time>
      </trkpt>
      <trkpt lat="42.1656" lon="2.29072">
        <ele>1494.1</ele>
        <time>2018-11-26T10:02:33Z</time>
      </trkpt>
      <trkpt lat="42.1656" lon="2.29075">
        <ele>1494</ele>
        <time>2018-11-26T10:02:34Z</time>
      </trkpt>
      <trkpt lat="42.16561" lon="2.29077">
        <ele>1494</ele>
        <time>2018-11-26T10:02:35Z</time>
      </trkpt>
      <trkpt lat="42.16559" lon="2.2908">
        <ele>1494.1</ele>
        <time>2018-11-26T10:02:36Z</time>
      </trkpt>
      <trkpt lat="42.16558" lon="2.29083">
        <ele>1494.1</ele>
        <time>2018-11-26T10:02:37Z</time>
      </trkpt>
      <trkpt lat="42.16557" lon="2.29085">
        <ele>1494.1</ele>
        <time>2018-11-26T10:02:38Z</time>
      </trkpt>
      <trkpt lat="42.16556" lon="2.29088">
        <ele>1493.1</ele>
        <time>2018-11-26T10:02:38Z</time>
      </trkpt>
      <trkpt lat="42.16555" lon="2.29091">
        <ele>1493</ele>
        <time>2018-11-26T10:02:39Z</time>
      </trkpt>
      <trkpt lat="42.16554" lon="2.29093">
        <ele>1492.1</ele>
        <time>2018-11-26T10:02:40Z</time>
      </trkpt>
      <trkpt lat="42.16553" lon="2.29096">
        <ele>1492</ele>
        <time>2018-11-26T10:02:41Z</time>
      </trkpt>
      <trkpt lat="42.16553" lon="2.29099">
        <ele>1492</ele>
        <time>2018-11-26T10:02:42Z</time>
      </trkpt>
      <trkpt lat="42.16553" lon="2.29102">
        <ele>1492</ele>
        <time>2018-11-26T10:02:43Z</time>
      </trkpt>
      <trkpt lat="42.16551" lon="2.29104">
        <ele>1492</ele>
        <time>2018-11-26T10:02:44Z</time>
      </trkpt>
      <trkpt lat="42.1655" lon="2.29105">
        <ele>1491</ele>
        <time>2018-11-26T10:02:44Z</time>
      </trkpt>
      <trkpt lat="42.16548" lon="2.29107">
        <ele>1491.1</ele>
        <time>2018-11-26T10:02:45Z</time>
      </trkpt>
      <trkpt lat="42.16546" lon="2.2911">
        <ele>1490.1</ele>
        <time>2018-11-26T10:02:46Z</time>
      </trkpt>
      <trkpt lat="42.16545" lon="2.29111">
        <ele>1490</ele>
        <time>2018-11-26T10:02:47Z</time>
      </trkpt>
      <trkpt lat="42.16544" lon="2.29113">
        <ele>1489.1</ele>
        <time>2018-11-26T10:02:48Z</time>
      </trkpt>
      <trkpt lat="42.16542" lon="2.29116">
        <ele>1489.1</ele>
        <time>2018-11-26T10:02:49Z</time>
      </trkpt>
      <trkpt lat="42.16541" lon="2.29119">
        <ele>1489.1</ele>
        <time>2018-11-26T10:02:50Z</time>
      </trkpt>
      <trkpt lat="42.1654" lon="2.29121">
        <ele>1489.1</ele>
        <time>2018-11-26T10:02:51Z</time>
      </trkpt>
      <trkpt lat="42.16539" lon="2.29124">
        <ele>1489.1</ele>
        <time>2018-11-26T10:02:52Z</time>
      </trkpt>
      <trkpt lat="42.16538" lon="2.29128">
        <ele>1489</ele>
        <time>2018-11-26T10:02:53Z</time>
      </trkpt>
      <trkpt lat="42.16537" lon="2.29131">
        <ele>1488.8</ele>
        <time>2018-11-26T10:02:54Z</time>
      </trkpt>
      <trkpt lat="42.16536" lon="2.29133">
        <ele>1488</ele>
        <time>2018-11-26T10:02:55Z</time>
      </trkpt>
      <trkpt lat="42.16534" lon="2.29136">
        <ele>1488.1</ele>
        <time>2018-11-26T10:02:56Z</time>
      </trkpt>
      <trkpt lat="42.16533" lon="2.29139">
        <ele>1488.1</ele>
        <time>2018-11-26T10:02:57Z</time>
      </trkpt>
      <trkpt lat="42.16531" lon="2.29142">
        <ele>1488.1</ele>
        <time>2018-11-26T10:02:58Z</time>
      </trkpt>
      <trkpt lat="42.1653" lon="2.29145">
        <ele>1487.9</ele>
        <time>2018-11-26T10:02:59Z</time>
      </trkpt>
      <trkpt lat="42.16528" lon="2.29148">
        <ele>1487</ele>
        <time>2018-11-26T10:03:00Z</time>
      </trkpt>
      <trkpt lat="42.16527" lon="2.29151">
        <ele>1487</ele>
        <time>2018-11-26T10:03:01Z</time>
      </trkpt>
      <trkpt lat="42.16525" lon="2.29154">
        <ele>1487.1</ele>
        <time>2018-11-26T10:03:02Z</time>
      </trkpt>
      <trkpt lat="42.16524" lon="2.29156">
        <ele>1486.1</ele>
        <time>2018-11-26T10:03:03Z</time>
      </trkpt>
      <trkpt lat="42.16523" lon="2.29158">
        <ele>1486.1</ele>
        <time>2018-11-26T10:03:04Z</time>
      </trkpt>
      <trkpt lat="42.16522" lon="2.29161">
        <ele>1486</ele>
        <time>2018-11-26T10:03:04Z</time>
      </trkpt>
      <trkpt lat="42.16521" lon="2.29164">
        <ele>1485</ele>
        <time>2018-11-26T10:03:05Z</time>
      </trkpt>
      <trkpt lat="42.16521" lon="2.29166">
        <ele>1485.1</ele>
        <time>2018-11-26T10:03:06Z</time>
      </trkpt>
      <trkpt lat="42.1652" lon="2.29169">
        <ele>1485</ele>
        <time>2018-11-26T10:03:07Z</time>
      </trkpt>
      <trkpt lat="42.16519" lon="2.29171">
        <ele>1484</ele>
        <time>2018-11-26T10:03:08Z</time>
      </trkpt>
      <trkpt lat="42.16519" lon="2.29175">
        <ele>1484.3</ele>
        <time>2018-11-26T10:03:09Z</time>
      </trkpt>
      <trkpt lat="42.16519" lon="2.29177">
        <ele>1484.9</ele>
        <time>2018-11-26T10:03:10Z</time>
      </trkpt>
      <trkpt lat="42.1652" lon="2.2918">
        <ele>1484.1</ele>
        <time>2018-11-26T10:03:10Z</time>
      </trkpt>
      <trkpt lat="42.16519" lon="2.29183">
        <ele>1484</ele>
        <time>2018-11-26T10:03:11Z</time>
      </trkpt>
      <trkpt lat="42.16519" lon="2.29186">
        <ele>1483.9</ele>
        <time>2018-11-26T10:03:12Z</time>
      </trkpt>
      <trkpt lat="42.16518" lon="2.29189">
        <ele>1483.1</ele>
        <time>2018-11-26T10:03:13Z</time>
      </trkpt>
      <trkpt lat="42.16518" lon="2.29192">
        <ele>1482.6</ele>
        <time>2018-11-26T10:03:14Z</time>
      </trkpt>
      <trkpt lat="42.16518" lon="2.29195">
        <ele>1482</ele>
        <time>2018-11-26T10:03:15Z</time>
      </trkpt>
      <trkpt lat="42.16518" lon="2.29198">
        <ele>1482</ele>
        <time>2018-11-26T10:03:16Z</time>
      </trkpt>
      <trkpt lat="42.16519" lon="2.29201">
        <ele>1481.1</ele>
        <time>2018-11-26T10:03:17Z</time>
      </trkpt>
      <trkpt lat="42.16519" lon="2.29204">
        <ele>1481.1</ele>
        <time>2018-11-26T10:03:18Z</time>
      </trkpt>
      <trkpt lat="42.16519" lon="2.29206">
        <ele>1481.1</ele>
        <time>2018-11-26T10:03:18Z</time>
      </trkpt>
      <trkpt lat="42.1652" lon="2.29208">
        <ele>1481.8</ele>
        <time>2018-11-26T10:03:19Z</time>
      </trkpt>
      <trkpt lat="42.16523" lon="2.29208">
        <ele>1481.1</ele>
        <time>2018-11-26T10:03:20Z</time>
      </trkpt>
      <trkpt lat="42.16525" lon="2.29209">
        <ele>1478.1</ele>
        <time>2018-11-26T10:03:21Z</time>
      </trkpt>
      <trkpt lat="42.16526" lon="2.29208">
        <ele>1478</ele>
        <time>2018-11-26T10:03:22Z</time>
      </trkpt>
      <trkpt lat="42.16528" lon="2.29209">
        <ele>1478</ele>
        <time>2018-11-26T10:03:22Z</time>
      </trkpt>
      <trkpt lat="42.1653" lon="2.29211">
        <ele>1477</ele>
        <time>2018-11-26T10:03:23Z</time>
      </trkpt>
      <trkpt lat="42.16532" lon="2.29212">
        <ele>1477</ele>
        <time>2018-11-26T10:03:24Z</time>
      </trkpt>
      <trkpt lat="42.16534" lon="2.29213">
        <ele>1476</ele>
        <time>2018-11-26T10:03:25Z</time>
      </trkpt>
      <trkpt lat="42.16536" lon="2.29214">
        <ele>1475.8</ele>
        <time>2018-11-26T10:03:26Z</time>
      </trkpt>
      <trkpt lat="42.16538" lon="2.29216">
        <ele>1474</ele>
        <time>2018-11-26T10:03:27Z</time>
      </trkpt>
      <trkpt lat="42.1654" lon="2.29214">
        <ele>1473.1</ele>
        <time>2018-11-26T10:03:28Z</time>
      </trkpt>
      <trkpt lat="42.16541" lon="2.29213">
        <ele>1473</ele>
        <time>2018-11-26T10:03:28Z</time>
      </trkpt>
      <trkpt lat="42.16542" lon="2.2921">
        <ele>1472</ele>
        <time>2018-11-26T10:03:29Z</time>
      </trkpt>
      <trkpt lat="42.16543" lon="2.29208">
        <ele>1471.9</ele>
        <time>2018-11-26T10:03:30Z</time>
      </trkpt>
      <trkpt lat="42.16545" lon="2.29207">
        <ele>1471.1</ele>
        <time>2018-11-26T10:03:31Z</time>
      </trkpt>
      <trkpt lat="42.16546" lon="2.29209">
        <ele>1471.1</ele>
        <time>2018-11-26T10:03:32Z</time>
      </trkpt>
      <trkpt lat="42.16546" lon="2.29212">
        <ele>1470.1</ele>
        <time>2018-11-26T10:03:32Z</time>
      </trkpt>
      <trkpt lat="42.16547" lon="2.29214">
        <ele>1469.9</ele>
        <time>2018-11-26T10:03:33Z</time>
      </trkpt>
      <trkpt lat="42.16547" lon="2.29216">
        <ele>1469.1</ele>
        <time>2018-11-26T10:03:34Z</time>
      </trkpt>
      <trkpt lat="42.16548" lon="2.2922">
        <ele>1469</ele>
        <time>2018-11-26T10:03:35Z</time>
      </trkpt>
      <trkpt lat="42.16549" lon="2.29222">
        <ele>1469</ele>
        <time>2018-11-26T10:03:36Z</time>
      </trkpt>
      <trkpt lat="42.1655" lon="2.29225">
        <ele>1468</ele>
        <time>2018-11-26T10:03:37Z</time>
      </trkpt>
      <trkpt lat="42.16551" lon="2.29227">
        <ele>1467.8</ele>
        <time>2018-11-26T10:03:38Z</time>
      </trkpt>
      <trkpt lat="42.16552" lon="2.29225">
        <ele>1466.1</ele>
        <time>2018-11-26T10:03:39Z</time>
      </trkpt>
      <trkpt lat="42.16552" lon="2.29222">
        <ele>1466</ele>
        <time>2018-11-26T10:03:39Z</time>
      </trkpt>
      <trkpt lat="42.16554" lon="2.29219">
        <ele>1465.1</ele>
        <time>2018-11-26T10:03:40Z</time>
      </trkpt>
      <trkpt lat="42.16555" lon="2.29217">
        <ele>1464.1</ele>
        <time>2018-11-26T10:03:41Z</time>
      </trkpt>
      <trkpt lat="42.16556" lon="2.29215">
        <ele>1463.9</ele>
        <time>2018-11-26T10:03:42Z</time>
      </trkpt>
      <trkpt lat="42.16557" lon="2.29213">
        <ele>1463.1</ele>
        <time>2018-11-26T10:03:43Z</time>
      </trkpt>
      <trkpt lat="42.16559" lon="2.29212">
        <ele>1463.1</ele>
        <time>2018-11-26T10:03:43Z</time>
      </trkpt>
      <trkpt lat="42.16561" lon="2.2921">
        <ele>1462.1</ele>
        <time>2018-11-26T10:03:44Z</time>
      </trkpt>
      <trkpt lat="42.16564" lon="2.2921">
        <ele>1461.7</ele>
        <time>2018-11-26T10:03:45Z</time>
      </trkpt>
      <trkpt lat="42.16566" lon="2.29209">
        <ele>1460</ele>
        <time>2018-11-26T10:03:46Z</time>
      </trkpt>
      <trkpt lat="42.16567" lon="2.29207">
        <ele>1460.1</ele>
        <time>2018-11-26T10:03:47Z</time>
      </trkpt>
      <trkpt lat="42.16569" lon="2.29209">
        <ele>1460</ele>
        <time>2018-11-26T10:03:48Z</time>
      </trkpt>
      <trkpt lat="42.16569" lon="2.29212">
        <ele>1460</ele>
        <time>2018-11-26T10:03:49Z</time>
      </trkpt>
      <trkpt lat="42.16569" lon="2.29215">
        <ele>1459.1</ele>
        <time>2018-11-26T10:03:50Z</time>
      </trkpt>
      <trkpt lat="42.16569" lon="2.29217">
        <ele>1459</ele>
        <time>2018-11-26T10:03:50Z</time>
      </trkpt>
      <trkpt lat="42.16568" lon="2.2922">
        <ele>1459.1</ele>
        <time>2018-11-26T10:03:51Z</time>
      </trkpt>
      <trkpt lat="42.16568" lon="2.29222">
        <ele>1458.8</ele>
        <time>2018-11-26T10:03:52Z</time>
      </trkpt>
      <trkpt lat="42.16567" lon="2.29225">
        <ele>1458.1</ele>
        <time>2018-11-26T10:03:53Z</time>
      </trkpt>
      <trkpt lat="42.16567" lon="2.29228">
        <ele>1458.1</ele>
        <time>2018-11-26T10:03:54Z</time>
      </trkpt>
      <trkpt lat="42.16567" lon="2.29232">
        <ele>1458.1</ele>
        <time>2018-11-26T10:03:55Z</time>
      </trkpt>
      <trkpt lat="42.16566" lon="2.29235">
        <ele>1458</ele>
        <time>2018-11-26T10:03:56Z</time>
      </trkpt>
      <trkpt lat="42.16566" lon="2.29238">
        <ele>1458</ele>
        <time>2018-11-26T10:03:57Z</time>
      </trkpt>
      <trkpt lat="42.16566" lon="2.29241">
        <ele>1458</ele>
        <time>2018-11-26T10:03:58Z</time>
      </trkpt>
      <trkpt lat="42.16567" lon="2.29244">
        <ele>1456.1</ele>
        <time>2018-11-26T10:03:59Z</time>
      </trkpt>
      <trkpt lat="42.16566" lon="2.29247">
        <ele>1456.1</ele>
        <time>2018-11-26T10:03:59Z</time>
      </trkpt>
      <trkpt lat="42.16567" lon="2.29249">
        <ele>1456.1</ele>
        <time>2018-11-26T10:04:00Z</time>
      </trkpt>
      <trkpt lat="42.16567" lon="2.29252">
        <ele>1455.1</ele>
        <time>2018-11-26T10:04:01Z</time>
      </trkpt>
      <trkpt lat="42.16568" lon="2.29255">
        <ele>1455</ele>
        <time>2018-11-26T10:04:02Z</time>
      </trkpt>
      <trkpt lat="42.16569" lon="2.29259">
        <ele>1455</ele>
        <time>2018-11-26T10:04:03Z</time>
      </trkpt>
      <trkpt lat="42.1657" lon="2.29262">
        <ele>1455</ele>
        <time>2018-11-26T10:04:04Z</time>
      </trkpt>
      <trkpt lat="42.1657" lon="2.29265">
        <ele>1455</ele>
        <time>2018-11-26T10:04:05Z</time>
      </trkpt>
      <trkpt lat="42.16571" lon="2.29268">
        <ele>1455</ele>
        <time>2018-11-26T10:04:06Z</time>
      </trkpt>
      <trkpt lat="42.16572" lon="2.29271">
        <ele>1454</ele>
        <time>2018-11-26T10:04:07Z</time>
      </trkpt>
      <trkpt lat="42.16574" lon="2.29274">
        <ele>1454</ele>
        <time>2018-11-26T10:04:08Z</time>
      </trkpt>
      <trkpt lat="42.16575" lon="2.29276">
        <ele>1454</ele>
        <time>2018-11-26T10:04:09Z</time>
      </trkpt>
      <trkpt lat="42.16577" lon="2.29278">
        <ele>1453.9</ele>
        <time>2018-11-26T10:04:10Z</time>
      </trkpt>
      <trkpt lat="42.16578" lon="2.29281">
        <ele>1452.8</ele>
        <time>2018-11-26T10:04:11Z</time>
      </trkpt>
      <trkpt lat="42.16579" lon="2.29284">
        <ele>1452.1</ele>
        <time>2018-11-26T10:04:12Z</time>
      </trkpt>
      <trkpt lat="42.1658" lon="2.29287">
        <ele>1451</ele>
        <time>2018-11-26T10:04:13Z</time>
      </trkpt>
      <trkpt lat="42.16582" lon="2.29289">
        <ele>1450.8</ele>
        <time>2018-11-26T10:04:14Z</time>
      </trkpt>
      <trkpt lat="42.16583" lon="2.29291">
        <ele>1449.8</ele>
        <time>2018-11-26T10:04:14Z</time>
      </trkpt>
      <trkpt lat="42.16585" lon="2.29292">
        <ele>1449</ele>
        <time>2018-11-26T10:04:15Z</time>
      </trkpt>
      <trkpt lat="42.16587" lon="2.29294">
        <ele>1448.1</ele>
        <time>2018-11-26T10:04:16Z</time>
      </trkpt>
      <trkpt lat="42.16588" lon="2.29297">
        <ele>1448</ele>
        <time>2018-11-26T10:04:17Z</time>
      </trkpt>
      <trkpt lat="42.16589" lon="2.29299">
        <ele>1448</ele>
        <time>2018-11-26T10:04:18Z</time>
      </trkpt>
      <trkpt lat="42.16589" lon="2.29302">
        <ele>1448</ele>
        <time>2018-11-26T10:04:19Z</time>
      </trkpt>
      <trkpt lat="42.1659" lon="2.29305">
        <ele>1447.8</ele>
        <time>2018-11-26T10:04:19Z</time>
      </trkpt>
      <trkpt lat="42.16591" lon="2.29308">
        <ele>1447</ele>
        <time>2018-11-26T10:04:20Z</time>
      </trkpt>
      <trkpt lat="42.16591" lon="2.29311">
        <ele>1447</ele>
        <time>2018-11-26T10:04:21Z</time>
      </trkpt>
      <trkpt lat="42.16593" lon="2.29313">
        <ele>1447.1</ele>
        <time>2018-11-26T10:04:22Z</time>
      </trkpt>
      <trkpt lat="42.16595" lon="2.29314">
        <ele>1446.8</ele>
        <time>2018-11-26T10:04:23Z</time>
      </trkpt>
      <trkpt lat="42.16597" lon="2.29312">
        <ele>1446</ele>
        <time>2018-11-26T10:04:24Z</time>
      </trkpt>
      <trkpt lat="42.16598" lon="2.2931">
        <ele>1445.5</ele>
        <time>2018-11-26T10:04:25Z</time>
      </trkpt>
      <trkpt lat="42.166" lon="2.29309">
        <ele>1445.1</ele>
        <time>2018-11-26T10:04:26Z</time>
      </trkpt>
      <trkpt lat="42.16601" lon="2.29307">
        <ele>1445.1</ele>
        <time>2018-11-26T10:04:26Z</time>
      </trkpt>
      <trkpt lat="42.16602" lon="2.29304">
        <ele>1445</ele>
        <time>2018-11-26T10:04:27Z</time>
      </trkpt>
      <trkpt lat="42.16602" lon="2.29301">
        <ele>1444</ele>
        <time>2018-11-26T10:04:28Z</time>
      </trkpt>
      <trkpt lat="42.16603" lon="2.29298">
        <ele>1443</ele>
        <time>2018-11-26T10:04:29Z</time>
      </trkpt>
      <trkpt lat="42.16604" lon="2.29295">
        <ele>1443.1</ele>
        <time>2018-11-26T10:04:30Z</time>
      </trkpt>
      <trkpt lat="42.16606" lon="2.29293">
        <ele>1442.8</ele>
        <time>2018-11-26T10:04:31Z</time>
      </trkpt>
      <trkpt lat="42.16607" lon="2.2929">
        <ele>1442.1</ele>
        <time>2018-11-26T10:04:32Z</time>
      </trkpt>
      <trkpt lat="42.16607" lon="2.29288">
        <ele>1441</ele>
        <time>2018-11-26T10:04:33Z</time>
      </trkpt>
      <trkpt lat="42.16608" lon="2.29286">
        <ele>1440.8</ele>
        <time>2018-11-26T10:04:33Z</time>
      </trkpt>
      <trkpt lat="42.1661" lon="2.29285">
        <ele>1439.1</ele>
        <time>2018-11-26T10:04:34Z</time>
      </trkpt>
      <trkpt lat="42.16612" lon="2.29285">
        <ele>1439.1</ele>
        <time>2018-11-26T10:04:35Z</time>
      </trkpt>
      <trkpt lat="42.16614" lon="2.29285">
        <ele>1439.1</ele>
        <time>2018-11-26T10:04:36Z</time>
      </trkpt>
      <trkpt lat="42.16616" lon="2.29283">
        <ele>1438.9</ele>
        <time>2018-11-26T10:04:37Z</time>
      </trkpt>
      <trkpt lat="42.16617" lon="2.29281">
        <ele>1437.8</ele>
        <time>2018-11-26T10:04:38Z</time>
      </trkpt>
      <trkpt lat="42.16618" lon="2.29279">
        <ele>1437</ele>
        <time>2018-11-26T10:04:38Z</time>
      </trkpt>
      <trkpt lat="42.1662" lon="2.29277">
        <ele>1436</ele>
        <time>2018-11-26T10:04:39Z</time>
      </trkpt>
      <trkpt lat="42.16621" lon="2.29276">
        <ele>1435</ele>
        <time>2018-11-26T10:04:40Z</time>
      </trkpt>
      <trkpt lat="42.16623" lon="2.29276">
        <ele>1435.1</ele>
        <time>2018-11-26T10:04:41Z</time>
      </trkpt>
      <trkpt lat="42.16624" lon="2.29274">
        <ele>1434.9</ele>
        <time>2018-11-26T10:04:41Z</time>
      </trkpt>
      <trkpt lat="42.16627" lon="2.29272">
        <ele>1434.1</ele>
        <time>2018-11-26T10:04:42Z</time>
      </trkpt>
      <trkpt lat="42.16628" lon="2.2927">
        <ele>1433</ele>
        <time>2018-11-26T10:04:43Z</time>
      </trkpt>
      <trkpt lat="42.16631" lon="2.29267">
        <ele>1433</ele>
        <time>2018-11-26T10:04:45Z</time>
      </trkpt>
      <trkpt lat="42.16632" lon="2.29265">
        <ele>1433.1</ele>
        <time>2018-11-26T10:04:46Z</time>
      </trkpt>
      <trkpt lat="42.16634" lon="2.29263">
        <ele>1433.1</ele>
        <time>2018-11-26T10:04:46Z</time>
      </trkpt>
      <trkpt lat="42.16635" lon="2.29261">
        <ele>1431.1</ele>
        <time>2018-11-26T10:04:47Z</time>
      </trkpt>
      <trkpt lat="42.16637" lon="2.2926">
        <ele>1431</ele>
        <time>2018-11-26T10:04:48Z</time>
      </trkpt>
      <trkpt lat="42.16639" lon="2.2926">
        <ele>1431</ele>
        <time>2018-11-26T10:04:49Z</time>
      </trkpt>
      <trkpt lat="42.16641" lon="2.29259">
        <ele>1430.8</ele>
        <time>2018-11-26T10:04:50Z</time>
      </trkpt>
      <trkpt lat="42.16642" lon="2.29257">
        <ele>1430</ele>
        <time>2018-11-26T10:04:50Z</time>
      </trkpt>
      <trkpt lat="42.16644" lon="2.29255">
        <ele>1430.1</ele>
        <time>2018-11-26T10:04:51Z</time>
      </trkpt>
      <trkpt lat="42.16645" lon="2.29256">
        <ele>1429.1</ele>
        <time>2018-11-26T10:04:52Z</time>
      </trkpt>
      <trkpt lat="42.16647" lon="2.29259">
        <ele>1428.1</ele>
        <time>2018-11-26T10:04:53Z</time>
      </trkpt>
      <trkpt lat="42.16647" lon="2.29262">
        <ele>1428.1</ele>
        <time>2018-11-26T10:04:54Z</time>
      </trkpt>
      <trkpt lat="42.16649" lon="2.29266">
        <ele>1427</ele>
        <time>2018-11-26T10:04:55Z</time>
      </trkpt>
      <trkpt lat="42.16651" lon="2.29267">
        <ele>1426.9</ele>
        <time>2018-11-26T10:04:56Z</time>
      </trkpt>
      <trkpt lat="42.16653" lon="2.29269">
        <ele>1426</ele>
        <time>2018-11-26T10:04:57Z</time>
      </trkpt>
      <trkpt lat="42.16655" lon="2.2927">
        <ele>1424.1</ele>
        <time>2018-11-26T10:04:58Z</time>
      </trkpt>
      <trkpt lat="42.16656" lon="2.29271">
        <ele>1423</ele>
        <time>2018-11-26T10:04:59Z</time>
      </trkpt>
      <trkpt lat="42.16658" lon="2.29269">
        <ele>1423</ele>
        <time>2018-11-26T10:04:59Z</time>
      </trkpt>
      <trkpt lat="42.1666" lon="2.29269">
        <ele>1422</ele>
        <time>2018-11-26T10:05:00Z</time>
      </trkpt>
      <trkpt lat="42.16662" lon="2.29268">
        <ele>1422</ele>
        <time>2018-11-26T10:05:01Z</time>
      </trkpt>
      <trkpt lat="42.16663" lon="2.29265">
        <ele>1422.1</ele>
        <time>2018-11-26T10:05:02Z</time>
      </trkpt>
      <trkpt lat="42.16666" lon="2.29266">
        <ele>1418.9</ele>
        <time>2018-11-26T10:05:03Z</time>
      </trkpt>
      <trkpt lat="42.16664" lon="2.29267">
        <ele>1418.1</ele>
        <time>2018-11-26T10:05:04Z</time>
      </trkpt>
      <trkpt lat="42.1666" lon="2.29271">
        <ele>1417.1</ele>
        <time>2018-11-26T10:05:06Z</time>
      </trkpt>
      <trkpt lat="42.16662" lon="2.2927">
        <ele>1417.1</ele>
        <time>2018-11-26T10:05:06Z</time>
      </trkpt>
      <trkpt lat="42.16669" lon="2.29274">
        <ele>1416.7</ele>
        <time>2018-11-26T10:05:09Z</time>
      </trkpt>
      <trkpt lat="42.16677" lon="2.29276">
        <ele>1415.8</ele>
        <time>2018-11-26T10:05:13Z</time>
      </trkpt>
      <trkpt lat="42.16678" lon="2.29277">
        <ele>1415</ele>
        <time>2018-11-26T10:05:13Z</time>
      </trkpt>
      <trkpt lat="42.16681" lon="2.29277">
        <ele>1413</ele>
        <time>2018-11-26T10:05:14Z</time>
      </trkpt>
      <trkpt lat="42.16683" lon="2.29278">
        <ele>1413</ele>
        <time>2018-11-26T10:05:15Z</time>
      </trkpt>
      <trkpt lat="42.16685" lon="2.29277">
        <ele>1412.8</ele>
        <time>2018-11-26T10:05:16Z</time>
      </trkpt>
      <trkpt lat="42.1669" lon="2.29276">
        <ele>1412</ele>
        <time>2018-11-26T10:05:18Z</time>
      </trkpt>
      <trkpt lat="42.16692" lon="2.29276">
        <ele>1411.1</ele>
        <time>2018-11-26T10:05:19Z</time>
      </trkpt>
      <trkpt lat="42.16694" lon="2.29276">
        <ele>1411</ele>
        <time>2018-11-26T10:05:20Z</time>
      </trkpt>
      <trkpt lat="42.16696" lon="2.29275">
        <ele>1410.7</ele>
        <time>2018-11-26T10:05:20Z</time>
      </trkpt>
      <trkpt lat="42.16697" lon="2.29272">
        <ele>1410.1</ele>
        <time>2018-11-26T10:05:21Z</time>
      </trkpt>
      <trkpt lat="42.16698" lon="2.29271">
        <ele>1410.1</ele>
        <time>2018-11-26T10:05:22Z</time>
      </trkpt>
      <trkpt lat="42.16701" lon="2.2927">
        <ele>1410</ele>
        <time>2018-11-26T10:05:23Z</time>
      </trkpt>
      <trkpt lat="42.16704" lon="2.29267">
        <ele>1410.1</ele>
        <time>2018-11-26T10:05:25Z</time>
      </trkpt>
      <trkpt lat="42.16705" lon="2.29264">
        <ele>1411.1</ele>
        <time>2018-11-26T10:05:25Z</time>
      </trkpt>
      <trkpt lat="42.16703" lon="2.29262">
        <ele>1412.1</ele>
        <time>2018-11-26T10:05:26Z</time>
      </trkpt>
      <trkpt lat="42.16702" lon="2.29265">
        <ele>1412.1</ele>
        <time>2018-11-26T10:05:27Z</time>
      </trkpt>
      <trkpt lat="42.16704" lon="2.29264">
        <ele>1413</ele>
        <time>2018-11-26T10:05:28Z</time>
      </trkpt>
      <trkpt lat="42.16703" lon="2.29261">
        <ele>1413</ele>
        <time>2018-11-26T10:05:29Z</time>
      </trkpt>
      <trkpt lat="42.16703" lon="2.29259">
        <ele>1413.1</ele>
        <time>2018-11-26T10:05:30Z</time>
      </trkpt>
      <trkpt lat="42.16704" lon="2.29257">
        <ele>1413.1</ele>
        <time>2018-11-26T10:05:30Z</time>
      </trkpt>
      <trkpt lat="42.16705" lon="2.29253">
        <ele>1413.1</ele>
        <time>2018-11-26T10:05:32Z</time>
      </trkpt>
      <trkpt lat="42.16706" lon="2.29252">
        <ele>1413.1</ele>
        <time>2018-11-26T10:05:32Z</time>
      </trkpt>
      <trkpt lat="42.16708" lon="2.2925">
        <ele>1412.1</ele>
        <time>2018-11-26T10:05:33Z</time>
      </trkpt>
      <trkpt lat="42.1671" lon="2.29248">
        <ele>1412</ele>
        <time>2018-11-26T10:05:34Z</time>
      </trkpt>
      <trkpt lat="42.16711" lon="2.29247">
        <ele>1412.1</ele>
        <time>2018-11-26T10:05:35Z</time>
      </trkpt>
      <trkpt lat="42.16713" lon="2.29245">
        <ele>1412</ele>
        <time>2018-11-26T10:05:36Z</time>
      </trkpt>
      <trkpt lat="42.16713" lon="2.29242">
        <ele>1409</ele>
        <time>2018-11-26T10:05:37Z</time>
      </trkpt>
      <trkpt lat="42.16715" lon="2.29244">
        <ele>1408</ele>
        <time>2018-11-26T10:05:38Z</time>
      </trkpt>
      <trkpt lat="42.16715" lon="2.29246">
        <ele>1408</ele>
        <time>2018-11-26T10:05:38Z</time>
      </trkpt>
      <trkpt lat="42.16714" lon="2.29249">
        <ele>1408.1</ele>
        <time>2018-11-26T10:05:39Z</time>
      </trkpt>
      <trkpt lat="42.16713" lon="2.29252">
        <ele>1408.1</ele>
        <time>2018-11-26T10:05:40Z</time>
      </trkpt>
      <trkpt lat="42.16712" lon="2.29256">
        <ele>1408</ele>
        <time>2018-11-26T10:05:41Z</time>
      </trkpt>
      <trkpt lat="42.16711" lon="2.29259">
        <ele>1408</ele>
        <time>2018-11-26T10:05:42Z</time>
      </trkpt>
      <trkpt lat="42.16711" lon="2.29261">
        <ele>1408</ele>
        <time>2018-11-26T10:05:43Z</time>
      </trkpt>
      <trkpt lat="42.16709" lon="2.29264">
        <ele>1407.1</ele>
        <time>2018-11-26T10:05:44Z</time>
      </trkpt>
      <trkpt lat="42.16709" lon="2.29262">
        <ele>1407</ele>
        <time>2018-11-26T10:05:45Z</time>
      </trkpt>
      <trkpt lat="42.1671" lon="2.29259">
        <ele>1407.1</ele>
        <time>2018-11-26T10:05:46Z</time>
      </trkpt>
      <trkpt lat="42.16708" lon="2.29261">
        <ele>1407</ele>
        <time>2018-11-26T10:05:47Z</time>
      </trkpt>
      <trkpt lat="42.16707" lon="2.29264">
        <ele>1407</ele>
        <time>2018-11-26T10:05:48Z</time>
      </trkpt>
      <trkpt lat="42.16708" lon="2.29262">
        <ele>1408</ele>
        <time>2018-11-26T10:05:49Z</time>
      </trkpt>
      <trkpt lat="42.1671" lon="2.29261">
        <ele>1409</ele>
        <time>2018-11-26T10:05:49Z</time>
      </trkpt>
      <trkpt lat="42.16712" lon="2.2926">
        <ele>1408.7</ele>
        <time>2018-11-26T10:05:50Z</time>
      </trkpt>
      <trkpt lat="42.16714" lon="2.29259">
        <ele>1407</ele>
        <time>2018-11-26T10:05:51Z</time>
      </trkpt>
      <trkpt lat="42.16715" lon="2.29258">
        <ele>1407.7</ele>
        <time>2018-11-26T10:05:52Z</time>
      </trkpt>
      <trkpt lat="42.16717" lon="2.29257">
        <ele>1406.1</ele>
        <time>2018-11-26T10:05:52Z</time>
      </trkpt>
      <trkpt lat="42.16719" lon="2.29255">
        <ele>1406.1</ele>
        <time>2018-11-26T10:05:53Z</time>
      </trkpt>
      <trkpt lat="42.16721" lon="2.29253">
        <ele>1405.8</ele>
        <time>2018-11-26T10:05:54Z</time>
      </trkpt>
      <trkpt lat="42.16723" lon="2.29253">
        <ele>1405.1</ele>
        <time>2018-11-26T10:05:55Z</time>
      </trkpt>
      <trkpt lat="42.16725" lon="2.29252">
        <ele>1404</ele>
        <time>2018-11-26T10:05:56Z</time>
      </trkpt>
      <trkpt lat="42.16727" lon="2.29252">
        <ele>1404.1</ele>
        <time>2018-11-26T10:05:57Z</time>
      </trkpt>
      <trkpt lat="42.16729" lon="2.29252">
        <ele>1404</ele>
        <time>2018-11-26T10:05:58Z</time>
      </trkpt>
      <trkpt lat="42.16731" lon="2.29252">
        <ele>1404</ele>
        <time>2018-11-26T10:05:58Z</time>
      </trkpt>
      <trkpt lat="42.16734" lon="2.29251">
        <ele>1404.1</ele>
        <time>2018-11-26T10:05:59Z</time>
      </trkpt>
      <trkpt lat="42.16736" lon="2.29251">
        <ele>1405.1</ele>
        <time>2018-11-26T10:06:00Z</time>
      </trkpt>
      <trkpt lat="42.16738" lon="2.29251">
        <ele>1404.1</ele>
        <time>2018-11-26T10:06:01Z</time>
      </trkpt>
      <trkpt lat="42.1674" lon="2.29251">
        <ele>1403.7</ele>
        <time>2018-11-26T10:06:02Z</time>
      </trkpt>
      <trkpt lat="42.16742" lon="2.29253">
        <ele>1403.1</ele>
        <time>2018-11-26T10:06:03Z</time>
      </trkpt>
      <trkpt lat="42.16743" lon="2.29256">
        <ele>1403.1</ele>
        <time>2018-11-26T10:06:04Z</time>
      </trkpt>
      <trkpt lat="42.16744" lon="2.29259">
        <ele>1402</ele>
        <time>2018-11-26T10:06:05Z</time>
      </trkpt>
      <trkpt lat="42.16745" lon="2.29261">
        <ele>1401.2</ele>
        <time>2018-11-26T10:06:06Z</time>
      </trkpt>
      <trkpt lat="42.16745" lon="2.29264">
        <ele>1400</ele>
        <time>2018-11-26T10:06:06Z</time>
      </trkpt>
      <trkpt lat="42.16745" lon="2.29266">
        <ele>1400</ele>
        <time>2018-11-26T10:06:07Z</time>
      </trkpt>
      <trkpt lat="42.16746" lon="2.29268">
        <ele>1399.1</ele>
        <time>2018-11-26T10:06:08Z</time>
      </trkpt>
      <trkpt lat="42.16747" lon="2.2927">
        <ele>1398</ele>
        <time>2018-11-26T10:06:09Z</time>
      </trkpt>
      <trkpt lat="42.1675" lon="2.29269">
        <ele>1398</ele>
        <time>2018-11-26T10:06:10Z</time>
      </trkpt>
      <trkpt lat="42.16752" lon="2.29269">
        <ele>1397</ele>
        <time>2018-11-26T10:06:11Z</time>
      </trkpt>
      <trkpt lat="42.16754" lon="2.2927">
        <ele>1396.1</ele>
        <time>2018-11-26T10:06:11Z</time>
      </trkpt>
      <trkpt lat="42.16756" lon="2.29271">
        <ele>1395</ele>
        <time>2018-11-26T10:06:12Z</time>
      </trkpt>
      <trkpt lat="42.16758" lon="2.29271">
        <ele>1395</ele>
        <time>2018-11-26T10:06:13Z</time>
      </trkpt>
      <trkpt lat="42.1676" lon="2.29271">
        <ele>1395.3</ele>
        <time>2018-11-26T10:06:14Z</time>
      </trkpt>
      <trkpt lat="42.16762" lon="2.29271">
        <ele>1396</ele>
        <time>2018-11-26T10:06:15Z</time>
      </trkpt>
      <trkpt lat="42.16765" lon="2.2927">
        <ele>1394</ele>
        <time>2018-11-26T10:06:16Z</time>
      </trkpt>
      <trkpt lat="42.16767" lon="2.2927">
        <ele>1393.1</ele>
        <time>2018-11-26T10:06:17Z</time>
      </trkpt>
      <trkpt lat="42.16769" lon="2.29269">
        <ele>1393.1</ele>
        <time>2018-11-26T10:06:18Z</time>
      </trkpt>
      <trkpt lat="42.16772" lon="2.29269">
        <ele>1392.1</ele>
        <time>2018-11-26T10:06:19Z</time>
      </trkpt>
      <trkpt lat="42.16774" lon="2.29269">
        <ele>1392</ele>
        <time>2018-11-26T10:06:19Z</time>
      </trkpt>
      <trkpt lat="42.16776" lon="2.2927">
        <ele>1391</ele>
        <time>2018-11-26T10:06:20Z</time>
      </trkpt>
      <trkpt lat="42.16778" lon="2.29271">
        <ele>1391</ele>
        <time>2018-11-26T10:06:21Z</time>
      </trkpt>
      <trkpt lat="42.16781" lon="2.29272">
        <ele>1391.1</ele>
        <time>2018-11-26T10:06:23Z</time>
      </trkpt>
      <trkpt lat="42.16783" lon="2.29271">
        <ele>1391.1</ele>
        <time>2018-11-26T10:06:23Z</time>
      </trkpt>
      <trkpt lat="42.16785" lon="2.29271">
        <ele>1390</ele>
        <time>2018-11-26T10:06:24Z</time>
      </trkpt>
      <trkpt lat="42.16787" lon="2.29272">
        <ele>1389.9</ele>
        <time>2018-11-26T10:06:25Z</time>
      </trkpt>
      <trkpt lat="42.16788" lon="2.29275">
        <ele>1389</ele>
        <time>2018-11-26T10:06:26Z</time>
      </trkpt>
      <trkpt lat="42.16788" lon="2.29278">
        <ele>1389.1</ele>
        <time>2018-11-26T10:06:27Z</time>
      </trkpt>
      <trkpt lat="42.1679" lon="2.29278">
        <ele>1388</ele>
        <time>2018-11-26T10:06:28Z</time>
      </trkpt>
      <trkpt lat="42.16792" lon="2.29276">
        <ele>1386.7</ele>
        <time>2018-11-26T10:06:28Z</time>
      </trkpt>
      <trkpt lat="42.16793" lon="2.29275">
        <ele>1386</ele>
        <time>2018-11-26T10:06:29Z</time>
      </trkpt>
      <trkpt lat="42.16795" lon="2.29273">
        <ele>1386</ele>
        <time>2018-11-26T10:06:30Z</time>
      </trkpt>
      <trkpt lat="42.16797" lon="2.29271">
        <ele>1386</ele>
        <time>2018-11-26T10:06:31Z</time>
      </trkpt>
      <trkpt lat="42.16799" lon="2.2927">
        <ele>1385</ele>
        <time>2018-11-26T10:06:32Z</time>
      </trkpt>
      <trkpt lat="42.168" lon="2.29268">
        <ele>1384.1</ele>
        <time>2018-11-26T10:06:33Z</time>
      </trkpt>
      <trkpt lat="42.16802" lon="2.29266">
        <ele>1384.1</ele>
        <time>2018-11-26T10:06:34Z</time>
      </trkpt>
      <trkpt lat="42.16804" lon="2.29265">
        <ele>1383.1</ele>
        <time>2018-11-26T10:06:34Z</time>
      </trkpt>
      <trkpt lat="42.16805" lon="2.29263">
        <ele>1383</ele>
        <time>2018-11-26T10:06:35Z</time>
      </trkpt>
      <trkpt lat="42.16807" lon="2.29261">
        <ele>1382.1</ele>
        <time>2018-11-26T10:06:36Z</time>
      </trkpt>
      <trkpt lat="42.16808" lon="2.29258">
        <ele>1381.1</ele>
        <time>2018-11-26T10:06:37Z</time>
      </trkpt>
      <trkpt lat="42.1681" lon="2.29257">
        <ele>1380.8</ele>
        <time>2018-11-26T10:06:38Z</time>
      </trkpt>
      <trkpt lat="42.16812" lon="2.29258">
        <ele>1379.1</ele>
        <time>2018-11-26T10:06:39Z</time>
      </trkpt>
      <trkpt lat="42.16813" lon="2.29256">
        <ele>1379</ele>
        <time>2018-11-26T10:06:39Z</time>
      </trkpt>
      <trkpt lat="42.16814" lon="2.29254">
        <ele>1378</ele>
        <time>2018-11-26T10:06:40Z</time>
      </trkpt>
      <trkpt lat="42.16816" lon="2.29253">
        <ele>1377</ele>
        <time>2018-11-26T10:06:41Z</time>
      </trkpt>
      <trkpt lat="42.16818" lon="2.29251">
        <ele>1377</ele>
        <time>2018-11-26T10:06:42Z</time>
      </trkpt>
      <trkpt lat="42.16822" lon="2.29248">
        <ele>1376.8</ele>
        <time>2018-11-26T10:06:44Z</time>
      </trkpt>
      <trkpt lat="42.16825" lon="2.29248">
        <ele>1375.9</ele>
        <time>2018-11-26T10:06:45Z</time>
      </trkpt>
      <trkpt lat="42.16827" lon="2.29249">
        <ele>1374.1</ele>
        <time>2018-11-26T10:06:46Z</time>
      </trkpt>
      <trkpt lat="42.16829" lon="2.29248">
        <ele>1374</ele>
        <time>2018-11-26T10:06:47Z</time>
      </trkpt>
      <trkpt lat="42.1683" lon="2.29245">
        <ele>1374.1</ele>
        <time>2018-11-26T10:06:48Z</time>
      </trkpt>
      <trkpt lat="42.16832" lon="2.29243">
        <ele>1374</ele>
        <time>2018-11-26T10:06:49Z</time>
      </trkpt>
      <trkpt lat="42.16834" lon="2.29243">
        <ele>1374.1</ele>
        <time>2018-11-26T10:06:50Z</time>
      </trkpt>
      <trkpt lat="42.16836" lon="2.29242">
        <ele>1374.1</ele>
        <time>2018-11-26T10:06:50Z</time>
      </trkpt>
      <trkpt lat="42.16838" lon="2.2924">
        <ele>1374.1</ele>
        <time>2018-11-26T10:06:51Z</time>
      </trkpt>
      <trkpt lat="42.1684" lon="2.29238">
        <ele>1373</ele>
        <time>2018-11-26T10:06:52Z</time>
      </trkpt>
      <trkpt lat="42.16842" lon="2.29236">
        <ele>1373</ele>
        <time>2018-11-26T10:06:53Z</time>
      </trkpt>
      <trkpt lat="42.16845" lon="2.29235">
        <ele>1372.1</ele>
        <time>2018-11-26T10:06:54Z</time>
      </trkpt>
      <trkpt lat="42.16847" lon="2.29234">
        <ele>1371.8</ele>
        <time>2018-11-26T10:06:55Z</time>
      </trkpt>
      <trkpt lat="42.16849" lon="2.29234">
        <ele>1371.1</ele>
        <time>2018-11-26T10:06:56Z</time>
      </trkpt>
      <trkpt lat="42.16851" lon="2.29234">
        <ele>1370</ele>
        <time>2018-11-26T10:06:57Z</time>
      </trkpt>
      <trkpt lat="42.16853" lon="2.29233">
        <ele>1369.8</ele>
        <time>2018-11-26T10:06:58Z</time>
      </trkpt>
      <trkpt lat="42.16855" lon="2.29232">
        <ele>1368.1</ele>
        <time>2018-11-26T10:06:59Z</time>
      </trkpt>
      <trkpt lat="42.16857" lon="2.29232">
        <ele>1368.1</ele>
        <time>2018-11-26T10:06:59Z</time>
      </trkpt>
      <trkpt lat="42.16859" lon="2.29231">
        <ele>1367.9</ele>
        <time>2018-11-26T10:07:00Z</time>
      </trkpt>
      <trkpt lat="42.16861" lon="2.29231">
        <ele>1366.8</ele>
        <time>2018-11-26T10:07:01Z</time>
      </trkpt>
      <trkpt lat="42.16864" lon="2.29231">
        <ele>1366.1</ele>
        <time>2018-11-26T10:07:02Z</time>
      </trkpt>
      <trkpt lat="42.16866" lon="2.29232">
        <ele>1365</ele>
        <time>2018-11-26T10:07:03Z</time>
      </trkpt>
      <trkpt lat="42.16868" lon="2.29231">
        <ele>1365</ele>
        <time>2018-11-26T10:07:04Z</time>
      </trkpt>
      <trkpt lat="42.1687" lon="2.29229">
        <ele>1365.1</ele>
        <time>2018-11-26T10:07:05Z</time>
      </trkpt>
      <trkpt lat="42.16872" lon="2.29229">
        <ele>1365.1</ele>
        <time>2018-11-26T10:07:06Z</time>
      </trkpt>
      <trkpt lat="42.16874" lon="2.29228">
        <ele>1364.1</ele>
        <time>2018-11-26T10:07:06Z</time>
      </trkpt>
      <trkpt lat="42.16876" lon="2.29227">
        <ele>1364</ele>
        <time>2018-11-26T10:07:07Z</time>
      </trkpt>
      <trkpt lat="42.16878" lon="2.29227">
        <ele>1364</ele>
        <time>2018-11-26T10:07:08Z</time>
      </trkpt>
      <trkpt lat="42.1688" lon="2.29226">
        <ele>1364</ele>
        <time>2018-11-26T10:07:09Z</time>
      </trkpt>
      <trkpt lat="42.16882" lon="2.29227">
        <ele>1363.1</ele>
        <time>2018-11-26T10:07:10Z</time>
      </trkpt>
      <trkpt lat="42.16884" lon="2.29226">
        <ele>1362.6</ele>
        <time>2018-11-26T10:07:11Z</time>
      </trkpt>
      <trkpt lat="42.16886" lon="2.29226">
        <ele>1362</ele>
        <time>2018-11-26T10:07:11Z</time>
      </trkpt>
      <trkpt lat="42.16889" lon="2.29226">
        <ele>1362</ele>
        <time>2018-11-26T10:07:13Z</time>
      </trkpt>
      <trkpt lat="42.16892" lon="2.29225">
        <ele>1361</ele>
        <time>2018-11-26T10:07:14Z</time>
      </trkpt>
      <trkpt lat="42.16895" lon="2.29225">
        <ele>1360.7</ele>
        <time>2018-11-26T10:07:15Z</time>
      </trkpt>
      <trkpt lat="42.16897" lon="2.29224">
        <ele>1359.8</ele>
        <time>2018-11-26T10:07:16Z</time>
      </trkpt>
      <trkpt lat="42.169" lon="2.29223">
        <ele>1359</ele>
        <time>2018-11-26T10:07:17Z</time>
      </trkpt>
      <trkpt lat="42.16902" lon="2.29223">
        <ele>1359.1</ele>
        <time>2018-11-26T10:07:18Z</time>
      </trkpt>
      <trkpt lat="42.16904" lon="2.29223">
        <ele>1359</ele>
        <time>2018-11-26T10:07:19Z</time>
      </trkpt>
      <trkpt lat="42.16907" lon="2.29222">
        <ele>1359.1</ele>
        <time>2018-11-26T10:07:20Z</time>
      </trkpt>
      <trkpt lat="42.16909" lon="2.29222">
        <ele>1358.1</ele>
        <time>2018-11-26T10:07:21Z</time>
      </trkpt>
      <trkpt lat="42.16912" lon="2.29222">
        <ele>1357.1</ele>
        <time>2018-11-26T10:07:22Z</time>
      </trkpt>
      <trkpt lat="42.16914" lon="2.29222">
        <ele>1356.8</ele>
        <time>2018-11-26T10:07:23Z</time>
      </trkpt>
      <trkpt lat="42.16916" lon="2.29222">
        <ele>1355.8</ele>
        <time>2018-11-26T10:07:24Z</time>
      </trkpt>
      <trkpt lat="42.16918" lon="2.29221">
        <ele>1355</ele>
        <time>2018-11-26T10:07:24Z</time>
      </trkpt>
      <trkpt lat="42.1692" lon="2.29222">
        <ele>1355</ele>
        <time>2018-11-26T10:07:25Z</time>
      </trkpt>
      <trkpt lat="42.16922" lon="2.29223">
        <ele>1354.8</ele>
        <time>2018-11-26T10:07:26Z</time>
      </trkpt>
      <trkpt lat="42.16924" lon="2.29223">
        <ele>1353.8</ele>
        <time>2018-11-26T10:07:27Z</time>
      </trkpt>
      <trkpt lat="42.16926" lon="2.29223">
        <ele>1352.1</ele>
        <time>2018-11-26T10:07:28Z</time>
      </trkpt>
      <trkpt lat="42.16928" lon="2.29224">
        <ele>1352.1</ele>
        <time>2018-11-26T10:07:28Z</time>
      </trkpt>
      <trkpt lat="42.1693" lon="2.29224">
        <ele>1352</ele>
        <time>2018-11-26T10:07:29Z</time>
      </trkpt>
      <trkpt lat="42.16933" lon="2.29223">
        <ele>1352</ele>
        <time>2018-11-26T10:07:30Z</time>
      </trkpt>
      <trkpt lat="42.16936" lon="2.29222">
        <ele>1352</ele>
        <time>2018-11-26T10:07:32Z</time>
      </trkpt>
      <trkpt lat="42.16938" lon="2.2922">
        <ele>1352</ele>
        <time>2018-11-26T10:07:33Z</time>
      </trkpt>
      <trkpt lat="42.1694" lon="2.29219">
        <ele>1352.1</ele>
        <time>2018-11-26T10:07:34Z</time>
      </trkpt>
      <trkpt lat="42.16942" lon="2.29218">
        <ele>1351.9</ele>
        <time>2018-11-26T10:07:35Z</time>
      </trkpt>
      <trkpt lat="42.16944" lon="2.29217">
        <ele>1351.2</ele>
        <time>2018-11-26T10:07:36Z</time>
      </trkpt>
      <trkpt lat="42.16947" lon="2.29217">
        <ele>1352</ele>
        <time>2018-11-26T10:07:36Z</time>
      </trkpt>
      <trkpt lat="42.1695" lon="2.29216">
        <ele>1351</ele>
        <time>2018-11-26T10:07:38Z</time>
      </trkpt>
      <trkpt lat="42.16952" lon="2.29216">
        <ele>1350.8</ele>
        <time>2018-11-26T10:07:38Z</time>
      </trkpt>
      <trkpt lat="42.16954" lon="2.29217">
        <ele>1350.1</ele>
        <time>2018-11-26T10:07:39Z</time>
      </trkpt>
      <trkpt lat="42.16956" lon="2.29216">
        <ele>1350.1</ele>
        <time>2018-11-26T10:07:40Z</time>
      </trkpt>
      <trkpt lat="42.16958" lon="2.29216">
        <ele>1350.1</ele>
        <time>2018-11-26T10:07:41Z</time>
      </trkpt>
      <trkpt lat="42.1696" lon="2.29215">
        <ele>1350.1</ele>
        <time>2018-11-26T10:07:42Z</time>
      </trkpt>
      <trkpt lat="42.16962" lon="2.29214">
        <ele>1350.1</ele>
        <time>2018-11-26T10:07:43Z</time>
      </trkpt>
      <trkpt lat="42.16965" lon="2.29214">
        <ele>1349.1</ele>
        <time>2018-11-26T10:07:44Z</time>
      </trkpt>
      <trkpt lat="42.16967" lon="2.29213">
        <ele>1348.1</ele>
        <time>2018-11-26T10:07:45Z</time>
      </trkpt>
      <trkpt lat="42.1697" lon="2.29213">
        <ele>1348.1</ele>
        <time>2018-11-26T10:07:46Z</time>
      </trkpt>
      <trkpt lat="42.16973" lon="2.29212">
        <ele>1348</ele>
        <time>2018-11-26T10:07:47Z</time>
      </trkpt>
      <trkpt lat="42.16977" lon="2.29211">
        <ele>1348</ele>
        <time>2018-11-26T10:07:49Z</time>
      </trkpt>
      <trkpt lat="42.16979" lon="2.2921">
        <ele>1348</ele>
        <time>2018-11-26T10:07:50Z</time>
      </trkpt>
      <trkpt lat="42.16981" lon="2.2921">
        <ele>1347.1</ele>
        <time>2018-11-26T10:07:50Z</time>
      </trkpt>
      <trkpt lat="42.16983" lon="2.2921">
        <ele>1346.1</ele>
        <time>2018-11-26T10:07:51Z</time>
      </trkpt>
      <trkpt lat="42.16986" lon="2.29209">
        <ele>1346.1</ele>
        <time>2018-11-26T10:07:52Z</time>
      </trkpt>
      <trkpt lat="42.16988" lon="2.29208">
        <ele>1346.1</ele>
        <time>2018-11-26T10:07:53Z</time>
      </trkpt>
      <trkpt lat="42.1699" lon="2.29207">
        <ele>1345.9</ele>
        <time>2018-11-26T10:07:54Z</time>
      </trkpt>
      <trkpt lat="42.16993" lon="2.29207">
        <ele>1345.1</ele>
        <time>2018-11-26T10:07:55Z</time>
      </trkpt>
      <trkpt lat="42.16995" lon="2.29206">
        <ele>1345.1</ele>
        <time>2018-11-26T10:07:56Z</time>
      </trkpt>
      <trkpt lat="42.16997" lon="2.29206">
        <ele>1345</ele>
        <time>2018-11-26T10:07:57Z</time>
      </trkpt>
      <trkpt lat="42.16999" lon="2.29204">
        <ele>1345</ele>
        <time>2018-11-26T10:07:58Z</time>
      </trkpt>
      <trkpt lat="42.17002" lon="2.29203">
        <ele>1345.1</ele>
        <time>2018-11-26T10:07:59Z</time>
      </trkpt>
      <trkpt lat="42.17004" lon="2.29202">
        <ele>1345</ele>
        <time>2018-11-26T10:08:00Z</time>
      </trkpt>
      <trkpt lat="42.17007" lon="2.29201">
        <ele>1345</ele>
        <time>2018-11-26T10:08:01Z</time>
      </trkpt>
      <trkpt lat="42.17009" lon="2.292">
        <ele>1345</ele>
        <time>2018-11-26T10:08:02Z</time>
      </trkpt>
      <trkpt lat="42.17013" lon="2.29199">
        <ele>1345.1</ele>
        <time>2018-11-26T10:08:04Z</time>
      </trkpt>
      <trkpt lat="42.17016" lon="2.29197">
        <ele>1345.1</ele>
        <time>2018-11-26T10:08:05Z</time>
      </trkpt>
      <trkpt lat="42.17019" lon="2.29196">
        <ele>1344.1</ele>
        <time>2018-11-26T10:08:06Z</time>
      </trkpt>
      <trkpt lat="42.17022" lon="2.29196">
        <ele>1344</ele>
        <time>2018-11-26T10:08:08Z</time>
      </trkpt>
      <trkpt lat="42.17025" lon="2.29194">
        <ele>1344.1</ele>
        <time>2018-11-26T10:08:09Z</time>
      </trkpt>
      <trkpt lat="42.17028" lon="2.29194">
        <ele>1344.1</ele>
        <time>2018-11-26T10:08:10Z</time>
      </trkpt>
      <trkpt lat="42.17031" lon="2.29194">
        <ele>1344</ele>
        <time>2018-11-26T10:08:11Z</time>
      </trkpt>
      <trkpt lat="42.17033" lon="2.29194">
        <ele>1344.1</ele>
        <time>2018-11-26T10:08:12Z</time>
      </trkpt>
      <trkpt lat="42.17036" lon="2.29194">
        <ele>1344.1</ele>
        <time>2018-11-26T10:08:13Z</time>
      </trkpt>
      <trkpt lat="42.17038" lon="2.29193">
        <ele>1344</ele>
        <time>2018-11-26T10:08:14Z</time>
      </trkpt>
      <trkpt lat="42.1704" lon="2.29193">
        <ele>1343</ele>
        <time>2018-11-26T10:08:15Z</time>
      </trkpt>
      <trkpt lat="42.17042" lon="2.29193">
        <ele>1343</ele>
        <time>2018-11-26T10:08:16Z</time>
      </trkpt>
      <trkpt lat="42.17045" lon="2.29193">
        <ele>1343.1</ele>
        <time>2018-11-26T10:08:17Z</time>
      </trkpt>
      <trkpt lat="42.17048" lon="2.29192">
        <ele>1343.1</ele>
        <time>2018-11-26T10:08:18Z</time>
      </trkpt>
      <trkpt lat="42.17051" lon="2.29191">
        <ele>1343.1</ele>
        <time>2018-11-26T10:08:19Z</time>
      </trkpt>
      <trkpt lat="42.17053" lon="2.2919">
        <ele>1343</ele>
        <time>2018-11-26T10:08:20Z</time>
      </trkpt>
      <trkpt lat="42.17055" lon="2.29188">
        <ele>1342</ele>
        <time>2018-11-26T10:08:21Z</time>
      </trkpt>
      <trkpt lat="42.17058" lon="2.29187">
        <ele>1342</ele>
        <time>2018-11-26T10:08:22Z</time>
      </trkpt>
      <trkpt lat="42.17061" lon="2.29186">
        <ele>1342.1</ele>
        <time>2018-11-26T10:08:23Z</time>
      </trkpt>
      <trkpt lat="42.17063" lon="2.29185">
        <ele>1342.1</ele>
        <time>2018-11-26T10:08:24Z</time>
      </trkpt>
      <trkpt lat="42.17065" lon="2.29185">
        <ele>1342</ele>
        <time>2018-11-26T10:08:25Z</time>
      </trkpt>
      <trkpt lat="42.17068" lon="2.29185">
        <ele>1341.7</ele>
        <time>2018-11-26T10:08:26Z</time>
      </trkpt>
      <trkpt lat="42.1707" lon="2.29185">
        <ele>1341</ele>
        <time>2018-11-26T10:08:27Z</time>
      </trkpt>
      <trkpt lat="42.17073" lon="2.29185">
        <ele>1341</ele>
        <time>2018-11-26T10:08:28Z</time>
      </trkpt>
      <trkpt lat="42.17075" lon="2.29185">
        <ele>1341.1</ele>
        <time>2018-11-26T10:08:29Z</time>
      </trkpt>
      <trkpt lat="42.17078" lon="2.29185">
        <ele>1341</ele>
        <time>2018-11-26T10:08:30Z</time>
      </trkpt>
      <trkpt lat="42.1708" lon="2.29183">
        <ele>1341.1</ele>
        <time>2018-11-26T10:08:31Z</time>
      </trkpt>
      <trkpt lat="42.17082" lon="2.29182">
        <ele>1341.1</ele>
        <time>2018-11-26T10:08:32Z</time>
      </trkpt>
      <trkpt lat="42.17084" lon="2.2918">
        <ele>1341.1</ele>
        <time>2018-11-26T10:08:33Z</time>
      </trkpt>
      <trkpt lat="42.17086" lon="2.29179">
        <ele>1341</ele>
        <time>2018-11-26T10:08:34Z</time>
      </trkpt>
      <trkpt lat="42.17088" lon="2.29179">
        <ele>1341.1</ele>
        <time>2018-11-26T10:08:35Z</time>
      </trkpt>
      <trkpt lat="42.1709" lon="2.29177">
        <ele>1340</ele>
        <time>2018-11-26T10:08:36Z</time>
      </trkpt>
      <trkpt lat="42.17092" lon="2.29176">
        <ele>1339.8</ele>
        <time>2018-11-26T10:08:36Z</time>
      </trkpt>
      <trkpt lat="42.17094" lon="2.29175">
        <ele>1339</ele>
        <time>2018-11-26T10:08:37Z</time>
      </trkpt>
      <trkpt lat="42.17096" lon="2.29174">
        <ele>1339</ele>
        <time>2018-11-26T10:08:38Z</time>
      </trkpt>
      <trkpt lat="42.17098" lon="2.29174">
        <ele>1339.1</ele>
        <time>2018-11-26T10:08:39Z</time>
      </trkpt>
      <trkpt lat="42.171" lon="2.29174">
        <ele>1339.1</ele>
        <time>2018-11-26T10:08:40Z</time>
      </trkpt>
      <trkpt lat="42.17101" lon="2.29174">
        <ele>1338</ele>
        <time>2018-11-26T10:08:41Z</time>
      </trkpt>
      <trkpt lat="42.17103" lon="2.29173">
        <ele>1338</ele>
        <time>2018-11-26T10:08:41Z</time>
      </trkpt>
      <trkpt lat="42.17105" lon="2.29172">
        <ele>1338.1</ele>
        <time>2018-11-26T10:08:42Z</time>
      </trkpt>
      <trkpt lat="42.17108" lon="2.29173">
        <ele>1338.1</ele>
        <time>2018-11-26T10:08:43Z</time>
      </trkpt>
      <trkpt lat="42.17109" lon="2.29175">
        <ele>1338.1</ele>
        <time>2018-11-26T10:08:44Z</time>
      </trkpt>
      <trkpt lat="42.1711" lon="2.29177">
        <ele>1337.9</ele>
        <time>2018-11-26T10:08:45Z</time>
      </trkpt>
      <trkpt lat="42.17112" lon="2.29177">
        <ele>1336.1</ele>
        <time>2018-11-26T10:08:45Z</time>
      </trkpt>
      <trkpt lat="42.17114" lon="2.29176">
        <ele>1337.1</ele>
        <time>2018-11-26T10:08:46Z</time>
      </trkpt>
      <trkpt lat="42.17116" lon="2.29177">
        <ele>1336</ele>
        <time>2018-11-26T10:08:47Z</time>
      </trkpt>
      <trkpt lat="42.17118" lon="2.29177">
        <ele>1336</ele>
        <time>2018-11-26T10:08:48Z</time>
      </trkpt>
      <trkpt lat="42.1712" lon="2.29176">
        <ele>1336</ele>
        <time>2018-11-26T10:08:49Z</time>
      </trkpt>
      <trkpt lat="42.17123" lon="2.29175">
        <ele>1335</ele>
        <time>2018-11-26T10:08:50Z</time>
      </trkpt>
      <trkpt lat="42.17125" lon="2.29176">
        <ele>1335.1</ele>
        <time>2018-11-26T10:08:51Z</time>
      </trkpt>
      <trkpt lat="42.17127" lon="2.29176">
        <ele>1334.1</ele>
        <time>2018-11-26T10:08:52Z</time>
      </trkpt>
      <trkpt lat="42.17129" lon="2.29175">
        <ele>1334.1</ele>
        <time>2018-11-26T10:08:52Z</time>
      </trkpt>
      <trkpt lat="42.17131" lon="2.29174">
        <ele>1334.1</ele>
        <time>2018-11-26T10:08:53Z</time>
      </trkpt>
      <trkpt lat="42.17134" lon="2.29174">
        <ele>1334</ele>
        <time>2018-11-26T10:08:54Z</time>
      </trkpt>
      <trkpt lat="42.17136" lon="2.29174">
        <ele>1334.1</ele>
        <time>2018-11-26T10:08:55Z</time>
      </trkpt>
      <trkpt lat="42.17138" lon="2.29174">
        <ele>1333.1</ele>
        <time>2018-11-26T10:08:56Z</time>
      </trkpt>
      <trkpt lat="42.1714" lon="2.29173">
        <ele>1333</ele>
        <time>2018-11-26T10:08:57Z</time>
      </trkpt>
      <trkpt lat="42.17142" lon="2.29172">
        <ele>1333</ele>
        <time>2018-11-26T10:08:58Z</time>
      </trkpt>
      <trkpt lat="42.17144" lon="2.29174">
        <ele>1332</ele>
        <time>2018-11-26T10:08:58Z</time>
      </trkpt>
      <trkpt lat="42.17146" lon="2.29175">
        <ele>1332</ele>
        <time>2018-11-26T10:08:59Z</time>
      </trkpt>
      <trkpt lat="42.17149" lon="2.29176">
        <ele>1332.1</ele>
        <time>2018-11-26T10:09:00Z</time>
      </trkpt>
      <trkpt lat="42.17151" lon="2.29178">
        <ele>1332.1</ele>
        <time>2018-11-26T10:09:02Z</time>
      </trkpt>
      <trkpt lat="42.17152" lon="2.2918">
        <ele>1331.9</ele>
        <time>2018-11-26T10:09:02Z</time>
      </trkpt>
      <trkpt lat="42.17152" lon="2.29183">
        <ele>1330.1</ele>
        <time>2018-11-26T10:09:03Z</time>
      </trkpt>
      <trkpt lat="42.17153" lon="2.29187">
        <ele>1329.1</ele>
        <time>2018-11-26T10:09:04Z</time>
      </trkpt>
      <trkpt lat="42.17154" lon="2.29188">
        <ele>1329</ele>
        <time>2018-11-26T10:09:05Z</time>
      </trkpt>
      <trkpt lat="42.17156" lon="2.2919">
        <ele>1328</ele>
        <time>2018-11-26T10:09:06Z</time>
      </trkpt>
      <trkpt lat="42.17157" lon="2.29193">
        <ele>1329</ele>
        <time>2018-11-26T10:09:07Z</time>
      </trkpt>
      <trkpt lat="42.17158" lon="2.29197">
        <ele>1329</ele>
        <time>2018-11-26T10:09:08Z</time>
      </trkpt>
      <trkpt lat="42.17158" lon="2.292">
        <ele>1329</ele>
        <time>2018-11-26T10:09:09Z</time>
      </trkpt>
      <trkpt lat="42.1716" lon="2.29202">
        <ele>1327</ele>
        <time>2018-11-26T10:09:10Z</time>
      </trkpt>
      <trkpt lat="42.17161" lon="2.29204">
        <ele>1327</ele>
        <time>2018-11-26T10:09:11Z</time>
      </trkpt>
      <trkpt lat="42.17164" lon="2.29205">
        <ele>1326.1</ele>
        <time>2018-11-26T10:09:12Z</time>
      </trkpt>
      <trkpt lat="42.17166" lon="2.29206">
        <ele>1325</ele>
        <time>2018-11-26T10:09:13Z</time>
      </trkpt>
      <trkpt lat="42.17168" lon="2.29207">
        <ele>1325</ele>
        <time>2018-11-26T10:09:13Z</time>
      </trkpt>
      <trkpt lat="42.17169" lon="2.29209">
        <ele>1325</ele>
        <time>2018-11-26T10:09:14Z</time>
      </trkpt>
      <trkpt lat="42.17171" lon="2.2921">
        <ele>1325</ele>
        <time>2018-11-26T10:09:15Z</time>
      </trkpt>
      <trkpt lat="42.17174" lon="2.2921">
        <ele>1324.7</ele>
        <time>2018-11-26T10:09:16Z</time>
      </trkpt>
      <trkpt lat="42.17175" lon="2.2921">
        <ele>1324</ele>
        <time>2018-11-26T10:09:17Z</time>
      </trkpt>
      <trkpt lat="42.17177" lon="2.29212">
        <ele>1324.1</ele>
        <time>2018-11-26T10:09:18Z</time>
      </trkpt>
      <trkpt lat="42.1718" lon="2.29213">
        <ele>1323</ele>
        <time>2018-11-26T10:09:19Z</time>
      </trkpt>
      <trkpt lat="42.17181" lon="2.29213">
        <ele>1323</ele>
        <time>2018-11-26T10:09:19Z</time>
      </trkpt>
      <trkpt lat="42.17183" lon="2.29215">
        <ele>1323</ele>
        <time>2018-11-26T10:09:20Z</time>
      </trkpt>
      <trkpt lat="42.17185" lon="2.29217">
        <ele>1322.1</ele>
        <time>2018-11-26T10:09:21Z</time>
      </trkpt>
      <trkpt lat="42.17186" lon="2.29219">
        <ele>1321.8</ele>
        <time>2018-11-26T10:09:22Z</time>
      </trkpt>
      <trkpt lat="42.17188" lon="2.29221">
        <ele>1321.1</ele>
        <time>2018-11-26T10:09:23Z</time>
      </trkpt>
      <trkpt lat="42.17189" lon="2.29223">
        <ele>1320.1</ele>
        <time>2018-11-26T10:09:24Z</time>
      </trkpt>
      <trkpt lat="42.1719" lon="2.29226">
        <ele>1320.7</ele>
        <time>2018-11-26T10:09:25Z</time>
      </trkpt>
      <trkpt lat="42.17192" lon="2.29228">
        <ele>1320.1</ele>
        <time>2018-11-26T10:09:26Z</time>
      </trkpt>
      <trkpt lat="42.17193" lon="2.2923">
        <ele>1320</ele>
        <time>2018-11-26T10:09:26Z</time>
      </trkpt>
      <trkpt lat="42.17195" lon="2.2923">
        <ele>1320.1</ele>
        <time>2018-11-26T10:09:27Z</time>
      </trkpt>
      <trkpt lat="42.17197" lon="2.29231">
        <ele>1319.8</ele>
        <time>2018-11-26T10:09:28Z</time>
      </trkpt>
      <trkpt lat="42.17199" lon="2.29229">
        <ele>1318.1</ele>
        <time>2018-11-26T10:09:29Z</time>
      </trkpt>
      <trkpt lat="42.17201" lon="2.29228">
        <ele>1318</ele>
        <time>2018-11-26T10:09:30Z</time>
      </trkpt>
      <trkpt lat="42.17203" lon="2.29228">
        <ele>1318</ele>
        <time>2018-11-26T10:09:31Z</time>
      </trkpt>
      <trkpt lat="42.17205" lon="2.29227">
        <ele>1318.1</ele>
        <time>2018-11-26T10:09:32Z</time>
      </trkpt>
      <trkpt lat="42.17208" lon="2.29228">
        <ele>1316.9</ele>
        <time>2018-11-26T10:09:33Z</time>
      </trkpt>
      <trkpt lat="42.1721" lon="2.29228">
        <ele>1316</ele>
        <time>2018-11-26T10:09:33Z</time>
      </trkpt>
      <trkpt lat="42.17212" lon="2.29229">
        <ele>1316</ele>
        <time>2018-11-26T10:09:34Z</time>
      </trkpt>
      <trkpt lat="42.17214" lon="2.2923">
        <ele>1315.1</ele>
        <time>2018-11-26T10:09:35Z</time>
      </trkpt>
      <trkpt lat="42.17215" lon="2.29232">
        <ele>1315</ele>
        <time>2018-11-26T10:09:36Z</time>
      </trkpt>
      <trkpt lat="42.17217" lon="2.29233">
        <ele>1315.1</ele>
        <time>2018-11-26T10:09:37Z</time>
      </trkpt>
      <trkpt lat="42.17219" lon="2.29234">
        <ele>1314</ele>
        <time>2018-11-26T10:09:38Z</time>
      </trkpt>
      <trkpt lat="42.1722" lon="2.29233">
        <ele>1313.1</ele>
        <time>2018-11-26T10:09:38Z</time>
      </trkpt>
      <trkpt lat="42.17223" lon="2.29232">
        <ele>1313</ele>
        <time>2018-11-26T10:09:40Z</time>
      </trkpt>
      <trkpt lat="42.17225" lon="2.29232">
        <ele>1312</ele>
        <time>2018-11-26T10:09:40Z</time>
      </trkpt>
      <trkpt lat="42.17227" lon="2.29233">
        <ele>1312</ele>
        <time>2018-11-26T10:09:41Z</time>
      </trkpt>
      <trkpt lat="42.17229" lon="2.29235">
        <ele>1311.1</ele>
        <time>2018-11-26T10:09:42Z</time>
      </trkpt>
      <trkpt lat="42.17231" lon="2.29237">
        <ele>1310.9</ele>
        <time>2018-11-26T10:09:43Z</time>
      </trkpt>
      <trkpt lat="42.17233" lon="2.29238">
        <ele>1310.1</ele>
        <time>2018-11-26T10:09:44Z</time>
      </trkpt>
      <trkpt lat="42.17234" lon="2.2924">
        <ele>1309.1</ele>
        <time>2018-11-26T10:09:45Z</time>
      </trkpt>
      <trkpt lat="42.17236" lon="2.29243">
        <ele>1309.1</ele>
        <time>2018-11-26T10:09:46Z</time>
      </trkpt>
      <trkpt lat="42.17238" lon="2.29244">
        <ele>1309</ele>
        <time>2018-11-26T10:09:47Z</time>
      </trkpt>
      <trkpt lat="42.1724" lon="2.29246">
        <ele>1308</ele>
        <time>2018-11-26T10:09:48Z</time>
      </trkpt>
      <trkpt lat="42.17242" lon="2.29247">
        <ele>1308.1</ele>
        <time>2018-11-26T10:09:49Z</time>
      </trkpt>
      <trkpt lat="42.17244" lon="2.29248">
        <ele>1308</ele>
        <time>2018-11-26T10:09:50Z</time>
      </trkpt>
      <trkpt lat="42.17247" lon="2.2925">
        <ele>1308.2</ele>
        <time>2018-11-26T10:09:51Z</time>
      </trkpt>
      <trkpt lat="42.17249" lon="2.29251">
        <ele>1309</ele>
        <time>2018-11-26T10:09:52Z</time>
      </trkpt>
      <trkpt lat="42.17251" lon="2.29252">
        <ele>1309</ele>
        <time>2018-11-26T10:09:53Z</time>
      </trkpt>
      <trkpt lat="42.17253" lon="2.29253">
        <ele>1308.1</ele>
        <time>2018-11-26T10:09:53Z</time>
      </trkpt>
      <trkpt lat="42.17255" lon="2.29254">
        <ele>1308.1</ele>
        <time>2018-11-26T10:09:54Z</time>
      </trkpt>
      <trkpt lat="42.17257" lon="2.29256">
        <ele>1309</ele>
        <time>2018-11-26T10:09:55Z</time>
      </trkpt>
      <trkpt lat="42.17259" lon="2.29258">
        <ele>1308.7</ele>
        <time>2018-11-26T10:09:56Z</time>
      </trkpt>
      <trkpt lat="42.17262" lon="2.2926">
        <ele>1308.1</ele>
        <time>2018-11-26T10:09:57Z</time>
      </trkpt>
      <trkpt lat="42.17263" lon="2.29261">
        <ele>1308.1</ele>
        <time>2018-11-26T10:09:58Z</time>
      </trkpt>
      <trkpt lat="42.17265" lon="2.29264">
        <ele>1308</ele>
        <time>2018-11-26T10:09:59Z</time>
      </trkpt>
      <trkpt lat="42.17267" lon="2.29266">
        <ele>1307.1</ele>
        <time>2018-11-26T10:10:00Z</time>
      </trkpt>
      <trkpt lat="42.17268" lon="2.29268">
        <ele>1307</ele>
        <time>2018-11-26T10:10:01Z</time>
      </trkpt>
      <trkpt lat="42.17269" lon="2.29271">
        <ele>1308.1</ele>
        <time>2018-11-26T10:10:02Z</time>
      </trkpt>
      <trkpt lat="42.17269" lon="2.29273">
        <ele>1307</ele>
        <time>2018-11-26T10:10:02Z</time>
      </trkpt>
      <trkpt lat="42.17269" lon="2.29276">
        <ele>1305.8</ele>
        <time>2018-11-26T10:10:03Z</time>
      </trkpt>
      <trkpt lat="42.1727" lon="2.29279">
        <ele>1304</ele>
        <time>2018-11-26T10:10:04Z</time>
      </trkpt>
      <trkpt lat="42.17271" lon="2.29281">
        <ele>1304</ele>
        <time>2018-11-26T10:10:05Z</time>
      </trkpt>
      <trkpt lat="42.17272" lon="2.29283">
        <ele>1303</ele>
        <time>2018-11-26T10:10:06Z</time>
      </trkpt>
      <trkpt lat="42.17273" lon="2.29286">
        <ele>1303</ele>
        <time>2018-11-26T10:10:07Z</time>
      </trkpt>
      <trkpt lat="42.17274" lon="2.29288">
        <ele>1301.8</ele>
        <time>2018-11-26T10:10:08Z</time>
      </trkpt>
      <trkpt lat="42.17277" lon="2.29289">
        <ele>1301.1</ele>
        <time>2018-11-26T10:10:09Z</time>
      </trkpt>
      <trkpt lat="42.17279" lon="2.29291">
        <ele>1301.1</ele>
        <time>2018-11-26T10:10:10Z</time>
      </trkpt>
      <trkpt lat="42.1728" lon="2.29294">
        <ele>1301</ele>
        <time>2018-11-26T10:10:11Z</time>
      </trkpt>
      <trkpt lat="42.17282" lon="2.29295">
        <ele>1300.1</ele>
        <time>2018-11-26T10:10:11Z</time>
      </trkpt>
      <trkpt lat="42.17284" lon="2.29297">
        <ele>1300</ele>
        <time>2018-11-26T10:10:12Z</time>
      </trkpt>
      <trkpt lat="42.17285" lon="2.29299">
        <ele>1300</ele>
        <time>2018-11-26T10:10:13Z</time>
      </trkpt>
      <trkpt lat="42.17286" lon="2.29301">
        <ele>1300</ele>
        <time>2018-11-26T10:10:14Z</time>
      </trkpt>
      <trkpt lat="42.17288" lon="2.29303">
        <ele>1299</ele>
        <time>2018-11-26T10:10:15Z</time>
      </trkpt>
      <trkpt lat="42.1729" lon="2.29304">
        <ele>1299.1</ele>
        <time>2018-11-26T10:10:16Z</time>
      </trkpt>
      <trkpt lat="42.17292" lon="2.29304">
        <ele>1298</ele>
        <time>2018-11-26T10:10:17Z</time>
      </trkpt>
      <trkpt lat="42.17294" lon="2.29306">
        <ele>1298.1</ele>
        <time>2018-11-26T10:10:17Z</time>
      </trkpt>
      <trkpt lat="42.17295" lon="2.29308">
        <ele>1297.8</ele>
        <time>2018-11-26T10:10:18Z</time>
      </trkpt>
      <trkpt lat="42.17298" lon="2.2931">
        <ele>1297.1</ele>
        <time>2018-11-26T10:10:19Z</time>
      </trkpt>
      <trkpt lat="42.173" lon="2.29311">
        <ele>1296.8</ele>
        <time>2018-11-26T10:10:20Z</time>
      </trkpt>
      <trkpt lat="42.17302" lon="2.29313">
        <ele>1295.8</ele>
        <time>2018-11-26T10:10:21Z</time>
      </trkpt>
      <trkpt lat="42.17304" lon="2.29318">
        <ele>1296.1</ele>
        <time>2018-11-26T10:10:23Z</time>
      </trkpt>
      <trkpt lat="42.17313" lon="2.2932">
        <ele>1294.1</ele>
        <time>2018-11-26T10:10:27Z</time>
      </trkpt>
      <trkpt lat="42.17322" lon="2.29325">
        <ele>1293</ele>
        <time>2018-11-26T10:10:31Z</time>
      </trkpt>
      <trkpt lat="42.17332" lon="2.29327">
        <ele>1291</ele>
        <time>2018-11-26T10:10:34Z</time>
      </trkpt>
      <trkpt lat="42.17335" lon="2.2933">
        <ele>1290</ele>
        <time>2018-11-26T10:10:36Z</time>
      </trkpt>
      <trkpt lat="42.17339" lon="2.29337">
        <ele>1288.8</ele>
        <time>2018-11-26T10:10:39Z</time>
      </trkpt>
      <trkpt lat="42.17341" lon="2.29339">
        <ele>1288</ele>
        <time>2018-11-26T10:10:40Z</time>
      </trkpt>
      <trkpt lat="42.17343" lon="2.2934">
        <ele>1287.8</ele>
        <time>2018-11-26T10:10:40Z</time>
      </trkpt>
      <trkpt lat="42.17344" lon="2.29342">
        <ele>1287.1</ele>
        <time>2018-11-26T10:10:41Z</time>
      </trkpt>
      <trkpt lat="42.17346" lon="2.29344">
        <ele>1286</ele>
        <time>2018-11-26T10:10:42Z</time>
      </trkpt>
      <trkpt lat="42.17348" lon="2.29345">
        <ele>1285</ele>
        <time>2018-11-26T10:10:43Z</time>
      </trkpt>
      <trkpt lat="42.1735" lon="2.29346">
        <ele>1285.1</ele>
        <time>2018-11-26T10:10:44Z</time>
      </trkpt>
      <trkpt lat="42.17352" lon="2.29347">
        <ele>1285</ele>
        <time>2018-11-26T10:10:45Z</time>
      </trkpt>
      <trkpt lat="42.17354" lon="2.29348">
        <ele>1285</ele>
        <time>2018-11-26T10:10:46Z</time>
      </trkpt>
      <trkpt lat="42.17356" lon="2.29349">
        <ele>1285</ele>
        <time>2018-11-26T10:10:46Z</time>
      </trkpt>
      <trkpt lat="42.17359" lon="2.2935">
        <ele>1284</ele>
        <time>2018-11-26T10:10:48Z</time>
      </trkpt>
      <trkpt lat="42.17361" lon="2.29351">
        <ele>1284</ele>
        <time>2018-11-26T10:10:49Z</time>
      </trkpt>
      <trkpt lat="42.17363" lon="2.29353">
        <ele>1284.1</ele>
        <time>2018-11-26T10:10:50Z</time>
      </trkpt>
      <trkpt lat="42.17365" lon="2.29354">
        <ele>1283</ele>
        <time>2018-11-26T10:10:51Z</time>
      </trkpt>
      <trkpt lat="42.17367" lon="2.29355">
        <ele>1282.9</ele>
        <time>2018-11-26T10:10:52Z</time>
      </trkpt>
      <trkpt lat="42.1737" lon="2.29356">
        <ele>1283</ele>
        <time>2018-11-26T10:10:53Z</time>
      </trkpt>
      <trkpt lat="42.17371" lon="2.29356">
        <ele>1283</ele>
        <time>2018-11-26T10:10:53Z</time>
      </trkpt>
      <trkpt lat="42.17375" lon="2.29356">
        <ele>1281.9</ele>
        <time>2018-11-26T10:10:55Z</time>
      </trkpt>
      <trkpt lat="42.17377" lon="2.29356">
        <ele>1281</ele>
        <time>2018-11-26T10:10:55Z</time>
      </trkpt>
      <trkpt lat="42.17379" lon="2.29356">
        <ele>1280.9</ele>
        <time>2018-11-26T10:10:56Z</time>
      </trkpt>
      <trkpt lat="42.1738" lon="2.29355">
        <ele>1280</ele>
        <time>2018-11-26T10:10:57Z</time>
      </trkpt>
      <trkpt lat="42.17382" lon="2.29354">
        <ele>1279</ele>
        <time>2018-11-26T10:10:58Z</time>
      </trkpt>
      <trkpt lat="42.17384" lon="2.29355">
        <ele>1279</ele>
        <time>2018-11-26T10:10:58Z</time>
      </trkpt>
      <trkpt lat="42.17386" lon="2.29353">
        <ele>1278</ele>
        <time>2018-11-26T10:10:59Z</time>
      </trkpt>
      <trkpt lat="42.17388" lon="2.29354">
        <ele>1278.1</ele>
        <time>2018-11-26T10:11:00Z</time>
      </trkpt>
      <trkpt lat="42.1739" lon="2.29354">
        <ele>1277.9</ele>
        <time>2018-11-26T10:11:01Z</time>
      </trkpt>
      <trkpt lat="42.17392" lon="2.29354">
        <ele>1277</ele>
        <time>2018-11-26T10:11:02Z</time>
      </trkpt>
      <trkpt lat="42.17395" lon="2.29354">
        <ele>1277.1</ele>
        <time>2018-11-26T10:11:03Z</time>
      </trkpt>
      <trkpt lat="42.17397" lon="2.29354">
        <ele>1277</ele>
        <time>2018-11-26T10:11:04Z</time>
      </trkpt>
      <trkpt lat="42.17399" lon="2.29354">
        <ele>1277.1</ele>
        <time>2018-11-26T10:11:05Z</time>
      </trkpt>
      <trkpt lat="42.17402" lon="2.29354">
        <ele>1275</ele>
        <time>2018-11-26T10:11:06Z</time>
      </trkpt>
      <trkpt lat="42.17405" lon="2.29353">
        <ele>1275.1</ele>
        <time>2018-11-26T10:11:07Z</time>
      </trkpt>
      <trkpt lat="42.17407" lon="2.29353">
        <ele>1275.1</ele>
        <time>2018-11-26T10:11:08Z</time>
      </trkpt>
      <trkpt lat="42.17409" lon="2.29353">
        <ele>1274.8</ele>
        <time>2018-11-26T10:11:08Z</time>
      </trkpt>
      <trkpt lat="42.17411" lon="2.29353">
        <ele>1274</ele>
        <time>2018-11-26T10:11:09Z</time>
      </trkpt>
      <trkpt lat="42.17413" lon="2.29355">
        <ele>1274</ele>
        <time>2018-11-26T10:11:10Z</time>
      </trkpt>
      <trkpt lat="42.17413" lon="2.29357">
        <ele>1274.1</ele>
        <time>2018-11-26T10:11:11Z</time>
      </trkpt>
      <trkpt lat="42.17415" lon="2.2936">
        <ele>1273.1</ele>
        <time>2018-11-26T10:11:12Z</time>
      </trkpt>
      <trkpt lat="42.17416" lon="2.29361">
        <ele>1272.1</ele>
        <time>2018-11-26T10:11:13Z</time>
      </trkpt>
      <trkpt lat="42.17417" lon="2.29363">
        <ele>1270.9</ele>
        <time>2018-11-26T10:11:13Z</time>
      </trkpt>
      <trkpt lat="42.17418" lon="2.29366">
        <ele>1270</ele>
        <time>2018-11-26T10:11:14Z</time>
      </trkpt>
      <trkpt lat="42.1742" lon="2.29368">
        <ele>1270</ele>
        <time>2018-11-26T10:11:15Z</time>
      </trkpt>
      <trkpt lat="42.17421" lon="2.29372">
        <ele>1269.1</ele>
        <time>2018-11-26T10:11:16Z</time>
      </trkpt>
      <trkpt lat="42.17423" lon="2.29372">
        <ele>1268.8</ele>
        <time>2018-11-26T10:11:17Z</time>
      </trkpt>
      <trkpt lat="42.17425" lon="2.29373">
        <ele>1267</ele>
        <time>2018-11-26T10:11:18Z</time>
      </trkpt>
      <trkpt lat="42.17428" lon="2.29375">
        <ele>1267</ele>
        <time>2018-11-26T10:11:19Z</time>
      </trkpt>
      <trkpt lat="42.1743" lon="2.29375">
        <ele>1265</ele>
        <time>2018-11-26T10:11:20Z</time>
      </trkpt>
      <trkpt lat="42.17431" lon="2.29377">
        <ele>1265</ele>
        <time>2018-11-26T10:11:21Z</time>
      </trkpt>
      <trkpt lat="42.17433" lon="2.29379">
        <ele>1264.8</ele>
        <time>2018-11-26T10:11:22Z</time>
      </trkpt>
      <trkpt lat="42.17434" lon="2.29381">
        <ele>1264.1</ele>
        <time>2018-11-26T10:11:23Z</time>
      </trkpt>
      <trkpt lat="42.17436" lon="2.29383">
        <ele>1263.1</ele>
        <time>2018-11-26T10:11:23Z</time>
      </trkpt>
      <trkpt lat="42.17438" lon="2.29382">
        <ele>1263.1</ele>
        <time>2018-11-26T10:11:24Z</time>
      </trkpt>
      <trkpt lat="42.1744" lon="2.29383">
        <ele>1262.1</ele>
        <time>2018-11-26T10:11:25Z</time>
      </trkpt>
      <trkpt lat="42.17443" lon="2.29383">
        <ele>1262.1</ele>
        <time>2018-11-26T10:11:26Z</time>
      </trkpt>
      <trkpt lat="42.17445" lon="2.29383">
        <ele>1261.9</ele>
        <time>2018-11-26T10:11:27Z</time>
      </trkpt>
      <trkpt lat="42.17447" lon="2.29382">
        <ele>1261.1</ele>
        <time>2018-11-26T10:11:28Z</time>
      </trkpt>
      <trkpt lat="42.17449" lon="2.29381">
        <ele>1261.1</ele>
        <time>2018-11-26T10:11:29Z</time>
      </trkpt>
      <trkpt lat="42.17451" lon="2.29379">
        <ele>1261</ele>
        <time>2018-11-26T10:11:30Z</time>
      </trkpt>
      <trkpt lat="42.17451" lon="2.29376">
        <ele>1261</ele>
        <time>2018-11-26T10:11:31Z</time>
      </trkpt>
      <trkpt lat="42.17457" lon="2.29385">
        <ele>1260.1</ele>
        <time>2018-11-26T10:11:34Z</time>
      </trkpt>
      <trkpt lat="42.17457" lon="2.29388">
        <ele>1259.3</ele>
        <time>2018-11-26T10:11:35Z</time>
      </trkpt>
      <trkpt lat="42.17459" lon="2.29387">
        <ele>1259.1</ele>
        <time>2018-11-26T10:11:36Z</time>
      </trkpt>
      <trkpt lat="42.17461" lon="2.29386">
        <ele>1259</ele>
        <time>2018-11-26T10:11:37Z</time>
      </trkpt>
      <trkpt lat="42.17462" lon="2.29384">
        <ele>1257</ele>
        <time>2018-11-26T10:11:38Z</time>
      </trkpt>
      <trkpt lat="42.17464" lon="2.29384">
        <ele>1257.1</ele>
        <time>2018-11-26T10:11:39Z</time>
      </trkpt>
      <trkpt lat="42.17462" lon="2.29385">
        <ele>1256.1</ele>
        <time>2018-11-26T10:11:40Z</time>
      </trkpt>
      <trkpt lat="42.1746" lon="2.29385">
        <ele>1256</ele>
        <time>2018-11-26T10:11:41Z</time>
      </trkpt>
      <trkpt lat="42.17457" lon="2.29385">
        <ele>1254.9</ele>
        <time>2018-11-26T10:11:42Z</time>
      </trkpt>
      <trkpt lat="42.17455" lon="2.29385">
        <ele>1254.1</ele>
        <time>2018-11-26T10:11:43Z</time>
      </trkpt>
      <trkpt lat="42.17453" lon="2.29386">
        <ele>1254</ele>
        <time>2018-11-26T10:11:43Z</time>
      </trkpt>
      <trkpt lat="42.17451" lon="2.29387">
        <ele>1254</ele>
        <time>2018-11-26T10:11:44Z</time>
      </trkpt>
      <trkpt lat="42.17449" lon="2.29386">
        <ele>1254</ele>
        <time>2018-11-26T10:11:45Z</time>
      </trkpt>
      <trkpt lat="42.17446" lon="2.29387">
        <ele>1253.9</ele>
        <time>2018-11-26T10:11:46Z</time>
      </trkpt>
      <trkpt lat="42.17444" lon="2.2939">
        <ele>1253.1</ele>
        <time>2018-11-26T10:11:48Z</time>
      </trkpt>
      <trkpt lat="42.1744" lon="2.29393">
        <ele>1252.1</ele>
        <time>2018-11-26T10:11:50Z</time>
      </trkpt>
      <trkpt lat="42.17437" lon="2.29396">
        <ele>1252.1</ele>
        <time>2018-11-26T10:11:51Z</time>
      </trkpt>
      <trkpt lat="42.17436" lon="2.29399">
        <ele>1252.1</ele>
        <time>2018-11-26T10:11:52Z</time>
      </trkpt>
      <trkpt lat="42.17434" lon="2.29401">
        <ele>1252.1</ele>
        <time>2018-11-26T10:11:53Z</time>
      </trkpt>
      <trkpt lat="42.17431" lon="2.29403">
        <ele>1252.1</ele>
        <time>2018-11-26T10:11:54Z</time>
      </trkpt>
      <trkpt lat="42.17429" lon="2.29405">
        <ele>1251.1</ele>
        <time>2018-11-26T10:11:55Z</time>
      </trkpt>
      <trkpt lat="42.17427" lon="2.29408">
        <ele>1251</ele>
        <time>2018-11-26T10:11:56Z</time>
      </trkpt>
      <trkpt lat="42.17426" lon="2.29411">
        <ele>1251</ele>
        <time>2018-11-26T10:11:57Z</time>
      </trkpt>
      <trkpt lat="42.17428" lon="2.29413">
        <ele>1251</ele>
        <time>2018-11-26T10:11:58Z</time>
      </trkpt>
      <trkpt lat="42.17428" lon="2.29415">
        <ele>1251.1</ele>
        <time>2018-11-26T10:11:59Z</time>
      </trkpt>
      <trkpt lat="42.17429" lon="2.29418">
        <ele>1251.1</ele>
        <time>2018-11-26T10:12:00Z</time>
      </trkpt>
      <trkpt lat="42.17431" lon="2.2942">
        <ele>1252</ele>
        <time>2018-11-26T10:12:01Z</time>
      </trkpt>
      <trkpt lat="42.17435" lon="2.29422">
        <ele>1252.1</ele>
        <time>2018-11-26T10:12:02Z</time>
      </trkpt>
      <trkpt lat="42.17438" lon="2.29424">
        <ele>1252.1</ele>
        <time>2018-11-26T10:12:04Z</time>
      </trkpt>
      <trkpt lat="42.17441" lon="2.29426">
        <ele>1252.1</ele>
        <time>2018-11-26T10:12:05Z</time>
      </trkpt>
      <trkpt lat="42.17442" lon="2.29428">
        <ele>1252.1</ele>
        <time>2018-11-26T10:12:06Z</time>
      </trkpt>
      <trkpt lat="42.17444" lon="2.29431">
        <ele>1252.1</ele>
        <time>2018-11-26T10:12:07Z</time>
      </trkpt>
      <trkpt lat="42.17446" lon="2.29433">
        <ele>1252</ele>
        <time>2018-11-26T10:12:08Z</time>
      </trkpt>
      <trkpt lat="42.17449" lon="2.29436">
        <ele>1252</ele>
        <time>2018-11-26T10:12:09Z</time>
      </trkpt>
      <trkpt lat="42.17451" lon="2.29438">
        <ele>1252</ele>
        <time>2018-11-26T10:12:10Z</time>
      </trkpt>
      <trkpt lat="42.17453" lon="2.29441">
        <ele>1252.2</ele>
        <time>2018-11-26T10:12:12Z</time>
      </trkpt>
      <trkpt lat="42.17455" lon="2.29444">
        <ele>1253.1</ele>
        <time>2018-11-26T10:12:13Z</time>
      </trkpt>
      <trkpt lat="42.17457" lon="2.29448">
        <ele>1254</ele>
        <time>2018-11-26T10:12:14Z</time>
      </trkpt>
      <trkpt lat="42.17459" lon="2.2945">
        <ele>1254</ele>
        <time>2018-11-26T10:12:15Z</time>
      </trkpt>
      <trkpt lat="42.17461" lon="2.29454">
        <ele>1254</ele>
        <time>2018-11-26T10:12:17Z</time>
      </trkpt>
      <trkpt lat="42.17463" lon="2.29455">
        <ele>1253</ele>
        <time>2018-11-26T10:12:18Z</time>
      </trkpt>
      <trkpt lat="42.17465" lon="2.29458">
        <ele>1253.1</ele>
        <time>2018-11-26T10:12:19Z</time>
      </trkpt>
      <trkpt lat="42.17467" lon="2.2946">
        <ele>1254</ele>
        <time>2018-11-26T10:12:20Z</time>
      </trkpt>
      <trkpt lat="42.1747" lon="2.29461">
        <ele>1254</ele>
        <time>2018-11-26T10:12:21Z</time>
      </trkpt>
      <trkpt lat="42.17472" lon="2.29464">
        <ele>1254.1</ele>
        <time>2018-11-26T10:12:22Z</time>
      </trkpt>
      <trkpt lat="42.17474" lon="2.29467">
        <ele>1254.1</ele>
        <time>2018-11-26T10:12:23Z</time>
      </trkpt>
      <trkpt lat="42.17476" lon="2.29471">
        <ele>1254</ele>
        <time>2018-11-26T10:12:24Z</time>
      </trkpt>
      <trkpt lat="42.17478" lon="2.29474">
        <ele>1254</ele>
        <time>2018-11-26T10:12:26Z</time>
      </trkpt>
      <trkpt lat="42.17481" lon="2.29477">
        <ele>1254.3</ele>
        <time>2018-11-26T10:12:27Z</time>
      </trkpt>
      <trkpt lat="42.17483" lon="2.29479">
        <ele>1255</ele>
        <time>2018-11-26T10:12:28Z</time>
      </trkpt>
      <trkpt lat="42.17486" lon="2.29482">
        <ele>1255.1</ele>
        <time>2018-11-26T10:12:30Z</time>
      </trkpt>
      <trkpt lat="42.17488" lon="2.29485">
        <ele>1255.1</ele>
        <time>2018-11-26T10:12:31Z</time>
      </trkpt>
      <trkpt lat="42.1749" lon="2.29489">
        <ele>1255</ele>
        <time>2018-11-26T10:12:32Z</time>
      </trkpt>
      <trkpt lat="42.17492" lon="2.29492">
        <ele>1255.1</ele>
        <time>2018-11-26T10:12:34Z</time>
      </trkpt>
      <trkpt lat="42.17494" lon="2.29496">
        <ele>1255.1</ele>
        <time>2018-11-26T10:12:35Z</time>
      </trkpt>
      <trkpt lat="42.17495" lon="2.29498">
        <ele>1255.1</ele>
        <time>2018-11-26T10:12:36Z</time>
      </trkpt>
      <trkpt lat="42.17497" lon="2.29501">
        <ele>1255.1</ele>
        <time>2018-11-26T10:12:37Z</time>
      </trkpt>
      <trkpt lat="42.175" lon="2.29503">
        <ele>1255</ele>
        <time>2018-11-26T10:12:38Z</time>
      </trkpt>
      <trkpt lat="42.17501" lon="2.29505">
        <ele>1255</ele>
        <time>2018-11-26T10:12:39Z</time>
      </trkpt>
      <trkpt lat="42.17504" lon="2.29507">
        <ele>1255</ele>
        <time>2018-11-26T10:12:40Z</time>
      </trkpt>
      <trkpt lat="42.17507" lon="2.29509">
        <ele>1255.1</ele>
        <time>2018-11-26T10:12:42Z</time>
      </trkpt>
      <trkpt lat="42.17508" lon="2.29511">
        <ele>1255</ele>
        <time>2018-11-26T10:12:42Z</time>
      </trkpt>
      <trkpt lat="42.1751" lon="2.29513">
        <ele>1255</ele>
        <time>2018-11-26T10:12:43Z</time>
      </trkpt>
      <trkpt lat="42.17511" lon="2.29514">
        <ele>1255.1</ele>
        <time>2018-11-26T10:12:44Z</time>
      </trkpt>
      <trkpt lat="42.17513" lon="2.29516">
        <ele>1255</ele>
        <time>2018-11-26T10:12:45Z</time>
      </trkpt>
      <trkpt lat="42.17515" lon="2.29518">
        <ele>1254</ele>
        <time>2018-11-26T10:12:46Z</time>
      </trkpt>
      <trkpt lat="42.17517" lon="2.2952">
        <ele>1254</ele>
        <time>2018-11-26T10:12:47Z</time>
      </trkpt>
      <trkpt lat="42.17519" lon="2.29522">
        <ele>1254</ele>
        <time>2018-11-26T10:12:48Z</time>
      </trkpt>
      <trkpt lat="42.17521" lon="2.29525">
        <ele>1254</ele>
        <time>2018-11-26T10:12:49Z</time>
      </trkpt>
      <trkpt lat="42.17524" lon="2.29528">
        <ele>1254</ele>
        <time>2018-11-26T10:12:50Z</time>
      </trkpt>
      <trkpt lat="42.17526" lon="2.2953">
        <ele>1254</ele>
        <time>2018-11-26T10:12:52Z</time>
      </trkpt>
      <trkpt lat="42.17528" lon="2.29534">
        <ele>1254</ele>
        <time>2018-11-26T10:12:53Z</time>
      </trkpt>
      <trkpt lat="42.1753" lon="2.29537">
        <ele>1254</ele>
        <time>2018-11-26T10:12:54Z</time>
      </trkpt>
      <trkpt lat="42.17532" lon="2.2954">
        <ele>1254.1</ele>
        <time>2018-11-26T10:12:55Z</time>
      </trkpt>
      <trkpt lat="42.17534" lon="2.29543">
        <ele>1254</ele>
        <time>2018-11-26T10:12:57Z</time>
      </trkpt>
      <trkpt lat="42.17535" lon="2.29546">
        <ele>1254.1</ele>
        <time>2018-11-26T10:12:58Z</time>
      </trkpt>
      <trkpt lat="42.17537" lon="2.29548">
        <ele>1253.1</ele>
        <time>2018-11-26T10:12:59Z</time>
      </trkpt>
      <trkpt lat="42.17538" lon="2.29552">
        <ele>1253</ele>
        <time>2018-11-26T10:13:00Z</time>
      </trkpt>
      <trkpt lat="42.1754" lon="2.29555">
        <ele>1253.1</ele>
        <time>2018-11-26T10:13:01Z</time>
      </trkpt>
      <trkpt lat="42.17542" lon="2.29558">
        <ele>1253.1</ele>
        <time>2018-11-26T10:13:02Z</time>
      </trkpt>
      <trkpt lat="42.17543" lon="2.29561">
        <ele>1252.8</ele>
        <time>2018-11-26T10:13:03Z</time>
      </trkpt>
      <trkpt lat="42.17545" lon="2.29564">
        <ele>1252.1</ele>
        <time>2018-11-26T10:13:04Z</time>
      </trkpt>
      <trkpt lat="42.17546" lon="2.29567">
        <ele>1252</ele>
        <time>2018-11-26T10:13:05Z</time>
      </trkpt>
      <trkpt lat="42.17547" lon="2.29571">
        <ele>1252</ele>
        <time>2018-11-26T10:13:07Z</time>
      </trkpt>
      <trkpt lat="42.17549" lon="2.29575">
        <ele>1252.1</ele>
        <time>2018-11-26T10:13:08Z</time>
      </trkpt>
      <trkpt lat="42.1755" lon="2.29578">
        <ele>1252.1</ele>
        <time>2018-11-26T10:13:09Z</time>
      </trkpt>
      <trkpt lat="42.17551" lon="2.29581">
        <ele>1252.1</ele>
        <time>2018-11-26T10:13:10Z</time>
      </trkpt>
      <trkpt lat="42.17552" lon="2.29585">
        <ele>1252.1</ele>
        <time>2018-11-26T10:13:11Z</time>
      </trkpt>
      <trkpt lat="42.17554" lon="2.29587">
        <ele>1252.1</ele>
        <time>2018-11-26T10:13:12Z</time>
      </trkpt>
      <trkpt lat="42.17557" lon="2.29587">
        <ele>1251.9</ele>
        <time>2018-11-26T10:13:13Z</time>
      </trkpt>
      <trkpt lat="42.17559" lon="2.29589">
        <ele>1251.1</ele>
        <time>2018-11-26T10:13:14Z</time>
      </trkpt>
      <trkpt lat="42.17561" lon="2.29592">
        <ele>1252</ele>
        <time>2018-11-26T10:13:16Z</time>
      </trkpt>
      <trkpt lat="42.17563" lon="2.29596">
        <ele>1252.1</ele>
        <time>2018-11-26T10:13:17Z</time>
      </trkpt>
      <trkpt lat="42.17564" lon="2.29598">
        <ele>1252</ele>
        <time>2018-11-26T10:13:18Z</time>
      </trkpt>
      <trkpt lat="42.17564" lon="2.296">
        <ele>1252</ele>
        <time>2018-11-26T10:13:18Z</time>
      </trkpt>
      <trkpt lat="42.17565" lon="2.29605">
        <ele>1252.1</ele>
        <time>2018-11-26T10:13:20Z</time>
      </trkpt>
      <trkpt lat="42.17566" lon="2.29608">
        <ele>1255.1</ele>
        <time>2018-11-26T10:13:21Z</time>
      </trkpt>
      <trkpt lat="42.17569" lon="2.29611">
        <ele>1255</ele>
        <time>2018-11-26T10:13:22Z</time>
      </trkpt>
      <trkpt lat="42.1757" lon="2.29614">
        <ele>1255.1</ele>
        <time>2018-11-26T10:13:23Z</time>
      </trkpt>
      <trkpt lat="42.1757" lon="2.29617">
        <ele>1255</ele>
        <time>2018-11-26T10:13:24Z</time>
      </trkpt>
      <trkpt lat="42.17571" lon="2.29621">
        <ele>1255</ele>
        <time>2018-11-26T10:13:26Z</time>
      </trkpt>
      <trkpt lat="42.17573" lon="2.29625">
        <ele>1255.1</ele>
        <time>2018-11-26T10:13:27Z</time>
      </trkpt>
      <trkpt lat="42.17574" lon="2.29628">
        <ele>1255.2</ele>
        <time>2018-11-26T10:13:28Z</time>
      </trkpt>
      <trkpt lat="42.17574" lon="2.29631">
        <ele>1256</ele>
        <time>2018-11-26T10:13:29Z</time>
      </trkpt>
      <trkpt lat="42.17575" lon="2.29635">
        <ele>1256.1</ele>
        <time>2018-11-26T10:13:30Z</time>
      </trkpt>
      <trkpt lat="42.17576" lon="2.29638">
        <ele>1256</ele>
        <time>2018-11-26T10:13:31Z</time>
      </trkpt>
      <trkpt lat="42.17577" lon="2.29642">
        <ele>1256</ele>
        <time>2018-11-26T10:13:32Z</time>
      </trkpt>
      <trkpt lat="42.17578" lon="2.29647">
        <ele>1256</ele>
        <time>2018-11-26T10:13:34Z</time>
      </trkpt>
      <trkpt lat="42.17579" lon="2.29651">
        <ele>1256</ele>
        <time>2018-11-26T10:13:35Z</time>
      </trkpt>
      <trkpt lat="42.1758" lon="2.29654">
        <ele>1256</ele>
        <time>2018-11-26T10:13:36Z</time>
      </trkpt>
      <trkpt lat="42.1758" lon="2.29659">
        <ele>1256</ele>
        <time>2018-11-26T10:13:37Z</time>
      </trkpt>
      <trkpt lat="42.17581" lon="2.29662">
        <ele>1255.1</ele>
        <time>2018-11-26T10:13:38Z</time>
      </trkpt>
      <trkpt lat="42.17581" lon="2.29665">
        <ele>1255</ele>
        <time>2018-11-26T10:13:39Z</time>
      </trkpt>
      <trkpt lat="42.17583" lon="2.29667">
        <ele>1255.1</ele>
        <time>2018-11-26T10:13:40Z</time>
      </trkpt>
      <trkpt lat="42.17584" lon="2.2967">
        <ele>1255.1</ele>
        <time>2018-11-26T10:13:41Z</time>
      </trkpt>
      <trkpt lat="42.17585" lon="2.29674">
        <ele>1255.1</ele>
        <time>2018-11-26T10:13:42Z</time>
      </trkpt>
      <trkpt lat="42.17586" lon="2.29679">
        <ele>1254</ele>
        <time>2018-11-26T10:13:44Z</time>
      </trkpt>
      <trkpt lat="42.17587" lon="2.29682">
        <ele>1254.1</ele>
        <time>2018-11-26T10:13:45Z</time>
      </trkpt>
      <trkpt lat="42.17588" lon="2.29685">
        <ele>1254</ele>
        <time>2018-11-26T10:13:46Z</time>
      </trkpt>
      <trkpt lat="42.17589" lon="2.29688">
        <ele>1253</ele>
        <time>2018-11-26T10:13:47Z</time>
      </trkpt>
      <trkpt lat="42.17589" lon="2.2969">
        <ele>1253.1</ele>
        <time>2018-11-26T10:13:47Z</time>
      </trkpt>
      <trkpt lat="42.17589" lon="2.29693">
        <ele>1253.1</ele>
        <time>2018-11-26T10:13:48Z</time>
      </trkpt>
      <trkpt lat="42.17589" lon="2.29696">
        <ele>1253</ele>
        <time>2018-11-26T10:13:49Z</time>
      </trkpt>
      <trkpt lat="42.1759" lon="2.29699">
        <ele>1252.9</ele>
        <time>2018-11-26T10:13:50Z</time>
      </trkpt>
      <trkpt lat="42.1759" lon="2.29702">
        <ele>1252</ele>
        <time>2018-11-26T10:13:51Z</time>
      </trkpt>
      <trkpt lat="42.1759" lon="2.29705">
        <ele>1250.6</ele>
        <time>2018-11-26T10:13:52Z</time>
      </trkpt>
      <trkpt lat="42.1759" lon="2.29709">
        <ele>1250</ele>
        <time>2018-11-26T10:13:53Z</time>
      </trkpt>
      <trkpt lat="42.1759" lon="2.29712">
        <ele>1250.1</ele>
        <time>2018-11-26T10:13:54Z</time>
      </trkpt>
      <trkpt lat="42.1759" lon="2.29716">
        <ele>1250.1</ele>
        <time>2018-11-26T10:13:55Z</time>
      </trkpt>
      <trkpt lat="42.1759" lon="2.2972">
        <ele>1250</ele>
        <time>2018-11-26T10:13:56Z</time>
      </trkpt>
      <trkpt lat="42.1759" lon="2.29725">
        <ele>1250</ele>
        <time>2018-11-26T10:13:58Z</time>
      </trkpt>
      <trkpt lat="42.1759" lon="2.29728">
        <ele>1249.8</ele>
        <time>2018-11-26T10:13:59Z</time>
      </trkpt>
      <trkpt lat="42.17591" lon="2.29731">
        <ele>1249</ele>
        <time>2018-11-26T10:14:00Z</time>
      </trkpt>
      <trkpt lat="42.17591" lon="2.29733">
        <ele>1249</ele>
        <time>2018-11-26T10:14:00Z</time>
      </trkpt>
      <trkpt lat="42.1759" lon="2.29737">
        <ele>1250.1</ele>
        <time>2018-11-26T10:14:01Z</time>
      </trkpt>
      <trkpt lat="42.1759" lon="2.2974">
        <ele>1250</ele>
        <time>2018-11-26T10:14:02Z</time>
      </trkpt>
      <trkpt lat="42.1759" lon="2.29744">
        <ele>1250</ele>
        <time>2018-11-26T10:14:03Z</time>
      </trkpt>
      <trkpt lat="42.1759" lon="2.29748">
        <ele>1250</ele>
        <time>2018-11-26T10:14:05Z</time>
      </trkpt>
      <trkpt lat="42.17591" lon="2.29752">
        <ele>1250.1</ele>
        <time>2018-11-26T10:14:06Z</time>
      </trkpt>
      <trkpt lat="42.17591" lon="2.29756">
        <ele>1250</ele>
        <time>2018-11-26T10:14:07Z</time>
      </trkpt>
      <trkpt lat="42.17591" lon="2.29759">
        <ele>1250.1</ele>
        <time>2018-11-26T10:14:08Z</time>
      </trkpt>
      <trkpt lat="42.17592" lon="2.29764">
        <ele>1250</ele>
        <time>2018-11-26T10:14:09Z</time>
      </trkpt>
      <trkpt lat="42.17592" lon="2.29766">
        <ele>1250</ele>
        <time>2018-11-26T10:14:10Z</time>
      </trkpt>
      <trkpt lat="42.17593" lon="2.29768">
        <ele>1250</ele>
        <time>2018-11-26T10:14:11Z</time>
      </trkpt>
      <trkpt lat="42.17594" lon="2.29771">
        <ele>1250.1</ele>
        <time>2018-11-26T10:14:12Z</time>
      </trkpt>
      <trkpt lat="42.17596" lon="2.29772">
        <ele>1250.1</ele>
        <time>2018-11-26T10:14:12Z</time>
      </trkpt>
      <trkpt lat="42.17597" lon="2.29774">
        <ele>1250</ele>
        <time>2018-11-26T10:14:13Z</time>
      </trkpt>
      <trkpt lat="42.17602" lon="2.29775">
        <ele>1250</ele>
        <time>2018-11-26T10:14:15Z</time>
      </trkpt>
      <trkpt lat="42.17608" lon="2.29777">
        <ele>1250.2</ele>
        <time>2018-11-26T10:14:18Z</time>
      </trkpt>
      <trkpt lat="42.1761" lon="2.29777">
        <ele>1251</ele>
        <time>2018-11-26T10:14:18Z</time>
      </trkpt>
      <trkpt lat="42.17614" lon="2.29778">
        <ele>1251</ele>
        <time>2018-11-26T10:14:20Z</time>
      </trkpt>
      <trkpt lat="42.17616" lon="2.29778">
        <ele>1251</ele>
        <time>2018-11-26T10:14:21Z</time>
      </trkpt>
      <trkpt lat="42.17618" lon="2.29778">
        <ele>1251</ele>
        <time>2018-11-26T10:14:22Z</time>
      </trkpt>
      <trkpt lat="42.17621" lon="2.29778">
        <ele>1251.1</ele>
        <time>2018-11-26T10:14:23Z</time>
      </trkpt>
      <trkpt lat="42.17624" lon="2.29778">
        <ele>1251</ele>
        <time>2018-11-26T10:14:24Z</time>
      </trkpt>
      <trkpt lat="42.17627" lon="2.29778">
        <ele>1251</ele>
        <time>2018-11-26T10:14:25Z</time>
      </trkpt>
      <trkpt lat="42.1763" lon="2.29777">
        <ele>1251</ele>
        <time>2018-11-26T10:14:26Z</time>
      </trkpt>
      <trkpt lat="42.17633" lon="2.29778">
        <ele>1251.1</ele>
        <time>2018-11-26T10:14:27Z</time>
      </trkpt>
      <trkpt lat="42.17635" lon="2.29777">
        <ele>1251</ele>
        <time>2018-11-26T10:14:29Z</time>
      </trkpt>
      <trkpt lat="42.17637" lon="2.29776">
        <ele>1251.1</ele>
        <time>2018-11-26T10:14:29Z</time>
      </trkpt>
      <trkpt lat="42.1764" lon="2.29775">
        <ele>1251.1</ele>
        <time>2018-11-26T10:14:30Z</time>
      </trkpt>
      <trkpt lat="42.17642" lon="2.29775">
        <ele>1251</ele>
        <time>2018-11-26T10:14:31Z</time>
      </trkpt>
      <trkpt lat="42.17644" lon="2.29775">
        <ele>1251.1</ele>
        <time>2018-11-26T10:14:32Z</time>
      </trkpt>
      <trkpt lat="42.17649" lon="2.29774">
        <ele>1252.1</ele>
        <time>2018-11-26T10:14:34Z</time>
      </trkpt>
      <trkpt lat="42.17651" lon="2.29774">
        <ele>1252</ele>
        <time>2018-11-26T10:14:35Z</time>
      </trkpt>
      <trkpt lat="42.17655" lon="2.29774">
        <ele>1252.1</ele>
        <time>2018-11-26T10:14:36Z</time>
      </trkpt>
      <trkpt lat="42.17657" lon="2.29773">
        <ele>1252</ele>
        <time>2018-11-26T10:14:37Z</time>
      </trkpt>
      <trkpt lat="42.17659" lon="2.29773">
        <ele>1252</ele>
        <time>2018-11-26T10:14:38Z</time>
      </trkpt>
      <trkpt lat="42.17661" lon="2.29773">
        <ele>1252.1</ele>
        <time>2018-11-26T10:14:39Z</time>
      </trkpt>
      <trkpt lat="42.17665" lon="2.29774">
        <ele>1251.8</ele>
        <time>2018-11-26T10:14:41Z</time>
      </trkpt>
      <trkpt lat="42.17669" lon="2.29774">
        <ele>1251</ele>
        <time>2018-11-26T10:14:42Z</time>
      </trkpt>
      <trkpt lat="42.17671" lon="2.29773">
        <ele>1251.1</ele>
        <time>2018-11-26T10:14:43Z</time>
      </trkpt>
      <trkpt lat="42.17673" lon="2.29772">
        <ele>1251</ele>
        <time>2018-11-26T10:14:44Z</time>
      </trkpt>
      <trkpt lat="42.17675" lon="2.29772">
        <ele>1251.1</ele>
        <time>2018-11-26T10:14:44Z</time>
      </trkpt>
      <trkpt lat="42.17676" lon="2.29773">
        <ele>1251.1</ele>
        <time>2018-11-26T10:14:45Z</time>
      </trkpt>
      <trkpt lat="42.17679" lon="2.29773">
        <ele>1251.2</ele>
        <time>2018-11-26T10:14:46Z</time>
      </trkpt>
      <trkpt lat="42.17681" lon="2.29774">
        <ele>1252.1</ele>
        <time>2018-11-26T10:14:47Z</time>
      </trkpt>
      <trkpt lat="42.17683" lon="2.29774">
        <ele>1253.1</ele>
        <time>2018-11-26T10:14:48Z</time>
      </trkpt>
      <trkpt lat="42.17687" lon="2.29776">
        <ele>1253.5</ele>
        <time>2018-11-26T10:14:50Z</time>
      </trkpt>
      <trkpt lat="42.17689" lon="2.29778">
        <ele>1254</ele>
        <time>2018-11-26T10:14:51Z</time>
      </trkpt>
      <trkpt lat="42.17691" lon="2.29779">
        <ele>1254</ele>
        <time>2018-11-26T10:14:51Z</time>
      </trkpt>
      <trkpt lat="42.17693" lon="2.2978">
        <ele>1254.3</ele>
        <time>2018-11-26T10:14:52Z</time>
      </trkpt>
      <trkpt lat="42.17695" lon="2.29781">
        <ele>1255.1</ele>
        <time>2018-11-26T10:14:53Z</time>
      </trkpt>
      <trkpt lat="42.17697" lon="2.29783">
        <ele>1255.1</ele>
        <time>2018-11-26T10:14:54Z</time>
      </trkpt>
      <trkpt lat="42.17699" lon="2.29785">
        <ele>1255.2</ele>
        <time>2018-11-26T10:14:55Z</time>
      </trkpt>
      <trkpt lat="42.17702" lon="2.29786">
        <ele>1256.1</ele>
        <time>2018-11-26T10:14:56Z</time>
      </trkpt>
      <trkpt lat="42.17704" lon="2.29788">
        <ele>1256.1</ele>
        <time>2018-11-26T10:14:57Z</time>
      </trkpt>
      <trkpt lat="42.17705" lon="2.2979">
        <ele>1256.1</ele>
        <time>2018-11-26T10:14:58Z</time>
      </trkpt>
      <trkpt lat="42.17707" lon="2.29792">
        <ele>1256</ele>
        <time>2018-11-26T10:14:59Z</time>
      </trkpt>
      <trkpt lat="42.17708" lon="2.29793">
        <ele>1256.1</ele>
        <time>2018-11-26T10:15:00Z</time>
      </trkpt>
      <trkpt lat="42.1771" lon="2.29796">
        <ele>1256.2</ele>
        <time>2018-11-26T10:15:01Z</time>
      </trkpt>
      <trkpt lat="42.17711" lon="2.29798">
        <ele>1257</ele>
        <time>2018-11-26T10:15:01Z</time>
      </trkpt>
      <trkpt lat="42.17713" lon="2.298">
        <ele>1256.8</ele>
        <time>2018-11-26T10:15:02Z</time>
      </trkpt>
      <trkpt lat="42.17714" lon="2.29803">
        <ele>1256</ele>
        <time>2018-11-26T10:15:03Z</time>
      </trkpt>
      <trkpt lat="42.17715" lon="2.29805">
        <ele>1256.1</ele>
        <time>2018-11-26T10:15:04Z</time>
      </trkpt>
      <trkpt lat="42.17716" lon="2.29808">
        <ele>1257</ele>
        <time>2018-11-26T10:15:05Z</time>
      </trkpt>
      <trkpt lat="42.17717" lon="2.29811">
        <ele>1257.1</ele>
        <time>2018-11-26T10:15:06Z</time>
      </trkpt>
      <trkpt lat="42.17718" lon="2.29813">
        <ele>1257.5</ele>
        <time>2018-11-26T10:15:07Z</time>
      </trkpt>
      <trkpt lat="42.17718" lon="2.29816">
        <ele>1258.2</ele>
        <time>2018-11-26T10:15:07Z</time>
      </trkpt>
      <trkpt lat="42.17719" lon="2.29819">
        <ele>1259</ele>
        <time>2018-11-26T10:15:08Z</time>
      </trkpt>
      <trkpt lat="42.17719" lon="2.29822">
        <ele>1259</ele>
        <time>2018-11-26T10:15:09Z</time>
      </trkpt>
      <trkpt lat="42.17719" lon="2.29825">
        <ele>1259</ele>
        <time>2018-11-26T10:15:10Z</time>
      </trkpt>
      <trkpt lat="42.17719" lon="2.29828">
        <ele>1259</ele>
        <time>2018-11-26T10:15:11Z</time>
      </trkpt>
      <trkpt lat="42.17719" lon="2.29831">
        <ele>1259.1</ele>
        <time>2018-11-26T10:15:12Z</time>
      </trkpt>
      <trkpt lat="42.17718" lon="2.29834">
        <ele>1260</ele>
        <time>2018-11-26T10:15:13Z</time>
      </trkpt>
      <trkpt lat="42.17717" lon="2.29837">
        <ele>1260.1</ele>
        <time>2018-11-26T10:15:14Z</time>
      </trkpt>
      <trkpt lat="42.17717" lon="2.2984">
        <ele>1260</ele>
        <time>2018-11-26T10:15:15Z</time>
      </trkpt>
      <trkpt lat="42.17717" lon="2.29843">
        <ele>1260.1</ele>
        <time>2018-11-26T10:15:16Z</time>
      </trkpt>
      <trkpt lat="42.17716" lon="2.29846">
        <ele>1260.2</ele>
        <time>2018-11-26T10:15:16Z</time>
      </trkpt>
      <trkpt lat="42.17716" lon="2.29848">
        <ele>1261.1</ele>
        <time>2018-11-26T10:15:17Z</time>
      </trkpt>
      <trkpt lat="42.17716" lon="2.29851">
        <ele>1261.2</ele>
        <time>2018-11-26T10:15:18Z</time>
      </trkpt>
      <trkpt lat="42.17717" lon="2.29854">
        <ele>1262.1</ele>
        <time>2018-11-26T10:15:19Z</time>
      </trkpt>
      <trkpt lat="42.17716" lon="2.29858">
        <ele>1262.1</ele>
        <time>2018-11-26T10:15:20Z</time>
      </trkpt>
      <trkpt lat="42.17716" lon="2.29861">
        <ele>1262</ele>
        <time>2018-11-26T10:15:21Z</time>
      </trkpt>
      <trkpt lat="42.17716" lon="2.29864">
        <ele>1262</ele>
        <time>2018-11-26T10:15:22Z</time>
      </trkpt>
      <trkpt lat="42.17716" lon="2.29867">
        <ele>1262</ele>
        <time>2018-11-26T10:15:23Z</time>
      </trkpt>
      <trkpt lat="42.17716" lon="2.2987">
        <ele>1262.4</ele>
        <time>2018-11-26T10:15:24Z</time>
      </trkpt>
      <trkpt lat="42.17715" lon="2.29873">
        <ele>1263.2</ele>
        <time>2018-11-26T10:15:25Z</time>
      </trkpt>
      <trkpt lat="42.17715" lon="2.29876">
        <ele>1264</ele>
        <time>2018-11-26T10:15:25Z</time>
      </trkpt>
      <trkpt lat="42.17716" lon="2.29878">
        <ele>1264.1</ele>
        <time>2018-11-26T10:15:26Z</time>
      </trkpt>
      <trkpt lat="42.17716" lon="2.29883">
        <ele>1265</ele>
        <time>2018-11-26T10:15:28Z</time>
      </trkpt>
      <trkpt lat="42.17716" lon="2.29885">
        <ele>1265.1</ele>
        <time>2018-11-26T10:15:28Z</time>
      </trkpt>
      <trkpt lat="42.17716" lon="2.29889">
        <ele>1265.4</ele>
        <time>2018-11-26T10:15:29Z</time>
      </trkpt>
      <trkpt lat="42.17716" lon="2.29891">
        <ele>1266.1</ele>
        <time>2018-11-26T10:15:30Z</time>
      </trkpt>
      <trkpt lat="42.17716" lon="2.29894">
        <ele>1266.1</ele>
        <time>2018-11-26T10:15:31Z</time>
      </trkpt>
      <trkpt lat="42.17716" lon="2.29897">
        <ele>1266.1</ele>
        <time>2018-11-26T10:15:32Z</time>
      </trkpt>
      <trkpt lat="42.17717" lon="2.29899">
        <ele>1266</ele>
        <time>2018-11-26T10:15:32Z</time>
      </trkpt>
      <trkpt lat="42.17716" lon="2.29902">
        <ele>1266.1</ele>
        <time>2018-11-26T10:15:33Z</time>
      </trkpt>
      <trkpt lat="42.17716" lon="2.29905">
        <ele>1267.1</ele>
        <time>2018-11-26T10:15:34Z</time>
      </trkpt>
      <trkpt lat="42.17716" lon="2.29907">
        <ele>1267.1</ele>
        <time>2018-11-26T10:15:35Z</time>
      </trkpt>
      <trkpt lat="42.17717" lon="2.2991">
        <ele>1267.1</ele>
        <time>2018-11-26T10:15:36Z</time>
      </trkpt>
      <trkpt lat="42.17717" lon="2.29913">
        <ele>1268.2</ele>
        <time>2018-11-26T10:15:37Z</time>
      </trkpt>
      <trkpt lat="42.17718" lon="2.29916">
        <ele>1269</ele>
        <time>2018-11-26T10:15:37Z</time>
      </trkpt>
      <trkpt lat="42.17721" lon="2.29923">
        <ele>1269.2</ele>
        <time>2018-11-26T10:15:40Z</time>
      </trkpt>
      <trkpt lat="42.17722" lon="2.29926">
        <ele>1270</ele>
        <time>2018-11-26T10:15:41Z</time>
      </trkpt>
      <trkpt lat="42.17723" lon="2.29928">
        <ele>1270.1</ele>
        <time>2018-11-26T10:15:42Z</time>
      </trkpt>
      <trkpt lat="42.17725" lon="2.29931">
        <ele>1270.1</ele>
        <time>2018-11-26T10:15:43Z</time>
      </trkpt>
      <trkpt lat="42.17728" lon="2.29935">
        <ele>1270</ele>
        <time>2018-11-26T10:15:44Z</time>
      </trkpt>
      <trkpt lat="42.17729" lon="2.29937">
        <ele>1270</ele>
        <time>2018-11-26T10:15:45Z</time>
      </trkpt>
      <trkpt lat="42.17731" lon="2.29938">
        <ele>1270.1</ele>
        <time>2018-11-26T10:15:46Z</time>
      </trkpt>
      <trkpt lat="42.17733" lon="2.29939">
        <ele>1271.2</ele>
        <time>2018-11-26T10:15:47Z</time>
      </trkpt>
      <trkpt lat="42.17736" lon="2.2994">
        <ele>1272</ele>
        <time>2018-11-26T10:15:48Z</time>
      </trkpt>
      <trkpt lat="42.1774" lon="2.29943">
        <ele>1272.1</ele>
        <time>2018-11-26T10:15:50Z</time>
      </trkpt>
      <trkpt lat="42.17743" lon="2.29944">
        <ele>1272.1</ele>
        <time>2018-11-26T10:15:51Z</time>
      </trkpt>
      <trkpt lat="42.17745" lon="2.29945">
        <ele>1272</ele>
        <time>2018-11-26T10:15:52Z</time>
      </trkpt>
      <trkpt lat="42.17747" lon="2.29946">
        <ele>1272.1</ele>
        <time>2018-11-26T10:15:53Z</time>
      </trkpt>
      <trkpt lat="42.1775" lon="2.29947">
        <ele>1273</ele>
        <time>2018-11-26T10:15:54Z</time>
      </trkpt>
      <trkpt lat="42.17754" lon="2.29949">
        <ele>1273.1</ele>
        <time>2018-11-26T10:15:56Z</time>
      </trkpt>
      <trkpt lat="42.17756" lon="2.2995">
        <ele>1273</ele>
        <time>2018-11-26T10:15:56Z</time>
      </trkpt>
      <trkpt lat="42.17757" lon="2.2995">
        <ele>1273</ele>
        <time>2018-11-26T10:15:57Z</time>
      </trkpt>
      <trkpt lat="42.1776" lon="2.2995">
        <ele>1273</ele>
        <time>2018-11-26T10:15:58Z</time>
      </trkpt>
      <trkpt lat="42.17762" lon="2.29951">
        <ele>1273</ele>
        <time>2018-11-26T10:15:59Z</time>
      </trkpt>
      <trkpt lat="42.17764" lon="2.29952">
        <ele>1273.1</ele>
        <time>2018-11-26T10:16:00Z</time>
      </trkpt>
      <trkpt lat="42.17766" lon="2.29953">
        <ele>1273.1</ele>
        <time>2018-11-26T10:16:01Z</time>
      </trkpt>
      <trkpt lat="42.17768" lon="2.29953">
        <ele>1274.1</ele>
        <time>2018-11-26T10:16:02Z</time>
      </trkpt>
      <trkpt lat="42.1777" lon="2.29954">
        <ele>1274</ele>
        <time>2018-11-26T10:16:03Z</time>
      </trkpt>
      <trkpt lat="42.17772" lon="2.29956">
        <ele>1274.1</ele>
        <time>2018-11-26T10:16:03Z</time>
      </trkpt>
      <trkpt lat="42.17775" lon="2.29957">
        <ele>1274.1</ele>
        <time>2018-11-26T10:16:04Z</time>
      </trkpt>
      <trkpt lat="42.17777" lon="2.29958">
        <ele>1274.2</ele>
        <time>2018-11-26T10:16:05Z</time>
      </trkpt>
      <trkpt lat="42.17779" lon="2.29959">
        <ele>1275.1</ele>
        <time>2018-11-26T10:16:06Z</time>
      </trkpt>
      <trkpt lat="42.17781" lon="2.2996">
        <ele>1275.2</ele>
        <time>2018-11-26T10:16:07Z</time>
      </trkpt>
      <trkpt lat="42.17782" lon="2.29962">
        <ele>1276.2</ele>
        <time>2018-11-26T10:16:08Z</time>
      </trkpt>
      <trkpt lat="42.17784" lon="2.29964">
        <ele>1277</ele>
        <time>2018-11-26T10:16:09Z</time>
      </trkpt>
      <trkpt lat="42.17785" lon="2.29966">
        <ele>1277</ele>
        <time>2018-11-26T10:16:09Z</time>
      </trkpt>
      <trkpt lat="42.17785" lon="2.29969">
        <ele>1277</ele>
        <time>2018-11-26T10:16:10Z</time>
      </trkpt>
      <trkpt lat="42.17786" lon="2.29971">
        <ele>1277.2</ele>
        <time>2018-11-26T10:16:11Z</time>
      </trkpt>
      <trkpt lat="42.17786" lon="2.29974">
        <ele>1278</ele>
        <time>2018-11-26T10:16:12Z</time>
      </trkpt>
      <trkpt lat="42.17786" lon="2.29977">
        <ele>1278</ele>
        <time>2018-11-26T10:16:13Z</time>
      </trkpt>
      <trkpt lat="42.17787" lon="2.2998">
        <ele>1278.3</ele>
        <time>2018-11-26T10:16:14Z</time>
      </trkpt>
      <trkpt lat="42.17787" lon="2.29983">
        <ele>1279</ele>
        <time>2018-11-26T10:16:15Z</time>
      </trkpt>
      <trkpt lat="42.17787" lon="2.29986">
        <ele>1279.1</ele>
        <time>2018-11-26T10:16:15Z</time>
      </trkpt>
      <trkpt lat="42.17787" lon="2.2999">
        <ele>1279</ele>
        <time>2018-11-26T10:16:17Z</time>
      </trkpt>
      <trkpt lat="42.17787" lon="2.29993">
        <ele>1279.2</ele>
        <time>2018-11-26T10:16:18Z</time>
      </trkpt>
      <trkpt lat="42.17787" lon="2.29996">
        <ele>1280.1</ele>
        <time>2018-11-26T10:16:18Z</time>
      </trkpt>
      <trkpt lat="42.17787" lon="2.29999">
        <ele>1281</ele>
        <time>2018-11-26T10:16:19Z</time>
      </trkpt>
      <trkpt lat="42.17787" lon="2.30002">
        <ele>1281</ele>
        <time>2018-11-26T10:16:20Z</time>
      </trkpt>
      <trkpt lat="42.17787" lon="2.30005">
        <ele>1281.1</ele>
        <time>2018-11-26T10:16:21Z</time>
      </trkpt>
      <trkpt lat="42.17787" lon="2.30009">
        <ele>1282</ele>
        <time>2018-11-26T10:16:22Z</time>
      </trkpt>
      <trkpt lat="42.17787" lon="2.30012">
        <ele>1282.1</ele>
        <time>2018-11-26T10:16:23Z</time>
      </trkpt>
      <trkpt lat="42.17787" lon="2.30015">
        <ele>1282.1</ele>
        <time>2018-11-26T10:16:24Z</time>
      </trkpt>
      <trkpt lat="42.17786" lon="2.30018">
        <ele>1282.1</ele>
        <time>2018-11-26T10:16:25Z</time>
      </trkpt>
      <trkpt lat="42.17787" lon="2.30021">
        <ele>1283.3</ele>
        <time>2018-11-26T10:16:26Z</time>
      </trkpt>
      <trkpt lat="42.17787" lon="2.30025">
        <ele>1285.1</ele>
        <time>2018-11-26T10:16:27Z</time>
      </trkpt>
      <trkpt lat="42.17788" lon="2.30032">
        <ele>1285</ele>
        <time>2018-11-26T10:16:29Z</time>
      </trkpt>
      <trkpt lat="42.17789" lon="2.30036">
        <ele>1285.1</ele>
        <time>2018-11-26T10:16:30Z</time>
      </trkpt>
      <trkpt lat="42.17789" lon="2.3005">
        <ele>1285</ele>
        <time>2018-11-26T10:16:35Z</time>
      </trkpt>
      <trkpt lat="42.17789" lon="2.30053">
        <ele>1285.1</ele>
        <time>2018-11-26T10:16:36Z</time>
      </trkpt>
      <trkpt lat="42.17789" lon="2.30057">
        <ele>1286.1</ele>
        <time>2018-11-26T10:16:37Z</time>
      </trkpt>
      <trkpt lat="42.17788" lon="2.3006">
        <ele>1287.1</ele>
        <time>2018-11-26T10:16:37Z</time>
      </trkpt>
      <trkpt lat="42.17788" lon="2.30065">
        <ele>1288.1</ele>
        <time>2018-11-26T10:16:39Z</time>
      </trkpt>
      <trkpt lat="42.17788" lon="2.30068">
        <ele>1288.2</ele>
        <time>2018-11-26T10:16:40Z</time>
      </trkpt>
      <trkpt lat="42.17788" lon="2.30072">
        <ele>1289.1</ele>
        <time>2018-11-26T10:16:41Z</time>
      </trkpt>
      <trkpt lat="42.17788" lon="2.30075">
        <ele>1289.1</ele>
        <time>2018-11-26T10:16:42Z</time>
      </trkpt>
      <trkpt lat="42.17788" lon="2.30078">
        <ele>1289.2</ele>
        <time>2018-11-26T10:16:43Z</time>
      </trkpt>
      <trkpt lat="42.17789" lon="2.30082">
        <ele>1290.1</ele>
        <time>2018-11-26T10:16:44Z</time>
      </trkpt>
      <trkpt lat="42.17789" lon="2.30085">
        <ele>1290.1</ele>
        <time>2018-11-26T10:16:45Z</time>
      </trkpt>
      <trkpt lat="42.1779" lon="2.30089">
        <ele>1291.2</ele>
        <time>2018-11-26T10:16:46Z</time>
      </trkpt>
      <trkpt lat="42.1779" lon="2.30092">
        <ele>1292.1</ele>
        <time>2018-11-26T10:16:47Z</time>
      </trkpt>
      <trkpt lat="42.17793" lon="2.30097">
        <ele>1293</ele>
        <time>2018-11-26T10:16:49Z</time>
      </trkpt>
      <trkpt lat="42.17794" lon="2.30099">
        <ele>1293</ele>
        <time>2018-11-26T10:16:50Z</time>
      </trkpt>
      <trkpt lat="42.17796" lon="2.30101">
        <ele>1293</ele>
        <time>2018-11-26T10:16:51Z</time>
      </trkpt>
      <trkpt lat="42.17797" lon="2.30103">
        <ele>1293</ele>
        <time>2018-11-26T10:16:51Z</time>
      </trkpt>
      <trkpt lat="42.17798" lon="2.30105">
        <ele>1293</ele>
        <time>2018-11-26T10:16:52Z</time>
      </trkpt>
      <trkpt lat="42.17799" lon="2.30107">
        <ele>1293.1</ele>
        <time>2018-11-26T10:16:53Z</time>
      </trkpt>
      <trkpt lat="42.17801" lon="2.30109">
        <ele>1293.1</ele>
        <time>2018-11-26T10:16:54Z</time>
      </trkpt>
      <trkpt lat="42.17802" lon="2.30111">
        <ele>1294</ele>
        <time>2018-11-26T10:16:55Z</time>
      </trkpt>
      <trkpt lat="42.17803" lon="2.30114">
        <ele>1294.1</ele>
        <time>2018-11-26T10:16:56Z</time>
      </trkpt>
      <trkpt lat="42.17805" lon="2.30116">
        <ele>1294</ele>
        <time>2018-11-26T10:16:56Z</time>
      </trkpt>
      <trkpt lat="42.17806" lon="2.30118">
        <ele>1294</ele>
        <time>2018-11-26T10:16:57Z</time>
      </trkpt>
      <trkpt lat="42.17808" lon="2.3012">
        <ele>1294.2</ele>
        <time>2018-11-26T10:16:58Z</time>
      </trkpt>
      <trkpt lat="42.1781" lon="2.30121">
        <ele>1295</ele>
        <time>2018-11-26T10:16:59Z</time>
      </trkpt>
      <trkpt lat="42.17811" lon="2.30122">
        <ele>1295</ele>
        <time>2018-11-26T10:17:00Z</time>
      </trkpt>
      <trkpt lat="42.17813" lon="2.30124">
        <ele>1294.9</ele>
        <time>2018-11-26T10:17:00Z</time>
      </trkpt>
      <trkpt lat="42.17815" lon="2.30126">
        <ele>1294.2</ele>
        <time>2018-11-26T10:17:01Z</time>
      </trkpt>
      <trkpt lat="42.17817" lon="2.30128">
        <ele>1295.1</ele>
        <time>2018-11-26T10:17:02Z</time>
      </trkpt>
      <trkpt lat="42.17819" lon="2.30129">
        <ele>1295.1</ele>
        <time>2018-11-26T10:17:03Z</time>
      </trkpt>
      <trkpt lat="42.17821" lon="2.3013">
        <ele>1295.3</ele>
        <time>2018-11-26T10:17:04Z</time>
      </trkpt>
      <trkpt lat="42.17823" lon="2.30132">
        <ele>1296</ele>
        <time>2018-11-26T10:17:05Z</time>
      </trkpt>
      <trkpt lat="42.17825" lon="2.30133">
        <ele>1296</ele>
        <time>2018-11-26T10:17:06Z</time>
      </trkpt>
      <trkpt lat="42.17828" lon="2.30134">
        <ele>1296.1</ele>
        <time>2018-11-26T10:17:07Z</time>
      </trkpt>
      <trkpt lat="42.1783" lon="2.30136">
        <ele>1296</ele>
        <time>2018-11-26T10:17:08Z</time>
      </trkpt>
      <trkpt lat="42.17832" lon="2.30137">
        <ele>1296.1</ele>
        <time>2018-11-26T10:17:09Z</time>
      </trkpt>
      <trkpt lat="42.17834" lon="2.30138">
        <ele>1296</ele>
        <time>2018-11-26T10:17:10Z</time>
      </trkpt>
      <trkpt lat="42.17836" lon="2.30139">
        <ele>1296</ele>
        <time>2018-11-26T10:17:11Z</time>
      </trkpt>
      <trkpt lat="42.17837" lon="2.30141">
        <ele>1296.2</ele>
        <time>2018-11-26T10:17:11Z</time>
      </trkpt>
      <trkpt lat="42.17839" lon="2.30143">
        <ele>1297.1</ele>
        <time>2018-11-26T10:17:12Z</time>
      </trkpt>
      <trkpt lat="42.17841" lon="2.30144">
        <ele>1297.1</ele>
        <time>2018-11-26T10:17:13Z</time>
      </trkpt>
      <trkpt lat="42.17843" lon="2.30146">
        <ele>1297.2</ele>
        <time>2018-11-26T10:17:14Z</time>
      </trkpt>
      <trkpt lat="42.17845" lon="2.30148">
        <ele>1298.1</ele>
        <time>2018-11-26T10:17:15Z</time>
      </trkpt>
      <trkpt lat="42.17846" lon="2.30149">
        <ele>1298.1</ele>
        <time>2018-11-26T10:17:16Z</time>
      </trkpt>
      <trkpt lat="42.17848" lon="2.30151">
        <ele>1298.1</ele>
        <time>2018-11-26T10:17:17Z</time>
      </trkpt>
      <trkpt lat="42.1785" lon="2.30153">
        <ele>1298.1</ele>
        <time>2018-11-26T10:17:18Z</time>
      </trkpt>
      <trkpt lat="42.17851" lon="2.30155">
        <ele>1298.2</ele>
        <time>2018-11-26T10:17:18Z</time>
      </trkpt>
      <trkpt lat="42.17853" lon="2.30157">
        <ele>1299.2</ele>
        <time>2018-11-26T10:17:19Z</time>
      </trkpt>
      <trkpt lat="42.17855" lon="2.3016">
        <ele>1300.3</ele>
        <time>2018-11-26T10:17:21Z</time>
      </trkpt>
      <trkpt lat="42.17857" lon="2.30161">
        <ele>1301</ele>
        <time>2018-11-26T10:17:21Z</time>
      </trkpt>
      <trkpt lat="42.17858" lon="2.30163">
        <ele>1301</ele>
        <time>2018-11-26T10:17:22Z</time>
      </trkpt>
      <trkpt lat="42.17859" lon="2.30165">
        <ele>1301.2</ele>
        <time>2018-11-26T10:17:23Z</time>
      </trkpt>
      <trkpt lat="42.17861" lon="2.30168">
        <ele>1302.1</ele>
        <time>2018-11-26T10:17:24Z</time>
      </trkpt>
      <trkpt lat="42.17862" lon="2.3017">
        <ele>1302</ele>
        <time>2018-11-26T10:17:25Z</time>
      </trkpt>
      <trkpt lat="42.17863" lon="2.30172">
        <ele>1302</ele>
        <time>2018-11-26T10:17:25Z</time>
      </trkpt>
      <trkpt lat="42.17866" lon="2.30176">
        <ele>1303</ele>
        <time>2018-11-26T10:17:27Z</time>
      </trkpt>
      <trkpt lat="42.17868" lon="2.30179">
        <ele>1304.1</ele>
        <time>2018-11-26T10:17:28Z</time>
      </trkpt>
      <trkpt lat="42.1787" lon="2.30181">
        <ele>1304</ele>
        <time>2018-11-26T10:17:29Z</time>
      </trkpt>
      <trkpt lat="42.17872" lon="2.30184">
        <ele>1304.1</ele>
        <time>2018-11-26T10:17:30Z</time>
      </trkpt>
      <trkpt lat="42.17874" lon="2.30187">
        <ele>1303.9</ele>
        <time>2018-11-26T10:17:32Z</time>
      </trkpt>
      <trkpt lat="42.17875" lon="2.3019">
        <ele>1303</ele>
        <time>2018-11-26T10:17:33Z</time>
      </trkpt>
      <trkpt lat="42.17875" lon="2.30193">
        <ele>1303</ele>
        <time>2018-11-26T10:17:33Z</time>
      </trkpt>
      <trkpt lat="42.17875" lon="2.30196">
        <ele>1303.1</ele>
        <time>2018-11-26T10:17:34Z</time>
      </trkpt>
      <trkpt lat="42.17873" lon="2.30199">
        <ele>1303</ele>
        <time>2018-11-26T10:17:36Z</time>
      </trkpt>
      <trkpt lat="42.17871" lon="2.30201">
        <ele>1304</ele>
        <time>2018-11-26T10:17:37Z</time>
      </trkpt>
      <trkpt lat="42.17868" lon="2.30204">
        <ele>1304</ele>
        <time>2018-11-26T10:17:38Z</time>
      </trkpt>
      <trkpt lat="42.17866" lon="2.30206">
        <ele>1304.1</ele>
        <time>2018-11-26T10:17:39Z</time>
      </trkpt>
      <trkpt lat="42.17864" lon="2.30208">
        <ele>1304.1</ele>
        <time>2018-11-26T10:17:40Z</time>
      </trkpt>
      <trkpt lat="42.17866" lon="2.30207">
        <ele>1304</ele>
        <time>2018-11-26T10:17:41Z</time>
      </trkpt>
      <trkpt lat="42.17868" lon="2.30205">
        <ele>1303.6</ele>
        <time>2018-11-26T10:17:42Z</time>
      </trkpt>
      <trkpt lat="42.1787" lon="2.30203">
        <ele>1303</ele>
        <time>2018-11-26T10:17:43Z</time>
      </trkpt>
      <trkpt lat="42.17872" lon="2.30201">
        <ele>1303.1</ele>
        <time>2018-11-26T10:17:44Z</time>
      </trkpt>
      <trkpt lat="42.17875" lon="2.30199">
        <ele>1302.8</ele>
        <time>2018-11-26T10:17:45Z</time>
      </trkpt>
      <trkpt lat="42.17876" lon="2.30201">
        <ele>1302</ele>
        <time>2018-11-26T10:17:46Z</time>
      </trkpt>
      <trkpt lat="42.17877" lon="2.30204">
        <ele>1302</ele>
        <time>2018-11-26T10:17:46Z</time>
      </trkpt>
      <trkpt lat="42.17876" lon="2.30206">
        <ele>1302.1</ele>
        <time>2018-11-26T10:17:47Z</time>
      </trkpt>
      <trkpt lat="42.17874" lon="2.30209">
        <ele>1303</ele>
        <time>2018-11-26T10:17:48Z</time>
      </trkpt>
      <trkpt lat="42.17872" lon="2.30211">
        <ele>1303.1</ele>
        <time>2018-11-26T10:17:49Z</time>
      </trkpt>
      <trkpt lat="42.1787" lon="2.30213">
        <ele>1302.8</ele>
        <time>2018-11-26T10:17:51Z</time>
      </trkpt>
      <trkpt lat="42.17867" lon="2.30215">
        <ele>1302</ele>
        <time>2018-11-26T10:17:52Z</time>
      </trkpt>
      <trkpt lat="42.17865" lon="2.30217">
        <ele>1302.1</ele>
        <time>2018-11-26T10:17:53Z</time>
      </trkpt>
      <trkpt lat="42.17863" lon="2.30219">
        <ele>1302.1</ele>
        <time>2018-11-26T10:17:54Z</time>
      </trkpt>
      <trkpt lat="42.17861" lon="2.30221">
        <ele>1301</ele>
        <time>2018-11-26T10:17:55Z</time>
      </trkpt>
      <trkpt lat="42.1786" lon="2.30224">
        <ele>1300.9</ele>
        <time>2018-11-26T10:17:56Z</time>
      </trkpt>
      <trkpt lat="42.17858" lon="2.30226">
        <ele>1301</ele>
        <time>2018-11-26T10:17:57Z</time>
      </trkpt>
      <trkpt lat="42.17857" lon="2.30229">
        <ele>1301</ele>
        <time>2018-11-26T10:17:58Z</time>
      </trkpt>
      <trkpt lat="42.17856" lon="2.30231">
        <ele>1300</ele>
        <time>2018-11-26T10:17:58Z</time>
      </trkpt>
      <trkpt lat="42.17854" lon="2.30235">
        <ele>1301.1</ele>
        <time>2018-11-26T10:18:00Z</time>
      </trkpt>
      <trkpt lat="42.17851" lon="2.30237">
        <ele>1300.8</ele>
        <time>2018-11-26T10:18:01Z</time>
      </trkpt>
      <trkpt lat="42.17849" lon="2.3024">
        <ele>1300.1</ele>
        <time>2018-11-26T10:18:02Z</time>
      </trkpt>
      <trkpt lat="42.17847" lon="2.30242">
        <ele>1301</ele>
        <time>2018-11-26T10:18:03Z</time>
      </trkpt>
      <trkpt lat="42.17845" lon="2.30245">
        <ele>1301</ele>
        <time>2018-11-26T10:18:04Z</time>
      </trkpt>
      <trkpt lat="42.17842" lon="2.30247">
        <ele>1300.1</ele>
        <time>2018-11-26T10:18:06Z</time>
      </trkpt>
      <trkpt lat="42.1784" lon="2.30249">
        <ele>1300.1</ele>
        <time>2018-11-26T10:18:06Z</time>
      </trkpt>
      <trkpt lat="42.17839" lon="2.3025">
        <ele>1300.1</ele>
        <time>2018-11-26T10:18:07Z</time>
      </trkpt>
      <trkpt lat="42.17837" lon="2.30252">
        <ele>1300.1</ele>
        <time>2018-11-26T10:18:08Z</time>
      </trkpt>
      <trkpt lat="42.17835" lon="2.30254">
        <ele>1299.6</ele>
        <time>2018-11-26T10:18:09Z</time>
      </trkpt>
      <trkpt lat="42.17834" lon="2.30255">
        <ele>1299</ele>
        <time>2018-11-26T10:18:10Z</time>
      </trkpt>
      <trkpt lat="42.17832" lon="2.30257">
        <ele>1299</ele>
        <time>2018-11-26T10:18:11Z</time>
      </trkpt>
      <trkpt lat="42.17829" lon="2.30258">
        <ele>1299.1</ele>
        <time>2018-11-26T10:18:12Z</time>
      </trkpt>
      <trkpt lat="42.17827" lon="2.3026">
        <ele>1299.1</ele>
        <time>2018-11-26T10:18:13Z</time>
      </trkpt>
      <trkpt lat="42.17824" lon="2.30261">
        <ele>1299</ele>
        <time>2018-11-26T10:18:14Z</time>
      </trkpt>
      <trkpt lat="42.17822" lon="2.30262">
        <ele>1299</ele>
        <time>2018-11-26T10:18:15Z</time>
      </trkpt>
      <trkpt lat="42.17819" lon="2.30264">
        <ele>1299.1</ele>
        <time>2018-11-26T10:18:16Z</time>
      </trkpt>
      <trkpt lat="42.17817" lon="2.30265">
        <ele>1299.1</ele>
        <time>2018-11-26T10:18:17Z</time>
      </trkpt>
      <trkpt lat="42.17814" lon="2.30266">
        <ele>1298.8</ele>
        <time>2018-11-26T10:18:18Z</time>
      </trkpt>
      <trkpt lat="42.17812" lon="2.30267">
        <ele>1298.1</ele>
        <time>2018-11-26T10:18:19Z</time>
      </trkpt>
      <trkpt lat="42.1781" lon="2.30269">
        <ele>1297.6</ele>
        <time>2018-11-26T10:18:20Z</time>
      </trkpt>
      <trkpt lat="42.17807" lon="2.30271">
        <ele>1297</ele>
        <time>2018-11-26T10:18:21Z</time>
      </trkpt>
      <trkpt lat="42.17805" lon="2.30271">
        <ele>1297</ele>
        <time>2018-11-26T10:18:22Z</time>
      </trkpt>
      <trkpt lat="42.17803" lon="2.30272">
        <ele>1297.1</ele>
        <time>2018-11-26T10:18:23Z</time>
      </trkpt>
      <trkpt lat="42.17801" lon="2.30272">
        <ele>1297.1</ele>
        <time>2018-11-26T10:18:24Z</time>
      </trkpt>
      <trkpt lat="42.17799" lon="2.30273">
        <ele>1296.8</ele>
        <time>2018-11-26T10:18:25Z</time>
      </trkpt>
      <trkpt lat="42.17797" lon="2.30274">
        <ele>1295</ele>
        <time>2018-11-26T10:18:26Z</time>
      </trkpt>
      <trkpt lat="42.17794" lon="2.30274">
        <ele>1295</ele>
        <time>2018-11-26T10:18:27Z</time>
      </trkpt>
      <trkpt lat="42.17791" lon="2.30274">
        <ele>1295.1</ele>
        <time>2018-11-26T10:18:28Z</time>
      </trkpt>
      <trkpt lat="42.17789" lon="2.30275">
        <ele>1295</ele>
        <time>2018-11-26T10:18:29Z</time>
      </trkpt>
      <trkpt lat="42.17786" lon="2.30276">
        <ele>1295</ele>
        <time>2018-11-26T10:18:30Z</time>
      </trkpt>
      <trkpt lat="42.17783" lon="2.30277">
        <ele>1294.1</ele>
        <time>2018-11-26T10:18:31Z</time>
      </trkpt>
      <trkpt lat="42.17781" lon="2.30278">
        <ele>1294</ele>
        <time>2018-11-26T10:18:32Z</time>
      </trkpt>
      <trkpt lat="42.17778" lon="2.30278">
        <ele>1294</ele>
        <time>2018-11-26T10:18:33Z</time>
      </trkpt>
      <trkpt lat="42.17775" lon="2.30279">
        <ele>1294</ele>
        <time>2018-11-26T10:18:35Z</time>
      </trkpt>
      <trkpt lat="42.17772" lon="2.3028">
        <ele>1294.1</ele>
        <time>2018-11-26T10:18:36Z</time>
      </trkpt>
      <trkpt lat="42.1777" lon="2.3028">
        <ele>1293.1</ele>
        <time>2018-11-26T10:18:37Z</time>
      </trkpt>
      <trkpt lat="42.17767" lon="2.3028">
        <ele>1293.1</ele>
        <time>2018-11-26T10:18:38Z</time>
      </trkpt>
      <trkpt lat="42.17765" lon="2.3028">
        <ele>1293</ele>
        <time>2018-11-26T10:18:39Z</time>
      </trkpt>
      <trkpt lat="42.17762" lon="2.3028">
        <ele>1293.1</ele>
        <time>2018-11-26T10:18:40Z</time>
      </trkpt>
      <trkpt lat="42.17759" lon="2.30279">
        <ele>1293</ele>
        <time>2018-11-26T10:18:41Z</time>
      </trkpt>
      <trkpt lat="42.17756" lon="2.3028">
        <ele>1292.1</ele>
        <time>2018-11-26T10:18:42Z</time>
      </trkpt>
      <trkpt lat="42.17754" lon="2.30281">
        <ele>1292.1</ele>
        <time>2018-11-26T10:18:43Z</time>
      </trkpt>
      <trkpt lat="42.17751" lon="2.30282">
        <ele>1292.1</ele>
        <time>2018-11-26T10:18:44Z</time>
      </trkpt>
      <trkpt lat="42.17749" lon="2.30283">
        <ele>1292.1</ele>
        <time>2018-11-26T10:18:45Z</time>
      </trkpt>
      <trkpt lat="42.17746" lon="2.30283">
        <ele>1292</ele>
        <time>2018-11-26T10:18:46Z</time>
      </trkpt>
      <trkpt lat="42.17744" lon="2.30284">
        <ele>1292</ele>
        <time>2018-11-26T10:18:47Z</time>
      </trkpt>
      <trkpt lat="42.17742" lon="2.30285">
        <ele>1292</ele>
        <time>2018-11-26T10:18:48Z</time>
      </trkpt>
      <trkpt lat="42.1774" lon="2.30286">
        <ele>1292.1</ele>
        <time>2018-11-26T10:18:49Z</time>
      </trkpt>
      <trkpt lat="42.17738" lon="2.30286">
        <ele>1291.7</ele>
        <time>2018-11-26T10:18:50Z</time>
      </trkpt>
      <trkpt lat="42.17735" lon="2.30286">
        <ele>1291.1</ele>
        <time>2018-11-26T10:18:51Z</time>
      </trkpt>
      <trkpt lat="42.17732" lon="2.30287">
        <ele>1292.1</ele>
        <time>2018-11-26T10:18:52Z</time>
      </trkpt>
      <trkpt lat="42.17729" lon="2.30287">
        <ele>1292.1</ele>
        <time>2018-11-26T10:18:53Z</time>
      </trkpt>
      <trkpt lat="42.17727" lon="2.30288">
        <ele>1291.9</ele>
        <time>2018-11-26T10:18:54Z</time>
      </trkpt>
      <trkpt lat="42.17724" lon="2.3029">
        <ele>1291.1</ele>
        <time>2018-11-26T10:18:56Z</time>
      </trkpt>
      <trkpt lat="42.1772" lon="2.30289">
        <ele>1291.1</ele>
        <time>2018-11-26T10:18:57Z</time>
      </trkpt>
      <trkpt lat="42.17717" lon="2.30288">
        <ele>1291</ele>
        <time>2018-11-26T10:18:58Z</time>
      </trkpt>
      <trkpt lat="42.17713" lon="2.30288">
        <ele>1291</ele>
        <time>2018-11-26T10:19:00Z</time>
      </trkpt>
      <trkpt lat="42.17709" lon="2.30287">
        <ele>1291</ele>
        <time>2018-11-26T10:19:01Z</time>
      </trkpt>
      <trkpt lat="42.17707" lon="2.30288">
        <ele>1291.1</ele>
        <time>2018-11-26T10:19:03Z</time>
      </trkpt>
      <trkpt lat="42.17704" lon="2.30287">
        <ele>1292</ele>
        <time>2018-11-26T10:19:04Z</time>
      </trkpt>
      <trkpt lat="42.17702" lon="2.30287">
        <ele>1292</ele>
        <time>2018-11-26T10:19:04Z</time>
      </trkpt>
      <trkpt lat="42.177" lon="2.30286">
        <ele>1292.1</ele>
        <time>2018-11-26T10:19:05Z</time>
      </trkpt>
      <trkpt lat="42.17697" lon="2.30285">
        <ele>1292</ele>
        <time>2018-11-26T10:19:07Z</time>
      </trkpt>
      <trkpt lat="42.17694" lon="2.30285">
        <ele>1292</ele>
        <time>2018-11-26T10:19:08Z</time>
      </trkpt>
      <trkpt lat="42.17691" lon="2.30286">
        <ele>1292.1</ele>
        <time>2018-11-26T10:19:09Z</time>
      </trkpt>
      <trkpt lat="42.17687" lon="2.30286">
        <ele>1292.1</ele>
        <time>2018-11-26T10:19:10Z</time>
      </trkpt>
      <trkpt lat="42.17684" lon="2.30286">
        <ele>1293.1</ele>
        <time>2018-11-26T10:19:12Z</time>
      </trkpt>
      <trkpt lat="42.17681" lon="2.30286">
        <ele>1293.1</ele>
        <time>2018-11-26T10:19:13Z</time>
      </trkpt>
      <trkpt lat="42.17678" lon="2.30286">
        <ele>1293</ele>
        <time>2018-11-26T10:19:14Z</time>
      </trkpt>
      <trkpt lat="42.17675" lon="2.30287">
        <ele>1293</ele>
        <time>2018-11-26T10:19:15Z</time>
      </trkpt>
      <trkpt lat="42.17673" lon="2.30287">
        <ele>1293</ele>
        <time>2018-11-26T10:19:16Z</time>
      </trkpt>
      <trkpt lat="42.17671" lon="2.30288">
        <ele>1293.1</ele>
        <time>2018-11-26T10:19:17Z</time>
      </trkpt>
      <trkpt lat="42.17669" lon="2.30289">
        <ele>1292.8</ele>
        <time>2018-11-26T10:19:18Z</time>
      </trkpt>
      <trkpt lat="42.17666" lon="2.30289">
        <ele>1292</ele>
        <time>2018-11-26T10:19:19Z</time>
      </trkpt>
      <trkpt lat="42.17664" lon="2.30288">
        <ele>1292</ele>
        <time>2018-11-26T10:19:20Z</time>
      </trkpt>
      <trkpt lat="42.17661" lon="2.30288">
        <ele>1292.1</ele>
        <time>2018-11-26T10:19:21Z</time>
      </trkpt>
      <trkpt lat="42.17658" lon="2.30288">
        <ele>1292.1</ele>
        <time>2018-11-26T10:19:22Z</time>
      </trkpt>
      <trkpt lat="42.17656" lon="2.30288">
        <ele>1292.1</ele>
        <time>2018-11-26T10:19:23Z</time>
      </trkpt>
      <trkpt lat="42.17653" lon="2.30288">
        <ele>1293.1</ele>
        <time>2018-11-26T10:19:24Z</time>
      </trkpt>
      <trkpt lat="42.17651" lon="2.30288">
        <ele>1293</ele>
        <time>2018-11-26T10:19:25Z</time>
      </trkpt>
      <trkpt lat="42.17649" lon="2.30288">
        <ele>1293</ele>
        <time>2018-11-26T10:19:26Z</time>
      </trkpt>
      <trkpt lat="42.17647" lon="2.30286">
        <ele>1293</ele>
        <time>2018-11-26T10:19:27Z</time>
      </trkpt>
      <trkpt lat="42.17644" lon="2.30286">
        <ele>1293.1</ele>
        <time>2018-11-26T10:19:28Z</time>
      </trkpt>
      <trkpt lat="42.17641" lon="2.30285">
        <ele>1292.9</ele>
        <time>2018-11-26T10:19:29Z</time>
      </trkpt>
      <trkpt lat="42.17639" lon="2.30285">
        <ele>1292</ele>
        <time>2018-11-26T10:19:30Z</time>
      </trkpt>
      <trkpt lat="42.17635" lon="2.30285">
        <ele>1292.1</ele>
        <time>2018-11-26T10:19:31Z</time>
      </trkpt>
      <trkpt lat="42.17632" lon="2.30286">
        <ele>1292.1</ele>
        <time>2018-11-26T10:19:33Z</time>
      </trkpt>
      <trkpt lat="42.1763" lon="2.30286">
        <ele>1292.1</ele>
        <time>2018-11-26T10:19:33Z</time>
      </trkpt>
      <trkpt lat="42.17628" lon="2.30286">
        <ele>1291.1</ele>
        <time>2018-11-26T10:19:34Z</time>
      </trkpt>
      <trkpt lat="42.17626" lon="2.30286">
        <ele>1291.1</ele>
        <time>2018-11-26T10:19:35Z</time>
      </trkpt>
      <trkpt lat="42.17624" lon="2.30286">
        <ele>1290</ele>
        <time>2018-11-26T10:19:36Z</time>
      </trkpt>
      <trkpt lat="42.17621" lon="2.30286">
        <ele>1290</ele>
        <time>2018-11-26T10:19:37Z</time>
      </trkpt>
      <trkpt lat="42.17619" lon="2.30286">
        <ele>1289.8</ele>
        <time>2018-11-26T10:19:38Z</time>
      </trkpt>
      <trkpt lat="42.17617" lon="2.30285">
        <ele>1289</ele>
        <time>2018-11-26T10:19:39Z</time>
      </trkpt>
      <trkpt lat="42.17615" lon="2.30285">
        <ele>1289</ele>
        <time>2018-11-26T10:19:40Z</time>
      </trkpt>
      <trkpt lat="42.17613" lon="2.30284">
        <ele>1289</ele>
        <time>2018-11-26T10:19:41Z</time>
      </trkpt>
      <trkpt lat="42.1761" lon="2.30282">
        <ele>1289.1</ele>
        <time>2018-11-26T10:19:42Z</time>
      </trkpt>
      <trkpt lat="42.17608" lon="2.30281">
        <ele>1289</ele>
        <time>2018-11-26T10:19:43Z</time>
      </trkpt>
      <trkpt lat="42.17605" lon="2.3028">
        <ele>1289</ele>
        <time>2018-11-26T10:19:44Z</time>
      </trkpt>
      <trkpt lat="42.17603" lon="2.3028">
        <ele>1288.1</ele>
        <time>2018-11-26T10:19:45Z</time>
      </trkpt>
      <trkpt lat="42.176" lon="2.30279">
        <ele>1288.2</ele>
        <time>2018-11-26T10:19:46Z</time>
      </trkpt>
      <trkpt lat="42.17597" lon="2.30278">
        <ele>1288</ele>
        <time>2018-11-26T10:19:47Z</time>
      </trkpt>
      <trkpt lat="42.17595" lon="2.30277">
        <ele>1288.1</ele>
        <time>2018-11-26T10:19:48Z</time>
      </trkpt>
      <trkpt lat="42.17592" lon="2.30276">
        <ele>1288</ele>
        <time>2018-11-26T10:19:49Z</time>
      </trkpt>
      <trkpt lat="42.17588" lon="2.30274">
        <ele>1288</ele>
        <time>2018-11-26T10:19:51Z</time>
      </trkpt>
      <trkpt lat="42.17585" lon="2.30273">
        <ele>1288</ele>
        <time>2018-11-26T10:19:52Z</time>
      </trkpt>
      <trkpt lat="42.17583" lon="2.30272">
        <ele>1288</ele>
        <time>2018-11-26T10:19:53Z</time>
      </trkpt>
      <trkpt lat="42.1758" lon="2.3027">
        <ele>1287</ele>
        <time>2018-11-26T10:19:54Z</time>
      </trkpt>
      <trkpt lat="42.17578" lon="2.30268">
        <ele>1287</ele>
        <time>2018-11-26T10:19:55Z</time>
      </trkpt>
      <trkpt lat="42.17575" lon="2.30267">
        <ele>1287</ele>
        <time>2018-11-26T10:19:57Z</time>
      </trkpt>
      <trkpt lat="42.17572" lon="2.30266">
        <ele>1287</ele>
        <time>2018-11-26T10:19:58Z</time>
      </trkpt>
      <trkpt lat="42.17569" lon="2.30264">
        <ele>1287.1</ele>
        <time>2018-11-26T10:19:59Z</time>
      </trkpt>
      <trkpt lat="42.17567" lon="2.30263">
        <ele>1286</ele>
        <time>2018-11-26T10:20:00Z</time>
      </trkpt>
      <trkpt lat="42.17564" lon="2.30261">
        <ele>1286</ele>
        <time>2018-11-26T10:20:01Z</time>
      </trkpt>
      <trkpt lat="42.17562" lon="2.30259">
        <ele>1286.1</ele>
        <time>2018-11-26T10:20:02Z</time>
      </trkpt>
      <trkpt lat="42.17559" lon="2.30258">
        <ele>1286.1</ele>
        <time>2018-11-26T10:20:04Z</time>
      </trkpt>
      <trkpt lat="42.17556" lon="2.30257">
        <ele>1286</ele>
        <time>2018-11-26T10:20:05Z</time>
      </trkpt>
      <trkpt lat="42.17553" lon="2.30257">
        <ele>1285</ele>
        <time>2018-11-26T10:20:06Z</time>
      </trkpt>
      <trkpt lat="42.1755" lon="2.30258">
        <ele>1285</ele>
        <time>2018-11-26T10:20:07Z</time>
      </trkpt>
      <trkpt lat="42.17547" lon="2.30259">
        <ele>1285</ele>
        <time>2018-11-26T10:20:08Z</time>
      </trkpt>
      <trkpt lat="42.17545" lon="2.30259">
        <ele>1285.1</ele>
        <time>2018-11-26T10:20:09Z</time>
      </trkpt>
      <trkpt lat="42.17542" lon="2.30259">
        <ele>1284.1</ele>
        <time>2018-11-26T10:20:11Z</time>
      </trkpt>
      <trkpt lat="42.17538" lon="2.30259">
        <ele>1284.1</ele>
        <time>2018-11-26T10:20:12Z</time>
      </trkpt>
      <trkpt lat="42.17536" lon="2.30259">
        <ele>1284</ele>
        <time>2018-11-26T10:20:13Z</time>
      </trkpt>
      <trkpt lat="42.17533" lon="2.30259">
        <ele>1284.1</ele>
        <time>2018-11-26T10:20:14Z</time>
      </trkpt>
      <trkpt lat="42.1753" lon="2.3026">
        <ele>1284.1</ele>
        <time>2018-11-26T10:20:15Z</time>
      </trkpt>
      <trkpt lat="42.17528" lon="2.3026">
        <ele>1283.8</ele>
        <time>2018-11-26T10:20:16Z</time>
      </trkpt>
      <trkpt lat="42.17525" lon="2.30261">
        <ele>1283.1</ele>
        <time>2018-11-26T10:20:17Z</time>
      </trkpt>
      <trkpt lat="42.17524" lon="2.30262">
        <ele>1282.7</ele>
        <time>2018-11-26T10:20:18Z</time>
      </trkpt>
      <trkpt lat="42.17521" lon="2.30264">
        <ele>1281.8</ele>
        <time>2018-11-26T10:20:19Z</time>
      </trkpt>
      <trkpt lat="42.17519" lon="2.30266">
        <ele>1281.1</ele>
        <time>2018-11-26T10:20:20Z</time>
      </trkpt>
      <trkpt lat="42.17517" lon="2.30268">
        <ele>1281.1</ele>
        <time>2018-11-26T10:20:21Z</time>
      </trkpt>
      <trkpt lat="42.17515" lon="2.3027">
        <ele>1281</ele>
        <time>2018-11-26T10:20:22Z</time>
      </trkpt>
      <trkpt lat="42.17512" lon="2.30272">
        <ele>1281</ele>
        <time>2018-11-26T10:20:23Z</time>
      </trkpt>
      <trkpt lat="42.17509" lon="2.30275">
        <ele>1281.1</ele>
        <time>2018-11-26T10:20:25Z</time>
      </trkpt>
      <trkpt lat="42.17507" lon="2.30276">
        <ele>1281.1</ele>
        <time>2018-11-26T10:20:26Z</time>
      </trkpt>
      <trkpt lat="42.17505" lon="2.30277">
        <ele>1281</ele>
        <time>2018-11-26T10:20:27Z</time>
      </trkpt>
      <trkpt lat="42.17502" lon="2.30278">
        <ele>1281.1</ele>
        <time>2018-11-26T10:20:28Z</time>
      </trkpt>
      <trkpt lat="42.175" lon="2.30281">
        <ele>1281.1</ele>
        <time>2018-11-26T10:20:29Z</time>
      </trkpt>
      <trkpt lat="42.17497" lon="2.30283">
        <ele>1280.7</ele>
        <time>2018-11-26T10:20:30Z</time>
      </trkpt>
      <trkpt lat="42.17495" lon="2.30285">
        <ele>1280</ele>
        <time>2018-11-26T10:20:31Z</time>
      </trkpt>
      <trkpt lat="42.17493" lon="2.30286">
        <ele>1280</ele>
        <time>2018-11-26T10:20:32Z</time>
      </trkpt>
      <trkpt lat="42.17491" lon="2.30288">
        <ele>1279.1</ele>
        <time>2018-11-26T10:20:33Z</time>
      </trkpt>
      <trkpt lat="42.17488" lon="2.30289">
        <ele>1279</ele>
        <time>2018-11-26T10:20:34Z</time>
      </trkpt>
      <trkpt lat="42.17486" lon="2.30291">
        <ele>1278.8</ele>
        <time>2018-11-26T10:20:35Z</time>
      </trkpt>
      <trkpt lat="42.17483" lon="2.30293">
        <ele>1278.1</ele>
        <time>2018-11-26T10:20:37Z</time>
      </trkpt>
      <trkpt lat="42.1748" lon="2.30294">
        <ele>1278.1</ele>
        <time>2018-11-26T10:20:38Z</time>
      </trkpt>
      <trkpt lat="42.17477" lon="2.30292">
        <ele>1278.1</ele>
        <time>2018-11-26T10:20:39Z</time>
      </trkpt>
      <trkpt lat="42.17475" lon="2.30291">
        <ele>1278.1</ele>
        <time>2018-11-26T10:20:40Z</time>
      </trkpt>
      <trkpt lat="42.17472" lon="2.30289">
        <ele>1279</ele>
        <time>2018-11-26T10:20:41Z</time>
      </trkpt>
      <trkpt lat="42.1747" lon="2.30287">
        <ele>1279.1</ele>
        <time>2018-11-26T10:20:42Z</time>
      </trkpt>
      <trkpt lat="42.17467" lon="2.30286">
        <ele>1280.1</ele>
        <time>2018-11-26T10:20:44Z</time>
      </trkpt>
      <trkpt lat="42.17465" lon="2.30284">
        <ele>1280</ele>
        <time>2018-11-26T10:20:45Z</time>
      </trkpt>
      <trkpt lat="42.17462" lon="2.30283">
        <ele>1280</ele>
        <time>2018-11-26T10:20:46Z</time>
      </trkpt>
      <trkpt lat="42.1746" lon="2.30281">
        <ele>1280.1</ele>
        <time>2018-11-26T10:20:47Z</time>
      </trkpt>
      <trkpt lat="42.17459" lon="2.30279">
        <ele>1281.1</ele>
        <time>2018-11-26T10:20:47Z</time>
      </trkpt>
      <trkpt lat="42.17457" lon="2.30277">
        <ele>1281</ele>
        <time>2018-11-26T10:20:48Z</time>
      </trkpt>
      <trkpt lat="42.17455" lon="2.30276">
        <ele>1281.1</ele>
        <time>2018-11-26T10:20:49Z</time>
      </trkpt>
      <trkpt lat="42.17453" lon="2.30274">
        <ele>1282.1</ele>
        <time>2018-11-26T10:20:50Z</time>
      </trkpt>
      <trkpt lat="42.17451" lon="2.30272">
        <ele>1282.1</ele>
        <time>2018-11-26T10:20:51Z</time>
      </trkpt>
      <trkpt lat="42.17449" lon="2.3027">
        <ele>1282</ele>
        <time>2018-11-26T10:20:52Z</time>
      </trkpt>
      <trkpt lat="42.17447" lon="2.30268">
        <ele>1282</ele>
        <time>2018-11-26T10:20:53Z</time>
      </trkpt>
      <trkpt lat="42.17446" lon="2.30264">
        <ele>1282.1</ele>
        <time>2018-11-26T10:20:54Z</time>
      </trkpt>
      <trkpt lat="42.17445" lon="2.30261">
        <ele>1282</ele>
        <time>2018-11-26T10:20:55Z</time>
      </trkpt>
      <trkpt lat="42.17443" lon="2.30258">
        <ele>1282</ele>
        <time>2018-11-26T10:20:56Z</time>
      </trkpt>
      <trkpt lat="42.17441" lon="2.30256">
        <ele>1282</ele>
        <time>2018-11-26T10:20:58Z</time>
      </trkpt>
      <trkpt lat="42.17439" lon="2.30253">
        <ele>1282.1</ele>
        <time>2018-11-26T10:20:59Z</time>
      </trkpt>
      <trkpt lat="42.17438" lon="2.3025">
        <ele>1282.1</ele>
        <time>2018-11-26T10:21:00Z</time>
      </trkpt>
      <trkpt lat="42.17436" lon="2.30247">
        <ele>1283</ele>
        <time>2018-11-26T10:21:01Z</time>
      </trkpt>
      <trkpt lat="42.17433" lon="2.30242">
        <ele>1283</ele>
        <time>2018-11-26T10:21:03Z</time>
      </trkpt>
      <trkpt lat="42.17432" lon="2.3024">
        <ele>1283.1</ele>
        <time>2018-11-26T10:21:03Z</time>
      </trkpt>
      <trkpt lat="42.1743" lon="2.30239">
        <ele>1283</ele>
        <time>2018-11-26T10:21:04Z</time>
      </trkpt>
      <trkpt lat="42.17429" lon="2.30236">
        <ele>1283.1</ele>
        <time>2018-11-26T10:21:05Z</time>
      </trkpt>
      <trkpt lat="42.17428" lon="2.30233">
        <ele>1283</ele>
        <time>2018-11-26T10:21:06Z</time>
      </trkpt>
      <trkpt lat="42.17426" lon="2.30229">
        <ele>1283.1</ele>
        <time>2018-11-26T10:21:07Z</time>
      </trkpt>
      <trkpt lat="42.17425" lon="2.30227">
        <ele>1283.1</ele>
        <time>2018-11-26T10:21:08Z</time>
      </trkpt>
      <trkpt lat="42.17423" lon="2.30225">
        <ele>1282</ele>
        <time>2018-11-26T10:21:09Z</time>
      </trkpt>
      <trkpt lat="42.17422" lon="2.30221">
        <ele>1282</ele>
        <time>2018-11-26T10:21:10Z</time>
      </trkpt>
      <trkpt lat="42.1742" lon="2.30219">
        <ele>1282</ele>
        <time>2018-11-26T10:21:11Z</time>
      </trkpt>
      <trkpt lat="42.17419" lon="2.30216">
        <ele>1281.8</ele>
        <time>2018-11-26T10:21:12Z</time>
      </trkpt>
      <trkpt lat="42.17417" lon="2.30214">
        <ele>1281.1</ele>
        <time>2018-11-26T10:21:13Z</time>
      </trkpt>
      <trkpt lat="42.17415" lon="2.30212">
        <ele>1281</ele>
        <time>2018-11-26T10:21:14Z</time>
      </trkpt>
      <trkpt lat="42.17413" lon="2.3021">
        <ele>1281.1</ele>
        <time>2018-11-26T10:21:15Z</time>
      </trkpt>
      <trkpt lat="42.17411" lon="2.30208">
        <ele>1281.1</ele>
        <time>2018-11-26T10:21:16Z</time>
      </trkpt>
      <trkpt lat="42.17409" lon="2.30206">
        <ele>1281.1</ele>
        <time>2018-11-26T10:21:17Z</time>
      </trkpt>
      <trkpt lat="42.17406" lon="2.30204">
        <ele>1281.1</ele>
        <time>2018-11-26T10:21:19Z</time>
      </trkpt>
      <trkpt lat="42.17402" lon="2.30201">
        <ele>1281.1</ele>
        <time>2018-11-26T10:21:20Z</time>
      </trkpt>
      <trkpt lat="42.17399" lon="2.302">
        <ele>1281.1</ele>
        <time>2018-11-26T10:21:22Z</time>
      </trkpt>
      <trkpt lat="42.17397" lon="2.30198">
        <ele>1281</ele>
        <time>2018-11-26T10:21:23Z</time>
      </trkpt>
      <trkpt lat="42.17395" lon="2.30195">
        <ele>1281</ele>
        <time>2018-11-26T10:21:24Z</time>
      </trkpt>
      <trkpt lat="42.17392" lon="2.30193">
        <ele>1281.1</ele>
        <time>2018-11-26T10:21:25Z</time>
      </trkpt>
      <trkpt lat="42.17389" lon="2.30191">
        <ele>1280.9</ele>
        <time>2018-11-26T10:21:27Z</time>
      </trkpt>
      <trkpt lat="42.17385" lon="2.3019">
        <ele>1280.1</ele>
        <time>2018-11-26T10:21:28Z</time>
      </trkpt>
      <trkpt lat="42.17382" lon="2.30191">
        <ele>1280.1</ele>
        <time>2018-11-26T10:21:29Z</time>
      </trkpt>
      <trkpt lat="42.17379" lon="2.30192">
        <ele>1280.1</ele>
        <time>2018-11-26T10:21:31Z</time>
      </trkpt>
      <trkpt lat="42.17377" lon="2.30192">
        <ele>1280.1</ele>
        <time>2018-11-26T10:21:32Z</time>
      </trkpt>
      <trkpt lat="42.17374" lon="2.30192">
        <ele>1279.8</ele>
        <time>2018-11-26T10:21:33Z</time>
      </trkpt>
      <trkpt lat="42.17368" lon="2.30194">
        <ele>1280</ele>
        <time>2018-11-26T10:21:35Z</time>
      </trkpt>
      <trkpt lat="42.1736" lon="2.30198">
        <ele>1280</ele>
        <time>2018-11-26T10:21:39Z</time>
      </trkpt>
      <trkpt lat="42.17352" lon="2.30205">
        <ele>1279.1</ele>
        <time>2018-11-26T10:21:42Z</time>
      </trkpt>
      <trkpt lat="42.17343" lon="2.30213">
        <ele>1279.6</ele>
        <time>2018-11-26T10:21:47Z</time>
      </trkpt>
      <trkpt lat="42.17335" lon="2.3022">
        <ele>1278.8</ele>
        <time>2018-11-26T10:21:50Z</time>
      </trkpt>
      <trkpt lat="42.17329" lon="2.3023">
        <ele>1279.1</ele>
        <time>2018-11-26T10:21:54Z</time>
      </trkpt>
      <trkpt lat="42.17326" lon="2.30232">
        <ele>1279</ele>
        <time>2018-11-26T10:21:56Z</time>
      </trkpt>
      <trkpt lat="42.17324" lon="2.30234">
        <ele>1279.1</ele>
        <time>2018-11-26T10:21:57Z</time>
      </trkpt>
      <trkpt lat="42.17321" lon="2.30235">
        <ele>1279</ele>
        <time>2018-11-26T10:21:58Z</time>
      </trkpt>
      <trkpt lat="42.17319" lon="2.30236">
        <ele>1279</ele>
        <time>2018-11-26T10:21:59Z</time>
      </trkpt>
      <trkpt lat="42.17317" lon="2.30238">
        <ele>1279.1</ele>
        <time>2018-11-26T10:22:00Z</time>
      </trkpt>
      <trkpt lat="42.17314" lon="2.30239">
        <ele>1280</ele>
        <time>2018-11-26T10:22:01Z</time>
      </trkpt>
      <trkpt lat="42.17311" lon="2.30241">
        <ele>1280</ele>
        <time>2018-11-26T10:22:02Z</time>
      </trkpt>
      <trkpt lat="42.17309" lon="2.30243">
        <ele>1280</ele>
        <time>2018-11-26T10:22:03Z</time>
      </trkpt>
      <trkpt lat="42.17307" lon="2.30245">
        <ele>1280</ele>
        <time>2018-11-26T10:22:04Z</time>
      </trkpt>
      <trkpt lat="42.17306" lon="2.30247">
        <ele>1280</ele>
        <time>2018-11-26T10:22:05Z</time>
      </trkpt>
      <trkpt lat="42.17304" lon="2.30248">
        <ele>1281</ele>
        <time>2018-11-26T10:22:06Z</time>
      </trkpt>
      <trkpt lat="42.17302" lon="2.3025">
        <ele>1281</ele>
        <time>2018-11-26T10:22:07Z</time>
      </trkpt>
      <trkpt lat="42.173" lon="2.30252">
        <ele>1282</ele>
        <time>2018-11-26T10:22:08Z</time>
      </trkpt>
      <trkpt lat="42.17298" lon="2.30251">
        <ele>1281.1</ele>
        <time>2018-11-26T10:22:08Z</time>
      </trkpt>
      <trkpt lat="42.17296" lon="2.30252">
        <ele>1280.1</ele>
        <time>2018-11-26T10:22:09Z</time>
      </trkpt>
      <trkpt lat="42.17294" lon="2.30253">
        <ele>1280</ele>
        <time>2018-11-26T10:22:10Z</time>
      </trkpt>
      <trkpt lat="42.17291" lon="2.30254">
        <ele>1280.2</ele>
        <time>2018-11-26T10:22:11Z</time>
      </trkpt>
      <trkpt lat="42.17289" lon="2.30255">
        <ele>1281.1</ele>
        <time>2018-11-26T10:22:12Z</time>
      </trkpt>
      <trkpt lat="42.17286" lon="2.30255">
        <ele>1281</ele>
        <time>2018-11-26T10:22:13Z</time>
      </trkpt>
      <trkpt lat="42.17284" lon="2.30256">
        <ele>1281.1</ele>
        <time>2018-11-26T10:22:14Z</time>
      </trkpt>
      <trkpt lat="42.17282" lon="2.30255">
        <ele>1281</ele>
        <time>2018-11-26T10:22:15Z</time>
      </trkpt>
      <trkpt lat="42.1728" lon="2.30255">
        <ele>1279.7</ele>
        <time>2018-11-26T10:22:16Z</time>
      </trkpt>
      <trkpt lat="42.17277" lon="2.30254">
        <ele>1278.8</ele>
        <time>2018-11-26T10:22:17Z</time>
      </trkpt>
      <trkpt lat="42.17275" lon="2.30254">
        <ele>1278.1</ele>
        <time>2018-11-26T10:22:18Z</time>
      </trkpt>
      <trkpt lat="42.17272" lon="2.30253">
        <ele>1278.1</ele>
        <time>2018-11-26T10:22:19Z</time>
      </trkpt>
      <trkpt lat="42.1727" lon="2.30251">
        <ele>1277.9</ele>
        <time>2018-11-26T10:22:20Z</time>
      </trkpt>
      <trkpt lat="42.17267" lon="2.3025">
        <ele>1277.1</ele>
        <time>2018-11-26T10:22:21Z</time>
      </trkpt>
      <trkpt lat="42.17265" lon="2.30248">
        <ele>1277</ele>
        <time>2018-11-26T10:22:22Z</time>
      </trkpt>
      <trkpt lat="42.17263" lon="2.30246">
        <ele>1276.1</ele>
        <time>2018-11-26T10:22:23Z</time>
      </trkpt>
      <trkpt lat="42.17261" lon="2.30243">
        <ele>1276</ele>
        <time>2018-11-26T10:22:24Z</time>
      </trkpt>
      <trkpt lat="42.17259" lon="2.30241">
        <ele>1276.1</ele>
        <time>2018-11-26T10:22:26Z</time>
      </trkpt>
      <trkpt lat="42.17256" lon="2.30239">
        <ele>1276</ele>
        <time>2018-11-26T10:22:27Z</time>
      </trkpt>
      <trkpt lat="42.17254" lon="2.30237">
        <ele>1275</ele>
        <time>2018-11-26T10:22:28Z</time>
      </trkpt>
      <trkpt lat="42.17252" lon="2.30234">
        <ele>1275</ele>
        <time>2018-11-26T10:22:29Z</time>
      </trkpt>
      <trkpt lat="42.1725" lon="2.30231">
        <ele>1276</ele>
        <time>2018-11-26T10:22:30Z</time>
      </trkpt>
      <trkpt lat="42.17248" lon="2.30228">
        <ele>1276.1</ele>
        <time>2018-11-26T10:22:31Z</time>
      </trkpt>
      <trkpt lat="42.17245" lon="2.30226">
        <ele>1276.1</ele>
        <time>2018-11-26T10:22:33Z</time>
      </trkpt>
      <trkpt lat="42.17243" lon="2.30224">
        <ele>1277.1</ele>
        <time>2018-11-26T10:22:34Z</time>
      </trkpt>
      <trkpt lat="42.17241" lon="2.30221">
        <ele>1277</ele>
        <time>2018-11-26T10:22:35Z</time>
      </trkpt>
      <trkpt lat="42.17239" lon="2.30218">
        <ele>1277.1</ele>
        <time>2018-11-26T10:22:36Z</time>
      </trkpt>
      <trkpt lat="42.17237" lon="2.30216">
        <ele>1277</ele>
        <time>2018-11-26T10:22:37Z</time>
      </trkpt>
      <trkpt lat="42.17235" lon="2.30214">
        <ele>1276.1</ele>
        <time>2018-11-26T10:22:38Z</time>
      </trkpt>
      <trkpt lat="42.17233" lon="2.30211">
        <ele>1276</ele>
        <time>2018-11-26T10:22:39Z</time>
      </trkpt>
      <trkpt lat="42.17231" lon="2.30208">
        <ele>1276.1</ele>
        <time>2018-11-26T10:22:40Z</time>
      </trkpt>
      <trkpt lat="42.17229" lon="2.30206">
        <ele>1275.8</ele>
        <time>2018-11-26T10:22:41Z</time>
      </trkpt>
      <trkpt lat="42.17227" lon="2.30204">
        <ele>1275</ele>
        <time>2018-11-26T10:22:42Z</time>
      </trkpt>
      <trkpt lat="42.17225" lon="2.30201">
        <ele>1275</ele>
        <time>2018-11-26T10:22:44Z</time>
      </trkpt>
      <trkpt lat="42.17223" lon="2.30199">
        <ele>1275</ele>
        <time>2018-11-26T10:22:45Z</time>
      </trkpt>
      <trkpt lat="42.1722" lon="2.30197">
        <ele>1275.1</ele>
        <time>2018-11-26T10:22:46Z</time>
      </trkpt>
      <trkpt lat="42.17219" lon="2.30194">
        <ele>1275</ele>
        <time>2018-11-26T10:22:47Z</time>
      </trkpt>
      <trkpt lat="42.17218" lon="2.30192">
        <ele>1275</ele>
        <time>2018-11-26T10:22:48Z</time>
      </trkpt>
      <trkpt lat="42.17216" lon="2.30189">
        <ele>1275.1</ele>
        <time>2018-11-26T10:22:49Z</time>
      </trkpt>
      <trkpt lat="42.17214" lon="2.30187">
        <ele>1274.6</ele>
        <time>2018-11-26T10:22:50Z</time>
      </trkpt>
      <trkpt lat="42.17212" lon="2.30186">
        <ele>1274.1</ele>
        <time>2018-11-26T10:22:51Z</time>
      </trkpt>
      <trkpt lat="42.1721" lon="2.30185">
        <ele>1275</ele>
        <time>2018-11-26T10:22:52Z</time>
      </trkpt>
      <trkpt lat="42.17207" lon="2.30183">
        <ele>1274.6</ele>
        <time>2018-11-26T10:22:53Z</time>
      </trkpt>
      <trkpt lat="42.17205" lon="2.30181">
        <ele>1273.9</ele>
        <time>2018-11-26T10:22:54Z</time>
      </trkpt>
      <trkpt lat="42.17202" lon="2.3018">
        <ele>1273</ele>
        <time>2018-11-26T10:22:55Z</time>
      </trkpt>
      <trkpt lat="42.172" lon="2.30178">
        <ele>1273</ele>
        <time>2018-11-26T10:22:56Z</time>
      </trkpt>
      <trkpt lat="42.17198" lon="2.30177">
        <ele>1273.1</ele>
        <time>2018-11-26T10:22:57Z</time>
      </trkpt>
      <trkpt lat="42.17196" lon="2.30175">
        <ele>1273.1</ele>
        <time>2018-11-26T10:22:58Z</time>
      </trkpt>
      <trkpt lat="42.17194" lon="2.30173">
        <ele>1273.1</ele>
        <time>2018-11-26T10:22:59Z</time>
      </trkpt>
      <trkpt lat="42.17191" lon="2.30171">
        <ele>1273.1</ele>
        <time>2018-11-26T10:23:00Z</time>
      </trkpt>
      <trkpt lat="42.17188" lon="2.3017">
        <ele>1273</ele>
        <time>2018-11-26T10:23:01Z</time>
      </trkpt>
      <trkpt lat="42.17186" lon="2.30169">
        <ele>1273</ele>
        <time>2018-11-26T10:23:02Z</time>
      </trkpt>
      <trkpt lat="42.17185" lon="2.30168">
        <ele>1273.1</ele>
        <time>2018-11-26T10:23:03Z</time>
      </trkpt>
      <trkpt lat="42.17179" lon="2.30167">
        <ele>1273</ele>
        <time>2018-11-26T10:23:05Z</time>
      </trkpt>
      <trkpt lat="42.17175" lon="2.30166">
        <ele>1273</ele>
        <time>2018-11-26T10:23:07Z</time>
      </trkpt>
      <trkpt lat="42.17165" lon="2.30166">
        <ele>1272</ele>
        <time>2018-11-26T10:23:11Z</time>
      </trkpt>
      <trkpt lat="42.17163" lon="2.30166">
        <ele>1272</ele>
        <time>2018-11-26T10:23:11Z</time>
      </trkpt>
      <trkpt lat="42.17161" lon="2.30167">
        <ele>1272</ele>
        <time>2018-11-26T10:23:12Z</time>
      </trkpt>
      <trkpt lat="42.17158" lon="2.30169">
        <ele>1272</ele>
        <time>2018-11-26T10:23:14Z</time>
      </trkpt>
      <trkpt lat="42.17155" lon="2.3017">
        <ele>1272.1</ele>
        <time>2018-11-26T10:23:15Z</time>
      </trkpt>
      <trkpt lat="42.17153" lon="2.30171">
        <ele>1272</ele>
        <time>2018-11-26T10:23:16Z</time>
      </trkpt>
      <trkpt lat="42.1715" lon="2.30175">
        <ele>1272.1</ele>
        <time>2018-11-26T10:23:17Z</time>
      </trkpt>
      <trkpt lat="42.17148" lon="2.30175">
        <ele>1272.1</ele>
        <time>2018-11-26T10:23:18Z</time>
      </trkpt>
      <trkpt lat="42.17146" lon="2.30177">
        <ele>1271.9</ele>
        <time>2018-11-26T10:23:19Z</time>
      </trkpt>
      <trkpt lat="42.17144" lon="2.30177">
        <ele>1271</ele>
        <time>2018-11-26T10:23:20Z</time>
      </trkpt>
      <trkpt lat="42.17142" lon="2.30178">
        <ele>1270.1</ele>
        <time>2018-11-26T10:23:21Z</time>
      </trkpt>
      <trkpt lat="42.1714" lon="2.3018">
        <ele>1270.1</ele>
        <time>2018-11-26T10:23:22Z</time>
      </trkpt>
      <trkpt lat="42.17138" lon="2.30182">
        <ele>1270</ele>
        <time>2018-11-26T10:23:23Z</time>
      </trkpt>
      <trkpt lat="42.17137" lon="2.30185">
        <ele>1270</ele>
        <time>2018-11-26T10:23:24Z</time>
      </trkpt>
      <trkpt lat="42.17134" lon="2.30187">
        <ele>1270</ele>
        <time>2018-11-26T10:23:25Z</time>
      </trkpt>
      <trkpt lat="42.17133" lon="2.30189">
        <ele>1269</ele>
        <time>2018-11-26T10:23:26Z</time>
      </trkpt>
      <trkpt lat="42.17132" lon="2.30192">
        <ele>1269.1</ele>
        <time>2018-11-26T10:23:27Z</time>
      </trkpt>
      <trkpt lat="42.1713" lon="2.30195">
        <ele>1269</ele>
        <time>2018-11-26T10:23:28Z</time>
      </trkpt>
      <trkpt lat="42.17129" lon="2.30198">
        <ele>1269</ele>
        <time>2018-11-26T10:23:29Z</time>
      </trkpt>
      <trkpt lat="42.17127" lon="2.302">
        <ele>1269.1</ele>
        <time>2018-11-26T10:23:29Z</time>
      </trkpt>
      <trkpt lat="42.17127" lon="2.30203">
        <ele>1267.8</ele>
        <time>2018-11-26T10:23:31Z</time>
      </trkpt>
      <trkpt lat="42.17126" lon="2.30206">
        <ele>1267</ele>
        <time>2018-11-26T10:23:32Z</time>
      </trkpt>
      <trkpt lat="42.17125" lon="2.30209">
        <ele>1267</ele>
        <time>2018-11-26T10:23:32Z</time>
      </trkpt>
      <trkpt lat="42.17123" lon="2.30212">
        <ele>1267</ele>
        <time>2018-11-26T10:23:33Z</time>
      </trkpt>
      <trkpt lat="42.17122" lon="2.30215">
        <ele>1267.1</ele>
        <time>2018-11-26T10:23:35Z</time>
      </trkpt>
      <trkpt lat="42.1712" lon="2.30218">
        <ele>1267</ele>
        <time>2018-11-26T10:23:36Z</time>
      </trkpt>
      <trkpt lat="42.17119" lon="2.30221">
        <ele>1267</ele>
        <time>2018-11-26T10:23:37Z</time>
      </trkpt>
      <trkpt lat="42.17118" lon="2.30224">
        <ele>1267</ele>
        <time>2018-11-26T10:23:38Z</time>
      </trkpt>
      <trkpt lat="42.17116" lon="2.30227">
        <ele>1267.1</ele>
        <time>2018-11-26T10:23:39Z</time>
      </trkpt>
      <trkpt lat="42.17114" lon="2.3023">
        <ele>1266.9</ele>
        <time>2018-11-26T10:23:40Z</time>
      </trkpt>
      <trkpt lat="42.17112" lon="2.30233">
        <ele>1266.1</ele>
        <time>2018-11-26T10:23:41Z</time>
      </trkpt>
      <trkpt lat="42.17111" lon="2.30237">
        <ele>1266.1</ele>
        <time>2018-11-26T10:23:42Z</time>
      </trkpt>
      <trkpt lat="42.17109" lon="2.30239">
        <ele>1266</ele>
        <time>2018-11-26T10:23:43Z</time>
      </trkpt>
      <trkpt lat="42.17107" lon="2.3024">
        <ele>1266</ele>
        <time>2018-11-26T10:23:44Z</time>
      </trkpt>
      <trkpt lat="42.17104" lon="2.3024">
        <ele>1265.1</ele>
        <time>2018-11-26T10:23:45Z</time>
      </trkpt>
      <trkpt lat="42.17102" lon="2.30241">
        <ele>1265.1</ele>
        <time>2018-11-26T10:23:46Z</time>
      </trkpt>
      <trkpt lat="42.17099" lon="2.30241">
        <ele>1265.1</ele>
        <time>2018-11-26T10:23:47Z</time>
      </trkpt>
      <trkpt lat="42.17097" lon="2.30242">
        <ele>1265</ele>
        <time>2018-11-26T10:23:48Z</time>
      </trkpt>
      <trkpt lat="42.17094" lon="2.30241">
        <ele>1265</ele>
        <time>2018-11-26T10:23:49Z</time>
      </trkpt>
      <trkpt lat="42.17092" lon="2.3024">
        <ele>1265</ele>
        <time>2018-11-26T10:23:50Z</time>
      </trkpt>
      <trkpt lat="42.1709" lon="2.30239">
        <ele>1265</ele>
        <time>2018-11-26T10:23:51Z</time>
      </trkpt>
      <trkpt lat="42.17087" lon="2.30238">
        <ele>1265.1</ele>
        <time>2018-11-26T10:23:53Z</time>
      </trkpt>
      <trkpt lat="42.17085" lon="2.30238">
        <ele>1264.9</ele>
        <time>2018-11-26T10:23:53Z</time>
      </trkpt>
      <trkpt lat="42.17083" lon="2.30238">
        <ele>1264.1</ele>
        <time>2018-11-26T10:23:54Z</time>
      </trkpt>
      <trkpt lat="42.1708" lon="2.30238">
        <ele>1264.1</ele>
        <time>2018-11-26T10:23:55Z</time>
      </trkpt>
      <trkpt lat="42.17078" lon="2.30237">
        <ele>1264</ele>
        <time>2018-11-26T10:23:56Z</time>
      </trkpt>
      <trkpt lat="42.17076" lon="2.30236">
        <ele>1263.1</ele>
        <time>2018-11-26T10:23:57Z</time>
      </trkpt>
      <trkpt lat="42.17074" lon="2.30235">
        <ele>1264</ele>
        <time>2018-11-26T10:23:58Z</time>
      </trkpt>
      <trkpt lat="42.17072" lon="2.30235">
        <ele>1264.1</ele>
        <time>2018-11-26T10:23:59Z</time>
      </trkpt>
      <trkpt lat="42.1707" lon="2.30236">
        <ele>1264</ele>
        <time>2018-11-26T10:23:59Z</time>
      </trkpt>
      <trkpt lat="42.17067" lon="2.30238">
        <ele>1264</ele>
        <time>2018-11-26T10:24:01Z</time>
      </trkpt>
      <trkpt lat="42.17065" lon="2.30237">
        <ele>1264</ele>
        <time>2018-11-26T10:24:02Z</time>
      </trkpt>
      <trkpt lat="42.1706" lon="2.30237">
        <ele>1264.1</ele>
        <time>2018-11-26T10:24:04Z</time>
      </trkpt>
      <trkpt lat="42.17058" lon="2.30238">
        <ele>1264.1</ele>
        <time>2018-11-26T10:24:05Z</time>
      </trkpt>
      <trkpt lat="42.17055" lon="2.3024">
        <ele>1265.1</ele>
        <time>2018-11-26T10:24:06Z</time>
      </trkpt>
      <trkpt lat="42.17054" lon="2.30242">
        <ele>1265</ele>
        <time>2018-11-26T10:24:07Z</time>
      </trkpt>
      <trkpt lat="42.17052" lon="2.30244">
        <ele>1265.2</ele>
        <time>2018-11-26T10:24:08Z</time>
      </trkpt>
      <trkpt lat="42.1705" lon="2.30247">
        <ele>1266</ele>
        <time>2018-11-26T10:24:09Z</time>
      </trkpt>
      <trkpt lat="42.17048" lon="2.30249">
        <ele>1266</ele>
        <time>2018-11-26T10:24:10Z</time>
      </trkpt>
      <trkpt lat="42.17046" lon="2.30252">
        <ele>1266</ele>
        <time>2018-11-26T10:24:11Z</time>
      </trkpt>
      <trkpt lat="42.17044" lon="2.30253">
        <ele>1266.1</ele>
        <time>2018-11-26T10:24:12Z</time>
      </trkpt>
      <trkpt lat="42.17042" lon="2.30255">
        <ele>1266.1</ele>
        <time>2018-11-26T10:24:13Z</time>
      </trkpt>
      <trkpt lat="42.1704" lon="2.30259">
        <ele>1267</ele>
        <time>2018-11-26T10:24:14Z</time>
      </trkpt>
      <trkpt lat="42.17038" lon="2.30261">
        <ele>1266.1</ele>
        <time>2018-11-26T10:24:15Z</time>
      </trkpt>
      <trkpt lat="42.17036" lon="2.30263">
        <ele>1267</ele>
        <time>2018-11-26T10:24:16Z</time>
      </trkpt>
      <trkpt lat="42.17034" lon="2.30265">
        <ele>1267.1</ele>
        <time>2018-11-26T10:24:17Z</time>
      </trkpt>
      <trkpt lat="42.17033" lon="2.30267">
        <ele>1266.1</ele>
        <time>2018-11-26T10:24:18Z</time>
      </trkpt>
      <trkpt lat="42.17031" lon="2.3027">
        <ele>1266.1</ele>
        <time>2018-11-26T10:24:19Z</time>
      </trkpt>
      <trkpt lat="42.1703" lon="2.30274">
        <ele>1266</ele>
        <time>2018-11-26T10:24:20Z</time>
      </trkpt>
      <trkpt lat="42.17028" lon="2.30277">
        <ele>1266</ele>
        <time>2018-11-26T10:24:21Z</time>
      </trkpt>
      <trkpt lat="42.17027" lon="2.30282">
        <ele>1266.1</ele>
        <time>2018-11-26T10:24:23Z</time>
      </trkpt>
      <trkpt lat="42.17026" lon="2.30285">
        <ele>1266</ele>
        <time>2018-11-26T10:24:24Z</time>
      </trkpt>
      <trkpt lat="42.17024" lon="2.30288">
        <ele>1266</ele>
        <time>2018-11-26T10:24:25Z</time>
      </trkpt>
      <trkpt lat="42.17023" lon="2.30292">
        <ele>1267</ele>
        <time>2018-11-26T10:24:26Z</time>
      </trkpt>
      <trkpt lat="42.1702" lon="2.30296">
        <ele>1267</ele>
        <time>2018-11-26T10:24:28Z</time>
      </trkpt>
      <trkpt lat="42.17017" lon="2.30299">
        <ele>1267</ele>
        <time>2018-11-26T10:24:29Z</time>
      </trkpt>
      <trkpt lat="42.17016" lon="2.30302">
        <ele>1267.1</ele>
        <time>2018-11-26T10:24:30Z</time>
      </trkpt>
      <trkpt lat="42.17014" lon="2.30304">
        <ele>1267</ele>
        <time>2018-11-26T10:24:32Z</time>
      </trkpt>
      <trkpt lat="42.17011" lon="2.30306">
        <ele>1267.1</ele>
        <time>2018-11-26T10:24:33Z</time>
      </trkpt>
      <trkpt lat="42.17009" lon="2.30308">
        <ele>1267.1</ele>
        <time>2018-11-26T10:24:34Z</time>
      </trkpt>
      <trkpt lat="42.17006" lon="2.30309">
        <ele>1267.1</ele>
        <time>2018-11-26T10:24:35Z</time>
      </trkpt>
      <trkpt lat="42.17003" lon="2.30309">
        <ele>1267.1</ele>
        <time>2018-11-26T10:24:36Z</time>
      </trkpt>
      <trkpt lat="42.17" lon="2.30309">
        <ele>1268</ele>
        <time>2018-11-26T10:24:37Z</time>
      </trkpt>
      <trkpt lat="42.16997" lon="2.30306">
        <ele>1268.1</ele>
        <time>2018-11-26T10:24:39Z</time>
      </trkpt>
      <trkpt lat="42.16995" lon="2.30304">
        <ele>1268.1</ele>
        <time>2018-11-26T10:24:40Z</time>
      </trkpt>
      <trkpt lat="42.16992" lon="2.30303">
        <ele>1268</ele>
        <time>2018-11-26T10:24:41Z</time>
      </trkpt>
      <trkpt lat="42.16989" lon="2.30301">
        <ele>1268</ele>
        <time>2018-11-26T10:24:42Z</time>
      </trkpt>
      <trkpt lat="42.16986" lon="2.303">
        <ele>1268</ele>
        <time>2018-11-26T10:24:43Z</time>
      </trkpt>
      <trkpt lat="42.16985" lon="2.30298">
        <ele>1268</ele>
        <time>2018-11-26T10:24:44Z</time>
      </trkpt>
      <trkpt lat="42.16982" lon="2.30296">
        <ele>1267</ele>
        <time>2018-11-26T10:24:45Z</time>
      </trkpt>
      <trkpt lat="42.16981" lon="2.30294">
        <ele>1267</ele>
        <time>2018-11-26T10:24:46Z</time>
      </trkpt>
      <trkpt lat="42.16979" lon="2.30291">
        <ele>1267</ele>
        <time>2018-11-26T10:24:47Z</time>
      </trkpt>
      <trkpt lat="42.16976" lon="2.30287">
        <ele>1266.1</ele>
        <time>2018-11-26T10:24:49Z</time>
      </trkpt>
      <trkpt lat="42.16975" lon="2.30284">
        <ele>1266</ele>
        <time>2018-11-26T10:24:50Z</time>
      </trkpt>
      <trkpt lat="42.16972" lon="2.30282">
        <ele>1266</ele>
        <time>2018-11-26T10:24:51Z</time>
      </trkpt>
      <trkpt lat="42.1697" lon="2.30281">
        <ele>1266</ele>
        <time>2018-11-26T10:24:52Z</time>
      </trkpt>
      <trkpt lat="42.16968" lon="2.30279">
        <ele>1266.1</ele>
        <time>2018-11-26T10:24:53Z</time>
      </trkpt>
      <trkpt lat="42.16966" lon="2.30277">
        <ele>1266</ele>
        <time>2018-11-26T10:24:54Z</time>
      </trkpt>
      <trkpt lat="42.16965" lon="2.30275">
        <ele>1266</ele>
        <time>2018-11-26T10:24:55Z</time>
      </trkpt>
      <trkpt lat="42.16963" lon="2.30272">
        <ele>1265</ele>
        <time>2018-11-26T10:24:56Z</time>
      </trkpt>
      <trkpt lat="42.1696" lon="2.30271">
        <ele>1265</ele>
        <time>2018-11-26T10:24:57Z</time>
      </trkpt>
      <trkpt lat="42.16958" lon="2.3027">
        <ele>1265</ele>
        <time>2018-11-26T10:24:58Z</time>
      </trkpt>
      <trkpt lat="42.16956" lon="2.30268">
        <ele>1265.1</ele>
        <time>2018-11-26T10:24:59Z</time>
      </trkpt>
      <trkpt lat="42.16954" lon="2.30266">
        <ele>1265</ele>
        <time>2018-11-26T10:25:00Z</time>
      </trkpt>
      <trkpt lat="42.16952" lon="2.30264">
        <ele>1263.8</ele>
        <time>2018-11-26T10:25:01Z</time>
      </trkpt>
      <trkpt lat="42.1695" lon="2.30264">
        <ele>1263.1</ele>
        <time>2018-11-26T10:25:02Z</time>
      </trkpt>
      <trkpt lat="42.16948" lon="2.30263">
        <ele>1263.1</ele>
        <time>2018-11-26T10:25:03Z</time>
      </trkpt>
      <trkpt lat="42.16946" lon="2.3026">
        <ele>1263</ele>
        <time>2018-11-26T10:25:04Z</time>
      </trkpt>
      <trkpt lat="42.16945" lon="2.30257">
        <ele>1263.1</ele>
        <time>2018-11-26T10:25:05Z</time>
      </trkpt>
      <trkpt lat="42.16943" lon="2.30257">
        <ele>1262</ele>
        <time>2018-11-26T10:25:06Z</time>
      </trkpt>
      <trkpt lat="42.1694" lon="2.30255">
        <ele>1262</ele>
        <time>2018-11-26T10:25:07Z</time>
      </trkpt>
      <trkpt lat="42.16938" lon="2.30254">
        <ele>1261.8</ele>
        <time>2018-11-26T10:25:08Z</time>
      </trkpt>
      <trkpt lat="42.16936" lon="2.30253">
        <ele>1261.1</ele>
        <time>2018-11-26T10:25:08Z</time>
      </trkpt>
      <trkpt lat="42.16933" lon="2.30253">
        <ele>1260.1</ele>
        <time>2018-11-26T10:25:10Z</time>
      </trkpt>
      <trkpt lat="42.16928" lon="2.30252">
        <ele>1260.1</ele>
        <time>2018-11-26T10:25:12Z</time>
      </trkpt>
      <trkpt lat="42.16919" lon="2.30252">
        <ele>1259.1</ele>
        <time>2018-11-26T10:25:15Z</time>
      </trkpt>
      <trkpt lat="42.16909" lon="2.30252">
        <ele>1257.1</ele>
        <time>2018-11-26T10:25:20Z</time>
      </trkpt>
      <trkpt lat="42.16905" lon="2.30252">
        <ele>1257</ele>
        <time>2018-11-26T10:25:21Z</time>
      </trkpt>
      <trkpt lat="42.16899" lon="2.30251">
        <ele>1256.1</ele>
        <time>2018-11-26T10:25:23Z</time>
      </trkpt>
      <trkpt lat="42.16889" lon="2.30248">
        <ele>1256</ele>
        <time>2018-11-26T10:25:28Z</time>
      </trkpt>
      <trkpt lat="42.16886" lon="2.30249">
        <ele>1255.9</ele>
        <time>2018-11-26T10:25:29Z</time>
      </trkpt>
      <trkpt lat="42.16884" lon="2.30249">
        <ele>1255</ele>
        <time>2018-11-26T10:25:30Z</time>
      </trkpt>
      <trkpt lat="42.16881" lon="2.3025">
        <ele>1254</ele>
        <time>2018-11-26T10:25:31Z</time>
      </trkpt>
      <trkpt lat="42.16879" lon="2.30251">
        <ele>1254.1</ele>
        <time>2018-11-26T10:25:32Z</time>
      </trkpt>
      <trkpt lat="42.16877" lon="2.30253">
        <ele>1254</ele>
        <time>2018-11-26T10:25:32Z</time>
      </trkpt>
      <trkpt lat="42.16876" lon="2.30255">
        <ele>1254.2</ele>
        <time>2018-11-26T10:25:33Z</time>
      </trkpt>
      <trkpt lat="42.16875" lon="2.30258">
        <ele>1255.1</ele>
        <time>2018-11-26T10:25:34Z</time>
      </trkpt>
      <trkpt lat="42.16876" lon="2.30262">
        <ele>1255</ele>
        <time>2018-11-26T10:25:36Z</time>
      </trkpt>
      <trkpt lat="42.16877" lon="2.30265">
        <ele>1255</ele>
        <time>2018-11-26T10:25:37Z</time>
      </trkpt>
      <trkpt lat="42.16878" lon="2.30269">
        <ele>1255.1</ele>
        <time>2018-11-26T10:25:38Z</time>
      </trkpt>
      <trkpt lat="42.16878" lon="2.30272">
        <ele>1255.1</ele>
        <time>2018-11-26T10:25:39Z</time>
      </trkpt>
      <trkpt lat="42.16879" lon="2.30275">
        <ele>1254.1</ele>
        <time>2018-11-26T10:25:40Z</time>
      </trkpt>
      <trkpt lat="42.16879" lon="2.30277">
        <ele>1254</ele>
        <time>2018-11-26T10:25:40Z</time>
      </trkpt>
      <trkpt lat="42.1688" lon="2.30283">
        <ele>1254</ele>
        <time>2018-11-26T10:25:42Z</time>
      </trkpt>
      <trkpt lat="42.1688" lon="2.30286">
        <ele>1254</ele>
        <time>2018-11-26T10:25:43Z</time>
      </trkpt>
      <trkpt lat="42.1688" lon="2.30289">
        <ele>1254</ele>
        <time>2018-11-26T10:25:44Z</time>
      </trkpt>
      <trkpt lat="42.1688" lon="2.30292">
        <ele>1253.8</ele>
        <time>2018-11-26T10:25:45Z</time>
      </trkpt>
      <trkpt lat="42.16881" lon="2.30294">
        <ele>1253.1</ele>
        <time>2018-11-26T10:25:45Z</time>
      </trkpt>
      <trkpt lat="42.16881" lon="2.30297">
        <ele>1253.1</ele>
        <time>2018-11-26T10:25:46Z</time>
      </trkpt>
      <trkpt lat="42.16883" lon="2.303">
        <ele>1253</ele>
        <time>2018-11-26T10:25:47Z</time>
      </trkpt>
      <trkpt lat="42.16884" lon="2.30304">
        <ele>1252.1</ele>
        <time>2018-11-26T10:25:48Z</time>
      </trkpt>
      <trkpt lat="42.16883" lon="2.30308">
        <ele>1252</ele>
        <time>2018-11-26T10:25:50Z</time>
      </trkpt>
      <trkpt lat="42.16883" lon="2.3031">
        <ele>1252</ele>
        <time>2018-11-26T10:25:50Z</time>
      </trkpt>
      <trkpt lat="42.16882" lon="2.30312">
        <ele>1252.1</ele>
        <time>2018-11-26T10:25:51Z</time>
      </trkpt>
      <trkpt lat="42.16882" lon="2.30315">
        <ele>1252.1</ele>
        <time>2018-11-26T10:25:52Z</time>
      </trkpt>
      <trkpt lat="42.16882" lon="2.30318">
        <ele>1252</ele>
        <time>2018-11-26T10:25:53Z</time>
      </trkpt>
      <trkpt lat="42.16881" lon="2.3032">
        <ele>1252</ele>
        <time>2018-11-26T10:25:54Z</time>
      </trkpt>
      <trkpt lat="42.16876" lon="2.30332">
        <ele>1252.1</ele>
        <time>2018-11-26T10:25:58Z</time>
      </trkpt>
      <trkpt lat="42.16875" lon="2.30338">
        <ele>1251.1</ele>
        <time>2018-11-26T10:26:00Z</time>
      </trkpt>
      <trkpt lat="42.16874" lon="2.30342">
        <ele>1250.1</ele>
        <time>2018-11-26T10:26:01Z</time>
      </trkpt>
      <trkpt lat="42.16874" lon="2.30345">
        <ele>1250.1</ele>
        <time>2018-11-26T10:26:02Z</time>
      </trkpt>
      <trkpt lat="42.16873" lon="2.30348">
        <ele>1250.1</ele>
        <time>2018-11-26T10:26:03Z</time>
      </trkpt>
      <trkpt lat="42.16874" lon="2.30352">
        <ele>1250</ele>
        <time>2018-11-26T10:26:04Z</time>
      </trkpt>
      <trkpt lat="42.16875" lon="2.30356">
        <ele>1250</ele>
        <time>2018-11-26T10:26:05Z</time>
      </trkpt>
      <trkpt lat="42.16875" lon="2.3036">
        <ele>1250.1</ele>
        <time>2018-11-26T10:26:06Z</time>
      </trkpt>
      <trkpt lat="42.16874" lon="2.30364">
        <ele>1250</ele>
        <time>2018-11-26T10:26:07Z</time>
      </trkpt>
      <trkpt lat="42.16874" lon="2.30368">
        <ele>1250.1</ele>
        <time>2018-11-26T10:26:09Z</time>
      </trkpt>
      <trkpt lat="42.16873" lon="2.30372">
        <ele>1249.7</ele>
        <time>2018-11-26T10:26:10Z</time>
      </trkpt>
      <trkpt lat="42.16874" lon="2.30376">
        <ele>1249</ele>
        <time>2018-11-26T10:26:11Z</time>
      </trkpt>
      <trkpt lat="42.16874" lon="2.3038">
        <ele>1249.1</ele>
        <time>2018-11-26T10:26:12Z</time>
      </trkpt>
      <trkpt lat="42.16873" lon="2.30384">
        <ele>1249.1</ele>
        <time>2018-11-26T10:26:13Z</time>
      </trkpt>
      <trkpt lat="42.16873" lon="2.30387">
        <ele>1249</ele>
        <time>2018-11-26T10:26:14Z</time>
      </trkpt>
      <trkpt lat="42.16872" lon="2.30391">
        <ele>1248.8</ele>
        <time>2018-11-26T10:26:15Z</time>
      </trkpt>
      <trkpt lat="42.16873" lon="2.30394">
        <ele>1248</ele>
        <time>2018-11-26T10:26:16Z</time>
      </trkpt>
      <trkpt lat="42.16873" lon="2.30397">
        <ele>1248.1</ele>
        <time>2018-11-26T10:26:17Z</time>
      </trkpt>
      <trkpt lat="42.16872" lon="2.304">
        <ele>1248.1</ele>
        <time>2018-11-26T10:26:18Z</time>
      </trkpt>
      <trkpt lat="42.16872" lon="2.30404">
        <ele>1248</ele>
        <time>2018-11-26T10:26:19Z</time>
      </trkpt>
      <trkpt lat="42.16871" lon="2.30407">
        <ele>1248</ele>
        <time>2018-11-26T10:26:20Z</time>
      </trkpt>
      <trkpt lat="42.16871" lon="2.30411">
        <ele>1248</ele>
        <time>2018-11-26T10:26:21Z</time>
      </trkpt>
      <trkpt lat="42.1687" lon="2.30415">
        <ele>1248</ele>
        <time>2018-11-26T10:26:23Z</time>
      </trkpt>
      <trkpt lat="42.1687" lon="2.30417">
        <ele>1248</ele>
        <time>2018-11-26T10:26:23Z</time>
      </trkpt>
      <trkpt lat="42.16869" lon="2.30419">
        <ele>1248.1</ele>
        <time>2018-11-26T10:26:24Z</time>
      </trkpt>
      <trkpt lat="42.16867" lon="2.30423">
        <ele>1248</ele>
        <time>2018-11-26T10:26:25Z</time>
      </trkpt>
      <trkpt lat="42.16865" lon="2.30426">
        <ele>1249.1</ele>
        <time>2018-11-26T10:26:27Z</time>
      </trkpt>
      <trkpt lat="42.16864" lon="2.30429">
        <ele>1248</ele>
        <time>2018-11-26T10:26:28Z</time>
      </trkpt>
      <trkpt lat="42.16862" lon="2.30433">
        <ele>1248.5</ele>
        <time>2018-11-26T10:26:29Z</time>
      </trkpt>
      <trkpt lat="42.1686" lon="2.30436">
        <ele>1249</ele>
        <time>2018-11-26T10:26:30Z</time>
      </trkpt>
      <trkpt lat="42.16858" lon="2.30439">
        <ele>1249.1</ele>
        <time>2018-11-26T10:26:32Z</time>
      </trkpt>
      <trkpt lat="42.16857" lon="2.30441">
        <ele>1248.8</ele>
        <time>2018-11-26T10:26:32Z</time>
      </trkpt>
      <trkpt lat="42.16854" lon="2.30444">
        <ele>1248.1</ele>
        <time>2018-11-26T10:26:34Z</time>
      </trkpt>
      <trkpt lat="42.16852" lon="2.30447">
        <ele>1248</ele>
        <time>2018-11-26T10:26:35Z</time>
      </trkpt>
      <trkpt lat="42.1685" lon="2.30449">
        <ele>1248</ele>
        <time>2018-11-26T10:26:36Z</time>
      </trkpt>
      <trkpt lat="42.16847" lon="2.30452">
        <ele>1248</ele>
        <time>2018-11-26T10:26:37Z</time>
      </trkpt>
      <trkpt lat="42.16845" lon="2.30453">
        <ele>1247</ele>
        <time>2018-11-26T10:26:38Z</time>
      </trkpt>
      <trkpt lat="42.16843" lon="2.30454">
        <ele>1248.1</ele>
        <time>2018-11-26T10:26:39Z</time>
      </trkpt>
      <trkpt lat="42.16841" lon="2.30455">
        <ele>1248.1</ele>
        <time>2018-11-26T10:26:40Z</time>
      </trkpt>
      <trkpt lat="42.16837" lon="2.30459">
        <ele>1247.9</ele>
        <time>2018-11-26T10:26:42Z</time>
      </trkpt>
      <trkpt lat="42.16835" lon="2.30463">
        <ele>1247</ele>
        <time>2018-11-26T10:26:43Z</time>
      </trkpt>
      <trkpt lat="42.16833" lon="2.30465">
        <ele>1247</ele>
        <time>2018-11-26T10:26:44Z</time>
      </trkpt>
      <trkpt lat="42.16832" lon="2.30466">
        <ele>1247</ele>
        <time>2018-11-26T10:26:45Z</time>
      </trkpt>
      <trkpt lat="42.16829" lon="2.30468">
        <ele>1247.1</ele>
        <time>2018-11-26T10:26:46Z</time>
      </trkpt>
      <trkpt lat="42.16826" lon="2.3047">
        <ele>1247</ele>
        <time>2018-11-26T10:26:47Z</time>
      </trkpt>
      <trkpt lat="42.16824" lon="2.30472">
        <ele>1247.1</ele>
        <time>2018-11-26T10:26:49Z</time>
      </trkpt>
      <trkpt lat="42.16819" lon="2.30474">
        <ele>1247</ele>
        <time>2018-11-26T10:26:51Z</time>
      </trkpt>
      <trkpt lat="42.16817" lon="2.30476">
        <ele>1247</ele>
        <time>2018-11-26T10:26:52Z</time>
      </trkpt>
      <trkpt lat="42.16809" lon="2.30481">
        <ele>1248.1</ele>
        <time>2018-11-26T10:26:55Z</time>
      </trkpt>
      <trkpt lat="42.16802" lon="2.30491">
        <ele>1248</ele>
        <time>2018-11-26T10:26:59Z</time>
      </trkpt>
      <trkpt lat="42.16794" lon="2.30499">
        <ele>1247.1</ele>
        <time>2018-11-26T10:27:03Z</time>
      </trkpt>
      <trkpt lat="42.16785" lon="2.30507">
        <ele>1247.1</ele>
        <time>2018-11-26T10:27:07Z</time>
      </trkpt>
      <trkpt lat="42.16776" lon="2.3051">
        <ele>1248.2</ele>
        <time>2018-11-26T10:27:11Z</time>
      </trkpt>
      <trkpt lat="42.16767" lon="2.30512">
        <ele>1251</ele>
        <time>2018-11-26T10:27:15Z</time>
      </trkpt>
      <trkpt lat="42.16765" lon="2.30511">
        <ele>1251.1</ele>
        <time>2018-11-26T10:27:16Z</time>
      </trkpt>
      <trkpt lat="42.16756" lon="2.3051">
        <ele>1252</ele>
        <time>2018-11-26T10:27:19Z</time>
      </trkpt>
      <trkpt lat="42.16747" lon="2.30514">
        <ele>1252.1</ele>
        <time>2018-11-26T10:27:23Z</time>
      </trkpt>
      <trkpt lat="42.1674" lon="2.30522">
        <ele>1252.1</ele>
        <time>2018-11-26T10:27:27Z</time>
      </trkpt>
      <trkpt lat="42.16731" lon="2.30528">
        <ele>1250.8</ele>
        <time>2018-11-26T10:27:31Z</time>
      </trkpt>
      <trkpt lat="42.16728" lon="2.30529">
        <ele>1250</ele>
        <time>2018-11-26T10:27:32Z</time>
      </trkpt>
      <trkpt lat="42.16725" lon="2.3053">
        <ele>1250.1</ele>
        <time>2018-11-26T10:27:33Z</time>
      </trkpt>
      <trkpt lat="42.16723" lon="2.3053">
        <ele>1250.1</ele>
        <time>2018-11-26T10:27:34Z</time>
      </trkpt>
      <trkpt lat="42.16721" lon="2.30531">
        <ele>1250.1</ele>
        <time>2018-11-26T10:27:35Z</time>
      </trkpt>
      <trkpt lat="42.1673" lon="2.30531">
        <ele>1249</ele>
        <time>2018-11-26T10:27:38Z</time>
      </trkpt>
      <trkpt lat="42.1674" lon="2.30529">
        <ele>1247.1</ele>
        <time>2018-11-26T10:27:42Z</time>
      </trkpt>
      <trkpt lat="42.16748" lon="2.30523">
        <ele>1247</ele>
        <time>2018-11-26T10:27:46Z</time>
      </trkpt>
      <trkpt lat="42.16756" lon="2.30519">
        <ele>1246.1</ele>
        <time>2018-11-26T10:27:49Z</time>
      </trkpt>
      <trkpt lat="42.16768" lon="2.30522">
        <ele>1245.1</ele>
        <time>2018-11-26T10:27:54Z</time>
      </trkpt>
      <trkpt lat="42.16776" lon="2.30518">
        <ele>1243</ele>
        <time>2018-11-26T10:27:58Z</time>
      </trkpt>
      <trkpt lat="42.16784" lon="2.30524">
        <ele>1236.9</ele>
        <time>2018-11-26T10:28:01Z</time>
      </trkpt>
      <trkpt lat="42.16786" lon="2.30524">
        <ele>1235.8</ele>
        <time>2018-11-26T10:28:02Z</time>
      </trkpt>
      <trkpt lat="42.16784" lon="2.30526">
        <ele>1235</ele>
        <time>2018-11-26T10:28:03Z</time>
      </trkpt>
      <trkpt lat="42.16778" lon="2.30536">
        <ele>1233.1</ele>
        <time>2018-11-26T10:28:07Z</time>
      </trkpt>
      <trkpt lat="42.16778" lon="2.30533">
        <ele>1232.1</ele>
        <time>2018-11-26T10:28:08Z</time>
      </trkpt>
      <trkpt lat="42.16776" lon="2.30533">
        <ele>1232</ele>
        <time>2018-11-26T10:28:08Z</time>
      </trkpt>
      <trkpt lat="42.16774" lon="2.30534">
        <ele>1232</ele>
        <time>2018-11-26T10:28:09Z</time>
      </trkpt>
      <trkpt lat="42.16767" lon="2.30542">
        <ele>1231.1</ele>
        <time>2018-11-26T10:28:13Z</time>
      </trkpt>
      <trkpt lat="42.16765" lon="2.30543">
        <ele>1231</ele>
        <time>2018-11-26T10:28:14Z</time>
      </trkpt>
      <trkpt lat="42.16763" lon="2.30545">
        <ele>1231</ele>
        <time>2018-11-26T10:28:15Z</time>
      </trkpt>
      <trkpt lat="42.16763" lon="2.30548">
        <ele>1231</ele>
        <time>2018-11-26T10:28:16Z</time>
      </trkpt>
      <trkpt lat="42.16765" lon="2.30548">
        <ele>1231</ele>
        <time>2018-11-26T10:28:17Z</time>
      </trkpt>
      <trkpt lat="42.16767" lon="2.30548">
        <ele>1231.1</ele>
        <time>2018-11-26T10:28:17Z</time>
      </trkpt>
      <trkpt lat="42.1677" lon="2.30548">
        <ele>1232</ele>
        <time>2018-11-26T10:28:19Z</time>
      </trkpt>
      <trkpt lat="42.16763" lon="2.3055">
        <ele>1232</ele>
        <time>2018-11-26T10:28:22Z</time>
      </trkpt>
      <trkpt lat="42.16762" lon="2.30548">
        <ele>1232.9</ele>
        <time>2018-11-26T10:28:22Z</time>
      </trkpt>
      <trkpt lat="42.1676" lon="2.30547">
        <ele>1232</ele>
        <time>2018-11-26T10:28:23Z</time>
      </trkpt>
      <trkpt lat="42.16762" lon="2.30548">
        <ele>1230</ele>
        <time>2018-11-26T10:28:24Z</time>
      </trkpt>
      <trkpt lat="42.16768" lon="2.30544">
        <ele>1231</ele>
        <time>2018-11-26T10:28:27Z</time>
      </trkpt>
      <trkpt lat="42.1677" lon="2.30543">
        <ele>1230.1</ele>
        <time>2018-11-26T10:28:28Z</time>
      </trkpt>
      <trkpt lat="42.16775" lon="2.3054">
        <ele>1231.1</ele>
        <time>2018-11-26T10:28:30Z</time>
      </trkpt>
      <trkpt lat="42.16777" lon="2.30539">
        <ele>1231</ele>
        <time>2018-11-26T10:28:31Z</time>
      </trkpt>
      <trkpt lat="42.16779" lon="2.30536">
        <ele>1231.1</ele>
        <time>2018-11-26T10:28:32Z</time>
      </trkpt>
      <trkpt lat="42.16781" lon="2.30536">
        <ele>1232.8</ele>
        <time>2018-11-26T10:28:32Z</time>
      </trkpt>
      <trkpt lat="42.16782" lon="2.30539">
        <ele>1232.1</ele>
        <time>2018-11-26T10:28:33Z</time>
      </trkpt>
      <trkpt lat="42.16783" lon="2.30541">
        <ele>1232</ele>
        <time>2018-11-26T10:28:34Z</time>
      </trkpt>
      <trkpt lat="42.16786" lon="2.30541">
        <ele>1231.8</ele>
        <time>2018-11-26T10:28:35Z</time>
      </trkpt>
      <trkpt lat="42.16789" lon="2.30541">
        <ele>1231.1</ele>
        <time>2018-11-26T10:28:36Z</time>
      </trkpt>
      <trkpt lat="42.16791" lon="2.30542">
        <ele>1231.1</ele>
        <time>2018-11-26T10:28:37Z</time>
      </trkpt>
      <trkpt lat="42.16793" lon="2.30544">
        <ele>1231.1</ele>
        <time>2018-11-26T10:28:38Z</time>
      </trkpt>
      <trkpt lat="42.16792" lon="2.30546">
        <ele>1231</ele>
        <time>2018-11-26T10:28:39Z</time>
      </trkpt>
      <trkpt lat="42.16791" lon="2.30543">
        <ele>1230</ele>
        <time>2018-11-26T10:28:40Z</time>
      </trkpt>
      <trkpt lat="42.16786" lon="2.30547">
        <ele>1232</ele>
        <time>2018-11-26T10:28:43Z</time>
      </trkpt>
      <trkpt lat="42.16778" lon="2.30544">
        <ele>1233.1</ele>
        <time>2018-11-26T10:28:46Z</time>
      </trkpt>
      <trkpt lat="42.16778" lon="2.30547">
        <ele>1233</ele>
        <time>2018-11-26T10:28:47Z</time>
      </trkpt>
      <trkpt lat="42.16779" lon="2.30549">
        <ele>1232.1</ele>
        <time>2018-11-26T10:28:47Z</time>
      </trkpt>
      <trkpt lat="42.16779" lon="2.30545">
        <ele>1232.1</ele>
        <time>2018-11-26T10:28:49Z</time>
      </trkpt>
      <trkpt lat="42.16784" lon="2.30542">
        <ele>1231</ele>
        <time>2018-11-26T10:28:51Z</time>
      </trkpt>
      <trkpt lat="42.16794" lon="2.3054">
        <ele>1231</ele>
        <time>2018-11-26T10:28:55Z</time>
      </trkpt>
      <trkpt lat="42.16796" lon="2.30539">
        <ele>1231</ele>
        <time>2018-11-26T10:28:55Z</time>
      </trkpt>
      <trkpt lat="42.16798" lon="2.30537">
        <ele>1231.1</ele>
        <time>2018-11-26T10:28:57Z</time>
      </trkpt>
      <trkpt lat="42.16801" lon="2.30536">
        <ele>1231.1</ele>
        <time>2018-11-26T10:28:58Z</time>
      </trkpt>
      <trkpt lat="42.16803" lon="2.30534">
        <ele>1231.2</ele>
        <time>2018-11-26T10:28:58Z</time>
      </trkpt>
      <trkpt lat="42.16805" lon="2.30533">
        <ele>1232.1</ele>
        <time>2018-11-26T10:28:59Z</time>
      </trkpt>
      <trkpt lat="42.16807" lon="2.30532">
        <ele>1232.3</ele>
        <time>2018-11-26T10:29:00Z</time>
      </trkpt>
      <trkpt lat="42.16809" lon="2.3053">
        <ele>1234.1</ele>
        <time>2018-11-26T10:29:01Z</time>
      </trkpt>
      <trkpt lat="42.16807" lon="2.30527">
        <ele>1235.1</ele>
        <time>2018-11-26T10:29:02Z</time>
      </trkpt>
      <trkpt lat="42.16806" lon="2.30525">
        <ele>1234</ele>
        <time>2018-11-26T10:29:03Z</time>
      </trkpt>
      <trkpt lat="42.16805" lon="2.30522">
        <ele>1235</ele>
        <time>2018-11-26T10:29:04Z</time>
      </trkpt>
      <trkpt lat="42.16803" lon="2.30522">
        <ele>1235.1</ele>
        <time>2018-11-26T10:29:05Z</time>
      </trkpt>
      <trkpt lat="42.168" lon="2.30522">
        <ele>1236.1</ele>
        <time>2018-11-26T10:29:06Z</time>
      </trkpt>
      <trkpt lat="42.16798" lon="2.30525">
        <ele>1237</ele>
        <time>2018-11-26T10:29:07Z</time>
      </trkpt>
      <trkpt lat="42.16796" lon="2.30526">
        <ele>1237</ele>
        <time>2018-11-26T10:29:08Z</time>
      </trkpt>
      <trkpt lat="42.16794" lon="2.30526">
        <ele>1237.1</ele>
        <time>2018-11-26T10:29:09Z</time>
      </trkpt>
      <trkpt lat="42.16803" lon="2.30532">
        <ele>1237.1</ele>
        <time>2018-11-26T10:29:13Z</time>
      </trkpt>
      <trkpt lat="42.16813" lon="2.30535">
        <ele>1236</ele>
        <time>2018-11-26T10:29:17Z</time>
      </trkpt>
      <trkpt lat="42.16823" lon="2.30535">
        <ele>1236.1</ele>
        <time>2018-11-26T10:29:21Z</time>
      </trkpt>
      <trkpt lat="42.16832" lon="2.30529">
        <ele>1236.1</ele>
        <time>2018-11-26T10:29:25Z</time>
      </trkpt>
      <trkpt lat="42.16825" lon="2.3052">
        <ele>1236.1</ele>
        <time>2018-11-26T10:29:29Z</time>
      </trkpt>
      <trkpt lat="42.16814" lon="2.3052">
        <ele>1236</ele>
        <time>2018-11-26T10:29:33Z</time>
      </trkpt>
      <trkpt lat="42.16807" lon="2.30529">
        <ele>1235</ele>
        <time>2018-11-26T10:29:37Z</time>
      </trkpt>
      <trkpt lat="42.16808" lon="2.30524">
        <ele>1234</ele>
        <time>2018-11-26T10:29:39Z</time>
      </trkpt>
      <trkpt lat="42.16814" lon="2.30525">
        <ele>1233</ele>
        <time>2018-11-26T10:29:41Z</time>
      </trkpt>
      <trkpt lat="42.16817" lon="2.30524">
        <ele>1233</ele>
        <time>2018-11-26T10:29:42Z</time>
      </trkpt>
      <trkpt lat="42.16827" lon="2.30519">
        <ele>1233.1</ele>
        <time>2018-11-26T10:29:46Z</time>
      </trkpt>
      <trkpt lat="42.16834" lon="2.30512">
        <ele>1232</ele>
        <time>2018-11-26T10:29:50Z</time>
      </trkpt>
      <trkpt lat="42.16837" lon="2.3051">
        <ele>1232.1</ele>
        <time>2018-11-26T10:29:51Z</time>
      </trkpt>
      <trkpt lat="42.1684" lon="2.30508">
        <ele>1232.1</ele>
        <time>2018-11-26T10:29:52Z</time>
      </trkpt>
      <trkpt lat="42.16843" lon="2.30507">
        <ele>1232.1</ele>
        <time>2018-11-26T10:29:54Z</time>
      </trkpt>
      <trkpt lat="42.16845" lon="2.30505">
        <ele>1232.1</ele>
        <time>2018-11-26T10:29:55Z</time>
      </trkpt>
      <trkpt lat="42.16846" lon="2.30501">
        <ele>1232.1</ele>
        <time>2018-11-26T10:29:56Z</time>
      </trkpt>
      <trkpt lat="42.16848" lon="2.30499">
        <ele>1233</ele>
        <time>2018-11-26T10:29:57Z</time>
      </trkpt>
      <trkpt lat="42.1685" lon="2.30497">
        <ele>1232.4</ele>
        <time>2018-11-26T10:29:58Z</time>
      </trkpt>
      <trkpt lat="42.16853" lon="2.30496">
        <ele>1233</ele>
        <time>2018-11-26T10:29:59Z</time>
      </trkpt>
      <trkpt lat="42.16855" lon="2.30493">
        <ele>1233</ele>
        <time>2018-11-26T10:30:00Z</time>
      </trkpt>
      <trkpt lat="42.16857" lon="2.30491">
        <ele>1233</ele>
        <time>2018-11-26T10:30:01Z</time>
      </trkpt>
      <trkpt lat="42.1686" lon="2.30489">
        <ele>1233.1</ele>
        <time>2018-11-26T10:30:03Z</time>
      </trkpt>
      <trkpt lat="42.16862" lon="2.30487">
        <ele>1233.1</ele>
        <time>2018-11-26T10:30:04Z</time>
      </trkpt>
      <trkpt lat="42.16864" lon="2.30485">
        <ele>1233.1</ele>
        <time>2018-11-26T10:30:05Z</time>
      </trkpt>
      <trkpt lat="42.16866" lon="2.30483">
        <ele>1233</ele>
        <time>2018-11-26T10:30:06Z</time>
      </trkpt>
      <trkpt lat="42.16868" lon="2.3048">
        <ele>1233</ele>
        <time>2018-11-26T10:30:07Z</time>
      </trkpt>
      <trkpt lat="42.1687" lon="2.30478">
        <ele>1233.1</ele>
        <time>2018-11-26T10:30:08Z</time>
      </trkpt>
      <trkpt lat="42.16872" lon="2.30477">
        <ele>1233.1</ele>
        <time>2018-11-26T10:30:09Z</time>
      </trkpt>
      <trkpt lat="42.16873" lon="2.30474">
        <ele>1234</ele>
        <time>2018-11-26T10:30:10Z</time>
      </trkpt>
      <trkpt lat="42.16871" lon="2.30474">
        <ele>1234.1</ele>
        <time>2018-11-26T10:30:10Z</time>
      </trkpt>
      <trkpt lat="42.16869" lon="2.30474">
        <ele>1234</ele>
        <time>2018-11-26T10:30:11Z</time>
      </trkpt>
      <trkpt lat="42.1687" lon="2.30473">
        <ele>1234</ele>
        <time>2018-11-26T10:30:12Z</time>
      </trkpt>
      <trkpt lat="42.16872" lon="2.30474">
        <ele>1233.1</ele>
        <time>2018-11-26T10:30:13Z</time>
      </trkpt>
      <trkpt lat="42.16874" lon="2.30476">
        <ele>1233</ele>
        <time>2018-11-26T10:30:14Z</time>
      </trkpt>
      <trkpt lat="42.16875" lon="2.30473">
        <ele>1234.1</ele>
        <time>2018-11-26T10:30:15Z</time>
      </trkpt>
      <trkpt lat="42.16877" lon="2.3047">
        <ele>1233.9</ele>
        <time>2018-11-26T10:30:16Z</time>
      </trkpt>
      <trkpt lat="42.1688" lon="2.30468">
        <ele>1233</ele>
        <time>2018-11-26T10:30:17Z</time>
      </trkpt>
      <trkpt lat="42.16882" lon="2.30466">
        <ele>1233</ele>
        <time>2018-11-26T10:30:18Z</time>
      </trkpt>
      <trkpt lat="42.16885" lon="2.30466">
        <ele>1232.1</ele>
        <time>2018-11-26T10:30:20Z</time>
      </trkpt>
      <trkpt lat="42.16887" lon="2.30467">
        <ele>1232</ele>
        <time>2018-11-26T10:30:20Z</time>
      </trkpt>
      <trkpt lat="42.16891" lon="2.30467">
        <ele>1231.1</ele>
        <time>2018-11-26T10:30:22Z</time>
      </trkpt>
      <trkpt lat="42.16893" lon="2.30466">
        <ele>1231</ele>
        <time>2018-11-26T10:30:22Z</time>
      </trkpt>
      <trkpt lat="42.16894" lon="2.30466">
        <ele>1230</ele>
        <time>2018-11-26T10:30:23Z</time>
      </trkpt>
      <trkpt lat="42.16896" lon="2.30465">
        <ele>1229.8</ele>
        <time>2018-11-26T10:30:24Z</time>
      </trkpt>
      <trkpt lat="42.16899" lon="2.30464">
        <ele>1229</ele>
        <time>2018-11-26T10:30:25Z</time>
      </trkpt>
      <trkpt lat="42.16902" lon="2.30464">
        <ele>1228.1</ele>
        <time>2018-11-26T10:30:26Z</time>
      </trkpt>
      <trkpt lat="42.16904" lon="2.30463">
        <ele>1227.4</ele>
        <time>2018-11-26T10:30:27Z</time>
      </trkpt>
      <trkpt lat="42.16906" lon="2.30462">
        <ele>1228</ele>
        <time>2018-11-26T10:30:28Z</time>
      </trkpt>
      <trkpt lat="42.16908" lon="2.30462">
        <ele>1226.7</ele>
        <time>2018-11-26T10:30:29Z</time>
      </trkpt>
      <trkpt lat="42.1691" lon="2.3046">
        <ele>1226.1</ele>
        <time>2018-11-26T10:30:30Z</time>
      </trkpt>
      <trkpt lat="42.16912" lon="2.30459">
        <ele>1226.1</ele>
        <time>2018-11-26T10:30:30Z</time>
      </trkpt>
      <trkpt lat="42.16914" lon="2.30459">
        <ele>1224.9</ele>
        <time>2018-11-26T10:30:31Z</time>
      </trkpt>
      <trkpt lat="42.16916" lon="2.30458">
        <ele>1224</ele>
        <time>2018-11-26T10:30:32Z</time>
      </trkpt>
      <trkpt lat="42.16917" lon="2.30456">
        <ele>1224.1</ele>
        <time>2018-11-26T10:30:33Z</time>
      </trkpt>
      <trkpt lat="42.16919" lon="2.30455">
        <ele>1224</ele>
        <time>2018-11-26T10:30:34Z</time>
      </trkpt>
      <trkpt lat="42.16918" lon="2.30457">
        <ele>1224</ele>
        <time>2018-11-26T10:30:35Z</time>
      </trkpt>
      <trkpt lat="42.16917" lon="2.3046">
        <ele>1224</ele>
        <time>2018-11-26T10:30:36Z</time>
      </trkpt>
      <trkpt lat="42.16915" lon="2.30463">
        <ele>1222.9</ele>
        <time>2018-11-26T10:30:37Z</time>
      </trkpt>
      <trkpt lat="42.16914" lon="2.30465">
        <ele>1222.1</ele>
        <time>2018-11-26T10:30:38Z</time>
      </trkpt>
      <trkpt lat="42.16912" lon="2.30467">
        <ele>1222</ele>
        <time>2018-11-26T10:30:38Z</time>
      </trkpt>
      <trkpt lat="42.1691" lon="2.30467">
        <ele>1221.6</ele>
        <time>2018-11-26T10:30:39Z</time>
      </trkpt>
      <trkpt lat="42.16908" lon="2.30467">
        <ele>1220</ele>
        <time>2018-11-26T10:30:40Z</time>
      </trkpt>
      <trkpt lat="42.16906" lon="2.30468">
        <ele>1220</ele>
        <time>2018-11-26T10:30:41Z</time>
      </trkpt>
      <trkpt lat="42.16904" lon="2.30469">
        <ele>1220.1</ele>
        <time>2018-11-26T10:30:42Z</time>
      </trkpt>
      <trkpt lat="42.16902" lon="2.3047">
        <ele>1220</ele>
        <time>2018-11-26T10:30:42Z</time>
      </trkpt>
      <trkpt lat="42.169" lon="2.30472">
        <ele>1220</ele>
        <time>2018-11-26T10:30:43Z</time>
      </trkpt>
      <trkpt lat="42.16898" lon="2.30473">
        <ele>1220</ele>
        <time>2018-11-26T10:30:44Z</time>
      </trkpt>
      <trkpt lat="42.16895" lon="2.30476">
        <ele>1219</ele>
        <time>2018-11-26T10:30:46Z</time>
      </trkpt>
      <trkpt lat="42.16891" lon="2.3048">
        <ele>1219</ele>
        <time>2018-11-26T10:30:48Z</time>
      </trkpt>
      <trkpt lat="42.1689" lon="2.30483">
        <ele>1218</ele>
        <time>2018-11-26T10:30:49Z</time>
      </trkpt>
      <trkpt lat="42.16889" lon="2.30485">
        <ele>1218.1</ele>
        <time>2018-11-26T10:30:50Z</time>
      </trkpt>
      <trkpt lat="42.16885" lon="2.30487">
        <ele>1217</ele>
        <time>2018-11-26T10:30:51Z</time>
      </trkpt>
      <trkpt lat="42.16884" lon="2.30489">
        <ele>1217.1</ele>
        <time>2018-11-26T10:30:52Z</time>
      </trkpt>
      <trkpt lat="42.1688" lon="2.30492">
        <ele>1216.8</ele>
        <time>2018-11-26T10:30:54Z</time>
      </trkpt>
      <trkpt lat="42.16874" lon="2.30501">
        <ele>1216.1</ele>
        <time>2018-11-26T10:30:57Z</time>
      </trkpt>
      <trkpt lat="42.16874" lon="2.30505">
        <ele>1215.1</ele>
        <time>2018-11-26T10:30:58Z</time>
      </trkpt>
      <trkpt lat="42.16872" lon="2.30506">
        <ele>1215</ele>
        <time>2018-11-26T10:30:59Z</time>
      </trkpt>
      <trkpt lat="42.16868" lon="2.30517">
        <ele>1215</ele>
        <time>2018-11-26T10:31:03Z</time>
      </trkpt>
      <trkpt lat="42.16863" lon="2.30529">
        <ele>1215</ele>
        <time>2018-11-26T10:31:07Z</time>
      </trkpt>
      <trkpt lat="42.16862" lon="2.30527">
        <ele>1213</ele>
        <time>2018-11-26T10:31:08Z</time>
      </trkpt>
      <trkpt lat="42.1686" lon="2.3053">
        <ele>1213.1</ele>
        <time>2018-11-26T10:31:09Z</time>
      </trkpt>
      <trkpt lat="42.16856" lon="2.30531">
        <ele>1213.1</ele>
        <time>2018-11-26T10:31:11Z</time>
      </trkpt>
      <trkpt lat="42.16854" lon="2.30533">
        <ele>1213</ele>
        <time>2018-11-26T10:31:11Z</time>
      </trkpt>
      <trkpt lat="42.16853" lon="2.30535">
        <ele>1213</ele>
        <time>2018-11-26T10:31:12Z</time>
      </trkpt>
      <trkpt lat="42.16851" lon="2.30533">
        <ele>1214</ele>
        <time>2018-11-26T10:31:13Z</time>
      </trkpt>
      <trkpt lat="42.16849" lon="2.30535">
        <ele>1214.1</ele>
        <time>2018-11-26T10:31:14Z</time>
      </trkpt>
      <trkpt lat="42.16846" lon="2.3054">
        <ele>1214.1</ele>
        <time>2018-11-26T10:31:16Z</time>
      </trkpt>
      <trkpt lat="42.16846" lon="2.30544">
        <ele>1213</ele>
        <time>2018-11-26T10:31:17Z</time>
      </trkpt>
      <trkpt lat="42.16846" lon="2.30546">
        <ele>1212</ele>
        <time>2018-11-26T10:31:18Z</time>
      </trkpt>
      <trkpt lat="42.16848" lon="2.30546">
        <ele>1212</ele>
        <time>2018-11-26T10:31:19Z</time>
      </trkpt>
      <trkpt lat="42.1685" lon="2.30545">
        <ele>1212</ele>
        <time>2018-11-26T10:31:19Z</time>
      </trkpt>
      <trkpt lat="42.16852" lon="2.30544">
        <ele>1212</ele>
        <time>2018-11-26T10:31:20Z</time>
      </trkpt>
      <trkpt lat="42.16854" lon="2.30544">
        <ele>1211.1</ele>
        <time>2018-11-26T10:31:21Z</time>
      </trkpt>
      <trkpt lat="42.16857" lon="2.30542">
        <ele>1212.1</ele>
        <time>2018-11-26T10:31:22Z</time>
      </trkpt>
      <trkpt lat="42.16859" lon="2.30539">
        <ele>1211</ele>
        <time>2018-11-26T10:31:24Z</time>
      </trkpt>
      <trkpt lat="42.16861" lon="2.30538">
        <ele>1212.2</ele>
        <time>2018-11-26T10:31:24Z</time>
      </trkpt>
      <trkpt lat="42.16864" lon="2.30537">
        <ele>1213.1</ele>
        <time>2018-11-26T10:31:25Z</time>
      </trkpt>
      <trkpt lat="42.16864" lon="2.30534">
        <ele>1213.1</ele>
        <time>2018-11-26T10:31:26Z</time>
      </trkpt>
      <trkpt lat="42.16865" lon="2.30532">
        <ele>1213</ele>
        <time>2018-11-26T10:31:27Z</time>
      </trkpt>
      <trkpt lat="42.16866" lon="2.30529">
        <ele>1214.1</ele>
        <time>2018-11-26T10:31:28Z</time>
      </trkpt>
      <trkpt lat="42.16868" lon="2.30526">
        <ele>1214.1</ele>
        <time>2018-11-26T10:31:29Z</time>
      </trkpt>
      <trkpt lat="42.16869" lon="2.30524">
        <ele>1214</ele>
        <time>2018-11-26T10:31:30Z</time>
      </trkpt>
      <trkpt lat="42.1687" lon="2.30521">
        <ele>1214</ele>
        <time>2018-11-26T10:31:31Z</time>
      </trkpt>
      <trkpt lat="42.16871" lon="2.30518">
        <ele>1214</ele>
        <time>2018-11-26T10:31:32Z</time>
      </trkpt>
      <trkpt lat="42.16874" lon="2.30516">
        <ele>1214.1</ele>
        <time>2018-11-26T10:31:33Z</time>
      </trkpt>
      <trkpt lat="42.16876" lon="2.30514">
        <ele>1214</ele>
        <time>2018-11-26T10:31:34Z</time>
      </trkpt>
      <trkpt lat="42.16878" lon="2.30511">
        <ele>1212.9</ele>
        <time>2018-11-26T10:31:35Z</time>
      </trkpt>
      <trkpt lat="42.1688" lon="2.30508">
        <ele>1213.1</ele>
        <time>2018-11-26T10:31:36Z</time>
      </trkpt>
      <trkpt lat="42.16881" lon="2.30506">
        <ele>1215.2</ele>
        <time>2018-11-26T10:31:37Z</time>
      </trkpt>
      <trkpt lat="42.16884" lon="2.30504">
        <ele>1216.1</ele>
        <time>2018-11-26T10:31:38Z</time>
      </trkpt>
      <trkpt lat="42.16886" lon="2.30502">
        <ele>1216.2</ele>
        <time>2018-11-26T10:31:40Z</time>
      </trkpt>
      <trkpt lat="42.16888" lon="2.30501">
        <ele>1217</ele>
        <time>2018-11-26T10:31:41Z</time>
      </trkpt>
      <trkpt lat="42.16891" lon="2.30499">
        <ele>1218.1</ele>
        <time>2018-11-26T10:31:42Z</time>
      </trkpt>
      <trkpt lat="42.16892" lon="2.30497">
        <ele>1218.1</ele>
        <time>2018-11-26T10:31:42Z</time>
      </trkpt>
      <trkpt lat="42.16894" lon="2.30496">
        <ele>1218</ele>
        <time>2018-11-26T10:31:43Z</time>
      </trkpt>
      <trkpt lat="42.16895" lon="2.30495">
        <ele>1218</ele>
        <time>2018-11-26T10:31:44Z</time>
      </trkpt>
      <trkpt lat="42.16894" lon="2.30494">
        <ele>1218</ele>
        <time>2018-11-26T10:31:45Z</time>
      </trkpt>
      <trkpt lat="42.16895" lon="2.30493">
        <ele>1218</ele>
        <time>2018-11-26T10:31:45Z</time>
      </trkpt>
      <trkpt lat="42.16897" lon="2.30492">
        <ele>1216.9</ele>
        <time>2018-11-26T10:31:46Z</time>
      </trkpt>
      <trkpt lat="42.16899" lon="2.30492">
        <ele>1216.1</ele>
        <time>2018-11-26T10:31:47Z</time>
      </trkpt>
      <trkpt lat="42.16901" lon="2.30493">
        <ele>1214.8</ele>
        <time>2018-11-26T10:31:48Z</time>
      </trkpt>
      <trkpt lat="42.16903" lon="2.30492">
        <ele>1214</ele>
        <time>2018-11-26T10:31:49Z</time>
      </trkpt>
      <trkpt lat="42.16906" lon="2.30491">
        <ele>1214.1</ele>
        <time>2018-11-26T10:31:50Z</time>
      </trkpt>
      <trkpt lat="42.16907" lon="2.30489">
        <ele>1214.1</ele>
        <time>2018-11-26T10:31:51Z</time>
      </trkpt>
      <trkpt lat="42.16909" lon="2.30487">
        <ele>1214.1</ele>
        <time>2018-11-26T10:31:52Z</time>
      </trkpt>
      <trkpt lat="42.16912" lon="2.30486">
        <ele>1213.8</ele>
        <time>2018-11-26T10:31:53Z</time>
      </trkpt>
      <trkpt lat="42.16914" lon="2.30486">
        <ele>1213</ele>
        <time>2018-11-26T10:31:54Z</time>
      </trkpt>
      <trkpt lat="42.16916" lon="2.30484">
        <ele>1213</ele>
        <time>2018-11-26T10:31:55Z</time>
      </trkpt>
      <trkpt lat="42.16918" lon="2.30483">
        <ele>1213</ele>
        <time>2018-11-26T10:31:55Z</time>
      </trkpt>
      <trkpt lat="42.1692" lon="2.30482">
        <ele>1212.1</ele>
        <time>2018-11-26T10:31:56Z</time>
      </trkpt>
      <trkpt lat="42.16922" lon="2.30484">
        <ele>1211.1</ele>
        <time>2018-11-26T10:31:57Z</time>
      </trkpt>
      <trkpt lat="42.16924" lon="2.30485">
        <ele>1210.8</ele>
        <time>2018-11-26T10:31:58Z</time>
      </trkpt>
      <trkpt lat="42.16927" lon="2.30486">
        <ele>1210.1</ele>
        <time>2018-11-26T10:31:59Z</time>
      </trkpt>
      <trkpt lat="42.16929" lon="2.30486">
        <ele>1210</ele>
        <time>2018-11-26T10:32:00Z</time>
      </trkpt>
      <trkpt lat="42.16931" lon="2.30485">
        <ele>1208.9</ele>
        <time>2018-11-26T10:32:01Z</time>
      </trkpt>
      <trkpt lat="42.16933" lon="2.30483">
        <ele>1208</ele>
        <time>2018-11-26T10:32:02Z</time>
      </trkpt>
      <trkpt lat="42.16935" lon="2.30482">
        <ele>1207.8</ele>
        <time>2018-11-26T10:32:03Z</time>
      </trkpt>
      <trkpt lat="42.16937" lon="2.30481">
        <ele>1206</ele>
        <time>2018-11-26T10:32:04Z</time>
      </trkpt>
      <trkpt lat="42.16937" lon="2.30483">
        <ele>1206</ele>
        <time>2018-11-26T10:32:05Z</time>
      </trkpt>
      <trkpt lat="42.16938" lon="2.30485">
        <ele>1205</ele>
        <time>2018-11-26T10:32:05Z</time>
      </trkpt>
      <trkpt lat="42.16941" lon="2.30485">
        <ele>1204.6</ele>
        <time>2018-11-26T10:32:06Z</time>
      </trkpt>
      <trkpt lat="42.16943" lon="2.30483">
        <ele>1204.1</ele>
        <time>2018-11-26T10:32:07Z</time>
      </trkpt>
      <trkpt lat="42.16945" lon="2.30482">
        <ele>1203.1</ele>
        <time>2018-11-26T10:32:08Z</time>
      </trkpt>
      <trkpt lat="42.16947" lon="2.30481">
        <ele>1203</ele>
        <time>2018-11-26T10:32:09Z</time>
      </trkpt>
      <trkpt lat="42.16949" lon="2.3048">
        <ele>1203.1</ele>
        <time>2018-11-26T10:32:10Z</time>
      </trkpt>
      <trkpt lat="42.16951" lon="2.30478">
        <ele>1203</ele>
        <time>2018-11-26T10:32:11Z</time>
      </trkpt>
      <trkpt lat="42.16953" lon="2.30475">
        <ele>1201.8</ele>
        <time>2018-11-26T10:32:12Z</time>
      </trkpt>
      <trkpt lat="42.16954" lon="2.30472">
        <ele>1201</ele>
        <time>2018-11-26T10:32:13Z</time>
      </trkpt>
      <trkpt lat="42.16956" lon="2.3047">
        <ele>1201.1</ele>
        <time>2018-11-26T10:32:14Z</time>
      </trkpt>
      <trkpt lat="42.16957" lon="2.30469">
        <ele>1201</ele>
        <time>2018-11-26T10:32:15Z</time>
      </trkpt>
      <trkpt lat="42.16959" lon="2.30468">
        <ele>1201</ele>
        <time>2018-11-26T10:32:15Z</time>
      </trkpt>
      <trkpt lat="42.1696" lon="2.30465">
        <ele>1201</ele>
        <time>2018-11-26T10:32:16Z</time>
      </trkpt>
      <trkpt lat="42.16959" lon="2.30462">
        <ele>1201.1</ele>
        <time>2018-11-26T10:32:17Z</time>
      </trkpt>
      <trkpt lat="42.16961" lon="2.30462">
        <ele>1201.1</ele>
        <time>2018-11-26T10:32:18Z</time>
      </trkpt>
      <trkpt lat="42.16962" lon="2.30465">
        <ele>1200.8</ele>
        <time>2018-11-26T10:32:19Z</time>
      </trkpt>
      <trkpt lat="42.16963" lon="2.30469">
        <ele>1200</ele>
        <time>2018-11-26T10:32:20Z</time>
      </trkpt>
      <trkpt lat="42.16964" lon="2.30471">
        <ele>1199.1</ele>
        <time>2018-11-26T10:32:21Z</time>
      </trkpt>
      <trkpt lat="42.16966" lon="2.30474">
        <ele>1199</ele>
        <time>2018-11-26T10:32:22Z</time>
      </trkpt>
      <trkpt lat="42.16967" lon="2.30476">
        <ele>1198</ele>
        <time>2018-11-26T10:32:23Z</time>
      </trkpt>
      <trkpt lat="42.16967" lon="2.30479">
        <ele>1198.1</ele>
        <time>2018-11-26T10:32:24Z</time>
      </trkpt>
      <trkpt lat="42.16968" lon="2.30482">
        <ele>1198.1</ele>
        <time>2018-11-26T10:32:25Z</time>
      </trkpt>
      <trkpt lat="42.16969" lon="2.30485">
        <ele>1197.6</ele>
        <time>2018-11-26T10:32:25Z</time>
      </trkpt>
      <trkpt lat="42.1697" lon="2.30487">
        <ele>1196</ele>
        <time>2018-11-26T10:32:26Z</time>
      </trkpt>
      <trkpt lat="42.16972" lon="2.30488">
        <ele>1196</ele>
        <time>2018-11-26T10:32:27Z</time>
      </trkpt>
      <trkpt lat="42.16974" lon="2.30489">
        <ele>1196</ele>
        <time>2018-11-26T10:32:28Z</time>
      </trkpt>
      <trkpt lat="42.16978" lon="2.30489">
        <ele>1196</ele>
        <time>2018-11-26T10:32:29Z</time>
      </trkpt>
      <trkpt lat="42.1698" lon="2.30489">
        <ele>1194.7</ele>
        <time>2018-11-26T10:32:30Z</time>
      </trkpt>
      <trkpt lat="42.16982" lon="2.3049">
        <ele>1194</ele>
        <time>2018-11-26T10:32:31Z</time>
      </trkpt>
      <trkpt lat="42.16985" lon="2.3049">
        <ele>1194</ele>
        <time>2018-11-26T10:32:32Z</time>
      </trkpt>
      <trkpt lat="42.16987" lon="2.30491">
        <ele>1193</ele>
        <time>2018-11-26T10:32:33Z</time>
      </trkpt>
      <trkpt lat="42.16988" lon="2.30497">
        <ele>1191.8</ele>
        <time>2018-11-26T10:32:35Z</time>
      </trkpt>
      <trkpt lat="42.16985" lon="2.305">
        <ele>1191.2</ele>
        <time>2018-11-26T10:32:36Z</time>
      </trkpt>
      <trkpt lat="42.16982" lon="2.30501">
        <ele>1192.1</ele>
        <time>2018-11-26T10:32:37Z</time>
      </trkpt>
      <trkpt lat="42.16979" lon="2.30501">
        <ele>1191.8</ele>
        <time>2018-11-26T10:32:39Z</time>
      </trkpt>
      <trkpt lat="42.16976" lon="2.30502">
        <ele>1191</ele>
        <time>2018-11-26T10:32:40Z</time>
      </trkpt>
      <trkpt lat="42.16974" lon="2.30504">
        <ele>1190</ele>
        <time>2018-11-26T10:32:41Z</time>
      </trkpt>
      <trkpt lat="42.16972" lon="2.30506">
        <ele>1190.1</ele>
        <time>2018-11-26T10:32:42Z</time>
      </trkpt>
      <trkpt lat="42.1697" lon="2.30508">
        <ele>1189.1</ele>
        <time>2018-11-26T10:32:43Z</time>
      </trkpt>
      <trkpt lat="42.16972" lon="2.30509">
        <ele>1190.1</ele>
        <time>2018-11-26T10:32:44Z</time>
      </trkpt>
      <trkpt lat="42.16974" lon="2.30508">
        <ele>1190.1</ele>
        <time>2018-11-26T10:32:44Z</time>
      </trkpt>
      <trkpt lat="42.16977" lon="2.30508">
        <ele>1190.1</ele>
        <time>2018-11-26T10:32:45Z</time>
      </trkpt>
      <trkpt lat="42.16979" lon="2.30507">
        <ele>1190</ele>
        <time>2018-11-26T10:32:46Z</time>
      </trkpt>
      <trkpt lat="42.16982" lon="2.30507">
        <ele>1190.1</ele>
        <time>2018-11-26T10:32:48Z</time>
      </trkpt>
      <trkpt lat="42.16985" lon="2.30506">
        <ele>1191.1</ele>
        <time>2018-11-26T10:32:49Z</time>
      </trkpt>
      <trkpt lat="42.16988" lon="2.30506">
        <ele>1191.3</ele>
        <time>2018-11-26T10:32:50Z</time>
      </trkpt>
      <trkpt lat="42.1699" lon="2.30506">
        <ele>1192.1</ele>
        <time>2018-11-26T10:32:51Z</time>
      </trkpt>
      <trkpt lat="42.16992" lon="2.30507">
        <ele>1192</ele>
        <time>2018-11-26T10:32:51Z</time>
      </trkpt>
      <trkpt lat="42.16993" lon="2.30505">
        <ele>1191</ele>
        <time>2018-11-26T10:32:52Z</time>
      </trkpt>
      <trkpt lat="42.16994" lon="2.30507">
        <ele>1191.1</ele>
        <time>2018-11-26T10:32:53Z</time>
      </trkpt>
      <trkpt lat="42.16997" lon="2.30508">
        <ele>1191</ele>
        <time>2018-11-26T10:32:54Z</time>
      </trkpt>
      <trkpt lat="42.17003" lon="2.3051">
        <ele>1189.8</ele>
        <time>2018-11-26T10:32:57Z</time>
      </trkpt>
      <trkpt lat="42.17004" lon="2.3051">
        <ele>1189</ele>
        <time>2018-11-26T10:32:57Z</time>
      </trkpt>
      <trkpt lat="42.17007" lon="2.30511">
        <ele>1189.1</ele>
        <time>2018-11-26T10:32:58Z</time>
      </trkpt>
      <trkpt lat="42.1701" lon="2.30511">
        <ele>1189</ele>
        <time>2018-11-26T10:33:00Z</time>
      </trkpt>
      <trkpt lat="42.17013" lon="2.30512">
        <ele>1188.7</ele>
        <time>2018-11-26T10:33:01Z</time>
      </trkpt>
      <trkpt lat="42.17015" lon="2.30513">
        <ele>1188.1</ele>
        <time>2018-11-26T10:33:02Z</time>
      </trkpt>
      <trkpt lat="42.17017" lon="2.30513">
        <ele>1188.1</ele>
        <time>2018-11-26T10:33:03Z</time>
      </trkpt>
      <trkpt lat="42.1702" lon="2.30512">
        <ele>1188.1</ele>
        <time>2018-11-26T10:33:04Z</time>
      </trkpt>
      <trkpt lat="42.17022" lon="2.30511">
        <ele>1187.8</ele>
        <time>2018-11-26T10:33:05Z</time>
      </trkpt>
      <trkpt lat="42.17025" lon="2.30509">
        <ele>1187</ele>
        <time>2018-11-26T10:33:06Z</time>
      </trkpt>
      <trkpt lat="42.17032" lon="2.30507">
        <ele>1188</ele>
        <time>2018-11-26T10:33:09Z</time>
      </trkpt>
      <trkpt lat="42.17035" lon="2.30506">
        <ele>1188.1</ele>
        <time>2018-11-26T10:33:10Z</time>
      </trkpt>
      <trkpt lat="42.17039" lon="2.30503">
        <ele>1188.1</ele>
        <time>2018-11-26T10:33:12Z</time>
      </trkpt>
      <trkpt lat="42.17041" lon="2.30502">
        <ele>1188</ele>
        <time>2018-11-26T10:33:13Z</time>
      </trkpt>
      <trkpt lat="42.17044" lon="2.30502">
        <ele>1188.1</ele>
        <time>2018-11-26T10:33:14Z</time>
      </trkpt>
      <trkpt lat="42.17047" lon="2.30501">
        <ele>1187.8</ele>
        <time>2018-11-26T10:33:15Z</time>
      </trkpt>
      <trkpt lat="42.17049" lon="2.305">
        <ele>1187</ele>
        <time>2018-11-26T10:33:16Z</time>
      </trkpt>
      <trkpt lat="42.17051" lon="2.30498">
        <ele>1187</ele>
        <time>2018-11-26T10:33:17Z</time>
      </trkpt>
      <trkpt lat="42.17053" lon="2.30497">
        <ele>1187.1</ele>
        <time>2018-11-26T10:33:18Z</time>
      </trkpt>
      <trkpt lat="42.17059" lon="2.30495">
        <ele>1187</ele>
        <time>2018-11-26T10:33:20Z</time>
      </trkpt>
      <trkpt lat="42.17068" lon="2.3049">
        <ele>1187</ele>
        <time>2018-11-26T10:33:24Z</time>
      </trkpt>
      <trkpt lat="42.17071" lon="2.30488">
        <ele>1187</ele>
        <time>2018-11-26T10:33:25Z</time>
      </trkpt>
      <trkpt lat="42.17073" lon="2.30486">
        <ele>1188</ele>
        <time>2018-11-26T10:33:27Z</time>
      </trkpt>
      <trkpt lat="42.17075" lon="2.30485">
        <ele>1187</ele>
        <time>2018-11-26T10:33:28Z</time>
      </trkpt>
      <trkpt lat="42.17078" lon="2.30483">
        <ele>1187.1</ele>
        <time>2018-11-26T10:33:29Z</time>
      </trkpt>
      <trkpt lat="42.1708" lon="2.30482">
        <ele>1187</ele>
        <time>2018-11-26T10:33:30Z</time>
      </trkpt>
      <trkpt lat="42.17083" lon="2.30481">
        <ele>1186.9</ele>
        <time>2018-11-26T10:33:31Z</time>
      </trkpt>
      <trkpt lat="42.17085" lon="2.30479">
        <ele>1185.1</ele>
        <time>2018-11-26T10:33:32Z</time>
      </trkpt>
      <trkpt lat="42.17088" lon="2.30478">
        <ele>1185.1</ele>
        <time>2018-11-26T10:33:33Z</time>
      </trkpt>
      <trkpt lat="42.1709" lon="2.30477">
        <ele>1185.1</ele>
        <time>2018-11-26T10:33:34Z</time>
      </trkpt>
      <trkpt lat="42.17093" lon="2.30475">
        <ele>1186</ele>
        <time>2018-11-26T10:33:35Z</time>
      </trkpt>
      <trkpt lat="42.17095" lon="2.30473">
        <ele>1186</ele>
        <time>2018-11-26T10:33:36Z</time>
      </trkpt>
      <trkpt lat="42.17097" lon="2.30471">
        <ele>1186</ele>
        <time>2018-11-26T10:33:37Z</time>
      </trkpt>
      <trkpt lat="42.171" lon="2.3047">
        <ele>1186</ele>
        <time>2018-11-26T10:33:38Z</time>
      </trkpt>
      <trkpt lat="42.17102" lon="2.30468">
        <ele>1186.1</ele>
        <time>2018-11-26T10:33:40Z</time>
      </trkpt>
      <trkpt lat="42.17105" lon="2.30468">
        <ele>1186.1</ele>
        <time>2018-11-26T10:33:41Z</time>
      </trkpt>
      <trkpt lat="42.17108" lon="2.30468">
        <ele>1184</ele>
        <time>2018-11-26T10:33:42Z</time>
      </trkpt>
      <trkpt lat="42.17109" lon="2.30468">
        <ele>1184</ele>
        <time>2018-11-26T10:33:42Z</time>
      </trkpt>
      <trkpt lat="42.17112" lon="2.30468">
        <ele>1183.1</ele>
        <time>2018-11-26T10:33:43Z</time>
      </trkpt>
      <trkpt lat="42.17114" lon="2.30467">
        <ele>1183</ele>
        <time>2018-11-26T10:33:44Z</time>
      </trkpt>
      <trkpt lat="42.17116" lon="2.30465">
        <ele>1184.1</ele>
        <time>2018-11-26T10:33:45Z</time>
      </trkpt>
      <trkpt lat="42.17119" lon="2.30463">
        <ele>1184</ele>
        <time>2018-11-26T10:33:46Z</time>
      </trkpt>
      <trkpt lat="42.1712" lon="2.30461">
        <ele>1184.1</ele>
        <time>2018-11-26T10:33:47Z</time>
      </trkpt>
      <trkpt lat="42.17122" lon="2.30459">
        <ele>1183</ele>
        <time>2018-11-26T10:33:48Z</time>
      </trkpt>
      <trkpt lat="42.17123" lon="2.30456">
        <ele>1183</ele>
        <time>2018-11-26T10:33:49Z</time>
      </trkpt>
      <trkpt lat="42.17125" lon="2.30454">
        <ele>1183</ele>
        <time>2018-11-26T10:33:50Z</time>
      </trkpt>
      <trkpt lat="42.17127" lon="2.30453">
        <ele>1182.1</ele>
        <time>2018-11-26T10:33:51Z</time>
      </trkpt>
      <trkpt lat="42.17129" lon="2.30451">
        <ele>1181.9</ele>
        <time>2018-11-26T10:33:52Z</time>
      </trkpt>
      <trkpt lat="42.1713" lon="2.30448">
        <ele>1180.1</ele>
        <time>2018-11-26T10:33:53Z</time>
      </trkpt>
      <trkpt lat="42.17133" lon="2.30447">
        <ele>1180</ele>
        <time>2018-11-26T10:33:54Z</time>
      </trkpt>
      <trkpt lat="42.17135" lon="2.30446">
        <ele>1180.1</ele>
        <time>2018-11-26T10:33:55Z</time>
      </trkpt>
      <trkpt lat="42.17137" lon="2.30446">
        <ele>1180.1</ele>
        <time>2018-11-26T10:33:56Z</time>
      </trkpt>
      <trkpt lat="42.17139" lon="2.30447">
        <ele>1180.1</ele>
        <time>2018-11-26T10:33:57Z</time>
      </trkpt>
      <trkpt lat="42.17141" lon="2.30448">
        <ele>1180.1</ele>
        <time>2018-11-26T10:33:58Z</time>
      </trkpt>
      <trkpt lat="42.17142" lon="2.3045">
        <ele>1179.1</ele>
        <time>2018-11-26T10:33:58Z</time>
      </trkpt>
      <trkpt lat="42.17144" lon="2.30452">
        <ele>1179</ele>
        <time>2018-11-26T10:33:59Z</time>
      </trkpt>
      <trkpt lat="42.17146" lon="2.30453">
        <ele>1179</ele>
        <time>2018-11-26T10:34:00Z</time>
      </trkpt>
      <trkpt lat="42.17147" lon="2.30454">
        <ele>1178</ele>
        <time>2018-11-26T10:34:01Z</time>
      </trkpt>
      <trkpt lat="42.17148" lon="2.30456">
        <ele>1178</ele>
        <time>2018-11-26T10:34:01Z</time>
      </trkpt>
      <trkpt lat="42.17149" lon="2.30459">
        <ele>1177.7</ele>
        <time>2018-11-26T10:34:02Z</time>
      </trkpt>
      <trkpt lat="42.17148" lon="2.30462">
        <ele>1177.1</ele>
        <time>2018-11-26T10:34:03Z</time>
      </trkpt>
      <trkpt lat="42.17147" lon="2.30465">
        <ele>1177.1</ele>
        <time>2018-11-26T10:34:04Z</time>
      </trkpt>
      <trkpt lat="42.17147" lon="2.30469">
        <ele>1177</ele>
        <time>2018-11-26T10:34:05Z</time>
      </trkpt>
      <trkpt lat="42.17148" lon="2.30471">
        <ele>1177</ele>
        <time>2018-11-26T10:34:06Z</time>
      </trkpt>
      <trkpt lat="42.1715" lon="2.30471">
        <ele>1177</ele>
        <time>2018-11-26T10:34:07Z</time>
      </trkpt>
      <trkpt lat="42.17152" lon="2.30471">
        <ele>1176.8</ele>
        <time>2018-11-26T10:34:08Z</time>
      </trkpt>
      <trkpt lat="42.17155" lon="2.30472">
        <ele>1176.1</ele>
        <time>2018-11-26T10:34:09Z</time>
      </trkpt>
      <trkpt lat="42.17156" lon="2.30473">
        <ele>1176</ele>
        <time>2018-11-26T10:34:10Z</time>
      </trkpt>
      <trkpt lat="42.17159" lon="2.30473">
        <ele>1175</ele>
        <time>2018-11-26T10:34:10Z</time>
      </trkpt>
      <trkpt lat="42.1716" lon="2.30474">
        <ele>1175</ele>
        <time>2018-11-26T10:34:11Z</time>
      </trkpt>
      <trkpt lat="42.17163" lon="2.30475">
        <ele>1174</ele>
        <time>2018-11-26T10:34:12Z</time>
      </trkpt>
      <trkpt lat="42.17165" lon="2.30475">
        <ele>1174</ele>
        <time>2018-11-26T10:34:13Z</time>
      </trkpt>
      <trkpt lat="42.17167" lon="2.30476">
        <ele>1174</ele>
        <time>2018-11-26T10:34:14Z</time>
      </trkpt>
      <trkpt lat="42.17169" lon="2.30477">
        <ele>1174</ele>
        <time>2018-11-26T10:34:15Z</time>
      </trkpt>
      <trkpt lat="42.17171" lon="2.30478">
        <ele>1173.8</ele>
        <time>2018-11-26T10:34:15Z</time>
      </trkpt>
      <trkpt lat="42.17172" lon="2.3048">
        <ele>1172.1</ele>
        <time>2018-11-26T10:34:16Z</time>
      </trkpt>
      <trkpt lat="42.17174" lon="2.30482">
        <ele>1172</ele>
        <time>2018-11-26T10:34:17Z</time>
      </trkpt>
      <trkpt lat="42.17176" lon="2.30484">
        <ele>1171.1</ele>
        <time>2018-11-26T10:34:18Z</time>
      </trkpt>
      <trkpt lat="42.17177" lon="2.30486">
        <ele>1170.8</ele>
        <time>2018-11-26T10:34:19Z</time>
      </trkpt>
      <trkpt lat="42.17179" lon="2.30486">
        <ele>1170.1</ele>
        <time>2018-11-26T10:34:20Z</time>
      </trkpt>
      <trkpt lat="42.17182" lon="2.30487">
        <ele>1170</ele>
        <time>2018-11-26T10:34:21Z</time>
      </trkpt>
      <trkpt lat="42.17183" lon="2.30489">
        <ele>1169</ele>
        <time>2018-11-26T10:34:22Z</time>
      </trkpt>
      <trkpt lat="42.17185" lon="2.3049">
        <ele>1168.1</ele>
        <time>2018-11-26T10:34:23Z</time>
      </trkpt>
      <trkpt lat="42.17187" lon="2.30491">
        <ele>1168</ele>
        <time>2018-11-26T10:34:24Z</time>
      </trkpt>
      <trkpt lat="42.1719" lon="2.30492">
        <ele>1167.1</ele>
        <time>2018-11-26T10:34:25Z</time>
      </trkpt>
      <trkpt lat="42.17192" lon="2.30494">
        <ele>1167.1</ele>
        <time>2018-11-26T10:34:26Z</time>
      </trkpt>
      <trkpt lat="42.17194" lon="2.30495">
        <ele>1166.8</ele>
        <time>2018-11-26T10:34:27Z</time>
      </trkpt>
      <trkpt lat="42.17197" lon="2.30496">
        <ele>1166.1</ele>
        <time>2018-11-26T10:34:28Z</time>
      </trkpt>
      <trkpt lat="42.17199" lon="2.30497">
        <ele>1166.1</ele>
        <time>2018-11-26T10:34:29Z</time>
      </trkpt>
      <trkpt lat="42.17201" lon="2.30498">
        <ele>1166</ele>
        <time>2018-11-26T10:34:30Z</time>
      </trkpt>
      <trkpt lat="42.17203" lon="2.305">
        <ele>1165.1</ele>
        <time>2018-11-26T10:34:30Z</time>
      </trkpt>
      <trkpt lat="42.17204" lon="2.30502">
        <ele>1165</ele>
        <time>2018-11-26T10:34:31Z</time>
      </trkpt>
      <trkpt lat="42.17206" lon="2.30504">
        <ele>1165</ele>
        <time>2018-11-26T10:34:32Z</time>
      </trkpt>
      <trkpt lat="42.17208" lon="2.30505">
        <ele>1165</ele>
        <time>2018-11-26T10:34:33Z</time>
      </trkpt>
      <trkpt lat="42.1721" lon="2.30506">
        <ele>1164.1</ele>
        <time>2018-11-26T10:34:34Z</time>
      </trkpt>
      <trkpt lat="42.17213" lon="2.30507">
        <ele>1164.1</ele>
        <time>2018-11-26T10:34:35Z</time>
      </trkpt>
      <trkpt lat="42.17215" lon="2.30508">
        <ele>1164</ele>
        <time>2018-11-26T10:34:36Z</time>
      </trkpt>
      <trkpt lat="42.17217" lon="2.30509">
        <ele>1164.1</ele>
        <time>2018-11-26T10:34:37Z</time>
      </trkpt>
      <trkpt lat="42.17219" lon="2.3051">
        <ele>1164.1</ele>
        <time>2018-11-26T10:34:38Z</time>
      </trkpt>
      <trkpt lat="42.1722" lon="2.30512">
        <ele>1164.1</ele>
        <time>2018-11-26T10:34:38Z</time>
      </trkpt>
      <trkpt lat="42.17222" lon="2.30514">
        <ele>1163.9</ele>
        <time>2018-11-26T10:34:39Z</time>
      </trkpt>
      <trkpt lat="42.17225" lon="2.30515">
        <ele>1163.1</ele>
        <time>2018-11-26T10:34:41Z</time>
      </trkpt>
      <trkpt lat="42.17227" lon="2.30516">
        <ele>1163.1</ele>
        <time>2018-11-26T10:34:41Z</time>
      </trkpt>
      <trkpt lat="42.17228" lon="2.30518">
        <ele>1163.1</ele>
        <time>2018-11-26T10:34:42Z</time>
      </trkpt>
      <trkpt lat="42.1723" lon="2.30519">
        <ele>1162</ele>
        <time>2018-11-26T10:34:43Z</time>
      </trkpt>
      <trkpt lat="42.17232" lon="2.30521">
        <ele>1162</ele>
        <time>2018-11-26T10:34:44Z</time>
      </trkpt>
      <trkpt lat="42.17234" lon="2.30523">
        <ele>1161.1</ele>
        <time>2018-11-26T10:34:45Z</time>
      </trkpt>
      <trkpt lat="42.17236" lon="2.30524">
        <ele>1161.1</ele>
        <time>2018-11-26T10:34:46Z</time>
      </trkpt>
      <trkpt lat="42.17238" lon="2.30525">
        <ele>1160</ele>
        <time>2018-11-26T10:34:47Z</time>
      </trkpt>
      <trkpt lat="42.17239" lon="2.30527">
        <ele>1160.1</ele>
        <time>2018-11-26T10:34:48Z</time>
      </trkpt>
      <trkpt lat="42.17242" lon="2.30528">
        <ele>1159.8</ele>
        <time>2018-11-26T10:34:49Z</time>
      </trkpt>
      <trkpt lat="42.17244" lon="2.30529">
        <ele>1159.1</ele>
        <time>2018-11-26T10:34:50Z</time>
      </trkpt>
      <trkpt lat="42.17246" lon="2.30531">
        <ele>1158</ele>
        <time>2018-11-26T10:34:51Z</time>
      </trkpt>
      <trkpt lat="42.17248" lon="2.30533">
        <ele>1158</ele>
        <time>2018-11-26T10:34:52Z</time>
      </trkpt>
      <trkpt lat="42.1725" lon="2.30535">
        <ele>1157.1</ele>
        <time>2018-11-26T10:34:53Z</time>
      </trkpt>
      <trkpt lat="42.17252" lon="2.30537">
        <ele>1156.1</ele>
        <time>2018-11-26T10:34:53Z</time>
      </trkpt>
      <trkpt lat="42.17254" lon="2.30539">
        <ele>1156</ele>
        <time>2018-11-26T10:34:54Z</time>
      </trkpt>
      <trkpt lat="42.17256" lon="2.3054">
        <ele>1156</ele>
        <time>2018-11-26T10:34:55Z</time>
      </trkpt>
      <trkpt lat="42.17258" lon="2.3054">
        <ele>1155</ele>
        <time>2018-11-26T10:34:56Z</time>
      </trkpt>
      <trkpt lat="42.1726" lon="2.30542">
        <ele>1154</ele>
        <time>2018-11-26T10:34:57Z</time>
      </trkpt>
      <trkpt lat="42.17261" lon="2.30544">
        <ele>1153.7</ele>
        <time>2018-11-26T10:34:58Z</time>
      </trkpt>
      <trkpt lat="42.17263" lon="2.30545">
        <ele>1153.1</ele>
        <time>2018-11-26T10:34:59Z</time>
      </trkpt>
      <trkpt lat="42.17265" lon="2.30546">
        <ele>1152</ele>
        <time>2018-11-26T10:35:00Z</time>
      </trkpt>
      <trkpt lat="42.17266" lon="2.30549">
        <ele>1152</ele>
        <time>2018-11-26T10:35:01Z</time>
      </trkpt>
      <trkpt lat="42.17267" lon="2.30552">
        <ele>1151</ele>
        <time>2018-11-26T10:35:01Z</time>
      </trkpt>
      <trkpt lat="42.17269" lon="2.30553">
        <ele>1151.1</ele>
        <time>2018-11-26T10:35:02Z</time>
      </trkpt>
      <trkpt lat="42.1727" lon="2.30554">
        <ele>1150.8</ele>
        <time>2018-11-26T10:35:03Z</time>
      </trkpt>
      <trkpt lat="42.17272" lon="2.30555">
        <ele>1150.1</ele>
        <time>2018-11-26T10:35:04Z</time>
      </trkpt>
      <trkpt lat="42.17274" lon="2.30557">
        <ele>1150</ele>
        <time>2018-11-26T10:35:05Z</time>
      </trkpt>
      <trkpt lat="42.17275" lon="2.30557">
        <ele>1150</ele>
        <time>2018-11-26T10:35:05Z</time>
      </trkpt>
      <trkpt lat="42.17277" lon="2.30558">
        <ele>1149.8</ele>
        <time>2018-11-26T10:35:06Z</time>
      </trkpt>
      <trkpt lat="42.17279" lon="2.30559">
        <ele>1149</ele>
        <time>2018-11-26T10:35:07Z</time>
      </trkpt>
      <trkpt lat="42.17281" lon="2.30559">
        <ele>1149</ele>
        <time>2018-11-26T10:35:08Z</time>
      </trkpt>
      <trkpt lat="42.17283" lon="2.30559">
        <ele>1148</ele>
        <time>2018-11-26T10:35:08Z</time>
      </trkpt>
      <trkpt lat="42.17285" lon="2.30562">
        <ele>1147</ele>
        <time>2018-11-26T10:35:09Z</time>
      </trkpt>
      <trkpt lat="42.17287" lon="2.30564">
        <ele>1146</ele>
        <time>2018-11-26T10:35:11Z</time>
      </trkpt>
      <trkpt lat="42.17289" lon="2.30566">
        <ele>1145</ele>
        <time>2018-11-26T10:35:11Z</time>
      </trkpt>
      <trkpt lat="42.1729" lon="2.30567">
        <ele>1145.1</ele>
        <time>2018-11-26T10:35:12Z</time>
      </trkpt>
      <trkpt lat="42.1729" lon="2.3057">
        <ele>1144.1</ele>
        <time>2018-11-26T10:35:13Z</time>
      </trkpt>
      <trkpt lat="42.17292" lon="2.30572">
        <ele>1143.1</ele>
        <time>2018-11-26T10:35:14Z</time>
      </trkpt>
      <trkpt lat="42.17293" lon="2.30573">
        <ele>1143</ele>
        <time>2018-11-26T10:35:14Z</time>
      </trkpt>
      <trkpt lat="42.17296" lon="2.30574">
        <ele>1143</ele>
        <time>2018-11-26T10:35:16Z</time>
      </trkpt>
      <trkpt lat="42.17298" lon="2.30575">
        <ele>1142.8</ele>
        <time>2018-11-26T10:35:16Z</time>
      </trkpt>
      <trkpt lat="42.173" lon="2.30576">
        <ele>1142.1</ele>
        <time>2018-11-26T10:35:17Z</time>
      </trkpt>
      <trkpt lat="42.17302" lon="2.30575">
        <ele>1142.1</ele>
        <time>2018-11-26T10:35:18Z</time>
      </trkpt>
      <trkpt lat="42.17303" lon="2.30577">
        <ele>1142.1</ele>
        <time>2018-11-26T10:35:19Z</time>
      </trkpt>
      <trkpt lat="42.17303" lon="2.30579">
        <ele>1141</ele>
        <time>2018-11-26T10:35:20Z</time>
      </trkpt>
      <trkpt lat="42.17304" lon="2.30582">
        <ele>1141.1</ele>
        <time>2018-11-26T10:35:21Z</time>
      </trkpt>
      <trkpt lat="42.17304" lon="2.30576">
        <ele>1141.1</ele>
        <time>2018-11-26T10:35:22Z</time>
      </trkpt>
      <trkpt lat="42.17304" lon="2.30574">
        <ele>1141.8</ele>
        <time>2018-11-26T10:35:23Z</time>
      </trkpt>
      <trkpt lat="42.17306" lon="2.30575">
        <ele>1140.1</ele>
        <time>2018-11-26T10:35:24Z</time>
      </trkpt>
      <trkpt lat="42.17308" lon="2.30574">
        <ele>1140.1</ele>
        <time>2018-11-26T10:35:25Z</time>
      </trkpt>
      <trkpt lat="42.17311" lon="2.30576">
        <ele>1140</ele>
        <time>2018-11-26T10:35:26Z</time>
      </trkpt>
      <trkpt lat="42.17314" lon="2.30575">
        <ele>1140</ele>
        <time>2018-11-26T10:35:27Z</time>
      </trkpt>
      <trkpt lat="42.1732" lon="2.30568">
        <ele>1139</ele>
        <time>2018-11-26T10:35:30Z</time>
      </trkpt>
      <trkpt lat="42.17322" lon="2.30566">
        <ele>1140.1</ele>
        <time>2018-11-26T10:35:31Z</time>
      </trkpt>
      <trkpt lat="42.17329" lon="2.30568">
        <ele>1139</ele>
        <time>2018-11-26T10:35:34Z</time>
      </trkpt>
      <trkpt lat="42.17333" lon="2.30575">
        <ele>1138.1</ele>
        <time>2018-11-26T10:35:37Z</time>
      </trkpt>
      <trkpt lat="42.17336" lon="2.30578">
        <ele>1137</ele>
        <time>2018-11-26T10:35:38Z</time>
      </trkpt>
      <trkpt lat="42.17338" lon="2.30582">
        <ele>1137.1</ele>
        <time>2018-11-26T10:35:40Z</time>
      </trkpt>
      <trkpt lat="42.1734" lon="2.30585">
        <ele>1137</ele>
        <time>2018-11-26T10:35:41Z</time>
      </trkpt>
      <trkpt lat="42.17341" lon="2.30587">
        <ele>1137.1</ele>
        <time>2018-11-26T10:35:42Z</time>
      </trkpt>
      <trkpt lat="42.17343" lon="2.30589">
        <ele>1136.1</ele>
        <time>2018-11-26T10:35:42Z</time>
      </trkpt>
      <trkpt lat="42.17344" lon="2.30591">
        <ele>1136.1</ele>
        <time>2018-11-26T10:35:43Z</time>
      </trkpt>
      <trkpt lat="42.17346" lon="2.30592">
        <ele>1136</ele>
        <time>2018-11-26T10:35:44Z</time>
      </trkpt>
      <trkpt lat="42.17348" lon="2.30594">
        <ele>1136</ele>
        <time>2018-11-26T10:35:45Z</time>
      </trkpt>
      <trkpt lat="42.1735" lon="2.30593">
        <ele>1135</ele>
        <time>2018-11-26T10:35:46Z</time>
      </trkpt>
      <trkpt lat="42.17349" lon="2.30586">
        <ele>1136.1</ele>
        <time>2018-11-26T10:35:48Z</time>
      </trkpt>
      <trkpt lat="42.1735" lon="2.30584">
        <ele>1135.1</ele>
        <time>2018-11-26T10:35:49Z</time>
      </trkpt>
      <trkpt lat="42.17348" lon="2.30583">
        <ele>1135.1</ele>
        <time>2018-11-26T10:35:50Z</time>
      </trkpt>
      <trkpt lat="42.17346" lon="2.30583">
        <ele>1134.1</ele>
        <time>2018-11-26T10:35:50Z</time>
      </trkpt>
      <trkpt lat="42.17344" lon="2.30584">
        <ele>1134.1</ele>
        <time>2018-11-26T10:35:51Z</time>
      </trkpt>
      <trkpt lat="42.17342" lon="2.30582">
        <ele>1134</ele>
        <time>2018-11-26T10:35:52Z</time>
      </trkpt>
      <trkpt lat="42.1734" lon="2.30581">
        <ele>1134.1</ele>
        <time>2018-11-26T10:35:53Z</time>
      </trkpt>
      <trkpt lat="42.17337" lon="2.30581">
        <ele>1133</ele>
        <time>2018-11-26T10:35:54Z</time>
      </trkpt>
      <trkpt lat="42.17335" lon="2.30581">
        <ele>1133</ele>
        <time>2018-11-26T10:35:55Z</time>
      </trkpt>
      <trkpt lat="42.17333" lon="2.30583">
        <ele>1132.8</ele>
        <time>2018-11-26T10:35:56Z</time>
      </trkpt>
      <trkpt lat="42.17331" lon="2.30584">
        <ele>1132</ele>
        <time>2018-11-26T10:35:57Z</time>
      </trkpt>
      <trkpt lat="42.17329" lon="2.30584">
        <ele>1132</ele>
        <time>2018-11-26T10:35:58Z</time>
      </trkpt>
      <trkpt lat="42.17327" lon="2.30584">
        <ele>1132</ele>
        <time>2018-11-26T10:35:59Z</time>
      </trkpt>
      <trkpt lat="42.17324" lon="2.30584">
        <ele>1131.1</ele>
        <time>2018-11-26T10:36:00Z</time>
      </trkpt>
      <trkpt lat="42.17322" lon="2.30584">
        <ele>1131</ele>
        <time>2018-11-26T10:36:01Z</time>
      </trkpt>
      <trkpt lat="42.1732" lon="2.30586">
        <ele>1131.1</ele>
        <time>2018-11-26T10:36:01Z</time>
      </trkpt>
      <trkpt lat="42.17322" lon="2.30583">
        <ele>1132</ele>
        <time>2018-11-26T10:36:03Z</time>
      </trkpt>
      <trkpt lat="42.17324" lon="2.30584">
        <ele>1132.2</ele>
        <time>2018-11-26T10:36:03Z</time>
      </trkpt>
      <trkpt lat="42.17323" lon="2.30587">
        <ele>1132.9</ele>
        <time>2018-11-26T10:36:04Z</time>
      </trkpt>
      <trkpt lat="42.17322" lon="2.30589">
        <ele>1132.1</ele>
        <time>2018-11-26T10:36:05Z</time>
      </trkpt>
      <trkpt lat="42.17322" lon="2.30592">
        <ele>1131</ele>
        <time>2018-11-26T10:36:06Z</time>
      </trkpt>
      <trkpt lat="42.17324" lon="2.30591">
        <ele>1132</ele>
        <time>2018-11-26T10:36:07Z</time>
      </trkpt>
      <trkpt lat="42.17326" lon="2.30593">
        <ele>1132</ele>
        <time>2018-11-26T10:36:08Z</time>
      </trkpt>
      <trkpt lat="42.17327" lon="2.30593">
        <ele>1133</ele>
        <time>2018-11-26T10:36:09Z</time>
      </trkpt>
      <trkpt lat="42.17329" lon="2.30593">
        <ele>1133</ele>
        <time>2018-11-26T10:36:09Z</time>
      </trkpt>
      <trkpt lat="42.17332" lon="2.30594">
        <ele>1133.1</ele>
        <time>2018-11-26T10:36:10Z</time>
      </trkpt>
      <trkpt lat="42.17334" lon="2.30594">
        <ele>1133.1</ele>
        <time>2018-11-26T10:36:11Z</time>
      </trkpt>
      <trkpt lat="42.17336" lon="2.30592">
        <ele>1134.1</ele>
        <time>2018-11-26T10:36:12Z</time>
      </trkpt>
      <trkpt lat="42.17339" lon="2.30592">
        <ele>1134.1</ele>
        <time>2018-11-26T10:36:13Z</time>
      </trkpt>
      <trkpt lat="42.17341" lon="2.30591">
        <ele>1134</ele>
        <time>2018-11-26T10:36:14Z</time>
      </trkpt>
      <trkpt lat="42.17344" lon="2.30592">
        <ele>1134.1</ele>
        <time>2018-11-26T10:36:15Z</time>
      </trkpt>
      <trkpt lat="42.17346" lon="2.30592">
        <ele>1135</ele>
        <time>2018-11-26T10:36:16Z</time>
      </trkpt>
      <trkpt lat="42.17347" lon="2.30594">
        <ele>1134.1</ele>
        <time>2018-11-26T10:36:17Z</time>
      </trkpt>
      <trkpt lat="42.1735" lon="2.30595">
        <ele>1134</ele>
        <time>2018-11-26T10:36:18Z</time>
      </trkpt>
      <trkpt lat="42.17352" lon="2.30596">
        <ele>1134</ele>
        <time>2018-11-26T10:36:19Z</time>
      </trkpt>
      <trkpt lat="42.17356" lon="2.30596">
        <ele>1133</ele>
        <time>2018-11-26T10:36:20Z</time>
      </trkpt>
      <trkpt lat="42.17359" lon="2.30599">
        <ele>1132.1</ele>
        <time>2018-11-26T10:36:22Z</time>
      </trkpt>
      <trkpt lat="42.17361" lon="2.30602">
        <ele>1131</ele>
        <time>2018-11-26T10:36:23Z</time>
      </trkpt>
      <trkpt lat="42.17363" lon="2.306">
        <ele>1131</ele>
        <time>2018-11-26T10:36:24Z</time>
      </trkpt>
      <trkpt lat="42.17366" lon="2.30601">
        <ele>1129.1</ele>
        <time>2018-11-26T10:36:25Z</time>
      </trkpt>
      <trkpt lat="42.17368" lon="2.30602">
        <ele>1129</ele>
        <time>2018-11-26T10:36:26Z</time>
      </trkpt>
      <trkpt lat="42.17371" lon="2.30603">
        <ele>1128</ele>
        <time>2018-11-26T10:36:27Z</time>
      </trkpt>
      <trkpt lat="42.17373" lon="2.30604">
        <ele>1127.8</ele>
        <time>2018-11-26T10:36:28Z</time>
      </trkpt>
      <trkpt lat="42.17374" lon="2.30607">
        <ele>1127</ele>
        <time>2018-11-26T10:36:29Z</time>
      </trkpt>
      <trkpt lat="42.17373" lon="2.3061">
        <ele>1127.1</ele>
        <time>2018-11-26T10:36:30Z</time>
      </trkpt>
      <trkpt lat="42.17372" lon="2.30613">
        <ele>1126</ele>
        <time>2018-11-26T10:36:31Z</time>
      </trkpt>
      <trkpt lat="42.17373" lon="2.30616">
        <ele>1125</ele>
        <time>2018-11-26T10:36:32Z</time>
      </trkpt>
      <trkpt lat="42.17375" lon="2.30619">
        <ele>1124.1</ele>
        <time>2018-11-26T10:36:33Z</time>
      </trkpt>
      <trkpt lat="42.17375" lon="2.30621">
        <ele>1124</ele>
        <time>2018-11-26T10:36:34Z</time>
      </trkpt>
      <trkpt lat="42.17375" lon="2.30624">
        <ele>1124.1</ele>
        <time>2018-11-26T10:36:35Z</time>
      </trkpt>
      <trkpt lat="42.17377" lon="2.30628">
        <ele>1123.9</ele>
        <time>2018-11-26T10:36:36Z</time>
      </trkpt>
      <trkpt lat="42.17377" lon="2.3063">
        <ele>1123</ele>
        <time>2018-11-26T10:36:37Z</time>
      </trkpt>
      <trkpt lat="42.17378" lon="2.30633">
        <ele>1122.1</ele>
        <time>2018-11-26T10:36:38Z</time>
      </trkpt>
      <trkpt lat="42.17375" lon="2.3063">
        <ele>1120.1</ele>
        <time>2018-11-26T10:36:39Z</time>
      </trkpt>
      <trkpt lat="42.17366" lon="2.30631">
        <ele>1120.1</ele>
        <time>2018-11-26T10:36:43Z</time>
      </trkpt>
      <trkpt lat="42.17368" lon="2.30632">
        <ele>1120.1</ele>
        <time>2018-11-26T10:36:44Z</time>
      </trkpt>
      <trkpt lat="42.17371" lon="2.30631">
        <ele>1119.1</ele>
        <time>2018-11-26T10:36:45Z</time>
      </trkpt>
      <trkpt lat="42.17373" lon="2.30632">
        <ele>1119</ele>
        <time>2018-11-26T10:36:46Z</time>
      </trkpt>
      <trkpt lat="42.17375" lon="2.30633">
        <ele>1119.1</ele>
        <time>2018-11-26T10:36:47Z</time>
      </trkpt>
      <trkpt lat="42.17377" lon="2.30633">
        <ele>1120.3</ele>
        <time>2018-11-26T10:36:47Z</time>
      </trkpt>
      <trkpt lat="42.17379" lon="2.30635">
        <ele>1121.1</ele>
        <time>2018-11-26T10:36:48Z</time>
      </trkpt>
      <trkpt lat="42.17381" lon="2.30636">
        <ele>1121.2</ele>
        <time>2018-11-26T10:36:49Z</time>
      </trkpt>
      <trkpt lat="42.17383" lon="2.30637">
        <ele>1121</ele>
        <time>2018-11-26T10:36:50Z</time>
      </trkpt>
      <trkpt lat="42.17385" lon="2.30639">
        <ele>1121</ele>
        <time>2018-11-26T10:36:51Z</time>
      </trkpt>
      <trkpt lat="42.17388" lon="2.3064">
        <ele>1120</ele>
        <time>2018-11-26T10:36:52Z</time>
      </trkpt>
      <trkpt lat="42.17389" lon="2.30642">
        <ele>1120.1</ele>
        <time>2018-11-26T10:36:53Z</time>
      </trkpt>
      <trkpt lat="42.17391" lon="2.30643">
        <ele>1120</ele>
        <time>2018-11-26T10:36:54Z</time>
      </trkpt>
      <trkpt lat="42.17393" lon="2.30645">
        <ele>1119.8</ele>
        <time>2018-11-26T10:36:55Z</time>
      </trkpt>
      <trkpt lat="42.17395" lon="2.30646">
        <ele>1119</ele>
        <time>2018-11-26T10:36:56Z</time>
      </trkpt>
      <trkpt lat="42.17396" lon="2.30648">
        <ele>1119</ele>
        <time>2018-11-26T10:36:56Z</time>
      </trkpt>
      <trkpt lat="42.17396" lon="2.30651">
        <ele>1119</ele>
        <time>2018-11-26T10:36:57Z</time>
      </trkpt>
      <trkpt lat="42.17397" lon="2.30654">
        <ele>1118</ele>
        <time>2018-11-26T10:36:58Z</time>
      </trkpt>
      <trkpt lat="42.17398" lon="2.30657">
        <ele>1118</ele>
        <time>2018-11-26T10:36:59Z</time>
      </trkpt>
      <trkpt lat="42.17398" lon="2.3066">
        <ele>1117.1</ele>
        <time>2018-11-26T10:37:00Z</time>
      </trkpt>
      <trkpt lat="42.17396" lon="2.30663">
        <ele>1116.9</ele>
        <time>2018-11-26T10:37:01Z</time>
      </trkpt>
      <trkpt lat="42.17395" lon="2.30661">
        <ele>1117.2</ele>
        <time>2018-11-26T10:37:02Z</time>
      </trkpt>
      <trkpt lat="42.17394" lon="2.30659">
        <ele>1118.3</ele>
        <time>2018-11-26T10:37:03Z</time>
      </trkpt>
      <trkpt lat="42.17393" lon="2.30656">
        <ele>1119</ele>
        <time>2018-11-26T10:37:03Z</time>
      </trkpt>
      <trkpt lat="42.17394" lon="2.30653">
        <ele>1119.1</ele>
        <time>2018-11-26T10:37:04Z</time>
      </trkpt>
      <trkpt lat="42.17394" lon="2.3065">
        <ele>1118</ele>
        <time>2018-11-26T10:37:05Z</time>
      </trkpt>
      <trkpt lat="42.17396" lon="2.3065">
        <ele>1118.1</ele>
        <time>2018-11-26T10:37:06Z</time>
      </trkpt>
      <trkpt lat="42.17398" lon="2.3065">
        <ele>1118</ele>
        <time>2018-11-26T10:37:07Z</time>
      </trkpt>
      <trkpt lat="42.17401" lon="2.3065">
        <ele>1117</ele>
        <time>2018-11-26T10:37:08Z</time>
      </trkpt>
      <trkpt lat="42.17403" lon="2.30651">
        <ele>1116.1</ele>
        <time>2018-11-26T10:37:09Z</time>
      </trkpt>
      <trkpt lat="42.17404" lon="2.30653">
        <ele>1116.1</ele>
        <time>2018-11-26T10:37:10Z</time>
      </trkpt>
      <trkpt lat="42.17406" lon="2.30655">
        <ele>1115</ele>
        <time>2018-11-26T10:37:11Z</time>
      </trkpt>
      <trkpt lat="42.17406" lon="2.30658">
        <ele>1114.1</ele>
        <time>2018-11-26T10:37:12Z</time>
      </trkpt>
      <trkpt lat="42.17404" lon="2.3066">
        <ele>1113</ele>
        <time>2018-11-26T10:37:12Z</time>
      </trkpt>
      <trkpt lat="42.17403" lon="2.30663">
        <ele>1112.1</ele>
        <time>2018-11-26T10:37:13Z</time>
      </trkpt>
      <trkpt lat="42.17403" lon="2.30666">
        <ele>1111.1</ele>
        <time>2018-11-26T10:37:14Z</time>
      </trkpt>
      <trkpt lat="42.17402" lon="2.30668">
        <ele>1111</ele>
        <time>2018-11-26T10:37:15Z</time>
      </trkpt>
      <trkpt lat="42.17403" lon="2.30669">
        <ele>1111.1</ele>
        <time>2018-11-26T10:37:16Z</time>
      </trkpt>
      <trkpt lat="42.17405" lon="2.3067">
        <ele>1111</ele>
        <time>2018-11-26T10:37:16Z</time>
      </trkpt>
      <trkpt lat="42.17407" lon="2.30671">
        <ele>1110</ele>
        <time>2018-11-26T10:37:17Z</time>
      </trkpt>
      <trkpt lat="42.17408" lon="2.30669">
        <ele>1108</ele>
        <time>2018-11-26T10:37:18Z</time>
      </trkpt>
      <trkpt lat="42.17409" lon="2.30671">
        <ele>1107</ele>
        <time>2018-11-26T10:37:19Z</time>
      </trkpt>
      <trkpt lat="42.17417" lon="2.30679">
        <ele>1106</ele>
        <time>2018-11-26T10:37:23Z</time>
      </trkpt>
      <trkpt lat="42.17418" lon="2.30681">
        <ele>1106</ele>
        <time>2018-11-26T10:37:24Z</time>
      </trkpt>
      <trkpt lat="42.1742" lon="2.30684">
        <ele>1106.1</ele>
        <time>2018-11-26T10:37:25Z</time>
      </trkpt>
      <trkpt lat="42.17422" lon="2.30686">
        <ele>1106</ele>
        <time>2018-11-26T10:37:26Z</time>
      </trkpt>
      <trkpt lat="42.17424" lon="2.30687">
        <ele>1106.1</ele>
        <time>2018-11-26T10:37:27Z</time>
      </trkpt>
      <trkpt lat="42.17426" lon="2.30689">
        <ele>1106.1</ele>
        <time>2018-11-26T10:37:27Z</time>
      </trkpt>
      <trkpt lat="42.17429" lon="2.3069">
        <ele>1106</ele>
        <time>2018-11-26T10:37:29Z</time>
      </trkpt>
      <trkpt lat="42.17431" lon="2.3069">
        <ele>1106.1</ele>
        <time>2018-11-26T10:37:30Z</time>
      </trkpt>
      <trkpt lat="42.17434" lon="2.30692">
        <ele>1106.1</ele>
        <time>2018-11-26T10:37:31Z</time>
      </trkpt>
      <trkpt lat="42.17437" lon="2.30694">
        <ele>1105</ele>
        <time>2018-11-26T10:37:32Z</time>
      </trkpt>
      <trkpt lat="42.17437" lon="2.30698">
        <ele>1105</ele>
        <time>2018-11-26T10:37:33Z</time>
      </trkpt>
      <trkpt lat="42.17436" lon="2.307">
        <ele>1104.6</ele>
        <time>2018-11-26T10:37:34Z</time>
      </trkpt>
      <trkpt lat="42.17435" lon="2.30706">
        <ele>1103.1</ele>
        <time>2018-11-26T10:37:36Z</time>
      </trkpt>
      <trkpt lat="42.17434" lon="2.30708">
        <ele>1103.1</ele>
        <time>2018-11-26T10:37:37Z</time>
      </trkpt>
      <trkpt lat="42.17433" lon="2.30711">
        <ele>1103.1</ele>
        <time>2018-11-26T10:37:37Z</time>
      </trkpt>
      <trkpt lat="42.17432" lon="2.30713">
        <ele>1103.1</ele>
        <time>2018-11-26T10:37:38Z</time>
      </trkpt>
      <trkpt lat="42.17431" lon="2.30708">
        <ele>1103.1</ele>
        <time>2018-11-26T10:37:40Z</time>
      </trkpt>
      <trkpt lat="42.1743" lon="2.30703">
        <ele>1103.1</ele>
        <time>2018-11-26T10:37:42Z</time>
      </trkpt>
      <trkpt lat="42.17432" lon="2.30704">
        <ele>1103.1</ele>
        <time>2018-11-26T10:37:42Z</time>
      </trkpt>
      <trkpt lat="42.17435" lon="2.30703">
        <ele>1103</ele>
        <time>2018-11-26T10:37:44Z</time>
      </trkpt>
      <trkpt lat="42.17441" lon="2.30706">
        <ele>1103.1</ele>
        <time>2018-11-26T10:37:46Z</time>
      </trkpt>
      <trkpt lat="42.1744" lon="2.30702">
        <ele>1102</ele>
        <time>2018-11-26T10:37:47Z</time>
      </trkpt>
      <trkpt lat="42.1744" lon="2.307">
        <ele>1101</ele>
        <time>2018-11-26T10:37:48Z</time>
      </trkpt>
      <trkpt lat="42.17442" lon="2.307">
        <ele>1101</ele>
        <time>2018-11-26T10:37:49Z</time>
      </trkpt>
      <trkpt lat="42.17446" lon="2.30703">
        <ele>1102</ele>
        <time>2018-11-26T10:37:51Z</time>
      </trkpt>
      <trkpt lat="42.17448" lon="2.30704">
        <ele>1103</ele>
        <time>2018-11-26T10:37:52Z</time>
      </trkpt>
      <trkpt lat="42.1745" lon="2.30704">
        <ele>1103.1</ele>
        <time>2018-11-26T10:37:53Z</time>
      </trkpt>
      <trkpt lat="42.17452" lon="2.30703">
        <ele>1103.1</ele>
        <time>2018-11-26T10:37:53Z</time>
      </trkpt>
      <trkpt lat="42.17452" lon="2.30706">
        <ele>1103.1</ele>
        <time>2018-11-26T10:37:54Z</time>
      </trkpt>
      <trkpt lat="42.17454" lon="2.30706">
        <ele>1103</ele>
        <time>2018-11-26T10:37:55Z</time>
      </trkpt>
      <trkpt lat="42.17456" lon="2.30706">
        <ele>1103</ele>
        <time>2018-11-26T10:37:56Z</time>
      </trkpt>
      <trkpt lat="42.17459" lon="2.30706">
        <ele>1103.1</ele>
        <time>2018-11-26T10:37:57Z</time>
      </trkpt>
      <trkpt lat="42.17461" lon="2.30705">
        <ele>1103</ele>
        <time>2018-11-26T10:37:58Z</time>
      </trkpt>
      <trkpt lat="42.17464" lon="2.30707">
        <ele>1103</ele>
        <time>2018-11-26T10:37:59Z</time>
      </trkpt>
      <trkpt lat="42.17467" lon="2.30708">
        <ele>1103</ele>
        <time>2018-11-26T10:38:00Z</time>
      </trkpt>
      <trkpt lat="42.17469" lon="2.30709">
        <ele>1103.1</ele>
        <time>2018-11-26T10:38:01Z</time>
      </trkpt>
      <trkpt lat="42.17472" lon="2.30712">
        <ele>1103.1</ele>
        <time>2018-11-26T10:38:03Z</time>
      </trkpt>
      <trkpt lat="42.17474" lon="2.30714">
        <ele>1103</ele>
        <time>2018-11-26T10:38:04Z</time>
      </trkpt>
      <trkpt lat="42.17477" lon="2.30715">
        <ele>1103</ele>
        <time>2018-11-26T10:38:05Z</time>
      </trkpt>
      <trkpt lat="42.17483" lon="2.3072">
        <ele>1103.1</ele>
        <time>2018-11-26T10:38:08Z</time>
      </trkpt>
      <trkpt lat="42.17489" lon="2.30723">
        <ele>1103</ele>
        <time>2018-11-26T10:38:11Z</time>
      </trkpt>
      <trkpt lat="42.17499" lon="2.30727">
        <ele>1101</ele>
        <time>2018-11-26T10:38:15Z</time>
      </trkpt>
      <trkpt lat="42.17501" lon="2.30728">
        <ele>1100.8</ele>
        <time>2018-11-26T10:38:16Z</time>
      </trkpt>
      <trkpt lat="42.17504" lon="2.30728">
        <ele>1100</ele>
        <time>2018-11-26T10:38:17Z</time>
      </trkpt>
      <trkpt lat="42.17512" lon="2.30728">
        <ele>1099.1</ele>
        <time>2018-11-26T10:38:20Z</time>
      </trkpt>
      <trkpt lat="42.17521" lon="2.30733">
        <ele>1098</ele>
        <time>2018-11-26T10:38:24Z</time>
      </trkpt>
      <trkpt lat="42.17531" lon="2.30737">
        <ele>1098</ele>
        <time>2018-11-26T10:38:28Z</time>
      </trkpt>
      <trkpt lat="42.17539" lon="2.30744">
        <ele>1098.1</ele>
        <time>2018-11-26T10:38:32Z</time>
      </trkpt>
      <trkpt lat="42.17548" lon="2.30748">
        <ele>1099.1</ele>
        <time>2018-11-26T10:38:36Z</time>
      </trkpt>
      <trkpt lat="42.17557" lon="2.30752">
        <ele>1099.1</ele>
        <time>2018-11-26T10:38:39Z</time>
      </trkpt>
      <trkpt lat="42.17559" lon="2.30752">
        <ele>1098.8</ele>
        <time>2018-11-26T10:38:40Z</time>
      </trkpt>
      <trkpt lat="42.17562" lon="2.30752">
        <ele>1098</ele>
        <time>2018-11-26T10:38:41Z</time>
      </trkpt>
      <trkpt lat="42.17565" lon="2.30752">
        <ele>1097.1</ele>
        <time>2018-11-26T10:38:42Z</time>
      </trkpt>
      <trkpt lat="42.17566" lon="2.3075">
        <ele>1096.1</ele>
        <time>2018-11-26T10:38:43Z</time>
      </trkpt>
      <trkpt lat="42.17568" lon="2.30749">
        <ele>1095.9</ele>
        <time>2018-11-26T10:38:44Z</time>
      </trkpt>
      <trkpt lat="42.1757" lon="2.30749">
        <ele>1094</ele>
        <time>2018-11-26T10:38:45Z</time>
      </trkpt>
      <trkpt lat="42.17573" lon="2.30752">
        <ele>1093.9</ele>
        <time>2018-11-26T10:38:46Z</time>
      </trkpt>
      <trkpt lat="42.17575" lon="2.30754">
        <ele>1093</ele>
        <time>2018-11-26T10:38:47Z</time>
      </trkpt>
      <trkpt lat="42.17576" lon="2.30752">
        <ele>1093</ele>
        <time>2018-11-26T10:38:48Z</time>
      </trkpt>
      <trkpt lat="42.17578" lon="2.30751">
        <ele>1092</ele>
        <time>2018-11-26T10:38:49Z</time>
      </trkpt>
      <trkpt lat="42.17579" lon="2.30748">
        <ele>1092.1</ele>
        <time>2018-11-26T10:38:50Z</time>
      </trkpt>
      <trkpt lat="42.17578" lon="2.30746">
        <ele>1091</ele>
        <time>2018-11-26T10:38:51Z</time>
      </trkpt>
      <trkpt lat="42.17577" lon="2.30743">
        <ele>1091.1</ele>
        <time>2018-11-26T10:38:52Z</time>
      </trkpt>
      <trkpt lat="42.17576" lon="2.30741">
        <ele>1091</ele>
        <time>2018-11-26T10:38:53Z</time>
      </trkpt>
      <trkpt lat="42.17574" lon="2.30738">
        <ele>1091.1</ele>
        <time>2018-11-26T10:38:53Z</time>
      </trkpt>
      <trkpt lat="42.17574" lon="2.30736">
        <ele>1090</ele>
        <time>2018-11-26T10:38:54Z</time>
      </trkpt>
      <trkpt lat="42.17572" lon="2.30733">
        <ele>1090</ele>
        <time>2018-11-26T10:38:55Z</time>
      </trkpt>
      <trkpt lat="42.1757" lon="2.30731">
        <ele>1090</ele>
        <time>2018-11-26T10:38:56Z</time>
      </trkpt>
      <trkpt lat="42.17569" lon="2.3073">
        <ele>1090.1</ele>
        <time>2018-11-26T10:38:57Z</time>
      </trkpt>
      <trkpt lat="42.17566" lon="2.30728">
        <ele>1090</ele>
        <time>2018-11-26T10:38:58Z</time>
      </trkpt>
      <trkpt lat="42.17562" lon="2.30726">
        <ele>1092</ele>
        <time>2018-11-26T10:39:00Z</time>
      </trkpt>
      <trkpt lat="42.17552" lon="2.30725">
        <ele>1091.5</ele>
        <time>2018-11-26T10:39:04Z</time>
      </trkpt>
      <trkpt lat="42.17551" lon="2.30724">
        <ele>1091.1</ele>
        <time>2018-11-26T10:39:04Z</time>
      </trkpt>
      <trkpt lat="42.17548" lon="2.30723">
        <ele>1091</ele>
        <time>2018-11-26T10:39:06Z</time>
      </trkpt>
      <trkpt lat="42.17546" lon="2.30724">
        <ele>1092.1</ele>
        <time>2018-11-26T10:39:06Z</time>
      </trkpt>
      <trkpt lat="42.17545" lon="2.30726">
        <ele>1093.1</ele>
        <time>2018-11-26T10:39:07Z</time>
      </trkpt>
      <trkpt lat="42.17543" lon="2.30728">
        <ele>1093.1</ele>
        <time>2018-11-26T10:39:08Z</time>
      </trkpt>
      <trkpt lat="42.17541" lon="2.30728">
        <ele>1093.1</ele>
        <time>2018-11-26T10:39:09Z</time>
      </trkpt>
      <trkpt lat="42.17538" lon="2.30727">
        <ele>1093.1</ele>
        <time>2018-11-26T10:39:10Z</time>
      </trkpt>
      <trkpt lat="42.17535" lon="2.30727">
        <ele>1092</ele>
        <time>2018-11-26T10:39:11Z</time>
      </trkpt>
      <trkpt lat="42.17533" lon="2.30731">
        <ele>1093</ele>
        <time>2018-11-26T10:39:13Z</time>
      </trkpt>
      <trkpt lat="42.17533" lon="2.30734">
        <ele>1093</ele>
        <time>2018-11-26T10:39:14Z</time>
      </trkpt>
      <trkpt lat="42.17536" lon="2.30735">
        <ele>1094</ele>
        <time>2018-11-26T10:39:15Z</time>
      </trkpt>
      <trkpt lat="42.17543" lon="2.30738">
        <ele>1092.1</ele>
        <time>2018-11-26T10:39:18Z</time>
      </trkpt>
      <trkpt lat="42.17553" lon="2.30735">
        <ele>1090</ele>
        <time>2018-11-26T10:39:22Z</time>
      </trkpt>
      <trkpt lat="42.17562" lon="2.30738">
        <ele>1090.1</ele>
        <time>2018-11-26T10:39:26Z</time>
      </trkpt>
      <trkpt lat="42.17566" lon="2.30738">
        <ele>1090.1</ele>
        <time>2018-11-26T10:39:27Z</time>
      </trkpt>
      <trkpt lat="42.17573" lon="2.30742">
        <ele>1090</ele>
        <time>2018-11-26T10:39:30Z</time>
      </trkpt>
      <trkpt lat="42.17575" lon="2.30744">
        <ele>1090.2</ele>
        <time>2018-11-26T10:39:31Z</time>
      </trkpt>
      <trkpt lat="42.17576" lon="2.30745">
        <ele>1092</ele>
        <time>2018-11-26T10:39:32Z</time>
      </trkpt>
      <trkpt lat="42.17578" lon="2.30744">
        <ele>1091.1</ele>
        <time>2018-11-26T10:39:33Z</time>
      </trkpt>
      <trkpt lat="42.1758" lon="2.30744">
        <ele>1088.9</ele>
        <time>2018-11-26T10:39:33Z</time>
      </trkpt>
      <trkpt lat="42.17583" lon="2.30743">
        <ele>1088.1</ele>
        <time>2018-11-26T10:39:35Z</time>
      </trkpt>
      <trkpt lat="42.17585" lon="2.30742">
        <ele>1088</ele>
        <time>2018-11-26T10:39:35Z</time>
      </trkpt>
      <trkpt lat="42.17587" lon="2.30741">
        <ele>1087</ele>
        <time>2018-11-26T10:39:36Z</time>
      </trkpt>
      <trkpt lat="42.17585" lon="2.30739">
        <ele>1086.7</ele>
        <time>2018-11-26T10:39:37Z</time>
      </trkpt>
      <trkpt lat="42.17587" lon="2.30739">
        <ele>1085</ele>
        <time>2018-11-26T10:39:38Z</time>
      </trkpt>
      <trkpt lat="42.17585" lon="2.30741">
        <ele>1086.1</ele>
        <time>2018-11-26T10:39:39Z</time>
      </trkpt>
      <trkpt lat="42.17587" lon="2.3074">
        <ele>1086.1</ele>
        <time>2018-11-26T10:39:40Z</time>
      </trkpt>
      <trkpt lat="42.17588" lon="2.30738">
        <ele>1085.1</ele>
        <time>2018-11-26T10:39:40Z</time>
      </trkpt>
      <trkpt lat="42.1759" lon="2.30737">
        <ele>1084.1</ele>
        <time>2018-11-26T10:39:41Z</time>
      </trkpt>
      <trkpt lat="42.17592" lon="2.30736">
        <ele>1084.1</ele>
        <time>2018-11-26T10:39:42Z</time>
      </trkpt>
      <trkpt lat="42.1759" lon="2.30737">
        <ele>1085</ele>
        <time>2018-11-26T10:39:43Z</time>
      </trkpt>
      <trkpt lat="42.1759" lon="2.3074">
        <ele>1085.1</ele>
        <time>2018-11-26T10:39:44Z</time>
      </trkpt>
      <trkpt lat="42.17589" lon="2.30742">
        <ele>1085</ele>
        <time>2018-11-26T10:39:44Z</time>
      </trkpt>
      <trkpt lat="42.17591" lon="2.30745">
        <ele>1084.8</ele>
        <time>2018-11-26T10:39:45Z</time>
      </trkpt>
      <trkpt lat="42.17592" lon="2.30745">
        <ele>1084</ele>
        <time>2018-11-26T10:39:46Z</time>
      </trkpt>
      <trkpt lat="42.17594" lon="2.30747">
        <ele>1083.7</ele>
        <time>2018-11-26T10:39:47Z</time>
      </trkpt>
      <trkpt lat="42.17596" lon="2.30748">
        <ele>1083</ele>
        <time>2018-11-26T10:39:48Z</time>
      </trkpt>
      <trkpt lat="42.17599" lon="2.30749">
        <ele>1083</ele>
        <time>2018-11-26T10:39:49Z</time>
      </trkpt>
      <trkpt lat="42.17606" lon="2.30753">
        <ele>1083</ele>
        <time>2018-11-26T10:39:52Z</time>
      </trkpt>
      <trkpt lat="42.17614" lon="2.30759">
        <ele>1082.1</ele>
        <time>2018-11-26T10:39:56Z</time>
      </trkpt>
      <trkpt lat="42.17619" lon="2.30763">
        <ele>1081.8</ele>
        <time>2018-11-26T10:39:58Z</time>
      </trkpt>
      <trkpt lat="42.17628" lon="2.30768">
        <ele>1079</ele>
        <time>2018-11-26T10:40:02Z</time>
      </trkpt>
      <trkpt lat="42.1763" lon="2.30769">
        <ele>1079.1</ele>
        <time>2018-11-26T10:40:03Z</time>
      </trkpt>
      <trkpt lat="42.17633" lon="2.30771">
        <ele>1079</ele>
        <time>2018-11-26T10:40:04Z</time>
      </trkpt>
      <trkpt lat="42.17641" lon="2.30778">
        <ele>1080.1</ele>
        <time>2018-11-26T10:40:08Z</time>
      </trkpt>
      <trkpt lat="42.17647" lon="2.30781">
        <ele>1079</ele>
        <time>2018-11-26T10:40:11Z</time>
      </trkpt>
      <trkpt lat="42.17657" lon="2.30782">
        <ele>1078</ele>
        <time>2018-11-26T10:40:14Z</time>
      </trkpt>
      <trkpt lat="42.17666" lon="2.30784">
        <ele>1078</ele>
        <time>2018-11-26T10:40:18Z</time>
      </trkpt>
      <trkpt lat="42.17674" lon="2.30785">
        <ele>1077.1</ele>
        <time>2018-11-26T10:40:21Z</time>
      </trkpt>
      <trkpt lat="42.1768" lon="2.30776">
        <ele>1073.1</ele>
        <time>2018-11-26T10:40:25Z</time>
      </trkpt>
      <trkpt lat="42.17682" lon="2.30774">
        <ele>1074</ele>
        <time>2018-11-26T10:40:26Z</time>
      </trkpt>
      <trkpt lat="42.17682" lon="2.30771">
        <ele>1074.1</ele>
        <time>2018-11-26T10:40:27Z</time>
      </trkpt>
      <trkpt lat="42.17682" lon="2.30768">
        <ele>1073.1</ele>
        <time>2018-11-26T10:40:28Z</time>
      </trkpt>
      <trkpt lat="42.17685" lon="2.30769">
        <ele>1073</ele>
        <time>2018-11-26T10:40:29Z</time>
      </trkpt>
      <trkpt lat="42.17687" lon="2.30769">
        <ele>1072.1</ele>
        <time>2018-11-26T10:40:30Z</time>
      </trkpt>
      <trkpt lat="42.1769" lon="2.3077">
        <ele>1072.1</ele>
        <time>2018-11-26T10:40:31Z</time>
      </trkpt>
      <trkpt lat="42.17692" lon="2.3077">
        <ele>1072.1</ele>
        <time>2018-11-26T10:40:31Z</time>
      </trkpt>
      <trkpt lat="42.17694" lon="2.30769">
        <ele>1072</ele>
        <time>2018-11-26T10:40:32Z</time>
      </trkpt>
      <trkpt lat="42.17697" lon="2.30769">
        <ele>1073</ele>
        <time>2018-11-26T10:40:33Z</time>
      </trkpt>
      <trkpt lat="42.17699" lon="2.30769">
        <ele>1073</ele>
        <time>2018-11-26T10:40:34Z</time>
      </trkpt>
      <trkpt lat="42.17702" lon="2.30767">
        <ele>1073</ele>
        <time>2018-11-26T10:40:36Z</time>
      </trkpt>
      <trkpt lat="42.17705" lon="2.30766">
        <ele>1073.1</ele>
        <time>2018-11-26T10:40:37Z</time>
      </trkpt>
      <trkpt lat="42.17707" lon="2.30764">
        <ele>1073.1</ele>
        <time>2018-11-26T10:40:38Z</time>
      </trkpt>
      <trkpt lat="42.17709" lon="2.30762">
        <ele>1073</ele>
        <time>2018-11-26T10:40:39Z</time>
      </trkpt>
      <trkpt lat="42.17711" lon="2.30761">
        <ele>1072.9</ele>
        <time>2018-11-26T10:40:40Z</time>
      </trkpt>
      <trkpt lat="42.17714" lon="2.30762">
        <ele>1072.1</ele>
        <time>2018-11-26T10:40:41Z</time>
      </trkpt>
      <trkpt lat="42.17717" lon="2.30763">
        <ele>1072</ele>
        <time>2018-11-26T10:40:42Z</time>
      </trkpt>
      <trkpt lat="42.1772" lon="2.30762">
        <ele>1073</ele>
        <time>2018-11-26T10:40:43Z</time>
      </trkpt>
      <trkpt lat="42.17723" lon="2.30761">
        <ele>1073.1</ele>
        <time>2018-11-26T10:40:45Z</time>
      </trkpt>
      <trkpt lat="42.17726" lon="2.30761">
        <ele>1073</ele>
        <time>2018-11-26T10:40:46Z</time>
      </trkpt>
      <trkpt lat="42.17729" lon="2.30761">
        <ele>1074</ele>
        <time>2018-11-26T10:40:47Z</time>
      </trkpt>
      <trkpt lat="42.17731" lon="2.3076">
        <ele>1074.1</ele>
        <time>2018-11-26T10:40:48Z</time>
      </trkpt>
      <trkpt lat="42.17734" lon="2.30759">
        <ele>1074.1</ele>
        <time>2018-11-26T10:40:49Z</time>
      </trkpt>
      <trkpt lat="42.17736" lon="2.30758">
        <ele>1074.1</ele>
        <time>2018-11-26T10:40:50Z</time>
      </trkpt>
      <trkpt lat="42.17738" lon="2.30757">
        <ele>1074.1</ele>
        <time>2018-11-26T10:40:51Z</time>
      </trkpt>
      <trkpt lat="42.17741" lon="2.30757">
        <ele>1074.1</ele>
        <time>2018-11-26T10:40:52Z</time>
      </trkpt>
      <trkpt lat="42.17744" lon="2.30756">
        <ele>1074.1</ele>
        <time>2018-11-26T10:40:53Z</time>
      </trkpt>
      <trkpt lat="42.17748" lon="2.30756">
        <ele>1074</ele>
        <time>2018-11-26T10:40:55Z</time>
      </trkpt>
      <trkpt lat="42.17751" lon="2.30756">
        <ele>1074</ele>
        <time>2018-11-26T10:40:56Z</time>
      </trkpt>
      <trkpt lat="42.17754" lon="2.30756">
        <ele>1074</ele>
        <time>2018-11-26T10:40:57Z</time>
      </trkpt>
      <trkpt lat="42.17757" lon="2.30755">
        <ele>1074.1</ele>
        <time>2018-11-26T10:40:58Z</time>
      </trkpt>
      <trkpt lat="42.1776" lon="2.30755">
        <ele>1073</ele>
        <time>2018-11-26T10:40:59Z</time>
      </trkpt>
      <trkpt lat="42.17763" lon="2.30753">
        <ele>1073</ele>
        <time>2018-11-26T10:41:01Z</time>
      </trkpt>
      <trkpt lat="42.17766" lon="2.30753">
        <ele>1073</ele>
        <time>2018-11-26T10:41:02Z</time>
      </trkpt>
      <trkpt lat="42.17769" lon="2.30752">
        <ele>1073.1</ele>
        <time>2018-11-26T10:41:04Z</time>
      </trkpt>
      <trkpt lat="42.17772" lon="2.30753">
        <ele>1073.1</ele>
        <time>2018-11-26T10:41:05Z</time>
      </trkpt>
      <trkpt lat="42.17776" lon="2.30753">
        <ele>1074</ele>
        <time>2018-11-26T10:41:06Z</time>
      </trkpt>
      <trkpt lat="42.17779" lon="2.30753">
        <ele>1074.1</ele>
        <time>2018-11-26T10:41:07Z</time>
      </trkpt>
      <trkpt lat="42.17782" lon="2.30752">
        <ele>1074</ele>
        <time>2018-11-26T10:41:08Z</time>
      </trkpt>
      <trkpt lat="42.17784" lon="2.30751">
        <ele>1074</ele>
        <time>2018-11-26T10:41:09Z</time>
      </trkpt>
      <trkpt lat="42.17787" lon="2.3075">
        <ele>1074.1</ele>
        <time>2018-11-26T10:41:11Z</time>
      </trkpt>
      <trkpt lat="42.17789" lon="2.30749">
        <ele>1075</ele>
        <time>2018-11-26T10:41:12Z</time>
      </trkpt>
      <trkpt lat="42.17792" lon="2.3075">
        <ele>1075</ele>
        <time>2018-11-26T10:41:13Z</time>
      </trkpt>
      <trkpt lat="42.17795" lon="2.3075">
        <ele>1075</ele>
        <time>2018-11-26T10:41:14Z</time>
      </trkpt>
      <trkpt lat="42.17798" lon="2.30749">
        <ele>1075</ele>
        <time>2018-11-26T10:41:15Z</time>
      </trkpt>
      <trkpt lat="42.17801" lon="2.30749">
        <ele>1075</ele>
        <time>2018-11-26T10:41:16Z</time>
      </trkpt>
      <trkpt lat="42.17803" lon="2.30749">
        <ele>1074.1</ele>
        <time>2018-11-26T10:41:17Z</time>
      </trkpt>
      <trkpt lat="42.17805" lon="2.30749">
        <ele>1074.1</ele>
        <time>2018-11-26T10:41:18Z</time>
      </trkpt>
      <trkpt lat="42.17808" lon="2.3075">
        <ele>1074.1</ele>
        <time>2018-11-26T10:41:19Z</time>
      </trkpt>
      <trkpt lat="42.17815" lon="2.30748">
        <ele>1073.8</ele>
        <time>2018-11-26T10:41:22Z</time>
      </trkpt>
      <trkpt lat="42.17819" lon="2.30747">
        <ele>1073.1</ele>
        <time>2018-11-26T10:41:24Z</time>
      </trkpt>
      <trkpt lat="42.17821" lon="2.30747">
        <ele>1073.1</ele>
        <time>2018-11-26T10:41:24Z</time>
      </trkpt>
      <trkpt lat="42.17827" lon="2.30747">
        <ele>1072.1</ele>
        <time>2018-11-26T10:41:27Z</time>
      </trkpt>
      <trkpt lat="42.1783" lon="2.30748">
        <ele>1072</ele>
        <time>2018-11-26T10:41:28Z</time>
      </trkpt>
      <trkpt lat="42.17832" lon="2.30749">
        <ele>1071.9</ele>
        <time>2018-11-26T10:41:29Z</time>
      </trkpt>
      <trkpt lat="42.17834" lon="2.30749">
        <ele>1071</ele>
        <time>2018-11-26T10:41:30Z</time>
      </trkpt>
      <trkpt lat="42.17836" lon="2.3075">
        <ele>1071</ele>
        <time>2018-11-26T10:41:31Z</time>
      </trkpt>
      <trkpt lat="42.17838" lon="2.30751">
        <ele>1071</ele>
        <time>2018-11-26T10:41:31Z</time>
      </trkpt>
      <trkpt lat="42.17841" lon="2.30752">
        <ele>1069</ele>
        <time>2018-11-26T10:41:33Z</time>
      </trkpt>
      <trkpt lat="42.17843" lon="2.30753">
        <ele>1069</ele>
        <time>2018-11-26T10:41:33Z</time>
      </trkpt>
      <trkpt lat="42.17845" lon="2.30754">
        <ele>1069.1</ele>
        <time>2018-11-26T10:41:34Z</time>
      </trkpt>
      <trkpt lat="42.17847" lon="2.30755">
        <ele>1068.1</ele>
        <time>2018-11-26T10:41:35Z</time>
      </trkpt>
      <trkpt lat="42.17849" lon="2.30755">
        <ele>1068</ele>
        <time>2018-11-26T10:41:36Z</time>
      </trkpt>
      <trkpt lat="42.17851" lon="2.30757">
        <ele>1068.1</ele>
        <time>2018-11-26T10:41:37Z</time>
      </trkpt>
      <trkpt lat="42.17852" lon="2.3076">
        <ele>1067.8</ele>
        <time>2018-11-26T10:41:38Z</time>
      </trkpt>
      <trkpt lat="42.17853" lon="2.30762">
        <ele>1066.1</ele>
        <time>2018-11-26T10:41:39Z</time>
      </trkpt>
      <trkpt lat="42.1786" lon="2.30765">
        <ele>1065</ele>
        <time>2018-11-26T10:41:42Z</time>
      </trkpt>
      <trkpt lat="42.17863" lon="2.30766">
        <ele>1065</ele>
        <time>2018-11-26T10:41:43Z</time>
      </trkpt>
      <trkpt lat="42.17865" lon="2.30766">
        <ele>1065</ele>
        <time>2018-11-26T10:41:43Z</time>
      </trkpt>
      <trkpt lat="42.17867" lon="2.30767">
        <ele>1065</ele>
        <time>2018-11-26T10:41:44Z</time>
      </trkpt>
      <trkpt lat="42.17871" lon="2.30768">
        <ele>1065.1</ele>
        <time>2018-11-26T10:41:46Z</time>
      </trkpt>
      <trkpt lat="42.17874" lon="2.30769">
        <ele>1065.1</ele>
        <time>2018-11-26T10:41:47Z</time>
      </trkpt>
      <trkpt lat="42.17878" lon="2.30768">
        <ele>1066</ele>
        <time>2018-11-26T10:41:49Z</time>
      </trkpt>
      <trkpt lat="42.1788" lon="2.30767">
        <ele>1066</ele>
        <time>2018-11-26T10:41:50Z</time>
      </trkpt>
      <trkpt lat="42.17882" lon="2.30766">
        <ele>1066.1</ele>
        <time>2018-11-26T10:41:50Z</time>
      </trkpt>
      <trkpt lat="42.17884" lon="2.30765">
        <ele>1066.1</ele>
        <time>2018-11-26T10:41:51Z</time>
      </trkpt>
      <trkpt lat="42.17886" lon="2.30764">
        <ele>1065.8</ele>
        <time>2018-11-26T10:41:52Z</time>
      </trkpt>
      <trkpt lat="42.17889" lon="2.30764">
        <ele>1065</ele>
        <time>2018-11-26T10:41:53Z</time>
      </trkpt>
      <trkpt lat="42.17891" lon="2.30764">
        <ele>1065.1</ele>
        <time>2018-11-26T10:41:54Z</time>
      </trkpt>
      <trkpt lat="42.17893" lon="2.30763">
        <ele>1064</ele>
        <time>2018-11-26T10:41:55Z</time>
      </trkpt>
      <trkpt lat="42.17895" lon="2.30763">
        <ele>1064</ele>
        <time>2018-11-26T10:41:56Z</time>
      </trkpt>
      <trkpt lat="42.17897" lon="2.30766">
        <ele>1064</ele>
        <time>2018-11-26T10:41:57Z</time>
      </trkpt>
      <trkpt lat="42.17898" lon="2.30767">
        <ele>1064.1</ele>
        <time>2018-11-26T10:41:58Z</time>
      </trkpt>
      <trkpt lat="42.17901" lon="2.30767">
        <ele>1064.1</ele>
        <time>2018-11-26T10:41:59Z</time>
      </trkpt>
      <trkpt lat="42.17903" lon="2.30766">
        <ele>1064.1</ele>
        <time>2018-11-26T10:41:59Z</time>
      </trkpt>
      <trkpt lat="42.17905" lon="2.30765">
        <ele>1063.8</ele>
        <time>2018-11-26T10:42:00Z</time>
      </trkpt>
      <trkpt lat="42.17907" lon="2.30764">
        <ele>1064.1</ele>
        <time>2018-11-26T10:42:01Z</time>
      </trkpt>
      <trkpt lat="42.1791" lon="2.30762">
        <ele>1064.1</ele>
        <time>2018-11-26T10:42:03Z</time>
      </trkpt>
      <trkpt lat="42.17912" lon="2.3076">
        <ele>1064</ele>
        <time>2018-11-26T10:42:04Z</time>
      </trkpt>
      <trkpt lat="42.17915" lon="2.3076">
        <ele>1064.1</ele>
        <time>2018-11-26T10:42:05Z</time>
      </trkpt>
      <trkpt lat="42.17917" lon="2.30759">
        <ele>1064</ele>
        <time>2018-11-26T10:42:06Z</time>
      </trkpt>
      <trkpt lat="42.17919" lon="2.30758">
        <ele>1064</ele>
        <time>2018-11-26T10:42:07Z</time>
      </trkpt>
      <trkpt lat="42.17921" lon="2.30757">
        <ele>1064.1</ele>
        <time>2018-11-26T10:42:07Z</time>
      </trkpt>
      <trkpt lat="42.17924" lon="2.30756">
        <ele>1065</ele>
        <time>2018-11-26T10:42:09Z</time>
      </trkpt>
      <trkpt lat="42.17925" lon="2.30754">
        <ele>1065.1</ele>
        <time>2018-11-26T10:42:09Z</time>
      </trkpt>
      <trkpt lat="42.17927" lon="2.30754">
        <ele>1064.5</ele>
        <time>2018-11-26T10:42:10Z</time>
      </trkpt>
      <trkpt lat="42.1793" lon="2.30755">
        <ele>1064.1</ele>
        <time>2018-11-26T10:42:11Z</time>
      </trkpt>
      <trkpt lat="42.17932" lon="2.30756">
        <ele>1063</ele>
        <time>2018-11-26T10:42:12Z</time>
      </trkpt>
      <trkpt lat="42.17934" lon="2.30757">
        <ele>1062.7</ele>
        <time>2018-11-26T10:42:13Z</time>
      </trkpt>
      <trkpt lat="42.17935" lon="2.3076">
        <ele>1062.1</ele>
        <time>2018-11-26T10:42:14Z</time>
      </trkpt>
      <trkpt lat="42.17937" lon="2.30761">
        <ele>1061.1</ele>
        <time>2018-11-26T10:42:15Z</time>
      </trkpt>
      <trkpt lat="42.17939" lon="2.30761">
        <ele>1060.1</ele>
        <time>2018-11-26T10:42:16Z</time>
      </trkpt>
      <trkpt lat="42.17942" lon="2.30761">
        <ele>1059.5</ele>
        <time>2018-11-26T10:42:17Z</time>
      </trkpt>
      <trkpt lat="42.17944" lon="2.30762">
        <ele>1059</ele>
        <time>2018-11-26T10:42:18Z</time>
      </trkpt>
      <trkpt lat="42.17946" lon="2.30763">
        <ele>1058</ele>
        <time>2018-11-26T10:42:18Z</time>
      </trkpt>
      <trkpt lat="42.17948" lon="2.30765">
        <ele>1057.9</ele>
        <time>2018-11-26T10:42:19Z</time>
      </trkpt>
      <trkpt lat="42.1795" lon="2.30765">
        <ele>1057.1</ele>
        <time>2018-11-26T10:42:20Z</time>
      </trkpt>
      <trkpt lat="42.17953" lon="2.30765">
        <ele>1057.1</ele>
        <time>2018-11-26T10:42:21Z</time>
      </trkpt>
      <trkpt lat="42.17955" lon="2.30764">
        <ele>1057.1</ele>
        <time>2018-11-26T10:42:22Z</time>
      </trkpt>
      <trkpt lat="42.17957" lon="2.30764">
        <ele>1056.6</ele>
        <time>2018-11-26T10:42:23Z</time>
      </trkpt>
      <trkpt lat="42.17959" lon="2.30764">
        <ele>1056.1</ele>
        <time>2018-11-26T10:42:24Z</time>
      </trkpt>
      <trkpt lat="42.17961" lon="2.30763">
        <ele>1055</ele>
        <time>2018-11-26T10:42:25Z</time>
      </trkpt>
      <trkpt lat="42.17964" lon="2.30762">
        <ele>1055</ele>
        <time>2018-11-26T10:42:26Z</time>
      </trkpt>
      <trkpt lat="42.17965" lon="2.30762">
        <ele>1054.1</ele>
        <time>2018-11-26T10:42:26Z</time>
      </trkpt>
      <trkpt lat="42.17967" lon="2.30764">
        <ele>1053.9</ele>
        <time>2018-11-26T10:42:27Z</time>
      </trkpt>
      <trkpt lat="42.17969" lon="2.30766">
        <ele>1053</ele>
        <time>2018-11-26T10:42:28Z</time>
      </trkpt>
      <trkpt lat="42.1797" lon="2.30768">
        <ele>1052.7</ele>
        <time>2018-11-26T10:42:29Z</time>
      </trkpt>
      <trkpt lat="42.17972" lon="2.3077">
        <ele>1052</ele>
        <time>2018-11-26T10:42:30Z</time>
      </trkpt>
      <trkpt lat="42.17974" lon="2.30771">
        <ele>1051.1</ele>
        <time>2018-11-26T10:42:31Z</time>
      </trkpt>
      <trkpt lat="42.17976" lon="2.30772">
        <ele>1051.1</ele>
        <time>2018-11-26T10:42:32Z</time>
      </trkpt>
      <trkpt lat="42.17978" lon="2.30773">
        <ele>1051.1</ele>
        <time>2018-11-26T10:42:33Z</time>
      </trkpt>
      <trkpt lat="42.17983" lon="2.30776">
        <ele>1050</ele>
        <time>2018-11-26T10:42:35Z</time>
      </trkpt>
      <trkpt lat="42.17989" lon="2.30779">
        <ele>1050.1</ele>
        <time>2018-11-26T10:42:37Z</time>
      </trkpt>
      <trkpt lat="42.17993" lon="2.30781">
        <ele>1050</ele>
        <time>2018-11-26T10:42:39Z</time>
      </trkpt>
      <trkpt lat="42.17995" lon="2.30782">
        <ele>1049.1</ele>
        <time>2018-11-26T10:42:40Z</time>
      </trkpt>
      <trkpt lat="42.17997" lon="2.30784">
        <ele>1049.1</ele>
        <time>2018-11-26T10:42:41Z</time>
      </trkpt>
      <trkpt lat="42.17999" lon="2.30786">
        <ele>1048</ele>
        <time>2018-11-26T10:42:42Z</time>
      </trkpt>
      <trkpt lat="42.18001" lon="2.30788">
        <ele>1048.1</ele>
        <time>2018-11-26T10:42:43Z</time>
      </trkpt>
      <trkpt lat="42.18004" lon="2.3079">
        <ele>1049</ele>
        <time>2018-11-26T10:42:44Z</time>
      </trkpt>
      <trkpt lat="42.18009" lon="2.3079">
        <ele>1047</ele>
        <time>2018-11-26T10:42:46Z</time>
      </trkpt>
      <trkpt lat="42.18011" lon="2.30792">
        <ele>1046.1</ele>
        <time>2018-11-26T10:42:47Z</time>
      </trkpt>
      <trkpt lat="42.18012" lon="2.30795">
        <ele>1045.8</ele>
        <time>2018-11-26T10:42:48Z</time>
      </trkpt>
      <trkpt lat="42.18013" lon="2.30798">
        <ele>1045.1</ele>
        <time>2018-11-26T10:42:49Z</time>
      </trkpt>
      <trkpt lat="42.18014" lon="2.30801">
        <ele>1045.1</ele>
        <time>2018-11-26T10:42:50Z</time>
      </trkpt>
      <trkpt lat="42.18015" lon="2.30803">
        <ele>1045</ele>
        <time>2018-11-26T10:42:51Z</time>
      </trkpt>
      <trkpt lat="42.18018" lon="2.30805">
        <ele>1043.8</ele>
        <time>2018-11-26T10:42:52Z</time>
      </trkpt>
      <trkpt lat="42.18019" lon="2.30805">
        <ele>1043.1</ele>
        <time>2018-11-26T10:42:53Z</time>
      </trkpt>
      <trkpt lat="42.18021" lon="2.30806">
        <ele>1043</ele>
        <time>2018-11-26T10:42:54Z</time>
      </trkpt>
      <trkpt lat="42.18023" lon="2.30806">
        <ele>1042</ele>
        <time>2018-11-26T10:42:55Z</time>
      </trkpt>
      <trkpt lat="42.18026" lon="2.30806">
        <ele>1042</ele>
        <time>2018-11-26T10:42:55Z</time>
      </trkpt>
      <trkpt lat="42.18028" lon="2.30806">
        <ele>1041.7</ele>
        <time>2018-11-26T10:42:56Z</time>
      </trkpt>
      <trkpt lat="42.1803" lon="2.30806">
        <ele>1041</ele>
        <time>2018-11-26T10:42:57Z</time>
      </trkpt>
      <trkpt lat="42.18033" lon="2.30806">
        <ele>1041</ele>
        <time>2018-11-26T10:42:58Z</time>
      </trkpt>
      <trkpt lat="42.18037" lon="2.30805">
        <ele>1041.1</ele>
        <time>2018-11-26T10:43:00Z</time>
      </trkpt>
      <trkpt lat="42.18039" lon="2.30805">
        <ele>1040</ele>
        <time>2018-11-26T10:43:01Z</time>
      </trkpt>
      <trkpt lat="42.18042" lon="2.30805">
        <ele>1040.1</ele>
        <time>2018-11-26T10:43:02Z</time>
      </trkpt>
      <trkpt lat="42.18044" lon="2.30805">
        <ele>1040</ele>
        <time>2018-11-26T10:43:03Z</time>
      </trkpt>
      <trkpt lat="42.18046" lon="2.30806">
        <ele>1040</ele>
        <time>2018-11-26T10:43:04Z</time>
      </trkpt>
      <trkpt lat="42.18048" lon="2.30806">
        <ele>1040.1</ele>
        <time>2018-11-26T10:43:05Z</time>
      </trkpt>
      <trkpt lat="42.1805" lon="2.30807">
        <ele>1040.1</ele>
        <time>2018-11-26T10:43:05Z</time>
      </trkpt>
      <trkpt lat="42.18052" lon="2.30806">
        <ele>1039.2</ele>
        <time>2018-11-26T10:43:06Z</time>
      </trkpt>
      <trkpt lat="42.18055" lon="2.30806">
        <ele>1040</ele>
        <time>2018-11-26T10:43:07Z</time>
      </trkpt>
      <trkpt lat="42.18058" lon="2.30805">
        <ele>1040</ele>
        <time>2018-11-26T10:43:08Z</time>
      </trkpt>
      <trkpt lat="42.18059" lon="2.30804">
        <ele>1039</ele>
        <time>2018-11-26T10:43:09Z</time>
      </trkpt>
      <trkpt lat="42.18062" lon="2.30803">
        <ele>1039.1</ele>
        <time>2018-11-26T10:43:10Z</time>
      </trkpt>
      <trkpt lat="42.18064" lon="2.30802">
        <ele>1038</ele>
        <time>2018-11-26T10:43:11Z</time>
      </trkpt>
      <trkpt lat="42.18065" lon="2.30802">
        <ele>1038</ele>
        <time>2018-11-26T10:43:12Z</time>
      </trkpt>
      <trkpt lat="42.18067" lon="2.30801">
        <ele>1037.9</ele>
        <time>2018-11-26T10:43:12Z</time>
      </trkpt>
      <trkpt lat="42.18069" lon="2.30802">
        <ele>1035.6</ele>
        <time>2018-11-26T10:43:13Z</time>
      </trkpt>
      <trkpt lat="42.18071" lon="2.30804">
        <ele>1035.1</ele>
        <time>2018-11-26T10:43:14Z</time>
      </trkpt>
      <trkpt lat="42.18073" lon="2.30806">
        <ele>1035</ele>
        <time>2018-11-26T10:43:15Z</time>
      </trkpt>
      <trkpt lat="42.18075" lon="2.30807">
        <ele>1035</ele>
        <time>2018-11-26T10:43:16Z</time>
      </trkpt>
      <trkpt lat="42.18077" lon="2.30807">
        <ele>1035</ele>
        <time>2018-11-26T10:43:17Z</time>
      </trkpt>
      <trkpt lat="42.18079" lon="2.30808">
        <ele>1035</ele>
        <time>2018-11-26T10:43:18Z</time>
      </trkpt>
      <trkpt lat="42.18082" lon="2.30807">
        <ele>1034.8</ele>
        <time>2018-11-26T10:43:19Z</time>
      </trkpt>
      <trkpt lat="42.18085" lon="2.30808">
        <ele>1032.1</ele>
        <time>2018-11-26T10:43:20Z</time>
      </trkpt>
      <trkpt lat="42.18087" lon="2.30809">
        <ele>1031.9</ele>
        <time>2018-11-26T10:43:21Z</time>
      </trkpt>
      <trkpt lat="42.18089" lon="2.30808">
        <ele>1031.1</ele>
        <time>2018-11-26T10:43:22Z</time>
      </trkpt>
      <trkpt lat="42.18092" lon="2.30806">
        <ele>1031.1</ele>
        <time>2018-11-26T10:43:23Z</time>
      </trkpt>
      <trkpt lat="42.18094" lon="2.30807">
        <ele>1031</ele>
        <time>2018-11-26T10:43:24Z</time>
      </trkpt>
      <trkpt lat="42.18097" lon="2.30807">
        <ele>1031.1</ele>
        <time>2018-11-26T10:43:25Z</time>
      </trkpt>
      <trkpt lat="42.181" lon="2.30808">
        <ele>1031</ele>
        <time>2018-11-26T10:43:26Z</time>
      </trkpt>
      <trkpt lat="42.18102" lon="2.30808">
        <ele>1030</ele>
        <time>2018-11-26T10:43:27Z</time>
      </trkpt>
      <trkpt lat="42.18106" lon="2.30806">
        <ele>1030</ele>
        <time>2018-11-26T10:43:29Z</time>
      </trkpt>
      <trkpt lat="42.18108" lon="2.30805">
        <ele>1030.1</ele>
        <time>2018-11-26T10:43:30Z</time>
      </trkpt>
      <trkpt lat="42.1811" lon="2.30805">
        <ele>1030</ele>
        <time>2018-11-26T10:43:31Z</time>
      </trkpt>
      <trkpt lat="42.18113" lon="2.30806">
        <ele>1030</ele>
        <time>2018-11-26T10:43:32Z</time>
      </trkpt>
      <trkpt lat="42.18115" lon="2.30807">
        <ele>1029</ele>
        <time>2018-11-26T10:43:33Z</time>
      </trkpt>
      <trkpt lat="42.18117" lon="2.30809">
        <ele>1028.1</ele>
        <time>2018-11-26T10:43:34Z</time>
      </trkpt>
      <trkpt lat="42.18119" lon="2.30808">
        <ele>1027.8</ele>
        <time>2018-11-26T10:43:34Z</time>
      </trkpt>
      <trkpt lat="42.18121" lon="2.30808">
        <ele>1026.8</ele>
        <time>2018-11-26T10:43:35Z</time>
      </trkpt>
      <trkpt lat="42.18123" lon="2.30808">
        <ele>1026.1</ele>
        <time>2018-11-26T10:43:36Z</time>
      </trkpt>
      <trkpt lat="42.18125" lon="2.30809">
        <ele>1026</ele>
        <time>2018-11-26T10:43:37Z</time>
      </trkpt>
      <trkpt lat="42.18128" lon="2.3081">
        <ele>1026</ele>
        <time>2018-11-26T10:43:38Z</time>
      </trkpt>
      <trkpt lat="42.18131" lon="2.3081">
        <ele>1026.1</ele>
        <time>2018-11-26T10:43:39Z</time>
      </trkpt>
      <trkpt lat="42.18133" lon="2.3081">
        <ele>1025.8</ele>
        <time>2018-11-26T10:43:40Z</time>
      </trkpt>
      <trkpt lat="42.18135" lon="2.30811">
        <ele>1025</ele>
        <time>2018-11-26T10:43:41Z</time>
      </trkpt>
      <trkpt lat="42.18137" lon="2.3081">
        <ele>1024</ele>
        <time>2018-11-26T10:43:42Z</time>
      </trkpt>
      <trkpt lat="42.18139" lon="2.3081">
        <ele>1024</ele>
        <time>2018-11-26T10:43:43Z</time>
      </trkpt>
      <trkpt lat="42.18141" lon="2.30811">
        <ele>1024</ele>
        <time>2018-11-26T10:43:43Z</time>
      </trkpt>
      <trkpt lat="42.18143" lon="2.30812">
        <ele>1024</ele>
        <time>2018-11-26T10:43:44Z</time>
      </trkpt>
      <trkpt lat="42.18145" lon="2.30812">
        <ele>1023.1</ele>
        <time>2018-11-26T10:43:45Z</time>
      </trkpt>
      <trkpt lat="42.18147" lon="2.30812">
        <ele>1022.1</ele>
        <time>2018-11-26T10:43:46Z</time>
      </trkpt>
      <trkpt lat="42.1815" lon="2.30813">
        <ele>1022</ele>
        <time>2018-11-26T10:43:47Z</time>
      </trkpt>
      <trkpt lat="42.18157" lon="2.30816">
        <ele>1021.1</ele>
        <time>2018-11-26T10:43:50Z</time>
      </trkpt>
      <trkpt lat="42.1816" lon="2.30818">
        <ele>1021</ele>
        <time>2018-11-26T10:43:52Z</time>
      </trkpt>
      <trkpt lat="42.18164" lon="2.30818">
        <ele>1021.1</ele>
        <time>2018-11-26T10:43:53Z</time>
      </trkpt>
      <trkpt lat="42.18166" lon="2.30819">
        <ele>1021</ele>
        <time>2018-11-26T10:43:54Z</time>
      </trkpt>
      <trkpt lat="42.18169" lon="2.30819">
        <ele>1021.1</ele>
        <time>2018-11-26T10:43:55Z</time>
      </trkpt>
      <trkpt lat="42.18172" lon="2.30819">
        <ele>1020.8</ele>
        <time>2018-11-26T10:43:56Z</time>
      </trkpt>
      <trkpt lat="42.18179" lon="2.30815">
        <ele>1020</ele>
        <time>2018-11-26T10:43:59Z</time>
      </trkpt>
      <trkpt lat="42.18182" lon="2.30814">
        <ele>1020</ele>
        <time>2018-11-26T10:44:00Z</time>
      </trkpt>
      <trkpt lat="42.18185" lon="2.30815">
        <ele>1019.9</ele>
        <time>2018-11-26T10:44:02Z</time>
      </trkpt>
      <trkpt lat="42.18187" lon="2.30815">
        <ele>1019.1</ele>
        <time>2018-11-26T10:44:03Z</time>
      </trkpt>
      <trkpt lat="42.1819" lon="2.30814">
        <ele>1019</ele>
        <time>2018-11-26T10:44:04Z</time>
      </trkpt>
      <trkpt lat="42.18193" lon="2.30814">
        <ele>1019</ele>
        <time>2018-11-26T10:44:05Z</time>
      </trkpt>
      <trkpt lat="42.18196" lon="2.30813">
        <ele>1019.1</ele>
        <time>2018-11-26T10:44:06Z</time>
      </trkpt>
      <trkpt lat="42.18199" lon="2.30814">
        <ele>1019.1</ele>
        <time>2018-11-26T10:44:07Z</time>
      </trkpt>
      <trkpt lat="42.18201" lon="2.30814">
        <ele>1019.1</ele>
        <time>2018-11-26T10:44:08Z</time>
      </trkpt>
      <trkpt lat="42.18204" lon="2.30814">
        <ele>1019</ele>
        <time>2018-11-26T10:44:09Z</time>
      </trkpt>
      <trkpt lat="42.18207" lon="2.30815">
        <ele>1019</ele>
        <time>2018-11-26T10:44:10Z</time>
      </trkpt>
      <trkpt lat="42.18209" lon="2.30817">
        <ele>1019</ele>
        <time>2018-11-26T10:44:12Z</time>
      </trkpt>
      <trkpt lat="42.18212" lon="2.30817">
        <ele>1019</ele>
        <time>2018-11-26T10:44:13Z</time>
      </trkpt>
      <trkpt lat="42.18215" lon="2.30817">
        <ele>1019</ele>
        <time>2018-11-26T10:44:14Z</time>
      </trkpt>
      <trkpt lat="42.18218" lon="2.30818">
        <ele>1019.3</ele>
        <time>2018-11-26T10:44:15Z</time>
      </trkpt>
      <trkpt lat="42.18221" lon="2.30818">
        <ele>1020</ele>
        <time>2018-11-26T10:44:16Z</time>
      </trkpt>
      <trkpt lat="42.18223" lon="2.3082">
        <ele>1020.1</ele>
        <time>2018-11-26T10:44:17Z</time>
      </trkpt>
      <trkpt lat="42.18225" lon="2.30821">
        <ele>1020</ele>
        <time>2018-11-26T10:44:18Z</time>
      </trkpt>
      <trkpt lat="42.18228" lon="2.30821">
        <ele>1019.9</ele>
        <time>2018-11-26T10:44:19Z</time>
      </trkpt>
      <trkpt lat="42.1823" lon="2.3082">
        <ele>1019</ele>
        <time>2018-11-26T10:44:20Z</time>
      </trkpt>
      <trkpt lat="42.18232" lon="2.30821">
        <ele>1018</ele>
        <time>2018-11-26T10:44:21Z</time>
      </trkpt>
      <trkpt lat="42.18234" lon="2.30822">
        <ele>1017</ele>
        <time>2018-11-26T10:44:22Z</time>
      </trkpt>
      <trkpt lat="42.18236" lon="2.30822">
        <ele>1017.1</ele>
        <time>2018-11-26T10:44:23Z</time>
      </trkpt>
      <trkpt lat="42.18238" lon="2.30822">
        <ele>1016.7</ele>
        <time>2018-11-26T10:44:23Z</time>
      </trkpt>
      <trkpt lat="42.1824" lon="2.30821">
        <ele>1016</ele>
        <time>2018-11-26T10:44:24Z</time>
      </trkpt>
      <trkpt lat="42.18242" lon="2.30822">
        <ele>1015.9</ele>
        <time>2018-11-26T10:44:25Z</time>
      </trkpt>
      <trkpt lat="42.18244" lon="2.30823">
        <ele>1015</ele>
        <time>2018-11-26T10:44:26Z</time>
      </trkpt>
      <trkpt lat="42.18246" lon="2.30825">
        <ele>1015.1</ele>
        <time>2018-11-26T10:44:27Z</time>
      </trkpt>
      <trkpt lat="42.1825" lon="2.30826">
        <ele>1015.1</ele>
        <time>2018-11-26T10:44:28Z</time>
      </trkpt>
      <trkpt lat="42.18253" lon="2.30825">
        <ele>1015.1</ele>
        <time>2018-11-26T10:44:29Z</time>
      </trkpt>
      <trkpt lat="42.18256" lon="2.30825">
        <ele>1014.6</ele>
        <time>2018-11-26T10:44:31Z</time>
      </trkpt>
      <trkpt lat="42.18259" lon="2.30824">
        <ele>1014</ele>
        <time>2018-11-26T10:44:32Z</time>
      </trkpt>
      <trkpt lat="42.18262" lon="2.30822">
        <ele>1014.3</ele>
        <time>2018-11-26T10:44:34Z</time>
      </trkpt>
      <trkpt lat="42.18265" lon="2.3082">
        <ele>1015.1</ele>
        <time>2018-11-26T10:44:35Z</time>
      </trkpt>
      <trkpt lat="42.18267" lon="2.3082">
        <ele>1015.1</ele>
        <time>2018-11-26T10:44:36Z</time>
      </trkpt>
      <trkpt lat="42.18269" lon="2.30819">
        <ele>1014</ele>
        <time>2018-11-26T10:44:36Z</time>
      </trkpt>
      <trkpt lat="42.18271" lon="2.30817">
        <ele>1013</ele>
        <time>2018-11-26T10:44:37Z</time>
      </trkpt>
      <trkpt lat="42.18273" lon="2.30817">
        <ele>1012</ele>
        <time>2018-11-26T10:44:38Z</time>
      </trkpt>
      <trkpt lat="42.18275" lon="2.30819">
        <ele>1011</ele>
        <time>2018-11-26T10:44:39Z</time>
      </trkpt>
      <trkpt lat="42.18276" lon="2.30822">
        <ele>1010.1</ele>
        <time>2018-11-26T10:44:40Z</time>
      </trkpt>
      <trkpt lat="42.18275" lon="2.30824">
        <ele>1010.1</ele>
        <time>2018-11-26T10:44:41Z</time>
      </trkpt>
      <trkpt lat="42.18273" lon="2.30825">
        <ele>1010</ele>
        <time>2018-11-26T10:44:42Z</time>
      </trkpt>
      <trkpt lat="42.1827" lon="2.30825">
        <ele>1009.9</ele>
        <time>2018-11-26T10:44:43Z</time>
      </trkpt>
      <trkpt lat="42.18267" lon="2.30825">
        <ele>1009.1</ele>
        <time>2018-11-26T10:44:44Z</time>
      </trkpt>
      <trkpt lat="42.18264" lon="2.30826">
        <ele>1009.1</ele>
        <time>2018-11-26T10:44:45Z</time>
      </trkpt>
      <trkpt lat="42.18262" lon="2.30826">
        <ele>1009.1</ele>
        <time>2018-11-26T10:44:46Z</time>
      </trkpt>
      <trkpt lat="42.18259" lon="2.30826">
        <ele>1008</ele>
        <time>2018-11-26T10:44:47Z</time>
      </trkpt>
      <trkpt lat="42.18256" lon="2.30826">
        <ele>1008</ele>
        <time>2018-11-26T10:44:48Z</time>
      </trkpt>
      <trkpt lat="42.18254" lon="2.30827">
        <ele>1008</ele>
        <time>2018-11-26T10:44:49Z</time>
      </trkpt>
      <trkpt lat="42.18252" lon="2.3083">
        <ele>1008</ele>
        <time>2018-11-26T10:44:51Z</time>
      </trkpt>
      <trkpt lat="42.1825" lon="2.30833">
        <ele>1008.1</ele>
        <time>2018-11-26T10:44:52Z</time>
      </trkpt>
      <trkpt lat="42.18249" lon="2.30836">
        <ele>1008</ele>
        <time>2018-11-26T10:44:53Z</time>
      </trkpt>
      <trkpt lat="42.18249" lon="2.3084">
        <ele>1008.1</ele>
        <time>2018-11-26T10:44:54Z</time>
      </trkpt>
      <trkpt lat="42.18249" lon="2.30843">
        <ele>1008.1</ele>
        <time>2018-11-26T10:44:55Z</time>
      </trkpt>
      <trkpt lat="42.1825" lon="2.30845">
        <ele>1008.1</ele>
        <time>2018-11-26T10:44:56Z</time>
      </trkpt>
      <trkpt lat="42.18251" lon="2.30848">
        <ele>1007.8</ele>
        <time>2018-11-26T10:44:57Z</time>
      </trkpt>
      <trkpt lat="42.18252" lon="2.30851">
        <ele>1007.1</ele>
        <time>2018-11-26T10:44:58Z</time>
      </trkpt>
      <trkpt lat="42.18254" lon="2.30853">
        <ele>1007.1</ele>
        <time>2018-11-26T10:44:58Z</time>
      </trkpt>
      <trkpt lat="42.18256" lon="2.30855">
        <ele>1007.3</ele>
        <time>2018-11-26T10:44:59Z</time>
      </trkpt>
      <trkpt lat="42.18258" lon="2.30857">
        <ele>1008</ele>
        <time>2018-11-26T10:45:00Z</time>
      </trkpt>
      <trkpt lat="42.18261" lon="2.30858">
        <ele>1008</ele>
        <time>2018-11-26T10:45:02Z</time>
      </trkpt>
      <trkpt lat="42.18264" lon="2.30859">
        <ele>1007.1</ele>
        <time>2018-11-26T10:45:03Z</time>
      </trkpt>
      <trkpt lat="42.18266" lon="2.30861">
        <ele>1007</ele>
        <time>2018-11-26T10:45:04Z</time>
      </trkpt>
      <trkpt lat="42.18268" lon="2.30862">
        <ele>1007.1</ele>
        <time>2018-11-26T10:45:05Z</time>
      </trkpt>
      <trkpt lat="42.18271" lon="2.30864">
        <ele>1007.1</ele>
        <time>2018-11-26T10:45:06Z</time>
      </trkpt>
      <trkpt lat="42.18273" lon="2.30865">
        <ele>1007.1</ele>
        <time>2018-11-26T10:45:07Z</time>
      </trkpt>
      <trkpt lat="42.18275" lon="2.30866">
        <ele>1007.1</ele>
        <time>2018-11-26T10:45:08Z</time>
      </trkpt>
      <trkpt lat="42.18277" lon="2.30868">
        <ele>1007</ele>
        <time>2018-11-26T10:45:09Z</time>
      </trkpt>
      <trkpt lat="42.18279" lon="2.30869">
        <ele>1007.3</ele>
        <time>2018-11-26T10:45:10Z</time>
      </trkpt>
      <trkpt lat="42.18281" lon="2.3087">
        <ele>1008</ele>
        <time>2018-11-26T10:45:10Z</time>
      </trkpt>
      <trkpt lat="42.18283" lon="2.30871">
        <ele>1007.8</ele>
        <time>2018-11-26T10:45:11Z</time>
      </trkpt>
      <trkpt lat="42.18285" lon="2.30872">
        <ele>1007</ele>
        <time>2018-11-26T10:45:12Z</time>
      </trkpt>
      <trkpt lat="42.18288" lon="2.30873">
        <ele>1007</ele>
        <time>2018-11-26T10:45:13Z</time>
      </trkpt>
      <trkpt lat="42.1829" lon="2.30875">
        <ele>1007</ele>
        <time>2018-11-26T10:45:14Z</time>
      </trkpt>
      <trkpt lat="42.18292" lon="2.30876">
        <ele>1007</ele>
        <time>2018-11-26T10:45:15Z</time>
      </trkpt>
      <trkpt lat="42.18294" lon="2.30877">
        <ele>1007.3</ele>
        <time>2018-11-26T10:45:16Z</time>
      </trkpt>
      <trkpt lat="42.18296" lon="2.30878">
        <ele>1008.1</ele>
        <time>2018-11-26T10:45:17Z</time>
      </trkpt>
      <trkpt lat="42.18299" lon="2.30881">
        <ele>1007.6</ele>
        <time>2018-11-26T10:45:18Z</time>
      </trkpt>
      <trkpt lat="42.18301" lon="2.30882">
        <ele>1007</ele>
        <time>2018-11-26T10:45:19Z</time>
      </trkpt>
      <trkpt lat="42.18303" lon="2.30883">
        <ele>1007.1</ele>
        <time>2018-11-26T10:45:20Z</time>
      </trkpt>
      <trkpt lat="42.18305" lon="2.30884">
        <ele>1006.9</ele>
        <time>2018-11-26T10:45:21Z</time>
      </trkpt>
      <trkpt lat="42.18307" lon="2.30886">
        <ele>1006.1</ele>
        <time>2018-11-26T10:45:22Z</time>
      </trkpt>
      <trkpt lat="42.18309" lon="2.30888">
        <ele>1007</ele>
        <time>2018-11-26T10:45:23Z</time>
      </trkpt>
      <trkpt lat="42.1831" lon="2.3089">
        <ele>1006.8</ele>
        <time>2018-11-26T10:45:24Z</time>
      </trkpt>
      <trkpt lat="42.18312" lon="2.30891">
        <ele>1006</ele>
        <time>2018-11-26T10:45:24Z</time>
      </trkpt>
      <trkpt lat="42.18314" lon="2.30892">
        <ele>1006</ele>
        <time>2018-11-26T10:45:25Z</time>
      </trkpt>
      <trkpt lat="42.18316" lon="2.30893">
        <ele>1006.3</ele>
        <time>2018-11-26T10:45:26Z</time>
      </trkpt>
      <trkpt lat="42.18318" lon="2.30895">
        <ele>1007.1</ele>
        <time>2018-11-26T10:45:27Z</time>
      </trkpt>
      <trkpt lat="42.18321" lon="2.30896">
        <ele>1006</ele>
        <time>2018-11-26T10:45:28Z</time>
      </trkpt>
      <trkpt lat="42.18323" lon="2.30897">
        <ele>1006.1</ele>
        <time>2018-11-26T10:45:29Z</time>
      </trkpt>
      <trkpt lat="42.18326" lon="2.30898">
        <ele>1006.1</ele>
        <time>2018-11-26T10:45:30Z</time>
      </trkpt>
      <trkpt lat="42.1833" lon="2.309">
        <ele>1006</ele>
        <time>2018-11-26T10:45:32Z</time>
      </trkpt>
      <trkpt lat="42.18332" lon="2.30902">
        <ele>1006</ele>
        <time>2018-11-26T10:45:33Z</time>
      </trkpt>
      <trkpt lat="42.18337" lon="2.30908">
        <ele>1005.2</ele>
        <time>2018-11-26T10:45:36Z</time>
      </trkpt>
      <trkpt lat="42.18345" lon="2.30915">
        <ele>1006</ele>
        <time>2018-11-26T10:45:40Z</time>
      </trkpt>
      <trkpt lat="42.18351" lon="2.30919">
        <ele>1006</ele>
        <time>2018-11-26T10:45:42Z</time>
      </trkpt>
      <trkpt lat="42.1836" lon="2.30925">
        <ele>1006</ele>
        <time>2018-11-26T10:45:46Z</time>
      </trkpt>
      <trkpt lat="42.18364" lon="2.30936">
        <ele>1005.1</ele>
        <time>2018-11-26T10:45:50Z</time>
      </trkpt>
      <trkpt lat="42.18367" lon="2.30948">
        <ele>1004</ele>
        <time>2018-11-26T10:45:54Z</time>
      </trkpt>
      <trkpt lat="42.18369" lon="2.3096">
        <ele>1005.1</ele>
        <time>2018-11-26T10:45:57Z</time>
      </trkpt>
      <trkpt lat="42.18368" lon="2.30973">
        <ele>1004</ele>
        <time>2018-11-26T10:46:01Z</time>
      </trkpt>
      <trkpt lat="42.18368" lon="2.30986">
        <ele>1004</ele>
        <time>2018-11-26T10:46:05Z</time>
      </trkpt>
      <trkpt lat="42.18371" lon="2.30999">
        <ele>1004</ele>
        <time>2018-11-26T10:46:09Z</time>
      </trkpt>
      <trkpt lat="42.18376" lon="2.3101">
        <ele>1003</ele>
        <time>2018-11-26T10:46:13Z</time>
      </trkpt>
      <trkpt lat="42.18383" lon="2.31019">
        <ele>1003.1</ele>
        <time>2018-11-26T10:46:17Z</time>
      </trkpt>
      <trkpt lat="42.18386" lon="2.31022">
        <ele>1003.1</ele>
        <time>2018-11-26T10:46:18Z</time>
      </trkpt>
      <trkpt lat="42.18388" lon="2.31024">
        <ele>1003</ele>
        <time>2018-11-26T10:46:19Z</time>
      </trkpt>
      <trkpt lat="42.1839" lon="2.31025">
        <ele>1003</ele>
        <time>2018-11-26T10:46:20Z</time>
      </trkpt>
      <trkpt lat="42.18393" lon="2.31025">
        <ele>1003</ele>
        <time>2018-11-26T10:46:21Z</time>
      </trkpt>
      <trkpt lat="42.18402" lon="2.31024">
        <ele>1002.9</ele>
        <time>2018-11-26T10:46:25Z</time>
      </trkpt>
      <trkpt lat="42.18411" lon="2.31024">
        <ele>1002.1</ele>
        <time>2018-11-26T10:46:29Z</time>
      </trkpt>
      <trkpt lat="42.18414" lon="2.31026">
        <ele>1002.1</ele>
        <time>2018-11-26T10:46:30Z</time>
      </trkpt>
      <trkpt lat="42.18417" lon="2.31027">
        <ele>1002.1</ele>
        <time>2018-11-26T10:46:31Z</time>
      </trkpt>
      <trkpt lat="42.18421" lon="2.31028">
        <ele>1002</ele>
        <time>2018-11-26T10:46:33Z</time>
      </trkpt>
      <trkpt lat="42.18423" lon="2.31029">
        <ele>1001</ele>
        <time>2018-11-26T10:46:34Z</time>
      </trkpt>
      <trkpt lat="42.18427" lon="2.3103">
        <ele>1001.1</ele>
        <time>2018-11-26T10:46:35Z</time>
      </trkpt>
      <trkpt lat="42.18429" lon="2.3103">
        <ele>1001.1</ele>
        <time>2018-11-26T10:46:36Z</time>
      </trkpt>
      <trkpt lat="42.18431" lon="2.31031">
        <ele>1001.1</ele>
        <time>2018-11-26T10:46:37Z</time>
      </trkpt>
      <trkpt lat="42.18436" lon="2.31033">
        <ele>1001</ele>
        <time>2018-11-26T10:46:39Z</time>
      </trkpt>
      <trkpt lat="42.1844" lon="2.31034">
        <ele>1002</ele>
        <time>2018-11-26T10:46:41Z</time>
      </trkpt>
      <trkpt lat="42.18444" lon="2.31035">
        <ele>1001</ele>
        <time>2018-11-26T10:46:42Z</time>
      </trkpt>
      <trkpt lat="42.18446" lon="2.31035">
        <ele>1001</ele>
        <time>2018-11-26T10:46:43Z</time>
      </trkpt>
      <trkpt lat="42.18448" lon="2.31036">
        <ele>1001</ele>
        <time>2018-11-26T10:46:44Z</time>
      </trkpt>
      <trkpt lat="42.18451" lon="2.31036">
        <ele>1000</ele>
        <time>2018-11-26T10:46:45Z</time>
      </trkpt>
      <trkpt lat="42.18454" lon="2.31036">
        <ele>1000.1</ele>
        <time>2018-11-26T10:46:46Z</time>
      </trkpt>
      <trkpt lat="42.18457" lon="2.31036">
        <ele>1000.1</ele>
        <time>2018-11-26T10:46:47Z</time>
      </trkpt>
      <trkpt lat="42.1846" lon="2.31037">
        <ele>1000.1</ele>
        <time>2018-11-26T10:46:49Z</time>
      </trkpt>
      <trkpt lat="42.18468" lon="2.31038">
        <ele>1000</ele>
        <time>2018-11-26T10:46:52Z</time>
      </trkpt>
      <trkpt lat="42.18477" lon="2.31037">
        <ele>1000</ele>
        <time>2018-11-26T10:46:55Z</time>
      </trkpt>
      <trkpt lat="42.18486" lon="2.31038">
        <ele>998.1</ele>
        <time>2018-11-26T10:46:59Z</time>
      </trkpt>
      <trkpt lat="42.18496" lon="2.31039">
        <ele>998</ele>
        <time>2018-11-26T10:47:03Z</time>
      </trkpt>
      <trkpt lat="42.18506" lon="2.31034">
        <ele>998</ele>
        <time>2018-11-26T10:47:07Z</time>
      </trkpt>
      <trkpt lat="42.18512" lon="2.31023">
        <ele>997</ele>
        <time>2018-11-26T10:47:12Z</time>
      </trkpt>
      <trkpt lat="42.18517" lon="2.31012">
        <ele>997.1</ele>
        <time>2018-11-26T10:47:15Z</time>
      </trkpt>
      <trkpt lat="42.18522" lon="2.31002">
        <ele>997.1</ele>
        <time>2018-11-26T10:47:19Z</time>
      </trkpt>
      <trkpt lat="42.18527" lon="2.30992">
        <ele>996.9</ele>
        <time>2018-11-26T10:47:23Z</time>
      </trkpt>
      <trkpt lat="42.18532" lon="2.30981">
        <ele>996.1</ele>
        <time>2018-11-26T10:47:26Z</time>
      </trkpt>
      <trkpt lat="42.18537" lon="2.3097">
        <ele>996.1</ele>
        <time>2018-11-26T10:47:30Z</time>
      </trkpt>
      <trkpt lat="42.1854" lon="2.30957">
        <ele>995</ele>
        <time>2018-11-26T10:47:34Z</time>
      </trkpt>
      <trkpt lat="42.1854" lon="2.30944">
        <ele>995.1</ele>
        <time>2018-11-26T10:47:38Z</time>
      </trkpt>
      <trkpt lat="42.1854" lon="2.3094">
        <ele>995.1</ele>
        <time>2018-11-26T10:47:39Z</time>
      </trkpt>
      <trkpt lat="42.1854" lon="2.30936">
        <ele>995.1</ele>
        <time>2018-11-26T10:47:40Z</time>
      </trkpt>
      <trkpt lat="42.1854" lon="2.30932">
        <ele>995.1</ele>
        <time>2018-11-26T10:47:41Z</time>
      </trkpt>
      <trkpt lat="42.18541" lon="2.30925">
        <ele>995</ele>
        <time>2018-11-26T10:47:44Z</time>
      </trkpt>
      <trkpt lat="42.18541" lon="2.30922">
        <ele>995</ele>
        <time>2018-11-26T10:47:45Z</time>
      </trkpt>
      <trkpt lat="42.18545" lon="2.30909">
        <ele>994.1</ele>
        <time>2018-11-26T10:47:49Z</time>
      </trkpt>
      <trkpt lat="42.1855" lon="2.30897">
        <ele>993.1</ele>
        <time>2018-11-26T10:47:53Z</time>
      </trkpt>
      <trkpt lat="42.18552" lon="2.30894">
        <ele>993.1</ele>
        <time>2018-11-26T10:47:54Z</time>
      </trkpt>
      <trkpt lat="42.18553" lon="2.30891">
        <ele>993.1</ele>
        <time>2018-11-26T10:47:55Z</time>
      </trkpt>
      <trkpt lat="42.18554" lon="2.30888">
        <ele>992.9</ele>
        <time>2018-11-26T10:47:56Z</time>
      </trkpt>
      <trkpt lat="42.18555" lon="2.30884">
        <ele>991.8</ele>
        <time>2018-11-26T10:47:57Z</time>
      </trkpt>
      <trkpt lat="42.18556" lon="2.30881">
        <ele>991</ele>
        <time>2018-11-26T10:47:58Z</time>
      </trkpt>
      <trkpt lat="42.18557" lon="2.30877">
        <ele>991.1</ele>
        <time>2018-11-26T10:47:59Z</time>
      </trkpt>
      <trkpt lat="42.18557" lon="2.30874">
        <ele>991.1</ele>
        <time>2018-11-26T10:48:00Z</time>
      </trkpt>
      <trkpt lat="42.18558" lon="2.30871">
        <ele>991</ele>
        <time>2018-11-26T10:48:01Z</time>
      </trkpt>
      <trkpt lat="42.18559" lon="2.30867">
        <ele>991</ele>
        <time>2018-11-26T10:48:02Z</time>
      </trkpt>
      <trkpt lat="42.18561" lon="2.30864">
        <ele>990</ele>
        <time>2018-11-26T10:48:04Z</time>
      </trkpt>
      <trkpt lat="42.18562" lon="2.30861">
        <ele>990</ele>
        <time>2018-11-26T10:48:04Z</time>
      </trkpt>
      <trkpt lat="42.18563" lon="2.30858">
        <ele>990.1</ele>
        <time>2018-11-26T10:48:05Z</time>
      </trkpt>
      <trkpt lat="42.18565" lon="2.30856">
        <ele>989.8</ele>
        <time>2018-11-26T10:48:07Z</time>
      </trkpt>
      <trkpt lat="42.18567" lon="2.30853">
        <ele>989.1</ele>
        <time>2018-11-26T10:48:08Z</time>
      </trkpt>
      <trkpt lat="42.18569" lon="2.3085">
        <ele>989.1</ele>
        <time>2018-11-26T10:48:09Z</time>
      </trkpt>
      <trkpt lat="42.18571" lon="2.30849">
        <ele>988.6</ele>
        <time>2018-11-26T10:48:10Z</time>
      </trkpt>
      <trkpt lat="42.18573" lon="2.30847">
        <ele>988.1</ele>
        <time>2018-11-26T10:48:11Z</time>
      </trkpt>
      <trkpt lat="42.18575" lon="2.30845">
        <ele>988.1</ele>
        <time>2018-11-26T10:48:12Z</time>
      </trkpt>
      <trkpt lat="42.18578" lon="2.30843">
        <ele>988</ele>
        <time>2018-11-26T10:48:13Z</time>
      </trkpt>
      <trkpt lat="42.1858" lon="2.30842">
        <ele>988.1</ele>
        <time>2018-11-26T10:48:14Z</time>
      </trkpt>
      <trkpt lat="42.18581" lon="2.30839">
        <ele>988</ele>
        <time>2018-11-26T10:48:15Z</time>
      </trkpt>
      <trkpt lat="42.18583" lon="2.30837">
        <ele>988</ele>
        <time>2018-11-26T10:48:16Z</time>
      </trkpt>
      <trkpt lat="42.18584" lon="2.30835">
        <ele>988</ele>
        <time>2018-11-26T10:48:17Z</time>
      </trkpt>
      <trkpt lat="42.18587" lon="2.30833">
        <ele>988</ele>
        <time>2018-11-26T10:48:18Z</time>
      </trkpt>
      <trkpt lat="42.18589" lon="2.30831">
        <ele>987.1</ele>
        <time>2018-11-26T10:48:19Z</time>
      </trkpt>
      <trkpt lat="42.18591" lon="2.30829">
        <ele>987.1</ele>
        <time>2018-11-26T10:48:20Z</time>
      </trkpt>
      <trkpt lat="42.18593" lon="2.30827">
        <ele>987.1</ele>
        <time>2018-11-26T10:48:21Z</time>
      </trkpt>
      <trkpt lat="42.18594" lon="2.30824">
        <ele>987.1</ele>
        <time>2018-11-26T10:48:22Z</time>
      </trkpt>
      <trkpt lat="42.18596" lon="2.30822">
        <ele>987</ele>
        <time>2018-11-26T10:48:23Z</time>
      </trkpt>
      <trkpt lat="42.18598" lon="2.30819">
        <ele>987.1</ele>
        <time>2018-11-26T10:48:24Z</time>
      </trkpt>
      <trkpt lat="42.186" lon="2.30817">
        <ele>987.1</ele>
        <time>2018-11-26T10:48:25Z</time>
      </trkpt>
      <trkpt lat="42.18602" lon="2.30814">
        <ele>986.8</ele>
        <time>2018-11-26T10:48:26Z</time>
      </trkpt>
      <trkpt lat="42.18604" lon="2.30812">
        <ele>986</ele>
        <time>2018-11-26T10:48:27Z</time>
      </trkpt>
      <trkpt lat="42.18607" lon="2.30809">
        <ele>986</ele>
        <time>2018-11-26T10:48:29Z</time>
      </trkpt>
      <trkpt lat="42.1861" lon="2.30808">
        <ele>986</ele>
        <time>2018-11-26T10:48:30Z</time>
      </trkpt>
      <trkpt lat="42.18612" lon="2.30805">
        <ele>986.1</ele>
        <time>2018-11-26T10:48:31Z</time>
      </trkpt>
      <trkpt lat="42.18617" lon="2.30803">
        <ele>986.1</ele>
        <time>2018-11-26T10:48:33Z</time>
      </trkpt>
      <trkpt lat="42.1862" lon="2.30802">
        <ele>986</ele>
        <time>2018-11-26T10:48:34Z</time>
      </trkpt>
      <trkpt lat="42.18622" lon="2.308">
        <ele>985.9</ele>
        <time>2018-11-26T10:48:35Z</time>
      </trkpt>
      <trkpt lat="42.18624" lon="2.308">
        <ele>985.3</ele>
        <time>2018-11-26T10:48:36Z</time>
      </trkpt>
      <trkpt lat="42.18627" lon="2.30799">
        <ele>986</ele>
        <time>2018-11-26T10:48:37Z</time>
      </trkpt>
      <trkpt lat="42.18629" lon="2.30799">
        <ele>985.9</ele>
        <time>2018-11-26T10:48:38Z</time>
      </trkpt>
      <trkpt lat="42.18631" lon="2.30799">
        <ele>984</ele>
        <time>2018-11-26T10:48:39Z</time>
      </trkpt>
      <trkpt lat="42.18633" lon="2.30798">
        <ele>984.1</ele>
        <time>2018-11-26T10:48:40Z</time>
      </trkpt>
      <trkpt lat="42.18636" lon="2.30798">
        <ele>984</ele>
        <time>2018-11-26T10:48:41Z</time>
      </trkpt>
      <trkpt lat="42.18639" lon="2.30798">
        <ele>983.8</ele>
        <time>2018-11-26T10:48:42Z</time>
      </trkpt>
      <trkpt lat="42.18641" lon="2.30798">
        <ele>983.1</ele>
        <time>2018-11-26T10:48:43Z</time>
      </trkpt>
      <trkpt lat="42.18644" lon="2.30798">
        <ele>983.1</ele>
        <time>2018-11-26T10:48:44Z</time>
      </trkpt>
      <trkpt lat="42.18647" lon="2.30799">
        <ele>983</ele>
        <time>2018-11-26T10:48:45Z</time>
      </trkpt>
      <trkpt lat="42.18649" lon="2.30799">
        <ele>982.8</ele>
        <time>2018-11-26T10:48:46Z</time>
      </trkpt>
      <trkpt lat="42.18652" lon="2.30799">
        <ele>982.1</ele>
        <time>2018-11-26T10:48:47Z</time>
      </trkpt>
      <trkpt lat="42.18655" lon="2.30799">
        <ele>982.1</ele>
        <time>2018-11-26T10:48:48Z</time>
      </trkpt>
      <trkpt lat="42.18658" lon="2.30799">
        <ele>982.1</ele>
        <time>2018-11-26T10:48:50Z</time>
      </trkpt>
      <trkpt lat="42.1866" lon="2.308">
        <ele>981.5</ele>
        <time>2018-11-26T10:48:50Z</time>
      </trkpt>
      <trkpt lat="42.18662" lon="2.30801">
        <ele>981</ele>
        <time>2018-11-26T10:48:51Z</time>
      </trkpt>
      <trkpt lat="42.18664" lon="2.30801">
        <ele>981.1</ele>
        <time>2018-11-26T10:48:52Z</time>
      </trkpt>
      <trkpt lat="42.18666" lon="2.30801">
        <ele>980.8</ele>
        <time>2018-11-26T10:48:53Z</time>
      </trkpt>
      <trkpt lat="42.18668" lon="2.30801">
        <ele>980</ele>
        <time>2018-11-26T10:48:54Z</time>
      </trkpt>
      <trkpt lat="42.18672" lon="2.30801">
        <ele>980.1</ele>
        <time>2018-11-26T10:48:55Z</time>
      </trkpt>
      <trkpt lat="42.18674" lon="2.308">
        <ele>980.1</ele>
        <time>2018-11-26T10:48:56Z</time>
      </trkpt>
      <trkpt lat="42.18677" lon="2.308">
        <ele>979.9</ele>
        <time>2018-11-26T10:48:57Z</time>
      </trkpt>
      <trkpt lat="42.1868" lon="2.30799">
        <ele>979</ele>
        <time>2018-11-26T10:48:59Z</time>
      </trkpt>
      <trkpt lat="42.18682" lon="2.30798">
        <ele>979.1</ele>
        <time>2018-11-26T10:49:00Z</time>
      </trkpt>
      <trkpt lat="42.18685" lon="2.30797">
        <ele>979.1</ele>
        <time>2018-11-26T10:49:01Z</time>
      </trkpt>
      <trkpt lat="42.18688" lon="2.30796">
        <ele>979.1</ele>
        <time>2018-11-26T10:49:02Z</time>
      </trkpt>
      <trkpt lat="42.1869" lon="2.30795">
        <ele>979.1</ele>
        <time>2018-11-26T10:49:03Z</time>
      </trkpt>
      <trkpt lat="42.18693" lon="2.30795">
        <ele>978.9</ele>
        <time>2018-11-26T10:49:04Z</time>
      </trkpt>
      <trkpt lat="42.18696" lon="2.30794">
        <ele>978</ele>
        <time>2018-11-26T10:49:05Z</time>
      </trkpt>
      <trkpt lat="42.18698" lon="2.30793">
        <ele>978</ele>
        <time>2018-11-26T10:49:06Z</time>
      </trkpt>
      <trkpt lat="42.18701" lon="2.30793">
        <ele>978</ele>
        <time>2018-11-26T10:49:07Z</time>
      </trkpt>
      <trkpt lat="42.18704" lon="2.30794">
        <ele>977.9</ele>
        <time>2018-11-26T10:49:08Z</time>
      </trkpt>
      <trkpt lat="42.18706" lon="2.30794">
        <ele>977</ele>
        <time>2018-11-26T10:49:09Z</time>
      </trkpt>
      <trkpt lat="42.18709" lon="2.30795">
        <ele>977.1</ele>
        <time>2018-11-26T10:49:10Z</time>
      </trkpt>
      <trkpt lat="42.18711" lon="2.30796">
        <ele>977.1</ele>
        <time>2018-11-26T10:49:11Z</time>
      </trkpt>
      <trkpt lat="42.18714" lon="2.30797">
        <ele>976.9</ele>
        <time>2018-11-26T10:49:13Z</time>
      </trkpt>
      <trkpt lat="42.18717" lon="2.30799">
        <ele>976</ele>
        <time>2018-11-26T10:49:14Z</time>
      </trkpt>
      <trkpt lat="42.1872" lon="2.30801">
        <ele>976.1</ele>
        <time>2018-11-26T10:49:15Z</time>
      </trkpt>
      <trkpt lat="42.18721" lon="2.30802">
        <ele>976</ele>
        <time>2018-11-26T10:49:16Z</time>
      </trkpt>
      <trkpt lat="42.18723" lon="2.30803">
        <ele>976</ele>
        <time>2018-11-26T10:49:17Z</time>
      </trkpt>
      <trkpt lat="42.18726" lon="2.30806">
        <ele>975.9</ele>
        <time>2018-11-26T10:49:18Z</time>
      </trkpt>
      <trkpt lat="42.18728" lon="2.30809">
        <ele>975</ele>
        <time>2018-11-26T10:49:19Z</time>
      </trkpt>
      <trkpt lat="42.1873" lon="2.30813">
        <ele>974.8</ele>
        <time>2018-11-26T10:49:21Z</time>
      </trkpt>
      <trkpt lat="42.18733" lon="2.30816">
        <ele>974</ele>
        <time>2018-11-26T10:49:22Z</time>
      </trkpt>
      <trkpt lat="42.18735" lon="2.30819">
        <ele>974</ele>
        <time>2018-11-26T10:49:23Z</time>
      </trkpt>
      <trkpt lat="42.18736" lon="2.30822">
        <ele>974.1</ele>
        <time>2018-11-26T10:49:24Z</time>
      </trkpt>
      <trkpt lat="42.18738" lon="2.30825">
        <ele>973.8</ele>
        <time>2018-11-26T10:49:26Z</time>
      </trkpt>
      <trkpt lat="42.18741" lon="2.30827">
        <ele>973.1</ele>
        <time>2018-11-26T10:49:27Z</time>
      </trkpt>
      <trkpt lat="42.18743" lon="2.30829">
        <ele>973</ele>
        <time>2018-11-26T10:49:28Z</time>
      </trkpt>
      <trkpt lat="42.18745" lon="2.30832">
        <ele>973</ele>
        <time>2018-11-26T10:49:29Z</time>
      </trkpt>
      <trkpt lat="42.18746" lon="2.30834">
        <ele>972.7</ele>
        <time>2018-11-26T10:49:30Z</time>
      </trkpt>
      <trkpt lat="42.18749" lon="2.30838">
        <ele>972.1</ele>
        <time>2018-11-26T10:49:31Z</time>
      </trkpt>
      <trkpt lat="42.18752" lon="2.3084">
        <ele>972.1</ele>
        <time>2018-11-26T10:49:33Z</time>
      </trkpt>
      <trkpt lat="42.18754" lon="2.30842">
        <ele>971</ele>
        <time>2018-11-26T10:49:34Z</time>
      </trkpt>
      <trkpt lat="42.18756" lon="2.30843">
        <ele>971</ele>
        <time>2018-11-26T10:49:35Z</time>
      </trkpt>
      <trkpt lat="42.18759" lon="2.30845">
        <ele>970.9</ele>
        <time>2018-11-26T10:49:36Z</time>
      </trkpt>
      <trkpt lat="42.18761" lon="2.30847">
        <ele>970</ele>
        <time>2018-11-26T10:49:37Z</time>
      </trkpt>
      <trkpt lat="42.18763" lon="2.30849">
        <ele>970.1</ele>
        <time>2018-11-26T10:49:38Z</time>
      </trkpt>
      <trkpt lat="42.18766" lon="2.30851">
        <ele>970</ele>
        <time>2018-11-26T10:49:39Z</time>
      </trkpt>
      <trkpt lat="42.18767" lon="2.30853">
        <ele>970</ele>
        <time>2018-11-26T10:49:40Z</time>
      </trkpt>
      <trkpt lat="42.1877" lon="2.30856">
        <ele>970</ele>
        <time>2018-11-26T10:49:41Z</time>
      </trkpt>
      <trkpt lat="42.18772" lon="2.30858">
        <ele>970.1</ele>
        <time>2018-11-26T10:49:42Z</time>
      </trkpt>
      <trkpt lat="42.18774" lon="2.30859">
        <ele>970</ele>
        <time>2018-11-26T10:49:43Z</time>
      </trkpt>
      <trkpt lat="42.18775" lon="2.30862">
        <ele>969</ele>
        <time>2018-11-26T10:49:44Z</time>
      </trkpt>
      <trkpt lat="42.18777" lon="2.30863">
        <ele>968.8</ele>
        <time>2018-11-26T10:49:45Z</time>
      </trkpt>
      <trkpt lat="42.1878" lon="2.30864">
        <ele>968</ele>
        <time>2018-11-26T10:49:46Z</time>
      </trkpt>
      <trkpt lat="42.18782" lon="2.30866">
        <ele>968</ele>
        <time>2018-11-26T10:49:47Z</time>
      </trkpt>
      <trkpt lat="42.18784" lon="2.30868">
        <ele>968.1</ele>
        <time>2018-11-26T10:49:48Z</time>
      </trkpt>
      <trkpt lat="42.18786" lon="2.3087">
        <ele>968</ele>
        <time>2018-11-26T10:49:49Z</time>
      </trkpt>
      <trkpt lat="42.18788" lon="2.3087">
        <ele>967.8</ele>
        <time>2018-11-26T10:49:50Z</time>
      </trkpt>
      <trkpt lat="42.18791" lon="2.30871">
        <ele>968.1</ele>
        <time>2018-11-26T10:49:51Z</time>
      </trkpt>
      <trkpt lat="42.18793" lon="2.30872">
        <ele>967</ele>
        <time>2018-11-26T10:49:52Z</time>
      </trkpt>
      <trkpt lat="42.18796" lon="2.30872">
        <ele>967</ele>
        <time>2018-11-26T10:49:53Z</time>
      </trkpt>
      <trkpt lat="42.18797" lon="2.30875">
        <ele>967</ele>
        <time>2018-11-26T10:49:54Z</time>
      </trkpt>
      <trkpt lat="42.18798" lon="2.30878">
        <ele>968.1</ele>
        <time>2018-11-26T10:49:55Z</time>
      </trkpt>
      <trkpt lat="42.18799" lon="2.3088">
        <ele>969.1</ele>
        <time>2018-11-26T10:49:56Z</time>
      </trkpt>
      <trkpt lat="42.188" lon="2.30883">
        <ele>969.1</ele>
        <time>2018-11-26T10:49:57Z</time>
      </trkpt>
      <trkpt lat="42.18801" lon="2.30886">
        <ele>970</ele>
        <time>2018-11-26T10:49:58Z</time>
      </trkpt>
      <trkpt lat="42.18801" lon="2.30889">
        <ele>972</ele>
        <time>2018-11-26T10:49:59Z</time>
      </trkpt>
      <trkpt lat="42.18802" lon="2.30891">
        <ele>973</ele>
        <time>2018-11-26T10:49:59Z</time>
      </trkpt>
      <trkpt lat="42.18804" lon="2.30892">
        <ele>973</ele>
        <time>2018-11-26T10:50:00Z</time>
      </trkpt>
      <trkpt lat="42.18806" lon="2.30892">
        <ele>973.1</ele>
        <time>2018-11-26T10:50:01Z</time>
      </trkpt>
      <trkpt lat="42.18812" lon="2.30882">
        <ele>974.1</ele>
        <time>2018-11-26T10:50:05Z</time>
      </trkpt>
      <trkpt lat="42.18803" lon="2.30888">
        <ele>974.2</ele>
        <time>2018-11-26T10:50:09Z</time>
      </trkpt>
      <trkpt lat="42.18804" lon="2.30891">
        <ele>975.1</ele>
        <time>2018-11-26T10:50:10Z</time>
      </trkpt>
      <trkpt lat="42.18802" lon="2.30894">
        <ele>975.3</ele>
        <time>2018-11-26T10:50:11Z</time>
      </trkpt>
      <trkpt lat="42.18801" lon="2.30895">
        <ele>977</ele>
        <time>2018-11-26T10:50:12Z</time>
      </trkpt>
      <trkpt lat="42.188" lon="2.30898">
        <ele>975.8</ele>
        <time>2018-11-26T10:50:12Z</time>
      </trkpt>
      <trkpt lat="42.18807" lon="2.30899">
        <ele>971.8</ele>
        <time>2018-11-26T10:50:15Z</time>
      </trkpt>
      <trkpt lat="42.18808" lon="2.30901">
        <ele>971</ele>
        <time>2018-11-26T10:50:16Z</time>
      </trkpt>
      <trkpt lat="42.18809" lon="2.30903">
        <ele>972</ele>
        <time>2018-11-26T10:50:17Z</time>
      </trkpt>
      <trkpt lat="42.18811" lon="2.30904">
        <ele>972.1</ele>
        <time>2018-11-26T10:50:18Z</time>
      </trkpt>
      <trkpt lat="42.18813" lon="2.30906">
        <ele>972</ele>
        <time>2018-11-26T10:50:19Z</time>
      </trkpt>
      <trkpt lat="42.18815" lon="2.30909">
        <ele>972.1</ele>
        <time>2018-11-26T10:50:19Z</time>
      </trkpt>
      <trkpt lat="42.18816" lon="2.3091">
        <ele>972.1</ele>
        <time>2018-11-26T10:50:20Z</time>
      </trkpt>
      <trkpt lat="42.18818" lon="2.30912">
        <ele>973</ele>
        <time>2018-11-26T10:50:21Z</time>
      </trkpt>
      <trkpt lat="42.18821" lon="2.30917">
        <ele>973.1</ele>
        <time>2018-11-26T10:50:23Z</time>
      </trkpt>
      <trkpt lat="42.18822" lon="2.30919">
        <ele>973</ele>
        <time>2018-11-26T10:50:24Z</time>
      </trkpt>
      <trkpt lat="42.18824" lon="2.30921">
        <ele>973.1</ele>
        <time>2018-11-26T10:50:25Z</time>
      </trkpt>
      <trkpt lat="42.18825" lon="2.30923">
        <ele>973.1</ele>
        <time>2018-11-26T10:50:25Z</time>
      </trkpt>
      <trkpt lat="42.1882" lon="2.30934">
        <ele>974.1</ele>
        <time>2018-11-26T10:50:29Z</time>
      </trkpt>
      <trkpt lat="42.18821" lon="2.30936">
        <ele>973</ele>
        <time>2018-11-26T10:50:30Z</time>
      </trkpt>
      <trkpt lat="42.18823" lon="2.30936">
        <ele>972.8</ele>
        <time>2018-11-26T10:50:31Z</time>
      </trkpt>
      <trkpt lat="42.18824" lon="2.30938">
        <ele>970.2</ele>
        <time>2018-11-26T10:50:32Z</time>
      </trkpt>
      <trkpt lat="42.18826" lon="2.30938">
        <ele>970.1</ele>
        <time>2018-11-26T10:50:32Z</time>
      </trkpt>
      <trkpt lat="42.18826" lon="2.30934">
        <ele>970.1</ele>
        <time>2018-11-26T10:50:34Z</time>
      </trkpt>
      <trkpt lat="42.18826" lon="2.30932">
        <ele>970</ele>
        <time>2018-11-26T10:50:34Z</time>
      </trkpt>
      <trkpt lat="42.18825" lon="2.30929">
        <ele>970</ele>
        <time>2018-11-26T10:50:35Z</time>
      </trkpt>
      <trkpt lat="42.18825" lon="2.30926">
        <ele>969.1</ele>
        <time>2018-11-26T10:50:36Z</time>
      </trkpt>
      <trkpt lat="42.18823" lon="2.30922">
        <ele>969.1</ele>
        <time>2018-11-26T10:50:38Z</time>
      </trkpt>
      <trkpt lat="42.18822" lon="2.30919">
        <ele>969.1</ele>
        <time>2018-11-26T10:50:38Z</time>
      </trkpt>
      <trkpt lat="42.18822" lon="2.30917">
        <ele>968</ele>
        <time>2018-11-26T10:50:39Z</time>
      </trkpt>
      <trkpt lat="42.18821" lon="2.30914">
        <ele>968</ele>
        <time>2018-11-26T10:50:40Z</time>
      </trkpt>
      <trkpt lat="42.1882" lon="2.30912">
        <ele>968</ele>
        <time>2018-11-26T10:50:41Z</time>
      </trkpt>
      <trkpt lat="42.1882" lon="2.30909">
        <ele>967</ele>
        <time>2018-11-26T10:50:42Z</time>
      </trkpt>
      <trkpt lat="42.18821" lon="2.30906">
        <ele>965.9</ele>
        <time>2018-11-26T10:50:43Z</time>
      </trkpt>
      <trkpt lat="42.18821" lon="2.30903">
        <ele>964.1</ele>
        <time>2018-11-26T10:50:43Z</time>
      </trkpt>
      <trkpt lat="42.18823" lon="2.30902">
        <ele>964.1</ele>
        <time>2018-11-26T10:50:44Z</time>
      </trkpt>
      <trkpt lat="42.18824" lon="2.30902">
        <ele>964.1</ele>
        <time>2018-11-26T10:50:45Z</time>
      </trkpt>
      <trkpt lat="42.18826" lon="2.30903">
        <ele>963.8</ele>
        <time>2018-11-26T10:50:46Z</time>
      </trkpt>
      <trkpt lat="42.18827" lon="2.30905">
        <ele>962.1</ele>
        <time>2018-11-26T10:50:46Z</time>
      </trkpt>
      <trkpt lat="42.18829" lon="2.30908">
        <ele>962</ele>
        <time>2018-11-26T10:50:47Z</time>
      </trkpt>
      <trkpt lat="42.18831" lon="2.30911">
        <ele>962</ele>
        <time>2018-11-26T10:50:49Z</time>
      </trkpt>
      <trkpt lat="42.18833" lon="2.30914">
        <ele>961.7</ele>
        <time>2018-11-26T10:50:50Z</time>
      </trkpt>
      <trkpt lat="42.18834" lon="2.30918">
        <ele>961.1</ele>
        <time>2018-11-26T10:50:51Z</time>
      </trkpt>
      <trkpt lat="42.18836" lon="2.30921">
        <ele>961</ele>
        <time>2018-11-26T10:50:52Z</time>
      </trkpt>
      <trkpt lat="42.18838" lon="2.30923">
        <ele>961</ele>
        <time>2018-11-26T10:50:53Z</time>
      </trkpt>
      <trkpt lat="42.1884" lon="2.30925">
        <ele>961</ele>
        <time>2018-11-26T10:50:54Z</time>
      </trkpt>
      <trkpt lat="42.18842" lon="2.30927">
        <ele>961.1</ele>
        <time>2018-11-26T10:50:55Z</time>
      </trkpt>
      <trkpt lat="42.18844" lon="2.30928">
        <ele>961</ele>
        <time>2018-11-26T10:50:56Z</time>
      </trkpt>
      <trkpt lat="42.18846" lon="2.30929">
        <ele>961.1</ele>
        <time>2018-11-26T10:50:57Z</time>
      </trkpt>
      <trkpt lat="42.18849" lon="2.3093">
        <ele>961</ele>
        <time>2018-11-26T10:50:58Z</time>
      </trkpt>
      <trkpt lat="42.18851" lon="2.30931">
        <ele>961</ele>
        <time>2018-11-26T10:50:59Z</time>
      </trkpt>
      <trkpt lat="42.18853" lon="2.30932">
        <ele>960.9</ele>
        <time>2018-11-26T10:51:00Z</time>
      </trkpt>
      <trkpt lat="42.18855" lon="2.30933">
        <ele>960.1</ele>
        <time>2018-11-26T10:51:01Z</time>
      </trkpt>
      <trkpt lat="42.18857" lon="2.30934">
        <ele>960</ele>
        <time>2018-11-26T10:51:02Z</time>
      </trkpt>
      <trkpt lat="42.18859" lon="2.30936">
        <ele>960.1</ele>
        <time>2018-11-26T10:51:03Z</time>
      </trkpt>
      <trkpt lat="42.18861" lon="2.30939">
        <ele>959</ele>
        <time>2018-11-26T10:51:04Z</time>
      </trkpt>
      <trkpt lat="42.18863" lon="2.30941">
        <ele>959</ele>
        <time>2018-11-26T10:51:05Z</time>
      </trkpt>
      <trkpt lat="42.18865" lon="2.30943">
        <ele>959</ele>
        <time>2018-11-26T10:51:06Z</time>
      </trkpt>
      <trkpt lat="42.18867" lon="2.30945">
        <ele>959.1</ele>
        <time>2018-11-26T10:51:07Z</time>
      </trkpt>
      <trkpt lat="42.18868" lon="2.30947">
        <ele>959</ele>
        <time>2018-11-26T10:51:07Z</time>
      </trkpt>
      <trkpt lat="42.1887" lon="2.30949">
        <ele>957.7</ele>
        <time>2018-11-26T10:51:08Z</time>
      </trkpt>
      <trkpt lat="42.18872" lon="2.30953">
        <ele>957.1</ele>
        <time>2018-11-26T10:51:10Z</time>
      </trkpt>
      <trkpt lat="42.18873" lon="2.30956">
        <ele>957.1</ele>
        <time>2018-11-26T10:51:11Z</time>
      </trkpt>
      <trkpt lat="42.18874" lon="2.3096">
        <ele>957</ele>
        <time>2018-11-26T10:51:12Z</time>
      </trkpt>
      <trkpt lat="42.18875" lon="2.30964">
        <ele>957.1</ele>
        <time>2018-11-26T10:51:13Z</time>
      </trkpt>
      <trkpt lat="42.18876" lon="2.30967">
        <ele>956.8</ele>
        <time>2018-11-26T10:51:14Z</time>
      </trkpt>
      <trkpt lat="42.18877" lon="2.3097">
        <ele>956.1</ele>
        <time>2018-11-26T10:51:15Z</time>
      </trkpt>
      <trkpt lat="42.18878" lon="2.30973">
        <ele>955.8</ele>
        <time>2018-11-26T10:51:16Z</time>
      </trkpt>
      <trkpt lat="42.18879" lon="2.30975">
        <ele>955</ele>
        <time>2018-11-26T10:51:17Z</time>
      </trkpt>
      <trkpt lat="42.18883" lon="2.30978">
        <ele>954.1</ele>
        <time>2018-11-26T10:51:19Z</time>
      </trkpt>
      <trkpt lat="42.18886" lon="2.3098">
        <ele>954</ele>
        <time>2018-11-26T10:51:20Z</time>
      </trkpt>
      <trkpt lat="42.18894" lon="2.30979">
        <ele>954.1</ele>
        <time>2018-11-26T10:51:23Z</time>
      </trkpt>
      <trkpt lat="42.18896" lon="2.30978">
        <ele>954.1</ele>
        <time>2018-11-26T10:51:24Z</time>
      </trkpt>
      <trkpt lat="42.18899" lon="2.30977">
        <ele>954</ele>
        <time>2018-11-26T10:51:25Z</time>
      </trkpt>
      <trkpt lat="42.18901" lon="2.30977">
        <ele>954.1</ele>
        <time>2018-11-26T10:51:26Z</time>
      </trkpt>
      <trkpt lat="42.18903" lon="2.30977">
        <ele>954.1</ele>
        <time>2018-11-26T10:51:27Z</time>
      </trkpt>
      <trkpt lat="42.18906" lon="2.30978">
        <ele>953.1</ele>
        <time>2018-11-26T10:51:28Z</time>
      </trkpt>
      <trkpt lat="42.18909" lon="2.30978">
        <ele>953</ele>
        <time>2018-11-26T10:51:29Z</time>
      </trkpt>
      <trkpt lat="42.18911" lon="2.30979">
        <ele>953</ele>
        <time>2018-11-26T10:51:30Z</time>
      </trkpt>
      <trkpt lat="42.18913" lon="2.30981">
        <ele>952.8</ele>
        <time>2018-11-26T10:51:31Z</time>
      </trkpt>
      <trkpt lat="42.18915" lon="2.30983">
        <ele>952</ele>
        <time>2018-11-26T10:51:32Z</time>
      </trkpt>
      <trkpt lat="42.1892" lon="2.30986">
        <ele>952</ele>
        <time>2018-11-26T10:51:34Z</time>
      </trkpt>
      <trkpt lat="42.18922" lon="2.30988">
        <ele>952.1</ele>
        <time>2018-11-26T10:51:35Z</time>
      </trkpt>
      <trkpt lat="42.18924" lon="2.3099">
        <ele>952</ele>
        <time>2018-11-26T10:51:36Z</time>
      </trkpt>
      <trkpt lat="42.18926" lon="2.30992">
        <ele>952</ele>
        <time>2018-11-26T10:51:38Z</time>
      </trkpt>
      <trkpt lat="42.18929" lon="2.30994">
        <ele>951.8</ele>
        <time>2018-11-26T10:51:39Z</time>
      </trkpt>
      <trkpt lat="42.18931" lon="2.30996">
        <ele>951</ele>
        <time>2018-11-26T10:51:40Z</time>
      </trkpt>
      <trkpt lat="42.18933" lon="2.30997">
        <ele>951.1</ele>
        <time>2018-11-26T10:51:41Z</time>
      </trkpt>
      <trkpt lat="42.18936" lon="2.30998">
        <ele>951.1</ele>
        <time>2018-11-26T10:51:42Z</time>
      </trkpt>
      <trkpt lat="42.18938" lon="2.30998">
        <ele>951</ele>
        <time>2018-11-26T10:51:43Z</time>
      </trkpt>
      <trkpt lat="42.18941" lon="2.30999">
        <ele>950.6</ele>
        <time>2018-11-26T10:51:44Z</time>
      </trkpt>
      <trkpt lat="42.18943" lon="2.31">
        <ele>950</ele>
        <time>2018-11-26T10:51:45Z</time>
      </trkpt>
      <trkpt lat="42.18945" lon="2.31">
        <ele>950</ele>
        <time>2018-11-26T10:51:46Z</time>
      </trkpt>
      <trkpt lat="42.18948" lon="2.31">
        <ele>950</ele>
        <time>2018-11-26T10:51:47Z</time>
      </trkpt>
      <trkpt lat="42.1895" lon="2.30999">
        <ele>949.1</ele>
        <time>2018-11-26T10:51:48Z</time>
      </trkpt>
      <trkpt lat="42.18953" lon="2.30998">
        <ele>949</ele>
        <time>2018-11-26T10:51:49Z</time>
      </trkpt>
      <trkpt lat="42.18955" lon="2.30998">
        <ele>949.1</ele>
        <time>2018-11-26T10:51:50Z</time>
      </trkpt>
      <trkpt lat="42.18958" lon="2.30998">
        <ele>949</ele>
        <time>2018-11-26T10:51:51Z</time>
      </trkpt>
      <trkpt lat="42.18961" lon="2.30996">
        <ele>948.7</ele>
        <time>2018-11-26T10:51:52Z</time>
      </trkpt>
      <trkpt lat="42.18963" lon="2.30996">
        <ele>948.1</ele>
        <time>2018-11-26T10:51:53Z</time>
      </trkpt>
      <trkpt lat="42.18966" lon="2.30996">
        <ele>948</ele>
        <time>2018-11-26T10:51:54Z</time>
      </trkpt>
      <trkpt lat="42.18968" lon="2.30996">
        <ele>947.8</ele>
        <time>2018-11-26T10:51:55Z</time>
      </trkpt>
      <trkpt lat="42.18971" lon="2.30996">
        <ele>947.1</ele>
        <time>2018-11-26T10:51:56Z</time>
      </trkpt>
      <trkpt lat="42.18973" lon="2.30997">
        <ele>947</ele>
        <time>2018-11-26T10:51:57Z</time>
      </trkpt>
      <trkpt lat="42.18975" lon="2.30997">
        <ele>947</ele>
        <time>2018-11-26T10:51:58Z</time>
      </trkpt>
      <trkpt lat="42.18977" lon="2.30997">
        <ele>947</ele>
        <time>2018-11-26T10:51:59Z</time>
      </trkpt>
      <trkpt lat="42.1898" lon="2.30997">
        <ele>947.1</ele>
        <time>2018-11-26T10:52:00Z</time>
      </trkpt>
      <trkpt lat="42.18982" lon="2.30997">
        <ele>947</ele>
        <time>2018-11-26T10:52:01Z</time>
      </trkpt>
      <trkpt lat="42.18984" lon="2.30998">
        <ele>946.1</ele>
        <time>2018-11-26T10:52:01Z</time>
      </trkpt>
      <trkpt lat="42.18987" lon="2.30998">
        <ele>946.4</ele>
        <time>2018-11-26T10:52:02Z</time>
      </trkpt>
      <trkpt lat="42.18989" lon="2.30997">
        <ele>947</ele>
        <time>2018-11-26T10:52:03Z</time>
      </trkpt>
      <trkpt lat="42.18991" lon="2.30997">
        <ele>947.1</ele>
        <time>2018-11-26T10:52:04Z</time>
      </trkpt>
      <trkpt lat="42.18993" lon="2.30996">
        <ele>947.1</ele>
        <time>2018-11-26T10:52:05Z</time>
      </trkpt>
      <trkpt lat="42.18995" lon="2.30997">
        <ele>947.1</ele>
        <time>2018-11-26T10:52:06Z</time>
      </trkpt>
      <trkpt lat="42.18997" lon="2.30998">
        <ele>945.8</ele>
        <time>2018-11-26T10:52:07Z</time>
      </trkpt>
      <trkpt lat="42.18999" lon="2.30997">
        <ele>945</ele>
        <time>2018-11-26T10:52:07Z</time>
      </trkpt>
      <trkpt lat="42.19001" lon="2.30997">
        <ele>944.8</ele>
        <time>2018-11-26T10:52:08Z</time>
      </trkpt>
      <trkpt lat="42.19003" lon="2.30997">
        <ele>944</ele>
        <time>2018-11-26T10:52:09Z</time>
      </trkpt>
      <trkpt lat="42.19005" lon="2.30996">
        <ele>944.1</ele>
        <time>2018-11-26T10:52:10Z</time>
      </trkpt>
      <trkpt lat="42.19007" lon="2.30996">
        <ele>944.1</ele>
        <time>2018-11-26T10:52:11Z</time>
      </trkpt>
      <trkpt lat="42.1901" lon="2.30996">
        <ele>944.1</ele>
        <time>2018-11-26T10:52:12Z</time>
      </trkpt>
      <trkpt lat="42.19013" lon="2.30997">
        <ele>943.1</ele>
        <time>2018-11-26T10:52:13Z</time>
      </trkpt>
      <trkpt lat="42.19016" lon="2.30997">
        <ele>943.1</ele>
        <time>2018-11-26T10:52:15Z</time>
      </trkpt>
      <trkpt lat="42.19019" lon="2.30997">
        <ele>943</ele>
        <time>2018-11-26T10:52:16Z</time>
      </trkpt>
      <trkpt lat="42.19022" lon="2.30997">
        <ele>943</ele>
        <time>2018-11-26T10:52:17Z</time>
      </trkpt>
      <trkpt lat="42.19025" lon="2.30997">
        <ele>943</ele>
        <time>2018-11-26T10:52:18Z</time>
      </trkpt>
      <trkpt lat="42.19028" lon="2.30997">
        <ele>942.9</ele>
        <time>2018-11-26T10:52:19Z</time>
      </trkpt>
      <trkpt lat="42.1903" lon="2.30997">
        <ele>942</ele>
        <time>2018-11-26T10:52:20Z</time>
      </trkpt>
      <trkpt lat="42.19033" lon="2.30997">
        <ele>942</ele>
        <time>2018-11-26T10:52:21Z</time>
      </trkpt>
      <trkpt lat="42.19037" lon="2.30997">
        <ele>942.1</ele>
        <time>2018-11-26T10:52:23Z</time>
      </trkpt>
      <trkpt lat="42.19039" lon="2.30996">
        <ele>942.1</ele>
        <time>2018-11-26T10:52:24Z</time>
      </trkpt>
      <trkpt lat="42.19041" lon="2.30995">
        <ele>942</ele>
        <time>2018-11-26T10:52:25Z</time>
      </trkpt>
      <trkpt lat="42.19043" lon="2.30992">
        <ele>941</ele>
        <time>2018-11-26T10:52:26Z</time>
      </trkpt>
      <trkpt lat="42.19046" lon="2.3099">
        <ele>941.1</ele>
        <time>2018-11-26T10:52:27Z</time>
      </trkpt>
      <trkpt lat="42.19047" lon="2.30988">
        <ele>941</ele>
        <time>2018-11-26T10:52:28Z</time>
      </trkpt>
      <trkpt lat="42.19049" lon="2.30985">
        <ele>940.1</ele>
        <time>2018-11-26T10:52:29Z</time>
      </trkpt>
      <trkpt lat="42.1905" lon="2.30981">
        <ele>941</ele>
        <time>2018-11-26T10:52:30Z</time>
      </trkpt>
      <trkpt lat="42.19052" lon="2.30978">
        <ele>941.1</ele>
        <time>2018-11-26T10:52:31Z</time>
      </trkpt>
      <trkpt lat="42.19054" lon="2.30976">
        <ele>941</ele>
        <time>2018-11-26T10:52:32Z</time>
      </trkpt>
      <trkpt lat="42.19057" lon="2.30973">
        <ele>940</ele>
        <time>2018-11-26T10:52:34Z</time>
      </trkpt>
      <trkpt lat="42.19059" lon="2.30971">
        <ele>940</ele>
        <time>2018-11-26T10:52:35Z</time>
      </trkpt>
      <trkpt lat="42.19062" lon="2.3097">
        <ele>939</ele>
        <time>2018-11-26T10:52:36Z</time>
      </trkpt>
      <trkpt lat="42.19064" lon="2.30969">
        <ele>939.1</ele>
        <time>2018-11-26T10:52:37Z</time>
      </trkpt>
      <trkpt lat="42.19067" lon="2.30968">
        <ele>938.8</ele>
        <time>2018-11-26T10:52:38Z</time>
      </trkpt>
      <trkpt lat="42.1907" lon="2.30966">
        <ele>938</ele>
        <time>2018-11-26T10:52:39Z</time>
      </trkpt>
      <trkpt lat="42.19072" lon="2.30964">
        <ele>938.1</ele>
        <time>2018-11-26T10:52:40Z</time>
      </trkpt>
      <trkpt lat="42.19075" lon="2.30962">
        <ele>938.1</ele>
        <time>2018-11-26T10:52:42Z</time>
      </trkpt>
      <trkpt lat="42.19077" lon="2.3096">
        <ele>938.1</ele>
        <time>2018-11-26T10:52:43Z</time>
      </trkpt>
      <trkpt lat="42.1908" lon="2.30958">
        <ele>938.1</ele>
        <time>2018-11-26T10:52:44Z</time>
      </trkpt>
      <trkpt lat="42.19082" lon="2.30957">
        <ele>938.1</ele>
        <time>2018-11-26T10:52:45Z</time>
      </trkpt>
      <trkpt lat="42.19085" lon="2.30956">
        <ele>937.9</ele>
        <time>2018-11-26T10:52:46Z</time>
      </trkpt>
      <trkpt lat="42.19087" lon="2.30954">
        <ele>937</ele>
        <time>2018-11-26T10:52:47Z</time>
      </trkpt>
      <trkpt lat="42.1909" lon="2.30953">
        <ele>936.8</ele>
        <time>2018-11-26T10:52:48Z</time>
      </trkpt>
      <trkpt lat="42.19093" lon="2.30953">
        <ele>936</ele>
        <time>2018-11-26T10:52:50Z</time>
      </trkpt>
      <trkpt lat="42.19096" lon="2.30952">
        <ele>936.1</ele>
        <time>2018-11-26T10:52:51Z</time>
      </trkpt>
      <trkpt lat="42.19099" lon="2.30951">
        <ele>936</ele>
        <time>2018-11-26T10:52:52Z</time>
      </trkpt>
      <trkpt lat="42.19102" lon="2.30949">
        <ele>936</ele>
        <time>2018-11-26T10:52:53Z</time>
      </trkpt>
      <trkpt lat="42.19105" lon="2.30948">
        <ele>936</ele>
        <time>2018-11-26T10:52:55Z</time>
      </trkpt>
      <trkpt lat="42.19107" lon="2.30947">
        <ele>935.1</ele>
        <time>2018-11-26T10:52:56Z</time>
      </trkpt>
      <trkpt lat="42.1911" lon="2.30946">
        <ele>935</ele>
        <time>2018-11-26T10:52:57Z</time>
      </trkpt>
      <trkpt lat="42.19113" lon="2.30945">
        <ele>935</ele>
        <time>2018-11-26T10:52:58Z</time>
      </trkpt>
      <trkpt lat="42.19115" lon="2.30944">
        <ele>934.8</ele>
        <time>2018-11-26T10:52:59Z</time>
      </trkpt>
      <trkpt lat="42.19118" lon="2.30943">
        <ele>935.1</ele>
        <time>2018-11-26T10:53:00Z</time>
      </trkpt>
      <trkpt lat="42.19121" lon="2.30943">
        <ele>935</ele>
        <time>2018-11-26T10:53:01Z</time>
      </trkpt>
      <trkpt lat="42.19123" lon="2.30942">
        <ele>935</ele>
        <time>2018-11-26T10:53:02Z</time>
      </trkpt>
      <trkpt lat="42.19126" lon="2.30941">
        <ele>935</ele>
        <time>2018-11-26T10:53:03Z</time>
      </trkpt>
      <trkpt lat="42.19129" lon="2.30941">
        <ele>935</ele>
        <time>2018-11-26T10:53:04Z</time>
      </trkpt>
      <trkpt lat="42.19132" lon="2.3094">
        <ele>935</ele>
        <time>2018-11-26T10:53:05Z</time>
      </trkpt>
      <trkpt lat="42.19134" lon="2.3094">
        <ele>935.1</ele>
        <time>2018-11-26T10:53:07Z</time>
      </trkpt>
      <trkpt lat="42.19137" lon="2.30939">
        <ele>935</ele>
        <time>2018-11-26T10:53:08Z</time>
      </trkpt>
      <trkpt lat="42.19139" lon="2.30939">
        <ele>934.8</ele>
        <time>2018-11-26T10:53:09Z</time>
      </trkpt>
      <trkpt lat="42.19142" lon="2.30939">
        <ele>934.1</ele>
        <time>2018-11-26T10:53:10Z</time>
      </trkpt>
      <trkpt lat="42.19145" lon="2.30938">
        <ele>933</ele>
        <time>2018-11-26T10:53:11Z</time>
      </trkpt>
      <trkpt lat="42.19147" lon="2.30937">
        <ele>933</ele>
        <time>2018-11-26T10:53:12Z</time>
      </trkpt>
      <trkpt lat="42.1915" lon="2.30936">
        <ele>932.8</ele>
        <time>2018-11-26T10:53:13Z</time>
      </trkpt>
      <trkpt lat="42.19153" lon="2.30935">
        <ele>932</ele>
        <time>2018-11-26T10:53:14Z</time>
      </trkpt>
      <trkpt lat="42.19155" lon="2.30934">
        <ele>932</ele>
        <time>2018-11-26T10:53:15Z</time>
      </trkpt>
      <trkpt lat="42.19158" lon="2.30933">
        <ele>932.1</ele>
        <time>2018-11-26T10:53:16Z</time>
      </trkpt>
      <trkpt lat="42.1916" lon="2.30931">
        <ele>932.1</ele>
        <time>2018-11-26T10:53:17Z</time>
      </trkpt>
      <trkpt lat="42.19163" lon="2.3093">
        <ele>931.1</ele>
        <time>2018-11-26T10:53:18Z</time>
      </trkpt>
      <trkpt lat="42.19165" lon="2.30928">
        <ele>931</ele>
        <time>2018-11-26T10:53:19Z</time>
      </trkpt>
      <trkpt lat="42.19168" lon="2.30927">
        <ele>931</ele>
        <time>2018-11-26T10:53:20Z</time>
      </trkpt>
      <trkpt lat="42.1917" lon="2.30926">
        <ele>931.1</ele>
        <time>2018-11-26T10:53:22Z</time>
      </trkpt>
      <trkpt lat="42.19173" lon="2.30926">
        <ele>931</ele>
        <time>2018-11-26T10:53:23Z</time>
      </trkpt>
      <trkpt lat="42.19175" lon="2.30925">
        <ele>930</ele>
        <time>2018-11-26T10:53:24Z</time>
      </trkpt>
      <trkpt lat="42.19178" lon="2.30924">
        <ele>930.1</ele>
        <time>2018-11-26T10:53:25Z</time>
      </trkpt>
      <trkpt lat="42.1918" lon="2.30923">
        <ele>930</ele>
        <time>2018-11-26T10:53:26Z</time>
      </trkpt>
      <trkpt lat="42.19182" lon="2.30922">
        <ele>929.8</ele>
        <time>2018-11-26T10:53:27Z</time>
      </trkpt>
      <trkpt lat="42.19185" lon="2.30921">
        <ele>929</ele>
        <time>2018-11-26T10:53:28Z</time>
      </trkpt>
      <trkpt lat="42.19187" lon="2.30919">
        <ele>928.8</ele>
        <time>2018-11-26T10:53:29Z</time>
      </trkpt>
      <trkpt lat="42.1919" lon="2.30918">
        <ele>928</ele>
        <time>2018-11-26T10:53:30Z</time>
      </trkpt>
      <trkpt lat="42.19192" lon="2.30917">
        <ele>928</ele>
        <time>2018-11-26T10:53:31Z</time>
      </trkpt>
      <trkpt lat="42.19195" lon="2.30915">
        <ele>928.1</ele>
        <time>2018-11-26T10:53:32Z</time>
      </trkpt>
      <trkpt lat="42.19198" lon="2.30912">
        <ele>928</ele>
        <time>2018-11-26T10:53:33Z</time>
      </trkpt>
      <trkpt lat="42.192" lon="2.3091">
        <ele>928</ele>
        <time>2018-11-26T10:53:34Z</time>
      </trkpt>
      <trkpt lat="42.19202" lon="2.30908">
        <ele>927.8</ele>
        <time>2018-11-26T10:53:36Z</time>
      </trkpt>
      <trkpt lat="42.19204" lon="2.30906">
        <ele>927.1</ele>
        <time>2018-11-26T10:53:37Z</time>
      </trkpt>
      <trkpt lat="42.19206" lon="2.30904">
        <ele>927</ele>
        <time>2018-11-26T10:53:38Z</time>
      </trkpt>
      <trkpt lat="42.19208" lon="2.30901">
        <ele>927.1</ele>
        <time>2018-11-26T10:53:39Z</time>
      </trkpt>
      <trkpt lat="42.1921" lon="2.30898">
        <ele>927</ele>
        <time>2018-11-26T10:53:40Z</time>
      </trkpt>
      <trkpt lat="42.19212" lon="2.30895">
        <ele>926</ele>
        <time>2018-11-26T10:53:41Z</time>
      </trkpt>
      <trkpt lat="42.19215" lon="2.30894">
        <ele>926</ele>
        <time>2018-11-26T10:53:42Z</time>
      </trkpt>
      <trkpt lat="42.19217" lon="2.30891">
        <ele>926.1</ele>
        <time>2018-11-26T10:53:43Z</time>
      </trkpt>
      <trkpt lat="42.19219" lon="2.30888">
        <ele>926.1</ele>
        <time>2018-11-26T10:53:45Z</time>
      </trkpt>
      <trkpt lat="42.19221" lon="2.30886">
        <ele>926.1</ele>
        <time>2018-11-26T10:53:46Z</time>
      </trkpt>
      <trkpt lat="42.19223" lon="2.30884">
        <ele>925.7</ele>
        <time>2018-11-26T10:53:47Z</time>
      </trkpt>
      <trkpt lat="42.19226" lon="2.30881">
        <ele>925</ele>
        <time>2018-11-26T10:53:48Z</time>
      </trkpt>
      <trkpt lat="42.19228" lon="2.30878">
        <ele>925.1</ele>
        <time>2018-11-26T10:53:49Z</time>
      </trkpt>
      <trkpt lat="42.1923" lon="2.30876">
        <ele>925</ele>
        <time>2018-11-26T10:53:50Z</time>
      </trkpt>
      <trkpt lat="42.19233" lon="2.30874">
        <ele>925</ele>
        <time>2018-11-26T10:53:52Z</time>
      </trkpt>
      <trkpt lat="42.19235" lon="2.30872">
        <ele>925</ele>
        <time>2018-11-26T10:53:53Z</time>
      </trkpt>
      <trkpt lat="42.19238" lon="2.3087">
        <ele>924.6</ele>
        <time>2018-11-26T10:53:54Z</time>
      </trkpt>
      <trkpt lat="42.1924" lon="2.30868">
        <ele>924</ele>
        <time>2018-11-26T10:53:55Z</time>
      </trkpt>
      <trkpt lat="42.19243" lon="2.30867">
        <ele>924.1</ele>
        <time>2018-11-26T10:53:56Z</time>
      </trkpt>
      <trkpt lat="42.19246" lon="2.30866">
        <ele>924.1</ele>
        <time>2018-11-26T10:53:57Z</time>
      </trkpt>
      <trkpt lat="42.19249" lon="2.30866">
        <ele>924.1</ele>
        <time>2018-11-26T10:53:59Z</time>
      </trkpt>
      <trkpt lat="42.19252" lon="2.30866">
        <ele>923.9</ele>
        <time>2018-11-26T10:54:00Z</time>
      </trkpt>
      <trkpt lat="42.19255" lon="2.30866">
        <ele>923</ele>
        <time>2018-11-26T10:54:01Z</time>
      </trkpt>
      <trkpt lat="42.19258" lon="2.30866">
        <ele>923.1</ele>
        <time>2018-11-26T10:54:02Z</time>
      </trkpt>
      <trkpt lat="42.19261" lon="2.30867">
        <ele>923.1</ele>
        <time>2018-11-26T10:54:03Z</time>
      </trkpt>
      <trkpt lat="42.19264" lon="2.30867">
        <ele>923.1</ele>
        <time>2018-11-26T10:54:04Z</time>
      </trkpt>
      <trkpt lat="42.19266" lon="2.30867">
        <ele>923</ele>
        <time>2018-11-26T10:54:06Z</time>
      </trkpt>
      <trkpt lat="42.19269" lon="2.30868">
        <ele>923</ele>
        <time>2018-11-26T10:54:07Z</time>
      </trkpt>
      <trkpt lat="42.19272" lon="2.30868">
        <ele>923</ele>
        <time>2018-11-26T10:54:08Z</time>
      </trkpt>
      <trkpt lat="42.19275" lon="2.30869">
        <ele>923</ele>
        <time>2018-11-26T10:54:09Z</time>
      </trkpt>
      <trkpt lat="42.19278" lon="2.30869">
        <ele>923</ele>
        <time>2018-11-26T10:54:10Z</time>
      </trkpt>
      <trkpt lat="42.19282" lon="2.3087">
        <ele>923.1</ele>
        <time>2018-11-26T10:54:12Z</time>
      </trkpt>
      <trkpt lat="42.19285" lon="2.3087">
        <ele>922.1</ele>
        <time>2018-11-26T10:54:13Z</time>
      </trkpt>
      <trkpt lat="42.19287" lon="2.30871">
        <ele>922.1</ele>
        <time>2018-11-26T10:54:14Z</time>
      </trkpt>
      <trkpt lat="42.1929" lon="2.30872">
        <ele>922</ele>
        <time>2018-11-26T10:54:15Z</time>
      </trkpt>
      <trkpt lat="42.19293" lon="2.30873">
        <ele>922.1</ele>
        <time>2018-11-26T10:54:16Z</time>
      </trkpt>
      <trkpt lat="42.19296" lon="2.30873">
        <ele>922.1</ele>
        <time>2018-11-26T10:54:18Z</time>
      </trkpt>
      <trkpt lat="42.19299" lon="2.30874">
        <ele>922.1</ele>
        <time>2018-11-26T10:54:19Z</time>
      </trkpt>
      <trkpt lat="42.19302" lon="2.30874">
        <ele>922.1</ele>
        <time>2018-11-26T10:54:20Z</time>
      </trkpt>
      <trkpt lat="42.19305" lon="2.30875">
        <ele>922.1</ele>
        <time>2018-11-26T10:54:21Z</time>
      </trkpt>
      <trkpt lat="42.19308" lon="2.30875">
        <ele>922</ele>
        <time>2018-11-26T10:54:23Z</time>
      </trkpt>
      <trkpt lat="42.19311" lon="2.30876">
        <ele>921</ele>
        <time>2018-11-26T10:54:24Z</time>
      </trkpt>
      <trkpt lat="42.19314" lon="2.30876">
        <ele>921</ele>
        <time>2018-11-26T10:54:25Z</time>
      </trkpt>
      <trkpt lat="42.19317" lon="2.30877">
        <ele>921</ele>
        <time>2018-11-26T10:54:26Z</time>
      </trkpt>
      <trkpt lat="42.1932" lon="2.30877">
        <ele>920.7</ele>
        <time>2018-11-26T10:54:27Z</time>
      </trkpt>
      <trkpt lat="42.19323" lon="2.30879">
        <ele>920</ele>
        <time>2018-11-26T10:54:28Z</time>
      </trkpt>
      <trkpt lat="42.19326" lon="2.3088">
        <ele>920</ele>
        <time>2018-11-26T10:54:30Z</time>
      </trkpt>
      <trkpt lat="42.19328" lon="2.30881">
        <ele>920.1</ele>
        <time>2018-11-26T10:54:31Z</time>
      </trkpt>
      <trkpt lat="42.19331" lon="2.30883">
        <ele>920.1</ele>
        <time>2018-11-26T10:54:32Z</time>
      </trkpt>
      <trkpt lat="42.19333" lon="2.30886">
        <ele>920</ele>
        <time>2018-11-26T10:54:33Z</time>
      </trkpt>
      <trkpt lat="42.19335" lon="2.30888">
        <ele>920</ele>
        <time>2018-11-26T10:54:34Z</time>
      </trkpt>
      <trkpt lat="42.19337" lon="2.30891">
        <ele>920</ele>
        <time>2018-11-26T10:54:35Z</time>
      </trkpt>
      <trkpt lat="42.19339" lon="2.30894">
        <ele>920</ele>
        <time>2018-11-26T10:54:37Z</time>
      </trkpt>
      <trkpt lat="42.19342" lon="2.30895">
        <ele>919</ele>
        <time>2018-11-26T10:54:38Z</time>
      </trkpt>
      <trkpt lat="42.19345" lon="2.30894">
        <ele>919.1</ele>
        <time>2018-11-26T10:54:39Z</time>
      </trkpt>
      <trkpt lat="42.19347" lon="2.30892">
        <ele>918.1</ele>
        <time>2018-11-26T10:54:40Z</time>
      </trkpt>
      <trkpt lat="42.1935" lon="2.30891">
        <ele>917</ele>
        <time>2018-11-26T10:54:41Z</time>
      </trkpt>
      <trkpt lat="42.19352" lon="2.30888">
        <ele>917.1</ele>
        <time>2018-11-26T10:54:42Z</time>
      </trkpt>
      <trkpt lat="42.19354" lon="2.30887">
        <ele>917</ele>
        <time>2018-11-26T10:54:43Z</time>
      </trkpt>
      <trkpt lat="42.19356" lon="2.30885">
        <ele>917</ele>
        <time>2018-11-26T10:54:44Z</time>
      </trkpt>
      <trkpt lat="42.19358" lon="2.30882">
        <ele>917.1</ele>
        <time>2018-11-26T10:54:45Z</time>
      </trkpt>
      <trkpt lat="42.1936" lon="2.30879">
        <ele>917.1</ele>
        <time>2018-11-26T10:54:46Z</time>
      </trkpt>
      <trkpt lat="42.19361" lon="2.30877">
        <ele>917.1</ele>
        <time>2018-11-26T10:54:47Z</time>
      </trkpt>
      <trkpt lat="42.19363" lon="2.30874">
        <ele>917.1</ele>
        <time>2018-11-26T10:54:49Z</time>
      </trkpt>
      <trkpt lat="42.19365" lon="2.30872">
        <ele>917</ele>
        <time>2018-11-26T10:54:49Z</time>
      </trkpt>
      <trkpt lat="42.19367" lon="2.30869">
        <ele>916.6</ele>
        <time>2018-11-26T10:54:51Z</time>
      </trkpt>
      <trkpt lat="42.1937" lon="2.30867">
        <ele>915.1</ele>
        <time>2018-11-26T10:54:52Z</time>
      </trkpt>
      <trkpt lat="42.19372" lon="2.30864">
        <ele>915.1</ele>
        <time>2018-11-26T10:54:53Z</time>
      </trkpt>
      <trkpt lat="42.19375" lon="2.30863">
        <ele>915</ele>
        <time>2018-11-26T10:54:54Z</time>
      </trkpt>
      <trkpt lat="42.19377" lon="2.3086">
        <ele>915.1</ele>
        <time>2018-11-26T10:54:55Z</time>
      </trkpt>
      <trkpt lat="42.1938" lon="2.30857">
        <ele>915.1</ele>
        <time>2018-11-26T10:54:57Z</time>
      </trkpt>
      <trkpt lat="42.19382" lon="2.30854">
        <ele>915</ele>
        <time>2018-11-26T10:54:58Z</time>
      </trkpt>
      <trkpt lat="42.19384" lon="2.30852">
        <ele>915</ele>
        <time>2018-11-26T10:54:59Z</time>
      </trkpt>
      <trkpt lat="42.19386" lon="2.30849">
        <ele>915</ele>
        <time>2018-11-26T10:55:00Z</time>
      </trkpt>
      <trkpt lat="42.19388" lon="2.30846">
        <ele>915.1</ele>
        <time>2018-11-26T10:55:02Z</time>
      </trkpt>
      <trkpt lat="42.1939" lon="2.30842">
        <ele>914</ele>
        <time>2018-11-26T10:55:03Z</time>
      </trkpt>
      <trkpt lat="42.19391" lon="2.30838">
        <ele>914</ele>
        <time>2018-11-26T10:55:04Z</time>
      </trkpt>
      <trkpt lat="42.19393" lon="2.30834">
        <ele>914</ele>
        <time>2018-11-26T10:55:06Z</time>
      </trkpt>
      <trkpt lat="42.19393" lon="2.30832">
        <ele>914.1</ele>
        <time>2018-11-26T10:55:06Z</time>
      </trkpt>
      <trkpt lat="42.19395" lon="2.30827">
        <ele>913.9</ele>
        <time>2018-11-26T10:55:08Z</time>
      </trkpt>
      <trkpt lat="42.19396" lon="2.30825">
        <ele>913.1</ele>
        <time>2018-11-26T10:55:08Z</time>
      </trkpt>
      <trkpt lat="42.19396" lon="2.30822">
        <ele>913.1</ele>
        <time>2018-11-26T10:55:09Z</time>
      </trkpt>
      <trkpt lat="42.19398" lon="2.30819">
        <ele>913.1</ele>
        <time>2018-11-26T10:55:10Z</time>
      </trkpt>
      <trkpt lat="42.19399" lon="2.30816">
        <ele>913</ele>
        <time>2018-11-26T10:55:12Z</time>
      </trkpt>
      <trkpt lat="42.19401" lon="2.30813">
        <ele>913</ele>
        <time>2018-11-26T10:55:13Z</time>
      </trkpt>
      <trkpt lat="42.19402" lon="2.3081">
        <ele>912.1</ele>
        <time>2018-11-26T10:55:14Z</time>
      </trkpt>
      <trkpt lat="42.19404" lon="2.30806">
        <ele>912.1</ele>
        <time>2018-11-26T10:55:15Z</time>
      </trkpt>
      <trkpt lat="42.19405" lon="2.30803">
        <ele>912</ele>
        <time>2018-11-26T10:55:16Z</time>
      </trkpt>
      <trkpt lat="42.19407" lon="2.308">
        <ele>912</ele>
        <time>2018-11-26T10:55:17Z</time>
      </trkpt>
      <trkpt lat="42.19408" lon="2.30797">
        <ele>911.8</ele>
        <time>2018-11-26T10:55:18Z</time>
      </trkpt>
      <trkpt lat="42.1941" lon="2.30794">
        <ele>911</ele>
        <time>2018-11-26T10:55:19Z</time>
      </trkpt>
      <trkpt lat="42.19412" lon="2.30791">
        <ele>911.1</ele>
        <time>2018-11-26T10:55:21Z</time>
      </trkpt>
      <trkpt lat="42.19414" lon="2.30787">
        <ele>912</ele>
        <time>2018-11-26T10:55:22Z</time>
      </trkpt>
      <trkpt lat="42.19415" lon="2.30784">
        <ele>912.1</ele>
        <time>2018-11-26T10:55:23Z</time>
      </trkpt>
      <trkpt lat="42.19417" lon="2.30781">
        <ele>912.1</ele>
        <time>2018-11-26T10:55:24Z</time>
      </trkpt>
      <trkpt lat="42.19419" lon="2.30777">
        <ele>911</ele>
        <time>2018-11-26T10:55:25Z</time>
      </trkpt>
      <trkpt lat="42.19421" lon="2.30774">
        <ele>910.8</ele>
        <time>2018-11-26T10:55:27Z</time>
      </trkpt>
      <trkpt lat="42.19423" lon="2.30771">
        <ele>910.1</ele>
        <time>2018-11-26T10:55:28Z</time>
      </trkpt>
      <trkpt lat="42.19425" lon="2.30769">
        <ele>910</ele>
        <time>2018-11-26T10:55:29Z</time>
      </trkpt>
      <trkpt lat="42.19426" lon="2.30766">
        <ele>910.1</ele>
        <time>2018-11-26T10:55:30Z</time>
      </trkpt>
      <trkpt lat="42.19428" lon="2.30763">
        <ele>909</ele>
        <time>2018-11-26T10:55:31Z</time>
      </trkpt>
      <trkpt lat="42.1943" lon="2.30761">
        <ele>909</ele>
        <time>2018-11-26T10:55:32Z</time>
      </trkpt>
      <trkpt lat="42.19431" lon="2.30759">
        <ele>909.1</ele>
        <time>2018-11-26T10:55:33Z</time>
      </trkpt>
      <trkpt lat="42.19432" lon="2.30756">
        <ele>908</ele>
        <time>2018-11-26T10:55:34Z</time>
      </trkpt>
      <trkpt lat="42.19433" lon="2.30754">
        <ele>908.1</ele>
        <time>2018-11-26T10:55:34Z</time>
      </trkpt>
      <trkpt lat="42.19435" lon="2.30752">
        <ele>908</ele>
        <time>2018-11-26T10:55:35Z</time>
      </trkpt>
      <trkpt lat="42.19436" lon="2.3075">
        <ele>908.1</ele>
        <time>2018-11-26T10:55:36Z</time>
      </trkpt>
      <trkpt lat="42.19437" lon="2.30747">
        <ele>908</ele>
        <time>2018-11-26T10:55:37Z</time>
      </trkpt>
      <trkpt lat="42.19438" lon="2.30745">
        <ele>907</ele>
        <time>2018-11-26T10:55:38Z</time>
      </trkpt>
      <trkpt lat="42.19438" lon="2.30742">
        <ele>907.1</ele>
        <time>2018-11-26T10:55:39Z</time>
      </trkpt>
      <trkpt lat="42.19438" lon="2.30739">
        <ele>906.1</ele>
        <time>2018-11-26T10:55:40Z</time>
      </trkpt>
      <trkpt lat="42.19437" lon="2.30737">
        <ele>905</ele>
        <time>2018-11-26T10:55:40Z</time>
      </trkpt>
      <trkpt lat="42.19437" lon="2.30734">
        <ele>904.7</ele>
        <time>2018-11-26T10:55:41Z</time>
      </trkpt>
      <trkpt lat="42.19436" lon="2.30731">
        <ele>904</ele>
        <time>2018-11-26T10:55:42Z</time>
      </trkpt>
      <trkpt lat="42.19435" lon="2.30728">
        <ele>904</ele>
        <time>2018-11-26T10:55:43Z</time>
      </trkpt>
      <trkpt lat="42.19434" lon="2.30725">
        <ele>903.8</ele>
        <time>2018-11-26T10:55:44Z</time>
      </trkpt>
      <trkpt lat="42.19433" lon="2.30722">
        <ele>903.1</ele>
        <time>2018-11-26T10:55:45Z</time>
      </trkpt>
      <trkpt lat="42.19432" lon="2.30718">
        <ele>901.8</ele>
        <time>2018-11-26T10:55:46Z</time>
      </trkpt>
      <trkpt lat="42.19432" lon="2.30716">
        <ele>901</ele>
        <time>2018-11-26T10:55:47Z</time>
      </trkpt>
      <trkpt lat="42.19432" lon="2.30713">
        <ele>901</ele>
        <time>2018-11-26T10:55:48Z</time>
      </trkpt>
      <trkpt lat="42.19432" lon="2.3071">
        <ele>900.9</ele>
        <time>2018-11-26T10:55:48Z</time>
      </trkpt>
      <trkpt lat="42.19432" lon="2.30708">
        <ele>900.1</ele>
        <time>2018-11-26T10:55:49Z</time>
      </trkpt>
      <trkpt lat="42.19433" lon="2.30706">
        <ele>899.6</ele>
        <time>2018-11-26T10:55:50Z</time>
      </trkpt>
      <trkpt lat="42.19435" lon="2.30704">
        <ele>899</ele>
        <time>2018-11-26T10:55:51Z</time>
      </trkpt>
      <trkpt lat="42.19438" lon="2.30702">
        <ele>899</ele>
        <time>2018-11-26T10:55:52Z</time>
      </trkpt>
      <trkpt lat="42.1944" lon="2.30701">
        <ele>898.7</ele>
        <time>2018-11-26T10:55:53Z</time>
      </trkpt>
      <trkpt lat="42.19442" lon="2.307">
        <ele>898.1</ele>
        <time>2018-11-26T10:55:54Z</time>
      </trkpt>
      <trkpt lat="42.19444" lon="2.30699">
        <ele>898.1</ele>
        <time>2018-11-26T10:55:55Z</time>
      </trkpt>
      <trkpt lat="42.19446" lon="2.30698">
        <ele>898.1</ele>
        <time>2018-11-26T10:55:56Z</time>
      </trkpt>
      <trkpt lat="42.19449" lon="2.30697">
        <ele>898</ele>
        <time>2018-11-26T10:55:57Z</time>
      </trkpt>
      <trkpt lat="42.19452" lon="2.30696">
        <ele>897.1</ele>
        <time>2018-11-26T10:55:58Z</time>
      </trkpt>
      <trkpt lat="42.19454" lon="2.30696">
        <ele>897.1</ele>
        <time>2018-11-26T10:55:59Z</time>
      </trkpt>
      <trkpt lat="42.19457" lon="2.30695">
        <ele>896.9</ele>
        <time>2018-11-26T10:56:00Z</time>
      </trkpt>
      <trkpt lat="42.1946" lon="2.30694">
        <ele>896</ele>
        <time>2018-11-26T10:56:01Z</time>
      </trkpt>
      <trkpt lat="42.19461" lon="2.30694">
        <ele>896.1</ele>
        <time>2018-11-26T10:56:02Z</time>
      </trkpt>
      <trkpt lat="42.19463" lon="2.30693">
        <ele>896.1</ele>
        <time>2018-11-26T10:56:03Z</time>
      </trkpt>
      <trkpt lat="42.19466" lon="2.30691">
        <ele>896</ele>
        <time>2018-11-26T10:56:04Z</time>
      </trkpt>
      <trkpt lat="42.19469" lon="2.30688">
        <ele>896</ele>
        <time>2018-11-26T10:56:06Z</time>
      </trkpt>
      <trkpt lat="42.19471" lon="2.30686">
        <ele>896</ele>
        <time>2018-11-26T10:56:07Z</time>
      </trkpt>
      <trkpt lat="42.19473" lon="2.30682">
        <ele>896.1</ele>
        <time>2018-11-26T10:56:08Z</time>
      </trkpt>
      <trkpt lat="42.19474" lon="2.30678">
        <ele>895.1</ele>
        <time>2018-11-26T10:56:09Z</time>
      </trkpt>
      <trkpt lat="42.19475" lon="2.30675">
        <ele>895</ele>
        <time>2018-11-26T10:56:10Z</time>
      </trkpt>
      <trkpt lat="42.19475" lon="2.30671">
        <ele>895</ele>
        <time>2018-11-26T10:56:11Z</time>
      </trkpt>
      <trkpt lat="42.19472" lon="2.30669">
        <ele>895.1</ele>
        <time>2018-11-26T10:56:12Z</time>
      </trkpt>
      <trkpt lat="42.1947" lon="2.30669">
        <ele>894.9</ele>
        <time>2018-11-26T10:56:13Z</time>
      </trkpt>
      <trkpt lat="42.19468" lon="2.30669">
        <ele>894.1</ele>
        <time>2018-11-26T10:56:14Z</time>
      </trkpt>
      <trkpt lat="42.19466" lon="2.30666">
        <ele>893.7</ele>
        <time>2018-11-26T10:56:15Z</time>
      </trkpt>
      <trkpt lat="42.19465" lon="2.30664">
        <ele>893.1</ele>
        <time>2018-11-26T10:56:16Z</time>
      </trkpt>
      <trkpt lat="42.19463" lon="2.30661">
        <ele>893</ele>
        <time>2018-11-26T10:56:17Z</time>
      </trkpt>
      <trkpt lat="42.19461" lon="2.30658">
        <ele>892</ele>
        <time>2018-11-26T10:56:18Z</time>
      </trkpt>
      <trkpt lat="42.1946" lon="2.30655">
        <ele>892</ele>
        <time>2018-11-26T10:56:19Z</time>
      </trkpt>
      <trkpt lat="42.19459" lon="2.30651">
        <ele>892</ele>
        <time>2018-11-26T10:56:21Z</time>
      </trkpt>
      <trkpt lat="42.19458" lon="2.30649">
        <ele>892</ele>
        <time>2018-11-26T10:56:21Z</time>
      </trkpt>
      <trkpt lat="42.19457" lon="2.30646">
        <ele>892.1</ele>
        <time>2018-11-26T10:56:22Z</time>
      </trkpt>
      <trkpt lat="42.19456" lon="2.30644">
        <ele>892.1</ele>
        <time>2018-11-26T10:56:23Z</time>
      </trkpt>
      <trkpt lat="42.19455" lon="2.30642">
        <ele>892</ele>
        <time>2018-11-26T10:56:24Z</time>
      </trkpt>
      <trkpt lat="42.19454" lon="2.3064">
        <ele>892.1</ele>
        <time>2018-11-26T10:56:25Z</time>
      </trkpt>
      <trkpt lat="42.19452" lon="2.30636">
        <ele>893</ele>
        <time>2018-11-26T10:56:26Z</time>
      </trkpt>
      <trkpt lat="42.19452" lon="2.30631">
        <ele>893</ele>
        <time>2018-11-26T10:56:27Z</time>
      </trkpt>
      <trkpt lat="42.19452" lon="2.30628">
        <ele>893.1</ele>
        <time>2018-11-26T10:56:28Z</time>
      </trkpt>
      <trkpt lat="42.19452" lon="2.30624">
        <ele>893</ele>
        <time>2018-11-26T10:56:29Z</time>
      </trkpt>
      <trkpt lat="42.19452" lon="2.3062">
        <ele>892.7</ele>
        <time>2018-11-26T10:56:31Z</time>
      </trkpt>
      <trkpt lat="42.19453" lon="2.30616">
        <ele>892</ele>
        <time>2018-11-26T10:56:32Z</time>
      </trkpt>
      <trkpt lat="42.19453" lon="2.30613">
        <ele>892.1</ele>
        <time>2018-11-26T10:56:33Z</time>
      </trkpt>
      <trkpt lat="42.19453" lon="2.3061">
        <ele>891</ele>
        <time>2018-11-26T10:56:34Z</time>
      </trkpt>
      <trkpt lat="42.19453" lon="2.30607">
        <ele>891</ele>
        <time>2018-11-26T10:56:35Z</time>
      </trkpt>
      <trkpt lat="42.19454" lon="2.30604">
        <ele>891</ele>
        <time>2018-11-26T10:56:36Z</time>
      </trkpt>
      <trkpt lat="42.19454" lon="2.30601">
        <ele>891.1</ele>
        <time>2018-11-26T10:56:36Z</time>
      </trkpt>
      <trkpt lat="42.19455" lon="2.30598">
        <ele>891</ele>
        <time>2018-11-26T10:56:37Z</time>
      </trkpt>
      <trkpt lat="42.19455" lon="2.30595">
        <ele>890</ele>
        <time>2018-11-26T10:56:38Z</time>
      </trkpt>
      <trkpt lat="42.19457" lon="2.30593">
        <ele>890.2</ele>
        <time>2018-11-26T10:56:39Z</time>
      </trkpt>
      <trkpt lat="42.19458" lon="2.30589">
        <ele>891</ele>
        <time>2018-11-26T10:56:40Z</time>
      </trkpt>
      <trkpt lat="42.19459" lon="2.30587">
        <ele>890</ele>
        <time>2018-11-26T10:56:41Z</time>
      </trkpt>
      <trkpt lat="42.1946" lon="2.30585">
        <ele>890</ele>
        <time>2018-11-26T10:56:42Z</time>
      </trkpt>
      <trkpt lat="42.1946" lon="2.30581">
        <ele>890</ele>
        <time>2018-11-26T10:56:43Z</time>
      </trkpt>
      <trkpt lat="42.19461" lon="2.30579">
        <ele>890.1</ele>
        <time>2018-11-26T10:56:44Z</time>
      </trkpt>
      <trkpt lat="42.1946" lon="2.30576">
        <ele>890.1</ele>
        <time>2018-11-26T10:56:45Z</time>
      </trkpt>
      <trkpt lat="42.19461" lon="2.30573">
        <ele>891</ele>
        <time>2018-11-26T10:56:45Z</time>
      </trkpt>
      <trkpt lat="42.19462" lon="2.3057">
        <ele>891.1</ele>
        <time>2018-11-26T10:56:46Z</time>
      </trkpt>
      <trkpt lat="42.1946" lon="2.30569">
        <ele>891</ele>
        <time>2018-11-26T10:56:47Z</time>
      </trkpt>
      <trkpt lat="42.19458" lon="2.30568">
        <ele>891.1</ele>
        <time>2018-11-26T10:56:48Z</time>
      </trkpt>
      <trkpt lat="42.19456" lon="2.30568">
        <ele>891</ele>
        <time>2018-11-26T10:56:49Z</time>
      </trkpt>
      <trkpt lat="42.19454" lon="2.30567">
        <ele>891.1</ele>
        <time>2018-11-26T10:56:50Z</time>
      </trkpt>
      <trkpt lat="42.19451" lon="2.30566">
        <ele>890.1</ele>
        <time>2018-11-26T10:56:51Z</time>
      </trkpt>
      <trkpt lat="42.1945" lon="2.30565">
        <ele>890</ele>
        <time>2018-11-26T10:56:51Z</time>
      </trkpt>
      <trkpt lat="42.19448" lon="2.30563">
        <ele>890</ele>
        <time>2018-11-26T10:56:52Z</time>
      </trkpt>
      <trkpt lat="42.19447" lon="2.30561">
        <ele>890</ele>
        <time>2018-11-26T10:56:53Z</time>
      </trkpt>
      <trkpt lat="42.19445" lon="2.30558">
        <ele>890</ele>
        <time>2018-11-26T10:56:54Z</time>
      </trkpt>
      <trkpt lat="42.19444" lon="2.30555">
        <ele>890.1</ele>
        <time>2018-11-26T10:56:55Z</time>
      </trkpt>
      <trkpt lat="42.19443" lon="2.30552">
        <ele>890</ele>
        <time>2018-11-26T10:56:56Z</time>
      </trkpt>
      <trkpt lat="42.19442" lon="2.30549">
        <ele>890.1</ele>
        <time>2018-11-26T10:56:57Z</time>
      </trkpt>
      <trkpt lat="42.1944" lon="2.30545">
        <ele>890.1</ele>
        <time>2018-11-26T10:56:59Z</time>
      </trkpt>
      <trkpt lat="42.1944" lon="2.30542">
        <ele>890</ele>
        <time>2018-11-26T10:56:59Z</time>
      </trkpt>
      <trkpt lat="42.19439" lon="2.30539">
        <ele>890</ele>
        <time>2018-11-26T10:57:00Z</time>
      </trkpt>
      <trkpt lat="42.19438" lon="2.30535">
        <ele>889.1</ele>
        <time>2018-11-26T10:57:02Z</time>
      </trkpt>
      <trkpt lat="42.19438" lon="2.30531">
        <ele>888.1</ele>
        <time>2018-11-26T10:57:03Z</time>
      </trkpt>
      <trkpt lat="42.19437" lon="2.30527">
        <ele>887.1</ele>
        <time>2018-11-26T10:57:04Z</time>
      </trkpt>
      <trkpt lat="42.19436" lon="2.30525">
        <ele>889</ele>
        <time>2018-11-26T10:57:05Z</time>
      </trkpt>
      <trkpt lat="42.19434" lon="2.30521">
        <ele>889.1</ele>
        <time>2018-11-26T10:57:06Z</time>
      </trkpt>
      <trkpt lat="42.19432" lon="2.30518">
        <ele>889.1</ele>
        <time>2018-11-26T10:57:07Z</time>
      </trkpt>
      <trkpt lat="42.19432" lon="2.30516">
        <ele>889.1</ele>
        <time>2018-11-26T10:57:08Z</time>
      </trkpt>
      <trkpt lat="42.19431" lon="2.30513">
        <ele>889</ele>
        <time>2018-11-26T10:57:09Z</time>
      </trkpt>
      <trkpt lat="42.19429" lon="2.30511">
        <ele>889.1</ele>
        <time>2018-11-26T10:57:10Z</time>
      </trkpt>
      <trkpt lat="42.19428" lon="2.30508">
        <ele>889</ele>
        <time>2018-11-26T10:57:11Z</time>
      </trkpt>
      <trkpt lat="42.19428" lon="2.30505">
        <ele>889.1</ele>
        <time>2018-11-26T10:57:12Z</time>
      </trkpt>
      <trkpt lat="42.19427" lon="2.30503">
        <ele>888</ele>
        <time>2018-11-26T10:57:12Z</time>
      </trkpt>
      <trkpt lat="42.19428" lon="2.305">
        <ele>888</ele>
        <time>2018-11-26T10:57:13Z</time>
      </trkpt>
      <trkpt lat="42.19428" lon="2.30503">
        <ele>888.1</ele>
        <time>2018-11-26T10:57:14Z</time>
      </trkpt>
      <trkpt lat="42.19428" lon="2.30505">
        <ele>887</ele>
        <time>2018-11-26T10:57:15Z</time>
      </trkpt>
      <trkpt lat="42.19427" lon="2.30502">
        <ele>887</ele>
        <time>2018-11-26T10:57:16Z</time>
      </trkpt>
      <trkpt lat="42.19427" lon="2.30499">
        <ele>887</ele>
        <time>2018-11-26T10:57:17Z</time>
      </trkpt>
      <trkpt lat="42.19428" lon="2.30497">
        <ele>887.1</ele>
        <time>2018-11-26T10:57:18Z</time>
      </trkpt>
      <trkpt lat="42.19428" lon="2.30494">
        <ele>887.1</ele>
        <time>2018-11-26T10:57:18Z</time>
      </trkpt>
      <trkpt lat="42.19427" lon="2.30492">
        <ele>887.1</ele>
        <time>2018-11-26T10:57:19Z</time>
      </trkpt>
      <trkpt lat="42.19426" lon="2.30489">
        <ele>887.1</ele>
        <time>2018-11-26T10:57:20Z</time>
      </trkpt>
      <trkpt lat="42.19424" lon="2.30487">
        <ele>887</ele>
        <time>2018-11-26T10:57:21Z</time>
      </trkpt>
      <trkpt lat="42.19423" lon="2.30485">
        <ele>887</ele>
        <time>2018-11-26T10:57:22Z</time>
      </trkpt>
      <trkpt lat="42.19422" lon="2.30483">
        <ele>887</ele>
        <time>2018-11-26T10:57:22Z</time>
      </trkpt>
      <trkpt lat="42.19421" lon="2.3048">
        <ele>887.1</ele>
        <time>2018-11-26T10:57:24Z</time>
      </trkpt>
      <trkpt lat="42.19419" lon="2.30477">
        <ele>888</ele>
        <time>2018-11-26T10:57:25Z</time>
      </trkpt>
      <trkpt lat="42.19417" lon="2.30477">
        <ele>888</ele>
        <time>2018-11-26T10:57:26Z</time>
      </trkpt>
      <trkpt lat="42.19415" lon="2.30475">
        <ele>886.7</ele>
        <time>2018-11-26T10:57:27Z</time>
      </trkpt>
      <trkpt lat="42.19415" lon="2.30472">
        <ele>886.2</ele>
        <time>2018-11-26T10:57:27Z</time>
      </trkpt>
      <trkpt lat="42.19413" lon="2.30468">
        <ele>887.1</ele>
        <time>2018-11-26T10:57:29Z</time>
      </trkpt>
      <trkpt lat="42.19411" lon="2.30465">
        <ele>887</ele>
        <time>2018-11-26T10:57:30Z</time>
      </trkpt>
      <trkpt lat="42.19409" lon="2.30462">
        <ele>887.1</ele>
        <time>2018-11-26T10:57:31Z</time>
      </trkpt>
      <trkpt lat="42.19408" lon="2.3046">
        <ele>887.1</ele>
        <time>2018-11-26T10:57:32Z</time>
      </trkpt>
      <trkpt lat="42.19406" lon="2.30457">
        <ele>887.1</ele>
        <time>2018-11-26T10:57:33Z</time>
      </trkpt>
      <trkpt lat="42.19405" lon="2.30453">
        <ele>887</ele>
        <time>2018-11-26T10:57:34Z</time>
      </trkpt>
      <trkpt lat="42.19403" lon="2.3045">
        <ele>887.1</ele>
        <time>2018-11-26T10:57:35Z</time>
      </trkpt>
      <trkpt lat="42.19402" lon="2.30448">
        <ele>887</ele>
        <time>2018-11-26T10:57:36Z</time>
      </trkpt>
      <trkpt lat="42.19401" lon="2.30446">
        <ele>887.1</ele>
        <time>2018-11-26T10:57:37Z</time>
      </trkpt>
      <trkpt lat="42.194" lon="2.30444">
        <ele>887</ele>
        <time>2018-11-26T10:57:38Z</time>
      </trkpt>
      <trkpt lat="42.19398" lon="2.3044">
        <ele>886.1</ele>
        <time>2018-11-26T10:57:39Z</time>
      </trkpt>
      <trkpt lat="42.19396" lon="2.30437">
        <ele>888</ele>
        <time>2018-11-26T10:57:40Z</time>
      </trkpt>
      <trkpt lat="42.19394" lon="2.30434">
        <ele>888.3</ele>
        <time>2018-11-26T10:57:41Z</time>
      </trkpt>
      <trkpt lat="42.19392" lon="2.30431">
        <ele>888</ele>
        <time>2018-11-26T10:57:43Z</time>
      </trkpt>
      <trkpt lat="42.19391" lon="2.30427">
        <ele>888</ele>
        <time>2018-11-26T10:57:44Z</time>
      </trkpt>
      <trkpt lat="42.19389" lon="2.30423">
        <ele>888</ele>
        <time>2018-11-26T10:57:45Z</time>
      </trkpt>
      <trkpt lat="42.19387" lon="2.3042">
        <ele>887.1</ele>
        <time>2018-11-26T10:57:46Z</time>
      </trkpt>
      <trkpt lat="42.19386" lon="2.30418">
        <ele>887.1</ele>
        <time>2018-11-26T10:57:47Z</time>
      </trkpt>
      <trkpt lat="42.19386" lon="2.30416">
        <ele>888</ele>
        <time>2018-11-26T10:57:48Z</time>
      </trkpt>
      <trkpt lat="42.19388" lon="2.30417">
        <ele>888.1</ele>
        <time>2018-11-26T10:57:49Z</time>
      </trkpt>
      <trkpt lat="42.19387" lon="2.30415">
        <ele>888</ele>
        <time>2018-11-26T10:57:49Z</time>
      </trkpt>
      <trkpt lat="42.19386" lon="2.30418">
        <ele>888</ele>
        <time>2018-11-26T10:57:50Z</time>
      </trkpt>
      <trkpt lat="42.19385" lon="2.30416">
        <ele>887</ele>
        <time>2018-11-26T10:57:51Z</time>
      </trkpt>
      <trkpt lat="42.19384" lon="2.30414">
        <ele>887.1</ele>
        <time>2018-11-26T10:57:52Z</time>
      </trkpt>
      <trkpt lat="42.19382" lon="2.30411">
        <ele>887</ele>
        <time>2018-11-26T10:57:53Z</time>
      </trkpt>
      <trkpt lat="42.1938" lon="2.30409">
        <ele>887.2</ele>
        <time>2018-11-26T10:57:54Z</time>
      </trkpt>
      <trkpt lat="42.19378" lon="2.30407">
        <ele>888</ele>
        <time>2018-11-26T10:57:55Z</time>
      </trkpt>
      <trkpt lat="42.19376" lon="2.30406">
        <ele>889</ele>
        <time>2018-11-26T10:57:56Z</time>
      </trkpt>
      <trkpt lat="42.19374" lon="2.30404">
        <ele>890</ele>
        <time>2018-11-26T10:57:56Z</time>
      </trkpt>
      <trkpt lat="42.19373" lon="2.30402">
        <ele>890</ele>
        <time>2018-11-26T10:57:57Z</time>
      </trkpt>
      <trkpt lat="42.19372" lon="2.304">
        <ele>890.1</ele>
        <time>2018-11-26T10:57:58Z</time>
      </trkpt>
      <trkpt lat="42.19371" lon="2.30398">
        <ele>890</ele>
        <time>2018-11-26T10:57:59Z</time>
      </trkpt>
      <trkpt lat="42.1937" lon="2.30395">
        <ele>890.1</ele>
        <time>2018-11-26T10:58:00Z</time>
      </trkpt>
      <trkpt lat="42.19369" lon="2.30393">
        <ele>889.8</ele>
        <time>2018-11-26T10:58:00Z</time>
      </trkpt>
      <trkpt lat="42.19367" lon="2.30391">
        <ele>890</ele>
        <time>2018-11-26T10:58:01Z</time>
      </trkpt>
      <trkpt lat="42.19365" lon="2.3039">
        <ele>890</ele>
        <time>2018-11-26T10:58:02Z</time>
      </trkpt>
      <trkpt lat="42.19364" lon="2.30387">
        <ele>891.1</ele>
        <time>2018-11-26T10:58:03Z</time>
      </trkpt>
      <trkpt lat="42.19363" lon="2.30384">
        <ele>891.1</ele>
        <time>2018-11-26T10:58:04Z</time>
      </trkpt>
      <trkpt lat="42.19362" lon="2.30381">
        <ele>892.1</ele>
        <time>2018-11-26T10:58:05Z</time>
      </trkpt>
      <trkpt lat="42.19362" lon="2.30378">
        <ele>892.1</ele>
        <time>2018-11-26T10:58:06Z</time>
      </trkpt>
      <trkpt lat="42.19361" lon="2.30375">
        <ele>893</ele>
        <time>2018-11-26T10:58:07Z</time>
      </trkpt>
      <trkpt lat="42.19361" lon="2.30371">
        <ele>892.6</ele>
        <time>2018-11-26T10:58:08Z</time>
      </trkpt>
      <trkpt lat="42.19361" lon="2.30369">
        <ele>892.1</ele>
        <time>2018-11-26T10:58:09Z</time>
      </trkpt>
      <trkpt lat="42.19361" lon="2.30366">
        <ele>893</ele>
        <time>2018-11-26T10:58:10Z</time>
      </trkpt>
      <trkpt lat="42.19361" lon="2.30363">
        <ele>893.1</ele>
        <time>2018-11-26T10:58:10Z</time>
      </trkpt>
      <trkpt lat="42.1936" lon="2.3036">
        <ele>893</ele>
        <time>2018-11-26T10:58:11Z</time>
      </trkpt>
      <trkpt lat="42.1936" lon="2.30357">
        <ele>891.1</ele>
        <time>2018-11-26T10:58:12Z</time>
      </trkpt>
      <trkpt lat="42.19361" lon="2.30355">
        <ele>892</ele>
        <time>2018-11-26T10:58:13Z</time>
      </trkpt>
      <trkpt lat="42.19361" lon="2.30352">
        <ele>892.2</ele>
        <time>2018-11-26T10:58:14Z</time>
      </trkpt>
      <trkpt lat="42.19361" lon="2.30349">
        <ele>894.2</ele>
        <time>2018-11-26T10:58:15Z</time>
      </trkpt>
      <trkpt lat="42.19363" lon="2.30346">
        <ele>895</ele>
        <time>2018-11-26T10:58:16Z</time>
      </trkpt>
      <trkpt lat="42.19366" lon="2.30345">
        <ele>895.1</ele>
        <time>2018-11-26T10:58:17Z</time>
      </trkpt>
      <trkpt lat="42.19369" lon="2.30343">
        <ele>895</ele>
        <time>2018-11-26T10:58:19Z</time>
      </trkpt>
      <trkpt lat="42.19372" lon="2.30342">
        <ele>895.2</ele>
        <time>2018-11-26T10:58:20Z</time>
      </trkpt>
      <trkpt lat="42.19374" lon="2.30342">
        <ele>897</ele>
        <time>2018-11-26T10:58:21Z</time>
      </trkpt>
      <trkpt lat="42.19378" lon="2.30343">
        <ele>898</ele>
        <time>2018-11-26T10:58:22Z</time>
      </trkpt>
      <trkpt lat="42.19381" lon="2.30343">
        <ele>898</ele>
        <time>2018-11-26T10:58:24Z</time>
      </trkpt>
      <trkpt lat="42.19385" lon="2.30344">
        <ele>899</ele>
        <time>2018-11-26T10:58:25Z</time>
      </trkpt>
      <trkpt lat="42.19387" lon="2.30344">
        <ele>899</ele>
        <time>2018-11-26T10:58:26Z</time>
      </trkpt>
      <trkpt lat="42.1939" lon="2.30344">
        <ele>899</ele>
        <time>2018-11-26T10:58:27Z</time>
      </trkpt>
      <trkpt lat="42.19395" lon="2.30347">
        <ele>899.1</ele>
        <time>2018-11-26T10:58:29Z</time>
      </trkpt>
      <trkpt lat="42.19397" lon="2.30347">
        <ele>899</ele>
        <time>2018-11-26T10:58:30Z</time>
      </trkpt>
      <trkpt lat="42.19399" lon="2.30348">
        <ele>899.4</ele>
        <time>2018-11-26T10:58:31Z</time>
      </trkpt>
      <trkpt lat="42.19401" lon="2.3035">
        <ele>900.2</ele>
        <time>2018-11-26T10:58:32Z</time>
      </trkpt>
      <trkpt lat="42.19403" lon="2.30351">
        <ele>901.1</ele>
        <time>2018-11-26T10:58:33Z</time>
      </trkpt>
      <trkpt lat="42.19405" lon="2.30352">
        <ele>901</ele>
        <time>2018-11-26T10:58:34Z</time>
      </trkpt>
      <trkpt lat="42.19407" lon="2.30352">
        <ele>901.1</ele>
        <time>2018-11-26T10:58:35Z</time>
      </trkpt>
      <trkpt lat="42.19409" lon="2.30352">
        <ele>902</ele>
        <time>2018-11-26T10:58:35Z</time>
      </trkpt>
      <trkpt lat="42.19413" lon="2.30352">
        <ele>903</ele>
        <time>2018-11-26T10:58:37Z</time>
      </trkpt>
      <trkpt lat="42.19415" lon="2.30354">
        <ele>903</ele>
        <time>2018-11-26T10:58:38Z</time>
      </trkpt>
      <trkpt lat="42.19417" lon="2.30358">
        <ele>903</ele>
        <time>2018-11-26T10:58:39Z</time>
      </trkpt>
      <trkpt lat="42.19419" lon="2.30361">
        <ele>904.3</ele>
        <time>2018-11-26T10:58:40Z</time>
      </trkpt>
      <trkpt lat="42.19421" lon="2.30363">
        <ele>905.1</ele>
        <time>2018-11-26T10:58:42Z</time>
      </trkpt>
      <trkpt lat="42.19423" lon="2.30365">
        <ele>906.1</ele>
        <time>2018-11-26T10:58:42Z</time>
      </trkpt>
      <trkpt lat="42.19425" lon="2.30367">
        <ele>906</ele>
        <time>2018-11-26T10:58:44Z</time>
      </trkpt>
      <trkpt lat="42.19427" lon="2.3037">
        <ele>906.2</ele>
        <time>2018-11-26T10:58:45Z</time>
      </trkpt>
      <trkpt lat="42.19429" lon="2.30372">
        <ele>908.1</ele>
        <time>2018-11-26T10:58:46Z</time>
      </trkpt>
      <trkpt lat="42.19431" lon="2.30373">
        <ele>908.1</ele>
        <time>2018-11-26T10:58:47Z</time>
      </trkpt>
      <trkpt lat="42.19432" lon="2.30376">
        <ele>908.1</ele>
        <time>2018-11-26T10:58:47Z</time>
      </trkpt>
      <trkpt lat="42.19434" lon="2.30378">
        <ele>908.1</ele>
        <time>2018-11-26T10:58:48Z</time>
      </trkpt>
      <trkpt lat="42.19435" lon="2.3038">
        <ele>910.1</ele>
        <time>2018-11-26T10:58:49Z</time>
      </trkpt>
      <trkpt lat="42.19437" lon="2.30382">
        <ele>910.5</ele>
        <time>2018-11-26T10:58:50Z</time>
      </trkpt>
      <trkpt lat="42.1944" lon="2.30382">
        <ele>911</ele>
        <time>2018-11-26T10:58:51Z</time>
      </trkpt>
      <trkpt lat="42.19441" lon="2.3038">
        <ele>912</ele>
        <time>2018-11-26T10:58:52Z</time>
      </trkpt>
      <trkpt lat="42.19442" lon="2.30377">
        <ele>912.1</ele>
        <time>2018-11-26T10:58:53Z</time>
      </trkpt>
      <trkpt lat="42.19441" lon="2.30374">
        <ele>912.2</ele>
        <time>2018-11-26T10:58:54Z</time>
      </trkpt>
      <trkpt lat="42.1944" lon="2.30371">
        <ele>913.1</ele>
        <time>2018-11-26T10:58:55Z</time>
      </trkpt>
      <trkpt lat="42.1944" lon="2.30366">
        <ele>914</ele>
        <time>2018-11-26T10:58:57Z</time>
      </trkpt>
      <trkpt lat="42.1944" lon="2.30364">
        <ele>914</ele>
        <time>2018-11-26T10:58:57Z</time>
      </trkpt>
      <trkpt lat="42.19439" lon="2.30359">
        <ele>914.2</ele>
        <time>2018-11-26T10:58:59Z</time>
      </trkpt>
      <trkpt lat="42.19438" lon="2.30357">
        <ele>915.3</ele>
        <time>2018-11-26T10:58:59Z</time>
      </trkpt>
      <trkpt lat="42.19438" lon="2.30354">
        <ele>916</ele>
        <time>2018-11-26T10:59:00Z</time>
      </trkpt>
      <trkpt lat="42.19436" lon="2.30348">
        <ele>916</ele>
        <time>2018-11-26T10:59:02Z</time>
      </trkpt>
      <trkpt lat="42.19436" lon="2.30345">
        <ele>916.1</ele>
        <time>2018-11-26T10:59:03Z</time>
      </trkpt>
      <trkpt lat="42.19436" lon="2.30342">
        <ele>917</ele>
        <time>2018-11-26T10:59:04Z</time>
      </trkpt>
      <trkpt lat="42.19436" lon="2.30338">
        <ele>917</ele>
        <time>2018-11-26T10:59:05Z</time>
      </trkpt>
      <trkpt lat="42.19436" lon="2.30334">
        <ele>917</ele>
        <time>2018-11-26T10:59:06Z</time>
      </trkpt>
      <trkpt lat="42.19436" lon="2.3033">
        <ele>918.2</ele>
        <time>2018-11-26T10:59:08Z</time>
      </trkpt>
      <trkpt lat="42.19435" lon="2.30325">
        <ele>920.2</ele>
        <time>2018-11-26T10:59:09Z</time>
      </trkpt>
      <trkpt lat="42.19435" lon="2.30323">
        <ele>921</ele>
        <time>2018-11-26T10:59:10Z</time>
      </trkpt>
      <trkpt lat="42.19436" lon="2.30318">
        <ele>921.1</ele>
        <time>2018-11-26T10:59:11Z</time>
      </trkpt>
      <trkpt lat="42.19438" lon="2.30318">
        <ele>922.1</ele>
        <time>2018-11-26T10:59:12Z</time>
      </trkpt>
      <trkpt lat="42.1944" lon="2.3032">
        <ele>922.3</ele>
        <time>2018-11-26T10:59:13Z</time>
      </trkpt>
      <trkpt lat="42.19442" lon="2.30323">
        <ele>923</ele>
        <time>2018-11-26T10:59:14Z</time>
      </trkpt>
      <trkpt lat="42.19444" lon="2.30325">
        <ele>923.1</ele>
        <time>2018-11-26T10:59:15Z</time>
      </trkpt>
      <trkpt lat="42.19446" lon="2.30328">
        <ele>924</ele>
        <time>2018-11-26T10:59:16Z</time>
      </trkpt>
      <trkpt lat="42.19448" lon="2.3033">
        <ele>925.1</ele>
        <time>2018-11-26T10:59:17Z</time>
      </trkpt>
      <trkpt lat="42.1945" lon="2.30333">
        <ele>926</ele>
        <time>2018-11-26T10:59:18Z</time>
      </trkpt>
      <trkpt lat="42.19452" lon="2.30336">
        <ele>926</ele>
        <time>2018-11-26T10:59:20Z</time>
      </trkpt>
      <trkpt lat="42.19453" lon="2.30339">
        <ele>926.1</ele>
        <time>2018-11-26T10:59:21Z</time>
      </trkpt>
      <trkpt lat="42.19455" lon="2.30341">
        <ele>927.2</ele>
        <time>2018-11-26T10:59:22Z</time>
      </trkpt>
      <trkpt lat="42.19457" lon="2.30344">
        <ele>928.3</ele>
        <time>2018-11-26T10:59:23Z</time>
      </trkpt>
      <trkpt lat="42.19459" lon="2.30347">
        <ele>930</ele>
        <time>2018-11-26T10:59:24Z</time>
      </trkpt>
      <trkpt lat="42.19461" lon="2.30351">
        <ele>930</ele>
        <time>2018-11-26T10:59:25Z</time>
      </trkpt>
      <trkpt lat="42.19463" lon="2.30353">
        <ele>930.1</ele>
        <time>2018-11-26T10:59:26Z</time>
      </trkpt>
      <trkpt lat="42.19464" lon="2.30356">
        <ele>931.2</ele>
        <time>2018-11-26T10:59:27Z</time>
      </trkpt>
      <trkpt lat="42.19465" lon="2.30359">
        <ele>932.1</ele>
        <time>2018-11-26T10:59:28Z</time>
      </trkpt>
      <trkpt lat="42.19467" lon="2.3036">
        <ele>931</ele>
        <time>2018-11-26T10:59:29Z</time>
      </trkpt>
      <trkpt lat="42.19468" lon="2.30363">
        <ele>933</ele>
        <time>2018-11-26T10:59:30Z</time>
      </trkpt>
      <trkpt lat="42.1947" lon="2.30364">
        <ele>933.3</ele>
        <time>2018-11-26T10:59:31Z</time>
      </trkpt>
      <trkpt lat="42.19471" lon="2.30366">
        <ele>934.1</ele>
        <time>2018-11-26T10:59:31Z</time>
      </trkpt>
      <trkpt lat="42.19472" lon="2.30369">
        <ele>934.1</ele>
        <time>2018-11-26T10:59:32Z</time>
      </trkpt>
      <trkpt lat="42.19473" lon="2.30371">
        <ele>936.1</ele>
        <time>2018-11-26T10:59:33Z</time>
      </trkpt>
      <trkpt lat="42.19474" lon="2.30372">
        <ele>937</ele>
        <time>2018-11-26T10:59:34Z</time>
      </trkpt>
      <trkpt lat="42.19476" lon="2.30374">
        <ele>938</ele>
        <time>2018-11-26T10:59:35Z</time>
      </trkpt>
      <trkpt lat="42.19478" lon="2.30375">
        <ele>938</ele>
        <time>2018-11-26T10:59:36Z</time>
      </trkpt>
      <trkpt lat="42.1948" lon="2.30376">
        <ele>938</ele>
        <time>2018-11-26T10:59:37Z</time>
      </trkpt>
      <trkpt lat="42.19481" lon="2.30373">
        <ele>938.1</ele>
        <time>2018-11-26T10:59:37Z</time>
      </trkpt>
      <trkpt lat="42.19482" lon="2.3037">
        <ele>938</ele>
        <time>2018-11-26T10:59:38Z</time>
      </trkpt>
      <trkpt lat="42.19483" lon="2.30367">
        <ele>938.1</ele>
        <time>2018-11-26T10:59:39Z</time>
      </trkpt>
      <trkpt lat="42.19485" lon="2.30364">
        <ele>939</ele>
        <time>2018-11-26T10:59:41Z</time>
      </trkpt>
      <trkpt lat="42.19488" lon="2.30363">
        <ele>939.1</ele>
        <time>2018-11-26T10:59:42Z</time>
      </trkpt>
      <trkpt lat="42.19491" lon="2.30363">
        <ele>939.4</ele>
        <time>2018-11-26T10:59:43Z</time>
      </trkpt>
      <trkpt lat="42.19493" lon="2.30363">
        <ele>940.1</ele>
        <time>2018-11-26T10:59:44Z</time>
      </trkpt>
      <trkpt lat="42.19495" lon="2.30364">
        <ele>940</ele>
        <time>2018-11-26T10:59:44Z</time>
      </trkpt>
      <trkpt lat="42.19498" lon="2.30365">
        <ele>940.1</ele>
        <time>2018-11-26T10:59:46Z</time>
      </trkpt>
      <trkpt lat="42.195" lon="2.30365">
        <ele>940</ele>
        <time>2018-11-26T10:59:47Z</time>
      </trkpt>
      <trkpt lat="42.19502" lon="2.30365">
        <ele>940.1</ele>
        <time>2018-11-26T10:59:47Z</time>
      </trkpt>
      <trkpt lat="42.19504" lon="2.30366">
        <ele>940.1</ele>
        <time>2018-11-26T10:59:48Z</time>
      </trkpt>
      <trkpt lat="42.19506" lon="2.30366">
        <ele>941.2</ele>
        <time>2018-11-26T10:59:49Z</time>
      </trkpt>
      <trkpt lat="42.19508" lon="2.30366">
        <ele>942</ele>
        <time>2018-11-26T10:59:50Z</time>
      </trkpt>
      <trkpt lat="42.19511" lon="2.30367">
        <ele>942</ele>
        <time>2018-11-26T10:59:51Z</time>
      </trkpt>
      <trkpt lat="42.19514" lon="2.30368">
        <ele>943</ele>
        <time>2018-11-26T10:59:52Z</time>
      </trkpt>
      <trkpt lat="42.19517" lon="2.30369">
        <ele>943</ele>
        <time>2018-11-26T10:59:53Z</time>
      </trkpt>
      <trkpt lat="42.1952" lon="2.30369">
        <ele>943</ele>
        <time>2018-11-26T10:59:55Z</time>
      </trkpt>
      <trkpt lat="42.19523" lon="2.3037">
        <ele>943.1</ele>
        <time>2018-11-26T10:59:56Z</time>
      </trkpt>
      <trkpt lat="42.19526" lon="2.30369">
        <ele>944</ele>
        <time>2018-11-26T10:59:57Z</time>
      </trkpt>
      <trkpt lat="42.19529" lon="2.30368">
        <ele>944</ele>
        <time>2018-11-26T10:59:58Z</time>
      </trkpt>
      <trkpt lat="42.19531" lon="2.30367">
        <ele>944.1</ele>
        <time>2018-11-26T10:59:59Z</time>
      </trkpt>
      <trkpt lat="42.19533" lon="2.30366">
        <ele>944.1</ele>
        <time>2018-11-26T11:00:00Z</time>
      </trkpt>
      <trkpt lat="42.19534" lon="2.30365">
        <ele>944.1</ele>
        <time>2018-11-26T11:00:01Z</time>
      </trkpt>
      <trkpt lat="42.19537" lon="2.30363">
        <ele>945</ele>
        <time>2018-11-26T11:00:02Z</time>
      </trkpt>
      <trkpt lat="42.1954" lon="2.3036">
        <ele>945</ele>
        <time>2018-11-26T11:00:03Z</time>
      </trkpt>
      <trkpt lat="42.19543" lon="2.30358">
        <ele>945</ele>
        <time>2018-11-26T11:00:05Z</time>
      </trkpt>
      <trkpt lat="42.19545" lon="2.30356">
        <ele>947</ele>
        <time>2018-11-26T11:00:06Z</time>
      </trkpt>
      <trkpt lat="42.19549" lon="2.30354">
        <ele>947</ele>
        <time>2018-11-26T11:00:07Z</time>
      </trkpt>
      <trkpt lat="42.1955" lon="2.30353">
        <ele>947.1</ele>
        <time>2018-11-26T11:00:08Z</time>
      </trkpt>
      <trkpt lat="42.19553" lon="2.3035">
        <ele>947.1</ele>
        <time>2018-11-26T11:00:09Z</time>
      </trkpt>
      <trkpt lat="42.19556" lon="2.30348">
        <ele>947.1</ele>
        <time>2018-11-26T11:00:11Z</time>
      </trkpt>
      <trkpt lat="42.19559" lon="2.30347">
        <ele>947.2</ele>
        <time>2018-11-26T11:00:12Z</time>
      </trkpt>
      <trkpt lat="42.19561" lon="2.30345">
        <ele>948</ele>
        <time>2018-11-26T11:00:13Z</time>
      </trkpt>
      <trkpt lat="42.19564" lon="2.30342">
        <ele>948.1</ele>
        <time>2018-11-26T11:00:14Z</time>
      </trkpt>
      <trkpt lat="42.19566" lon="2.3034">
        <ele>949.1</ele>
        <time>2018-11-26T11:00:16Z</time>
      </trkpt>
      <trkpt lat="42.19568" lon="2.30338">
        <ele>949.2</ele>
        <time>2018-11-26T11:00:16Z</time>
      </trkpt>
      <trkpt lat="42.1957" lon="2.30337">
        <ele>951</ele>
        <time>2018-11-26T11:00:17Z</time>
      </trkpt>
      <trkpt lat="42.19572" lon="2.30336">
        <ele>951.2</ele>
        <time>2018-11-26T11:00:18Z</time>
      </trkpt>
      <trkpt lat="42.19574" lon="2.30335">
        <ele>952</ele>
        <time>2018-11-26T11:00:19Z</time>
      </trkpt>
      <trkpt lat="42.19576" lon="2.30334">
        <ele>952.1</ele>
        <time>2018-11-26T11:00:20Z</time>
      </trkpt>
      <trkpt lat="42.19578" lon="2.30333">
        <ele>952.1</ele>
        <time>2018-11-26T11:00:21Z</time>
      </trkpt>
      <trkpt lat="42.19579" lon="2.3033">
        <ele>953</ele>
        <time>2018-11-26T11:00:22Z</time>
      </trkpt>
      <trkpt lat="42.19578" lon="2.30327">
        <ele>954.2</ele>
        <time>2018-11-26T11:00:23Z</time>
      </trkpt>
      <trkpt lat="42.1958" lon="2.30324">
        <ele>955.1</ele>
        <time>2018-11-26T11:00:24Z</time>
      </trkpt>
      <trkpt lat="42.19581" lon="2.30322">
        <ele>955.2</ele>
        <time>2018-11-26T11:00:24Z</time>
      </trkpt>
      <trkpt lat="42.19582" lon="2.3032">
        <ele>957.1</ele>
        <time>2018-11-26T11:00:25Z</time>
      </trkpt>
      <trkpt lat="42.19583" lon="2.30317">
        <ele>957.1</ele>
        <time>2018-11-26T11:00:26Z</time>
      </trkpt>
      <trkpt lat="42.19584" lon="2.30315">
        <ele>957</ele>
        <time>2018-11-26T11:00:27Z</time>
      </trkpt>
      <trkpt lat="42.19585" lon="2.30312">
        <ele>957.1</ele>
        <time>2018-11-26T11:00:28Z</time>
      </trkpt>
      <trkpt lat="42.19585" lon="2.3031">
        <ele>957</ele>
        <time>2018-11-26T11:00:29Z</time>
      </trkpt>
      <trkpt lat="42.19587" lon="2.30311">
        <ele>957</ele>
        <time>2018-11-26T11:00:29Z</time>
      </trkpt>
      <trkpt lat="42.19589" lon="2.30312">
        <ele>957</ele>
        <time>2018-11-26T11:00:30Z</time>
      </trkpt>
      <trkpt lat="42.19591" lon="2.30314">
        <ele>956</ele>
        <time>2018-11-26T11:00:31Z</time>
      </trkpt>
      <trkpt lat="42.19593" lon="2.30315">
        <ele>956</ele>
        <time>2018-11-26T11:00:32Z</time>
      </trkpt>
      <trkpt lat="42.19595" lon="2.30317">
        <ele>956.1</ele>
        <time>2018-11-26T11:00:33Z</time>
      </trkpt>
      <trkpt lat="42.19598" lon="2.30318">
        <ele>955.1</ele>
        <time>2018-11-26T11:00:34Z</time>
      </trkpt>
      <trkpt lat="42.196" lon="2.30319">
        <ele>955</ele>
        <time>2018-11-26T11:00:35Z</time>
      </trkpt>
      <trkpt lat="42.19602" lon="2.3032">
        <ele>955</ele>
        <time>2018-11-26T11:00:36Z</time>
      </trkpt>
      <trkpt lat="42.19605" lon="2.30321">
        <ele>955.1</ele>
        <time>2018-11-26T11:00:37Z</time>
      </trkpt>
      <trkpt lat="42.19607" lon="2.30321">
        <ele>955</ele>
        <time>2018-11-26T11:00:38Z</time>
      </trkpt>
      <trkpt lat="42.1961" lon="2.30321">
        <ele>955.1</ele>
        <time>2018-11-26T11:00:39Z</time>
      </trkpt>
      <trkpt lat="42.19613" lon="2.30319">
        <ele>955</ele>
        <time>2018-11-26T11:00:40Z</time>
      </trkpt>
      <trkpt lat="42.19615" lon="2.30318">
        <ele>955</ele>
        <time>2018-11-26T11:00:41Z</time>
      </trkpt>
      <trkpt lat="42.19618" lon="2.30319">
        <ele>955.1</ele>
        <time>2018-11-26T11:00:42Z</time>
      </trkpt>
      <trkpt lat="42.19621" lon="2.30319">
        <ele>955.1</ele>
        <time>2018-11-26T11:00:44Z</time>
      </trkpt>
      <trkpt lat="42.19623" lon="2.30316">
        <ele>955.1</ele>
        <time>2018-11-26T11:00:45Z</time>
      </trkpt>
      <trkpt lat="42.19625" lon="2.30314">
        <ele>954.8</ele>
        <time>2018-11-26T11:00:46Z</time>
      </trkpt>
      <trkpt lat="42.19627" lon="2.30313">
        <ele>954.1</ele>
        <time>2018-11-26T11:00:47Z</time>
      </trkpt>
      <trkpt lat="42.1963" lon="2.30311">
        <ele>954</ele>
        <time>2018-11-26T11:00:48Z</time>
      </trkpt>
      <trkpt lat="42.19632" lon="2.3031">
        <ele>954</ele>
        <time>2018-11-26T11:00:49Z</time>
      </trkpt>
      <trkpt lat="42.19634" lon="2.30308">
        <ele>953.9</ele>
        <time>2018-11-26T11:00:50Z</time>
      </trkpt>
      <trkpt lat="42.19637" lon="2.30306">
        <ele>953</ele>
        <time>2018-11-26T11:00:51Z</time>
      </trkpt>
      <trkpt lat="42.19639" lon="2.30305">
        <ele>952.1</ele>
        <time>2018-11-26T11:00:52Z</time>
      </trkpt>
      <trkpt lat="42.19642" lon="2.30303">
        <ele>952</ele>
        <time>2018-11-26T11:00:53Z</time>
      </trkpt>
      <trkpt lat="42.19644" lon="2.30302">
        <ele>952</ele>
        <time>2018-11-26T11:00:54Z</time>
      </trkpt>
      <trkpt lat="42.19647" lon="2.303">
        <ele>952.1</ele>
        <time>2018-11-26T11:00:55Z</time>
      </trkpt>
      <trkpt lat="42.19649" lon="2.30299">
        <ele>952.1</ele>
        <time>2018-11-26T11:00:56Z</time>
      </trkpt>
      <trkpt lat="42.19651" lon="2.30298">
        <ele>952.1</ele>
        <time>2018-11-26T11:00:57Z</time>
      </trkpt>
      <trkpt lat="42.19654" lon="2.30298">
        <ele>952.1</ele>
        <time>2018-11-26T11:00:58Z</time>
      </trkpt>
      <trkpt lat="42.19656" lon="2.30297">
        <ele>952</ele>
        <time>2018-11-26T11:00:59Z</time>
      </trkpt>
      <trkpt lat="42.19659" lon="2.30297">
        <ele>951.8</ele>
        <time>2018-11-26T11:01:00Z</time>
      </trkpt>
      <trkpt lat="42.19662" lon="2.30297">
        <ele>951</ele>
        <time>2018-11-26T11:01:01Z</time>
      </trkpt>
      <trkpt lat="42.19664" lon="2.30296">
        <ele>951</ele>
        <time>2018-11-26T11:01:03Z</time>
      </trkpt>
      <trkpt lat="42.19667" lon="2.30296">
        <ele>950.8</ele>
        <time>2018-11-26T11:01:04Z</time>
      </trkpt>
      <trkpt lat="42.1967" lon="2.30296">
        <ele>950</ele>
        <time>2018-11-26T11:01:05Z</time>
      </trkpt>
      <trkpt lat="42.19672" lon="2.30295">
        <ele>949</ele>
        <time>2018-11-26T11:01:06Z</time>
      </trkpt>
      <trkpt lat="42.19675" lon="2.30295">
        <ele>949</ele>
        <time>2018-11-26T11:01:07Z</time>
      </trkpt>
      <trkpt lat="42.19677" lon="2.30296">
        <ele>949.1</ele>
        <time>2018-11-26T11:01:08Z</time>
      </trkpt>
      <trkpt lat="42.19677" lon="2.30299">
        <ele>949.1</ele>
        <time>2018-11-26T11:01:09Z</time>
      </trkpt>
      <trkpt lat="42.19676" lon="2.30302">
        <ele>948.1</ele>
        <time>2018-11-26T11:01:10Z</time>
      </trkpt>
      <trkpt lat="42.19674" lon="2.30305">
        <ele>948.1</ele>
        <time>2018-11-26T11:01:11Z</time>
      </trkpt>
      <trkpt lat="42.19674" lon="2.30308">
        <ele>948.1</ele>
        <time>2018-11-26T11:01:12Z</time>
      </trkpt>
      <trkpt lat="42.19676" lon="2.30306">
        <ele>948</ele>
        <time>2018-11-26T11:01:13Z</time>
      </trkpt>
      <trkpt lat="42.19679" lon="2.30304">
        <ele>948</ele>
        <time>2018-11-26T11:01:14Z</time>
      </trkpt>
      <trkpt lat="42.19682" lon="2.30303">
        <ele>948.1</ele>
        <time>2018-11-26T11:01:15Z</time>
      </trkpt>
      <trkpt lat="42.19685" lon="2.30302">
        <ele>948.1</ele>
        <time>2018-11-26T11:01:16Z</time>
      </trkpt>
      <trkpt lat="42.19687" lon="2.30302">
        <ele>948.1</ele>
        <time>2018-11-26T11:01:18Z</time>
      </trkpt>
      <trkpt lat="42.1969" lon="2.30301">
        <ele>947.8</ele>
        <time>2018-11-26T11:01:19Z</time>
      </trkpt>
      <trkpt lat="42.19692" lon="2.303">
        <ele>947</ele>
        <time>2018-11-26T11:01:19Z</time>
      </trkpt>
      <trkpt lat="42.19695" lon="2.303">
        <ele>948</ele>
        <time>2018-11-26T11:01:21Z</time>
      </trkpt>
      <trkpt lat="42.19698" lon="2.30299">
        <ele>948.1</ele>
        <time>2018-11-26T11:01:22Z</time>
      </trkpt>
      <trkpt lat="42.19701" lon="2.30299">
        <ele>948</ele>
        <time>2018-11-26T11:01:23Z</time>
      </trkpt>
      <trkpt lat="42.19703" lon="2.30299">
        <ele>948.2</ele>
        <time>2018-11-26T11:01:24Z</time>
      </trkpt>
      <trkpt lat="42.19706" lon="2.30298">
        <ele>949</ele>
        <time>2018-11-26T11:01:25Z</time>
      </trkpt>
      <trkpt lat="42.19709" lon="2.30298">
        <ele>949</ele>
        <time>2018-11-26T11:01:26Z</time>
      </trkpt>
      <trkpt lat="42.19713" lon="2.30298">
        <ele>948</ele>
        <time>2018-11-26T11:01:28Z</time>
      </trkpt>
      <trkpt lat="42.19715" lon="2.30299">
        <ele>948</ele>
        <time>2018-11-26T11:01:29Z</time>
      </trkpt>
      <trkpt lat="42.19718" lon="2.303">
        <ele>948</ele>
        <time>2018-11-26T11:01:30Z</time>
      </trkpt>
      <trkpt lat="42.19721" lon="2.303">
        <ele>948.3</ele>
        <time>2018-11-26T11:01:31Z</time>
      </trkpt>
      <trkpt lat="42.19724" lon="2.30301">
        <ele>949</ele>
        <time>2018-11-26T11:01:32Z</time>
      </trkpt>
      <trkpt lat="42.19728" lon="2.30301">
        <ele>950</ele>
        <time>2018-11-26T11:01:34Z</time>
      </trkpt>
      <trkpt lat="42.19731" lon="2.30302">
        <ele>950</ele>
        <time>2018-11-26T11:01:35Z</time>
      </trkpt>
      <trkpt lat="42.19734" lon="2.30302">
        <ele>950</ele>
        <time>2018-11-26T11:01:36Z</time>
      </trkpt>
      <trkpt lat="42.19736" lon="2.30302">
        <ele>950.1</ele>
        <time>2018-11-26T11:01:37Z</time>
      </trkpt>
      <trkpt lat="42.19739" lon="2.30302">
        <ele>951</ele>
        <time>2018-11-26T11:01:39Z</time>
      </trkpt>
      <trkpt lat="42.19743" lon="2.30301">
        <ele>951.1</ele>
        <time>2018-11-26T11:01:40Z</time>
      </trkpt>
      <trkpt lat="42.19746" lon="2.30301">
        <ele>951.1</ele>
        <time>2018-11-26T11:01:41Z</time>
      </trkpt>
      <trkpt lat="42.19749" lon="2.303">
        <ele>951.1</ele>
        <time>2018-11-26T11:01:42Z</time>
      </trkpt>
      <trkpt lat="42.19752" lon="2.30298">
        <ele>951.1</ele>
        <time>2018-11-26T11:01:44Z</time>
      </trkpt>
      <trkpt lat="42.19754" lon="2.30298">
        <ele>952.2</ele>
        <time>2018-11-26T11:01:45Z</time>
      </trkpt>
      <trkpt lat="42.19756" lon="2.30297">
        <ele>953</ele>
        <time>2018-11-26T11:01:45Z</time>
      </trkpt>
      <trkpt lat="42.19758" lon="2.30296">
        <ele>953</ele>
        <time>2018-11-26T11:01:46Z</time>
      </trkpt>
      <trkpt lat="42.19759" lon="2.30295">
        <ele>953</ele>
        <time>2018-11-26T11:01:47Z</time>
      </trkpt>
      <trkpt lat="42.19761" lon="2.30294">
        <ele>953</ele>
        <time>2018-11-26T11:01:48Z</time>
      </trkpt>
      <trkpt lat="42.19764" lon="2.30293">
        <ele>953.2</ele>
        <time>2018-11-26T11:01:49Z</time>
      </trkpt>
      <trkpt lat="42.19766" lon="2.30293">
        <ele>954.1</ele>
        <time>2018-11-26T11:01:50Z</time>
      </trkpt>
      <trkpt lat="42.19768" lon="2.30292">
        <ele>954</ele>
        <time>2018-11-26T11:01:51Z</time>
      </trkpt>
      <trkpt lat="42.19771" lon="2.30291">
        <ele>954</ele>
        <time>2018-11-26T11:01:51Z</time>
      </trkpt>
      <trkpt lat="42.19773" lon="2.3029">
        <ele>954</ele>
        <time>2018-11-26T11:01:52Z</time>
      </trkpt>
      <trkpt lat="42.19775" lon="2.30289">
        <ele>954.1</ele>
        <time>2018-11-26T11:01:53Z</time>
      </trkpt>
      <trkpt lat="42.19777" lon="2.30288">
        <ele>954.1</ele>
        <time>2018-11-26T11:01:54Z</time>
      </trkpt>
      <trkpt lat="42.19779" lon="2.30287">
        <ele>954</ele>
        <time>2018-11-26T11:01:55Z</time>
      </trkpt>
      <trkpt lat="42.19781" lon="2.30286">
        <ele>954.1</ele>
        <time>2018-11-26T11:01:56Z</time>
      </trkpt>
      <trkpt lat="42.19783" lon="2.30285">
        <ele>954</ele>
        <time>2018-11-26T11:01:57Z</time>
      </trkpt>
      <trkpt lat="42.19785" lon="2.30284">
        <ele>954</ele>
        <time>2018-11-26T11:01:58Z</time>
      </trkpt>
      <trkpt lat="42.19787" lon="2.30284">
        <ele>954</ele>
        <time>2018-11-26T11:01:58Z</time>
      </trkpt>
      <trkpt lat="42.1979" lon="2.30282">
        <ele>954.1</ele>
        <time>2018-11-26T11:02:00Z</time>
      </trkpt>
      <trkpt lat="42.19794" lon="2.3028">
        <ele>956.1</ele>
        <time>2018-11-26T11:02:01Z</time>
      </trkpt>
      <trkpt lat="42.19797" lon="2.30279">
        <ele>956</ele>
        <time>2018-11-26T11:02:03Z</time>
      </trkpt>
      <trkpt lat="42.19801" lon="2.30277">
        <ele>956</ele>
        <time>2018-11-26T11:02:04Z</time>
      </trkpt>
      <trkpt lat="42.19804" lon="2.30276">
        <ele>957.1</ele>
        <time>2018-11-26T11:02:06Z</time>
      </trkpt>
      <trkpt lat="42.19807" lon="2.30275">
        <ele>957.1</ele>
        <time>2018-11-26T11:02:07Z</time>
      </trkpt>
      <trkpt lat="42.19811" lon="2.30274">
        <ele>957</ele>
        <time>2018-11-26T11:02:08Z</time>
      </trkpt>
      <trkpt lat="42.19813" lon="2.30272">
        <ele>957.1</ele>
        <time>2018-11-26T11:02:10Z</time>
      </trkpt>
      <trkpt lat="42.19816" lon="2.30269">
        <ele>956.1</ele>
        <time>2018-11-26T11:02:11Z</time>
      </trkpt>
      <trkpt lat="42.19818" lon="2.30266">
        <ele>956</ele>
        <time>2018-11-26T11:02:12Z</time>
      </trkpt>
      <trkpt lat="42.1982" lon="2.30262">
        <ele>955.7</ele>
        <time>2018-11-26T11:02:13Z</time>
      </trkpt>
      <trkpt lat="42.19822" lon="2.30258">
        <ele>955.3</ele>
        <time>2018-11-26T11:02:15Z</time>
      </trkpt>
      <trkpt lat="42.19822" lon="2.30256">
        <ele>956</ele>
        <time>2018-11-26T11:02:16Z</time>
      </trkpt>
      <trkpt lat="42.19823" lon="2.30252">
        <ele>956</ele>
        <time>2018-11-26T11:02:17Z</time>
      </trkpt>
      <trkpt lat="42.19824" lon="2.30248">
        <ele>956.1</ele>
        <time>2018-11-26T11:02:18Z</time>
      </trkpt>
      <trkpt lat="42.19824" lon="2.30244">
        <ele>956.1</ele>
        <time>2018-11-26T11:02:19Z</time>
      </trkpt>
      <trkpt lat="42.19824" lon="2.30241">
        <ele>956.1</ele>
        <time>2018-11-26T11:02:20Z</time>
      </trkpt>
      <trkpt lat="42.19824" lon="2.30237">
        <ele>956.1</ele>
        <time>2018-11-26T11:02:21Z</time>
      </trkpt>
      <trkpt lat="42.19824" lon="2.30234">
        <ele>956</ele>
        <time>2018-11-26T11:02:22Z</time>
      </trkpt>
      <trkpt lat="42.19826" lon="2.30232">
        <ele>956</ele>
        <time>2018-11-26T11:02:23Z</time>
      </trkpt>
      <trkpt lat="42.19828" lon="2.30231">
        <ele>956.2</ele>
        <time>2018-11-26T11:02:24Z</time>
      </trkpt>
      <trkpt lat="42.19829" lon="2.3023">
        <ele>957</ele>
        <time>2018-11-26T11:02:25Z</time>
      </trkpt>
      <trkpt lat="42.1983" lon="2.30228">
        <ele>957</ele>
        <time>2018-11-26T11:02:25Z</time>
      </trkpt>
      <trkpt lat="42.1983" lon="2.30225">
        <ele>957</ele>
        <time>2018-11-26T11:02:26Z</time>
      </trkpt>
      <trkpt lat="42.1983" lon="2.30221">
        <ele>957.1</ele>
        <time>2018-11-26T11:02:27Z</time>
      </trkpt>
      <trkpt lat="42.1983" lon="2.30217">
        <ele>957.1</ele>
        <time>2018-11-26T11:02:29Z</time>
      </trkpt>
      <trkpt lat="42.19829" lon="2.30214">
        <ele>957.1</ele>
        <time>2018-11-26T11:02:30Z</time>
      </trkpt>
      <trkpt lat="42.19828" lon="2.3021">
        <ele>957</ele>
        <time>2018-11-26T11:02:31Z</time>
      </trkpt>
      <trkpt lat="42.19828" lon="2.30206">
        <ele>957</ele>
        <time>2018-11-26T11:02:32Z</time>
      </trkpt>
      <trkpt lat="42.19827" lon="2.30202">
        <ele>958.1</ele>
        <time>2018-11-26T11:02:33Z</time>
      </trkpt>
      <trkpt lat="42.19827" lon="2.30198">
        <ele>958.1</ele>
        <time>2018-11-26T11:02:34Z</time>
      </trkpt>
      <trkpt lat="42.19827" lon="2.30194">
        <ele>958</ele>
        <time>2018-11-26T11:02:35Z</time>
      </trkpt>
      <trkpt lat="42.19827" lon="2.30191">
        <ele>958.1</ele>
        <time>2018-11-26T11:02:37Z</time>
      </trkpt>
      <trkpt lat="42.19826" lon="2.30187">
        <ele>958</ele>
        <time>2018-11-26T11:02:38Z</time>
      </trkpt>
      <trkpt lat="42.19827" lon="2.30184">
        <ele>959</ele>
        <time>2018-11-26T11:02:39Z</time>
      </trkpt>
      <trkpt lat="42.19828" lon="2.3018">
        <ele>959.1</ele>
        <time>2018-11-26T11:02:40Z</time>
      </trkpt>
      <trkpt lat="42.19829" lon="2.30177">
        <ele>959</ele>
        <time>2018-11-26T11:02:41Z</time>
      </trkpt>
      <trkpt lat="42.1983" lon="2.30173">
        <ele>959</ele>
        <time>2018-11-26T11:02:42Z</time>
      </trkpt>
      <trkpt lat="42.1983" lon="2.3017">
        <ele>959</ele>
        <time>2018-11-26T11:02:43Z</time>
      </trkpt>
      <trkpt lat="42.19831" lon="2.30166">
        <ele>959.1</ele>
        <time>2018-11-26T11:02:44Z</time>
      </trkpt>
      <trkpt lat="42.19833" lon="2.30164">
        <ele>960.1</ele>
        <time>2018-11-26T11:02:45Z</time>
      </trkpt>
      <trkpt lat="42.19835" lon="2.30161">
        <ele>960</ele>
        <time>2018-11-26T11:02:46Z</time>
      </trkpt>
      <trkpt lat="42.19835" lon="2.30159">
        <ele>960.1</ele>
        <time>2018-11-26T11:02:47Z</time>
      </trkpt>
      <trkpt lat="42.19837" lon="2.30157">
        <ele>960.1</ele>
        <time>2018-11-26T11:02:48Z</time>
      </trkpt>
      <trkpt lat="42.19838" lon="2.30155">
        <ele>960</ele>
        <time>2018-11-26T11:02:49Z</time>
      </trkpt>
      <trkpt lat="42.1984" lon="2.30153">
        <ele>960</ele>
        <time>2018-11-26T11:02:50Z</time>
      </trkpt>
      <trkpt lat="42.19841" lon="2.3015">
        <ele>960</ele>
        <time>2018-11-26T11:02:51Z</time>
      </trkpt>
      <trkpt lat="42.19842" lon="2.30147">
        <ele>960.2</ele>
        <time>2018-11-26T11:02:51Z</time>
      </trkpt>
      <trkpt lat="42.19842" lon="2.30144">
        <ele>961.2</ele>
        <time>2018-11-26T11:02:52Z</time>
      </trkpt>
      <trkpt lat="42.1984" lon="2.30141">
        <ele>962.1</ele>
        <time>2018-11-26T11:02:54Z</time>
      </trkpt>
      <trkpt lat="42.19838" lon="2.30137">
        <ele>963</ele>
        <time>2018-11-26T11:02:55Z</time>
      </trkpt>
      <trkpt lat="42.19836" lon="2.30134">
        <ele>963.1</ele>
        <time>2018-11-26T11:02:56Z</time>
      </trkpt>
      <trkpt lat="42.19834" lon="2.30131">
        <ele>964.1</ele>
        <time>2018-11-26T11:02:57Z</time>
      </trkpt>
      <trkpt lat="42.19833" lon="2.30128">
        <ele>964.1</ele>
        <time>2018-11-26T11:02:58Z</time>
      </trkpt>
      <trkpt lat="42.19832" lon="2.30124">
        <ele>965.1</ele>
        <time>2018-11-26T11:03:00Z</time>
      </trkpt>
      <trkpt lat="42.19832" lon="2.30121">
        <ele>966</ele>
        <time>2018-11-26T11:03:01Z</time>
      </trkpt>
      <trkpt lat="42.19831" lon="2.30117">
        <ele>966</ele>
        <time>2018-11-26T11:03:02Z</time>
      </trkpt>
      <trkpt lat="42.19831" lon="2.30112">
        <ele>966</ele>
        <time>2018-11-26T11:03:03Z</time>
      </trkpt>
      <trkpt lat="42.1983" lon="2.30109">
        <ele>966</ele>
        <time>2018-11-26T11:03:04Z</time>
      </trkpt>
      <trkpt lat="42.19828" lon="2.30107">
        <ele>966</ele>
        <time>2018-11-26T11:03:05Z</time>
      </trkpt>
      <trkpt lat="42.19827" lon="2.30104">
        <ele>966</ele>
        <time>2018-11-26T11:03:06Z</time>
      </trkpt>
      <trkpt lat="42.19826" lon="2.30101">
        <ele>967.1</ele>
        <time>2018-11-26T11:03:07Z</time>
      </trkpt>
      <trkpt lat="42.19827" lon="2.30097">
        <ele>967</ele>
        <time>2018-11-26T11:03:08Z</time>
      </trkpt>
      <trkpt lat="42.19827" lon="2.30093">
        <ele>967.1</ele>
        <time>2018-11-26T11:03:10Z</time>
      </trkpt>
      <trkpt lat="42.19827" lon="2.30089">
        <ele>967.1</ele>
        <time>2018-11-26T11:03:11Z</time>
      </trkpt>
      <trkpt lat="42.19826" lon="2.30085">
        <ele>967.1</ele>
        <time>2018-11-26T11:03:12Z</time>
      </trkpt>
      <trkpt lat="42.19825" lon="2.30081">
        <ele>967</ele>
        <time>2018-11-26T11:03:13Z</time>
      </trkpt>
      <trkpt lat="42.19824" lon="2.30076">
        <ele>967.2</ele>
        <time>2018-11-26T11:03:14Z</time>
      </trkpt>
      <trkpt lat="42.19824" lon="2.30074">
        <ele>968.1</ele>
        <time>2018-11-26T11:03:15Z</time>
      </trkpt>
      <trkpt lat="42.19823" lon="2.3007">
        <ele>968</ele>
        <time>2018-11-26T11:03:17Z</time>
      </trkpt>
      <trkpt lat="42.19821" lon="2.30066">
        <ele>969</ele>
        <time>2018-11-26T11:03:18Z</time>
      </trkpt>
      <trkpt lat="42.1982" lon="2.30062">
        <ele>969.1</ele>
        <time>2018-11-26T11:03:19Z</time>
      </trkpt>
      <trkpt lat="42.19819" lon="2.30059">
        <ele>969</ele>
        <time>2018-11-26T11:03:20Z</time>
      </trkpt>
      <trkpt lat="42.19817" lon="2.30056">
        <ele>969.1</ele>
        <time>2018-11-26T11:03:21Z</time>
      </trkpt>
      <trkpt lat="42.19815" lon="2.30053">
        <ele>969.2</ele>
        <time>2018-11-26T11:03:22Z</time>
      </trkpt>
      <trkpt lat="42.19814" lon="2.30049">
        <ele>970.1</ele>
        <time>2018-11-26T11:03:24Z</time>
      </trkpt>
      <trkpt lat="42.19812" lon="2.30045">
        <ele>970.1</ele>
        <time>2018-11-26T11:03:25Z</time>
      </trkpt>
      <trkpt lat="42.19811" lon="2.30041">
        <ele>970.1</ele>
        <time>2018-11-26T11:03:26Z</time>
      </trkpt>
      <trkpt lat="42.19809" lon="2.30037">
        <ele>970.1</ele>
        <time>2018-11-26T11:03:28Z</time>
      </trkpt>
      <trkpt lat="42.19807" lon="2.30034">
        <ele>970.1</ele>
        <time>2018-11-26T11:03:29Z</time>
      </trkpt>
      <trkpt lat="42.19806" lon="2.3003">
        <ele>970</ele>
        <time>2018-11-26T11:03:30Z</time>
      </trkpt>
      <trkpt lat="42.19804" lon="2.30027">
        <ele>970.1</ele>
        <time>2018-11-26T11:03:31Z</time>
      </trkpt>
      <trkpt lat="42.19802" lon="2.30023">
        <ele>971</ele>
        <time>2018-11-26T11:03:33Z</time>
      </trkpt>
      <trkpt lat="42.19801" lon="2.3002">
        <ele>971</ele>
        <time>2018-11-26T11:03:34Z</time>
      </trkpt>
      <trkpt lat="42.198" lon="2.30015">
        <ele>971.3</ele>
        <time>2018-11-26T11:03:35Z</time>
      </trkpt>
      <trkpt lat="42.19799" lon="2.30013">
        <ele>972</ele>
        <time>2018-11-26T11:03:36Z</time>
      </trkpt>
      <trkpt lat="42.19799" lon="2.3001">
        <ele>972</ele>
        <time>2018-11-26T11:03:37Z</time>
      </trkpt>
      <trkpt lat="42.19797" lon="2.30007">
        <ele>972.1</ele>
        <time>2018-11-26T11:03:38Z</time>
      </trkpt>
      <trkpt lat="42.19795" lon="2.30003">
        <ele>973</ele>
        <time>2018-11-26T11:03:39Z</time>
      </trkpt>
      <trkpt lat="42.19794" lon="2.29999">
        <ele>973</ele>
        <time>2018-11-26T11:03:41Z</time>
      </trkpt>
      <trkpt lat="42.19793" lon="2.29996">
        <ele>973</ele>
        <time>2018-11-26T11:03:42Z</time>
      </trkpt>
      <trkpt lat="42.19791" lon="2.29992">
        <ele>973</ele>
        <time>2018-11-26T11:03:43Z</time>
      </trkpt>
      <trkpt lat="42.19789" lon="2.29988">
        <ele>973</ele>
        <time>2018-11-26T11:03:44Z</time>
      </trkpt>
      <trkpt lat="42.19788" lon="2.29984">
        <ele>973</ele>
        <time>2018-11-26T11:03:46Z</time>
      </trkpt>
      <trkpt lat="42.19787" lon="2.2998">
        <ele>973</ele>
        <time>2018-11-26T11:03:47Z</time>
      </trkpt>
      <trkpt lat="42.19786" lon="2.29977">
        <ele>973.2</ele>
        <time>2018-11-26T11:03:48Z</time>
      </trkpt>
      <trkpt lat="42.19785" lon="2.29973">
        <ele>974.1</ele>
        <time>2018-11-26T11:03:49Z</time>
      </trkpt>
      <trkpt lat="42.19785" lon="2.29969">
        <ele>974</ele>
        <time>2018-11-26T11:03:50Z</time>
      </trkpt>
      <trkpt lat="42.19785" lon="2.29965">
        <ele>974</ele>
        <time>2018-11-26T11:03:52Z</time>
      </trkpt>
      <trkpt lat="42.19783" lon="2.2996">
        <ele>974</ele>
        <time>2018-11-26T11:03:53Z</time>
      </trkpt>
      <trkpt lat="42.19782" lon="2.29957">
        <ele>974</ele>
        <time>2018-11-26T11:03:54Z</time>
      </trkpt>
      <trkpt lat="42.19781" lon="2.29953">
        <ele>974.1</ele>
        <time>2018-11-26T11:03:56Z</time>
      </trkpt>
      <trkpt lat="42.1978" lon="2.29951">
        <ele>974.1</ele>
        <time>2018-11-26T11:03:56Z</time>
      </trkpt>
      <trkpt lat="42.19778" lon="2.29946">
        <ele>974</ele>
        <time>2018-11-26T11:03:58Z</time>
      </trkpt>
      <trkpt lat="42.19777" lon="2.29943">
        <ele>974.1</ele>
        <time>2018-11-26T11:03:59Z</time>
      </trkpt>
      <trkpt lat="42.19777" lon="2.29939">
        <ele>975</ele>
        <time>2018-11-26T11:04:00Z</time>
      </trkpt>
      <trkpt lat="42.19776" lon="2.29935">
        <ele>975</ele>
        <time>2018-11-26T11:04:01Z</time>
      </trkpt>
      <trkpt lat="42.19776" lon="2.29933">
        <ele>975.1</ele>
        <time>2018-11-26T11:04:02Z</time>
      </trkpt>
      <trkpt lat="42.19774" lon="2.2993">
        <ele>975</ele>
        <time>2018-11-26T11:04:03Z</time>
      </trkpt>
      <trkpt lat="42.19773" lon="2.29927">
        <ele>975</ele>
        <time>2018-11-26T11:04:04Z</time>
      </trkpt>
      <trkpt lat="42.19771" lon="2.29925">
        <ele>975.1</ele>
        <time>2018-11-26T11:04:05Z</time>
      </trkpt>
      <trkpt lat="42.19769" lon="2.29922">
        <ele>975</ele>
        <time>2018-11-26T11:04:06Z</time>
      </trkpt>
      <trkpt lat="42.19767" lon="2.29919">
        <ele>975</ele>
        <time>2018-11-26T11:04:07Z</time>
      </trkpt>
      <trkpt lat="42.19766" lon="2.29916">
        <ele>975.1</ele>
        <time>2018-11-26T11:04:08Z</time>
      </trkpt>
      <trkpt lat="42.19764" lon="2.29912">
        <ele>975.1</ele>
        <time>2018-11-26T11:04:10Z</time>
      </trkpt>
      <trkpt lat="42.19762" lon="2.29909">
        <ele>975</ele>
        <time>2018-11-26T11:04:11Z</time>
      </trkpt>
      <trkpt lat="42.1976" lon="2.29907">
        <ele>975.1</ele>
        <time>2018-11-26T11:04:12Z</time>
      </trkpt>
      <trkpt lat="42.19758" lon="2.29905">
        <ele>975</ele>
        <time>2018-11-26T11:04:13Z</time>
      </trkpt>
      <trkpt lat="42.19756" lon="2.29902">
        <ele>975</ele>
        <time>2018-11-26T11:04:14Z</time>
      </trkpt>
      <trkpt lat="42.19753" lon="2.29899">
        <ele>975.1</ele>
        <time>2018-11-26T11:04:16Z</time>
      </trkpt>
      <trkpt lat="42.19751" lon="2.29896">
        <ele>976</ele>
        <time>2018-11-26T11:04:17Z</time>
      </trkpt>
      <trkpt lat="42.19749" lon="2.29892">
        <ele>976.1</ele>
        <time>2018-11-26T11:04:18Z</time>
      </trkpt>
      <trkpt lat="42.19748" lon="2.29888">
        <ele>976.2</ele>
        <time>2018-11-26T11:04:20Z</time>
      </trkpt>
      <trkpt lat="42.19747" lon="2.29883">
        <ele>977</ele>
        <time>2018-11-26T11:04:21Z</time>
      </trkpt>
      <trkpt lat="42.19747" lon="2.29881">
        <ele>977</ele>
        <time>2018-11-26T11:04:22Z</time>
      </trkpt>
      <trkpt lat="42.19746" lon="2.29876">
        <ele>977.1</ele>
        <time>2018-11-26T11:04:23Z</time>
      </trkpt>
      <trkpt lat="42.19745" lon="2.29872">
        <ele>977</ele>
        <time>2018-11-26T11:04:24Z</time>
      </trkpt>
      <trkpt lat="42.19745" lon="2.2987">
        <ele>977.1</ele>
        <time>2018-11-26T11:04:25Z</time>
      </trkpt>
      <trkpt lat="42.19744" lon="2.29865">
        <ele>977.1</ele>
        <time>2018-11-26T11:04:26Z</time>
      </trkpt>
      <trkpt lat="42.19744" lon="2.29861">
        <ele>977</ele>
        <time>2018-11-26T11:04:28Z</time>
      </trkpt>
      <trkpt lat="42.19745" lon="2.29856">
        <ele>977</ele>
        <time>2018-11-26T11:04:29Z</time>
      </trkpt>
      <trkpt lat="42.19745" lon="2.29854">
        <ele>977</ele>
        <time>2018-11-26T11:04:30Z</time>
      </trkpt>
      <trkpt lat="42.19746" lon="2.29849">
        <ele>977.1</ele>
        <time>2018-11-26T11:04:31Z</time>
      </trkpt>
      <trkpt lat="42.19745" lon="2.29845">
        <ele>977</ele>
        <time>2018-11-26T11:04:33Z</time>
      </trkpt>
      <trkpt lat="42.19746" lon="2.29842">
        <ele>977</ele>
        <time>2018-11-26T11:04:33Z</time>
      </trkpt>
      <trkpt lat="42.19746" lon="2.29838">
        <ele>977.2</ele>
        <time>2018-11-26T11:04:35Z</time>
      </trkpt>
      <trkpt lat="42.19748" lon="2.29835">
        <ele>978.1</ele>
        <time>2018-11-26T11:04:35Z</time>
      </trkpt>
      <trkpt lat="42.19748" lon="2.29833">
        <ele>978</ele>
        <time>2018-11-26T11:04:36Z</time>
      </trkpt>
      <trkpt lat="42.19749" lon="2.2983">
        <ele>978</ele>
        <time>2018-11-26T11:04:37Z</time>
      </trkpt>
      <trkpt lat="42.1975" lon="2.29826">
        <ele>978.1</ele>
        <time>2018-11-26T11:04:38Z</time>
      </trkpt>
      <trkpt lat="42.1975" lon="2.29822">
        <ele>978.1</ele>
        <time>2018-11-26T11:04:40Z</time>
      </trkpt>
      <trkpt lat="42.1975" lon="2.29819">
        <ele>978</ele>
        <time>2018-11-26T11:04:40Z</time>
      </trkpt>
      <trkpt lat="42.1975" lon="2.29817">
        <ele>978</ele>
        <time>2018-11-26T11:04:41Z</time>
      </trkpt>
      <trkpt lat="42.19749" lon="2.29814">
        <ele>978</ele>
        <time>2018-11-26T11:04:42Z</time>
      </trkpt>
      <trkpt lat="42.19749" lon="2.29811">
        <ele>978.1</ele>
        <time>2018-11-26T11:04:43Z</time>
      </trkpt>
      <trkpt lat="42.19749" lon="2.29807">
        <ele>978</ele>
        <time>2018-11-26T11:04:44Z</time>
      </trkpt>
      <trkpt lat="42.19749" lon="2.29804">
        <ele>978.1</ele>
        <time>2018-11-26T11:04:45Z</time>
      </trkpt>
      <trkpt lat="42.19749" lon="2.29799">
        <ele>978.1</ele>
        <time>2018-11-26T11:04:47Z</time>
      </trkpt>
      <trkpt lat="42.19748" lon="2.29795">
        <ele>978.2</ele>
        <time>2018-11-26T11:04:48Z</time>
      </trkpt>
      <trkpt lat="42.19748" lon="2.29791">
        <ele>979.1</ele>
        <time>2018-11-26T11:04:49Z</time>
      </trkpt>
      <trkpt lat="42.19747" lon="2.29788">
        <ele>979.1</ele>
        <time>2018-11-26T11:04:50Z</time>
      </trkpt>
      <trkpt lat="42.19747" lon="2.29784">
        <ele>979.1</ele>
        <time>2018-11-26T11:04:51Z</time>
      </trkpt>
      <trkpt lat="42.19747" lon="2.2978">
        <ele>979.1</ele>
        <time>2018-11-26T11:04:52Z</time>
      </trkpt>
      <trkpt lat="42.19748" lon="2.29777">
        <ele>980</ele>
        <time>2018-11-26T11:04:53Z</time>
      </trkpt>
      <trkpt lat="42.1975" lon="2.29774">
        <ele>980</ele>
        <time>2018-11-26T11:04:54Z</time>
      </trkpt>
      <trkpt lat="42.1975" lon="2.29771">
        <ele>980.1</ele>
        <time>2018-11-26T11:04:55Z</time>
      </trkpt>
      <trkpt lat="42.19751" lon="2.29769">
        <ele>980.1</ele>
        <time>2018-11-26T11:04:56Z</time>
      </trkpt>
      <trkpt lat="42.19752" lon="2.29766">
        <ele>980.2</ele>
        <time>2018-11-26T11:04:57Z</time>
      </trkpt>
      <trkpt lat="42.19753" lon="2.29763">
        <ele>982.1</ele>
        <time>2018-11-26T11:04:58Z</time>
      </trkpt>
      <trkpt lat="42.19754" lon="2.29759">
        <ele>982.1</ele>
        <time>2018-11-26T11:04:59Z</time>
      </trkpt>
      <trkpt lat="42.19754" lon="2.29755">
        <ele>982.1</ele>
        <time>2018-11-26T11:05:00Z</time>
      </trkpt>
      <trkpt lat="42.19756" lon="2.29751">
        <ele>982.1</ele>
        <time>2018-11-26T11:05:02Z</time>
      </trkpt>
      <trkpt lat="42.19757" lon="2.29749">
        <ele>982.1</ele>
        <time>2018-11-26T11:05:02Z</time>
      </trkpt>
      <trkpt lat="42.19757" lon="2.29746">
        <ele>982.1</ele>
        <time>2018-11-26T11:05:03Z</time>
      </trkpt>
      <trkpt lat="42.19758" lon="2.29742">
        <ele>981.8</ele>
        <time>2018-11-26T11:05:04Z</time>
      </trkpt>
      <trkpt lat="42.19759" lon="2.29738">
        <ele>981.3</ele>
        <time>2018-11-26T11:05:06Z</time>
      </trkpt>
      <trkpt lat="42.19761" lon="2.29733">
        <ele>981</ele>
        <time>2018-11-26T11:05:07Z</time>
      </trkpt>
      <trkpt lat="42.19762" lon="2.2973">
        <ele>981.1</ele>
        <time>2018-11-26T11:05:08Z</time>
      </trkpt>
      <trkpt lat="42.19763" lon="2.29725">
        <ele>981.1</ele>
        <time>2018-11-26T11:05:10Z</time>
      </trkpt>
      <trkpt lat="42.19763" lon="2.29721">
        <ele>981</ele>
        <time>2018-11-26T11:05:11Z</time>
      </trkpt>
      <trkpt lat="42.19764" lon="2.29718">
        <ele>981</ele>
        <time>2018-11-26T11:05:12Z</time>
      </trkpt>
      <trkpt lat="42.19765" lon="2.29715">
        <ele>981.1</ele>
        <time>2018-11-26T11:05:13Z</time>
      </trkpt>
      <trkpt lat="42.19767" lon="2.29711">
        <ele>982.1</ele>
        <time>2018-11-26T11:05:14Z</time>
      </trkpt>
      <trkpt lat="42.1977" lon="2.29708">
        <ele>983</ele>
        <time>2018-11-26T11:05:16Z</time>
      </trkpt>
      <trkpt lat="42.19772" lon="2.29706">
        <ele>983</ele>
        <time>2018-11-26T11:05:17Z</time>
      </trkpt>
      <trkpt lat="42.19773" lon="2.29703">
        <ele>983</ele>
        <time>2018-11-26T11:05:18Z</time>
      </trkpt>
      <trkpt lat="42.19774" lon="2.297">
        <ele>982.8</ele>
        <time>2018-11-26T11:05:19Z</time>
      </trkpt>
      <trkpt lat="42.19775" lon="2.29697">
        <ele>981.7</ele>
        <time>2018-11-26T11:05:20Z</time>
      </trkpt>
      <trkpt lat="42.19775" lon="2.29694">
        <ele>981</ele>
        <time>2018-11-26T11:05:21Z</time>
      </trkpt>
      <trkpt lat="42.19776" lon="2.2969">
        <ele>981</ele>
        <time>2018-11-26T11:05:22Z</time>
      </trkpt>
      <trkpt lat="42.19776" lon="2.29687">
        <ele>981</ele>
        <time>2018-11-26T11:05:23Z</time>
      </trkpt>
      <trkpt lat="42.19776" lon="2.29684">
        <ele>981</ele>
        <time>2018-11-26T11:05:24Z</time>
      </trkpt>
      <trkpt lat="42.19776" lon="2.29682">
        <ele>981</ele>
        <time>2018-11-26T11:05:24Z</time>
      </trkpt>
      <trkpt lat="42.19777" lon="2.29678">
        <ele>981.1</ele>
        <time>2018-11-26T11:05:25Z</time>
      </trkpt>
      <trkpt lat="42.19779" lon="2.29675">
        <ele>981</ele>
        <time>2018-11-26T11:05:27Z</time>
      </trkpt>
      <trkpt lat="42.1978" lon="2.29672">
        <ele>981.1</ele>
        <time>2018-11-26T11:05:28Z</time>
      </trkpt>
      <trkpt lat="42.19782" lon="2.29669">
        <ele>981</ele>
        <time>2018-11-26T11:05:29Z</time>
      </trkpt>
      <trkpt lat="42.19783" lon="2.29667">
        <ele>981</ele>
        <time>2018-11-26T11:05:30Z</time>
      </trkpt>
      <trkpt lat="42.19785" lon="2.29664">
        <ele>981.1</ele>
        <time>2018-11-26T11:05:31Z</time>
      </trkpt>
      <trkpt lat="42.19787" lon="2.29662">
        <ele>981</ele>
        <time>2018-11-26T11:05:32Z</time>
      </trkpt>
      <trkpt lat="42.19789" lon="2.29659">
        <ele>981.1</ele>
        <time>2018-11-26T11:05:33Z</time>
      </trkpt>
      <trkpt lat="42.19791" lon="2.29656">
        <ele>982.1</ele>
        <time>2018-11-26T11:05:34Z</time>
      </trkpt>
      <trkpt lat="42.19793" lon="2.29654">
        <ele>982.1</ele>
        <time>2018-11-26T11:05:35Z</time>
      </trkpt>
      <trkpt lat="42.19794" lon="2.29651">
        <ele>981.9</ele>
        <time>2018-11-26T11:05:36Z</time>
      </trkpt>
      <trkpt lat="42.19795" lon="2.29648">
        <ele>981.1</ele>
        <time>2018-11-26T11:05:37Z</time>
      </trkpt>
      <trkpt lat="42.19796" lon="2.29645">
        <ele>981.1</ele>
        <time>2018-11-26T11:05:38Z</time>
      </trkpt>
      <trkpt lat="42.19797" lon="2.29642">
        <ele>981.1</ele>
        <time>2018-11-26T11:05:39Z</time>
      </trkpt>
      <trkpt lat="42.19799" lon="2.29639">
        <ele>981</ele>
        <time>2018-11-26T11:05:40Z</time>
      </trkpt>
      <trkpt lat="42.198" lon="2.29636">
        <ele>981</ele>
        <time>2018-11-26T11:05:41Z</time>
      </trkpt>
      <trkpt lat="42.19802" lon="2.29634">
        <ele>981.1</ele>
        <time>2018-11-26T11:05:42Z</time>
      </trkpt>
      <trkpt lat="42.19804" lon="2.29631">
        <ele>981.2</ele>
        <time>2018-11-26T11:05:43Z</time>
      </trkpt>
      <trkpt lat="42.19806" lon="2.29629">
        <ele>982</ele>
        <time>2018-11-26T11:05:44Z</time>
      </trkpt>
      <trkpt lat="42.19808" lon="2.29627">
        <ele>982</ele>
        <time>2018-11-26T11:05:45Z</time>
      </trkpt>
      <trkpt lat="42.1981" lon="2.29625">
        <ele>982</ele>
        <time>2018-11-26T11:05:46Z</time>
      </trkpt>
      <trkpt lat="42.19811" lon="2.29623">
        <ele>982.1</ele>
        <time>2018-11-26T11:05:47Z</time>
      </trkpt>
      <trkpt lat="42.19813" lon="2.2962">
        <ele>982.1</ele>
        <time>2018-11-26T11:05:49Z</time>
      </trkpt>
      <trkpt lat="42.19815" lon="2.29617">
        <ele>982.1</ele>
        <time>2018-11-26T11:05:49Z</time>
      </trkpt>
      <trkpt lat="42.19817" lon="2.29615">
        <ele>982.2</ele>
        <time>2018-11-26T11:05:50Z</time>
      </trkpt>
      <trkpt lat="42.19819" lon="2.29613">
        <ele>983</ele>
        <time>2018-11-26T11:05:51Z</time>
      </trkpt>
      <trkpt lat="42.19821" lon="2.29611">
        <ele>983</ele>
        <time>2018-11-26T11:05:53Z</time>
      </trkpt>
      <trkpt lat="42.19823" lon="2.29608">
        <ele>983</ele>
        <time>2018-11-26T11:05:54Z</time>
      </trkpt>
      <trkpt lat="42.19825" lon="2.29606">
        <ele>983</ele>
        <time>2018-11-26T11:05:55Z</time>
      </trkpt>
      <trkpt lat="42.19828" lon="2.29604">
        <ele>983</ele>
        <time>2018-11-26T11:05:56Z</time>
      </trkpt>
      <trkpt lat="42.1983" lon="2.29601">
        <ele>983</ele>
        <time>2018-11-26T11:05:57Z</time>
      </trkpt>
      <trkpt lat="42.19832" lon="2.29599">
        <ele>983</ele>
        <time>2018-11-26T11:05:58Z</time>
      </trkpt>
      <trkpt lat="42.19834" lon="2.29598">
        <ele>982.1</ele>
        <time>2018-11-26T11:05:59Z</time>
      </trkpt>
      <trkpt lat="42.19836" lon="2.29596">
        <ele>982.8</ele>
        <time>2018-11-26T11:06:00Z</time>
      </trkpt>
      <trkpt lat="42.19838" lon="2.29594">
        <ele>983.1</ele>
        <time>2018-11-26T11:06:01Z</time>
      </trkpt>
      <trkpt lat="42.1984" lon="2.29591">
        <ele>983</ele>
        <time>2018-11-26T11:06:02Z</time>
      </trkpt>
      <trkpt lat="42.19842" lon="2.29589">
        <ele>983.1</ele>
        <time>2018-11-26T11:06:03Z</time>
      </trkpt>
      <trkpt lat="42.19844" lon="2.29588">
        <ele>983.1</ele>
        <time>2018-11-26T11:06:04Z</time>
      </trkpt>
      <trkpt lat="42.19846" lon="2.29586">
        <ele>983</ele>
        <time>2018-11-26T11:06:05Z</time>
      </trkpt>
      <trkpt lat="42.19847" lon="2.29584">
        <ele>983</ele>
        <time>2018-11-26T11:06:06Z</time>
      </trkpt>
      <trkpt lat="42.1985" lon="2.29582">
        <ele>983</ele>
        <time>2018-11-26T11:06:07Z</time>
      </trkpt>
      <trkpt lat="42.19851" lon="2.2958">
        <ele>983.1</ele>
        <time>2018-11-26T11:06:08Z</time>
      </trkpt>
      <trkpt lat="42.19853" lon="2.29577">
        <ele>983.1</ele>
        <time>2018-11-26T11:06:09Z</time>
      </trkpt>
      <trkpt lat="42.19855" lon="2.29575">
        <ele>985</ele>
        <time>2018-11-26T11:06:10Z</time>
      </trkpt>
      <trkpt lat="42.19857" lon="2.29572">
        <ele>985.5</ele>
        <time>2018-11-26T11:06:11Z</time>
      </trkpt>
      <trkpt lat="42.19859" lon="2.2957">
        <ele>986.1</ele>
        <time>2018-11-26T11:06:12Z</time>
      </trkpt>
      <trkpt lat="42.19861" lon="2.29568">
        <ele>986</ele>
        <time>2018-11-26T11:06:13Z</time>
      </trkpt>
      <trkpt lat="42.19862" lon="2.29567">
        <ele>987</ele>
        <time>2018-11-26T11:06:14Z</time>
      </trkpt>
      <trkpt lat="42.19864" lon="2.29565">
        <ele>987.1</ele>
        <time>2018-11-26T11:06:15Z</time>
      </trkpt>
      <trkpt lat="42.19867" lon="2.29563">
        <ele>987</ele>
        <time>2018-11-26T11:06:16Z</time>
      </trkpt>
      <trkpt lat="42.19869" lon="2.2956">
        <ele>986.9</ele>
        <time>2018-11-26T11:06:17Z</time>
      </trkpt>
      <trkpt lat="42.19872" lon="2.29558">
        <ele>986</ele>
        <time>2018-11-26T11:06:18Z</time>
      </trkpt>
      <trkpt lat="42.19874" lon="2.29556">
        <ele>986.2</ele>
        <time>2018-11-26T11:06:19Z</time>
      </trkpt>
      <trkpt lat="42.19876" lon="2.29554">
        <ele>988</ele>
        <time>2018-11-26T11:06:20Z</time>
      </trkpt>
      <trkpt lat="42.19877" lon="2.29552">
        <ele>988</ele>
        <time>2018-11-26T11:06:21Z</time>
      </trkpt>
      <trkpt lat="42.19875" lon="2.2955">
        <ele>988</ele>
        <time>2018-11-26T11:06:22Z</time>
      </trkpt>
      <trkpt lat="42.19877" lon="2.29549">
        <ele>987.1</ele>
        <time>2018-11-26T11:06:23Z</time>
      </trkpt>
      <trkpt lat="42.19879" lon="2.29547">
        <ele>987</ele>
        <time>2018-11-26T11:06:24Z</time>
      </trkpt>
      <trkpt lat="42.1988" lon="2.29544">
        <ele>987</ele>
        <time>2018-11-26T11:06:25Z</time>
      </trkpt>
      <trkpt lat="42.19881" lon="2.29542">
        <ele>987</ele>
        <time>2018-11-26T11:06:26Z</time>
      </trkpt>
      <trkpt lat="42.19883" lon="2.29539">
        <ele>986</ele>
        <time>2018-11-26T11:06:26Z</time>
      </trkpt>
      <trkpt lat="42.19884" lon="2.29537">
        <ele>986</ele>
        <time>2018-11-26T11:06:27Z</time>
      </trkpt>
      <trkpt lat="42.19885" lon="2.29534">
        <ele>986.1</ele>
        <time>2018-11-26T11:06:28Z</time>
      </trkpt>
      <trkpt lat="42.19887" lon="2.2953">
        <ele>986</ele>
        <time>2018-11-26T11:06:30Z</time>
      </trkpt>
      <trkpt lat="42.19888" lon="2.29527">
        <ele>986.1</ele>
        <time>2018-11-26T11:06:31Z</time>
      </trkpt>
      <trkpt lat="42.19889" lon="2.29524">
        <ele>986.1</ele>
        <time>2018-11-26T11:06:32Z</time>
      </trkpt>
      <trkpt lat="42.1989" lon="2.29521">
        <ele>986</ele>
        <time>2018-11-26T11:06:33Z</time>
      </trkpt>
      <trkpt lat="42.1989" lon="2.29518">
        <ele>986</ele>
        <time>2018-11-26T11:06:33Z</time>
      </trkpt>
      <trkpt lat="42.19891" lon="2.29515">
        <ele>986.1</ele>
        <time>2018-11-26T11:06:34Z</time>
      </trkpt>
      <trkpt lat="42.19891" lon="2.29511">
        <ele>986.1</ele>
        <time>2018-11-26T11:06:36Z</time>
      </trkpt>
      <trkpt lat="42.1989" lon="2.29507">
        <ele>987</ele>
        <time>2018-11-26T11:06:37Z</time>
      </trkpt>
      <trkpt lat="42.1989" lon="2.29504">
        <ele>987.1</ele>
        <time>2018-11-26T11:06:38Z</time>
      </trkpt>
      <trkpt lat="42.19891" lon="2.29501">
        <ele>987</ele>
        <time>2018-11-26T11:06:39Z</time>
      </trkpt>
      <trkpt lat="42.19891" lon="2.29498">
        <ele>987.3</ele>
        <time>2018-11-26T11:06:40Z</time>
      </trkpt>
      <trkpt lat="42.19891" lon="2.29494">
        <ele>988.1</ele>
        <time>2018-11-26T11:06:41Z</time>
      </trkpt>
      <trkpt lat="42.19891" lon="2.2949">
        <ele>988.1</ele>
        <time>2018-11-26T11:06:42Z</time>
      </trkpt>
      <trkpt lat="42.19891" lon="2.29486">
        <ele>989.1</ele>
        <time>2018-11-26T11:06:43Z</time>
      </trkpt>
      <trkpt lat="42.1989" lon="2.29483">
        <ele>989.1</ele>
        <time>2018-11-26T11:06:44Z</time>
      </trkpt>
      <trkpt lat="42.19889" lon="2.29479">
        <ele>989</ele>
        <time>2018-11-26T11:06:45Z</time>
      </trkpt>
      <trkpt lat="42.19889" lon="2.29477">
        <ele>990</ele>
        <time>2018-11-26T11:06:46Z</time>
      </trkpt>
      <trkpt lat="42.19888" lon="2.29473">
        <ele>990</ele>
        <time>2018-11-26T11:06:47Z</time>
      </trkpt>
      <trkpt lat="42.19888" lon="2.2947">
        <ele>990</ele>
        <time>2018-11-26T11:06:48Z</time>
      </trkpt>
      <trkpt lat="42.19888" lon="2.29467">
        <ele>991.1</ele>
        <time>2018-11-26T11:06:49Z</time>
      </trkpt>
      <trkpt lat="42.19888" lon="2.29463">
        <ele>991.2</ele>
        <time>2018-11-26T11:06:50Z</time>
      </trkpt>
      <trkpt lat="42.19888" lon="2.2946">
        <ele>992</ele>
        <time>2018-11-26T11:06:51Z</time>
      </trkpt>
      <trkpt lat="42.19888" lon="2.29458">
        <ele>992.1</ele>
        <time>2018-11-26T11:06:52Z</time>
      </trkpt>
      <trkpt lat="42.19888" lon="2.29454">
        <ele>992.1</ele>
        <time>2018-11-26T11:06:53Z</time>
      </trkpt>
      <trkpt lat="42.19888" lon="2.29451">
        <ele>992.1</ele>
        <time>2018-11-26T11:06:54Z</time>
      </trkpt>
      <trkpt lat="42.19888" lon="2.29448">
        <ele>993.1</ele>
        <time>2018-11-26T11:06:55Z</time>
      </trkpt>
      <trkpt lat="42.19888" lon="2.29445">
        <ele>993</ele>
        <time>2018-11-26T11:06:56Z</time>
      </trkpt>
      <trkpt lat="42.19889" lon="2.29441">
        <ele>994.2</ele>
        <time>2018-11-26T11:06:57Z</time>
      </trkpt>
      <trkpt lat="42.1989" lon="2.29438">
        <ele>995</ele>
        <time>2018-11-26T11:06:58Z</time>
      </trkpt>
      <trkpt lat="42.19891" lon="2.29434">
        <ele>995.1</ele>
        <time>2018-11-26T11:06:59Z</time>
      </trkpt>
      <trkpt lat="42.19891" lon="2.29431">
        <ele>995</ele>
        <time>2018-11-26T11:07:00Z</time>
      </trkpt>
      <trkpt lat="42.19891" lon="2.29427">
        <ele>995</ele>
        <time>2018-11-26T11:07:01Z</time>
      </trkpt>
      <trkpt lat="42.19891" lon="2.29423">
        <ele>995</ele>
        <time>2018-11-26T11:07:02Z</time>
      </trkpt>
      <trkpt lat="42.19892" lon="2.2942">
        <ele>995</ele>
        <time>2018-11-26T11:07:03Z</time>
      </trkpt>
      <trkpt lat="42.19893" lon="2.29417">
        <ele>995.1</ele>
        <time>2018-11-26T11:07:04Z</time>
      </trkpt>
      <trkpt lat="42.19893" lon="2.29414">
        <ele>995</ele>
        <time>2018-11-26T11:07:05Z</time>
      </trkpt>
      <trkpt lat="42.19893" lon="2.29411">
        <ele>995.1</ele>
        <time>2018-11-26T11:07:06Z</time>
      </trkpt>
      <trkpt lat="42.19893" lon="2.29407">
        <ele>996.1</ele>
        <time>2018-11-26T11:07:07Z</time>
      </trkpt>
      <trkpt lat="42.19893" lon="2.29404">
        <ele>995</ele>
        <time>2018-11-26T11:07:08Z</time>
      </trkpt>
      <trkpt lat="42.19892" lon="2.29401">
        <ele>995</ele>
        <time>2018-11-26T11:07:09Z</time>
      </trkpt>
      <trkpt lat="42.19892" lon="2.29397">
        <ele>995</ele>
        <time>2018-11-26T11:07:10Z</time>
      </trkpt>
      <trkpt lat="42.19892" lon="2.29393">
        <ele>995.1</ele>
        <time>2018-11-26T11:07:11Z</time>
      </trkpt>
      <trkpt lat="42.19892" lon="2.29389">
        <ele>995</ele>
        <time>2018-11-26T11:07:12Z</time>
      </trkpt>
      <trkpt lat="42.19893" lon="2.29385">
        <ele>995.2</ele>
        <time>2018-11-26T11:07:14Z</time>
      </trkpt>
      <trkpt lat="42.19893" lon="2.29381">
        <ele>996</ele>
        <time>2018-11-26T11:07:15Z</time>
      </trkpt>
      <trkpt lat="42.19893" lon="2.29378">
        <ele>996.1</ele>
        <time>2018-11-26T11:07:16Z</time>
      </trkpt>
      <trkpt lat="42.19893" lon="2.29374">
        <ele>997.1</ele>
        <time>2018-11-26T11:07:17Z</time>
      </trkpt>
      <trkpt lat="42.19893" lon="2.29371">
        <ele>997.1</ele>
        <time>2018-11-26T11:07:18Z</time>
      </trkpt>
      <trkpt lat="42.19893" lon="2.29367">
        <ele>997.1</ele>
        <time>2018-11-26T11:07:19Z</time>
      </trkpt>
      <trkpt lat="42.19893" lon="2.29363">
        <ele>997.1</ele>
        <time>2018-11-26T11:07:20Z</time>
      </trkpt>
      <trkpt lat="42.19893" lon="2.29359">
        <ele>998</ele>
        <time>2018-11-26T11:07:21Z</time>
      </trkpt>
      <trkpt lat="42.19893" lon="2.29356">
        <ele>999</ele>
        <time>2018-11-26T11:07:22Z</time>
      </trkpt>
      <trkpt lat="42.19893" lon="2.29352">
        <ele>999.1</ele>
        <time>2018-11-26T11:07:23Z</time>
      </trkpt>
      <trkpt lat="42.19893" lon="2.29348">
        <ele>1000</ele>
        <time>2018-11-26T11:07:24Z</time>
      </trkpt>
      <trkpt lat="42.19893" lon="2.29345">
        <ele>1000.1</ele>
        <time>2018-11-26T11:07:25Z</time>
      </trkpt>
      <trkpt lat="42.19892" lon="2.29343">
        <ele>1000.2</ele>
        <time>2018-11-26T11:07:26Z</time>
      </trkpt>
      <trkpt lat="42.19891" lon="2.29339">
        <ele>1002.1</ele>
        <time>2018-11-26T11:07:27Z</time>
      </trkpt>
      <trkpt lat="42.19891" lon="2.29336">
        <ele>1002.1</ele>
        <time>2018-11-26T11:07:28Z</time>
      </trkpt>
      <trkpt lat="42.19892" lon="2.29332">
        <ele>1002.2</ele>
        <time>2018-11-26T11:07:29Z</time>
      </trkpt>
      <trkpt lat="42.19894" lon="2.2933">
        <ele>1003.1</ele>
        <time>2018-11-26T11:07:30Z</time>
      </trkpt>
      <trkpt lat="42.19896" lon="2.29327">
        <ele>1003</ele>
        <time>2018-11-26T11:07:32Z</time>
      </trkpt>
      <trkpt lat="42.19898" lon="2.29325">
        <ele>1002</ele>
        <time>2018-11-26T11:07:33Z</time>
      </trkpt>
      <trkpt lat="42.19899" lon="2.29321">
        <ele>1002</ele>
        <time>2018-11-26T11:07:34Z</time>
      </trkpt>
      <trkpt lat="42.199" lon="2.29318">
        <ele>1003</ele>
        <time>2018-11-26T11:07:35Z</time>
      </trkpt>
      <trkpt lat="42.19901" lon="2.29316">
        <ele>1003</ele>
        <time>2018-11-26T11:07:36Z</time>
      </trkpt>
      <trkpt lat="42.19902" lon="2.29313">
        <ele>1003.5</ele>
        <time>2018-11-26T11:07:37Z</time>
      </trkpt>
      <trkpt lat="42.19903" lon="2.2931">
        <ele>1005</ele>
        <time>2018-11-26T11:07:38Z</time>
      </trkpt>
      <trkpt lat="42.19905" lon="2.29307">
        <ele>1006.1</ele>
        <time>2018-11-26T11:07:39Z</time>
      </trkpt>
      <trkpt lat="42.19908" lon="2.29305">
        <ele>1007.1</ele>
        <time>2018-11-26T11:07:40Z</time>
      </trkpt>
      <trkpt lat="42.1991" lon="2.29303">
        <ele>1008</ele>
        <time>2018-11-26T11:07:41Z</time>
      </trkpt>
      <trkpt lat="42.19911" lon="2.29301">
        <ele>1008.1</ele>
        <time>2018-11-26T11:07:42Z</time>
      </trkpt>
      <trkpt lat="42.19913" lon="2.29299">
        <ele>1009.1</ele>
        <time>2018-11-26T11:07:43Z</time>
      </trkpt>
      <trkpt lat="42.19915" lon="2.29296">
        <ele>1010</ele>
        <time>2018-11-26T11:07:44Z</time>
      </trkpt>
      <trkpt lat="42.19915" lon="2.29293">
        <ele>1010</ele>
        <time>2018-11-26T11:07:45Z</time>
      </trkpt>
      <trkpt lat="42.19918" lon="2.29291">
        <ele>1010.2</ele>
        <time>2018-11-26T11:07:46Z</time>
      </trkpt>
      <trkpt lat="42.19919" lon="2.29289">
        <ele>1012</ele>
        <time>2018-11-26T11:07:47Z</time>
      </trkpt>
      <trkpt lat="42.1992" lon="2.29286">
        <ele>1012</ele>
        <time>2018-11-26T11:07:48Z</time>
      </trkpt>
      <trkpt lat="42.19922" lon="2.29283">
        <ele>1013.2</ele>
        <time>2018-11-26T11:07:49Z</time>
      </trkpt>
      <trkpt lat="42.19923" lon="2.29282">
        <ele>1014</ele>
        <time>2018-11-26T11:07:49Z</time>
      </trkpt>
      <trkpt lat="42.19924" lon="2.29279">
        <ele>1014.1</ele>
        <time>2018-11-26T11:07:50Z</time>
      </trkpt>
      <trkpt lat="42.19925" lon="2.29276">
        <ele>1014.1</ele>
        <time>2018-11-26T11:07:51Z</time>
      </trkpt>
      <trkpt lat="42.19926" lon="2.29274">
        <ele>1014.1</ele>
        <time>2018-11-26T11:07:52Z</time>
      </trkpt>
      <trkpt lat="42.19928" lon="2.29272">
        <ele>1014.1</ele>
        <time>2018-11-26T11:07:53Z</time>
      </trkpt>
      <trkpt lat="42.19929" lon="2.2927">
        <ele>1014.2</ele>
        <time>2018-11-26T11:07:54Z</time>
      </trkpt>
      <trkpt lat="42.1993" lon="2.29268">
        <ele>1015</ele>
        <time>2018-11-26T11:07:54Z</time>
      </trkpt>
      <trkpt lat="42.19932" lon="2.29265">
        <ele>1015</ele>
        <time>2018-11-26T11:07:55Z</time>
      </trkpt>
      <trkpt lat="42.19933" lon="2.29262">
        <ele>1015</ele>
        <time>2018-11-26T11:07:56Z</time>
      </trkpt>
      <trkpt lat="42.19935" lon="2.29259">
        <ele>1015</ele>
        <time>2018-11-26T11:07:58Z</time>
      </trkpt>
      <trkpt lat="42.19938" lon="2.29255">
        <ele>1015</ele>
        <time>2018-11-26T11:07:59Z</time>
      </trkpt>
      <trkpt lat="42.1994" lon="2.29252">
        <ele>1015.1</ele>
        <time>2018-11-26T11:08:01Z</time>
      </trkpt>
      <trkpt lat="42.19942" lon="2.29248">
        <ele>1016</ele>
        <time>2018-11-26T11:08:02Z</time>
      </trkpt>
      <trkpt lat="42.19945" lon="2.29245">
        <ele>1016</ele>
        <time>2018-11-26T11:08:03Z</time>
      </trkpt>
      <trkpt lat="42.19948" lon="2.29243">
        <ele>1016.2</ele>
        <time>2018-11-26T11:08:05Z</time>
      </trkpt>
      <trkpt lat="42.19949" lon="2.29242">
        <ele>1017</ele>
        <time>2018-11-26T11:08:05Z</time>
      </trkpt>
      <trkpt lat="42.19951" lon="2.29241">
        <ele>1017.1</ele>
        <time>2018-11-26T11:08:06Z</time>
      </trkpt>
      <trkpt lat="42.19955" lon="2.29236">
        <ele>1017.1</ele>
        <time>2018-11-26T11:08:08Z</time>
      </trkpt>
      <trkpt lat="42.19957" lon="2.29233">
        <ele>1017.1</ele>
        <time>2018-11-26T11:08:10Z</time>
      </trkpt>
      <trkpt lat="42.19959" lon="2.2923">
        <ele>1017</ele>
        <time>2018-11-26T11:08:11Z</time>
      </trkpt>
      <trkpt lat="42.19959" lon="2.29226">
        <ele>1017.1</ele>
        <time>2018-11-26T11:08:12Z</time>
      </trkpt>
      <trkpt lat="42.1996" lon="2.29223">
        <ele>1017</ele>
        <time>2018-11-26T11:08:13Z</time>
      </trkpt>
      <trkpt lat="42.19961" lon="2.29219">
        <ele>1017</ele>
        <time>2018-11-26T11:08:14Z</time>
      </trkpt>
      <trkpt lat="42.19963" lon="2.29215">
        <ele>1017</ele>
        <time>2018-11-26T11:08:16Z</time>
      </trkpt>
      <trkpt lat="42.19964" lon="2.29211">
        <ele>1017.1</ele>
        <time>2018-11-26T11:08:17Z</time>
      </trkpt>
      <trkpt lat="42.19965" lon="2.29208">
        <ele>1018.1</ele>
        <time>2018-11-26T11:08:18Z</time>
      </trkpt>
      <trkpt lat="42.19966" lon="2.29204">
        <ele>1018.3</ele>
        <time>2018-11-26T11:08:19Z</time>
      </trkpt>
      <trkpt lat="42.19968" lon="2.29201">
        <ele>1019.1</ele>
        <time>2018-11-26T11:08:20Z</time>
      </trkpt>
      <trkpt lat="42.1997" lon="2.29198">
        <ele>1019.1</ele>
        <time>2018-11-26T11:08:21Z</time>
      </trkpt>
      <trkpt lat="42.19971" lon="2.29196">
        <ele>1019.2</ele>
        <time>2018-11-26T11:08:22Z</time>
      </trkpt>
      <trkpt lat="42.19972" lon="2.29192">
        <ele>1020</ele>
        <time>2018-11-26T11:08:23Z</time>
      </trkpt>
      <trkpt lat="42.19973" lon="2.29189">
        <ele>1021</ele>
        <time>2018-11-26T11:08:24Z</time>
      </trkpt>
      <trkpt lat="42.19975" lon="2.29185">
        <ele>1022.1</ele>
        <time>2018-11-26T11:08:26Z</time>
      </trkpt>
      <trkpt lat="42.19977" lon="2.29181">
        <ele>1022</ele>
        <time>2018-11-26T11:08:27Z</time>
      </trkpt>
      <trkpt lat="42.19979" lon="2.29178">
        <ele>1022</ele>
        <time>2018-11-26T11:08:28Z</time>
      </trkpt>
      <trkpt lat="42.1998" lon="2.29175">
        <ele>1023.3</ele>
        <time>2018-11-26T11:08:29Z</time>
      </trkpt>
      <trkpt lat="42.19981" lon="2.29173">
        <ele>1024.2</ele>
        <time>2018-11-26T11:08:30Z</time>
      </trkpt>
      <trkpt lat="42.19982" lon="2.2917">
        <ele>1025.1</ele>
        <time>2018-11-26T11:08:31Z</time>
      </trkpt>
      <trkpt lat="42.19983" lon="2.29168">
        <ele>1025.1</ele>
        <time>2018-11-26T11:08:32Z</time>
      </trkpt>
      <trkpt lat="42.19985" lon="2.29166">
        <ele>1025</ele>
        <time>2018-11-26T11:08:33Z</time>
      </trkpt>
      <trkpt lat="42.19987" lon="2.29164">
        <ele>1025.1</ele>
        <time>2018-11-26T11:08:34Z</time>
      </trkpt>
      <trkpt lat="42.19988" lon="2.29163">
        <ele>1025.2</ele>
        <time>2018-11-26T11:08:34Z</time>
      </trkpt>
      <trkpt lat="42.19991" lon="2.29161">
        <ele>1026.2</ele>
        <time>2018-11-26T11:08:36Z</time>
      </trkpt>
      <trkpt lat="42.19993" lon="2.29159">
        <ele>1027</ele>
        <time>2018-11-26T11:08:37Z</time>
      </trkpt>
      <trkpt lat="42.19995" lon="2.29157">
        <ele>1027.2</ele>
        <time>2018-11-26T11:08:38Z</time>
      </trkpt>
      <trkpt lat="42.19998" lon="2.29155">
        <ele>1028</ele>
        <time>2018-11-26T11:08:39Z</time>
      </trkpt>
      <trkpt lat="42.2" lon="2.29152">
        <ele>1028</ele>
        <time>2018-11-26T11:08:40Z</time>
      </trkpt>
      <trkpt lat="42.20002" lon="2.29148">
        <ele>1028.1</ele>
        <time>2018-11-26T11:08:42Z</time>
      </trkpt>
      <trkpt lat="42.20004" lon="2.29147">
        <ele>1029.1</ele>
        <time>2018-11-26T11:08:43Z</time>
      </trkpt>
      <trkpt lat="42.20007" lon="2.29146">
        <ele>1029</ele>
        <time>2018-11-26T11:08:44Z</time>
      </trkpt>
      <trkpt lat="42.20009" lon="2.29146">
        <ele>1030.1</ele>
        <time>2018-11-26T11:08:45Z</time>
      </trkpt>
      <trkpt lat="42.20012" lon="2.29145">
        <ele>1031</ele>
        <time>2018-11-26T11:08:46Z</time>
      </trkpt>
      <trkpt lat="42.20014" lon="2.29144">
        <ele>1031.2</ele>
        <time>2018-11-26T11:08:47Z</time>
      </trkpt>
      <trkpt lat="42.20016" lon="2.29142">
        <ele>1032.1</ele>
        <time>2018-11-26T11:08:48Z</time>
      </trkpt>
      <trkpt lat="42.20018" lon="2.2914">
        <ele>1033.1</ele>
        <time>2018-11-26T11:08:49Z</time>
      </trkpt>
      <trkpt lat="42.20021" lon="2.29139">
        <ele>1033</ele>
        <time>2018-11-26T11:08:50Z</time>
      </trkpt>
      <trkpt lat="42.20024" lon="2.29139">
        <ele>1034.1</ele>
        <time>2018-11-26T11:08:51Z</time>
      </trkpt>
      <trkpt lat="42.20026" lon="2.29138">
        <ele>1034</ele>
        <time>2018-11-26T11:08:52Z</time>
      </trkpt>
      <trkpt lat="42.20028" lon="2.29138">
        <ele>1035.1</ele>
        <time>2018-11-26T11:08:53Z</time>
      </trkpt>
      <trkpt lat="42.2003" lon="2.29137">
        <ele>1036.1</ele>
        <time>2018-11-26T11:08:53Z</time>
      </trkpt>
      <trkpt lat="42.20032" lon="2.29134">
        <ele>1036.2</ele>
        <time>2018-11-26T11:08:55Z</time>
      </trkpt>
      <trkpt lat="42.20034" lon="2.29132">
        <ele>1037.1</ele>
        <time>2018-11-26T11:08:56Z</time>
      </trkpt>
      <trkpt lat="42.20035" lon="2.2913">
        <ele>1037</ele>
        <time>2018-11-26T11:08:56Z</time>
      </trkpt>
      <trkpt lat="42.20037" lon="2.29127">
        <ele>1038.2</ele>
        <time>2018-11-26T11:08:58Z</time>
      </trkpt>
      <trkpt lat="42.20037" lon="2.29124">
        <ele>1039.1</ele>
        <time>2018-11-26T11:08:58Z</time>
      </trkpt>
      <trkpt lat="42.20038" lon="2.29121">
        <ele>1039.1</ele>
        <time>2018-11-26T11:08:59Z</time>
      </trkpt>
      <trkpt lat="42.20041" lon="2.29118">
        <ele>1039.1</ele>
        <time>2018-11-26T11:09:01Z</time>
      </trkpt>
      <trkpt lat="42.20042" lon="2.29117">
        <ele>1040</ele>
        <time>2018-11-26T11:09:01Z</time>
      </trkpt>
      <trkpt lat="42.20044" lon="2.29114">
        <ele>1040.1</ele>
        <time>2018-11-26T11:09:03Z</time>
      </trkpt>
      <trkpt lat="42.20046" lon="2.2911">
        <ele>1040</ele>
        <time>2018-11-26T11:09:04Z</time>
      </trkpt>
      <trkpt lat="42.20047" lon="2.29108">
        <ele>1040</ele>
        <time>2018-11-26T11:09:05Z</time>
      </trkpt>
      <trkpt lat="42.20048" lon="2.29106">
        <ele>1040.1</ele>
        <time>2018-11-26T11:09:06Z</time>
      </trkpt>
      <trkpt lat="42.20049" lon="2.29103">
        <ele>1040.1</ele>
        <time>2018-11-26T11:09:06Z</time>
      </trkpt>
      <trkpt lat="42.20051" lon="2.291">
        <ele>1040.2</ele>
        <time>2018-11-26T11:09:08Z</time>
      </trkpt>
      <trkpt lat="42.20053" lon="2.29097">
        <ele>1042</ele>
        <time>2018-11-26T11:09:09Z</time>
      </trkpt>
      <trkpt lat="42.20055" lon="2.29096">
        <ele>1042.1</ele>
        <time>2018-11-26T11:09:10Z</time>
      </trkpt>
      <trkpt lat="42.20057" lon="2.29095">
        <ele>1042.2</ele>
        <time>2018-11-26T11:09:10Z</time>
      </trkpt>
      <trkpt lat="42.20058" lon="2.29093">
        <ele>1043</ele>
        <time>2018-11-26T11:09:11Z</time>
      </trkpt>
      <trkpt lat="42.2006" lon="2.29091">
        <ele>1044.2</ele>
        <time>2018-11-26T11:09:12Z</time>
      </trkpt>
      <trkpt lat="42.20062" lon="2.29092">
        <ele>1045.1</ele>
        <time>2018-11-26T11:09:13Z</time>
      </trkpt>
      <trkpt lat="42.20062" lon="2.29095">
        <ele>1047.1</ele>
        <time>2018-11-26T11:09:14Z</time>
      </trkpt>
      <trkpt lat="42.20063" lon="2.29098">
        <ele>1047.1</ele>
        <time>2018-11-26T11:09:15Z</time>
      </trkpt>
      <trkpt lat="42.20063" lon="2.29101">
        <ele>1049.1</ele>
        <time>2018-11-26T11:09:16Z</time>
      </trkpt>
      <trkpt lat="42.20062" lon="2.29104">
        <ele>1051</ele>
        <time>2018-11-26T11:09:17Z</time>
      </trkpt>
      <trkpt lat="42.20062" lon="2.29108">
        <ele>1051.1</ele>
        <time>2018-11-26T11:09:18Z</time>
      </trkpt>
      <trkpt lat="42.20061" lon="2.2911">
        <ele>1052.1</ele>
        <time>2018-11-26T11:09:19Z</time>
      </trkpt>
      <trkpt lat="42.20059" lon="2.29113">
        <ele>1051.1</ele>
        <time>2018-11-26T11:09:20Z</time>
      </trkpt>
      <trkpt lat="42.20058" lon="2.29116">
        <ele>1051</ele>
        <time>2018-11-26T11:09:21Z</time>
      </trkpt>
      <trkpt lat="42.20058" lon="2.29119">
        <ele>1051.1</ele>
        <time>2018-11-26T11:09:22Z</time>
      </trkpt>
      <trkpt lat="42.20057" lon="2.29122">
        <ele>1052.5</ele>
        <time>2018-11-26T11:09:22Z</time>
      </trkpt>
      <trkpt lat="42.20056" lon="2.29124">
        <ele>1054.3</ele>
        <time>2018-11-26T11:09:23Z</time>
      </trkpt>
      <trkpt lat="42.20056" lon="2.29128">
        <ele>1055</ele>
        <time>2018-11-26T11:09:24Z</time>
      </trkpt>
      <trkpt lat="42.20057" lon="2.29133">
        <ele>1055</ele>
        <time>2018-11-26T11:09:26Z</time>
      </trkpt>
      <trkpt lat="42.20058" lon="2.29135">
        <ele>1056</ele>
        <time>2018-11-26T11:09:27Z</time>
      </trkpt>
      <trkpt lat="42.20059" lon="2.29133">
        <ele>1056.2</ele>
        <time>2018-11-26T11:09:27Z</time>
      </trkpt>
      <trkpt lat="42.20061" lon="2.2913">
        <ele>1057</ele>
        <time>2018-11-26T11:09:28Z</time>
      </trkpt>
      <trkpt lat="42.20063" lon="2.29128">
        <ele>1057.1</ele>
        <time>2018-11-26T11:09:30Z</time>
      </trkpt>
      <trkpt lat="42.20065" lon="2.29127">
        <ele>1057.1</ele>
        <time>2018-11-26T11:09:30Z</time>
      </trkpt>
      <trkpt lat="42.20066" lon="2.29125">
        <ele>1059</ele>
        <time>2018-11-26T11:09:31Z</time>
      </trkpt>
      <trkpt lat="42.20068" lon="2.29123">
        <ele>1060.1</ele>
        <time>2018-11-26T11:09:32Z</time>
      </trkpt>
      <trkpt lat="42.20069" lon="2.29122">
        <ele>1060.2</ele>
        <time>2018-11-26T11:09:33Z</time>
      </trkpt>
      <trkpt lat="42.20071" lon="2.29119">
        <ele>1061.1</ele>
        <time>2018-11-26T11:09:34Z</time>
      </trkpt>
      <trkpt lat="42.20072" lon="2.29116">
        <ele>1061.1</ele>
        <time>2018-11-26T11:09:35Z</time>
      </trkpt>
      <trkpt lat="42.20074" lon="2.29113">
        <ele>1061.1</ele>
        <time>2018-11-26T11:09:36Z</time>
      </trkpt>
      <trkpt lat="42.20076" lon="2.29111">
        <ele>1062</ele>
        <time>2018-11-26T11:09:37Z</time>
      </trkpt>
      <trkpt lat="42.20076" lon="2.29107">
        <ele>1062.1</ele>
        <time>2018-11-26T11:09:38Z</time>
      </trkpt>
      <trkpt lat="42.20077" lon="2.29105">
        <ele>1063.2</ele>
        <time>2018-11-26T11:09:39Z</time>
      </trkpt>
      <trkpt lat="42.20079" lon="2.29103">
        <ele>1064.1</ele>
        <time>2018-11-26T11:09:40Z</time>
      </trkpt>
      <trkpt lat="42.20081" lon="2.29101">
        <ele>1065</ele>
        <time>2018-11-26T11:09:41Z</time>
      </trkpt>
      <trkpt lat="42.20083" lon="2.29098">
        <ele>1065.1</ele>
        <time>2018-11-26T11:09:42Z</time>
      </trkpt>
      <trkpt lat="42.20085" lon="2.29096">
        <ele>1066</ele>
        <time>2018-11-26T11:09:43Z</time>
      </trkpt>
      <trkpt lat="42.20087" lon="2.29095">
        <ele>1066.1</ele>
        <time>2018-11-26T11:09:44Z</time>
      </trkpt>
      <trkpt lat="42.20089" lon="2.29093">
        <ele>1065.1</ele>
        <time>2018-11-26T11:09:45Z</time>
      </trkpt>
      <trkpt lat="42.20091" lon="2.29091">
        <ele>1066.2</ele>
        <time>2018-11-26T11:09:46Z</time>
      </trkpt>
      <trkpt lat="42.20092" lon="2.29089">
        <ele>1067.3</ele>
        <time>2018-11-26T11:09:46Z</time>
      </trkpt>
      <trkpt lat="42.20094" lon="2.29088">
        <ele>1068</ele>
        <time>2018-11-26T11:09:47Z</time>
      </trkpt>
      <trkpt lat="42.20097" lon="2.29089">
        <ele>1068.1</ele>
        <time>2018-11-26T11:09:48Z</time>
      </trkpt>
      <trkpt lat="42.20099" lon="2.29088">
        <ele>1068</ele>
        <time>2018-11-26T11:09:49Z</time>
      </trkpt>
      <trkpt lat="42.201" lon="2.29087">
        <ele>1069</ele>
        <time>2018-11-26T11:09:50Z</time>
      </trkpt>
      <trkpt lat="42.20102" lon="2.29086">
        <ele>1069.2</ele>
        <time>2018-11-26T11:09:51Z</time>
      </trkpt>
      <trkpt lat="42.20104" lon="2.29084">
        <ele>1070.1</ele>
        <time>2018-11-26T11:09:52Z</time>
      </trkpt>
      <trkpt lat="42.20106" lon="2.29083">
        <ele>1070.1</ele>
        <time>2018-11-26T11:09:53Z</time>
      </trkpt>
      <trkpt lat="42.20109" lon="2.29081">
        <ele>1071</ele>
        <time>2018-11-26T11:09:54Z</time>
      </trkpt>
      <trkpt lat="42.20111" lon="2.29081">
        <ele>1071.1</ele>
        <time>2018-11-26T11:09:55Z</time>
      </trkpt>
      <trkpt lat="42.20114" lon="2.29082">
        <ele>1070.7</ele>
        <time>2018-11-26T11:09:56Z</time>
      </trkpt>
      <trkpt lat="42.20117" lon="2.29083">
        <ele>1070.1</ele>
        <time>2018-11-26T11:09:57Z</time>
      </trkpt>
      <trkpt lat="42.2012" lon="2.29084">
        <ele>1070</ele>
        <time>2018-11-26T11:09:58Z</time>
      </trkpt>
      <trkpt lat="42.20122" lon="2.29083">
        <ele>1070.1</ele>
        <time>2018-11-26T11:09:59Z</time>
      </trkpt>
      <trkpt lat="42.20125" lon="2.29084">
        <ele>1071.1</ele>
        <time>2018-11-26T11:10:00Z</time>
      </trkpt>
      <trkpt lat="42.20127" lon="2.29084">
        <ele>1071.1</ele>
        <time>2018-11-26T11:10:01Z</time>
      </trkpt>
      <trkpt lat="42.2013" lon="2.29086">
        <ele>1072</ele>
        <time>2018-11-26T11:10:02Z</time>
      </trkpt>
      <trkpt lat="42.20133" lon="2.29087">
        <ele>1072</ele>
        <time>2018-11-26T11:10:04Z</time>
      </trkpt>
      <trkpt lat="42.20135" lon="2.29088">
        <ele>1073.1</ele>
        <time>2018-11-26T11:10:05Z</time>
      </trkpt>
      <trkpt lat="42.20137" lon="2.29089">
        <ele>1073.1</ele>
        <time>2018-11-26T11:10:05Z</time>
      </trkpt>
      <trkpt lat="42.20139" lon="2.29089">
        <ele>1073.1</ele>
        <time>2018-11-26T11:10:06Z</time>
      </trkpt>
      <trkpt lat="42.20141" lon="2.29088">
        <ele>1074</ele>
        <time>2018-11-26T11:10:07Z</time>
      </trkpt>
      <trkpt lat="42.20143" lon="2.29088">
        <ele>1074</ele>
        <time>2018-11-26T11:10:08Z</time>
      </trkpt>
      <trkpt lat="42.20146" lon="2.29087">
        <ele>1075.1</ele>
        <time>2018-11-26T11:10:09Z</time>
      </trkpt>
      <trkpt lat="42.20148" lon="2.29089">
        <ele>1074.7</ele>
        <time>2018-11-26T11:10:10Z</time>
      </trkpt>
      <trkpt lat="42.20149" lon="2.29092">
        <ele>1074.1</ele>
        <time>2018-11-26T11:10:11Z</time>
      </trkpt>
      <trkpt lat="42.20152" lon="2.29093">
        <ele>1074</ele>
        <time>2018-11-26T11:10:12Z</time>
      </trkpt>
      <trkpt lat="42.20154" lon="2.29095">
        <ele>1074</ele>
        <time>2018-11-26T11:10:13Z</time>
      </trkpt>
      <trkpt lat="42.20157" lon="2.29097">
        <ele>1074</ele>
        <time>2018-11-26T11:10:14Z</time>
      </trkpt>
      <trkpt lat="42.20159" lon="2.29099">
        <ele>1074</ele>
        <time>2018-11-26T11:10:15Z</time>
      </trkpt>
      <trkpt lat="42.20162" lon="2.29101">
        <ele>1074.3</ele>
        <time>2018-11-26T11:10:17Z</time>
      </trkpt>
      <trkpt lat="42.20165" lon="2.29101">
        <ele>1075.1</ele>
        <time>2018-11-26T11:10:18Z</time>
      </trkpt>
      <trkpt lat="42.20167" lon="2.29101">
        <ele>1075.1</ele>
        <time>2018-11-26T11:10:19Z</time>
      </trkpt>
      <trkpt lat="42.2017" lon="2.29102">
        <ele>1075</ele>
        <time>2018-11-26T11:10:20Z</time>
      </trkpt>
      <trkpt lat="42.20174" lon="2.29103">
        <ele>1074.7</ele>
        <time>2018-11-26T11:10:21Z</time>
      </trkpt>
      <trkpt lat="42.20176" lon="2.29104">
        <ele>1075</ele>
        <time>2018-11-26T11:10:23Z</time>
      </trkpt>
      <trkpt lat="42.20179" lon="2.29105">
        <ele>1075.1</ele>
        <time>2018-11-26T11:10:24Z</time>
      </trkpt>
      <trkpt lat="42.20181" lon="2.29105">
        <ele>1076</ele>
        <time>2018-11-26T11:10:25Z</time>
      </trkpt>
      <trkpt lat="42.20185" lon="2.29106">
        <ele>1076</ele>
        <time>2018-11-26T11:10:26Z</time>
      </trkpt>
      <trkpt lat="42.20188" lon="2.29105">
        <ele>1076</ele>
        <time>2018-11-26T11:10:28Z</time>
      </trkpt>
      <trkpt lat="42.20191" lon="2.29106">
        <ele>1076</ele>
        <time>2018-11-26T11:10:29Z</time>
      </trkpt>
      <trkpt lat="42.20193" lon="2.29108">
        <ele>1077.1</ele>
        <time>2018-11-26T11:10:29Z</time>
      </trkpt>
      <trkpt lat="42.20193" lon="2.29111">
        <ele>1077.1</ele>
        <time>2018-11-26T11:10:30Z</time>
      </trkpt>
      <trkpt lat="42.20193" lon="2.29114">
        <ele>1077</ele>
        <time>2018-11-26T11:10:31Z</time>
      </trkpt>
      <trkpt lat="42.20194" lon="2.29118">
        <ele>1077</ele>
        <time>2018-11-26T11:10:33Z</time>
      </trkpt>
      <trkpt lat="42.20196" lon="2.2912">
        <ele>1077.1</ele>
        <time>2018-11-26T11:10:34Z</time>
      </trkpt>
      <trkpt lat="42.20198" lon="2.29121">
        <ele>1077.1</ele>
        <time>2018-11-26T11:10:35Z</time>
      </trkpt>
      <trkpt lat="42.202" lon="2.29123">
        <ele>1076.8</ele>
        <time>2018-11-26T11:10:35Z</time>
      </trkpt>
      <trkpt lat="42.20203" lon="2.29123">
        <ele>1076.1</ele>
        <time>2018-11-26T11:10:36Z</time>
      </trkpt>
      <trkpt lat="42.20205" lon="2.29123">
        <ele>1076</ele>
        <time>2018-11-26T11:10:37Z</time>
      </trkpt>
      <trkpt lat="42.20207" lon="2.29124">
        <ele>1076</ele>
        <time>2018-11-26T11:10:38Z</time>
      </trkpt>
      <trkpt lat="42.20209" lon="2.29124">
        <ele>1076</ele>
        <time>2018-11-26T11:10:39Z</time>
      </trkpt>
      <trkpt lat="42.20211" lon="2.29126">
        <ele>1076</ele>
        <time>2018-11-26T11:10:40Z</time>
      </trkpt>
      <trkpt lat="42.20214" lon="2.29129">
        <ele>1076</ele>
        <time>2018-11-26T11:10:41Z</time>
      </trkpt>
      <trkpt lat="42.20215" lon="2.29128">
        <ele>1077</ele>
        <time>2018-11-26T11:10:42Z</time>
      </trkpt>
      <trkpt lat="42.20216" lon="2.29124">
        <ele>1078</ele>
        <time>2018-11-26T11:10:43Z</time>
      </trkpt>
      <trkpt lat="42.20218" lon="2.29122">
        <ele>1078.1</ele>
        <time>2018-11-26T11:10:44Z</time>
      </trkpt>
      <trkpt lat="42.20219" lon="2.29119">
        <ele>1079</ele>
        <time>2018-11-26T11:10:45Z</time>
      </trkpt>
      <trkpt lat="42.20221" lon="2.29117">
        <ele>1079.1</ele>
        <time>2018-11-26T11:10:46Z</time>
      </trkpt>
      <trkpt lat="42.20222" lon="2.29115">
        <ele>1079.1</ele>
        <time>2018-11-26T11:10:47Z</time>
      </trkpt>
      <trkpt lat="42.20225" lon="2.29111">
        <ele>1079</ele>
        <time>2018-11-26T11:10:49Z</time>
      </trkpt>
      <trkpt lat="42.20227" lon="2.29108">
        <ele>1081</ele>
        <time>2018-11-26T11:10:50Z</time>
      </trkpt>
      <trkpt lat="42.20229" lon="2.29107">
        <ele>1081.1</ele>
        <time>2018-11-26T11:10:51Z</time>
      </trkpt>
      <trkpt lat="42.20231" lon="2.29104">
        <ele>1081.3</ele>
        <time>2018-11-26T11:10:52Z</time>
      </trkpt>
      <trkpt lat="42.20233" lon="2.29103">
        <ele>1082</ele>
        <time>2018-11-26T11:10:53Z</time>
      </trkpt>
      <trkpt lat="42.20235" lon="2.29101">
        <ele>1082</ele>
        <time>2018-11-26T11:10:54Z</time>
      </trkpt>
      <trkpt lat="42.20236" lon="2.291">
        <ele>1082.1</ele>
        <time>2018-11-26T11:10:54Z</time>
      </trkpt>
      <trkpt lat="42.20238" lon="2.29098">
        <ele>1083</ele>
        <time>2018-11-26T11:10:55Z</time>
      </trkpt>
      <trkpt lat="42.2024" lon="2.29097">
        <ele>1083</ele>
        <time>2018-11-26T11:10:56Z</time>
      </trkpt>
      <trkpt lat="42.20242" lon="2.29096">
        <ele>1083.2</ele>
        <time>2018-11-26T11:10:57Z</time>
      </trkpt>
      <trkpt lat="42.20244" lon="2.29095">
        <ele>1084</ele>
        <time>2018-11-26T11:10:58Z</time>
      </trkpt>
      <trkpt lat="42.20246" lon="2.29095">
        <ele>1084</ele>
        <time>2018-11-26T11:10:59Z</time>
      </trkpt>
      <trkpt lat="42.20249" lon="2.29095">
        <ele>1084</ele>
        <time>2018-11-26T11:11:00Z</time>
      </trkpt>
      <trkpt lat="42.20251" lon="2.29094">
        <ele>1084.2</ele>
        <time>2018-11-26T11:11:01Z</time>
      </trkpt>
      <trkpt lat="42.20254" lon="2.29094">
        <ele>1085.1</ele>
        <time>2018-11-26T11:11:02Z</time>
      </trkpt>
      <trkpt lat="42.20256" lon="2.29093">
        <ele>1085</ele>
        <time>2018-11-26T11:11:03Z</time>
      </trkpt>
      <trkpt lat="42.20258" lon="2.29093">
        <ele>1085</ele>
        <time>2018-11-26T11:11:04Z</time>
      </trkpt>
      <trkpt lat="42.20261" lon="2.29092">
        <ele>1085</ele>
        <time>2018-11-26T11:11:05Z</time>
      </trkpt>
      <trkpt lat="42.20263" lon="2.29093">
        <ele>1085.1</ele>
        <time>2018-11-26T11:11:06Z</time>
      </trkpt>
      <trkpt lat="42.20266" lon="2.29092">
        <ele>1086.4</ele>
        <time>2018-11-26T11:11:07Z</time>
      </trkpt>
      <trkpt lat="42.20269" lon="2.29092">
        <ele>1088</ele>
        <time>2018-11-26T11:11:08Z</time>
      </trkpt>
      <trkpt lat="42.20273" lon="2.29092">
        <ele>1088.3</ele>
        <time>2018-11-26T11:11:10Z</time>
      </trkpt>
      <trkpt lat="42.20275" lon="2.29091">
        <ele>1089.1</ele>
        <time>2018-11-26T11:11:10Z</time>
      </trkpt>
      <trkpt lat="42.20277" lon="2.2909">
        <ele>1089</ele>
        <time>2018-11-26T11:11:11Z</time>
      </trkpt>
      <trkpt lat="42.2028" lon="2.29089">
        <ele>1089.3</ele>
        <time>2018-11-26T11:11:12Z</time>
      </trkpt>
      <trkpt lat="42.20282" lon="2.29089">
        <ele>1090.1</ele>
        <time>2018-11-26T11:11:13Z</time>
      </trkpt>
      <trkpt lat="42.20283" lon="2.29088">
        <ele>1090</ele>
        <time>2018-11-26T11:11:14Z</time>
      </trkpt>
      <trkpt lat="42.20285" lon="2.29086">
        <ele>1090</ele>
        <time>2018-11-26T11:11:15Z</time>
      </trkpt>
      <trkpt lat="42.20287" lon="2.29085">
        <ele>1090</ele>
        <time>2018-11-26T11:11:16Z</time>
      </trkpt>
      <trkpt lat="42.2029" lon="2.29083">
        <ele>1090.2</ele>
        <time>2018-11-26T11:11:17Z</time>
      </trkpt>
      <trkpt lat="42.20292" lon="2.29082">
        <ele>1091.1</ele>
        <time>2018-11-26T11:11:18Z</time>
      </trkpt>
      <trkpt lat="42.20294" lon="2.29081">
        <ele>1091</ele>
        <time>2018-11-26T11:11:19Z</time>
      </trkpt>
      <trkpt lat="42.20296" lon="2.29082">
        <ele>1091.1</ele>
        <time>2018-11-26T11:11:20Z</time>
      </trkpt>
      <trkpt lat="42.20298" lon="2.2908">
        <ele>1091.1</ele>
        <time>2018-11-26T11:11:21Z</time>
      </trkpt>
      <trkpt lat="42.203" lon="2.29078">
        <ele>1091.1</ele>
        <time>2018-11-26T11:11:21Z</time>
      </trkpt>
      <trkpt lat="42.20301" lon="2.29076">
        <ele>1091</ele>
        <time>2018-11-26T11:11:22Z</time>
      </trkpt>
      <trkpt lat="42.20304" lon="2.29075">
        <ele>1091</ele>
        <time>2018-11-26T11:11:23Z</time>
      </trkpt>
      <trkpt lat="42.20306" lon="2.29074">
        <ele>1091.1</ele>
        <time>2018-11-26T11:11:24Z</time>
      </trkpt>
      <trkpt lat="42.20309" lon="2.29073">
        <ele>1092.1</ele>
        <time>2018-11-26T11:11:26Z</time>
      </trkpt>
      <trkpt lat="42.20312" lon="2.29073">
        <ele>1092</ele>
        <time>2018-11-26T11:11:27Z</time>
      </trkpt>
      <trkpt lat="42.20315" lon="2.29073">
        <ele>1092</ele>
        <time>2018-11-26T11:11:28Z</time>
      </trkpt>
      <trkpt lat="42.20317" lon="2.29073">
        <ele>1092</ele>
        <time>2018-11-26T11:11:28Z</time>
      </trkpt>
      <trkpt lat="42.20319" lon="2.29074">
        <ele>1093</ele>
        <time>2018-11-26T11:11:29Z</time>
      </trkpt>
      <trkpt lat="42.2032" lon="2.29075">
        <ele>1094.1</ele>
        <time>2018-11-26T11:11:30Z</time>
      </trkpt>
      <trkpt lat="42.20322" lon="2.29075">
        <ele>1094</ele>
        <time>2018-11-26T11:11:31Z</time>
      </trkpt>
      <trkpt lat="42.20324" lon="2.29075">
        <ele>1094</ele>
        <time>2018-11-26T11:11:32Z</time>
      </trkpt>
      <trkpt lat="42.20326" lon="2.29074">
        <ele>1094.1</ele>
        <time>2018-11-26T11:11:33Z</time>
      </trkpt>
      <trkpt lat="42.20328" lon="2.29076">
        <ele>1095</ele>
        <time>2018-11-26T11:11:33Z</time>
      </trkpt>
      <trkpt lat="42.20331" lon="2.29077">
        <ele>1095.1</ele>
        <time>2018-11-26T11:11:34Z</time>
      </trkpt>
      <trkpt lat="42.20333" lon="2.29076">
        <ele>1095.1</ele>
        <time>2018-11-26T11:11:35Z</time>
      </trkpt>
      <trkpt lat="42.20335" lon="2.29077">
        <ele>1095.1</ele>
        <time>2018-11-26T11:11:36Z</time>
      </trkpt>
      <trkpt lat="42.20336" lon="2.29078">
        <ele>1095</ele>
        <time>2018-11-26T11:11:37Z</time>
      </trkpt>
      <trkpt lat="42.20337" lon="2.29081">
        <ele>1096</ele>
        <time>2018-11-26T11:11:38Z</time>
      </trkpt>
      <trkpt lat="42.20338" lon="2.29084">
        <ele>1096.2</ele>
        <time>2018-11-26T11:11:39Z</time>
      </trkpt>
      <trkpt lat="42.20339" lon="2.29087">
        <ele>1097.1</ele>
        <time>2018-11-26T11:11:40Z</time>
      </trkpt>
      <trkpt lat="42.2034" lon="2.29089">
        <ele>1097.1</ele>
        <time>2018-11-26T11:11:40Z</time>
      </trkpt>
      <trkpt lat="42.20339" lon="2.29092">
        <ele>1097.1</ele>
        <time>2018-11-26T11:11:41Z</time>
      </trkpt>
      <trkpt lat="42.2034" lon="2.29095">
        <ele>1097</ele>
        <time>2018-11-26T11:11:42Z</time>
      </trkpt>
      <trkpt lat="42.2034" lon="2.29097">
        <ele>1097.1</ele>
        <time>2018-11-26T11:11:43Z</time>
      </trkpt>
      <trkpt lat="42.2034" lon="2.291">
        <ele>1098</ele>
        <time>2018-11-26T11:11:44Z</time>
      </trkpt>
      <trkpt lat="42.20341" lon="2.29103">
        <ele>1098.1</ele>
        <time>2018-11-26T11:11:45Z</time>
      </trkpt>
      <trkpt lat="42.20341" lon="2.29106">
        <ele>1098.1</ele>
        <time>2018-11-26T11:11:46Z</time>
      </trkpt>
      <trkpt lat="42.2034" lon="2.29109">
        <ele>1099.1</ele>
        <time>2018-11-26T11:11:47Z</time>
      </trkpt>
      <trkpt lat="42.20339" lon="2.29113">
        <ele>1099</ele>
        <time>2018-11-26T11:11:48Z</time>
      </trkpt>
      <trkpt lat="42.20338" lon="2.29116">
        <ele>1099</ele>
        <time>2018-11-26T11:11:49Z</time>
      </trkpt>
      <trkpt lat="42.20339" lon="2.29119">
        <ele>1100.1</ele>
        <time>2018-11-26T11:11:50Z</time>
      </trkpt>
      <trkpt lat="42.20339" lon="2.29123">
        <ele>1100.1</ele>
        <time>2018-11-26T11:11:51Z</time>
      </trkpt>
      <trkpt lat="42.20341" lon="2.29125">
        <ele>1100</ele>
        <time>2018-11-26T11:11:52Z</time>
      </trkpt>
      <trkpt lat="42.20341" lon="2.29128">
        <ele>1101</ele>
        <time>2018-11-26T11:11:52Z</time>
      </trkpt>
      <trkpt lat="42.20343" lon="2.29129">
        <ele>1101.1</ele>
        <time>2018-11-26T11:11:53Z</time>
      </trkpt>
      <trkpt lat="42.20345" lon="2.2913">
        <ele>1101.1</ele>
        <time>2018-11-26T11:11:54Z</time>
      </trkpt>
      <trkpt lat="42.20347" lon="2.29131">
        <ele>1101</ele>
        <time>2018-11-26T11:11:55Z</time>
      </trkpt>
      <trkpt lat="42.20349" lon="2.29131">
        <ele>1101.1</ele>
        <time>2018-11-26T11:11:56Z</time>
      </trkpt>
      <trkpt lat="42.2035" lon="2.29131">
        <ele>1102.1</ele>
        <time>2018-11-26T11:11:56Z</time>
      </trkpt>
      <trkpt lat="42.20352" lon="2.29131">
        <ele>1102.2</ele>
        <time>2018-11-26T11:11:57Z</time>
      </trkpt>
      <trkpt lat="42.20354" lon="2.29129">
        <ele>1104</ele>
        <time>2018-11-26T11:11:58Z</time>
      </trkpt>
      <trkpt lat="42.20355" lon="2.29127">
        <ele>1104</ele>
        <time>2018-11-26T11:11:59Z</time>
      </trkpt>
      <trkpt lat="42.20357" lon="2.29126">
        <ele>1104.1</ele>
        <time>2018-11-26T11:12:00Z</time>
      </trkpt>
      <trkpt lat="42.20358" lon="2.29127">
        <ele>1104</ele>
        <time>2018-11-26T11:12:00Z</time>
      </trkpt>
      <trkpt lat="42.2036" lon="2.29129">
        <ele>1104</ele>
        <time>2018-11-26T11:12:01Z</time>
      </trkpt>
      <trkpt lat="42.20362" lon="2.29129">
        <ele>1104.1</ele>
        <time>2018-11-26T11:12:02Z</time>
      </trkpt>
      <trkpt lat="42.20364" lon="2.29129">
        <ele>1106</ele>
        <time>2018-11-26T11:12:03Z</time>
      </trkpt>
      <trkpt lat="42.20367" lon="2.29129">
        <ele>1106</ele>
        <time>2018-11-26T11:12:04Z</time>
      </trkpt>
      <trkpt lat="42.2037" lon="2.29129">
        <ele>1106.1</ele>
        <time>2018-11-26T11:12:05Z</time>
      </trkpt>
      <trkpt lat="42.20372" lon="2.2913">
        <ele>1106.1</ele>
        <time>2018-11-26T11:12:06Z</time>
      </trkpt>
      <trkpt lat="42.20374" lon="2.29132">
        <ele>1106</ele>
        <time>2018-11-26T11:12:07Z</time>
      </trkpt>
      <trkpt lat="42.20377" lon="2.29131">
        <ele>1107</ele>
        <time>2018-11-26T11:12:08Z</time>
      </trkpt>
      <trkpt lat="42.20379" lon="2.29132">
        <ele>1107</ele>
        <time>2018-11-26T11:12:09Z</time>
      </trkpt>
      <trkpt lat="42.20381" lon="2.29132">
        <ele>1107</ele>
        <time>2018-11-26T11:12:10Z</time>
      </trkpt>
      <trkpt lat="42.20384" lon="2.29132">
        <ele>1107.2</ele>
        <time>2018-11-26T11:12:11Z</time>
      </trkpt>
      <trkpt lat="42.20386" lon="2.29132">
        <ele>1108</ele>
        <time>2018-11-26T11:12:12Z</time>
      </trkpt>
      <trkpt lat="42.20389" lon="2.29131">
        <ele>1108.3</ele>
        <time>2018-11-26T11:12:13Z</time>
      </trkpt>
      <trkpt lat="42.20393" lon="2.29131">
        <ele>1109.1</ele>
        <time>2018-11-26T11:12:15Z</time>
      </trkpt>
      <trkpt lat="42.20394" lon="2.29129">
        <ele>1110.1</ele>
        <time>2018-11-26T11:12:15Z</time>
      </trkpt>
      <trkpt lat="42.20396" lon="2.29128">
        <ele>1110.1</ele>
        <time>2018-11-26T11:12:16Z</time>
      </trkpt>
      <trkpt lat="42.20399" lon="2.29128">
        <ele>1110.1</ele>
        <time>2018-11-26T11:12:18Z</time>
      </trkpt>
      <trkpt lat="42.20401" lon="2.29129">
        <ele>1110.1</ele>
        <time>2018-11-26T11:12:18Z</time>
      </trkpt>
      <trkpt lat="42.20403" lon="2.29131">
        <ele>1110.2</ele>
        <time>2018-11-26T11:12:19Z</time>
      </trkpt>
      <trkpt lat="42.20405" lon="2.29134">
        <ele>1111.1</ele>
        <time>2018-11-26T11:12:20Z</time>
      </trkpt>
      <trkpt lat="42.20406" lon="2.29136">
        <ele>1111</ele>
        <time>2018-11-26T11:12:21Z</time>
      </trkpt>
      <trkpt lat="42.20407" lon="2.29139">
        <ele>1111</ele>
        <time>2018-11-26T11:12:22Z</time>
      </trkpt>
      <trkpt lat="42.20408" lon="2.29141">
        <ele>1110.8</ele>
        <time>2018-11-26T11:12:23Z</time>
      </trkpt>
      <trkpt lat="42.20409" lon="2.29144">
        <ele>1110</ele>
        <time>2018-11-26T11:12:24Z</time>
      </trkpt>
      <trkpt lat="42.20411" lon="2.29145">
        <ele>1110.2</ele>
        <time>2018-11-26T11:12:25Z</time>
      </trkpt>
      <trkpt lat="42.20413" lon="2.29145">
        <ele>1111</ele>
        <time>2018-11-26T11:12:26Z</time>
      </trkpt>
      <trkpt lat="42.20415" lon="2.29144">
        <ele>1112</ele>
        <time>2018-11-26T11:12:27Z</time>
      </trkpt>
      <trkpt lat="42.20417" lon="2.29144">
        <ele>1112</ele>
        <time>2018-11-26T11:12:27Z</time>
      </trkpt>
      <trkpt lat="42.2042" lon="2.29146">
        <ele>1112.1</ele>
        <time>2018-11-26T11:12:29Z</time>
      </trkpt>
      <trkpt lat="42.20422" lon="2.29147">
        <ele>1112.1</ele>
        <time>2018-11-26T11:12:29Z</time>
      </trkpt>
      <trkpt lat="42.20423" lon="2.2915">
        <ele>1112.1</ele>
        <time>2018-11-26T11:12:30Z</time>
      </trkpt>
      <trkpt lat="42.20425" lon="2.29154">
        <ele>1112.1</ele>
        <time>2018-11-26T11:12:32Z</time>
      </trkpt>
      <trkpt lat="42.20426" lon="2.29158">
        <ele>1112.2</ele>
        <time>2018-11-26T11:12:33Z</time>
      </trkpt>
      <trkpt lat="42.20427" lon="2.29161">
        <ele>1113</ele>
        <time>2018-11-26T11:12:34Z</time>
      </trkpt>
      <trkpt lat="42.20428" lon="2.29165">
        <ele>1113</ele>
        <time>2018-11-26T11:12:35Z</time>
      </trkpt>
      <trkpt lat="42.20429" lon="2.29169">
        <ele>1114.1</ele>
        <time>2018-11-26T11:12:37Z</time>
      </trkpt>
      <trkpt lat="42.2043" lon="2.29172">
        <ele>1114.3</ele>
        <time>2018-11-26T11:12:37Z</time>
      </trkpt>
      <trkpt lat="42.20431" lon="2.29174">
        <ele>1115.1</ele>
        <time>2018-11-26T11:12:38Z</time>
      </trkpt>
      <trkpt lat="42.20431" lon="2.29178">
        <ele>1115.1</ele>
        <time>2018-11-26T11:12:39Z</time>
      </trkpt>
      <trkpt lat="42.20434" lon="2.2918">
        <ele>1115.1</ele>
        <time>2018-11-26T11:12:40Z</time>
      </trkpt>
      <trkpt lat="42.20436" lon="2.29183">
        <ele>1115.2</ele>
        <time>2018-11-26T11:12:42Z</time>
      </trkpt>
      <trkpt lat="42.20437" lon="2.29187">
        <ele>1116</ele>
        <time>2018-11-26T11:12:43Z</time>
      </trkpt>
      <trkpt lat="42.20439" lon="2.29191">
        <ele>1117.1</ele>
        <time>2018-11-26T11:12:44Z</time>
      </trkpt>
      <trkpt lat="42.2044" lon="2.29194">
        <ele>1117</ele>
        <time>2018-11-26T11:12:46Z</time>
      </trkpt>
      <trkpt lat="42.20441" lon="2.29197">
        <ele>1117</ele>
        <time>2018-11-26T11:12:46Z</time>
      </trkpt>
      <trkpt lat="42.20442" lon="2.29201">
        <ele>1117</ele>
        <time>2018-11-26T11:12:48Z</time>
      </trkpt>
      <trkpt lat="42.20443" lon="2.29204">
        <ele>1117.1</ele>
        <time>2018-11-26T11:12:49Z</time>
      </trkpt>
      <trkpt lat="42.20444" lon="2.29206">
        <ele>1117</ele>
        <time>2018-11-26T11:12:49Z</time>
      </trkpt>
      <trkpt lat="42.20445" lon="2.29209">
        <ele>1117.4</ele>
        <time>2018-11-26T11:12:50Z</time>
      </trkpt>
      <trkpt lat="42.20446" lon="2.29213">
        <ele>1118.1</ele>
        <time>2018-11-26T11:12:51Z</time>
      </trkpt>
      <trkpt lat="42.20448" lon="2.29215">
        <ele>1118.1</ele>
        <time>2018-11-26T11:12:53Z</time>
      </trkpt>
      <trkpt lat="42.20451" lon="2.29218">
        <ele>1118</ele>
        <time>2018-11-26T11:12:54Z</time>
      </trkpt>
      <trkpt lat="42.20453" lon="2.29222">
        <ele>1118.2</ele>
        <time>2018-11-26T11:12:55Z</time>
      </trkpt>
      <trkpt lat="42.20454" lon="2.29224">
        <ele>1119</ele>
        <time>2018-11-26T11:12:56Z</time>
      </trkpt>
      <trkpt lat="42.20454" lon="2.29227">
        <ele>1119.2</ele>
        <time>2018-11-26T11:12:57Z</time>
      </trkpt>
      <trkpt lat="42.20455" lon="2.2923">
        <ele>1120.1</ele>
        <time>2018-11-26T11:12:58Z</time>
      </trkpt>
      <trkpt lat="42.20457" lon="2.29231">
        <ele>1118.7</ele>
        <time>2018-11-26T11:12:59Z</time>
      </trkpt>
      <trkpt lat="42.20458" lon="2.29228">
        <ele>1119.1</ele>
        <time>2018-11-26T11:13:00Z</time>
      </trkpt>
      <trkpt lat="42.20456" lon="2.29231">
        <ele>1120.1</ele>
        <time>2018-11-26T11:13:01Z</time>
      </trkpt>
      <trkpt lat="42.20455" lon="2.29233">
        <ele>1120</ele>
        <time>2018-11-26T11:13:01Z</time>
      </trkpt>
      <trkpt lat="42.20455" lon="2.29236">
        <ele>1120.1</ele>
        <time>2018-11-26T11:13:02Z</time>
      </trkpt>
      <trkpt lat="42.20455" lon="2.2924">
        <ele>1120</ele>
        <time>2018-11-26T11:13:03Z</time>
      </trkpt>
      <trkpt lat="42.20455" lon="2.29242">
        <ele>1120.1</ele>
        <time>2018-11-26T11:13:04Z</time>
      </trkpt>
      <trkpt lat="42.20456" lon="2.29247">
        <ele>1120.1</ele>
        <time>2018-11-26T11:13:05Z</time>
      </trkpt>
      <trkpt lat="42.20456" lon="2.29251">
        <ele>1120.1</ele>
        <time>2018-11-26T11:13:07Z</time>
      </trkpt>
      <trkpt lat="42.20456" lon="2.29255">
        <ele>1121</ele>
        <time>2018-11-26T11:13:08Z</time>
      </trkpt>
      <trkpt lat="42.20455" lon="2.2926">
        <ele>1122.1</ele>
        <time>2018-11-26T11:13:09Z</time>
      </trkpt>
      <trkpt lat="42.20455" lon="2.29264">
        <ele>1123.1</ele>
        <time>2018-11-26T11:13:11Z</time>
      </trkpt>
      <trkpt lat="42.20455" lon="2.29268">
        <ele>1123</ele>
        <time>2018-11-26T11:13:12Z</time>
      </trkpt>
      <trkpt lat="42.20456" lon="2.2927">
        <ele>1123</ele>
        <time>2018-11-26T11:13:13Z</time>
      </trkpt>
      <trkpt lat="42.20457" lon="2.29273">
        <ele>1123.1</ele>
        <time>2018-11-26T11:13:13Z</time>
      </trkpt>
      <trkpt lat="42.20457" lon="2.29275">
        <ele>1123.1</ele>
        <time>2018-11-26T11:13:14Z</time>
      </trkpt>
      <trkpt lat="42.20458" lon="2.2928">
        <ele>1123.2</ele>
        <time>2018-11-26T11:13:16Z</time>
      </trkpt>
      <trkpt lat="42.20459" lon="2.29283">
        <ele>1124.2</ele>
        <time>2018-11-26T11:13:17Z</time>
      </trkpt>
      <trkpt lat="42.2046" lon="2.29287">
        <ele>1125</ele>
        <time>2018-11-26T11:13:18Z</time>
      </trkpt>
      <trkpt lat="42.2046" lon="2.29291">
        <ele>1125</ele>
        <time>2018-11-26T11:13:19Z</time>
      </trkpt>
      <trkpt lat="42.20461" lon="2.29295">
        <ele>1125.1</ele>
        <time>2018-11-26T11:13:20Z</time>
      </trkpt>
      <trkpt lat="42.2046" lon="2.29299">
        <ele>1125</ele>
        <time>2018-11-26T11:13:21Z</time>
      </trkpt>
      <trkpt lat="42.2046" lon="2.29303">
        <ele>1126</ele>
        <time>2018-11-26T11:13:23Z</time>
      </trkpt>
      <trkpt lat="42.20459" lon="2.29306">
        <ele>1126</ele>
        <time>2018-11-26T11:13:24Z</time>
      </trkpt>
      <trkpt lat="42.20457" lon="2.29309">
        <ele>1126</ele>
        <time>2018-11-26T11:13:25Z</time>
      </trkpt>
      <trkpt lat="42.20456" lon="2.29312">
        <ele>1126</ele>
        <time>2018-11-26T11:13:26Z</time>
      </trkpt>
      <trkpt lat="42.20455" lon="2.29315">
        <ele>1126.1</ele>
        <time>2018-11-26T11:13:27Z</time>
      </trkpt>
      <trkpt lat="42.20456" lon="2.29318">
        <ele>1127.1</ele>
        <time>2018-11-26T11:13:28Z</time>
      </trkpt>
      <trkpt lat="42.20456" lon="2.29321">
        <ele>1127</ele>
        <time>2018-11-26T11:13:29Z</time>
      </trkpt>
      <trkpt lat="42.20456" lon="2.29324">
        <ele>1127.1</ele>
        <time>2018-11-26T11:13:29Z</time>
      </trkpt>
      <trkpt lat="42.20456" lon="2.29327">
        <ele>1127</ele>
        <time>2018-11-26T11:13:30Z</time>
      </trkpt>
      <trkpt lat="42.20455" lon="2.29331">
        <ele>1127</ele>
        <time>2018-11-26T11:13:32Z</time>
      </trkpt>
      <trkpt lat="42.20455" lon="2.29334">
        <ele>1126</ele>
        <time>2018-11-26T11:13:33Z</time>
      </trkpt>
      <trkpt lat="42.20457" lon="2.29336">
        <ele>1125.9</ele>
        <time>2018-11-26T11:13:33Z</time>
      </trkpt>
      <trkpt lat="42.20458" lon="2.29339">
        <ele>1125.2</ele>
        <time>2018-11-26T11:13:34Z</time>
      </trkpt>
      <trkpt lat="42.20458" lon="2.29343">
        <ele>1126</ele>
        <time>2018-11-26T11:13:36Z</time>
      </trkpt>
      <trkpt lat="42.20461" lon="2.29346">
        <ele>1126</ele>
        <time>2018-11-26T11:13:37Z</time>
      </trkpt>
      <trkpt lat="42.20462" lon="2.2935">
        <ele>1126</ele>
        <time>2018-11-26T11:13:38Z</time>
      </trkpt>
      <trkpt lat="42.20462" lon="2.29353">
        <ele>1126</ele>
        <time>2018-11-26T11:13:39Z</time>
      </trkpt>
      <trkpt lat="42.20462" lon="2.29355">
        <ele>1126.1</ele>
        <time>2018-11-26T11:13:40Z</time>
      </trkpt>
      <trkpt lat="42.20463" lon="2.29359">
        <ele>1126</ele>
        <time>2018-11-26T11:13:41Z</time>
      </trkpt>
      <trkpt lat="42.20465" lon="2.29362">
        <ele>1126.1</ele>
        <time>2018-11-26T11:13:42Z</time>
      </trkpt>
      <trkpt lat="42.20467" lon="2.29365">
        <ele>1127.1</ele>
        <time>2018-11-26T11:13:43Z</time>
      </trkpt>
      <trkpt lat="42.20469" lon="2.29366">
        <ele>1127.1</ele>
        <time>2018-11-26T11:13:44Z</time>
      </trkpt>
      <trkpt lat="42.20472" lon="2.29367">
        <ele>1127.1</ele>
        <time>2018-11-26T11:13:45Z</time>
      </trkpt>
      <trkpt lat="42.20474" lon="2.2937">
        <ele>1127</ele>
        <time>2018-11-26T11:13:46Z</time>
      </trkpt>
      <trkpt lat="42.20475" lon="2.29373">
        <ele>1127</ele>
        <time>2018-11-26T11:13:47Z</time>
      </trkpt>
      <trkpt lat="42.20476" lon="2.29376">
        <ele>1127</ele>
        <time>2018-11-26T11:13:48Z</time>
      </trkpt>
      <trkpt lat="42.20477" lon="2.29379">
        <ele>1127</ele>
        <time>2018-11-26T11:13:49Z</time>
      </trkpt>
      <trkpt lat="42.20479" lon="2.29383">
        <ele>1127.1</ele>
        <time>2018-11-26T11:13:51Z</time>
      </trkpt>
      <trkpt lat="42.20479" lon="2.29385">
        <ele>1128.1</ele>
        <time>2018-11-26T11:13:51Z</time>
      </trkpt>
      <trkpt lat="42.20479" lon="2.2939">
        <ele>1128</ele>
        <time>2018-11-26T11:13:53Z</time>
      </trkpt>
      <trkpt lat="42.2048" lon="2.29393">
        <ele>1128</ele>
        <time>2018-11-26T11:13:54Z</time>
      </trkpt>
      <trkpt lat="42.20481" lon="2.29396">
        <ele>1128.1</ele>
        <time>2018-11-26T11:13:55Z</time>
      </trkpt>
      <trkpt lat="42.20481" lon="2.29399">
        <ele>1128.1</ele>
        <time>2018-11-26T11:13:56Z</time>
      </trkpt>
      <trkpt lat="42.20482" lon="2.29402">
        <ele>1128.1</ele>
        <time>2018-11-26T11:13:56Z</time>
      </trkpt>
      <trkpt lat="42.20483" lon="2.29406">
        <ele>1128.1</ele>
        <time>2018-11-26T11:13:58Z</time>
      </trkpt>
      <trkpt lat="42.20483" lon="2.29409">
        <ele>1129.3</ele>
        <time>2018-11-26T11:13:59Z</time>
      </trkpt>
      <trkpt lat="42.20484" lon="2.29413">
        <ele>1130.1</ele>
        <time>2018-11-26T11:14:00Z</time>
      </trkpt>
      <trkpt lat="42.20484" lon="2.29418">
        <ele>1130.1</ele>
        <time>2018-11-26T11:14:01Z</time>
      </trkpt>
      <trkpt lat="42.20485" lon="2.29421">
        <ele>1131.1</ele>
        <time>2018-11-26T11:14:02Z</time>
      </trkpt>
      <trkpt lat="42.20485" lon="2.29424">
        <ele>1132</ele>
        <time>2018-11-26T11:14:03Z</time>
      </trkpt>
      <trkpt lat="42.20486" lon="2.29428">
        <ele>1132</ele>
        <time>2018-11-26T11:14:04Z</time>
      </trkpt>
      <trkpt lat="42.20487" lon="2.29432">
        <ele>1132</ele>
        <time>2018-11-26T11:14:06Z</time>
      </trkpt>
      <trkpt lat="42.20488" lon="2.29435">
        <ele>1133.1</ele>
        <time>2018-11-26T11:14:07Z</time>
      </trkpt>
      <trkpt lat="42.20488" lon="2.29439">
        <ele>1133.1</ele>
        <time>2018-11-26T11:14:08Z</time>
      </trkpt>
      <trkpt lat="42.20489" lon="2.29442">
        <ele>1133</ele>
        <time>2018-11-26T11:14:09Z</time>
      </trkpt>
      <trkpt lat="42.20491" lon="2.29445">
        <ele>1133.1</ele>
        <time>2018-11-26T11:14:10Z</time>
      </trkpt>
      <trkpt lat="42.20492" lon="2.29448">
        <ele>1132.1</ele>
        <time>2018-11-26T11:14:11Z</time>
      </trkpt>
      <trkpt lat="42.20494" lon="2.29451">
        <ele>1132</ele>
        <time>2018-11-26T11:14:12Z</time>
      </trkpt>
      <trkpt lat="42.20495" lon="2.29454">
        <ele>1132.1</ele>
        <time>2018-11-26T11:14:13Z</time>
      </trkpt>
      <trkpt lat="42.20495" lon="2.29457">
        <ele>1132</ele>
        <time>2018-11-26T11:14:14Z</time>
      </trkpt>
      <trkpt lat="42.20497" lon="2.29461">
        <ele>1132</ele>
        <time>2018-11-26T11:14:15Z</time>
      </trkpt>
      <trkpt lat="42.205" lon="2.2946">
        <ele>1132</ele>
        <time>2018-11-26T11:14:16Z</time>
      </trkpt>
      <trkpt lat="42.20502" lon="2.29459">
        <ele>1132.1</ele>
        <time>2018-11-26T11:14:17Z</time>
      </trkpt>
      <trkpt lat="42.20505" lon="2.29457">
        <ele>1132</ele>
        <time>2018-11-26T11:14:18Z</time>
      </trkpt>
      <trkpt lat="42.20507" lon="2.29456">
        <ele>1132</ele>
        <time>2018-11-26T11:14:19Z</time>
      </trkpt>
      <trkpt lat="42.20509" lon="2.29453">
        <ele>1132.1</ele>
        <time>2018-11-26T11:14:20Z</time>
      </trkpt>
      <trkpt lat="42.20512" lon="2.29451">
        <ele>1133.1</ele>
        <time>2018-11-26T11:14:22Z</time>
      </trkpt>
      <trkpt lat="42.20515" lon="2.29449">
        <ele>1133</ele>
        <time>2018-11-26T11:14:23Z</time>
      </trkpt>
      <trkpt lat="42.20518" lon="2.29447">
        <ele>1134.1</ele>
        <time>2018-11-26T11:14:24Z</time>
      </trkpt>
      <trkpt lat="42.2052" lon="2.29447">
        <ele>1134</ele>
        <time>2018-11-26T11:14:25Z</time>
      </trkpt>
      <trkpt lat="42.20523" lon="2.29447">
        <ele>1134</ele>
        <time>2018-11-26T11:14:26Z</time>
      </trkpt>
      <trkpt lat="42.20525" lon="2.29449">
        <ele>1135.2</ele>
        <time>2018-11-26T11:14:28Z</time>
      </trkpt>
      <trkpt lat="42.20528" lon="2.29451">
        <ele>1136</ele>
        <time>2018-11-26T11:14:29Z</time>
      </trkpt>
      <trkpt lat="42.20529" lon="2.29454">
        <ele>1136</ele>
        <time>2018-11-26T11:14:30Z</time>
      </trkpt>
      <trkpt lat="42.2053" lon="2.29458">
        <ele>1136</ele>
        <time>2018-11-26T11:14:31Z</time>
      </trkpt>
      <trkpt lat="42.20532" lon="2.29462">
        <ele>1137.3</ele>
        <time>2018-11-26T11:14:32Z</time>
      </trkpt>
      <trkpt lat="42.20533" lon="2.29464">
        <ele>1138</ele>
        <time>2018-11-26T11:14:33Z</time>
      </trkpt>
      <trkpt lat="42.20533" lon="2.29467">
        <ele>1138</ele>
        <time>2018-11-26T11:14:34Z</time>
      </trkpt>
      <trkpt lat="42.20534" lon="2.29471">
        <ele>1138</ele>
        <time>2018-11-26T11:14:35Z</time>
      </trkpt>
      <trkpt lat="42.20536" lon="2.29474">
        <ele>1138.1</ele>
        <time>2018-11-26T11:14:36Z</time>
      </trkpt>
      <trkpt lat="42.20536" lon="2.29478">
        <ele>1138</ele>
        <time>2018-11-26T11:14:37Z</time>
      </trkpt>
      <trkpt lat="42.20536" lon="2.29481">
        <ele>1138.1</ele>
        <time>2018-11-26T11:14:38Z</time>
      </trkpt>
      <trkpt lat="42.20537" lon="2.29485">
        <ele>1138.1</ele>
        <time>2018-11-26T11:14:40Z</time>
      </trkpt>
      <trkpt lat="42.20538" lon="2.29489">
        <ele>1139.1</ele>
        <time>2018-11-26T11:14:41Z</time>
      </trkpt>
      <trkpt lat="42.20539" lon="2.29492">
        <ele>1139</ele>
        <time>2018-11-26T11:14:42Z</time>
      </trkpt>
      <trkpt lat="42.2054" lon="2.29495">
        <ele>1139</ele>
        <time>2018-11-26T11:14:43Z</time>
      </trkpt>
      <trkpt lat="42.20542" lon="2.29499">
        <ele>1139.1</ele>
        <time>2018-11-26T11:14:44Z</time>
      </trkpt>
      <trkpt lat="42.20543" lon="2.29503">
        <ele>1139.1</ele>
        <time>2018-11-26T11:14:46Z</time>
      </trkpt>
      <trkpt lat="42.20544" lon="2.29506">
        <ele>1139.1</ele>
        <time>2018-11-26T11:14:46Z</time>
      </trkpt>
      <trkpt lat="42.20545" lon="2.29508">
        <ele>1139.1</ele>
        <time>2018-11-26T11:14:47Z</time>
      </trkpt>
      <trkpt lat="42.20546" lon="2.29511">
        <ele>1139.1</ele>
        <time>2018-11-26T11:14:48Z</time>
      </trkpt>
      <trkpt lat="42.20548" lon="2.29514">
        <ele>1139.1</ele>
        <time>2018-11-26T11:14:49Z</time>
      </trkpt>
      <trkpt lat="42.2055" lon="2.29516">
        <ele>1139.1</ele>
        <time>2018-11-26T11:14:51Z</time>
      </trkpt>
      <trkpt lat="42.20552" lon="2.29519">
        <ele>1139</ele>
        <time>2018-11-26T11:14:52Z</time>
      </trkpt>
      <trkpt lat="42.20553" lon="2.29522">
        <ele>1139</ele>
        <time>2018-11-26T11:14:53Z</time>
      </trkpt>
      <trkpt lat="42.20554" lon="2.29525">
        <ele>1139.1</ele>
        <time>2018-11-26T11:14:54Z</time>
      </trkpt>
      <trkpt lat="42.20556" lon="2.29526">
        <ele>1139.1</ele>
        <time>2018-11-26T11:14:54Z</time>
      </trkpt>
      <trkpt lat="42.20559" lon="2.29528">
        <ele>1141</ele>
        <time>2018-11-26T11:14:56Z</time>
      </trkpt>
      <trkpt lat="42.20562" lon="2.29527">
        <ele>1141.1</ele>
        <time>2018-11-26T11:14:57Z</time>
      </trkpt>
      <trkpt lat="42.20564" lon="2.29527">
        <ele>1141.1</ele>
        <time>2018-11-26T11:14:58Z</time>
      </trkpt>
      <trkpt lat="42.20566" lon="2.29527">
        <ele>1141.2</ele>
        <time>2018-11-26T11:14:58Z</time>
      </trkpt>
      <trkpt lat="42.20568" lon="2.29527">
        <ele>1142</ele>
        <time>2018-11-26T11:14:59Z</time>
      </trkpt>
      <trkpt lat="42.2057" lon="2.29527">
        <ele>1142.1</ele>
        <time>2018-11-26T11:15:00Z</time>
      </trkpt>
      <trkpt lat="42.20573" lon="2.29527">
        <ele>1142</ele>
        <time>2018-11-26T11:15:01Z</time>
      </trkpt>
      <trkpt lat="42.20574" lon="2.29529">
        <ele>1142.1</ele>
        <time>2018-11-26T11:15:02Z</time>
      </trkpt>
      <trkpt lat="42.20576" lon="2.29531">
        <ele>1142</ele>
        <time>2018-11-26T11:15:03Z</time>
      </trkpt>
      <trkpt lat="42.20578" lon="2.29533">
        <ele>1142</ele>
        <time>2018-11-26T11:15:04Z</time>
      </trkpt>
      <trkpt lat="42.2058" lon="2.29535">
        <ele>1143.1</ele>
        <time>2018-11-26T11:15:05Z</time>
      </trkpt>
      <trkpt lat="42.20582" lon="2.29538">
        <ele>1143</ele>
        <time>2018-11-26T11:15:06Z</time>
      </trkpt>
      <trkpt lat="42.20584" lon="2.29541">
        <ele>1143</ele>
        <time>2018-11-26T11:15:07Z</time>
      </trkpt>
      <trkpt lat="42.20586" lon="2.29544">
        <ele>1144.1</ele>
        <time>2018-11-26T11:15:08Z</time>
      </trkpt>
      <trkpt lat="42.20588" lon="2.29546">
        <ele>1144.1</ele>
        <time>2018-11-26T11:15:09Z</time>
      </trkpt>
      <trkpt lat="42.2059" lon="2.29548">
        <ele>1144.3</ele>
        <time>2018-11-26T11:15:10Z</time>
      </trkpt>
      <trkpt lat="42.20592" lon="2.2955">
        <ele>1145.3</ele>
        <time>2018-11-26T11:15:12Z</time>
      </trkpt>
      <trkpt lat="42.20595" lon="2.29552">
        <ele>1146</ele>
        <time>2018-11-26T11:15:13Z</time>
      </trkpt>
      <trkpt lat="42.20597" lon="2.29554">
        <ele>1145.1</ele>
        <time>2018-11-26T11:15:14Z</time>
      </trkpt>
      <trkpt lat="42.206" lon="2.29555">
        <ele>1145.2</ele>
        <time>2018-11-26T11:15:15Z</time>
      </trkpt>
      <trkpt lat="42.20602" lon="2.29558">
        <ele>1147</ele>
        <time>2018-11-26T11:15:16Z</time>
      </trkpt>
      <trkpt lat="42.20603" lon="2.29561">
        <ele>1147.1</ele>
        <time>2018-11-26T11:15:17Z</time>
      </trkpt>
      <trkpt lat="42.20603" lon="2.29565">
        <ele>1147.1</ele>
        <time>2018-11-26T11:15:18Z</time>
      </trkpt>
      <trkpt lat="42.20604" lon="2.29569">
        <ele>1148</ele>
        <time>2018-11-26T11:15:20Z</time>
      </trkpt>
      <trkpt lat="42.20604" lon="2.29573">
        <ele>1148</ele>
        <time>2018-11-26T11:15:21Z</time>
      </trkpt>
      <trkpt lat="42.20605" lon="2.29576">
        <ele>1148.1</ele>
        <time>2018-11-26T11:15:22Z</time>
      </trkpt>
      <trkpt lat="42.20606" lon="2.29579">
        <ele>1148</ele>
        <time>2018-11-26T11:15:23Z</time>
      </trkpt>
      <trkpt lat="42.20608" lon="2.29582">
        <ele>1147</ele>
        <time>2018-11-26T11:15:24Z</time>
      </trkpt>
      <trkpt lat="42.2061" lon="2.29586">
        <ele>1147</ele>
        <time>2018-11-26T11:15:25Z</time>
      </trkpt>
      <trkpt lat="42.20611" lon="2.29588">
        <ele>1148.1</ele>
        <time>2018-11-26T11:15:26Z</time>
      </trkpt>
      <trkpt lat="42.20613" lon="2.29592">
        <ele>1148.3</ele>
        <time>2018-11-26T11:15:27Z</time>
      </trkpt>
      <trkpt lat="42.20614" lon="2.29595">
        <ele>1149.1</ele>
        <time>2018-11-26T11:15:28Z</time>
      </trkpt>
      <trkpt lat="42.20615" lon="2.29599">
        <ele>1149.1</ele>
        <time>2018-11-26T11:15:30Z</time>
      </trkpt>
      <trkpt lat="42.20616" lon="2.29602">
        <ele>1149.3</ele>
        <time>2018-11-26T11:15:31Z</time>
      </trkpt>
      <trkpt lat="42.20615" lon="2.29606">
        <ele>1150</ele>
        <time>2018-11-26T11:15:32Z</time>
      </trkpt>
      <trkpt lat="42.20614" lon="2.29609">
        <ele>1150</ele>
        <time>2018-11-26T11:15:33Z</time>
      </trkpt>
      <trkpt lat="42.20613" lon="2.29613">
        <ele>1150</ele>
        <time>2018-11-26T11:15:34Z</time>
      </trkpt>
      <trkpt lat="42.20613" lon="2.29616">
        <ele>1150</ele>
        <time>2018-11-26T11:15:35Z</time>
      </trkpt>
      <trkpt lat="42.20613" lon="2.29619">
        <ele>1150.1</ele>
        <time>2018-11-26T11:15:36Z</time>
      </trkpt>
      <trkpt lat="42.20614" lon="2.29622">
        <ele>1150</ele>
        <time>2018-11-26T11:15:37Z</time>
      </trkpt>
      <trkpt lat="42.20615" lon="2.29626">
        <ele>1150.1</ele>
        <time>2018-11-26T11:15:38Z</time>
      </trkpt>
      <trkpt lat="42.20615" lon="2.2963">
        <ele>1150.1</ele>
        <time>2018-11-26T11:15:39Z</time>
      </trkpt>
      <trkpt lat="42.20614" lon="2.29633">
        <ele>1150</ele>
        <time>2018-11-26T11:15:40Z</time>
      </trkpt>
      <trkpt lat="42.20614" lon="2.29637">
        <ele>1150</ele>
        <time>2018-11-26T11:15:41Z</time>
      </trkpt>
      <trkpt lat="42.20613" lon="2.29641">
        <ele>1150</ele>
        <time>2018-11-26T11:15:42Z</time>
      </trkpt>
      <trkpt lat="42.20613" lon="2.29645">
        <ele>1150.1</ele>
        <time>2018-11-26T11:15:44Z</time>
      </trkpt>
      <trkpt lat="42.20613" lon="2.29649">
        <ele>1150</ele>
        <time>2018-11-26T11:15:45Z</time>
      </trkpt>
      <trkpt lat="42.20612" lon="2.29652">
        <ele>1151.1</ele>
        <time>2018-11-26T11:15:46Z</time>
      </trkpt>
      <trkpt lat="42.20612" lon="2.29655">
        <ele>1151</ele>
        <time>2018-11-26T11:15:47Z</time>
      </trkpt>
      <trkpt lat="42.20611" lon="2.29658">
        <ele>1151.1</ele>
        <time>2018-11-26T11:15:48Z</time>
      </trkpt>
      <trkpt lat="42.2061" lon="2.29662">
        <ele>1151.1</ele>
        <time>2018-11-26T11:15:49Z</time>
      </trkpt>
      <trkpt lat="42.20609" lon="2.29665">
        <ele>1152</ele>
        <time>2018-11-26T11:15:50Z</time>
      </trkpt>
      <trkpt lat="42.20608" lon="2.29669">
        <ele>1152.1</ele>
        <time>2018-11-26T11:15:51Z</time>
      </trkpt>
      <trkpt lat="42.20606" lon="2.29672">
        <ele>1152</ele>
        <time>2018-11-26T11:15:52Z</time>
      </trkpt>
      <trkpt lat="42.20606" lon="2.29676">
        <ele>1152.1</ele>
        <time>2018-11-26T11:15:53Z</time>
      </trkpt>
      <trkpt lat="42.20604" lon="2.29678">
        <ele>1152.1</ele>
        <time>2018-11-26T11:15:54Z</time>
      </trkpt>
      <trkpt lat="42.20603" lon="2.29681">
        <ele>1152</ele>
        <time>2018-11-26T11:15:55Z</time>
      </trkpt>
      <trkpt lat="42.20601" lon="2.29683">
        <ele>1151</ele>
        <time>2018-11-26T11:15:56Z</time>
      </trkpt>
      <trkpt lat="42.206" lon="2.29685">
        <ele>1152.1</ele>
        <time>2018-11-26T11:15:57Z</time>
      </trkpt>
      <trkpt lat="42.20597" lon="2.29686">
        <ele>1152</ele>
        <time>2018-11-26T11:15:58Z</time>
      </trkpt>
      <trkpt lat="42.20599" lon="2.29687">
        <ele>1150.7</ele>
        <time>2018-11-26T11:15:59Z</time>
      </trkpt>
      <trkpt lat="42.20598" lon="2.2969">
        <ele>1151</ele>
        <time>2018-11-26T11:16:00Z</time>
      </trkpt>
      <trkpt lat="42.20597" lon="2.29693">
        <ele>1151.1</ele>
        <time>2018-11-26T11:16:01Z</time>
      </trkpt>
      <trkpt lat="42.20596" lon="2.29695">
        <ele>1151.3</ele>
        <time>2018-11-26T11:16:01Z</time>
      </trkpt>
      <trkpt lat="42.20595" lon="2.29698">
        <ele>1152.1</ele>
        <time>2018-11-26T11:16:02Z</time>
      </trkpt>
      <trkpt lat="42.20594" lon="2.29701">
        <ele>1152.1</ele>
        <time>2018-11-26T11:16:03Z</time>
      </trkpt>
      <trkpt lat="42.20593" lon="2.29703">
        <ele>1152.1</ele>
        <time>2018-11-26T11:16:04Z</time>
      </trkpt>
      <trkpt lat="42.20591" lon="2.29706">
        <ele>1152.1</ele>
        <time>2018-11-26T11:16:05Z</time>
      </trkpt>
      <trkpt lat="42.20589" lon="2.29709">
        <ele>1152</ele>
        <time>2018-11-26T11:16:06Z</time>
      </trkpt>
      <trkpt lat="42.20588" lon="2.29712">
        <ele>1152.1</ele>
        <time>2018-11-26T11:16:08Z</time>
      </trkpt>
      <trkpt lat="42.20586" lon="2.29715">
        <ele>1153.1</ele>
        <time>2018-11-26T11:16:09Z</time>
      </trkpt>
      <trkpt lat="42.20584" lon="2.29717">
        <ele>1153</ele>
        <time>2018-11-26T11:16:10Z</time>
      </trkpt>
      <trkpt lat="42.20583" lon="2.2972">
        <ele>1152</ele>
        <time>2018-11-26T11:16:11Z</time>
      </trkpt>
      <trkpt lat="42.20582" lon="2.29724">
        <ele>1152</ele>
        <time>2018-11-26T11:16:12Z</time>
      </trkpt>
      <trkpt lat="42.2058" lon="2.29726">
        <ele>1152.1</ele>
        <time>2018-11-26T11:16:13Z</time>
      </trkpt>
      <trkpt lat="42.20579" lon="2.29729">
        <ele>1151.8</ele>
        <time>2018-11-26T11:16:14Z</time>
      </trkpt>
      <trkpt lat="42.20578" lon="2.29732">
        <ele>1150.1</ele>
        <time>2018-11-26T11:16:14Z</time>
      </trkpt>
      <trkpt lat="42.20577" lon="2.29733">
        <ele>1150.1</ele>
        <time>2018-11-26T11:16:15Z</time>
      </trkpt>
      <trkpt lat="42.20575" lon="2.29735">
        <ele>1150</ele>
        <time>2018-11-26T11:16:16Z</time>
      </trkpt>
      <trkpt lat="42.20572" lon="2.29737">
        <ele>1150.1</ele>
        <time>2018-11-26T11:16:18Z</time>
      </trkpt>
      <trkpt lat="42.2057" lon="2.29738">
        <ele>1150</ele>
        <time>2018-11-26T11:16:18Z</time>
      </trkpt>
      <trkpt lat="42.20567" lon="2.29739">
        <ele>1150</ele>
        <time>2018-11-26T11:16:19Z</time>
      </trkpt>
      <trkpt lat="42.20564" lon="2.2974">
        <ele>1150</ele>
        <time>2018-11-26T11:16:21Z</time>
      </trkpt>
      <trkpt lat="42.20561" lon="2.29741">
        <ele>1150</ele>
        <time>2018-11-26T11:16:22Z</time>
      </trkpt>
      <trkpt lat="42.20559" lon="2.29744">
        <ele>1150</ele>
        <time>2018-11-26T11:16:23Z</time>
      </trkpt>
      <trkpt lat="42.20557" lon="2.29746">
        <ele>1150</ele>
        <time>2018-11-26T11:16:24Z</time>
      </trkpt>
      <trkpt lat="42.20556" lon="2.29747">
        <ele>1149.1</ele>
        <time>2018-11-26T11:16:25Z</time>
      </trkpt>
      <trkpt lat="42.20555" lon="2.29751">
        <ele>1148.1</ele>
        <time>2018-11-26T11:16:26Z</time>
      </trkpt>
      <trkpt lat="42.20555" lon="2.29754">
        <ele>1148</ele>
        <time>2018-11-26T11:16:27Z</time>
      </trkpt>
      <trkpt lat="42.20555" lon="2.29757">
        <ele>1148</ele>
        <time>2018-11-26T11:16:28Z</time>
      </trkpt>
      <trkpt lat="42.20554" lon="2.2976">
        <ele>1149.1</ele>
        <time>2018-11-26T11:16:29Z</time>
      </trkpt>
      <trkpt lat="42.20552" lon="2.29762">
        <ele>1149.1</ele>
        <time>2018-11-26T11:16:30Z</time>
      </trkpt>
      <trkpt lat="42.2055" lon="2.29765">
        <ele>1149.1</ele>
        <time>2018-11-26T11:16:31Z</time>
      </trkpt>
      <trkpt lat="42.20548" lon="2.29768">
        <ele>1149</ele>
        <time>2018-11-26T11:16:32Z</time>
      </trkpt>
      <trkpt lat="42.20547" lon="2.29771">
        <ele>1149.1</ele>
        <time>2018-11-26T11:16:33Z</time>
      </trkpt>
      <trkpt lat="42.20546" lon="2.29772">
        <ele>1149</ele>
        <time>2018-11-26T11:16:34Z</time>
      </trkpt>
      <trkpt lat="42.20544" lon="2.29774">
        <ele>1150.2</ele>
        <time>2018-11-26T11:16:35Z</time>
      </trkpt>
      <trkpt lat="42.20542" lon="2.29776">
        <ele>1151</ele>
        <time>2018-11-26T11:16:36Z</time>
      </trkpt>
      <trkpt lat="42.20541" lon="2.29778">
        <ele>1151</ele>
        <time>2018-11-26T11:16:36Z</time>
      </trkpt>
      <trkpt lat="42.20539" lon="2.2978">
        <ele>1151.1</ele>
        <time>2018-11-26T11:16:37Z</time>
      </trkpt>
      <trkpt lat="42.20537" lon="2.29782">
        <ele>1151.1</ele>
        <time>2018-11-26T11:16:38Z</time>
      </trkpt>
      <trkpt lat="42.20535" lon="2.29783">
        <ele>1151.1</ele>
        <time>2018-11-26T11:16:39Z</time>
      </trkpt>
      <trkpt lat="42.20533" lon="2.29784">
        <ele>1152.1</ele>
        <time>2018-11-26T11:16:40Z</time>
      </trkpt>
      <trkpt lat="42.20531" lon="2.29784">
        <ele>1153.2</ele>
        <time>2018-11-26T11:16:41Z</time>
      </trkpt>
      <trkpt lat="42.2053" lon="2.29782">
        <ele>1153.8</ele>
        <time>2018-11-26T11:16:41Z</time>
      </trkpt>
      <trkpt lat="42.2053" lon="2.29786">
        <ele>1153</ele>
        <time>2018-11-26T11:16:42Z</time>
      </trkpt>
      <trkpt lat="42.20529" lon="2.29788">
        <ele>1153</ele>
        <time>2018-11-26T11:16:43Z</time>
      </trkpt>
      <trkpt lat="42.20528" lon="2.29792">
        <ele>1152.8</ele>
        <time>2018-11-26T11:16:45Z</time>
      </trkpt>
      <trkpt lat="42.20528" lon="2.29795">
        <ele>1152</ele>
        <time>2018-11-26T11:16:45Z</time>
      </trkpt>
      <trkpt lat="42.20527" lon="2.29798">
        <ele>1152</ele>
        <time>2018-11-26T11:16:46Z</time>
      </trkpt>
      <trkpt lat="42.20526" lon="2.298">
        <ele>1150.1</ele>
        <time>2018-11-26T11:16:47Z</time>
      </trkpt>
      <trkpt lat="42.20527" lon="2.29803">
        <ele>1150.1</ele>
        <time>2018-11-26T11:16:48Z</time>
      </trkpt>
      <trkpt lat="42.20525" lon="2.29805">
        <ele>1150</ele>
        <time>2018-11-26T11:16:49Z</time>
      </trkpt>
      <trkpt lat="42.20525" lon="2.29809">
        <ele>1150</ele>
        <time>2018-11-26T11:16:50Z</time>
      </trkpt>
      <trkpt lat="42.20524" lon="2.29812">
        <ele>1150.1</ele>
        <time>2018-11-26T11:16:51Z</time>
      </trkpt>
      <trkpt lat="42.20525" lon="2.29815">
        <ele>1149.8</ele>
        <time>2018-11-26T11:16:52Z</time>
      </trkpt>
      <trkpt lat="42.20525" lon="2.29819">
        <ele>1149</ele>
        <time>2018-11-26T11:16:53Z</time>
      </trkpt>
      <trkpt lat="42.20526" lon="2.29823">
        <ele>1148.1</ele>
        <time>2018-11-26T11:16:54Z</time>
      </trkpt>
      <trkpt lat="42.20526" lon="2.29825">
        <ele>1148.1</ele>
        <time>2018-11-26T11:16:55Z</time>
      </trkpt>
      <trkpt lat="42.20526" lon="2.29828">
        <ele>1148</ele>
        <time>2018-11-26T11:16:56Z</time>
      </trkpt>
      <trkpt lat="42.20528" lon="2.29832">
        <ele>1148</ele>
        <time>2018-11-26T11:16:57Z</time>
      </trkpt>
      <trkpt lat="42.20529" lon="2.29835">
        <ele>1147.7</ele>
        <time>2018-11-26T11:16:58Z</time>
      </trkpt>
      <trkpt lat="42.2053" lon="2.29838">
        <ele>1147.1</ele>
        <time>2018-11-26T11:16:59Z</time>
      </trkpt>
      <trkpt lat="42.2053" lon="2.29841">
        <ele>1146.1</ele>
        <time>2018-11-26T11:17:00Z</time>
      </trkpt>
      <trkpt lat="42.2053" lon="2.29843">
        <ele>1146</ele>
        <time>2018-11-26T11:17:01Z</time>
      </trkpt>
      <trkpt lat="42.20531" lon="2.29846">
        <ele>1146</ele>
        <time>2018-11-26T11:17:01Z</time>
      </trkpt>
      <trkpt lat="42.20531" lon="2.29849">
        <ele>1145</ele>
        <time>2018-11-26T11:17:02Z</time>
      </trkpt>
      <trkpt lat="42.20532" lon="2.29852">
        <ele>1144.8</ele>
        <time>2018-11-26T11:17:03Z</time>
      </trkpt>
      <trkpt lat="42.20533" lon="2.29855">
        <ele>1144.1</ele>
        <time>2018-11-26T11:17:04Z</time>
      </trkpt>
      <trkpt lat="42.20533" lon="2.29859">
        <ele>1144.1</ele>
        <time>2018-11-26T11:17:05Z</time>
      </trkpt>
      <trkpt lat="42.20533" lon="2.29863">
        <ele>1144.1</ele>
        <time>2018-11-26T11:17:06Z</time>
      </trkpt>
      <trkpt lat="42.20532" lon="2.29867">
        <ele>1144</ele>
        <time>2018-11-26T11:17:08Z</time>
      </trkpt>
      <trkpt lat="42.20531" lon="2.29871">
        <ele>1144</ele>
        <time>2018-11-26T11:17:09Z</time>
      </trkpt>
      <trkpt lat="42.2053" lon="2.29876">
        <ele>1144.1</ele>
        <time>2018-11-26T11:17:10Z</time>
      </trkpt>
      <trkpt lat="42.2053" lon="2.2988">
        <ele>1145.1</ele>
        <time>2018-11-26T11:17:12Z</time>
      </trkpt>
      <trkpt lat="42.20529" lon="2.29883">
        <ele>1145.1</ele>
        <time>2018-11-26T11:17:13Z</time>
      </trkpt>
      <trkpt lat="42.20528" lon="2.29885">
        <ele>1145</ele>
        <time>2018-11-26T11:17:13Z</time>
      </trkpt>
      <trkpt lat="42.20527" lon="2.29889">
        <ele>1145</ele>
        <time>2018-11-26T11:17:15Z</time>
      </trkpt>
      <trkpt lat="42.20526" lon="2.29891">
        <ele>1145.1</ele>
        <time>2018-11-26T11:17:15Z</time>
      </trkpt>
      <trkpt lat="42.20525" lon="2.29894">
        <ele>1145</ele>
        <time>2018-11-26T11:17:16Z</time>
      </trkpt>
      <trkpt lat="42.20524" lon="2.29897">
        <ele>1145.1</ele>
        <time>2018-11-26T11:17:17Z</time>
      </trkpt>
      <trkpt lat="42.20524" lon="2.29901">
        <ele>1145</ele>
        <time>2018-11-26T11:17:18Z</time>
      </trkpt>
      <trkpt lat="42.20524" lon="2.29904">
        <ele>1145</ele>
        <time>2018-11-26T11:17:19Z</time>
      </trkpt>
      <trkpt lat="42.20524" lon="2.29908">
        <ele>1144.8</ele>
        <time>2018-11-26T11:17:20Z</time>
      </trkpt>
      <trkpt lat="42.20524" lon="2.29911">
        <ele>1144</ele>
        <time>2018-11-26T11:17:21Z</time>
      </trkpt>
      <trkpt lat="42.20524" lon="2.29914">
        <ele>1144.1</ele>
        <time>2018-11-26T11:17:22Z</time>
      </trkpt>
      <trkpt lat="42.20525" lon="2.29917">
        <ele>1144.1</ele>
        <time>2018-11-26T11:17:23Z</time>
      </trkpt>
      <trkpt lat="42.20524" lon="2.29921">
        <ele>1144.1</ele>
        <time>2018-11-26T11:17:24Z</time>
      </trkpt>
      <trkpt lat="42.20523" lon="2.29925">
        <ele>1144.1</ele>
        <time>2018-11-26T11:17:26Z</time>
      </trkpt>
      <trkpt lat="42.20522" lon="2.29929">
        <ele>1144</ele>
        <time>2018-11-26T11:17:27Z</time>
      </trkpt>
      <trkpt lat="42.2052" lon="2.29932">
        <ele>1144.1</ele>
        <time>2018-11-26T11:17:28Z</time>
      </trkpt>
      <trkpt lat="42.20519" lon="2.29934">
        <ele>1144.1</ele>
        <time>2018-11-26T11:17:29Z</time>
      </trkpt>
      <trkpt lat="42.20517" lon="2.29936">
        <ele>1144.1</ele>
        <time>2018-11-26T11:17:30Z</time>
      </trkpt>
      <trkpt lat="42.20514" lon="2.29938">
        <ele>1144</ele>
        <time>2018-11-26T11:17:31Z</time>
      </trkpt>
      <trkpt lat="42.20512" lon="2.29939">
        <ele>1144</ele>
        <time>2018-11-26T11:17:32Z</time>
      </trkpt>
      <trkpt lat="42.2051" lon="2.29942">
        <ele>1144</ele>
        <time>2018-11-26T11:17:33Z</time>
      </trkpt>
      <trkpt lat="42.20509" lon="2.29945">
        <ele>1144</ele>
        <time>2018-11-26T11:17:34Z</time>
      </trkpt>
      <trkpt lat="42.20508" lon="2.29948">
        <ele>1144.1</ele>
        <time>2018-11-26T11:17:35Z</time>
      </trkpt>
      <trkpt lat="42.20507" lon="2.29952">
        <ele>1146.1</ele>
        <time>2018-11-26T11:17:37Z</time>
      </trkpt>
      <trkpt lat="42.20506" lon="2.29955">
        <ele>1147.1</ele>
        <time>2018-11-26T11:17:38Z</time>
      </trkpt>
      <trkpt lat="42.20505" lon="2.29959">
        <ele>1147</ele>
        <time>2018-11-26T11:17:39Z</time>
      </trkpt>
      <trkpt lat="42.20503" lon="2.29962">
        <ele>1147.1</ele>
        <time>2018-11-26T11:17:40Z</time>
      </trkpt>
      <trkpt lat="42.20501" lon="2.29965">
        <ele>1147.1</ele>
        <time>2018-11-26T11:17:41Z</time>
      </trkpt>
      <trkpt lat="42.205" lon="2.29968">
        <ele>1147</ele>
        <time>2018-11-26T11:17:42Z</time>
      </trkpt>
      <trkpt lat="42.20498" lon="2.29971">
        <ele>1147</ele>
        <time>2018-11-26T11:17:43Z</time>
      </trkpt>
      <trkpt lat="42.20496" lon="2.29973">
        <ele>1147</ele>
        <time>2018-11-26T11:17:44Z</time>
      </trkpt>
      <trkpt lat="42.20495" lon="2.29975">
        <ele>1146.1</ele>
        <time>2018-11-26T11:17:45Z</time>
      </trkpt>
      <trkpt lat="42.20493" lon="2.29977">
        <ele>1146</ele>
        <time>2018-11-26T11:17:46Z</time>
      </trkpt>
      <trkpt lat="42.20491" lon="2.2998">
        <ele>1146</ele>
        <time>2018-11-26T11:17:47Z</time>
      </trkpt>
      <trkpt lat="42.20489" lon="2.29982">
        <ele>1146</ele>
        <time>2018-11-26T11:17:48Z</time>
      </trkpt>
      <trkpt lat="42.20488" lon="2.29984">
        <ele>1146.1</ele>
        <time>2018-11-26T11:17:49Z</time>
      </trkpt>
      <trkpt lat="42.20487" lon="2.29986">
        <ele>1146.1</ele>
        <time>2018-11-26T11:17:50Z</time>
      </trkpt>
      <trkpt lat="42.20486" lon="2.29989">
        <ele>1146.1</ele>
        <time>2018-11-26T11:17:51Z</time>
      </trkpt>
      <trkpt lat="42.20485" lon="2.29992">
        <ele>1147.1</ele>
        <time>2018-11-26T11:17:51Z</time>
      </trkpt>
      <trkpt lat="42.20484" lon="2.29994">
        <ele>1147.1</ele>
        <time>2018-11-26T11:17:52Z</time>
      </trkpt>
      <trkpt lat="42.20483" lon="2.29998">
        <ele>1147</ele>
        <time>2018-11-26T11:17:54Z</time>
      </trkpt>
      <trkpt lat="42.20482" lon="2.3">
        <ele>1147.1</ele>
        <time>2018-11-26T11:17:54Z</time>
      </trkpt>
      <trkpt lat="42.20481" lon="2.30003">
        <ele>1147.1</ele>
        <time>2018-11-26T11:17:55Z</time>
      </trkpt>
      <trkpt lat="42.20482" lon="2.30006">
        <ele>1147.1</ele>
        <time>2018-11-26T11:17:56Z</time>
      </trkpt>
      <trkpt lat="42.20481" lon="2.30009">
        <ele>1147</ele>
        <time>2018-11-26T11:17:57Z</time>
      </trkpt>
      <trkpt lat="42.20481" lon="2.30012">
        <ele>1147</ele>
        <time>2018-11-26T11:17:58Z</time>
      </trkpt>
      <trkpt lat="42.2048" lon="2.30014">
        <ele>1147</ele>
        <time>2018-11-26T11:17:59Z</time>
      </trkpt>
      <trkpt lat="42.20478" lon="2.30017">
        <ele>1147</ele>
        <time>2018-11-26T11:18:00Z</time>
      </trkpt>
      <trkpt lat="42.20477" lon="2.30021">
        <ele>1147.1</ele>
        <time>2018-11-26T11:18:01Z</time>
      </trkpt>
      <trkpt lat="42.20477" lon="2.30024">
        <ele>1147.1</ele>
        <time>2018-11-26T11:18:02Z</time>
      </trkpt>
      <trkpt lat="42.20476" lon="2.30027">
        <ele>1146.1</ele>
        <time>2018-11-26T11:18:03Z</time>
      </trkpt>
      <trkpt lat="42.20475" lon="2.3003">
        <ele>1146.1</ele>
        <time>2018-11-26T11:18:04Z</time>
      </trkpt>
      <trkpt lat="42.20474" lon="2.30032">
        <ele>1146</ele>
        <time>2018-11-26T11:18:04Z</time>
      </trkpt>
      <trkpt lat="42.20474" lon="2.30035">
        <ele>1146</ele>
        <time>2018-11-26T11:18:05Z</time>
      </trkpt>
      <trkpt lat="42.20474" lon="2.30038">
        <ele>1146.1</ele>
        <time>2018-11-26T11:18:06Z</time>
      </trkpt>
      <trkpt lat="42.20474" lon="2.30041">
        <ele>1146.1</ele>
        <time>2018-11-26T11:18:07Z</time>
      </trkpt>
      <trkpt lat="42.20475" lon="2.30044">
        <ele>1146</ele>
        <time>2018-11-26T11:18:08Z</time>
      </trkpt>
      <trkpt lat="42.20475" lon="2.30047">
        <ele>1146</ele>
        <time>2018-11-26T11:18:09Z</time>
      </trkpt>
      <trkpt lat="42.20476" lon="2.30049">
        <ele>1146</ele>
        <time>2018-11-26T11:18:10Z</time>
      </trkpt>
      <trkpt lat="42.20476" lon="2.30052">
        <ele>1147.1</ele>
        <time>2018-11-26T11:18:10Z</time>
      </trkpt>
      <trkpt lat="42.20475" lon="2.30056">
        <ele>1147.1</ele>
        <time>2018-11-26T11:18:11Z</time>
      </trkpt>
      <trkpt lat="42.20476" lon="2.3006">
        <ele>1147</ele>
        <time>2018-11-26T11:18:13Z</time>
      </trkpt>
      <trkpt lat="42.20476" lon="2.30063">
        <ele>1147</ele>
        <time>2018-11-26T11:18:14Z</time>
      </trkpt>
      <trkpt lat="42.20478" lon="2.30066">
        <ele>1147</ele>
        <time>2018-11-26T11:18:15Z</time>
      </trkpt>
      <trkpt lat="42.20478" lon="2.30069">
        <ele>1147</ele>
        <time>2018-11-26T11:18:16Z</time>
      </trkpt>
      <trkpt lat="42.20478" lon="2.30074">
        <ele>1147.1</ele>
        <time>2018-11-26T11:18:17Z</time>
      </trkpt>
      <trkpt lat="42.20477" lon="2.30077">
        <ele>1147.1</ele>
        <time>2018-11-26T11:18:18Z</time>
      </trkpt>
      <trkpt lat="42.20477" lon="2.30081">
        <ele>1147.1</ele>
        <time>2018-11-26T11:18:19Z</time>
      </trkpt>
      <trkpt lat="42.20477" lon="2.30084">
        <ele>1147</ele>
        <time>2018-11-26T11:18:20Z</time>
      </trkpt>
      <trkpt lat="42.20478" lon="2.30088">
        <ele>1147</ele>
        <time>2018-11-26T11:18:21Z</time>
      </trkpt>
      <trkpt lat="42.20477" lon="2.30092">
        <ele>1148</ele>
        <time>2018-11-26T11:18:22Z</time>
      </trkpt>
      <trkpt lat="42.20477" lon="2.30096">
        <ele>1148.2</ele>
        <time>2018-11-26T11:18:24Z</time>
      </trkpt>
      <trkpt lat="42.20477" lon="2.301">
        <ele>1149.1</ele>
        <time>2018-11-26T11:18:25Z</time>
      </trkpt>
      <trkpt lat="42.20478" lon="2.30104">
        <ele>1149</ele>
        <time>2018-11-26T11:18:26Z</time>
      </trkpt>
      <trkpt lat="42.20479" lon="2.30108">
        <ele>1149.2</ele>
        <time>2018-11-26T11:18:27Z</time>
      </trkpt>
      <trkpt lat="42.2048" lon="2.30111">
        <ele>1150</ele>
        <time>2018-11-26T11:18:28Z</time>
      </trkpt>
      <trkpt lat="42.20479" lon="2.30115">
        <ele>1150</ele>
        <time>2018-11-26T11:18:29Z</time>
      </trkpt>
      <trkpt lat="42.20479" lon="2.30118">
        <ele>1150.1</ele>
        <time>2018-11-26T11:18:30Z</time>
      </trkpt>
      <trkpt lat="42.20478" lon="2.30121">
        <ele>1150.1</ele>
        <time>2018-11-26T11:18:31Z</time>
      </trkpt>
      <trkpt lat="42.20478" lon="2.30124">
        <ele>1149.1</ele>
        <time>2018-11-26T11:18:32Z</time>
      </trkpt>
      <trkpt lat="42.20476" lon="2.30126">
        <ele>1150</ele>
        <time>2018-11-26T11:18:33Z</time>
      </trkpt>
      <trkpt lat="42.20475" lon="2.30128">
        <ele>1150</ele>
        <time>2018-11-26T11:18:34Z</time>
      </trkpt>
      <trkpt lat="42.20473" lon="2.30131">
        <ele>1150.1</ele>
        <time>2018-11-26T11:18:35Z</time>
      </trkpt>
      <trkpt lat="42.20471" lon="2.30134">
        <ele>1150</ele>
        <time>2018-11-26T11:18:36Z</time>
      </trkpt>
      <trkpt lat="42.20469" lon="2.30137">
        <ele>1150.1</ele>
        <time>2018-11-26T11:18:38Z</time>
      </trkpt>
      <trkpt lat="42.20467" lon="2.30139">
        <ele>1150.1</ele>
        <time>2018-11-26T11:18:39Z</time>
      </trkpt>
      <trkpt lat="42.20465" lon="2.30142">
        <ele>1150</ele>
        <time>2018-11-26T11:18:40Z</time>
      </trkpt>
      <trkpt lat="42.20464" lon="2.30145">
        <ele>1150</ele>
        <time>2018-11-26T11:18:41Z</time>
      </trkpt>
      <trkpt lat="42.20462" lon="2.30147">
        <ele>1150</ele>
        <time>2018-11-26T11:18:42Z</time>
      </trkpt>
      <trkpt lat="42.2046" lon="2.30148">
        <ele>1150.1</ele>
        <time>2018-11-26T11:18:43Z</time>
      </trkpt>
      <trkpt lat="42.20458" lon="2.30151">
        <ele>1150.1</ele>
        <time>2018-11-26T11:18:43Z</time>
      </trkpt>
      <trkpt lat="42.20458" lon="2.30153">
        <ele>1149.7</ele>
        <time>2018-11-26T11:18:44Z</time>
      </trkpt>
      <trkpt lat="42.20458" lon="2.30155">
        <ele>1149</ele>
        <time>2018-11-26T11:18:45Z</time>
      </trkpt>
      <trkpt lat="42.20458" lon="2.30158">
        <ele>1149</ele>
        <time>2018-11-26T11:18:46Z</time>
      </trkpt>
      <trkpt lat="42.20457" lon="2.30161">
        <ele>1149.1</ele>
        <time>2018-11-26T11:18:47Z</time>
      </trkpt>
      <trkpt lat="42.20458" lon="2.30165">
        <ele>1149.1</ele>
        <time>2018-11-26T11:18:48Z</time>
      </trkpt>
      <trkpt lat="42.20457" lon="2.30168">
        <ele>1149.1</ele>
        <time>2018-11-26T11:18:49Z</time>
      </trkpt>
      <trkpt lat="42.20456" lon="2.30171">
        <ele>1148</ele>
        <time>2018-11-26T11:18:50Z</time>
      </trkpt>
      <trkpt lat="42.20455" lon="2.30173">
        <ele>1148.1</ele>
        <time>2018-11-26T11:18:50Z</time>
      </trkpt>
      <trkpt lat="42.20454" lon="2.30175">
        <ele>1148.1</ele>
        <time>2018-11-26T11:18:51Z</time>
      </trkpt>
      <trkpt lat="42.20453" lon="2.30178">
        <ele>1148.1</ele>
        <time>2018-11-26T11:18:52Z</time>
      </trkpt>
      <trkpt lat="42.20453" lon="2.30181">
        <ele>1148</ele>
        <time>2018-11-26T11:18:53Z</time>
      </trkpt>
      <trkpt lat="42.20452" lon="2.30185">
        <ele>1149.1</ele>
        <time>2018-11-26T11:18:54Z</time>
      </trkpt>
      <trkpt lat="42.20452" lon="2.30188">
        <ele>1149.1</ele>
        <time>2018-11-26T11:18:55Z</time>
      </trkpt>
      <trkpt lat="42.20452" lon="2.30191">
        <ele>1149</ele>
        <time>2018-11-26T11:18:56Z</time>
      </trkpt>
      <trkpt lat="42.20452" lon="2.30195">
        <ele>1149</ele>
        <time>2018-11-26T11:18:57Z</time>
      </trkpt>
      <trkpt lat="42.20451" lon="2.30197">
        <ele>1149.1</ele>
        <time>2018-11-26T11:18:58Z</time>
      </trkpt>
      <trkpt lat="42.20451" lon="2.302">
        <ele>1149</ele>
        <time>2018-11-26T11:18:59Z</time>
      </trkpt>
      <trkpt lat="42.20451" lon="2.30202">
        <ele>1148.1</ele>
        <time>2018-11-26T11:19:00Z</time>
      </trkpt>
      <trkpt lat="42.20451" lon="2.30205">
        <ele>1148.1</ele>
        <time>2018-11-26T11:19:01Z</time>
      </trkpt>
      <trkpt lat="42.20451" lon="2.30208">
        <ele>1148.1</ele>
        <time>2018-11-26T11:19:01Z</time>
      </trkpt>
      <trkpt lat="42.2045" lon="2.30211">
        <ele>1148</ele>
        <time>2018-11-26T11:19:02Z</time>
      </trkpt>
      <trkpt lat="42.20449" lon="2.30215">
        <ele>1148.1</ele>
        <time>2018-11-26T11:19:04Z</time>
      </trkpt>
      <trkpt lat="42.20449" lon="2.30219">
        <ele>1149</ele>
        <time>2018-11-26T11:19:05Z</time>
      </trkpt>
      <trkpt lat="42.20449" lon="2.30223">
        <ele>1149.1</ele>
        <time>2018-11-26T11:19:06Z</time>
      </trkpt>
      <trkpt lat="42.20448" lon="2.30227">
        <ele>1149.1</ele>
        <time>2018-11-26T11:19:07Z</time>
      </trkpt>
      <trkpt lat="42.20448" lon="2.3023">
        <ele>1149</ele>
        <time>2018-11-26T11:19:08Z</time>
      </trkpt>
      <trkpt lat="42.20448" lon="2.30233">
        <ele>1149</ele>
        <time>2018-11-26T11:19:09Z</time>
      </trkpt>
      <trkpt lat="42.20447" lon="2.30236">
        <ele>1149.1</ele>
        <time>2018-11-26T11:19:10Z</time>
      </trkpt>
      <trkpt lat="42.20448" lon="2.3024">
        <ele>1149.2</ele>
        <time>2018-11-26T11:19:11Z</time>
      </trkpt>
      <trkpt lat="42.20447" lon="2.30242">
        <ele>1150.1</ele>
        <time>2018-11-26T11:19:12Z</time>
      </trkpt>
      <trkpt lat="42.20445" lon="2.30245">
        <ele>1150.1</ele>
        <time>2018-11-26T11:19:13Z</time>
      </trkpt>
      <trkpt lat="42.20444" lon="2.30248">
        <ele>1150</ele>
        <time>2018-11-26T11:19:14Z</time>
      </trkpt>
      <trkpt lat="42.20443" lon="2.30251">
        <ele>1150.1</ele>
        <time>2018-11-26T11:19:15Z</time>
      </trkpt>
      <trkpt lat="42.20442" lon="2.30254">
        <ele>1151.1</ele>
        <time>2018-11-26T11:19:16Z</time>
      </trkpt>
      <trkpt lat="42.2044" lon="2.30258">
        <ele>1152</ele>
        <time>2018-11-26T11:19:17Z</time>
      </trkpt>
      <trkpt lat="42.20438" lon="2.30261">
        <ele>1152</ele>
        <time>2018-11-26T11:19:18Z</time>
      </trkpt>
      <trkpt lat="42.20436" lon="2.30263">
        <ele>1152.1</ele>
        <time>2018-11-26T11:19:19Z</time>
      </trkpt>
      <trkpt lat="42.20435" lon="2.30266">
        <ele>1152</ele>
        <time>2018-11-26T11:19:20Z</time>
      </trkpt>
      <trkpt lat="42.20434" lon="2.30269">
        <ele>1152</ele>
        <time>2018-11-26T11:19:22Z</time>
      </trkpt>
      <trkpt lat="42.20433" lon="2.30273">
        <ele>1152.6</ele>
        <time>2018-11-26T11:19:23Z</time>
      </trkpt>
      <trkpt lat="42.20432" lon="2.30276">
        <ele>1152</ele>
        <time>2018-11-26T11:19:24Z</time>
      </trkpt>
      <trkpt lat="42.20431" lon="2.30279">
        <ele>1152</ele>
        <time>2018-11-26T11:19:25Z</time>
      </trkpt>
      <trkpt lat="42.20431" lon="2.30282">
        <ele>1152.2</ele>
        <time>2018-11-26T11:19:25Z</time>
      </trkpt>
      <trkpt lat="42.2043" lon="2.30285">
        <ele>1153</ele>
        <time>2018-11-26T11:19:26Z</time>
      </trkpt>
      <trkpt lat="42.20429" lon="2.30287">
        <ele>1153.1</ele>
        <time>2018-11-26T11:19:27Z</time>
      </trkpt>
      <trkpt lat="42.20428" lon="2.30291">
        <ele>1153.2</ele>
        <time>2018-11-26T11:19:28Z</time>
      </trkpt>
      <trkpt lat="42.20428" lon="2.30295">
        <ele>1154.1</ele>
        <time>2018-11-26T11:19:30Z</time>
      </trkpt>
      <trkpt lat="42.20429" lon="2.30299">
        <ele>1155</ele>
        <time>2018-11-26T11:19:31Z</time>
      </trkpt>
      <trkpt lat="42.20429" lon="2.30303">
        <ele>1155</ele>
        <time>2018-11-26T11:19:32Z</time>
      </trkpt>
      <trkpt lat="42.20429" lon="2.30306">
        <ele>1156</ele>
        <time>2018-11-26T11:19:33Z</time>
      </trkpt>
      <trkpt lat="42.20429" lon="2.3031">
        <ele>1156</ele>
        <time>2018-11-26T11:19:34Z</time>
      </trkpt>
      <trkpt lat="42.20428" lon="2.30313">
        <ele>1157</ele>
        <time>2018-11-26T11:19:35Z</time>
      </trkpt>
      <trkpt lat="42.20428" lon="2.30316">
        <ele>1157</ele>
        <time>2018-11-26T11:19:36Z</time>
      </trkpt>
      <trkpt lat="42.20428" lon="2.30318">
        <ele>1157.1</ele>
        <time>2018-11-26T11:19:36Z</time>
      </trkpt>
      <trkpt lat="42.20427" lon="2.30322">
        <ele>1158.1</ele>
        <time>2018-11-26T11:19:37Z</time>
      </trkpt>
      <trkpt lat="42.20428" lon="2.30325">
        <ele>1158</ele>
        <time>2018-11-26T11:19:38Z</time>
      </trkpt>
      <trkpt lat="42.20428" lon="2.30327">
        <ele>1157</ele>
        <time>2018-11-26T11:19:39Z</time>
      </trkpt>
      <trkpt lat="42.20429" lon="2.3033">
        <ele>1158.1</ele>
        <time>2018-11-26T11:19:40Z</time>
      </trkpt>
      <trkpt lat="42.20428" lon="2.30334">
        <ele>1158.1</ele>
        <time>2018-11-26T11:19:41Z</time>
      </trkpt>
      <trkpt lat="42.20428" lon="2.30337">
        <ele>1158.1</ele>
        <time>2018-11-26T11:19:42Z</time>
      </trkpt>
      <trkpt lat="42.20428" lon="2.3034">
        <ele>1158.2</ele>
        <time>2018-11-26T11:19:43Z</time>
      </trkpt>
      <trkpt lat="42.20427" lon="2.30344">
        <ele>1159</ele>
        <time>2018-11-26T11:19:44Z</time>
      </trkpt>
      <trkpt lat="42.20426" lon="2.30348">
        <ele>1159</ele>
        <time>2018-11-26T11:19:45Z</time>
      </trkpt>
      <trkpt lat="42.20426" lon="2.30351">
        <ele>1160.1</ele>
        <time>2018-11-26T11:19:47Z</time>
      </trkpt>
      <trkpt lat="42.20426" lon="2.30354">
        <ele>1161.1</ele>
        <time>2018-11-26T11:19:47Z</time>
      </trkpt>
      <trkpt lat="42.20425" lon="2.30357">
        <ele>1161</ele>
        <time>2018-11-26T11:19:48Z</time>
      </trkpt>
      <trkpt lat="42.20424" lon="2.30361">
        <ele>1161</ele>
        <time>2018-11-26T11:19:49Z</time>
      </trkpt>
      <trkpt lat="42.20424" lon="2.30364">
        <ele>1161</ele>
        <time>2018-11-26T11:19:50Z</time>
      </trkpt>
      <trkpt lat="42.20423" lon="2.30366">
        <ele>1162</ele>
        <time>2018-11-26T11:19:51Z</time>
      </trkpt>
      <trkpt lat="42.20423" lon="2.3037">
        <ele>1162.1</ele>
        <time>2018-11-26T11:19:52Z</time>
      </trkpt>
      <trkpt lat="42.20423" lon="2.30373">
        <ele>1162.1</ele>
        <time>2018-11-26T11:19:53Z</time>
      </trkpt>
      <trkpt lat="42.20422" lon="2.30376">
        <ele>1163.1</ele>
        <time>2018-11-26T11:19:54Z</time>
      </trkpt>
      <trkpt lat="42.20422" lon="2.30379">
        <ele>1163</ele>
        <time>2018-11-26T11:19:55Z</time>
      </trkpt>
      <trkpt lat="42.20422" lon="2.30382">
        <ele>1163</ele>
        <time>2018-11-26T11:19:56Z</time>
      </trkpt>
      <trkpt lat="42.20422" lon="2.30385">
        <ele>1162.8</ele>
        <time>2018-11-26T11:19:57Z</time>
      </trkpt>
      <trkpt lat="42.20423" lon="2.30389">
        <ele>1164.1</ele>
        <time>2018-11-26T11:19:58Z</time>
      </trkpt>
      <trkpt lat="42.20422" lon="2.30392">
        <ele>1164.4</ele>
        <time>2018-11-26T11:19:59Z</time>
      </trkpt>
      <trkpt lat="42.2042" lon="2.30393">
        <ele>1165.1</ele>
        <time>2018-11-26T11:20:00Z</time>
      </trkpt>
      <trkpt lat="42.20418" lon="2.30393">
        <ele>1166</ele>
        <time>2018-11-26T11:20:01Z</time>
      </trkpt>
      <trkpt lat="42.20415" lon="2.30393">
        <ele>1166.1</ele>
        <time>2018-11-26T11:20:02Z</time>
      </trkpt>
      <trkpt lat="42.20413" lon="2.30394">
        <ele>1166.2</ele>
        <time>2018-11-26T11:20:03Z</time>
      </trkpt>
      <trkpt lat="42.20411" lon="2.30395">
        <ele>1167.2</ele>
        <time>2018-11-26T11:20:04Z</time>
      </trkpt>
      <trkpt lat="42.20409" lon="2.30396">
        <ele>1168.1</ele>
        <time>2018-11-26T11:20:05Z</time>
      </trkpt>
      <trkpt lat="42.20407" lon="2.30398">
        <ele>1168.1</ele>
        <time>2018-11-26T11:20:05Z</time>
      </trkpt>
      <trkpt lat="42.20406" lon="2.304">
        <ele>1169.1</ele>
        <time>2018-11-26T11:20:06Z</time>
      </trkpt>
      <trkpt lat="42.20405" lon="2.30404">
        <ele>1170</ele>
        <time>2018-11-26T11:20:07Z</time>
      </trkpt>
      <trkpt lat="42.20405" lon="2.30407">
        <ele>1171</ele>
        <time>2018-11-26T11:20:08Z</time>
      </trkpt>
      <trkpt lat="42.20407" lon="2.30408">
        <ele>1170.1</ele>
        <time>2018-11-26T11:20:09Z</time>
      </trkpt>
      <trkpt lat="42.20407" lon="2.3041">
        <ele>1171</ele>
        <time>2018-11-26T11:20:10Z</time>
      </trkpt>
      <trkpt lat="42.20407" lon="2.30413">
        <ele>1171.1</ele>
        <time>2018-11-26T11:20:11Z</time>
      </trkpt>
      <trkpt lat="42.20407" lon="2.30416">
        <ele>1172.1</ele>
        <time>2018-11-26T11:20:11Z</time>
      </trkpt>
      <trkpt lat="42.20406" lon="2.30413">
        <ele>1173</ele>
        <time>2018-11-26T11:20:12Z</time>
      </trkpt>
      <trkpt lat="42.20404" lon="2.30413">
        <ele>1173</ele>
        <time>2018-11-26T11:20:13Z</time>
      </trkpt>
      <trkpt lat="42.20402" lon="2.30414">
        <ele>1173</ele>
        <time>2018-11-26T11:20:14Z</time>
      </trkpt>
      <trkpt lat="42.20401" lon="2.30416">
        <ele>1174</ele>
        <time>2018-11-26T11:20:15Z</time>
      </trkpt>
      <trkpt lat="42.204" lon="2.30418">
        <ele>1174</ele>
        <time>2018-11-26T11:20:16Z</time>
      </trkpt>
      <trkpt lat="42.20399" lon="2.30422">
        <ele>1174.1</ele>
        <time>2018-11-26T11:20:17Z</time>
      </trkpt>
      <trkpt lat="42.20399" lon="2.30424">
        <ele>1174</ele>
        <time>2018-11-26T11:20:18Z</time>
      </trkpt>
      <trkpt lat="42.204" lon="2.30427">
        <ele>1175</ele>
        <time>2018-11-26T11:20:18Z</time>
      </trkpt>
      <trkpt lat="42.20399" lon="2.3043">
        <ele>1176</ele>
        <time>2018-11-26T11:20:19Z</time>
      </trkpt>
      <trkpt lat="42.20399" lon="2.30434">
        <ele>1176</ele>
        <time>2018-11-26T11:20:21Z</time>
      </trkpt>
      <trkpt lat="42.20399" lon="2.30437">
        <ele>1176.2</ele>
        <time>2018-11-26T11:20:21Z</time>
      </trkpt>
      <trkpt lat="42.20399" lon="2.30439">
        <ele>1177.1</ele>
        <time>2018-11-26T11:20:22Z</time>
      </trkpt>
      <trkpt lat="42.20399" lon="2.30444">
        <ele>1177.1</ele>
        <time>2018-11-26T11:20:24Z</time>
      </trkpt>
      <trkpt lat="42.20399" lon="2.30449">
        <ele>1177</ele>
        <time>2018-11-26T11:20:25Z</time>
      </trkpt>
      <trkpt lat="42.20399" lon="2.30453">
        <ele>1177</ele>
        <time>2018-11-26T11:20:26Z</time>
      </trkpt>
      <trkpt lat="42.20398" lon="2.30457">
        <ele>1178.3</ele>
        <time>2018-11-26T11:20:27Z</time>
      </trkpt>
      <trkpt lat="42.20397" lon="2.30461">
        <ele>1179</ele>
        <time>2018-11-26T11:20:28Z</time>
      </trkpt>
      <trkpt lat="42.20397" lon="2.30464">
        <ele>1179</ele>
        <time>2018-11-26T11:20:30Z</time>
      </trkpt>
      <trkpt lat="42.20397" lon="2.30469">
        <ele>1180</ele>
        <time>2018-11-26T11:20:31Z</time>
      </trkpt>
      <trkpt lat="42.20397" lon="2.30471">
        <ele>1180</ele>
        <time>2018-11-26T11:20:32Z</time>
      </trkpt>
      <trkpt lat="42.20396" lon="2.30474">
        <ele>1180</ele>
        <time>2018-11-26T11:20:32Z</time>
      </trkpt>
      <trkpt lat="42.20396" lon="2.30476">
        <ele>1180</ele>
        <time>2018-11-26T11:20:33Z</time>
      </trkpt>
      <trkpt lat="42.20396" lon="2.30479">
        <ele>1180.1</ele>
        <time>2018-11-26T11:20:34Z</time>
      </trkpt>
      <trkpt lat="42.20396" lon="2.30482">
        <ele>1180.1</ele>
        <time>2018-11-26T11:20:35Z</time>
      </trkpt>
      <trkpt lat="42.20396" lon="2.30484">
        <ele>1180</ele>
        <time>2018-11-26T11:20:36Z</time>
      </trkpt>
      <trkpt lat="42.20395" lon="2.30487">
        <ele>1180.2</ele>
        <time>2018-11-26T11:20:36Z</time>
      </trkpt>
      <trkpt lat="42.20395" lon="2.30491">
        <ele>1181.2</ele>
        <time>2018-11-26T11:20:38Z</time>
      </trkpt>
      <trkpt lat="42.20393" lon="2.30494">
        <ele>1182.1</ele>
        <time>2018-11-26T11:20:39Z</time>
      </trkpt>
      <trkpt lat="42.20391" lon="2.30498">
        <ele>1182.1</ele>
        <time>2018-11-26T11:20:40Z</time>
      </trkpt>
      <trkpt lat="42.2039" lon="2.30501">
        <ele>1182.1</ele>
        <time>2018-11-26T11:20:41Z</time>
      </trkpt>
      <trkpt lat="42.2039" lon="2.30504">
        <ele>1182</ele>
        <time>2018-11-26T11:20:42Z</time>
      </trkpt>
      <trkpt lat="42.20389" lon="2.30509">
        <ele>1182</ele>
        <time>2018-11-26T11:20:43Z</time>
      </trkpt>
      <trkpt lat="42.20388" lon="2.30513">
        <ele>1182.1</ele>
        <time>2018-11-26T11:20:45Z</time>
      </trkpt>
      <trkpt lat="42.20388" lon="2.30516">
        <ele>1182</ele>
        <time>2018-11-26T11:20:46Z</time>
      </trkpt>
      <trkpt lat="42.20387" lon="2.30521">
        <ele>1182.1</ele>
        <time>2018-11-26T11:20:47Z</time>
      </trkpt>
      <trkpt lat="42.20385" lon="2.30525">
        <ele>1182.2</ele>
        <time>2018-11-26T11:20:48Z</time>
      </trkpt>
      <trkpt lat="42.20383" lon="2.30529">
        <ele>1183.1</ele>
        <time>2018-11-26T11:20:50Z</time>
      </trkpt>
      <trkpt lat="42.20381" lon="2.30533">
        <ele>1183.1</ele>
        <time>2018-11-26T11:20:51Z</time>
      </trkpt>
      <trkpt lat="42.20382" lon="2.30537">
        <ele>1183.1</ele>
        <time>2018-11-26T11:20:53Z</time>
      </trkpt>
      <trkpt lat="42.20382" lon="2.3054">
        <ele>1184</ele>
        <time>2018-11-26T11:20:54Z</time>
      </trkpt>
      <trkpt lat="42.20383" lon="2.30544">
        <ele>1184.1</ele>
        <time>2018-11-26T11:20:55Z</time>
      </trkpt>
      <trkpt lat="42.20384" lon="2.30547">
        <ele>1184.2</ele>
        <time>2018-11-26T11:20:56Z</time>
      </trkpt>
      <trkpt lat="42.20385" lon="2.3055">
        <ele>1185</ele>
        <time>2018-11-26T11:20:57Z</time>
      </trkpt>
      <trkpt lat="42.20385" lon="2.30553">
        <ele>1185.2</ele>
        <time>2018-11-26T11:20:57Z</time>
      </trkpt>
      <trkpt lat="42.20385" lon="2.30556">
        <ele>1186</ele>
        <time>2018-11-26T11:20:58Z</time>
      </trkpt>
      <trkpt lat="42.20385" lon="2.30559">
        <ele>1186.1</ele>
        <time>2018-11-26T11:20:59Z</time>
      </trkpt>
      <trkpt lat="42.20385" lon="2.30563">
        <ele>1186.1</ele>
        <time>2018-11-26T11:21:01Z</time>
      </trkpt>
      <trkpt lat="42.20385" lon="2.30566">
        <ele>1186.1</ele>
        <time>2018-11-26T11:21:01Z</time>
      </trkpt>
      <trkpt lat="42.20385" lon="2.30568">
        <ele>1186.2</ele>
        <time>2018-11-26T11:21:02Z</time>
      </trkpt>
      <trkpt lat="42.20385" lon="2.30571">
        <ele>1186.8</ele>
        <time>2018-11-26T11:21:03Z</time>
      </trkpt>
      <trkpt lat="42.20385" lon="2.30574">
        <ele>1186</ele>
        <time>2018-11-26T11:21:04Z</time>
      </trkpt>
      <trkpt lat="42.20385" lon="2.30577">
        <ele>1186.2</ele>
        <time>2018-11-26T11:21:05Z</time>
      </trkpt>
      <trkpt lat="42.20384" lon="2.30582">
        <ele>1187</ele>
        <time>2018-11-26T11:21:06Z</time>
      </trkpt>
      <trkpt lat="42.20384" lon="2.30585">
        <ele>1187.1</ele>
        <time>2018-11-26T11:21:07Z</time>
      </trkpt>
      <trkpt lat="42.20384" lon="2.3059">
        <ele>1188</ele>
        <time>2018-11-26T11:21:08Z</time>
      </trkpt>
      <trkpt lat="42.20385" lon="2.30595">
        <ele>1188.2</ele>
        <time>2018-11-26T11:21:10Z</time>
      </trkpt>
      <trkpt lat="42.20385" lon="2.30598">
        <ele>1189</ele>
        <time>2018-11-26T11:21:11Z</time>
      </trkpt>
      <trkpt lat="42.20385" lon="2.30601">
        <ele>1189.1</ele>
        <time>2018-11-26T11:21:12Z</time>
      </trkpt>
      <trkpt lat="42.20386" lon="2.30604">
        <ele>1189.4</ele>
        <time>2018-11-26T11:21:13Z</time>
      </trkpt>
      <trkpt lat="42.20387" lon="2.30607">
        <ele>1190.1</ele>
        <time>2018-11-26T11:21:14Z</time>
      </trkpt>
      <trkpt lat="42.20387" lon="2.30612">
        <ele>1191</ele>
        <time>2018-11-26T11:21:15Z</time>
      </trkpt>
      <trkpt lat="42.20388" lon="2.30616">
        <ele>1191.1</ele>
        <time>2018-11-26T11:21:16Z</time>
      </trkpt>
      <trkpt lat="42.20388" lon="2.30619">
        <ele>1191.1</ele>
        <time>2018-11-26T11:21:17Z</time>
      </trkpt>
      <trkpt lat="42.20388" lon="2.30621">
        <ele>1191</ele>
        <time>2018-11-26T11:21:18Z</time>
      </trkpt>
      <trkpt lat="42.20388" lon="2.30625">
        <ele>1192.1</ele>
        <time>2018-11-26T11:21:19Z</time>
      </trkpt>
      <trkpt lat="42.20388" lon="2.30628">
        <ele>1192</ele>
        <time>2018-11-26T11:21:20Z</time>
      </trkpt>
      <trkpt lat="42.20388" lon="2.30631">
        <ele>1192.1</ele>
        <time>2018-11-26T11:21:21Z</time>
      </trkpt>
      <trkpt lat="42.20388" lon="2.30634">
        <ele>1194</ele>
        <time>2018-11-26T11:21:22Z</time>
      </trkpt>
      <trkpt lat="42.20389" lon="2.30636">
        <ele>1194.3</ele>
        <time>2018-11-26T11:21:23Z</time>
      </trkpt>
      <trkpt lat="42.20389" lon="2.3064">
        <ele>1195.2</ele>
        <time>2018-11-26T11:21:24Z</time>
      </trkpt>
      <trkpt lat="42.2039" lon="2.30643">
        <ele>1197</ele>
        <time>2018-11-26T11:21:25Z</time>
      </trkpt>
      <trkpt lat="42.20388" lon="2.30645">
        <ele>1197.1</ele>
        <time>2018-11-26T11:21:25Z</time>
      </trkpt>
      <trkpt lat="42.20387" lon="2.30648">
        <ele>1197.1</ele>
        <time>2018-11-26T11:21:26Z</time>
      </trkpt>
      <trkpt lat="42.20387" lon="2.30651">
        <ele>1197.1</ele>
        <time>2018-11-26T11:21:27Z</time>
      </trkpt>
      <trkpt lat="42.20387" lon="2.30654">
        <ele>1197.1</ele>
        <time>2018-11-26T11:21:28Z</time>
      </trkpt>
      <trkpt lat="42.20387" lon="2.30658">
        <ele>1197.2</ele>
        <time>2018-11-26T11:21:29Z</time>
      </trkpt>
      <trkpt lat="42.20388" lon="2.3066">
        <ele>1200.1</ele>
        <time>2018-11-26T11:21:30Z</time>
      </trkpt>
      <trkpt lat="42.20388" lon="2.30664">
        <ele>1200</ele>
        <time>2018-11-26T11:21:31Z</time>
      </trkpt>
      <trkpt lat="42.20387" lon="2.30666">
        <ele>1200</ele>
        <time>2018-11-26T11:21:32Z</time>
      </trkpt>
      <trkpt lat="42.20387" lon="2.3067">
        <ele>1200</ele>
        <time>2018-11-26T11:21:33Z</time>
      </trkpt>
      <trkpt lat="42.20388" lon="2.30674">
        <ele>1200</ele>
        <time>2018-11-26T11:21:34Z</time>
      </trkpt>
      <trkpt lat="42.20387" lon="2.30677">
        <ele>1200.1</ele>
        <time>2018-11-26T11:21:35Z</time>
      </trkpt>
      <trkpt lat="42.20386" lon="2.3068">
        <ele>1200</ele>
        <time>2018-11-26T11:21:36Z</time>
      </trkpt>
      <trkpt lat="42.20385" lon="2.30683">
        <ele>1200.1</ele>
        <time>2018-11-26T11:21:37Z</time>
      </trkpt>
      <trkpt lat="42.20385" lon="2.30687">
        <ele>1200.1</ele>
        <time>2018-11-26T11:21:38Z</time>
      </trkpt>
      <trkpt lat="42.20384" lon="2.30691">
        <ele>1200</ele>
        <time>2018-11-26T11:21:40Z</time>
      </trkpt>
      <trkpt lat="42.20384" lon="2.30696">
        <ele>1200</ele>
        <time>2018-11-26T11:21:41Z</time>
      </trkpt>
      <trkpt lat="42.20385" lon="2.307">
        <ele>1200.1</ele>
        <time>2018-11-26T11:21:42Z</time>
      </trkpt>
      <trkpt lat="42.20385" lon="2.30704">
        <ele>1199.8</ele>
        <time>2018-11-26T11:21:43Z</time>
      </trkpt>
      <trkpt lat="42.20385" lon="2.30707">
        <ele>1199.1</ele>
        <time>2018-11-26T11:21:44Z</time>
      </trkpt>
      <trkpt lat="42.20385" lon="2.3071">
        <ele>1199</ele>
        <time>2018-11-26T11:21:45Z</time>
      </trkpt>
      <trkpt lat="42.20384" lon="2.30713">
        <ele>1199.2</ele>
        <time>2018-11-26T11:21:46Z</time>
      </trkpt>
      <trkpt lat="42.20381" lon="2.30715">
        <ele>1201</ele>
        <time>2018-11-26T11:21:48Z</time>
      </trkpt>
      <trkpt lat="42.2038" lon="2.30719">
        <ele>1200.8</ele>
        <time>2018-11-26T11:21:49Z</time>
      </trkpt>
      <trkpt lat="42.2038" lon="2.30722">
        <ele>1201.3</ele>
        <time>2018-11-26T11:21:50Z</time>
      </trkpt>
      <trkpt lat="42.20381" lon="2.30725">
        <ele>1202.3</ele>
        <time>2018-11-26T11:21:50Z</time>
      </trkpt>
      <trkpt lat="42.20381" lon="2.30729">
        <ele>1203.1</ele>
        <time>2018-11-26T11:21:52Z</time>
      </trkpt>
      <trkpt lat="42.20379" lon="2.30732">
        <ele>1204.1</ele>
        <time>2018-11-26T11:21:53Z</time>
      </trkpt>
      <trkpt lat="42.20378" lon="2.30733">
        <ele>1205</ele>
        <time>2018-11-26T11:21:54Z</time>
      </trkpt>
      <trkpt lat="42.20375" lon="2.30736">
        <ele>1205.2</ele>
        <time>2018-11-26T11:21:55Z</time>
      </trkpt>
      <trkpt lat="42.20372" lon="2.30738">
        <ele>1206.1</ele>
        <time>2018-11-26T11:21:56Z</time>
      </trkpt>
      <trkpt lat="42.20371" lon="2.3074">
        <ele>1206.1</ele>
        <time>2018-11-26T11:21:57Z</time>
      </trkpt>
      <trkpt lat="42.20368" lon="2.30741">
        <ele>1206</ele>
        <time>2018-11-26T11:21:58Z</time>
      </trkpt>
      <trkpt lat="42.20365" lon="2.30741">
        <ele>1206</ele>
        <time>2018-11-26T11:21:59Z</time>
      </trkpt>
      <trkpt lat="42.20363" lon="2.30742">
        <ele>1207.3</ele>
        <time>2018-11-26T11:22:00Z</time>
      </trkpt>
      <trkpt lat="42.20361" lon="2.30743">
        <ele>1208.1</ele>
        <time>2018-11-26T11:22:01Z</time>
      </trkpt>
      <trkpt lat="42.20359" lon="2.30745">
        <ele>1208</ele>
        <time>2018-11-26T11:22:02Z</time>
      </trkpt>
      <trkpt lat="42.20357" lon="2.30746">
        <ele>1208</ele>
        <time>2018-11-26T11:22:03Z</time>
      </trkpt>
      <trkpt lat="42.20355" lon="2.30748">
        <ele>1208.1</ele>
        <time>2018-11-26T11:22:04Z</time>
      </trkpt>
      <trkpt lat="42.20353" lon="2.30749">
        <ele>1208.2</ele>
        <time>2018-11-26T11:22:05Z</time>
      </trkpt>
      <trkpt lat="42.20351" lon="2.30752">
        <ele>1210.1</ele>
        <time>2018-11-26T11:22:06Z</time>
      </trkpt>
      <trkpt lat="42.2035" lon="2.30754">
        <ele>1210</ele>
        <time>2018-11-26T11:22:06Z</time>
      </trkpt>
      <trkpt lat="42.2035" lon="2.30757">
        <ele>1211</ele>
        <time>2018-11-26T11:22:07Z</time>
      </trkpt>
      <trkpt lat="42.20349" lon="2.30761">
        <ele>1211</ele>
        <time>2018-11-26T11:22:08Z</time>
      </trkpt>
      <trkpt lat="42.20348" lon="2.30764">
        <ele>1212.2</ele>
        <time>2018-11-26T11:22:09Z</time>
      </trkpt>
      <trkpt lat="42.20347" lon="2.30766">
        <ele>1213</ele>
        <time>2018-11-26T11:22:10Z</time>
      </trkpt>
      <trkpt lat="42.20346" lon="2.30769">
        <ele>1214</ele>
        <time>2018-11-26T11:22:11Z</time>
      </trkpt>
      <trkpt lat="42.20347" lon="2.30773">
        <ele>1214.1</ele>
        <time>2018-11-26T11:22:12Z</time>
      </trkpt>
      <trkpt lat="42.20348" lon="2.30775">
        <ele>1214.1</ele>
        <time>2018-11-26T11:22:13Z</time>
      </trkpt>
      <trkpt lat="42.20349" lon="2.30779">
        <ele>1214</ele>
        <time>2018-11-26T11:22:14Z</time>
      </trkpt>
      <trkpt lat="42.2035" lon="2.30781">
        <ele>1213.9</ele>
        <time>2018-11-26T11:22:15Z</time>
      </trkpt>
      <trkpt lat="42.20351" lon="2.30784">
        <ele>1213</ele>
        <time>2018-11-26T11:22:16Z</time>
      </trkpt>
      <trkpt lat="42.20352" lon="2.30792">
        <ele>1213</ele>
        <time>2018-11-26T11:22:18Z</time>
      </trkpt>
      <trkpt lat="42.20352" lon="2.30796">
        <ele>1212.8</ele>
        <time>2018-11-26T11:22:20Z</time>
      </trkpt>
      <trkpt lat="42.20353" lon="2.30799">
        <ele>1212.1</ele>
        <time>2018-11-26T11:22:20Z</time>
      </trkpt>
      <trkpt lat="42.20352" lon="2.30801">
        <ele>1212</ele>
        <time>2018-11-26T11:22:21Z</time>
      </trkpt>
      <trkpt lat="42.20353" lon="2.30805">
        <ele>1211</ele>
        <time>2018-11-26T11:22:22Z</time>
      </trkpt>
      <trkpt lat="42.20353" lon="2.30808">
        <ele>1210</ele>
        <time>2018-11-26T11:22:23Z</time>
      </trkpt>
      <trkpt lat="42.20353" lon="2.30811">
        <ele>1210</ele>
        <time>2018-11-26T11:22:24Z</time>
      </trkpt>
      <trkpt lat="42.20355" lon="2.30813">
        <ele>1209</ele>
        <time>2018-11-26T11:22:25Z</time>
      </trkpt>
      <trkpt lat="42.20356" lon="2.30816">
        <ele>1208</ele>
        <time>2018-11-26T11:22:26Z</time>
      </trkpt>
      <trkpt lat="42.20356" lon="2.30819">
        <ele>1208</ele>
        <time>2018-11-26T11:22:27Z</time>
      </trkpt>
      <trkpt lat="42.20358" lon="2.30822">
        <ele>1207</ele>
        <time>2018-11-26T11:22:28Z</time>
      </trkpt>
      <trkpt lat="42.20359" lon="2.30824">
        <ele>1207</ele>
        <time>2018-11-26T11:22:29Z</time>
      </trkpt>
      <trkpt lat="42.2036" lon="2.30827">
        <ele>1206.2</ele>
        <time>2018-11-26T11:22:30Z</time>
      </trkpt>
      <trkpt lat="42.2036" lon="2.30829">
        <ele>1206.9</ele>
        <time>2018-11-26T11:22:30Z</time>
      </trkpt>
      <trkpt lat="42.20361" lon="2.30832">
        <ele>1205</ele>
        <time>2018-11-26T11:22:31Z</time>
      </trkpt>
      <trkpt lat="42.20361" lon="2.30835">
        <ele>1205</ele>
        <time>2018-11-26T11:22:32Z</time>
      </trkpt>
      <trkpt lat="42.20362" lon="2.30838">
        <ele>1204</ele>
        <time>2018-11-26T11:22:33Z</time>
      </trkpt>
      <trkpt lat="42.20363" lon="2.30842">
        <ele>1204</ele>
        <time>2018-11-26T11:22:34Z</time>
      </trkpt>
      <trkpt lat="42.20364" lon="2.30845">
        <ele>1204</ele>
        <time>2018-11-26T11:22:35Z</time>
      </trkpt>
      <trkpt lat="42.20365" lon="2.30849">
        <ele>1203</ele>
        <time>2018-11-26T11:22:36Z</time>
      </trkpt>
      <trkpt lat="42.20366" lon="2.30851">
        <ele>1203</ele>
        <time>2018-11-26T11:22:37Z</time>
      </trkpt>
      <trkpt lat="42.20367" lon="2.30855">
        <ele>1203</ele>
        <time>2018-11-26T11:22:39Z</time>
      </trkpt>
      <trkpt lat="42.20368" lon="2.30858">
        <ele>1202.1</ele>
        <time>2018-11-26T11:22:40Z</time>
      </trkpt>
      <trkpt lat="42.20368" lon="2.30861">
        <ele>1202.1</ele>
        <time>2018-11-26T11:22:40Z</time>
      </trkpt>
      <trkpt lat="42.20368" lon="2.30864">
        <ele>1202.1</ele>
        <time>2018-11-26T11:22:41Z</time>
      </trkpt>
      <trkpt lat="42.20368" lon="2.30868">
        <ele>1201.8</ele>
        <time>2018-11-26T11:22:42Z</time>
      </trkpt>
      <trkpt lat="42.20369" lon="2.30871">
        <ele>1201</ele>
        <time>2018-11-26T11:22:43Z</time>
      </trkpt>
      <trkpt lat="42.20369" lon="2.30873">
        <ele>1200.1</ele>
        <time>2018-11-26T11:22:44Z</time>
      </trkpt>
      <trkpt lat="42.20369" lon="2.30877">
        <ele>1199.8</ele>
        <time>2018-11-26T11:22:45Z</time>
      </trkpt>
      <trkpt lat="42.20369" lon="2.30881">
        <ele>1199</ele>
        <time>2018-11-26T11:22:46Z</time>
      </trkpt>
      <trkpt lat="42.20368" lon="2.30884">
        <ele>1199</ele>
        <time>2018-11-26T11:22:47Z</time>
      </trkpt>
      <trkpt lat="42.20368" lon="2.30888">
        <ele>1199</ele>
        <time>2018-11-26T11:22:48Z</time>
      </trkpt>
      <trkpt lat="42.20368" lon="2.30891">
        <ele>1199.1</ele>
        <time>2018-11-26T11:22:49Z</time>
      </trkpt>
      <trkpt lat="42.20369" lon="2.30895">
        <ele>1198.1</ele>
        <time>2018-11-26T11:22:51Z</time>
      </trkpt>
      <trkpt lat="42.20369" lon="2.30899">
        <ele>1198.1</ele>
        <time>2018-11-26T11:22:52Z</time>
      </trkpt>
      <trkpt lat="42.20369" lon="2.30902">
        <ele>1198</ele>
        <time>2018-11-26T11:22:53Z</time>
      </trkpt>
      <trkpt lat="42.20369" lon="2.30905">
        <ele>1197.1</ele>
        <time>2018-11-26T11:22:53Z</time>
      </trkpt>
      <trkpt lat="42.20369" lon="2.30909">
        <ele>1197</ele>
        <time>2018-11-26T11:22:55Z</time>
      </trkpt>
      <trkpt lat="42.20369" lon="2.30913">
        <ele>1197</ele>
        <time>2018-11-26T11:22:56Z</time>
      </trkpt>
      <trkpt lat="42.20369" lon="2.30917">
        <ele>1197.1</ele>
        <time>2018-11-26T11:22:57Z</time>
      </trkpt>
      <trkpt lat="42.2037" lon="2.3092">
        <ele>1197</ele>
        <time>2018-11-26T11:22:58Z</time>
      </trkpt>
      <trkpt lat="42.2037" lon="2.30924">
        <ele>1196.8</ele>
        <time>2018-11-26T11:22:59Z</time>
      </trkpt>
      <trkpt lat="42.20371" lon="2.30928">
        <ele>1197.3</ele>
        <time>2018-11-26T11:23:00Z</time>
      </trkpt>
      <trkpt lat="42.20372" lon="2.30932">
        <ele>1198.1</ele>
        <time>2018-11-26T11:23:02Z</time>
      </trkpt>
      <trkpt lat="42.20372" lon="2.30935">
        <ele>1198.1</ele>
        <time>2018-11-26T11:23:02Z</time>
      </trkpt>
      <trkpt lat="42.20372" lon="2.30937">
        <ele>1198</ele>
        <time>2018-11-26T11:23:03Z</time>
      </trkpt>
      <trkpt lat="42.20371" lon="2.3094">
        <ele>1198.1</ele>
        <time>2018-11-26T11:23:04Z</time>
      </trkpt>
      <trkpt lat="42.20369" lon="2.30943">
        <ele>1198.1</ele>
        <time>2018-11-26T11:23:05Z</time>
      </trkpt>
      <trkpt lat="42.20367" lon="2.30946">
        <ele>1199.1</ele>
        <time>2018-11-26T11:23:07Z</time>
      </trkpt>
      <trkpt lat="42.20367" lon="2.30949">
        <ele>1199.1</ele>
        <time>2018-11-26T11:23:07Z</time>
      </trkpt>
      <trkpt lat="42.20367" lon="2.30953">
        <ele>1200</ele>
        <time>2018-11-26T11:23:09Z</time>
      </trkpt>
      <trkpt lat="42.20367" lon="2.30956">
        <ele>1200.1</ele>
        <time>2018-11-26T11:23:10Z</time>
      </trkpt>
      <trkpt lat="42.20367" lon="2.3096">
        <ele>1200</ele>
        <time>2018-11-26T11:23:11Z</time>
      </trkpt>
      <trkpt lat="42.20366" lon="2.30964">
        <ele>1200.4</ele>
        <time>2018-11-26T11:23:12Z</time>
      </trkpt>
      <trkpt lat="42.20367" lon="2.30968">
        <ele>1202</ele>
        <time>2018-11-26T11:23:13Z</time>
      </trkpt>
      <trkpt lat="42.20367" lon="2.30972">
        <ele>1202.1</ele>
        <time>2018-11-26T11:23:14Z</time>
      </trkpt>
      <trkpt lat="42.20367" lon="2.30975">
        <ele>1202</ele>
        <time>2018-11-26T11:23:15Z</time>
      </trkpt>
      <trkpt lat="42.20367" lon="2.30979">
        <ele>1203</ele>
        <time>2018-11-26T11:23:16Z</time>
      </trkpt>
      <trkpt lat="42.20368" lon="2.30983">
        <ele>1203</ele>
        <time>2018-11-26T11:23:18Z</time>
      </trkpt>
      <trkpt lat="42.20368" lon="2.30987">
        <ele>1204.1</ele>
        <time>2018-11-26T11:23:19Z</time>
      </trkpt>
      <trkpt lat="42.20368" lon="2.30989">
        <ele>1204.1</ele>
        <time>2018-11-26T11:23:19Z</time>
      </trkpt>
      <trkpt lat="42.20368" lon="2.30992">
        <ele>1204</ele>
        <time>2018-11-26T11:23:20Z</time>
      </trkpt>
      <trkpt lat="42.20369" lon="2.30995">
        <ele>1204.1</ele>
        <time>2018-11-26T11:23:21Z</time>
      </trkpt>
      <trkpt lat="42.20369" lon="2.30999">
        <ele>1204.2</ele>
        <time>2018-11-26T11:23:22Z</time>
      </trkpt>
      <trkpt lat="42.2037" lon="2.31002">
        <ele>1206</ele>
        <time>2018-11-26T11:23:23Z</time>
      </trkpt>
      <trkpt lat="42.20369" lon="2.31005">
        <ele>1206</ele>
        <time>2018-11-26T11:23:24Z</time>
      </trkpt>
      <trkpt lat="42.2037" lon="2.31009">
        <ele>1206.1</ele>
        <time>2018-11-26T11:23:25Z</time>
      </trkpt>
      <trkpt lat="42.2037" lon="2.31012">
        <ele>1207.1</ele>
        <time>2018-11-26T11:23:26Z</time>
      </trkpt>
      <trkpt lat="42.20371" lon="2.31014">
        <ele>1208</ele>
        <time>2018-11-26T11:23:27Z</time>
      </trkpt>
      <trkpt lat="42.20371" lon="2.31017">
        <ele>1209.1</ele>
        <time>2018-11-26T11:23:28Z</time>
      </trkpt>
      <trkpt lat="42.20369" lon="2.31021">
        <ele>1209</ele>
        <time>2018-11-26T11:23:29Z</time>
      </trkpt>
      <trkpt lat="42.2037" lon="2.31024">
        <ele>1209</ele>
        <time>2018-11-26T11:23:30Z</time>
      </trkpt>
      <trkpt lat="42.20369" lon="2.31027">
        <ele>1209.1</ele>
        <time>2018-11-26T11:23:31Z</time>
      </trkpt>
      <trkpt lat="42.20369" lon="2.3103">
        <ele>1210.1</ele>
        <time>2018-11-26T11:23:32Z</time>
      </trkpt>
      <trkpt lat="42.2037" lon="2.31033">
        <ele>1210.1</ele>
        <time>2018-11-26T11:23:33Z</time>
      </trkpt>
      <trkpt lat="42.2037" lon="2.31036">
        <ele>1210</ele>
        <time>2018-11-26T11:23:34Z</time>
      </trkpt>
      <trkpt lat="42.20371" lon="2.3104">
        <ele>1210.1</ele>
        <time>2018-11-26T11:23:35Z</time>
      </trkpt>
      <trkpt lat="42.20372" lon="2.31044">
        <ele>1211</ele>
        <time>2018-11-26T11:23:36Z</time>
      </trkpt>
      <trkpt lat="42.20373" lon="2.31048">
        <ele>1211</ele>
        <time>2018-11-26T11:23:37Z</time>
      </trkpt>
      <trkpt lat="42.20375" lon="2.3105">
        <ele>1211.1</ele>
        <time>2018-11-26T11:23:38Z</time>
      </trkpt>
      <trkpt lat="42.20376" lon="2.31052">
        <ele>1211.1</ele>
        <time>2018-11-26T11:23:39Z</time>
      </trkpt>
      <trkpt lat="42.20378" lon="2.31055">
        <ele>1211.1</ele>
        <time>2018-11-26T11:23:40Z</time>
      </trkpt>
      <trkpt lat="42.20379" lon="2.3106">
        <ele>1210.2</ele>
        <time>2018-11-26T11:23:42Z</time>
      </trkpt>
      <trkpt lat="42.2038" lon="2.31064">
        <ele>1211.1</ele>
        <time>2018-11-26T11:23:43Z</time>
      </trkpt>
      <trkpt lat="42.2038" lon="2.31069">
        <ele>1211.1</ele>
        <time>2018-11-26T11:23:44Z</time>
      </trkpt>
      <trkpt lat="42.2038" lon="2.31073">
        <ele>1211.1</ele>
        <time>2018-11-26T11:23:46Z</time>
      </trkpt>
      <trkpt lat="42.20381" lon="2.31076">
        <ele>1211</ele>
        <time>2018-11-26T11:23:47Z</time>
      </trkpt>
      <trkpt lat="42.20381" lon="2.31079">
        <ele>1211</ele>
        <time>2018-11-26T11:23:48Z</time>
      </trkpt>
      <trkpt lat="42.20382" lon="2.31082">
        <ele>1211</ele>
        <time>2018-11-26T11:23:49Z</time>
      </trkpt>
      <trkpt lat="42.20383" lon="2.31086">
        <ele>1211</ele>
        <time>2018-11-26T11:23:50Z</time>
      </trkpt>
      <trkpt lat="42.20384" lon="2.31089">
        <ele>1211</ele>
        <time>2018-11-26T11:23:51Z</time>
      </trkpt>
      <trkpt lat="42.20385" lon="2.31093">
        <ele>1211</ele>
        <time>2018-11-26T11:23:52Z</time>
      </trkpt>
      <trkpt lat="42.20384" lon="2.31096">
        <ele>1212</ele>
        <time>2018-11-26T11:23:53Z</time>
      </trkpt>
      <trkpt lat="42.20384" lon="2.31099">
        <ele>1212.1</ele>
        <time>2018-11-26T11:23:54Z</time>
      </trkpt>
      <trkpt lat="42.20384" lon="2.31102">
        <ele>1212.1</ele>
        <time>2018-11-26T11:23:55Z</time>
      </trkpt>
      <trkpt lat="42.20385" lon="2.31105">
        <ele>1212</ele>
        <time>2018-11-26T11:23:56Z</time>
      </trkpt>
      <trkpt lat="42.20386" lon="2.31109">
        <ele>1211.1</ele>
        <time>2018-11-26T11:23:57Z</time>
      </trkpt>
      <trkpt lat="42.20386" lon="2.31114">
        <ele>1211.1</ele>
        <time>2018-11-26T11:23:58Z</time>
      </trkpt>
      <trkpt lat="42.20386" lon="2.31116">
        <ele>1211</ele>
        <time>2018-11-26T11:23:59Z</time>
      </trkpt>
      <trkpt lat="42.20385" lon="2.3112">
        <ele>1211.1</ele>
        <time>2018-11-26T11:24:00Z</time>
      </trkpt>
      <trkpt lat="42.20385" lon="2.31123">
        <ele>1211</ele>
        <time>2018-11-26T11:24:01Z</time>
      </trkpt>
      <trkpt lat="42.20385" lon="2.31127">
        <ele>1211</ele>
        <time>2018-11-26T11:24:02Z</time>
      </trkpt>
      <trkpt lat="42.20384" lon="2.3113">
        <ele>1210.1</ele>
        <time>2018-11-26T11:24:03Z</time>
      </trkpt>
      <trkpt lat="42.20383" lon="2.31132">
        <ele>1210.1</ele>
        <time>2018-11-26T11:24:04Z</time>
      </trkpt>
      <trkpt lat="42.20382" lon="2.31135">
        <ele>1210</ele>
        <time>2018-11-26T11:24:05Z</time>
      </trkpt>
      <trkpt lat="42.20381" lon="2.31137">
        <ele>1210.1</ele>
        <time>2018-11-26T11:24:06Z</time>
      </trkpt>
      <trkpt lat="42.2038" lon="2.31141">
        <ele>1209.8</ele>
        <time>2018-11-26T11:24:07Z</time>
      </trkpt>
      <trkpt lat="42.2038" lon="2.31144">
        <ele>1209</ele>
        <time>2018-11-26T11:24:08Z</time>
      </trkpt>
      <trkpt lat="42.20379" lon="2.31147">
        <ele>1209.1</ele>
        <time>2018-11-26T11:24:09Z</time>
      </trkpt>
      <trkpt lat="42.20378" lon="2.3115">
        <ele>1209.1</ele>
        <time>2018-11-26T11:24:10Z</time>
      </trkpt>
      <trkpt lat="42.20376" lon="2.31153">
        <ele>1209.1</ele>
        <time>2018-11-26T11:24:11Z</time>
      </trkpt>
      <trkpt lat="42.20375" lon="2.31155">
        <ele>1209</ele>
        <time>2018-11-26T11:24:12Z</time>
      </trkpt>
      <trkpt lat="42.20375" lon="2.31157">
        <ele>1209</ele>
        <time>2018-11-26T11:24:12Z</time>
      </trkpt>
      <trkpt lat="42.20374" lon="2.3116">
        <ele>1209</ele>
        <time>2018-11-26T11:24:13Z</time>
      </trkpt>
      <trkpt lat="42.20374" lon="2.31162">
        <ele>1209.1</ele>
        <time>2018-11-26T11:24:14Z</time>
      </trkpt>
      <trkpt lat="42.20373" lon="2.31165">
        <ele>1209</ele>
        <time>2018-11-26T11:24:15Z</time>
      </trkpt>
      <trkpt lat="42.20372" lon="2.31167">
        <ele>1210</ele>
        <time>2018-11-26T11:24:16Z</time>
      </trkpt>
      <trkpt lat="42.2037" lon="2.3117">
        <ele>1210</ele>
        <time>2018-11-26T11:24:17Z</time>
      </trkpt>
      <trkpt lat="42.20368" lon="2.31173">
        <ele>1210</ele>
        <time>2018-11-26T11:24:18Z</time>
      </trkpt>
      <trkpt lat="42.20366" lon="2.31175">
        <ele>1210</ele>
        <time>2018-11-26T11:24:19Z</time>
      </trkpt>
      <trkpt lat="42.20365" lon="2.31179">
        <ele>1212</ele>
        <time>2018-11-26T11:24:20Z</time>
      </trkpt>
      <trkpt lat="42.20364" lon="2.31182">
        <ele>1212.1</ele>
        <time>2018-11-26T11:24:21Z</time>
      </trkpt>
      <trkpt lat="42.20362" lon="2.31183">
        <ele>1212.1</ele>
        <time>2018-11-26T11:24:22Z</time>
      </trkpt>
      <trkpt lat="42.20361" lon="2.31187">
        <ele>1212.1</ele>
        <time>2018-11-26T11:24:23Z</time>
      </trkpt>
      <trkpt lat="42.2036" lon="2.31189">
        <ele>1212.1</ele>
        <time>2018-11-26T11:24:24Z</time>
      </trkpt>
      <trkpt lat="42.20359" lon="2.31191">
        <ele>1212.7</ele>
        <time>2018-11-26T11:24:25Z</time>
      </trkpt>
      <trkpt lat="42.20358" lon="2.31195">
        <ele>1213.1</ele>
        <time>2018-11-26T11:24:26Z</time>
      </trkpt>
      <trkpt lat="42.20357" lon="2.31199">
        <ele>1213.2</ele>
        <time>2018-11-26T11:24:27Z</time>
      </trkpt>
      <trkpt lat="42.20356" lon="2.31202">
        <ele>1214.2</ele>
        <time>2018-11-26T11:24:28Z</time>
      </trkpt>
      <trkpt lat="42.20354" lon="2.31204">
        <ele>1215</ele>
        <time>2018-11-26T11:24:29Z</time>
      </trkpt>
      <trkpt lat="42.20353" lon="2.31208">
        <ele>1216.1</ele>
        <time>2018-11-26T11:24:30Z</time>
      </trkpt>
      <trkpt lat="42.20353" lon="2.31211">
        <ele>1216</ele>
        <time>2018-11-26T11:24:31Z</time>
      </trkpt>
      <trkpt lat="42.20353" lon="2.31213">
        <ele>1216.5</ele>
        <time>2018-11-26T11:24:32Z</time>
      </trkpt>
      <trkpt lat="42.20352" lon="2.31217">
        <ele>1218</ele>
        <time>2018-11-26T11:24:33Z</time>
      </trkpt>
      <trkpt lat="42.20351" lon="2.31221">
        <ele>1218</ele>
        <time>2018-11-26T11:24:34Z</time>
      </trkpt>
      <trkpt lat="42.2035" lon="2.31224">
        <ele>1218.2</ele>
        <time>2018-11-26T11:24:35Z</time>
      </trkpt>
      <trkpt lat="42.20349" lon="2.31228">
        <ele>1219</ele>
        <time>2018-11-26T11:24:36Z</time>
      </trkpt>
      <trkpt lat="42.20349" lon="2.31233">
        <ele>1220.1</ele>
        <time>2018-11-26T11:24:38Z</time>
      </trkpt>
      <trkpt lat="42.20348" lon="2.31236">
        <ele>1221.1</ele>
        <time>2018-11-26T11:24:39Z</time>
      </trkpt>
      <trkpt lat="42.20347" lon="2.3124">
        <ele>1223.1</ele>
        <time>2018-11-26T11:24:40Z</time>
      </trkpt>
      <trkpt lat="42.20348" lon="2.31244">
        <ele>1223.1</ele>
        <time>2018-11-26T11:24:41Z</time>
      </trkpt>
      <trkpt lat="42.20349" lon="2.31246">
        <ele>1224</ele>
        <time>2018-11-26T11:24:42Z</time>
      </trkpt>
      <trkpt lat="42.20348" lon="2.3125">
        <ele>1224</ele>
        <time>2018-11-26T11:24:43Z</time>
      </trkpt>
      <trkpt lat="42.20347" lon="2.31254">
        <ele>1224.1</ele>
        <time>2018-11-26T11:24:44Z</time>
      </trkpt>
      <trkpt lat="42.20346" lon="2.31257">
        <ele>1224.2</ele>
        <time>2018-11-26T11:24:45Z</time>
      </trkpt>
      <trkpt lat="42.20345" lon="2.31262">
        <ele>1225</ele>
        <time>2018-11-26T11:24:47Z</time>
      </trkpt>
      <trkpt lat="42.20346" lon="2.31265">
        <ele>1225.1</ele>
        <time>2018-11-26T11:24:48Z</time>
      </trkpt>
      <trkpt lat="42.20346" lon="2.31269">
        <ele>1225.1</ele>
        <time>2018-11-26T11:24:49Z</time>
      </trkpt>
      <trkpt lat="42.20345" lon="2.31272">
        <ele>1225</ele>
        <time>2018-11-26T11:24:50Z</time>
      </trkpt>
      <trkpt lat="42.20345" lon="2.31274">
        <ele>1225</ele>
        <time>2018-11-26T11:24:51Z</time>
      </trkpt>
      <trkpt lat="42.20344" lon="2.31279">
        <ele>1225</ele>
        <time>2018-11-26T11:24:52Z</time>
      </trkpt>
      <trkpt lat="42.20343" lon="2.31284">
        <ele>1225.1</ele>
        <time>2018-11-26T11:24:53Z</time>
      </trkpt>
      <trkpt lat="42.20341" lon="2.31287">
        <ele>1226.1</ele>
        <time>2018-11-26T11:24:55Z</time>
      </trkpt>
      <trkpt lat="42.20339" lon="2.31291">
        <ele>1226.1</ele>
        <time>2018-11-26T11:24:56Z</time>
      </trkpt>
      <trkpt lat="42.2034" lon="2.31295">
        <ele>1226.1</ele>
        <time>2018-11-26T11:24:57Z</time>
      </trkpt>
      <trkpt lat="42.2034" lon="2.313">
        <ele>1226</ele>
        <time>2018-11-26T11:24:59Z</time>
      </trkpt>
      <trkpt lat="42.2034" lon="2.31304">
        <ele>1226</ele>
        <time>2018-11-26T11:25:00Z</time>
      </trkpt>
      <trkpt lat="42.20339" lon="2.31308">
        <ele>1226.1</ele>
        <time>2018-11-26T11:25:01Z</time>
      </trkpt>
      <trkpt lat="42.20339" lon="2.31311">
        <ele>1226</ele>
        <time>2018-11-26T11:25:02Z</time>
      </trkpt>
      <trkpt lat="42.20338" lon="2.31315">
        <ele>1226.1</ele>
        <time>2018-11-26T11:25:03Z</time>
      </trkpt>
      <trkpt lat="42.20338" lon="2.31318">
        <ele>1226</ele>
        <time>2018-11-26T11:25:04Z</time>
      </trkpt>
      <trkpt lat="42.20337" lon="2.31322">
        <ele>1226</ele>
        <time>2018-11-26T11:25:06Z</time>
      </trkpt>
      <trkpt lat="42.20338" lon="2.31326">
        <ele>1226</ele>
        <time>2018-11-26T11:25:06Z</time>
      </trkpt>
      <trkpt lat="42.20339" lon="2.3133">
        <ele>1227</ele>
        <time>2018-11-26T11:25:08Z</time>
      </trkpt>
      <trkpt lat="42.20339" lon="2.31333">
        <ele>1228</ele>
        <time>2018-11-26T11:25:09Z</time>
      </trkpt>
      <trkpt lat="42.2034" lon="2.31335">
        <ele>1228.1</ele>
        <time>2018-11-26T11:25:09Z</time>
      </trkpt>
      <trkpt lat="42.20341" lon="2.31338">
        <ele>1228.1</ele>
        <time>2018-11-26T11:25:10Z</time>
      </trkpt>
      <trkpt lat="42.2034" lon="2.31342">
        <ele>1230.1</ele>
        <time>2018-11-26T11:25:12Z</time>
      </trkpt>
      <trkpt lat="42.2034" lon="2.31345">
        <ele>1230</ele>
        <time>2018-11-26T11:25:13Z</time>
      </trkpt>
      <trkpt lat="42.20338" lon="2.31348">
        <ele>1230.1</ele>
        <time>2018-11-26T11:25:14Z</time>
      </trkpt>
      <trkpt lat="42.20338" lon="2.31351">
        <ele>1230.1</ele>
        <time>2018-11-26T11:25:15Z</time>
      </trkpt>
      <trkpt lat="42.20338" lon="2.31354">
        <ele>1230.2</ele>
        <time>2018-11-26T11:25:15Z</time>
      </trkpt>
      <trkpt lat="42.20338" lon="2.31358">
        <ele>1232</ele>
        <time>2018-11-26T11:25:17Z</time>
      </trkpt>
      <trkpt lat="42.20337" lon="2.3136">
        <ele>1232</ele>
        <time>2018-11-26T11:25:17Z</time>
      </trkpt>
      <trkpt lat="42.20338" lon="2.31364">
        <ele>1232</ele>
        <time>2018-11-26T11:25:18Z</time>
      </trkpt>
      <trkpt lat="42.20339" lon="2.31368">
        <ele>1232.1</ele>
        <time>2018-11-26T11:25:20Z</time>
      </trkpt>
      <trkpt lat="42.20338" lon="2.31371">
        <ele>1232.1</ele>
        <time>2018-11-26T11:25:21Z</time>
      </trkpt>
      <trkpt lat="42.20338" lon="2.31374">
        <ele>1233.1</ele>
        <time>2018-11-26T11:25:21Z</time>
      </trkpt>
      <trkpt lat="42.20338" lon="2.31379">
        <ele>1233.1</ele>
        <time>2018-11-26T11:25:23Z</time>
      </trkpt>
      <trkpt lat="42.20338" lon="2.31381">
        <ele>1233</ele>
        <time>2018-11-26T11:25:24Z</time>
      </trkpt>
      <trkpt lat="42.20339" lon="2.31384">
        <ele>1233</ele>
        <time>2018-11-26T11:25:24Z</time>
      </trkpt>
      <trkpt lat="42.2034" lon="2.31386">
        <ele>1233</ele>
        <time>2018-11-26T11:25:25Z</time>
      </trkpt>
      <trkpt lat="42.20341" lon="2.31388">
        <ele>1233</ele>
        <time>2018-11-26T11:25:26Z</time>
      </trkpt>
      <trkpt lat="42.20342" lon="2.31392">
        <ele>1234.4</ele>
        <time>2018-11-26T11:25:27Z</time>
      </trkpt>
      <trkpt lat="42.20342" lon="2.31395">
        <ele>1236</ele>
        <time>2018-11-26T11:25:28Z</time>
      </trkpt>
      <trkpt lat="42.20342" lon="2.31398">
        <ele>1236</ele>
        <time>2018-11-26T11:25:29Z</time>
      </trkpt>
      <trkpt lat="42.20341" lon="2.31402">
        <ele>1236.1</ele>
        <time>2018-11-26T11:25:30Z</time>
      </trkpt>
      <trkpt lat="42.2034" lon="2.31406">
        <ele>1237</ele>
        <time>2018-11-26T11:25:31Z</time>
      </trkpt>
      <trkpt lat="42.2034" lon="2.3141">
        <ele>1237.2</ele>
        <time>2018-11-26T11:25:32Z</time>
      </trkpt>
      <trkpt lat="42.2034" lon="2.31412">
        <ele>1238</ele>
        <time>2018-11-26T11:25:33Z</time>
      </trkpt>
      <trkpt lat="42.20339" lon="2.31415">
        <ele>1238.1</ele>
        <time>2018-11-26T11:25:34Z</time>
      </trkpt>
      <trkpt lat="42.20338" lon="2.31418">
        <ele>1239.1</ele>
        <time>2018-11-26T11:25:35Z</time>
      </trkpt>
      <trkpt lat="42.20337" lon="2.31422">
        <ele>1239.1</ele>
        <time>2018-11-26T11:25:36Z</time>
      </trkpt>
      <trkpt lat="42.20336" lon="2.31425">
        <ele>1240.5</ele>
        <time>2018-11-26T11:25:37Z</time>
      </trkpt>
      <trkpt lat="42.20335" lon="2.31428">
        <ele>1242</ele>
        <time>2018-11-26T11:25:38Z</time>
      </trkpt>
      <trkpt lat="42.20333" lon="2.31431">
        <ele>1242.1</ele>
        <time>2018-11-26T11:25:40Z</time>
      </trkpt>
      <trkpt lat="42.20331" lon="2.31435">
        <ele>1242</ele>
        <time>2018-11-26T11:25:41Z</time>
      </trkpt>
      <trkpt lat="42.20331" lon="2.31438">
        <ele>1242.1</ele>
        <time>2018-11-26T11:25:42Z</time>
      </trkpt>
      <trkpt lat="42.20331" lon="2.31441">
        <ele>1243.1</ele>
        <time>2018-11-26T11:25:43Z</time>
      </trkpt>
      <trkpt lat="42.20331" lon="2.31444">
        <ele>1244.1</ele>
        <time>2018-11-26T11:25:43Z</time>
      </trkpt>
      <trkpt lat="42.20331" lon="2.31446">
        <ele>1244.2</ele>
        <time>2018-11-26T11:25:44Z</time>
      </trkpt>
      <trkpt lat="42.2033" lon="2.31449">
        <ele>1245.1</ele>
        <time>2018-11-26T11:25:45Z</time>
      </trkpt>
      <trkpt lat="42.2033" lon="2.31452">
        <ele>1245.2</ele>
        <time>2018-11-26T11:25:46Z</time>
      </trkpt>
      <trkpt lat="42.2033" lon="2.31455">
        <ele>1247</ele>
        <time>2018-11-26T11:25:47Z</time>
      </trkpt>
      <trkpt lat="42.20329" lon="2.31458">
        <ele>1247.3</ele>
        <time>2018-11-26T11:25:48Z</time>
      </trkpt>
      <trkpt lat="42.20328" lon="2.3146">
        <ele>1248</ele>
        <time>2018-11-26T11:25:49Z</time>
      </trkpt>
      <trkpt lat="42.20327" lon="2.31463">
        <ele>1248.1</ele>
        <time>2018-11-26T11:25:50Z</time>
      </trkpt>
      <trkpt lat="42.20325" lon="2.31466">
        <ele>1249.3</ele>
        <time>2018-11-26T11:25:51Z</time>
      </trkpt>
      <trkpt lat="42.20324" lon="2.31469">
        <ele>1250</ele>
        <time>2018-11-26T11:25:52Z</time>
      </trkpt>
      <trkpt lat="42.20324" lon="2.31473">
        <ele>1250.2</ele>
        <time>2018-11-26T11:25:53Z</time>
      </trkpt>
      <trkpt lat="42.20324" lon="2.31477">
        <ele>1251.1</ele>
        <time>2018-11-26T11:25:54Z</time>
      </trkpt>
      <trkpt lat="42.20323" lon="2.31481">
        <ele>1251.1</ele>
        <time>2018-11-26T11:25:55Z</time>
      </trkpt>
      <trkpt lat="42.20324" lon="2.31486">
        <ele>1251</ele>
        <time>2018-11-26T11:25:57Z</time>
      </trkpt>
      <trkpt lat="42.20324" lon="2.31491">
        <ele>1251.1</ele>
        <time>2018-11-26T11:25:58Z</time>
      </trkpt>
      <trkpt lat="42.20324" lon="2.31493">
        <ele>1251.1</ele>
        <time>2018-11-26T11:25:59Z</time>
      </trkpt>
      <trkpt lat="42.20324" lon="2.31498">
        <ele>1251</ele>
        <time>2018-11-26T11:26:00Z</time>
      </trkpt>
      <trkpt lat="42.20324" lon="2.31502">
        <ele>1251.1</ele>
        <time>2018-11-26T11:26:02Z</time>
      </trkpt>
      <trkpt lat="42.20324" lon="2.31505">
        <ele>1251</ele>
        <time>2018-11-26T11:26:02Z</time>
      </trkpt>
      <trkpt lat="42.20323" lon="2.31508">
        <ele>1251.1</ele>
        <time>2018-11-26T11:26:03Z</time>
      </trkpt>
      <trkpt lat="42.20323" lon="2.31511">
        <ele>1251</ele>
        <time>2018-11-26T11:26:04Z</time>
      </trkpt>
      <trkpt lat="42.20323" lon="2.31514">
        <ele>1251</ele>
        <time>2018-11-26T11:26:05Z</time>
      </trkpt>
      <trkpt lat="42.20324" lon="2.31518">
        <ele>1251</ele>
        <time>2018-11-26T11:26:06Z</time>
      </trkpt>
      <trkpt lat="42.20324" lon="2.31521">
        <ele>1251</ele>
        <time>2018-11-26T11:26:07Z</time>
      </trkpt>
      <trkpt lat="42.20324" lon="2.31525">
        <ele>1251</ele>
        <time>2018-11-26T11:26:08Z</time>
      </trkpt>
      <trkpt lat="42.20325" lon="2.31527">
        <ele>1250</ele>
        <time>2018-11-26T11:26:09Z</time>
      </trkpt>
      <trkpt lat="42.20327" lon="2.31529">
        <ele>1249.1</ele>
        <time>2018-11-26T11:26:10Z</time>
      </trkpt>
      <trkpt lat="42.20328" lon="2.31532">
        <ele>1248</ele>
        <time>2018-11-26T11:26:11Z</time>
      </trkpt>
      <trkpt lat="42.20329" lon="2.31534">
        <ele>1247.8</ele>
        <time>2018-11-26T11:26:12Z</time>
      </trkpt>
      <trkpt lat="42.2033" lon="2.31537">
        <ele>1247</ele>
        <time>2018-11-26T11:26:13Z</time>
      </trkpt>
      <trkpt lat="42.2033" lon="2.3154">
        <ele>1247.1</ele>
        <time>2018-11-26T11:26:13Z</time>
      </trkpt>
      <trkpt lat="42.2033" lon="2.31542">
        <ele>1247.1</ele>
        <time>2018-11-26T11:26:14Z</time>
      </trkpt>
      <trkpt lat="42.20331" lon="2.31545">
        <ele>1247.1</ele>
        <time>2018-11-26T11:26:15Z</time>
      </trkpt>
      <trkpt lat="42.20332" lon="2.31548">
        <ele>1247</ele>
        <time>2018-11-26T11:26:16Z</time>
      </trkpt>
      <trkpt lat="42.20332" lon="2.31551">
        <ele>1247</ele>
        <time>2018-11-26T11:26:17Z</time>
      </trkpt>
      <trkpt lat="42.20333" lon="2.31554">
        <ele>1247</ele>
        <time>2018-11-26T11:26:18Z</time>
      </trkpt>
      <trkpt lat="42.20333" lon="2.31558">
        <ele>1247.1</ele>
        <time>2018-11-26T11:26:19Z</time>
      </trkpt>
      <trkpt lat="42.20333" lon="2.31562">
        <ele>1247.1</ele>
        <time>2018-11-26T11:26:20Z</time>
      </trkpt>
      <trkpt lat="42.20333" lon="2.31566">
        <ele>1247.1</ele>
        <time>2018-11-26T11:26:21Z</time>
      </trkpt>
      <trkpt lat="42.20333" lon="2.31568">
        <ele>1247.1</ele>
        <time>2018-11-26T11:26:22Z</time>
      </trkpt>
      <trkpt lat="42.20335" lon="2.3157">
        <ele>1246</ele>
        <time>2018-11-26T11:26:23Z</time>
      </trkpt>
      <trkpt lat="42.20336" lon="2.31573">
        <ele>1246.2</ele>
        <time>2018-11-26T11:26:24Z</time>
      </trkpt>
      <trkpt lat="42.20336" lon="2.31576">
        <ele>1247</ele>
        <time>2018-11-26T11:26:25Z</time>
      </trkpt>
      <trkpt lat="42.20336" lon="2.3158">
        <ele>1247.1</ele>
        <time>2018-11-26T11:26:26Z</time>
      </trkpt>
      <trkpt lat="42.20335" lon="2.31584">
        <ele>1247</ele>
        <time>2018-11-26T11:26:27Z</time>
      </trkpt>
      <trkpt lat="42.20336" lon="2.31588">
        <ele>1248</ele>
        <time>2018-11-26T11:26:28Z</time>
      </trkpt>
      <trkpt lat="42.20336" lon="2.31591">
        <ele>1248</ele>
        <time>2018-11-26T11:26:29Z</time>
      </trkpt>
      <trkpt lat="42.20337" lon="2.31594">
        <ele>1248</ele>
        <time>2018-11-26T11:26:30Z</time>
      </trkpt>
      <trkpt lat="42.20338" lon="2.31598">
        <ele>1248.1</ele>
        <time>2018-11-26T11:26:32Z</time>
      </trkpt>
      <trkpt lat="42.2034" lon="2.31602">
        <ele>1248</ele>
        <time>2018-11-26T11:26:33Z</time>
      </trkpt>
      <trkpt lat="42.20341" lon="2.31605">
        <ele>1247.8</ele>
        <time>2018-11-26T11:26:34Z</time>
      </trkpt>
      <trkpt lat="42.20342" lon="2.31609">
        <ele>1247.1</ele>
        <time>2018-11-26T11:26:35Z</time>
      </trkpt>
      <trkpt lat="42.20343" lon="2.31611">
        <ele>1246.8</ele>
        <time>2018-11-26T11:26:36Z</time>
      </trkpt>
      <trkpt lat="42.20343" lon="2.31615">
        <ele>1246</ele>
        <time>2018-11-26T11:26:37Z</time>
      </trkpt>
      <trkpt lat="42.20344" lon="2.31618">
        <ele>1246.1</ele>
        <time>2018-11-26T11:26:38Z</time>
      </trkpt>
      <trkpt lat="42.20345" lon="2.31621">
        <ele>1246</ele>
        <time>2018-11-26T11:26:39Z</time>
      </trkpt>
      <trkpt lat="42.20345" lon="2.31623">
        <ele>1246</ele>
        <time>2018-11-26T11:26:40Z</time>
      </trkpt>
      <trkpt lat="42.20346" lon="2.31626">
        <ele>1245</ele>
        <time>2018-11-26T11:26:41Z</time>
      </trkpt>
      <trkpt lat="42.20347" lon="2.3163">
        <ele>1244</ele>
        <time>2018-11-26T11:26:42Z</time>
      </trkpt>
      <trkpt lat="42.20348" lon="2.31632">
        <ele>1243.7</ele>
        <time>2018-11-26T11:26:42Z</time>
      </trkpt>
      <trkpt lat="42.20349" lon="2.31633">
        <ele>1243.1</ele>
        <time>2018-11-26T11:26:43Z</time>
      </trkpt>
      <trkpt lat="42.20351" lon="2.31635">
        <ele>1243.1</ele>
        <time>2018-11-26T11:26:44Z</time>
      </trkpt>
      <trkpt lat="42.20352" lon="2.31637">
        <ele>1242.9</ele>
        <time>2018-11-26T11:26:45Z</time>
      </trkpt>
      <trkpt lat="42.20353" lon="2.31639">
        <ele>1242</ele>
        <time>2018-11-26T11:26:46Z</time>
      </trkpt>
      <trkpt lat="42.20354" lon="2.31642">
        <ele>1242.1</ele>
        <time>2018-11-26T11:26:47Z</time>
      </trkpt>
      <trkpt lat="42.20355" lon="2.31646">
        <ele>1242.1</ele>
        <time>2018-11-26T11:26:48Z</time>
      </trkpt>
      <trkpt lat="42.20356" lon="2.31649">
        <ele>1241</ele>
        <time>2018-11-26T11:26:49Z</time>
      </trkpt>
      <trkpt lat="42.20357" lon="2.31651">
        <ele>1240</ele>
        <time>2018-11-26T11:26:49Z</time>
      </trkpt>
      <trkpt lat="42.20358" lon="2.31654">
        <ele>1240</ele>
        <time>2018-11-26T11:26:50Z</time>
      </trkpt>
      <trkpt lat="42.20358" lon="2.31656">
        <ele>1239</ele>
        <time>2018-11-26T11:26:51Z</time>
      </trkpt>
      <trkpt lat="42.20359" lon="2.31659">
        <ele>1239</ele>
        <time>2018-11-26T11:26:52Z</time>
      </trkpt>
      <trkpt lat="42.20359" lon="2.31662">
        <ele>1239.1</ele>
        <time>2018-11-26T11:26:53Z</time>
      </trkpt>
      <trkpt lat="42.20359" lon="2.31664">
        <ele>1238</ele>
        <time>2018-11-26T11:26:54Z</time>
      </trkpt>
      <trkpt lat="42.2036" lon="2.31668">
        <ele>1238.1</ele>
        <time>2018-11-26T11:26:55Z</time>
      </trkpt>
      <trkpt lat="42.20361" lon="2.31671">
        <ele>1237.1</ele>
        <time>2018-11-26T11:26:56Z</time>
      </trkpt>
      <trkpt lat="42.20362" lon="2.31674">
        <ele>1237.1</ele>
        <time>2018-11-26T11:26:57Z</time>
      </trkpt>
      <trkpt lat="42.20364" lon="2.31678">
        <ele>1236.1</ele>
        <time>2018-11-26T11:26:58Z</time>
      </trkpt>
      <trkpt lat="42.20365" lon="2.31681">
        <ele>1236.1</ele>
        <time>2018-11-26T11:26:59Z</time>
      </trkpt>
      <trkpt lat="42.20367" lon="2.31683">
        <ele>1236.1</ele>
        <time>2018-11-26T11:27:00Z</time>
      </trkpt>
      <trkpt lat="42.20368" lon="2.31687">
        <ele>1236.1</ele>
        <time>2018-11-26T11:27:01Z</time>
      </trkpt>
      <trkpt lat="42.20369" lon="2.3169">
        <ele>1236</ele>
        <time>2018-11-26T11:27:02Z</time>
      </trkpt>
      <trkpt lat="42.20371" lon="2.31693">
        <ele>1236</ele>
        <time>2018-11-26T11:27:03Z</time>
      </trkpt>
      <trkpt lat="42.20372" lon="2.31695">
        <ele>1236</ele>
        <time>2018-11-26T11:27:04Z</time>
      </trkpt>
      <trkpt lat="42.20372" lon="2.31698">
        <ele>1236.1</ele>
        <time>2018-11-26T11:27:05Z</time>
      </trkpt>
      <trkpt lat="42.20373" lon="2.31702">
        <ele>1236.1</ele>
        <time>2018-11-26T11:27:06Z</time>
      </trkpt>
      <trkpt lat="42.20373" lon="2.31706">
        <ele>1235.7</ele>
        <time>2018-11-26T11:27:07Z</time>
      </trkpt>
      <trkpt lat="42.20372" lon="2.31709">
        <ele>1235.1</ele>
        <time>2018-11-26T11:27:08Z</time>
      </trkpt>
      <trkpt lat="42.20373" lon="2.31712">
        <ele>1235</ele>
        <time>2018-11-26T11:27:09Z</time>
      </trkpt>
      <trkpt lat="42.20373" lon="2.31716">
        <ele>1235</ele>
        <time>2018-11-26T11:27:10Z</time>
      </trkpt>
      <trkpt lat="42.20373" lon="2.31719">
        <ele>1235.1</ele>
        <time>2018-11-26T11:27:11Z</time>
      </trkpt>
      <trkpt lat="42.20373" lon="2.31721">
        <ele>1235</ele>
        <time>2018-11-26T11:27:12Z</time>
      </trkpt>
      <trkpt lat="42.20374" lon="2.31724">
        <ele>1235.1</ele>
        <time>2018-11-26T11:27:13Z</time>
      </trkpt>
      <trkpt lat="42.20375" lon="2.31726">
        <ele>1235</ele>
        <time>2018-11-26T11:27:14Z</time>
      </trkpt>
      <trkpt lat="42.20377" lon="2.31728">
        <ele>1235</ele>
        <time>2018-11-26T11:27:15Z</time>
      </trkpt>
      <trkpt lat="42.2038" lon="2.31729">
        <ele>1235</ele>
        <time>2018-11-26T11:27:16Z</time>
      </trkpt>
      <trkpt lat="42.20378" lon="2.3173">
        <ele>1235.1</ele>
        <time>2018-11-26T11:27:17Z</time>
      </trkpt>
      <trkpt lat="42.20378" lon="2.31732">
        <ele>1235</ele>
        <time>2018-11-26T11:27:18Z</time>
      </trkpt>
      <trkpt lat="42.20377" lon="2.31735">
        <ele>1235.1</ele>
        <time>2018-11-26T11:27:19Z</time>
      </trkpt>
      <trkpt lat="42.20377" lon="2.31738">
        <ele>1234.1</ele>
        <time>2018-11-26T11:27:20Z</time>
      </trkpt>
      <trkpt lat="42.20378" lon="2.3174">
        <ele>1234</ele>
        <time>2018-11-26T11:27:20Z</time>
      </trkpt>
      <trkpt lat="42.20379" lon="2.31741">
        <ele>1234.3</ele>
        <time>2018-11-26T11:27:21Z</time>
      </trkpt>
      <trkpt lat="42.20381" lon="2.31743">
        <ele>1235</ele>
        <time>2018-11-26T11:27:22Z</time>
      </trkpt>
      <trkpt lat="42.20383" lon="2.31747">
        <ele>1235.1</ele>
        <time>2018-11-26T11:27:23Z</time>
      </trkpt>
      <trkpt lat="42.20384" lon="2.3175">
        <ele>1235.1</ele>
        <time>2018-11-26T11:27:25Z</time>
      </trkpt>
      <trkpt lat="42.20384" lon="2.31754">
        <ele>1236</ele>
        <time>2018-11-26T11:27:26Z</time>
      </trkpt>
      <trkpt lat="42.20384" lon="2.31756">
        <ele>1236</ele>
        <time>2018-11-26T11:27:26Z</time>
      </trkpt>
      <trkpt lat="42.20384" lon="2.31759">
        <ele>1236</ele>
        <time>2018-11-26T11:27:27Z</time>
      </trkpt>
      <trkpt lat="42.20384" lon="2.31761">
        <ele>1235.9</ele>
        <time>2018-11-26T11:27:28Z</time>
      </trkpt>
      <trkpt lat="42.20384" lon="2.31764">
        <ele>1235.3</ele>
        <time>2018-11-26T11:27:29Z</time>
      </trkpt>
      <trkpt lat="42.20384" lon="2.31767">
        <ele>1236.1</ele>
        <time>2018-11-26T11:27:30Z</time>
      </trkpt>
      <trkpt lat="42.20383" lon="2.31772">
        <ele>1237.1</ele>
        <time>2018-11-26T11:27:31Z</time>
      </trkpt>
      <trkpt lat="42.20384" lon="2.31775">
        <ele>1237</ele>
        <time>2018-11-26T11:27:32Z</time>
      </trkpt>
      <trkpt lat="42.20384" lon="2.31778">
        <ele>1237.1</ele>
        <time>2018-11-26T11:27:33Z</time>
      </trkpt>
      <trkpt lat="42.20383" lon="2.31781">
        <ele>1237.1</ele>
        <time>2018-11-26T11:27:34Z</time>
      </trkpt>
      <trkpt lat="42.20383" lon="2.31785">
        <ele>1237.1</ele>
        <time>2018-11-26T11:27:35Z</time>
      </trkpt>
      <trkpt lat="42.20383" lon="2.31788">
        <ele>1237</ele>
        <time>2018-11-26T11:27:36Z</time>
      </trkpt>
      <trkpt lat="42.20383" lon="2.31791">
        <ele>1237.1</ele>
        <time>2018-11-26T11:27:37Z</time>
      </trkpt>
      <trkpt lat="42.20382" lon="2.31794">
        <ele>1237</ele>
        <time>2018-11-26T11:27:38Z</time>
      </trkpt>
      <trkpt lat="42.20381" lon="2.31797">
        <ele>1237</ele>
        <time>2018-11-26T11:27:39Z</time>
      </trkpt>
      <trkpt lat="42.20381" lon="2.31801">
        <ele>1237.1</ele>
        <time>2018-11-26T11:27:40Z</time>
      </trkpt>
      <trkpt lat="42.20382" lon="2.31804">
        <ele>1236.9</ele>
        <time>2018-11-26T11:27:41Z</time>
      </trkpt>
      <trkpt lat="42.20384" lon="2.31806">
        <ele>1236.1</ele>
        <time>2018-11-26T11:27:42Z</time>
      </trkpt>
      <trkpt lat="42.20386" lon="2.31808">
        <ele>1236</ele>
        <time>2018-11-26T11:27:43Z</time>
      </trkpt>
      <trkpt lat="42.20386" lon="2.31812">
        <ele>1236</ele>
        <time>2018-11-26T11:27:44Z</time>
      </trkpt>
      <trkpt lat="42.20387" lon="2.31815">
        <ele>1236.1</ele>
        <time>2018-11-26T11:27:45Z</time>
      </trkpt>
      <trkpt lat="42.20386" lon="2.31818">
        <ele>1235.1</ele>
        <time>2018-11-26T11:27:46Z</time>
      </trkpt>
      <trkpt lat="42.20386" lon="2.31822">
        <ele>1235.1</ele>
        <time>2018-11-26T11:27:47Z</time>
      </trkpt>
      <trkpt lat="42.20387" lon="2.31826">
        <ele>1235.1</ele>
        <time>2018-11-26T11:27:48Z</time>
      </trkpt>
      <trkpt lat="42.20388" lon="2.3183">
        <ele>1235</ele>
        <time>2018-11-26T11:27:50Z</time>
      </trkpt>
      <trkpt lat="42.20389" lon="2.31834">
        <ele>1235</ele>
        <time>2018-11-26T11:27:51Z</time>
      </trkpt>
      <trkpt lat="42.20389" lon="2.31838">
        <ele>1235</ele>
        <time>2018-11-26T11:27:52Z</time>
      </trkpt>
      <trkpt lat="42.20389" lon="2.31841">
        <ele>1235.1</ele>
        <time>2018-11-26T11:27:53Z</time>
      </trkpt>
      <trkpt lat="42.20389" lon="2.31846">
        <ele>1235.1</ele>
        <time>2018-11-26T11:27:54Z</time>
      </trkpt>
      <trkpt lat="42.20389" lon="2.3185">
        <ele>1234.1</ele>
        <time>2018-11-26T11:27:56Z</time>
      </trkpt>
      <trkpt lat="42.2039" lon="2.31854">
        <ele>1234.2</ele>
        <time>2018-11-26T11:27:57Z</time>
      </trkpt>
      <trkpt lat="42.20389" lon="2.31857">
        <ele>1234.9</ele>
        <time>2018-11-26T11:27:58Z</time>
      </trkpt>
      <trkpt lat="42.20388" lon="2.31861">
        <ele>1234.1</ele>
        <time>2018-11-26T11:27:59Z</time>
      </trkpt>
      <trkpt lat="42.20387" lon="2.31865">
        <ele>1234.1</ele>
        <time>2018-11-26T11:28:00Z</time>
      </trkpt>
      <trkpt lat="42.20386" lon="2.31869">
        <ele>1234.1</ele>
        <time>2018-11-26T11:28:01Z</time>
      </trkpt>
      <trkpt lat="42.20386" lon="2.31873">
        <ele>1234.1</ele>
        <time>2018-11-26T11:28:02Z</time>
      </trkpt>
      <trkpt lat="42.20386" lon="2.31876">
        <ele>1234.1</ele>
        <time>2018-11-26T11:28:04Z</time>
      </trkpt>
      <trkpt lat="42.20387" lon="2.3188">
        <ele>1234</ele>
        <time>2018-11-26T11:28:05Z</time>
      </trkpt>
      <trkpt lat="42.20387" lon="2.31884">
        <ele>1234</ele>
        <time>2018-11-26T11:28:06Z</time>
      </trkpt>
      <trkpt lat="42.20387" lon="2.31887">
        <ele>1234</ele>
        <time>2018-11-26T11:28:07Z</time>
      </trkpt>
      <trkpt lat="42.20387" lon="2.31891">
        <ele>1233.9</ele>
        <time>2018-11-26T11:28:08Z</time>
      </trkpt>
      <trkpt lat="42.20388" lon="2.31895">
        <ele>1233</ele>
        <time>2018-11-26T11:28:09Z</time>
      </trkpt>
      <trkpt lat="42.20389" lon="2.31899">
        <ele>1233</ele>
        <time>2018-11-26T11:28:10Z</time>
      </trkpt>
      <trkpt lat="42.20389" lon="2.31902">
        <ele>1233.1</ele>
        <time>2018-11-26T11:28:11Z</time>
      </trkpt>
      <trkpt lat="42.20389" lon="2.31906">
        <ele>1233.4</ele>
        <time>2018-11-26T11:28:13Z</time>
      </trkpt>
      <trkpt lat="42.20388" lon="2.31909">
        <ele>1234</ele>
        <time>2018-11-26T11:28:14Z</time>
      </trkpt>
      <trkpt lat="42.20386" lon="2.31912">
        <ele>1234</ele>
        <time>2018-11-26T11:28:15Z</time>
      </trkpt>
      <trkpt lat="42.20385" lon="2.31915">
        <ele>1234.1</ele>
        <time>2018-11-26T11:28:16Z</time>
      </trkpt>
      <trkpt lat="42.20384" lon="2.31918">
        <ele>1234</ele>
        <time>2018-11-26T11:28:17Z</time>
      </trkpt>
      <trkpt lat="42.20382" lon="2.31922">
        <ele>1234</ele>
        <time>2018-11-26T11:28:18Z</time>
      </trkpt>
      <trkpt lat="42.20381" lon="2.31924">
        <ele>1234</ele>
        <time>2018-11-26T11:28:19Z</time>
      </trkpt>
      <trkpt lat="42.2038" lon="2.31927">
        <ele>1234.1</ele>
        <time>2018-11-26T11:28:20Z</time>
      </trkpt>
      <trkpt lat="42.2038" lon="2.3193">
        <ele>1234</ele>
        <time>2018-11-26T11:28:21Z</time>
      </trkpt>
      <trkpt lat="42.2038" lon="2.31932">
        <ele>1234.1</ele>
        <time>2018-11-26T11:28:21Z</time>
      </trkpt>
      <trkpt lat="42.2038" lon="2.31935">
        <ele>1234</ele>
        <time>2018-11-26T11:28:22Z</time>
      </trkpt>
      <trkpt lat="42.2038" lon="2.31938">
        <ele>1234</ele>
        <time>2018-11-26T11:28:23Z</time>
      </trkpt>
      <trkpt lat="42.20379" lon="2.31942">
        <ele>1234.1</ele>
        <time>2018-11-26T11:28:24Z</time>
      </trkpt>
      <trkpt lat="42.20378" lon="2.31944">
        <ele>1234.1</ele>
        <time>2018-11-26T11:28:25Z</time>
      </trkpt>
      <trkpt lat="42.20377" lon="2.31947">
        <ele>1235.1</ele>
        <time>2018-11-26T11:28:26Z</time>
      </trkpt>
      <trkpt lat="42.20377" lon="2.3195">
        <ele>1235</ele>
        <time>2018-11-26T11:28:27Z</time>
      </trkpt>
      <trkpt lat="42.20376" lon="2.31955">
        <ele>1235</ele>
        <time>2018-11-26T11:28:28Z</time>
      </trkpt>
      <trkpt lat="42.20375" lon="2.31959">
        <ele>1235</ele>
        <time>2018-11-26T11:28:30Z</time>
      </trkpt>
      <trkpt lat="42.20374" lon="2.31962">
        <ele>1235</ele>
        <time>2018-11-26T11:28:31Z</time>
      </trkpt>
      <trkpt lat="42.20373" lon="2.31965">
        <ele>1235.1</ele>
        <time>2018-11-26T11:28:32Z</time>
      </trkpt>
      <trkpt lat="42.20372" lon="2.31968">
        <ele>1235.1</ele>
        <time>2018-11-26T11:28:33Z</time>
      </trkpt>
      <trkpt lat="42.20371" lon="2.31971">
        <ele>1236</ele>
        <time>2018-11-26T11:28:34Z</time>
      </trkpt>
      <trkpt lat="42.20368" lon="2.31974">
        <ele>1236</ele>
        <time>2018-11-26T11:28:35Z</time>
      </trkpt>
      <trkpt lat="42.20366" lon="2.31977">
        <ele>1236</ele>
        <time>2018-11-26T11:28:36Z</time>
      </trkpt>
      <trkpt lat="42.20365" lon="2.31981">
        <ele>1237.1</ele>
        <time>2018-11-26T11:28:37Z</time>
      </trkpt>
      <trkpt lat="42.20362" lon="2.31984">
        <ele>1237.1</ele>
        <time>2018-11-26T11:28:39Z</time>
      </trkpt>
      <trkpt lat="42.20361" lon="2.31987">
        <ele>1238.1</ele>
        <time>2018-11-26T11:28:40Z</time>
      </trkpt>
      <trkpt lat="42.20358" lon="2.3199">
        <ele>1238.1</ele>
        <time>2018-11-26T11:28:41Z</time>
      </trkpt>
      <trkpt lat="42.20357" lon="2.31994">
        <ele>1238.1</ele>
        <time>2018-11-26T11:28:43Z</time>
      </trkpt>
      <trkpt lat="42.20355" lon="2.31998">
        <ele>1239</ele>
        <time>2018-11-26T11:28:44Z</time>
      </trkpt>
      <trkpt lat="42.20353" lon="2.32">
        <ele>1239</ele>
        <time>2018-11-26T11:28:45Z</time>
      </trkpt>
      <trkpt lat="42.20351" lon="2.32003">
        <ele>1239</ele>
        <time>2018-11-26T11:28:46Z</time>
      </trkpt>
      <trkpt lat="42.20348" lon="2.32005">
        <ele>1239.2</ele>
        <time>2018-11-26T11:28:47Z</time>
      </trkpt>
      <trkpt lat="42.20346" lon="2.32007">
        <ele>1240.1</ele>
        <time>2018-11-26T11:28:48Z</time>
      </trkpt>
      <trkpt lat="42.20343" lon="2.32011">
        <ele>1240.1</ele>
        <time>2018-11-26T11:28:50Z</time>
      </trkpt>
      <trkpt lat="42.20341" lon="2.32015">
        <ele>1240</ele>
        <time>2018-11-26T11:28:51Z</time>
      </trkpt>
      <trkpt lat="42.20339" lon="2.32019">
        <ele>1240.1</ele>
        <time>2018-11-26T11:28:53Z</time>
      </trkpt>
      <trkpt lat="42.20338" lon="2.32021">
        <ele>1241.1</ele>
        <time>2018-11-26T11:28:54Z</time>
      </trkpt>
      <trkpt lat="42.20337" lon="2.32023">
        <ele>1241</ele>
        <time>2018-11-26T11:28:54Z</time>
      </trkpt>
      <trkpt lat="42.20335" lon="2.32025">
        <ele>1241</ele>
        <time>2018-11-26T11:28:55Z</time>
      </trkpt>
      <trkpt lat="42.20333" lon="2.32027">
        <ele>1241</ele>
        <time>2018-11-26T11:28:56Z</time>
      </trkpt>
      <trkpt lat="42.20332" lon="2.32029">
        <ele>1241</ele>
        <time>2018-11-26T11:28:57Z</time>
      </trkpt>
      <trkpt lat="42.2033" lon="2.3203">
        <ele>1241.1</ele>
        <time>2018-11-26T11:28:58Z</time>
      </trkpt>
      <trkpt lat="42.20328" lon="2.32034">
        <ele>1243</ele>
        <time>2018-11-26T11:28:59Z</time>
      </trkpt>
      <trkpt lat="42.20327" lon="2.32038">
        <ele>1244.1</ele>
        <time>2018-11-26T11:29:00Z</time>
      </trkpt>
      <trkpt lat="42.20326" lon="2.32041">
        <ele>1244</ele>
        <time>2018-11-26T11:29:01Z</time>
      </trkpt>
      <trkpt lat="42.20325" lon="2.32045">
        <ele>1245</ele>
        <time>2018-11-26T11:29:03Z</time>
      </trkpt>
      <trkpt lat="42.20326" lon="2.32049">
        <ele>1245.1</ele>
        <time>2018-11-26T11:29:04Z</time>
      </trkpt>
      <trkpt lat="42.20327" lon="2.32052">
        <ele>1245.1</ele>
        <time>2018-11-26T11:29:05Z</time>
      </trkpt>
      <trkpt lat="42.20329" lon="2.32056">
        <ele>1245</ele>
        <time>2018-11-26T11:29:06Z</time>
      </trkpt>
      <trkpt lat="42.20331" lon="2.32059">
        <ele>1245</ele>
        <time>2018-11-26T11:29:07Z</time>
      </trkpt>
      <trkpt lat="42.20333" lon="2.32062">
        <ele>1245.1</ele>
        <time>2018-11-26T11:29:09Z</time>
      </trkpt>
      <trkpt lat="42.20335" lon="2.32064">
        <ele>1245.1</ele>
        <time>2018-11-26T11:29:10Z</time>
      </trkpt>
      <trkpt lat="42.20337" lon="2.32067">
        <ele>1245</ele>
        <time>2018-11-26T11:29:11Z</time>
      </trkpt>
      <trkpt lat="42.2034" lon="2.32069">
        <ele>1244.7</ele>
        <time>2018-11-26T11:29:12Z</time>
      </trkpt>
      <trkpt lat="42.20342" lon="2.32071">
        <ele>1244.1</ele>
        <time>2018-11-26T11:29:13Z</time>
      </trkpt>
      <trkpt lat="42.20344" lon="2.32073">
        <ele>1244.1</ele>
        <time>2018-11-26T11:29:14Z</time>
      </trkpt>
      <trkpt lat="42.20347" lon="2.32075">
        <ele>1244</ele>
        <time>2018-11-26T11:29:15Z</time>
      </trkpt>
      <trkpt lat="42.2035" lon="2.32076">
        <ele>1244.1</ele>
        <time>2018-11-26T11:29:17Z</time>
      </trkpt>
      <trkpt lat="42.20352" lon="2.32078">
        <ele>1244.1</ele>
        <time>2018-11-26T11:29:17Z</time>
      </trkpt>
      <trkpt lat="42.20354" lon="2.32079">
        <ele>1244.1</ele>
        <time>2018-11-26T11:29:18Z</time>
      </trkpt>
      <trkpt lat="42.20355" lon="2.3208">
        <ele>1243</ele>
        <time>2018-11-26T11:29:19Z</time>
      </trkpt>
      <trkpt lat="42.20357" lon="2.32082">
        <ele>1243.1</ele>
        <time>2018-11-26T11:29:20Z</time>
      </trkpt>
      <trkpt lat="42.20359" lon="2.32083">
        <ele>1243</ele>
        <time>2018-11-26T11:29:21Z</time>
      </trkpt>
      <trkpt lat="42.20362" lon="2.32086">
        <ele>1243</ele>
        <time>2018-11-26T11:29:22Z</time>
      </trkpt>
      <trkpt lat="42.20364" lon="2.32088">
        <ele>1243</ele>
        <time>2018-11-26T11:29:23Z</time>
      </trkpt>
      <trkpt lat="42.20366" lon="2.3209">
        <ele>1243</ele>
        <time>2018-11-26T11:29:24Z</time>
      </trkpt>
      <trkpt lat="42.20368" lon="2.32092">
        <ele>1243</ele>
        <time>2018-11-26T11:29:25Z</time>
      </trkpt>
      <trkpt lat="42.2037" lon="2.32095">
        <ele>1243</ele>
        <time>2018-11-26T11:29:26Z</time>
      </trkpt>
      <trkpt lat="42.20371" lon="2.32098">
        <ele>1242.1</ele>
        <time>2018-11-26T11:29:27Z</time>
      </trkpt>
      <trkpt lat="42.20372" lon="2.321">
        <ele>1242</ele>
        <time>2018-11-26T11:29:28Z</time>
      </trkpt>
      <trkpt lat="42.20374" lon="2.32104">
        <ele>1241.9</ele>
        <time>2018-11-26T11:29:29Z</time>
      </trkpt>
      <trkpt lat="42.20375" lon="2.32107">
        <ele>1241.1</ele>
        <time>2018-11-26T11:29:31Z</time>
      </trkpt>
      <trkpt lat="42.20376" lon="2.32111">
        <ele>1241</ele>
        <time>2018-11-26T11:29:32Z</time>
      </trkpt>
      <trkpt lat="42.20376" lon="2.32115">
        <ele>1241</ele>
        <time>2018-11-26T11:29:33Z</time>
      </trkpt>
      <trkpt lat="42.20376" lon="2.32119">
        <ele>1241.1</ele>
        <time>2018-11-26T11:29:34Z</time>
      </trkpt>
      <trkpt lat="42.20375" lon="2.32123">
        <ele>1241</ele>
        <time>2018-11-26T11:29:35Z</time>
      </trkpt>
      <trkpt lat="42.20375" lon="2.32126">
        <ele>1241</ele>
        <time>2018-11-26T11:29:36Z</time>
      </trkpt>
      <trkpt lat="42.20375" lon="2.32128">
        <ele>1241</ele>
        <time>2018-11-26T11:29:37Z</time>
      </trkpt>
      <trkpt lat="42.20374" lon="2.32131">
        <ele>1241.1</ele>
        <time>2018-11-26T11:29:38Z</time>
      </trkpt>
      <trkpt lat="42.20375" lon="2.32136">
        <ele>1241</ele>
        <time>2018-11-26T11:29:39Z</time>
      </trkpt>
      <trkpt lat="42.20375" lon="2.32138">
        <ele>1241</ele>
        <time>2018-11-26T11:29:40Z</time>
      </trkpt>
      <trkpt lat="42.20375" lon="2.32141">
        <ele>1241</ele>
        <time>2018-11-26T11:29:41Z</time>
      </trkpt>
      <trkpt lat="42.20375" lon="2.32144">
        <ele>1241.1</ele>
        <time>2018-11-26T11:29:42Z</time>
      </trkpt>
      <trkpt lat="42.20376" lon="2.32147">
        <ele>1241.1</ele>
        <time>2018-11-26T11:29:43Z</time>
      </trkpt>
      <trkpt lat="42.20376" lon="2.3215">
        <ele>1241.1</ele>
        <time>2018-11-26T11:29:43Z</time>
      </trkpt>
      <trkpt lat="42.20376" lon="2.32152">
        <ele>1241.1</ele>
        <time>2018-11-26T11:29:44Z</time>
      </trkpt>
      <trkpt lat="42.20377" lon="2.32155">
        <ele>1241.1</ele>
        <time>2018-11-26T11:29:45Z</time>
      </trkpt>
      <trkpt lat="42.20377" lon="2.32158">
        <ele>1241.1</ele>
        <time>2018-11-26T11:29:46Z</time>
      </trkpt>
      <trkpt lat="42.20378" lon="2.32163">
        <ele>1241</ele>
        <time>2018-11-26T11:29:47Z</time>
      </trkpt>
      <trkpt lat="42.20378" lon="2.32168">
        <ele>1242</ele>
        <time>2018-11-26T11:29:49Z</time>
      </trkpt>
      <trkpt lat="42.20377" lon="2.32172">
        <ele>1242</ele>
        <time>2018-11-26T11:29:50Z</time>
      </trkpt>
      <trkpt lat="42.20377" lon="2.32176">
        <ele>1242.1</ele>
        <time>2018-11-26T11:29:51Z</time>
      </trkpt>
      <trkpt lat="42.20378" lon="2.3218">
        <ele>1241.8</ele>
        <time>2018-11-26T11:29:53Z</time>
      </trkpt>
      <trkpt lat="42.2038" lon="2.32183">
        <ele>1241.1</ele>
        <time>2018-11-26T11:29:54Z</time>
      </trkpt>
      <trkpt lat="42.20381" lon="2.32185">
        <ele>1241.1</ele>
        <time>2018-11-26T11:29:55Z</time>
      </trkpt>
      <trkpt lat="42.20384" lon="2.32188">
        <ele>1241</ele>
        <time>2018-11-26T11:29:56Z</time>
      </trkpt>
      <trkpt lat="42.20385" lon="2.32191">
        <ele>1241</ele>
        <time>2018-11-26T11:29:57Z</time>
      </trkpt>
      <trkpt lat="42.20386" lon="2.32194">
        <ele>1241</ele>
        <time>2018-11-26T11:29:58Z</time>
      </trkpt>
      <trkpt lat="42.20388" lon="2.32197">
        <ele>1241.1</ele>
        <time>2018-11-26T11:29:59Z</time>
      </trkpt>
      <trkpt lat="42.2039" lon="2.322">
        <ele>1241.1</ele>
        <time>2018-11-26T11:30:00Z</time>
      </trkpt>
      <trkpt lat="42.20392" lon="2.32203">
        <ele>1241</ele>
        <time>2018-11-26T11:30:02Z</time>
      </trkpt>
      <trkpt lat="42.20394" lon="2.32207">
        <ele>1241</ele>
        <time>2018-11-26T11:30:03Z</time>
      </trkpt>
      <trkpt lat="42.20396" lon="2.32211">
        <ele>1241.1</ele>
        <time>2018-11-26T11:30:04Z</time>
      </trkpt>
      <trkpt lat="42.20396" lon="2.32215">
        <ele>1241.1</ele>
        <time>2018-11-26T11:30:05Z</time>
      </trkpt>
      <trkpt lat="42.20396" lon="2.32219">
        <ele>1241</ele>
        <time>2018-11-26T11:30:07Z</time>
      </trkpt>
      <trkpt lat="42.20396" lon="2.32223">
        <ele>1241</ele>
        <time>2018-11-26T11:30:08Z</time>
      </trkpt>
      <trkpt lat="42.20397" lon="2.32227">
        <ele>1241</ele>
        <time>2018-11-26T11:30:09Z</time>
      </trkpt>
      <trkpt lat="42.20397" lon="2.32231">
        <ele>1241.1</ele>
        <time>2018-11-26T11:30:10Z</time>
      </trkpt>
      <trkpt lat="42.20397" lon="2.32235">
        <ele>1241</ele>
        <time>2018-11-26T11:30:11Z</time>
      </trkpt>
      <trkpt lat="42.20397" lon="2.32237">
        <ele>1241</ele>
        <time>2018-11-26T11:30:12Z</time>
      </trkpt>
      <trkpt lat="42.20398" lon="2.32241">
        <ele>1241.1</ele>
        <time>2018-11-26T11:30:13Z</time>
      </trkpt>
      <trkpt lat="42.20398" lon="2.32246">
        <ele>1242.1</ele>
        <time>2018-11-26T11:30:15Z</time>
      </trkpt>
      <trkpt lat="42.20398" lon="2.3225">
        <ele>1243</ele>
        <time>2018-11-26T11:30:16Z</time>
      </trkpt>
      <trkpt lat="42.20398" lon="2.32253">
        <ele>1243</ele>
        <time>2018-11-26T11:30:17Z</time>
      </trkpt>
      <trkpt lat="42.20398" lon="2.32256">
        <ele>1243</ele>
        <time>2018-11-26T11:30:18Z</time>
      </trkpt>
      <trkpt lat="42.20398" lon="2.32259">
        <ele>1243.1</ele>
        <time>2018-11-26T11:30:19Z</time>
      </trkpt>
      <trkpt lat="42.20399" lon="2.32261">
        <ele>1243</ele>
        <time>2018-11-26T11:30:19Z</time>
      </trkpt>
      <trkpt lat="42.20399" lon="2.32264">
        <ele>1243</ele>
        <time>2018-11-26T11:30:20Z</time>
      </trkpt>
      <trkpt lat="42.204" lon="2.32266">
        <ele>1243.1</ele>
        <time>2018-11-26T11:30:21Z</time>
      </trkpt>
      <trkpt lat="42.20401" lon="2.32269">
        <ele>1243.1</ele>
        <time>2018-11-26T11:30:22Z</time>
      </trkpt>
      <trkpt lat="42.20402" lon="2.32271">
        <ele>1243</ele>
        <time>2018-11-26T11:30:23Z</time>
      </trkpt>
      <trkpt lat="42.20403" lon="2.32275">
        <ele>1243</ele>
        <time>2018-11-26T11:30:24Z</time>
      </trkpt>
      <trkpt lat="42.20404" lon="2.32277">
        <ele>1243</ele>
        <time>2018-11-26T11:30:25Z</time>
      </trkpt>
      <trkpt lat="42.20404" lon="2.3228">
        <ele>1243.1</ele>
        <time>2018-11-26T11:30:25Z</time>
      </trkpt>
      <trkpt lat="42.20404" lon="2.32283">
        <ele>1243</ele>
        <time>2018-11-26T11:30:26Z</time>
      </trkpt>
      <trkpt lat="42.20405" lon="2.32286">
        <ele>1243</ele>
        <time>2018-11-26T11:30:27Z</time>
      </trkpt>
      <trkpt lat="42.20405" lon="2.32288">
        <ele>1243.4</ele>
        <time>2018-11-26T11:30:28Z</time>
      </trkpt>
      <trkpt lat="42.20406" lon="2.32291">
        <ele>1244</ele>
        <time>2018-11-26T11:30:29Z</time>
      </trkpt>
      <trkpt lat="42.20406" lon="2.32293">
        <ele>1244.1</ele>
        <time>2018-11-26T11:30:29Z</time>
      </trkpt>
      <trkpt lat="42.20407" lon="2.32296">
        <ele>1244.1</ele>
        <time>2018-11-26T11:30:30Z</time>
      </trkpt>
      <trkpt lat="42.20407" lon="2.32298">
        <ele>1244.1</ele>
        <time>2018-11-26T11:30:31Z</time>
      </trkpt>
      <trkpt lat="42.20408" lon="2.32301">
        <ele>1244.1</ele>
        <time>2018-11-26T11:30:32Z</time>
      </trkpt>
      <trkpt lat="42.2041" lon="2.32304">
        <ele>1244.1</ele>
        <time>2018-11-26T11:30:33Z</time>
      </trkpt>
      <trkpt lat="42.20411" lon="2.32306">
        <ele>1244</ele>
        <time>2018-11-26T11:30:34Z</time>
      </trkpt>
      <trkpt lat="42.20411" lon="2.32309">
        <ele>1244.1</ele>
        <time>2018-11-26T11:30:35Z</time>
      </trkpt>
      <trkpt lat="42.20412" lon="2.32312">
        <ele>1244.1</ele>
        <time>2018-11-26T11:30:35Z</time>
      </trkpt>
      <trkpt lat="42.20413" lon="2.32315">
        <ele>1244</ele>
        <time>2018-11-26T11:30:36Z</time>
      </trkpt>
      <trkpt lat="42.20414" lon="2.32318">
        <ele>1244</ele>
        <time>2018-11-26T11:30:37Z</time>
      </trkpt>
      <trkpt lat="42.20414" lon="2.32321">
        <ele>1244</ele>
        <time>2018-11-26T11:30:38Z</time>
      </trkpt>
      <trkpt lat="42.20415" lon="2.32324">
        <ele>1244.1</ele>
        <time>2018-11-26T11:30:39Z</time>
      </trkpt>
      <trkpt lat="42.20415" lon="2.32327">
        <ele>1244</ele>
        <time>2018-11-26T11:30:40Z</time>
      </trkpt>
      <trkpt lat="42.20416" lon="2.3233">
        <ele>1244.1</ele>
        <time>2018-11-26T11:30:41Z</time>
      </trkpt>
      <trkpt lat="42.20415" lon="2.32333">
        <ele>1245.1</ele>
        <time>2018-11-26T11:30:42Z</time>
      </trkpt>
      <trkpt lat="42.20415" lon="2.32336">
        <ele>1245</ele>
        <time>2018-11-26T11:30:43Z</time>
      </trkpt>
      <trkpt lat="42.20414" lon="2.32339">
        <ele>1245.1</ele>
        <time>2018-11-26T11:30:44Z</time>
      </trkpt>
      <trkpt lat="42.20414" lon="2.32343">
        <ele>1245.1</ele>
        <time>2018-11-26T11:30:45Z</time>
      </trkpt>
      <trkpt lat="42.20413" lon="2.32346">
        <ele>1245.2</ele>
        <time>2018-11-26T11:30:46Z</time>
      </trkpt>
      <trkpt lat="42.20412" lon="2.32349">
        <ele>1246</ele>
        <time>2018-11-26T11:30:47Z</time>
      </trkpt>
      <trkpt lat="42.20412" lon="2.32352">
        <ele>1246</ele>
        <time>2018-11-26T11:30:48Z</time>
      </trkpt>
      <trkpt lat="42.20411" lon="2.32355">
        <ele>1245.8</ele>
        <time>2018-11-26T11:30:49Z</time>
      </trkpt>
      <trkpt lat="42.2041" lon="2.32358">
        <ele>1245</ele>
        <time>2018-11-26T11:30:49Z</time>
      </trkpt>
      <trkpt lat="42.2041" lon="2.32361">
        <ele>1245.1</ele>
        <time>2018-11-26T11:30:50Z</time>
      </trkpt>
      <trkpt lat="42.20409" lon="2.32364">
        <ele>1245</ele>
        <time>2018-11-26T11:30:52Z</time>
      </trkpt>
      <trkpt lat="42.20407" lon="2.32368">
        <ele>1245.1</ele>
        <time>2018-11-26T11:30:53Z</time>
      </trkpt>
      <trkpt lat="42.20405" lon="2.32371">
        <ele>1244.1</ele>
        <time>2018-11-26T11:30:54Z</time>
      </trkpt>
      <trkpt lat="42.20403" lon="2.32373">
        <ele>1244.1</ele>
        <time>2018-11-26T11:30:55Z</time>
      </trkpt>
      <trkpt lat="42.20402" lon="2.32375">
        <ele>1244.1</ele>
        <time>2018-11-26T11:30:56Z</time>
      </trkpt>
      <trkpt lat="42.20401" lon="2.32378">
        <ele>1244.2</ele>
        <time>2018-11-26T11:30:57Z</time>
      </trkpt>
      <trkpt lat="42.20401" lon="2.32381">
        <ele>1245.2</ele>
        <time>2018-11-26T11:30:58Z</time>
      </trkpt>
      <trkpt lat="42.20401" lon="2.32384">
        <ele>1246.1</ele>
        <time>2018-11-26T11:30:58Z</time>
      </trkpt>
      <trkpt lat="42.20402" lon="2.32386">
        <ele>1246</ele>
        <time>2018-11-26T11:30:59Z</time>
      </trkpt>
      <trkpt lat="42.20403" lon="2.3239">
        <ele>1247.1</ele>
        <time>2018-11-26T11:31:00Z</time>
      </trkpt>
      <trkpt lat="42.20403" lon="2.32394">
        <ele>1249.1</ele>
        <time>2018-11-26T11:31:02Z</time>
      </trkpt>
      <trkpt lat="42.20402" lon="2.32396">
        <ele>1249.1</ele>
        <time>2018-11-26T11:31:02Z</time>
      </trkpt>
      <trkpt lat="42.20402" lon="2.32399">
        <ele>1249.1</ele>
        <time>2018-11-26T11:31:03Z</time>
      </trkpt>
      <trkpt lat="42.20402" lon="2.32402">
        <ele>1249.1</ele>
        <time>2018-11-26T11:31:04Z</time>
      </trkpt>
      <trkpt lat="42.20401" lon="2.32405">
        <ele>1249</ele>
        <time>2018-11-26T11:31:05Z</time>
      </trkpt>
      <trkpt lat="42.20401" lon="2.32408">
        <ele>1249.1</ele>
        <time>2018-11-26T11:31:06Z</time>
      </trkpt>
      <trkpt lat="42.204" lon="2.32411">
        <ele>1249.1</ele>
        <time>2018-11-26T11:31:07Z</time>
      </trkpt>
      <trkpt lat="42.20399" lon="2.32414">
        <ele>1249.1</ele>
        <time>2018-11-26T11:31:08Z</time>
      </trkpt>
      <trkpt lat="42.20398" lon="2.32417">
        <ele>1249.1</ele>
        <time>2018-11-26T11:31:09Z</time>
      </trkpt>
      <trkpt lat="42.20398" lon="2.3242">
        <ele>1249.1</ele>
        <time>2018-11-26T11:31:09Z</time>
      </trkpt>
      <trkpt lat="42.20397" lon="2.32423">
        <ele>1249</ele>
        <time>2018-11-26T11:31:10Z</time>
      </trkpt>
      <trkpt lat="42.20396" lon="2.32425">
        <ele>1249</ele>
        <time>2018-11-26T11:31:11Z</time>
      </trkpt>
      <trkpt lat="42.20394" lon="2.32428">
        <ele>1249.3</ele>
        <time>2018-11-26T11:31:12Z</time>
      </trkpt>
      <trkpt lat="42.20392" lon="2.32433">
        <ele>1250.1</ele>
        <time>2018-11-26T11:31:14Z</time>
      </trkpt>
      <trkpt lat="42.20392" lon="2.32435">
        <ele>1250.3</ele>
        <time>2018-11-26T11:31:15Z</time>
      </trkpt>
      <trkpt lat="42.20391" lon="2.32439">
        <ele>1251</ele>
        <time>2018-11-26T11:31:16Z</time>
      </trkpt>
      <trkpt lat="42.20391" lon="2.32443">
        <ele>1251.1</ele>
        <time>2018-11-26T11:31:17Z</time>
      </trkpt>
      <trkpt lat="42.20392" lon="2.32447">
        <ele>1251.1</ele>
        <time>2018-11-26T11:31:18Z</time>
      </trkpt>
      <trkpt lat="42.20392" lon="2.32451">
        <ele>1251</ele>
        <time>2018-11-26T11:31:19Z</time>
      </trkpt>
      <trkpt lat="42.20392" lon="2.32455">
        <ele>1251.1</ele>
        <time>2018-11-26T11:31:21Z</time>
      </trkpt>
      <trkpt lat="42.20392" lon="2.32458">
        <ele>1251.1</ele>
        <time>2018-11-26T11:31:22Z</time>
      </trkpt>
      <trkpt lat="42.20392" lon="2.32461">
        <ele>1251</ele>
        <time>2018-11-26T11:31:23Z</time>
      </trkpt>
      <trkpt lat="42.20392" lon="2.32464">
        <ele>1251.1</ele>
        <time>2018-11-26T11:31:23Z</time>
      </trkpt>
      <trkpt lat="42.20392" lon="2.32467">
        <ele>1252</ele>
        <time>2018-11-26T11:31:24Z</time>
      </trkpt>
      <trkpt lat="42.20393" lon="2.32471">
        <ele>1252.1</ele>
        <time>2018-11-26T11:31:26Z</time>
      </trkpt>
      <trkpt lat="42.20394" lon="2.32475">
        <ele>1251.8</ele>
        <time>2018-11-26T11:31:27Z</time>
      </trkpt>
      <trkpt lat="42.20395" lon="2.3248">
        <ele>1251.1</ele>
        <time>2018-11-26T11:31:28Z</time>
      </trkpt>
      <trkpt lat="42.20395" lon="2.32482">
        <ele>1251</ele>
        <time>2018-11-26T11:31:29Z</time>
      </trkpt>
      <trkpt lat="42.20395" lon="2.32486">
        <ele>1251.1</ele>
        <time>2018-11-26T11:31:30Z</time>
      </trkpt>
      <trkpt lat="42.20393" lon="2.32489">
        <ele>1252.1</ele>
        <time>2018-11-26T11:31:31Z</time>
      </trkpt>
      <trkpt lat="42.20393" lon="2.32493">
        <ele>1252.3</ele>
        <time>2018-11-26T11:31:32Z</time>
      </trkpt>
      <trkpt lat="42.20392" lon="2.32496">
        <ele>1253</ele>
        <time>2018-11-26T11:31:33Z</time>
      </trkpt>
      <trkpt lat="42.20391" lon="2.325">
        <ele>1253.1</ele>
        <time>2018-11-26T11:31:34Z</time>
      </trkpt>
      <trkpt lat="42.20392" lon="2.32503">
        <ele>1253.1</ele>
        <time>2018-11-26T11:31:35Z</time>
      </trkpt>
      <trkpt lat="42.20392" lon="2.32506">
        <ele>1253</ele>
        <time>2018-11-26T11:31:36Z</time>
      </trkpt>
      <trkpt lat="42.20392" lon="2.32508">
        <ele>1253</ele>
        <time>2018-11-26T11:31:37Z</time>
      </trkpt>
      <trkpt lat="42.20391" lon="2.32511">
        <ele>1253.1</ele>
        <time>2018-11-26T11:31:38Z</time>
      </trkpt>
      <trkpt lat="42.20391" lon="2.32514">
        <ele>1253</ele>
        <time>2018-11-26T11:31:39Z</time>
      </trkpt>
      <trkpt lat="42.20392" lon="2.32516">
        <ele>1253.1</ele>
        <time>2018-11-26T11:31:40Z</time>
      </trkpt>
      <trkpt lat="42.20391" lon="2.32518">
        <ele>1253.1</ele>
        <time>2018-11-26T11:31:40Z</time>
      </trkpt>
      <trkpt lat="42.20389" lon="2.32518">
        <ele>1253.1</ele>
        <time>2018-11-26T11:31:41Z</time>
      </trkpt>
      <trkpt lat="42.20388" lon="2.3252">
        <ele>1253.1</ele>
        <time>2018-11-26T11:31:42Z</time>
      </trkpt>
      <trkpt lat="42.20389" lon="2.32522">
        <ele>1253</ele>
        <time>2018-11-26T11:31:43Z</time>
      </trkpt>
      <trkpt lat="42.20388" lon="2.32525">
        <ele>1252.1</ele>
        <time>2018-11-26T11:31:44Z</time>
      </trkpt>
      <trkpt lat="42.20387" lon="2.32528">
        <ele>1252.1</ele>
        <time>2018-11-26T11:31:44Z</time>
      </trkpt>
      <trkpt lat="42.20386" lon="2.32531">
        <ele>1252.1</ele>
        <time>2018-11-26T11:31:46Z</time>
      </trkpt>
      <trkpt lat="42.20386" lon="2.32535">
        <ele>1251</ele>
        <time>2018-11-26T11:31:47Z</time>
      </trkpt>
      <trkpt lat="42.20386" lon="2.32538">
        <ele>1251</ele>
        <time>2018-11-26T11:31:48Z</time>
      </trkpt>
      <trkpt lat="42.20385" lon="2.32541">
        <ele>1251</ele>
        <time>2018-11-26T11:31:49Z</time>
      </trkpt>
      <trkpt lat="42.20383" lon="2.32544">
        <ele>1251.1</ele>
        <time>2018-11-26T11:31:50Z</time>
      </trkpt>
      <trkpt lat="42.20381" lon="2.32547">
        <ele>1251</ele>
        <time>2018-11-26T11:31:51Z</time>
      </trkpt>
      <trkpt lat="42.20379" lon="2.32551">
        <ele>1251.1</ele>
        <time>2018-11-26T11:31:52Z</time>
      </trkpt>
      <trkpt lat="42.20378" lon="2.32553">
        <ele>1251</ele>
        <time>2018-11-26T11:31:53Z</time>
      </trkpt>
      <trkpt lat="42.20377" lon="2.32557">
        <ele>1250.1</ele>
        <time>2018-11-26T11:31:54Z</time>
      </trkpt>
      <trkpt lat="42.20375" lon="2.3256">
        <ele>1250.1</ele>
        <time>2018-11-26T11:31:56Z</time>
      </trkpt>
      <trkpt lat="42.20373" lon="2.32563">
        <ele>1250.1</ele>
        <time>2018-11-26T11:31:57Z</time>
      </trkpt>
      <trkpt lat="42.20372" lon="2.32566">
        <ele>1250</ele>
        <time>2018-11-26T11:31:58Z</time>
      </trkpt>
      <trkpt lat="42.2037" lon="2.32569">
        <ele>1250.1</ele>
        <time>2018-11-26T11:31:59Z</time>
      </trkpt>
      <trkpt lat="42.20368" lon="2.32571">
        <ele>1250</ele>
        <time>2018-11-26T11:32:00Z</time>
      </trkpt>
      <trkpt lat="42.20367" lon="2.32573">
        <ele>1250</ele>
        <time>2018-11-26T11:32:01Z</time>
      </trkpt>
      <trkpt lat="42.20365" lon="2.32576">
        <ele>1250</ele>
        <time>2018-11-26T11:32:02Z</time>
      </trkpt>
      <trkpt lat="42.20364" lon="2.32579">
        <ele>1248</ele>
        <time>2018-11-26T11:32:03Z</time>
      </trkpt>
      <trkpt lat="42.20363" lon="2.32581">
        <ele>1248</ele>
        <time>2018-11-26T11:32:04Z</time>
      </trkpt>
      <trkpt lat="42.20361" lon="2.32582">
        <ele>1248.1</ele>
        <time>2018-11-26T11:32:05Z</time>
      </trkpt>
      <trkpt lat="42.20359" lon="2.32583">
        <ele>1248</ele>
        <time>2018-11-26T11:32:05Z</time>
      </trkpt>
      <trkpt lat="42.20358" lon="2.32585">
        <ele>1247</ele>
        <time>2018-11-26T11:32:06Z</time>
      </trkpt>
      <trkpt lat="42.20356" lon="2.32587">
        <ele>1247.1</ele>
        <time>2018-11-26T11:32:07Z</time>
      </trkpt>
      <trkpt lat="42.20354" lon="2.32588">
        <ele>1247</ele>
        <time>2018-11-26T11:32:08Z</time>
      </trkpt>
      <trkpt lat="42.20352" lon="2.32591">
        <ele>1247</ele>
        <time>2018-11-26T11:32:09Z</time>
      </trkpt>
      <trkpt lat="42.2035" lon="2.32594">
        <ele>1246.8</ele>
        <time>2018-11-26T11:32:10Z</time>
      </trkpt>
      <trkpt lat="42.20349" lon="2.32596">
        <ele>1246</ele>
        <time>2018-11-26T11:32:11Z</time>
      </trkpt>
      <trkpt lat="42.20346" lon="2.32597">
        <ele>1246</ele>
        <time>2018-11-26T11:32:12Z</time>
      </trkpt>
      <trkpt lat="42.20345" lon="2.32599">
        <ele>1246</ele>
        <time>2018-11-26T11:32:13Z</time>
      </trkpt>
      <trkpt lat="42.20343" lon="2.32602">
        <ele>1245</ele>
        <time>2018-11-26T11:32:14Z</time>
      </trkpt>
      <trkpt lat="42.20342" lon="2.32605">
        <ele>1245.1</ele>
        <time>2018-11-26T11:32:15Z</time>
      </trkpt>
      <trkpt lat="42.2034" lon="2.32609">
        <ele>1245</ele>
        <time>2018-11-26T11:32:16Z</time>
      </trkpt>
      <trkpt lat="42.2034" lon="2.32612">
        <ele>1245.1</ele>
        <time>2018-11-26T11:32:17Z</time>
      </trkpt>
      <trkpt lat="42.2034" lon="2.32614">
        <ele>1245.1</ele>
        <time>2018-11-26T11:32:18Z</time>
      </trkpt>
      <trkpt lat="42.2034" lon="2.32618">
        <ele>1245</ele>
        <time>2018-11-26T11:32:19Z</time>
      </trkpt>
      <trkpt lat="42.2034" lon="2.32622">
        <ele>1245.1</ele>
        <time>2018-11-26T11:32:20Z</time>
      </trkpt>
      <trkpt lat="42.20339" lon="2.32625">
        <ele>1245.1</ele>
        <time>2018-11-26T11:32:21Z</time>
      </trkpt>
      <trkpt lat="42.20339" lon="2.32628">
        <ele>1244.7</ele>
        <time>2018-11-26T11:32:22Z</time>
      </trkpt>
      <trkpt lat="42.20339" lon="2.32632">
        <ele>1244</ele>
        <time>2018-11-26T11:32:23Z</time>
      </trkpt>
      <trkpt lat="42.20339" lon="2.32635">
        <ele>1244</ele>
        <time>2018-11-26T11:32:24Z</time>
      </trkpt>
      <trkpt lat="42.20338" lon="2.32639">
        <ele>1244</ele>
        <time>2018-11-26T11:32:25Z</time>
      </trkpt>
      <trkpt lat="42.20339" lon="2.32642">
        <ele>1244.1</ele>
        <time>2018-11-26T11:32:26Z</time>
      </trkpt>
      <trkpt lat="42.20339" lon="2.32646">
        <ele>1244.1</ele>
        <time>2018-11-26T11:32:27Z</time>
      </trkpt>
      <trkpt lat="42.2034" lon="2.32648">
        <ele>1243</ele>
        <time>2018-11-26T11:32:28Z</time>
      </trkpt>
      <trkpt lat="42.2034" lon="2.32652">
        <ele>1243</ele>
        <time>2018-11-26T11:32:29Z</time>
      </trkpt>
      <trkpt lat="42.2034" lon="2.32656">
        <ele>1243.1</ele>
        <time>2018-11-26T11:32:30Z</time>
      </trkpt>
      <trkpt lat="42.2034" lon="2.3266">
        <ele>1242.8</ele>
        <time>2018-11-26T11:32:32Z</time>
      </trkpt>
      <trkpt lat="42.20339" lon="2.32664">
        <ele>1242.1</ele>
        <time>2018-11-26T11:32:33Z</time>
      </trkpt>
      <trkpt lat="42.20339" lon="2.32667">
        <ele>1242.1</ele>
        <time>2018-11-26T11:32:34Z</time>
      </trkpt>
      <trkpt lat="42.20338" lon="2.32672">
        <ele>1242</ele>
        <time>2018-11-26T11:32:35Z</time>
      </trkpt>
      <trkpt lat="42.20339" lon="2.32674">
        <ele>1242.1</ele>
        <time>2018-11-26T11:32:36Z</time>
      </trkpt>
      <trkpt lat="42.20338" lon="2.32678">
        <ele>1243</ele>
        <time>2018-11-26T11:32:37Z</time>
      </trkpt>
      <trkpt lat="42.20337" lon="2.32682">
        <ele>1243.1</ele>
        <time>2018-11-26T11:32:38Z</time>
      </trkpt>
      <trkpt lat="42.20337" lon="2.32685">
        <ele>1243</ele>
        <time>2018-11-26T11:32:39Z</time>
      </trkpt>
      <trkpt lat="42.20337" lon="2.32687">
        <ele>1242.8</ele>
        <time>2018-11-26T11:32:40Z</time>
      </trkpt>
      <trkpt lat="42.20338" lon="2.3269">
        <ele>1242</ele>
        <time>2018-11-26T11:32:41Z</time>
      </trkpt>
      <trkpt lat="42.20339" lon="2.32694">
        <ele>1242</ele>
        <time>2018-11-26T11:32:42Z</time>
      </trkpt>
      <trkpt lat="42.20339" lon="2.32698">
        <ele>1242.1</ele>
        <time>2018-11-26T11:32:43Z</time>
      </trkpt>
      <trkpt lat="42.2034" lon="2.32702">
        <ele>1242.1</ele>
        <time>2018-11-26T11:32:45Z</time>
      </trkpt>
      <trkpt lat="42.20342" lon="2.32705">
        <ele>1242.1</ele>
        <time>2018-11-26T11:32:46Z</time>
      </trkpt>
      <trkpt lat="42.20343" lon="2.32708">
        <ele>1242</ele>
        <time>2018-11-26T11:32:46Z</time>
      </trkpt>
      <trkpt lat="42.20344" lon="2.3271">
        <ele>1242.2</ele>
        <time>2018-11-26T11:32:47Z</time>
      </trkpt>
      <trkpt lat="42.20345" lon="2.32714">
        <ele>1243.2</ele>
        <time>2018-11-26T11:32:49Z</time>
      </trkpt>
      <trkpt lat="42.20346" lon="2.32717">
        <ele>1244</ele>
        <time>2018-11-26T11:32:49Z</time>
      </trkpt>
      <trkpt lat="42.20347" lon="2.32721">
        <ele>1245.1</ele>
        <time>2018-11-26T11:32:51Z</time>
      </trkpt>
      <trkpt lat="42.20348" lon="2.32726">
        <ele>1245</ele>
        <time>2018-11-26T11:32:52Z</time>
      </trkpt>
      <trkpt lat="42.20347" lon="2.32731">
        <ele>1245.1</ele>
        <time>2018-11-26T11:32:54Z</time>
      </trkpt>
      <trkpt lat="42.20348" lon="2.32734">
        <ele>1245</ele>
        <time>2018-11-26T11:32:55Z</time>
      </trkpt>
      <trkpt lat="42.2035" lon="2.32737">
        <ele>1245.1</ele>
        <time>2018-11-26T11:32:56Z</time>
      </trkpt>
      <trkpt lat="42.20353" lon="2.32738">
        <ele>1244</ele>
        <time>2018-11-26T11:32:57Z</time>
      </trkpt>
      <trkpt lat="42.20355" lon="2.3274">
        <ele>1245</ele>
        <time>2018-11-26T11:32:58Z</time>
      </trkpt>
      <trkpt lat="42.20357" lon="2.32741">
        <ele>1245</ele>
        <time>2018-11-26T11:32:59Z</time>
      </trkpt>
      <trkpt lat="42.20358" lon="2.32744">
        <ele>1245</ele>
        <time>2018-11-26T11:33:00Z</time>
      </trkpt>
      <trkpt lat="42.20359" lon="2.32747">
        <ele>1245.1</ele>
        <time>2018-11-26T11:33:01Z</time>
      </trkpt>
      <trkpt lat="42.20359" lon="2.3275">
        <ele>1245</ele>
        <time>2018-11-26T11:33:02Z</time>
      </trkpt>
      <trkpt lat="42.2036" lon="2.32755">
        <ele>1245</ele>
        <time>2018-11-26T11:33:03Z</time>
      </trkpt>
      <trkpt lat="42.20361" lon="2.32759">
        <ele>1245.1</ele>
        <time>2018-11-26T11:33:05Z</time>
      </trkpt>
      <trkpt lat="42.20362" lon="2.32761">
        <ele>1245</ele>
        <time>2018-11-26T11:33:05Z</time>
      </trkpt>
      <trkpt lat="42.20363" lon="2.32765">
        <ele>1245.1</ele>
        <time>2018-11-26T11:33:07Z</time>
      </trkpt>
      <trkpt lat="42.20364" lon="2.32768">
        <ele>1245.2</ele>
        <time>2018-11-26T11:33:08Z</time>
      </trkpt>
      <trkpt lat="42.20366" lon="2.32771">
        <ele>1245.9</ele>
        <time>2018-11-26T11:33:09Z</time>
      </trkpt>
      <trkpt lat="42.20367" lon="2.32773">
        <ele>1245.1</ele>
        <time>2018-11-26T11:33:09Z</time>
      </trkpt>
      <trkpt lat="42.20367" lon="2.32776">
        <ele>1245.1</ele>
        <time>2018-11-26T11:33:10Z</time>
      </trkpt>
      <trkpt lat="42.20369" lon="2.32779">
        <ele>1245.2</ele>
        <time>2018-11-26T11:33:11Z</time>
      </trkpt>
      <trkpt lat="42.2037" lon="2.32784">
        <ele>1246</ele>
        <time>2018-11-26T11:33:13Z</time>
      </trkpt>
      <trkpt lat="42.2037" lon="2.32788">
        <ele>1246.1</ele>
        <time>2018-11-26T11:33:14Z</time>
      </trkpt>
      <trkpt lat="42.20371" lon="2.32793">
        <ele>1246</ele>
        <time>2018-11-26T11:33:15Z</time>
      </trkpt>
      <trkpt lat="42.2037" lon="2.32796">
        <ele>1246.1</ele>
        <time>2018-11-26T11:33:16Z</time>
      </trkpt>
      <trkpt lat="42.2037" lon="2.32799">
        <ele>1247.3</ele>
        <time>2018-11-26T11:33:17Z</time>
      </trkpt>
      <trkpt lat="42.2037" lon="2.32803">
        <ele>1248.1</ele>
        <time>2018-11-26T11:33:18Z</time>
      </trkpt>
      <trkpt lat="42.20371" lon="2.32806">
        <ele>1249</ele>
        <time>2018-11-26T11:33:19Z</time>
      </trkpt>
      <trkpt lat="42.2037" lon="2.3281">
        <ele>1249</ele>
        <time>2018-11-26T11:33:21Z</time>
      </trkpt>
      <trkpt lat="42.2037" lon="2.32813">
        <ele>1249.2</ele>
        <time>2018-11-26T11:33:22Z</time>
      </trkpt>
      <trkpt lat="42.20369" lon="2.32817">
        <ele>1250</ele>
        <time>2018-11-26T11:33:23Z</time>
      </trkpt>
      <trkpt lat="42.20369" lon="2.3282">
        <ele>1250.2</ele>
        <time>2018-11-26T11:33:24Z</time>
      </trkpt>
      <trkpt lat="42.2037" lon="2.32823">
        <ele>1251</ele>
        <time>2018-11-26T11:33:25Z</time>
      </trkpt>
      <trkpt lat="42.20369" lon="2.32827">
        <ele>1251.1</ele>
        <time>2018-11-26T11:33:26Z</time>
      </trkpt>
      <trkpt lat="42.2037" lon="2.32831">
        <ele>1251.1</ele>
        <time>2018-11-26T11:33:27Z</time>
      </trkpt>
      <trkpt lat="42.20371" lon="2.32833">
        <ele>1251.2</ele>
        <time>2018-11-26T11:33:28Z</time>
      </trkpt>
      <trkpt lat="42.20373" lon="2.32836">
        <ele>1252</ele>
        <time>2018-11-26T11:33:29Z</time>
      </trkpt>
      <trkpt lat="42.20374" lon="2.3284">
        <ele>1252.1</ele>
        <time>2018-11-26T11:33:30Z</time>
      </trkpt>
      <trkpt lat="42.20375" lon="2.32843">
        <ele>1252</ele>
        <time>2018-11-26T11:33:31Z</time>
      </trkpt>
      <trkpt lat="42.20377" lon="2.32847">
        <ele>1252</ele>
        <time>2018-11-26T11:33:33Z</time>
      </trkpt>
      <trkpt lat="42.20377" lon="2.32851">
        <ele>1252.2</ele>
        <time>2018-11-26T11:33:34Z</time>
      </trkpt>
      <trkpt lat="42.20376" lon="2.32855">
        <ele>1253.1</ele>
        <time>2018-11-26T11:33:35Z</time>
      </trkpt>
      <trkpt lat="42.20376" lon="2.32858">
        <ele>1253</ele>
        <time>2018-11-26T11:33:36Z</time>
      </trkpt>
      <trkpt lat="42.20377" lon="2.32861">
        <ele>1253</ele>
        <time>2018-11-26T11:33:37Z</time>
      </trkpt>
      <trkpt lat="42.20378" lon="2.32863">
        <ele>1253.3</ele>
        <time>2018-11-26T11:33:38Z</time>
      </trkpt>
      <trkpt lat="42.20378" lon="2.32868">
        <ele>1254.1</ele>
        <time>2018-11-26T11:33:39Z</time>
      </trkpt>
      <trkpt lat="42.20378" lon="2.32872">
        <ele>1253.9</ele>
        <time>2018-11-26T11:33:40Z</time>
      </trkpt>
      <trkpt lat="42.20378" lon="2.32877">
        <ele>1253</ele>
        <time>2018-11-26T11:33:42Z</time>
      </trkpt>
      <trkpt lat="42.20377" lon="2.32882">
        <ele>1253.1</ele>
        <time>2018-11-26T11:33:43Z</time>
      </trkpt>
      <trkpt lat="42.20377" lon="2.32884">
        <ele>1254</ele>
        <time>2018-11-26T11:33:44Z</time>
      </trkpt>
      <trkpt lat="42.20377" lon="2.32889">
        <ele>1254.1</ele>
        <time>2018-11-26T11:33:45Z</time>
      </trkpt>
      <trkpt lat="42.20377" lon="2.32892">
        <ele>1254.2</ele>
        <time>2018-11-26T11:33:46Z</time>
      </trkpt>
      <trkpt lat="42.20377" lon="2.32894">
        <ele>1255</ele>
        <time>2018-11-26T11:33:47Z</time>
      </trkpt>
      <trkpt lat="42.20378" lon="2.32897">
        <ele>1255.1</ele>
        <time>2018-11-26T11:33:48Z</time>
      </trkpt>
      <trkpt lat="42.20378" lon="2.329">
        <ele>1255.1</ele>
        <time>2018-11-26T11:33:49Z</time>
      </trkpt>
      <trkpt lat="42.20379" lon="2.32903">
        <ele>1255.2</ele>
        <time>2018-11-26T11:33:49Z</time>
      </trkpt>
      <trkpt lat="42.20379" lon="2.32907">
        <ele>1257.1</ele>
        <time>2018-11-26T11:33:51Z</time>
      </trkpt>
      <trkpt lat="42.2038" lon="2.3291">
        <ele>1257</ele>
        <time>2018-11-26T11:33:52Z</time>
      </trkpt>
      <trkpt lat="42.2038" lon="2.32914">
        <ele>1257.1</ele>
        <time>2018-11-26T11:33:53Z</time>
      </trkpt>
      <trkpt lat="42.2038" lon="2.32918">
        <ele>1257</ele>
        <time>2018-11-26T11:33:54Z</time>
      </trkpt>
      <trkpt lat="42.20381" lon="2.32922">
        <ele>1258.2</ele>
        <time>2018-11-26T11:33:55Z</time>
      </trkpt>
      <trkpt lat="42.20381" lon="2.32927">
        <ele>1259</ele>
        <time>2018-11-26T11:33:57Z</time>
      </trkpt>
      <trkpt lat="42.20381" lon="2.32931">
        <ele>1259.1</ele>
        <time>2018-11-26T11:33:58Z</time>
      </trkpt>
      <trkpt lat="42.20382" lon="2.32936">
        <ele>1260.1</ele>
        <time>2018-11-26T11:33:59Z</time>
      </trkpt>
      <trkpt lat="42.20382" lon="2.3294">
        <ele>1260.1</ele>
        <time>2018-11-26T11:34:01Z</time>
      </trkpt>
      <trkpt lat="42.20382" lon="2.32944">
        <ele>1260.1</ele>
        <time>2018-11-26T11:34:02Z</time>
      </trkpt>
      <trkpt lat="42.20382" lon="2.32947">
        <ele>1260</ele>
        <time>2018-11-26T11:34:03Z</time>
      </trkpt>
      <trkpt lat="42.20382" lon="2.3295">
        <ele>1260</ele>
        <time>2018-11-26T11:34:04Z</time>
      </trkpt>
      <trkpt lat="42.20382" lon="2.32954">
        <ele>1260.1</ele>
        <time>2018-11-26T11:34:05Z</time>
      </trkpt>
      <trkpt lat="42.20382" lon="2.32959">
        <ele>1261</ele>
        <time>2018-11-26T11:34:06Z</time>
      </trkpt>
      <trkpt lat="42.20383" lon="2.32962">
        <ele>1261</ele>
        <time>2018-11-26T11:34:07Z</time>
      </trkpt>
      <trkpt lat="42.20384" lon="2.32965">
        <ele>1261</ele>
        <time>2018-11-26T11:34:08Z</time>
      </trkpt>
      <trkpt lat="42.20385" lon="2.32969">
        <ele>1261</ele>
        <time>2018-11-26T11:34:09Z</time>
      </trkpt>
      <trkpt lat="42.20386" lon="2.32973">
        <ele>1261</ele>
        <time>2018-11-26T11:34:11Z</time>
      </trkpt>
      <trkpt lat="42.20387" lon="2.32976">
        <ele>1261.1</ele>
        <time>2018-11-26T11:34:12Z</time>
      </trkpt>
      <trkpt lat="42.20387" lon="2.3298">
        <ele>1261</ele>
        <time>2018-11-26T11:34:13Z</time>
      </trkpt>
      <trkpt lat="42.20387" lon="2.32984">
        <ele>1261</ele>
        <time>2018-11-26T11:34:14Z</time>
      </trkpt>
      <trkpt lat="42.20387" lon="2.32988">
        <ele>1262.3</ele>
        <time>2018-11-26T11:34:15Z</time>
      </trkpt>
      <trkpt lat="42.20387" lon="2.32991">
        <ele>1263.1</ele>
        <time>2018-11-26T11:34:16Z</time>
      </trkpt>
      <trkpt lat="42.20387" lon="2.32995">
        <ele>1264</ele>
        <time>2018-11-26T11:34:17Z</time>
      </trkpt>
      <trkpt lat="42.20387" lon="2.32999">
        <ele>1264.1</ele>
        <time>2018-11-26T11:34:19Z</time>
      </trkpt>
      <trkpt lat="42.20387" lon="2.33003">
        <ele>1264.1</ele>
        <time>2018-11-26T11:34:20Z</time>
      </trkpt>
      <trkpt lat="42.20386" lon="2.33007">
        <ele>1264</ele>
        <time>2018-11-26T11:34:21Z</time>
      </trkpt>
      <trkpt lat="42.20385" lon="2.33008">
        <ele>1264</ele>
        <time>2018-11-26T11:34:22Z</time>
      </trkpt>
      <trkpt lat="42.20386" lon="2.33012">
        <ele>1264</ele>
        <time>2018-11-26T11:34:23Z</time>
      </trkpt>
      <trkpt lat="42.20386" lon="2.33015">
        <ele>1265</ele>
        <time>2018-11-26T11:34:24Z</time>
      </trkpt>
      <trkpt lat="42.20385" lon="2.33017">
        <ele>1265.3</ele>
        <time>2018-11-26T11:34:24Z</time>
      </trkpt>
      <trkpt lat="42.20384" lon="2.3302">
        <ele>1266.1</ele>
        <time>2018-11-26T11:34:25Z</time>
      </trkpt>
      <trkpt lat="42.20384" lon="2.33023">
        <ele>1267</ele>
        <time>2018-11-26T11:34:26Z</time>
      </trkpt>
      <trkpt lat="42.20384" lon="2.33027">
        <ele>1267.1</ele>
        <time>2018-11-26T11:34:28Z</time>
      </trkpt>
      <trkpt lat="42.20382" lon="2.33031">
        <ele>1267</ele>
        <time>2018-11-26T11:34:29Z</time>
      </trkpt>
      <trkpt lat="42.20382" lon="2.33035">
        <ele>1267.1</ele>
        <time>2018-11-26T11:34:30Z</time>
      </trkpt>
      <trkpt lat="42.20381" lon="2.33039">
        <ele>1267</ele>
        <time>2018-11-26T11:34:31Z</time>
      </trkpt>
      <trkpt lat="42.2038" lon="2.33043">
        <ele>1267.3</ele>
        <time>2018-11-26T11:34:32Z</time>
      </trkpt>
      <trkpt lat="42.20379" lon="2.33047">
        <ele>1269</ele>
        <time>2018-11-26T11:34:34Z</time>
      </trkpt>
      <trkpt lat="42.20378" lon="2.3305">
        <ele>1269.4</ele>
        <time>2018-11-26T11:34:35Z</time>
      </trkpt>
      <trkpt lat="42.20377" lon="2.33053">
        <ele>1270.2</ele>
        <time>2018-11-26T11:34:36Z</time>
      </trkpt>
      <trkpt lat="42.20377" lon="2.33057">
        <ele>1271.1</ele>
        <time>2018-11-26T11:34:37Z</time>
      </trkpt>
      <trkpt lat="42.20376" lon="2.33061">
        <ele>1271.2</ele>
        <time>2018-11-26T11:34:38Z</time>
      </trkpt>
      <trkpt lat="42.20375" lon="2.33064">
        <ele>1272.1</ele>
        <time>2018-11-26T11:34:39Z</time>
      </trkpt>
      <trkpt lat="42.20375" lon="2.33068">
        <ele>1272</ele>
        <time>2018-11-26T11:34:40Z</time>
      </trkpt>
      <trkpt lat="42.20375" lon="2.33071">
        <ele>1273</ele>
        <time>2018-11-26T11:34:41Z</time>
      </trkpt>
      <trkpt lat="42.20375" lon="2.33075">
        <ele>1273</ele>
        <time>2018-11-26T11:34:42Z</time>
      </trkpt>
      <trkpt lat="42.20375" lon="2.33078">
        <ele>1273.3</ele>
        <time>2018-11-26T11:34:43Z</time>
      </trkpt>
      <trkpt lat="42.20375" lon="2.33081">
        <ele>1274</ele>
        <time>2018-11-26T11:34:44Z</time>
      </trkpt>
      <trkpt lat="42.20375" lon="2.33085">
        <ele>1274.1</ele>
        <time>2018-11-26T11:34:45Z</time>
      </trkpt>
      <trkpt lat="42.20374" lon="2.3309">
        <ele>1275.1</ele>
        <time>2018-11-26T11:34:47Z</time>
      </trkpt>
      <trkpt lat="42.20373" lon="2.33094">
        <ele>1275.1</ele>
        <time>2018-11-26T11:34:48Z</time>
      </trkpt>
      <trkpt lat="42.20372" lon="2.33097">
        <ele>1276.1</ele>
        <time>2018-11-26T11:34:49Z</time>
      </trkpt>
      <trkpt lat="42.20371" lon="2.331">
        <ele>1277</ele>
        <time>2018-11-26T11:34:50Z</time>
      </trkpt>
      <trkpt lat="42.20372" lon="2.33104">
        <ele>1278.1</ele>
        <time>2018-11-26T11:34:51Z</time>
      </trkpt>
      <trkpt lat="42.20372" lon="2.33107">
        <ele>1278.1</ele>
        <time>2018-11-26T11:34:52Z</time>
      </trkpt>
      <trkpt lat="42.20373" lon="2.33111">
        <ele>1278.1</ele>
        <time>2018-11-26T11:34:53Z</time>
      </trkpt>
      <trkpt lat="42.20373" lon="2.33115">
        <ele>1279</ele>
        <time>2018-11-26T11:34:55Z</time>
      </trkpt>
      <trkpt lat="42.20374" lon="2.33117">
        <ele>1279.3</ele>
        <time>2018-11-26T11:34:55Z</time>
      </trkpt>
      <trkpt lat="42.20374" lon="2.3312">
        <ele>1280.4</ele>
        <time>2018-11-26T11:34:56Z</time>
      </trkpt>
      <trkpt lat="42.20375" lon="2.33124">
        <ele>1281.1</ele>
        <time>2018-11-26T11:34:57Z</time>
      </trkpt>
      <trkpt lat="42.20374" lon="2.33128">
        <ele>1281.2</ele>
        <time>2018-11-26T11:34:58Z</time>
      </trkpt>
      <trkpt lat="42.20373" lon="2.3313">
        <ele>1282.1</ele>
        <time>2018-11-26T11:34:59Z</time>
      </trkpt>
      <trkpt lat="42.20372" lon="2.33132">
        <ele>1282</ele>
        <time>2018-11-26T11:35:00Z</time>
      </trkpt>
      <trkpt lat="42.20369" lon="2.33137">
        <ele>1282</ele>
        <time>2018-11-26T11:35:02Z</time>
      </trkpt>
      <trkpt lat="42.20367" lon="2.3314">
        <ele>1282.1</ele>
        <time>2018-11-26T11:35:03Z</time>
      </trkpt>
      <trkpt lat="42.20365" lon="2.33141">
        <ele>1282</ele>
        <time>2018-11-26T11:35:04Z</time>
      </trkpt>
      <trkpt lat="42.20364" lon="2.33142">
        <ele>1282</ele>
        <time>2018-11-26T11:35:05Z</time>
      </trkpt>
      <trkpt lat="42.20362" lon="2.33144">
        <ele>1282</ele>
        <time>2018-11-26T11:35:05Z</time>
      </trkpt>
      <trkpt lat="42.2036" lon="2.33147">
        <ele>1283.1</ele>
        <time>2018-11-26T11:35:07Z</time>
      </trkpt>
      <trkpt lat="42.20357" lon="2.3315">
        <ele>1283.1</ele>
        <time>2018-11-26T11:35:08Z</time>
      </trkpt>
      <trkpt lat="42.20355" lon="2.33152">
        <ele>1283.1</ele>
        <time>2018-11-26T11:35:09Z</time>
      </trkpt>
      <trkpt lat="42.20353" lon="2.33156">
        <ele>1284</ele>
        <time>2018-11-26T11:35:10Z</time>
      </trkpt>
      <trkpt lat="42.20352" lon="2.33158">
        <ele>1284.1</ele>
        <time>2018-11-26T11:35:11Z</time>
      </trkpt>
      <trkpt lat="42.20351" lon="2.3316">
        <ele>1284.1</ele>
        <time>2018-11-26T11:35:12Z</time>
      </trkpt>
      <trkpt lat="42.20349" lon="2.33163">
        <ele>1284</ele>
        <time>2018-11-26T11:35:13Z</time>
      </trkpt>
      <trkpt lat="42.20347" lon="2.33167">
        <ele>1285</ele>
        <time>2018-11-26T11:35:14Z</time>
      </trkpt>
      <trkpt lat="42.20345" lon="2.33169">
        <ele>1285.1</ele>
        <time>2018-11-26T11:35:16Z</time>
      </trkpt>
      <trkpt lat="42.20341" lon="2.3317">
        <ele>1285.2</ele>
        <time>2018-11-26T11:35:17Z</time>
      </trkpt>
      <trkpt lat="42.20338" lon="2.33172">
        <ele>1286</ele>
        <time>2018-11-26T11:35:19Z</time>
      </trkpt>
      <trkpt lat="42.20336" lon="2.33173">
        <ele>1286</ele>
        <time>2018-11-26T11:35:19Z</time>
      </trkpt>
      <trkpt lat="42.20334" lon="2.33174">
        <ele>1286</ele>
        <time>2018-11-26T11:35:20Z</time>
      </trkpt>
      <trkpt lat="42.20333" lon="2.33175">
        <ele>1286</ele>
        <time>2018-11-26T11:35:21Z</time>
      </trkpt>
      <trkpt lat="42.20331" lon="2.33177">
        <ele>1286.1</ele>
        <time>2018-11-26T11:35:22Z</time>
      </trkpt>
      <trkpt lat="42.2033" lon="2.33179">
        <ele>1286.1</ele>
        <time>2018-11-26T11:35:23Z</time>
      </trkpt>
      <trkpt lat="42.20328" lon="2.33183">
        <ele>1286.1</ele>
        <time>2018-11-26T11:35:24Z</time>
      </trkpt>
      <trkpt lat="42.20327" lon="2.33187">
        <ele>1287.1</ele>
        <time>2018-11-26T11:35:25Z</time>
      </trkpt>
      <trkpt lat="42.20327" lon="2.33191">
        <ele>1287</ele>
        <time>2018-11-26T11:35:26Z</time>
      </trkpt>
      <trkpt lat="42.20327" lon="2.33194">
        <ele>1287</ele>
        <time>2018-11-26T11:35:27Z</time>
      </trkpt>
      <trkpt lat="42.20328" lon="2.33196">
        <ele>1287.1</ele>
        <time>2018-11-26T11:35:28Z</time>
      </trkpt>
      <trkpt lat="42.2033" lon="2.33199">
        <ele>1287.1</ele>
        <time>2018-11-26T11:35:29Z</time>
      </trkpt>
      <trkpt lat="42.20332" lon="2.33202">
        <ele>1287</ele>
        <time>2018-11-26T11:35:30Z</time>
      </trkpt>
      <trkpt lat="42.20334" lon="2.33205">
        <ele>1286.1</ele>
        <time>2018-11-26T11:35:32Z</time>
      </trkpt>
      <trkpt lat="42.20336" lon="2.33209">
        <ele>1286</ele>
        <time>2018-11-26T11:35:33Z</time>
      </trkpt>
      <trkpt lat="42.20338" lon="2.33212">
        <ele>1286</ele>
        <time>2018-11-26T11:35:34Z</time>
      </trkpt>
      <trkpt lat="42.20339" lon="2.33216">
        <ele>1286</ele>
        <time>2018-11-26T11:35:35Z</time>
      </trkpt>
      <trkpt lat="42.2034" lon="2.3322">
        <ele>1286.1</ele>
        <time>2018-11-26T11:35:37Z</time>
      </trkpt>
      <trkpt lat="42.20342" lon="2.33223">
        <ele>1286.1</ele>
        <time>2018-11-26T11:35:38Z</time>
      </trkpt>
      <trkpt lat="42.20343" lon="2.33227">
        <ele>1286.1</ele>
        <time>2018-11-26T11:35:39Z</time>
      </trkpt>
      <trkpt lat="42.20344" lon="2.3323">
        <ele>1286</ele>
        <time>2018-11-26T11:35:40Z</time>
      </trkpt>
      <trkpt lat="42.20346" lon="2.33233">
        <ele>1286</ele>
        <time>2018-11-26T11:35:41Z</time>
      </trkpt>
      <trkpt lat="42.20347" lon="2.33237">
        <ele>1286</ele>
        <time>2018-11-26T11:35:42Z</time>
      </trkpt>
      <trkpt lat="42.20349" lon="2.3324">
        <ele>1286</ele>
        <time>2018-11-26T11:35:44Z</time>
      </trkpt>
      <trkpt lat="42.20351" lon="2.33243">
        <ele>1286</ele>
        <time>2018-11-26T11:35:45Z</time>
      </trkpt>
      <trkpt lat="42.20353" lon="2.33245">
        <ele>1286.1</ele>
        <time>2018-11-26T11:35:46Z</time>
      </trkpt>
      <trkpt lat="42.20355" lon="2.33249">
        <ele>1286</ele>
        <time>2018-11-26T11:35:47Z</time>
      </trkpt>
      <trkpt lat="42.20357" lon="2.33252">
        <ele>1286.1</ele>
        <time>2018-11-26T11:35:48Z</time>
      </trkpt>
      <trkpt lat="42.20359" lon="2.33255">
        <ele>1286</ele>
        <time>2018-11-26T11:35:49Z</time>
      </trkpt>
      <trkpt lat="42.20361" lon="2.33258">
        <ele>1286.1</ele>
        <time>2018-11-26T11:35:51Z</time>
      </trkpt>
      <trkpt lat="42.20363" lon="2.3326">
        <ele>1286.1</ele>
        <time>2018-11-26T11:35:52Z</time>
      </trkpt>
      <trkpt lat="42.20365" lon="2.33262">
        <ele>1285</ele>
        <time>2018-11-26T11:35:53Z</time>
      </trkpt>
      <trkpt lat="42.20367" lon="2.33264">
        <ele>1286</ele>
        <time>2018-11-26T11:35:54Z</time>
      </trkpt>
      <trkpt lat="42.20368" lon="2.33267">
        <ele>1286</ele>
        <time>2018-11-26T11:35:55Z</time>
      </trkpt>
      <trkpt lat="42.2037" lon="2.3327">
        <ele>1286.1</ele>
        <time>2018-11-26T11:35:56Z</time>
      </trkpt>
      <trkpt lat="42.20372" lon="2.33274">
        <ele>1286</ele>
        <time>2018-11-26T11:35:57Z</time>
      </trkpt>
      <trkpt lat="42.20373" lon="2.33276">
        <ele>1286.1</ele>
        <time>2018-11-26T11:35:58Z</time>
      </trkpt>
      <trkpt lat="42.20375" lon="2.3328">
        <ele>1286.1</ele>
        <time>2018-11-26T11:36:00Z</time>
      </trkpt>
      <trkpt lat="42.20376" lon="2.33284">
        <ele>1286</ele>
        <time>2018-11-26T11:36:01Z</time>
      </trkpt>
      <trkpt lat="42.20377" lon="2.33287">
        <ele>1286</ele>
        <time>2018-11-26T11:36:02Z</time>
      </trkpt>
      <trkpt lat="42.20377" lon="2.3329">
        <ele>1286.2</ele>
        <time>2018-11-26T11:36:03Z</time>
      </trkpt>
      <trkpt lat="42.20378" lon="2.33292">
        <ele>1286.9</ele>
        <time>2018-11-26T11:36:03Z</time>
      </trkpt>
      <trkpt lat="42.20379" lon="2.33294">
        <ele>1286.1</ele>
        <time>2018-11-26T11:36:04Z</time>
      </trkpt>
      <trkpt lat="42.2038" lon="2.33297">
        <ele>1286</ele>
        <time>2018-11-26T11:36:05Z</time>
      </trkpt>
      <trkpt lat="42.2038" lon="2.33299">
        <ele>1286</ele>
        <time>2018-11-26T11:36:06Z</time>
      </trkpt>
      <trkpt lat="42.20381" lon="2.33302">
        <ele>1286.1</ele>
        <time>2018-11-26T11:36:07Z</time>
      </trkpt>
      <trkpt lat="42.20381" lon="2.33305">
        <ele>1287</ele>
        <time>2018-11-26T11:36:07Z</time>
      </trkpt>
      <trkpt lat="42.20383" lon="2.33309">
        <ele>1287.4</ele>
        <time>2018-11-26T11:36:09Z</time>
      </trkpt>
      <trkpt lat="42.20384" lon="2.33311">
        <ele>1288</ele>
        <time>2018-11-26T11:36:09Z</time>
      </trkpt>
      <trkpt lat="42.20385" lon="2.33314">
        <ele>1288.1</ele>
        <time>2018-11-26T11:36:10Z</time>
      </trkpt>
      <trkpt lat="42.20385" lon="2.33316">
        <ele>1288.1</ele>
        <time>2018-11-26T11:36:11Z</time>
      </trkpt>
      <trkpt lat="42.20386" lon="2.33319">
        <ele>1288</ele>
        <time>2018-11-26T11:36:12Z</time>
      </trkpt>
      <trkpt lat="42.20387" lon="2.33322">
        <ele>1288.1</ele>
        <time>2018-11-26T11:36:13Z</time>
      </trkpt>
      <trkpt lat="42.20387" lon="2.33325">
        <ele>1288</ele>
        <time>2018-11-26T11:36:14Z</time>
      </trkpt>
      <trkpt lat="42.20388" lon="2.33328">
        <ele>1288.1</ele>
        <time>2018-11-26T11:36:15Z</time>
      </trkpt>
      <trkpt lat="42.20388" lon="2.33331">
        <ele>1288.1</ele>
        <time>2018-11-26T11:36:16Z</time>
      </trkpt>
      <trkpt lat="42.20388" lon="2.33334">
        <ele>1288</ele>
        <time>2018-11-26T11:36:17Z</time>
      </trkpt>
      <trkpt lat="42.20389" lon="2.33339">
        <ele>1288</ele>
        <time>2018-11-26T11:36:18Z</time>
      </trkpt>
      <trkpt lat="42.2039" lon="2.33342">
        <ele>1288</ele>
        <time>2018-11-26T11:36:19Z</time>
      </trkpt>
      <trkpt lat="42.20391" lon="2.33345">
        <ele>1288</ele>
        <time>2018-11-26T11:36:20Z</time>
      </trkpt>
      <trkpt lat="42.20393" lon="2.33348">
        <ele>1288.1</ele>
        <time>2018-11-26T11:36:21Z</time>
      </trkpt>
      <trkpt lat="42.20394" lon="2.33352">
        <ele>1290.1</ele>
        <time>2018-11-26T11:36:23Z</time>
      </trkpt>
      <trkpt lat="42.20395" lon="2.33355">
        <ele>1290.1</ele>
        <time>2018-11-26T11:36:23Z</time>
      </trkpt>
      <trkpt lat="42.20397" lon="2.33358">
        <ele>1290</ele>
        <time>2018-11-26T11:36:25Z</time>
      </trkpt>
      <trkpt lat="42.204" lon="2.33361">
        <ele>1290</ele>
        <time>2018-11-26T11:36:26Z</time>
      </trkpt>
      <trkpt lat="42.20401" lon="2.33363">
        <ele>1290</ele>
        <time>2018-11-26T11:36:27Z</time>
      </trkpt>
      <trkpt lat="42.20403" lon="2.33367">
        <ele>1290.1</ele>
        <time>2018-11-26T11:36:28Z</time>
      </trkpt>
      <trkpt lat="42.20404" lon="2.33371">
        <ele>1290.1</ele>
        <time>2018-11-26T11:36:29Z</time>
      </trkpt>
      <trkpt lat="42.20405" lon="2.33373">
        <ele>1290</ele>
        <time>2018-11-26T11:36:30Z</time>
      </trkpt>
      <trkpt lat="42.20406" lon="2.33377">
        <ele>1290</ele>
        <time>2018-11-26T11:36:31Z</time>
      </trkpt>
      <trkpt lat="42.20407" lon="2.33381">
        <ele>1290</ele>
        <time>2018-11-26T11:36:33Z</time>
      </trkpt>
      <trkpt lat="42.20408" lon="2.33384">
        <ele>1290.2</ele>
        <time>2018-11-26T11:36:34Z</time>
      </trkpt>
      <trkpt lat="42.2041" lon="2.33387">
        <ele>1291.1</ele>
        <time>2018-11-26T11:36:35Z</time>
      </trkpt>
      <trkpt lat="42.20412" lon="2.33391">
        <ele>1291.1</ele>
        <time>2018-11-26T11:36:36Z</time>
      </trkpt>
      <trkpt lat="42.20414" lon="2.33394">
        <ele>1291.1</ele>
        <time>2018-11-26T11:36:38Z</time>
      </trkpt>
      <trkpt lat="42.20416" lon="2.33397">
        <ele>1291</ele>
        <time>2018-11-26T11:36:39Z</time>
      </trkpt>
      <trkpt lat="42.20418" lon="2.33399">
        <ele>1290.9</ele>
        <time>2018-11-26T11:36:40Z</time>
      </trkpt>
      <trkpt lat="42.20419" lon="2.33403">
        <ele>1290</ele>
        <time>2018-11-26T11:36:41Z</time>
      </trkpt>
      <trkpt lat="42.20421" lon="2.33406">
        <ele>1290.1</ele>
        <time>2018-11-26T11:36:42Z</time>
      </trkpt>
      <trkpt lat="42.20423" lon="2.33408">
        <ele>1290</ele>
        <time>2018-11-26T11:36:43Z</time>
      </trkpt>
      <trkpt lat="42.20424" lon="2.3341">
        <ele>1290.1</ele>
        <time>2018-11-26T11:36:44Z</time>
      </trkpt>
      <trkpt lat="42.20425" lon="2.33412">
        <ele>1291</ele>
        <time>2018-11-26T11:36:44Z</time>
      </trkpt>
      <trkpt lat="42.20426" lon="2.33414">
        <ele>1291</ele>
        <time>2018-11-26T11:36:45Z</time>
      </trkpt>
      <trkpt lat="42.20427" lon="2.33416">
        <ele>1291</ele>
        <time>2018-11-26T11:36:46Z</time>
      </trkpt>
      <trkpt lat="42.20429" lon="2.33418">
        <ele>1291.1</ele>
        <time>2018-11-26T11:36:47Z</time>
      </trkpt>
      <trkpt lat="42.2043" lon="2.33421">
        <ele>1292.1</ele>
        <time>2018-11-26T11:36:48Z</time>
      </trkpt>
      <trkpt lat="42.20432" lon="2.33423">
        <ele>1292</ele>
        <time>2018-11-26T11:36:49Z</time>
      </trkpt>
      <trkpt lat="42.20433" lon="2.33426">
        <ele>1292.1</ele>
        <time>2018-11-26T11:36:50Z</time>
      </trkpt>
      <trkpt lat="42.20435" lon="2.33428">
        <ele>1292</ele>
        <time>2018-11-26T11:36:51Z</time>
      </trkpt>
      <trkpt lat="42.20436" lon="2.3343">
        <ele>1292.1</ele>
        <time>2018-11-26T11:36:51Z</time>
      </trkpt>
      <trkpt lat="42.20438" lon="2.33433">
        <ele>1292.1</ele>
        <time>2018-11-26T11:36:52Z</time>
      </trkpt>
      <trkpt lat="42.20439" lon="2.33435">
        <ele>1292</ele>
        <time>2018-11-26T11:36:53Z</time>
      </trkpt>
      <trkpt lat="42.2044" lon="2.33437">
        <ele>1292</ele>
        <time>2018-11-26T11:36:54Z</time>
      </trkpt>
      <trkpt lat="42.20441" lon="2.3344">
        <ele>1292</ele>
        <time>2018-11-26T11:36:55Z</time>
      </trkpt>
      <trkpt lat="42.20443" lon="2.33443">
        <ele>1291.8</ele>
        <time>2018-11-26T11:36:56Z</time>
      </trkpt>
      <trkpt lat="42.20444" lon="2.33447">
        <ele>1291.1</ele>
        <time>2018-11-26T11:36:57Z</time>
      </trkpt>
      <trkpt lat="42.20446" lon="2.33451">
        <ele>1291</ele>
        <time>2018-11-26T11:36:59Z</time>
      </trkpt>
      <trkpt lat="42.20448" lon="2.33453">
        <ele>1292.1</ele>
        <time>2018-11-26T11:37:00Z</time>
      </trkpt>
      <trkpt lat="42.2045" lon="2.33456">
        <ele>1292.1</ele>
        <time>2018-11-26T11:37:01Z</time>
      </trkpt>
      <trkpt lat="42.20451" lon="2.33458">
        <ele>1292.5</ele>
        <time>2018-11-26T11:37:02Z</time>
      </trkpt>
      <trkpt lat="42.20453" lon="2.33462">
        <ele>1293.1</ele>
        <time>2018-11-26T11:37:03Z</time>
      </trkpt>
      <trkpt lat="42.20454" lon="2.33465">
        <ele>1293.1</ele>
        <time>2018-11-26T11:37:04Z</time>
      </trkpt>
      <trkpt lat="42.20456" lon="2.33467">
        <ele>1293.1</ele>
        <time>2018-11-26T11:37:05Z</time>
      </trkpt>
      <trkpt lat="42.20457" lon="2.33469">
        <ele>1293.1</ele>
        <time>2018-11-26T11:37:06Z</time>
      </trkpt>
      <trkpt lat="42.20459" lon="2.33472">
        <ele>1293</ele>
        <time>2018-11-26T11:37:07Z</time>
      </trkpt>
      <trkpt lat="42.20461" lon="2.33475">
        <ele>1293</ele>
        <time>2018-11-26T11:37:08Z</time>
      </trkpt>
      <trkpt lat="42.20462" lon="2.33477">
        <ele>1293.1</ele>
        <time>2018-11-26T11:37:09Z</time>
      </trkpt>
      <trkpt lat="42.20463" lon="2.3348">
        <ele>1293</ele>
        <time>2018-11-26T11:37:10Z</time>
      </trkpt>
      <trkpt lat="42.20465" lon="2.33482">
        <ele>1293.1</ele>
        <time>2018-11-26T11:37:11Z</time>
      </trkpt>
      <trkpt lat="42.20467" lon="2.33485">
        <ele>1293.1</ele>
        <time>2018-11-26T11:37:12Z</time>
      </trkpt>
      <trkpt lat="42.20468" lon="2.33488">
        <ele>1293</ele>
        <time>2018-11-26T11:37:13Z</time>
      </trkpt>
      <trkpt lat="42.2047" lon="2.3349">
        <ele>1293.3</ele>
        <time>2018-11-26T11:37:14Z</time>
      </trkpt>
      <trkpt lat="42.20471" lon="2.33492">
        <ele>1294.1</ele>
        <time>2018-11-26T11:37:15Z</time>
      </trkpt>
      <trkpt lat="42.20473" lon="2.33494">
        <ele>1294.1</ele>
        <time>2018-11-26T11:37:16Z</time>
      </trkpt>
      <trkpt lat="42.20474" lon="2.33496">
        <ele>1294.1</ele>
        <time>2018-11-26T11:37:16Z</time>
      </trkpt>
      <trkpt lat="42.20476" lon="2.33498">
        <ele>1295</ele>
        <time>2018-11-26T11:37:17Z</time>
      </trkpt>
      <trkpt lat="42.20477" lon="2.335">
        <ele>1295</ele>
        <time>2018-11-26T11:37:18Z</time>
      </trkpt>
      <trkpt lat="42.20478" lon="2.33503">
        <ele>1295.2</ele>
        <time>2018-11-26T11:37:19Z</time>
      </trkpt>
      <trkpt lat="42.2048" lon="2.33505">
        <ele>1296</ele>
        <time>2018-11-26T11:37:20Z</time>
      </trkpt>
      <trkpt lat="42.20481" lon="2.33507">
        <ele>1296.1</ele>
        <time>2018-11-26T11:37:21Z</time>
      </trkpt>
      <trkpt lat="42.20482" lon="2.33509">
        <ele>1296.2</ele>
        <time>2018-11-26T11:37:22Z</time>
      </trkpt>
      <trkpt lat="42.20484" lon="2.33513">
        <ele>1297</ele>
        <time>2018-11-26T11:37:23Z</time>
      </trkpt>
      <trkpt lat="42.20486" lon="2.33516">
        <ele>1297.1</ele>
        <time>2018-11-26T11:37:24Z</time>
      </trkpt>
      <trkpt lat="42.20488" lon="2.33518">
        <ele>1297</ele>
        <time>2018-11-26T11:37:25Z</time>
      </trkpt>
      <trkpt lat="42.20489" lon="2.33521">
        <ele>1297.1</ele>
        <time>2018-11-26T11:37:26Z</time>
      </trkpt>
      <trkpt lat="42.20491" lon="2.33524">
        <ele>1297</ele>
        <time>2018-11-26T11:37:27Z</time>
      </trkpt>
      <trkpt lat="42.20492" lon="2.33527">
        <ele>1297</ele>
        <time>2018-11-26T11:37:28Z</time>
      </trkpt>
      <trkpt lat="42.20493" lon="2.33529">
        <ele>1297</ele>
        <time>2018-11-26T11:37:29Z</time>
      </trkpt>
      <trkpt lat="42.20495" lon="2.33533">
        <ele>1297</ele>
        <time>2018-11-26T11:37:30Z</time>
      </trkpt>
      <trkpt lat="42.20496" lon="2.33538">
        <ele>1298</ele>
        <time>2018-11-26T11:37:32Z</time>
      </trkpt>
      <trkpt lat="42.20497" lon="2.33541">
        <ele>1298.1</ele>
        <time>2018-11-26T11:37:33Z</time>
      </trkpt>
      <trkpt lat="42.20498" lon="2.33543">
        <ele>1298.5</ele>
        <time>2018-11-26T11:37:34Z</time>
      </trkpt>
      <trkpt lat="42.20499" lon="2.33546">
        <ele>1299</ele>
        <time>2018-11-26T11:37:35Z</time>
      </trkpt>
      <trkpt lat="42.20501" lon="2.33549">
        <ele>1299.1</ele>
        <time>2018-11-26T11:37:35Z</time>
      </trkpt>
      <trkpt lat="42.20502" lon="2.33554">
        <ele>1299</ele>
        <time>2018-11-26T11:37:37Z</time>
      </trkpt>
      <trkpt lat="42.20504" lon="2.33558">
        <ele>1300.1</ele>
        <time>2018-11-26T11:37:39Z</time>
      </trkpt>
      <trkpt lat="42.20504" lon="2.3356">
        <ele>1300</ele>
        <time>2018-11-26T11:37:39Z</time>
      </trkpt>
      <trkpt lat="42.20505" lon="2.33564">
        <ele>1300</ele>
        <time>2018-11-26T11:37:41Z</time>
      </trkpt>
      <trkpt lat="42.20507" lon="2.33568">
        <ele>1300.1</ele>
        <time>2018-11-26T11:37:42Z</time>
      </trkpt>
      <trkpt lat="42.20507" lon="2.33571">
        <ele>1300.1</ele>
        <time>2018-11-26T11:37:43Z</time>
      </trkpt>
      <trkpt lat="42.20508" lon="2.33574">
        <ele>1300</ele>
        <time>2018-11-26T11:37:43Z</time>
      </trkpt>
      <trkpt lat="42.20509" lon="2.33577">
        <ele>1300</ele>
        <time>2018-11-26T11:37:44Z</time>
      </trkpt>
      <trkpt lat="42.2051" lon="2.3358">
        <ele>1300</ele>
        <time>2018-11-26T11:37:45Z</time>
      </trkpt>
      <trkpt lat="42.20511" lon="2.33583">
        <ele>1300.1</ele>
        <time>2018-11-26T11:37:46Z</time>
      </trkpt>
      <trkpt lat="42.20512" lon="2.33586">
        <ele>1300.1</ele>
        <time>2018-11-26T11:37:47Z</time>
      </trkpt>
      <trkpt lat="42.20512" lon="2.33589">
        <ele>1300.1</ele>
        <time>2018-11-26T11:37:48Z</time>
      </trkpt>
      <trkpt lat="42.20513" lon="2.33592">
        <ele>1301.1</ele>
        <time>2018-11-26T11:37:49Z</time>
      </trkpt>
      <trkpt lat="42.20514" lon="2.33595">
        <ele>1300.1</ele>
        <time>2018-11-26T11:37:50Z</time>
      </trkpt>
      <trkpt lat="42.20514" lon="2.33599">
        <ele>1300.1</ele>
        <time>2018-11-26T11:37:51Z</time>
      </trkpt>
      <trkpt lat="42.20515" lon="2.33603">
        <ele>1300.1</ele>
        <time>2018-11-26T11:37:53Z</time>
      </trkpt>
      <trkpt lat="42.20517" lon="2.33606">
        <ele>1300.1</ele>
        <time>2018-11-26T11:37:54Z</time>
      </trkpt>
      <trkpt lat="42.20519" lon="2.33609">
        <ele>1300.1</ele>
        <time>2018-11-26T11:37:55Z</time>
      </trkpt>
      <trkpt lat="42.2052" lon="2.33612">
        <ele>1300</ele>
        <time>2018-11-26T11:37:56Z</time>
      </trkpt>
      <trkpt lat="42.20521" lon="2.33615">
        <ele>1300</ele>
        <time>2018-11-26T11:37:57Z</time>
      </trkpt>
      <trkpt lat="42.20522" lon="2.33618">
        <ele>1300.1</ele>
        <time>2018-11-26T11:37:58Z</time>
      </trkpt>
      <trkpt lat="42.20522" lon="2.33622">
        <ele>1300.1</ele>
        <time>2018-11-26T11:37:59Z</time>
      </trkpt>
      <trkpt lat="42.20522" lon="2.33625">
        <ele>1300.1</ele>
        <time>2018-11-26T11:38:00Z</time>
      </trkpt>
      <trkpt lat="42.20522" lon="2.3363">
        <ele>1300.1</ele>
        <time>2018-11-26T11:38:01Z</time>
      </trkpt>
      <trkpt lat="42.20521" lon="2.33634">
        <ele>1300</ele>
        <time>2018-11-26T11:38:03Z</time>
      </trkpt>
      <trkpt lat="42.2052" lon="2.33639">
        <ele>1299.9</ele>
        <time>2018-11-26T11:38:04Z</time>
      </trkpt>
      <trkpt lat="42.2052" lon="2.33643">
        <ele>1299.1</ele>
        <time>2018-11-26T11:38:05Z</time>
      </trkpt>
      <trkpt lat="42.20519" lon="2.33647">
        <ele>1299</ele>
        <time>2018-11-26T11:38:07Z</time>
      </trkpt>
      <trkpt lat="42.20518" lon="2.33651">
        <ele>1299.1</ele>
        <time>2018-11-26T11:38:08Z</time>
      </trkpt>
      <trkpt lat="42.20517" lon="2.33656">
        <ele>1299.7</ele>
        <time>2018-11-26T11:38:10Z</time>
      </trkpt>
      <trkpt lat="42.20517" lon="2.33658">
        <ele>1299</ele>
        <time>2018-11-26T11:38:10Z</time>
      </trkpt>
      <trkpt lat="42.20515" lon="2.33662">
        <ele>1299.2</ele>
        <time>2018-11-26T11:38:12Z</time>
      </trkpt>
      <trkpt lat="42.20515" lon="2.33667">
        <ele>1300</ele>
        <time>2018-11-26T11:38:13Z</time>
      </trkpt>
      <trkpt lat="42.20514" lon="2.33671">
        <ele>1300</ele>
        <time>2018-11-26T11:38:14Z</time>
      </trkpt>
      <trkpt lat="42.20513" lon="2.33673">
        <ele>1300</ele>
        <time>2018-11-26T11:38:15Z</time>
      </trkpt>
      <trkpt lat="42.20513" lon="2.33676">
        <ele>1300.1</ele>
        <time>2018-11-26T11:38:16Z</time>
      </trkpt>
      <trkpt lat="42.20511" lon="2.33678">
        <ele>1300</ele>
        <time>2018-11-26T11:38:17Z</time>
      </trkpt>
      <trkpt lat="42.2051" lon="2.33679">
        <ele>1300.1</ele>
        <time>2018-11-26T11:38:17Z</time>
      </trkpt>
      <trkpt lat="42.20508" lon="2.33682">
        <ele>1300</ele>
        <time>2018-11-26T11:38:19Z</time>
      </trkpt>
      <trkpt lat="42.20505" lon="2.33686">
        <ele>1300</ele>
        <time>2018-11-26T11:38:20Z</time>
      </trkpt>
      <trkpt lat="42.20502" lon="2.33688">
        <ele>1300</ele>
        <time>2018-11-26T11:38:21Z</time>
      </trkpt>
      <trkpt lat="42.205" lon="2.3369">
        <ele>1300.1</ele>
        <time>2018-11-26T11:38:22Z</time>
      </trkpt>
      <trkpt lat="42.20497" lon="2.33692">
        <ele>1299.1</ele>
        <time>2018-11-26T11:38:24Z</time>
      </trkpt>
      <trkpt lat="42.20494" lon="2.33694">
        <ele>1300</ele>
        <time>2018-11-26T11:38:25Z</time>
      </trkpt>
      <trkpt lat="42.20493" lon="2.33695">
        <ele>1300</ele>
        <time>2018-11-26T11:38:26Z</time>
      </trkpt>
      <trkpt lat="42.2049" lon="2.33698">
        <ele>1300</ele>
        <time>2018-11-26T11:38:27Z</time>
      </trkpt>
      <trkpt lat="42.20488" lon="2.337">
        <ele>1300.2</ele>
        <time>2018-11-26T11:38:28Z</time>
      </trkpt>
      <trkpt lat="42.20486" lon="2.33703">
        <ele>1301</ele>
        <time>2018-11-26T11:38:29Z</time>
      </trkpt>
      <trkpt lat="42.20484" lon="2.33706">
        <ele>1301</ele>
        <time>2018-11-26T11:38:30Z</time>
      </trkpt>
      <trkpt lat="42.20483" lon="2.33707">
        <ele>1301.3</ele>
        <time>2018-11-26T11:38:31Z</time>
      </trkpt>
      <trkpt lat="42.20481" lon="2.33709">
        <ele>1302.1</ele>
        <time>2018-11-26T11:38:32Z</time>
      </trkpt>
      <trkpt lat="42.20479" lon="2.3371">
        <ele>1302</ele>
        <time>2018-11-26T11:38:33Z</time>
      </trkpt>
      <trkpt lat="42.20478" lon="2.33711">
        <ele>1302.1</ele>
        <time>2018-11-26T11:38:33Z</time>
      </trkpt>
      <trkpt lat="42.20476" lon="2.33712">
        <ele>1302.1</ele>
        <time>2018-11-26T11:38:34Z</time>
      </trkpt>
      <trkpt lat="42.20473" lon="2.33714">
        <ele>1302</ele>
        <time>2018-11-26T11:38:35Z</time>
      </trkpt>
      <trkpt lat="42.20471" lon="2.33716">
        <ele>1302</ele>
        <time>2018-11-26T11:38:37Z</time>
      </trkpt>
      <trkpt lat="42.20468" lon="2.33717">
        <ele>1302.1</ele>
        <time>2018-11-26T11:38:38Z</time>
      </trkpt>
      <trkpt lat="42.20466" lon="2.33719">
        <ele>1302</ele>
        <time>2018-11-26T11:38:39Z</time>
      </trkpt>
      <trkpt lat="42.20463" lon="2.33721">
        <ele>1302</ele>
        <time>2018-11-26T11:38:40Z</time>
      </trkpt>
      <trkpt lat="42.20461" lon="2.33724">
        <ele>1303.1</ele>
        <time>2018-11-26T11:38:41Z</time>
      </trkpt>
      <trkpt lat="42.20459" lon="2.33726">
        <ele>1303.1</ele>
        <time>2018-11-26T11:38:42Z</time>
      </trkpt>
      <trkpt lat="42.20456" lon="2.33729">
        <ele>1303</ele>
        <time>2018-11-26T11:38:44Z</time>
      </trkpt>
      <trkpt lat="42.20454" lon="2.33731">
        <ele>1303.1</ele>
        <time>2018-11-26T11:38:45Z</time>
      </trkpt>
      <trkpt lat="42.20452" lon="2.33734">
        <ele>1303.1</ele>
        <time>2018-11-26T11:38:46Z</time>
      </trkpt>
      <trkpt lat="42.2045" lon="2.33738">
        <ele>1302.1</ele>
        <time>2018-11-26T11:38:47Z</time>
      </trkpt>
      <trkpt lat="42.20447" lon="2.33741">
        <ele>1303</ele>
        <time>2018-11-26T11:38:49Z</time>
      </trkpt>
      <trkpt lat="42.20445" lon="2.33743">
        <ele>1302.6</ele>
        <time>2018-11-26T11:38:50Z</time>
      </trkpt>
      <trkpt lat="42.20443" lon="2.33744">
        <ele>1302</ele>
        <time>2018-11-26T11:38:51Z</time>
      </trkpt>
      <trkpt lat="42.20442" lon="2.33746">
        <ele>1302</ele>
        <time>2018-11-26T11:38:51Z</time>
      </trkpt>
      <trkpt lat="42.20441" lon="2.33748">
        <ele>1302</ele>
        <time>2018-11-26T11:38:52Z</time>
      </trkpt>
      <trkpt lat="42.20438" lon="2.33751">
        <ele>1302</ele>
        <time>2018-11-26T11:38:53Z</time>
      </trkpt>
      <trkpt lat="42.20437" lon="2.33753">
        <ele>1302.1</ele>
        <time>2018-11-26T11:38:54Z</time>
      </trkpt>
      <trkpt lat="42.20434" lon="2.33755">
        <ele>1303</ele>
        <time>2018-11-26T11:38:56Z</time>
      </trkpt>
      <trkpt lat="42.20432" lon="2.33759">
        <ele>1303.1</ele>
        <time>2018-11-26T11:38:57Z</time>
      </trkpt>
      <trkpt lat="42.20431" lon="2.33761">
        <ele>1303.2</ele>
        <time>2018-11-26T11:38:58Z</time>
      </trkpt>
      <trkpt lat="42.2043" lon="2.33763">
        <ele>1304.1</ele>
        <time>2018-11-26T11:38:58Z</time>
      </trkpt>
      <trkpt lat="42.20428" lon="2.33767">
        <ele>1304</ele>
        <time>2018-11-26T11:39:00Z</time>
      </trkpt>
      <trkpt lat="42.20426" lon="2.3377">
        <ele>1305</ele>
        <time>2018-11-26T11:39:01Z</time>
      </trkpt>
      <trkpt lat="42.20424" lon="2.33774">
        <ele>1305</ele>
        <time>2018-11-26T11:39:02Z</time>
      </trkpt>
      <trkpt lat="42.20423" lon="2.33777">
        <ele>1306</ele>
        <time>2018-11-26T11:39:03Z</time>
      </trkpt>
      <trkpt lat="42.20422" lon="2.33781">
        <ele>1307</ele>
        <time>2018-11-26T11:39:05Z</time>
      </trkpt>
      <trkpt lat="42.20421" lon="2.33784">
        <ele>1308</ele>
        <time>2018-11-26T11:39:06Z</time>
      </trkpt>
      <trkpt lat="42.2042" lon="2.33787">
        <ele>1308.1</ele>
        <time>2018-11-26T11:39:07Z</time>
      </trkpt>
      <trkpt lat="42.20418" lon="2.3379">
        <ele>1309.1</ele>
        <time>2018-11-26T11:39:08Z</time>
      </trkpt>
      <trkpt lat="42.20418" lon="2.33794">
        <ele>1309.1</ele>
        <time>2018-11-26T11:39:09Z</time>
      </trkpt>
      <trkpt lat="42.20417" lon="2.33797">
        <ele>1310</ele>
        <time>2018-11-26T11:39:10Z</time>
      </trkpt>
      <trkpt lat="42.20417" lon="2.338">
        <ele>1310.1</ele>
        <time>2018-11-26T11:39:11Z</time>
      </trkpt>
      <trkpt lat="42.20416" lon="2.33804">
        <ele>1312.1</ele>
        <time>2018-11-26T11:39:12Z</time>
      </trkpt>
      <trkpt lat="42.20415" lon="2.33806">
        <ele>1312.1</ele>
        <time>2018-11-26T11:39:13Z</time>
      </trkpt>
      <trkpt lat="42.20415" lon="2.33809">
        <ele>1312.6</ele>
        <time>2018-11-26T11:39:13Z</time>
      </trkpt>
      <trkpt lat="42.20414" lon="2.33811">
        <ele>1313</ele>
        <time>2018-11-26T11:39:14Z</time>
      </trkpt>
      <trkpt lat="42.20413" lon="2.33816">
        <ele>1313</ele>
        <time>2018-11-26T11:39:16Z</time>
      </trkpt>
      <trkpt lat="42.2041" lon="2.33818">
        <ele>1314</ele>
        <time>2018-11-26T11:39:17Z</time>
      </trkpt>
      <trkpt lat="42.20408" lon="2.33819">
        <ele>1314.1</ele>
        <time>2018-11-26T11:39:18Z</time>
      </trkpt>
      <trkpt lat="42.20406" lon="2.3382">
        <ele>1314.2</ele>
        <time>2018-11-26T11:39:18Z</time>
      </trkpt>
      <trkpt lat="42.20403" lon="2.33823">
        <ele>1315.1</ele>
        <time>2018-11-26T11:39:20Z</time>
      </trkpt>
      <trkpt lat="42.204" lon="2.33824">
        <ele>1315</ele>
        <time>2018-11-26T11:39:21Z</time>
      </trkpt>
      <trkpt lat="42.20398" lon="2.33827">
        <ele>1315</ele>
        <time>2018-11-26T11:39:22Z</time>
      </trkpt>
      <trkpt lat="42.20396" lon="2.33829">
        <ele>1315</ele>
        <time>2018-11-26T11:39:24Z</time>
      </trkpt>
      <trkpt lat="42.20395" lon="2.33832">
        <ele>1315.3</ele>
        <time>2018-11-26T11:39:24Z</time>
      </trkpt>
      <trkpt lat="42.20393" lon="2.33836">
        <ele>1316.1</ele>
        <time>2018-11-26T11:39:26Z</time>
      </trkpt>
      <trkpt lat="42.20392" lon="2.33838">
        <ele>1316.1</ele>
        <time>2018-11-26T11:39:26Z</time>
      </trkpt>
      <trkpt lat="42.2039" lon="2.33841">
        <ele>1316</ele>
        <time>2018-11-26T11:39:28Z</time>
      </trkpt>
      <trkpt lat="42.20388" lon="2.33846">
        <ele>1317</ele>
        <time>2018-11-26T11:39:29Z</time>
      </trkpt>
      <trkpt lat="42.20388" lon="2.33848">
        <ele>1317.1</ele>
        <time>2018-11-26T11:39:30Z</time>
      </trkpt>
      <trkpt lat="42.20387" lon="2.3385">
        <ele>1317</ele>
        <time>2018-11-26T11:39:31Z</time>
      </trkpt>
      <trkpt lat="42.20385" lon="2.33853">
        <ele>1317.1</ele>
        <time>2018-11-26T11:39:32Z</time>
      </trkpt>
      <trkpt lat="42.20384" lon="2.33857">
        <ele>1317.1</ele>
        <time>2018-11-26T11:39:33Z</time>
      </trkpt>
      <trkpt lat="42.20382" lon="2.3386">
        <ele>1317.1</ele>
        <time>2018-11-26T11:39:34Z</time>
      </trkpt>
      <trkpt lat="42.2038" lon="2.33862">
        <ele>1317.2</ele>
        <time>2018-11-26T11:39:35Z</time>
      </trkpt>
      <trkpt lat="42.20379" lon="2.33866">
        <ele>1319.1</ele>
        <time>2018-11-26T11:39:37Z</time>
      </trkpt>
      <trkpt lat="42.20378" lon="2.33869">
        <ele>1319.1</ele>
        <time>2018-11-26T11:39:37Z</time>
      </trkpt>
      <trkpt lat="42.20376" lon="2.33871">
        <ele>1319.3</ele>
        <time>2018-11-26T11:39:38Z</time>
      </trkpt>
      <trkpt lat="42.20374" lon="2.33874">
        <ele>1319.8</ele>
        <time>2018-11-26T11:39:39Z</time>
      </trkpt>
      <trkpt lat="42.20373" lon="2.33876">
        <ele>1318.6</ele>
        <time>2018-11-26T11:39:40Z</time>
      </trkpt>
      <trkpt lat="42.2037" lon="2.33879">
        <ele>1318</ele>
        <time>2018-11-26T11:39:41Z</time>
      </trkpt>
      <trkpt lat="42.20368" lon="2.33881">
        <ele>1318.2</ele>
        <time>2018-11-26T11:39:43Z</time>
      </trkpt>
      <trkpt lat="42.20366" lon="2.33884">
        <ele>1319</ele>
        <time>2018-11-26T11:39:44Z</time>
      </trkpt>
      <trkpt lat="42.20364" lon="2.33887">
        <ele>1319</ele>
        <time>2018-11-26T11:39:45Z</time>
      </trkpt>
      <trkpt lat="42.20362" lon="2.3389">
        <ele>1319</ele>
        <time>2018-11-26T11:39:46Z</time>
      </trkpt>
      <trkpt lat="42.2036" lon="2.33894">
        <ele>1320</ele>
        <time>2018-11-26T11:39:48Z</time>
      </trkpt>
      <trkpt lat="42.20359" lon="2.33898">
        <ele>1320</ele>
        <time>2018-11-26T11:39:49Z</time>
      </trkpt>
      <trkpt lat="42.20357" lon="2.33901">
        <ele>1321</ele>
        <time>2018-11-26T11:39:50Z</time>
      </trkpt>
      <trkpt lat="42.20355" lon="2.33905">
        <ele>1321</ele>
        <time>2018-11-26T11:39:51Z</time>
      </trkpt>
      <trkpt lat="42.20353" lon="2.33908">
        <ele>1320.7</ele>
        <time>2018-11-26T11:39:53Z</time>
      </trkpt>
      <trkpt lat="42.20352" lon="2.33912">
        <ele>1320.3</ele>
        <time>2018-11-26T11:39:54Z</time>
      </trkpt>
      <trkpt lat="42.2035" lon="2.33916">
        <ele>1321</ele>
        <time>2018-11-26T11:39:55Z</time>
      </trkpt>
      <trkpt lat="42.20349" lon="2.33918">
        <ele>1321</ele>
        <time>2018-11-26T11:39:56Z</time>
      </trkpt>
      <trkpt lat="42.20347" lon="2.3392">
        <ele>1321.2</ele>
        <time>2018-11-26T11:39:57Z</time>
      </trkpt>
      <trkpt lat="42.20345" lon="2.33922">
        <ele>1322.1</ele>
        <time>2018-11-26T11:39:58Z</time>
      </trkpt>
      <trkpt lat="42.20342" lon="2.33926">
        <ele>1322.1</ele>
        <time>2018-11-26T11:40:00Z</time>
      </trkpt>
      <trkpt lat="42.2034" lon="2.33928">
        <ele>1322.2</ele>
        <time>2018-11-26T11:40:01Z</time>
      </trkpt>
      <trkpt lat="42.20339" lon="2.33932">
        <ele>1323</ele>
        <time>2018-11-26T11:40:02Z</time>
      </trkpt>
      <trkpt lat="42.20337" lon="2.33934">
        <ele>1323.2</ele>
        <time>2018-11-26T11:40:03Z</time>
      </trkpt>
      <trkpt lat="42.20336" lon="2.33937">
        <ele>1324.1</ele>
        <time>2018-11-26T11:40:04Z</time>
      </trkpt>
      <trkpt lat="42.20335" lon="2.33941">
        <ele>1323</ele>
        <time>2018-11-26T11:40:05Z</time>
      </trkpt>
      <trkpt lat="42.20334" lon="2.33944">
        <ele>1323.1</ele>
        <time>2018-11-26T11:40:06Z</time>
      </trkpt>
      <trkpt lat="42.20333" lon="2.33947">
        <ele>1323</ele>
        <time>2018-11-26T11:40:07Z</time>
      </trkpt>
      <trkpt lat="42.20331" lon="2.33949">
        <ele>1324</ele>
        <time>2018-11-26T11:40:08Z</time>
      </trkpt>
      <trkpt lat="42.20328" lon="2.33951">
        <ele>1323.8</ele>
        <time>2018-11-26T11:40:09Z</time>
      </trkpt>
      <trkpt lat="42.20328" lon="2.33954">
        <ele>1323</ele>
        <time>2018-11-26T11:40:10Z</time>
      </trkpt>
      <trkpt lat="42.20329" lon="2.33956">
        <ele>1323.1</ele>
        <time>2018-11-26T11:40:11Z</time>
      </trkpt>
      <trkpt lat="42.20329" lon="2.3396">
        <ele>1323.1</ele>
        <time>2018-11-26T11:40:12Z</time>
      </trkpt>
      <trkpt lat="42.20329" lon="2.33963">
        <ele>1323.1</ele>
        <time>2018-11-26T11:40:13Z</time>
      </trkpt>
      <trkpt lat="42.2033" lon="2.33966">
        <ele>1323.1</ele>
        <time>2018-11-26T11:40:14Z</time>
      </trkpt>
      <trkpt lat="42.2033" lon="2.3397">
        <ele>1323</ele>
        <time>2018-11-26T11:40:15Z</time>
      </trkpt>
      <trkpt lat="42.20329" lon="2.33973">
        <ele>1323.1</ele>
        <time>2018-11-26T11:40:16Z</time>
      </trkpt>
      <trkpt lat="42.2033" lon="2.33977">
        <ele>1323.1</ele>
        <time>2018-11-26T11:40:17Z</time>
      </trkpt>
      <trkpt lat="42.20331" lon="2.3398">
        <ele>1323</ele>
        <time>2018-11-26T11:40:18Z</time>
      </trkpt>
      <trkpt lat="42.20332" lon="2.33983">
        <ele>1323</ele>
        <time>2018-11-26T11:40:19Z</time>
      </trkpt>
      <trkpt lat="42.20332" lon="2.33986">
        <ele>1323</ele>
        <time>2018-11-26T11:40:20Z</time>
      </trkpt>
      <trkpt lat="42.20332" lon="2.33989">
        <ele>1323.1</ele>
        <time>2018-11-26T11:40:21Z</time>
      </trkpt>
      <trkpt lat="42.20332" lon="2.33992">
        <ele>1324</ele>
        <time>2018-11-26T11:40:22Z</time>
      </trkpt>
      <trkpt lat="42.20332" lon="2.33996">
        <ele>1324.1</ele>
        <time>2018-11-26T11:40:23Z</time>
      </trkpt>
      <trkpt lat="42.20331" lon="2.33999">
        <ele>1324</ele>
        <time>2018-11-26T11:40:24Z</time>
      </trkpt>
      <trkpt lat="42.2033" lon="2.34002">
        <ele>1324.1</ele>
        <time>2018-11-26T11:40:25Z</time>
      </trkpt>
      <trkpt lat="42.20329" lon="2.34006">
        <ele>1324.2</ele>
        <time>2018-11-26T11:40:26Z</time>
      </trkpt>
      <trkpt lat="42.20329" lon="2.34009">
        <ele>1325.1</ele>
        <time>2018-11-26T11:40:27Z</time>
      </trkpt>
      <trkpt lat="42.20329" lon="2.34013">
        <ele>1325</ele>
        <time>2018-11-26T11:40:28Z</time>
      </trkpt>
      <trkpt lat="42.20328" lon="2.34015">
        <ele>1325</ele>
        <time>2018-11-26T11:40:29Z</time>
      </trkpt>
      <trkpt lat="42.20328" lon="2.34019">
        <ele>1325.1</ele>
        <time>2018-11-26T11:40:30Z</time>
      </trkpt>
      <trkpt lat="42.20328" lon="2.34022">
        <ele>1326</ele>
        <time>2018-11-26T11:40:31Z</time>
      </trkpt>
      <trkpt lat="42.20329" lon="2.34024">
        <ele>1326.2</ele>
        <time>2018-11-26T11:40:32Z</time>
      </trkpt>
      <trkpt lat="42.20329" lon="2.34027">
        <ele>1327</ele>
        <time>2018-11-26T11:40:33Z</time>
      </trkpt>
      <trkpt lat="42.20328" lon="2.3403">
        <ele>1327</ele>
        <time>2018-11-26T11:40:34Z</time>
      </trkpt>
      <trkpt lat="42.20327" lon="2.34032">
        <ele>1327.1</ele>
        <time>2018-11-26T11:40:34Z</time>
      </trkpt>
      <trkpt lat="42.20326" lon="2.34034">
        <ele>1328.1</ele>
        <time>2018-11-26T11:40:35Z</time>
      </trkpt>
      <trkpt lat="42.20325" lon="2.34036">
        <ele>1328.1</ele>
        <time>2018-11-26T11:40:36Z</time>
      </trkpt>
      <trkpt lat="42.20324" lon="2.34039">
        <ele>1328.1</ele>
        <time>2018-11-26T11:40:37Z</time>
      </trkpt>
      <trkpt lat="42.20322" lon="2.34042">
        <ele>1328.1</ele>
        <time>2018-11-26T11:40:38Z</time>
      </trkpt>
      <trkpt lat="42.20321" lon="2.34046">
        <ele>1329.1</ele>
        <time>2018-11-26T11:40:39Z</time>
      </trkpt>
      <trkpt lat="42.2032" lon="2.34049">
        <ele>1329.1</ele>
        <time>2018-11-26T11:40:40Z</time>
      </trkpt>
      <trkpt lat="42.20319" lon="2.34052">
        <ele>1329.1</ele>
        <time>2018-11-26T11:40:41Z</time>
      </trkpt>
      <trkpt lat="42.20319" lon="2.34056">
        <ele>1329.2</ele>
        <time>2018-11-26T11:40:42Z</time>
      </trkpt>
      <trkpt lat="42.20318" lon="2.34059">
        <ele>1330</ele>
        <time>2018-11-26T11:40:43Z</time>
      </trkpt>
      <trkpt lat="42.20317" lon="2.34062">
        <ele>1330</ele>
        <time>2018-11-26T11:40:44Z</time>
      </trkpt>
      <trkpt lat="42.20317" lon="2.34066">
        <ele>1331</ele>
        <time>2018-11-26T11:40:45Z</time>
      </trkpt>
      <trkpt lat="42.20316" lon="2.34069">
        <ele>1331.1</ele>
        <time>2018-11-26T11:40:46Z</time>
      </trkpt>
      <trkpt lat="42.20316" lon="2.34072">
        <ele>1331</ele>
        <time>2018-11-26T11:40:47Z</time>
      </trkpt>
      <trkpt lat="42.20315" lon="2.34074">
        <ele>1332.1</ele>
        <time>2018-11-26T11:40:48Z</time>
      </trkpt>
      <trkpt lat="42.20314" lon="2.34077">
        <ele>1332.1</ele>
        <time>2018-11-26T11:40:49Z</time>
      </trkpt>
      <trkpt lat="42.20312" lon="2.3408">
        <ele>1333</ele>
        <time>2018-11-26T11:40:50Z</time>
      </trkpt>
      <trkpt lat="42.20311" lon="2.34083">
        <ele>1333</ele>
        <time>2018-11-26T11:40:51Z</time>
      </trkpt>
      <trkpt lat="42.2031" lon="2.34086">
        <ele>1333.1</ele>
        <time>2018-11-26T11:40:52Z</time>
      </trkpt>
      <trkpt lat="42.20308" lon="2.34088">
        <ele>1333.1</ele>
        <time>2018-11-26T11:40:53Z</time>
      </trkpt>
      <trkpt lat="42.20307" lon="2.3409">
        <ele>1333.2</ele>
        <time>2018-11-26T11:40:54Z</time>
      </trkpt>
      <trkpt lat="42.20305" lon="2.34092">
        <ele>1334</ele>
        <time>2018-11-26T11:40:55Z</time>
      </trkpt>
      <trkpt lat="42.20306" lon="2.34094">
        <ele>1334</ele>
        <time>2018-11-26T11:40:55Z</time>
      </trkpt>
      <trkpt lat="42.20304" lon="2.34097">
        <ele>1334.1</ele>
        <time>2018-11-26T11:40:56Z</time>
      </trkpt>
      <trkpt lat="42.20303" lon="2.341">
        <ele>1334</ele>
        <time>2018-11-26T11:40:57Z</time>
      </trkpt>
      <trkpt lat="42.20302" lon="2.34102">
        <ele>1334</ele>
        <time>2018-11-26T11:40:58Z</time>
      </trkpt>
      <trkpt lat="42.20301" lon="2.34104">
        <ele>1334</ele>
        <time>2018-11-26T11:40:59Z</time>
      </trkpt>
      <trkpt lat="42.20299" lon="2.34106">
        <ele>1334</ele>
        <time>2018-11-26T11:41:00Z</time>
      </trkpt>
      <trkpt lat="42.20298" lon="2.34108">
        <ele>1334.1</ele>
        <time>2018-11-26T11:41:01Z</time>
      </trkpt>
      <trkpt lat="42.20297" lon="2.3411">
        <ele>1334.1</ele>
        <time>2018-11-26T11:41:01Z</time>
      </trkpt>
      <trkpt lat="42.20296" lon="2.34112">
        <ele>1334.1</ele>
        <time>2018-11-26T11:41:02Z</time>
      </trkpt>
      <trkpt lat="42.20294" lon="2.34116">
        <ele>1334.2</ele>
        <time>2018-11-26T11:41:03Z</time>
      </trkpt>
      <trkpt lat="42.20293" lon="2.34118">
        <ele>1335</ele>
        <time>2018-11-26T11:41:04Z</time>
      </trkpt>
      <trkpt lat="42.20293" lon="2.34122">
        <ele>1335</ele>
        <time>2018-11-26T11:41:05Z</time>
      </trkpt>
      <trkpt lat="42.20292" lon="2.34125">
        <ele>1335</ele>
        <time>2018-11-26T11:41:06Z</time>
      </trkpt>
      <trkpt lat="42.20291" lon="2.34128">
        <ele>1335</ele>
        <time>2018-11-26T11:41:07Z</time>
      </trkpt>
      <trkpt lat="42.2029" lon="2.34131">
        <ele>1335.1</ele>
        <time>2018-11-26T11:41:08Z</time>
      </trkpt>
      <trkpt lat="42.20289" lon="2.34134">
        <ele>1335</ele>
        <time>2018-11-26T11:41:09Z</time>
      </trkpt>
      <trkpt lat="42.20288" lon="2.34137">
        <ele>1335.1</ele>
        <time>2018-11-26T11:41:10Z</time>
      </trkpt>
      <trkpt lat="42.20287" lon="2.3414">
        <ele>1336</ele>
        <time>2018-11-26T11:41:11Z</time>
      </trkpt>
      <trkpt lat="42.20287" lon="2.34143">
        <ele>1336.1</ele>
        <time>2018-11-26T11:41:12Z</time>
      </trkpt>
      <trkpt lat="42.20286" lon="2.34146">
        <ele>1336.1</ele>
        <time>2018-11-26T11:41:13Z</time>
      </trkpt>
      <trkpt lat="42.20286" lon="2.3415">
        <ele>1336.1</ele>
        <time>2018-11-26T11:41:14Z</time>
      </trkpt>
      <trkpt lat="42.20286" lon="2.34154">
        <ele>1337</ele>
        <time>2018-11-26T11:41:15Z</time>
      </trkpt>
      <trkpt lat="42.20286" lon="2.34157">
        <ele>1337</ele>
        <time>2018-11-26T11:41:16Z</time>
      </trkpt>
      <trkpt lat="42.20285" lon="2.3416">
        <ele>1337</ele>
        <time>2018-11-26T11:41:17Z</time>
      </trkpt>
      <trkpt lat="42.20285" lon="2.34162">
        <ele>1337</ele>
        <time>2018-11-26T11:41:18Z</time>
      </trkpt>
      <trkpt lat="42.20284" lon="2.34166">
        <ele>1337.1</ele>
        <time>2018-11-26T11:41:19Z</time>
      </trkpt>
      <trkpt lat="42.20284" lon="2.34169">
        <ele>1338.1</ele>
        <time>2018-11-26T11:41:20Z</time>
      </trkpt>
      <trkpt lat="42.20283" lon="2.34173">
        <ele>1338.1</ele>
        <time>2018-11-26T11:41:21Z</time>
      </trkpt>
      <trkpt lat="42.20282" lon="2.34178">
        <ele>1338</ele>
        <time>2018-11-26T11:41:23Z</time>
      </trkpt>
      <trkpt lat="42.2028" lon="2.34181">
        <ele>1339.1</ele>
        <time>2018-11-26T11:41:24Z</time>
      </trkpt>
      <trkpt lat="42.20278" lon="2.34185">
        <ele>1339</ele>
        <time>2018-11-26T11:41:25Z</time>
      </trkpt>
      <trkpt lat="42.20277" lon="2.34189">
        <ele>1339</ele>
        <time>2018-11-26T11:41:26Z</time>
      </trkpt>
      <trkpt lat="42.20275" lon="2.34192">
        <ele>1339.4</ele>
        <time>2018-11-26T11:41:28Z</time>
      </trkpt>
      <trkpt lat="42.20274" lon="2.34196">
        <ele>1340</ele>
        <time>2018-11-26T11:41:29Z</time>
      </trkpt>
      <trkpt lat="42.20273" lon="2.342">
        <ele>1339.1</ele>
        <time>2018-11-26T11:41:30Z</time>
      </trkpt>
      <trkpt lat="42.20273" lon="2.34203">
        <ele>1339</ele>
        <time>2018-11-26T11:41:31Z</time>
      </trkpt>
      <trkpt lat="42.20272" lon="2.34208">
        <ele>1339</ele>
        <time>2018-11-26T11:41:32Z</time>
      </trkpt>
      <trkpt lat="42.20271" lon="2.34212">
        <ele>1339.3</ele>
        <time>2018-11-26T11:41:34Z</time>
      </trkpt>
      <trkpt lat="42.20269" lon="2.34215">
        <ele>1340.1</ele>
        <time>2018-11-26T11:41:35Z</time>
      </trkpt>
      <trkpt lat="42.20268" lon="2.34218">
        <ele>1340</ele>
        <time>2018-11-26T11:41:36Z</time>
      </trkpt>
      <trkpt lat="42.20268" lon="2.34221">
        <ele>1341.3</ele>
        <time>2018-11-26T11:41:37Z</time>
      </trkpt>
      <trkpt lat="42.20268" lon="2.34225">
        <ele>1342</ele>
        <time>2018-11-26T11:41:38Z</time>
      </trkpt>
      <trkpt lat="42.20268" lon="2.34229">
        <ele>1343</ele>
        <time>2018-11-26T11:41:39Z</time>
      </trkpt>
      <trkpt lat="42.20267" lon="2.34233">
        <ele>1343</ele>
        <time>2018-11-26T11:41:40Z</time>
      </trkpt>
      <trkpt lat="42.20267" lon="2.34236">
        <ele>1344.1</ele>
        <time>2018-11-26T11:41:41Z</time>
      </trkpt>
      <trkpt lat="42.20266" lon="2.34239">
        <ele>1344</ele>
        <time>2018-11-26T11:41:42Z</time>
      </trkpt>
      <trkpt lat="42.20265" lon="2.34241">
        <ele>1344.1</ele>
        <time>2018-11-26T11:41:43Z</time>
      </trkpt>
      <trkpt lat="42.20263" lon="2.34244">
        <ele>1344.1</ele>
        <time>2018-11-26T11:41:44Z</time>
      </trkpt>
      <trkpt lat="42.20263" lon="2.34248">
        <ele>1345</ele>
        <time>2018-11-26T11:41:45Z</time>
      </trkpt>
      <trkpt lat="42.20263" lon="2.3425">
        <ele>1345.1</ele>
        <time>2018-11-26T11:41:46Z</time>
      </trkpt>
      <trkpt lat="42.20263" lon="2.34253">
        <ele>1345</ele>
        <time>2018-11-26T11:41:47Z</time>
      </trkpt>
      <trkpt lat="42.20264" lon="2.34256">
        <ele>1346.1</ele>
        <time>2018-11-26T11:41:48Z</time>
      </trkpt>
      <trkpt lat="42.20263" lon="2.34259">
        <ele>1345.2</ele>
        <time>2018-11-26T11:41:48Z</time>
      </trkpt>
      <trkpt lat="42.20264" lon="2.34262">
        <ele>1347.1</ele>
        <time>2018-11-26T11:41:49Z</time>
      </trkpt>
      <trkpt lat="42.20263" lon="2.34264">
        <ele>1346.1</ele>
        <time>2018-11-26T11:41:50Z</time>
      </trkpt>
      <trkpt lat="42.20263" lon="2.34267">
        <ele>1346.1</ele>
        <time>2018-11-26T11:41:51Z</time>
      </trkpt>
      <trkpt lat="42.20262" lon="2.3427">
        <ele>1345.7</ele>
        <time>2018-11-26T11:41:52Z</time>
      </trkpt>
      <trkpt lat="42.20262" lon="2.34274">
        <ele>1345</ele>
        <time>2018-11-26T11:41:53Z</time>
      </trkpt>
      <trkpt lat="42.20262" lon="2.34277">
        <ele>1346.1</ele>
        <time>2018-11-26T11:41:54Z</time>
      </trkpt>
      <trkpt lat="42.20261" lon="2.3428">
        <ele>1346</ele>
        <time>2018-11-26T11:41:55Z</time>
      </trkpt>
      <trkpt lat="42.20261" lon="2.34284">
        <ele>1346</ele>
        <time>2018-11-26T11:41:56Z</time>
      </trkpt>
      <trkpt lat="42.20262" lon="2.34287">
        <ele>1346</ele>
        <time>2018-11-26T11:41:57Z</time>
      </trkpt>
      <trkpt lat="42.20262" lon="2.34289">
        <ele>1345.1</ele>
        <time>2018-11-26T11:41:58Z</time>
      </trkpt>
      <trkpt lat="42.2026" lon="2.34291">
        <ele>1347</ele>
        <time>2018-11-26T11:41:58Z</time>
      </trkpt>
      <trkpt lat="42.20258" lon="2.34291">
        <ele>1346</ele>
        <time>2018-11-26T11:41:59Z</time>
      </trkpt>
      <trkpt lat="42.20256" lon="2.34293">
        <ele>1346.3</ele>
        <time>2018-11-26T11:42:00Z</time>
      </trkpt>
      <trkpt lat="42.20256" lon="2.34296">
        <ele>1347</ele>
        <time>2018-11-26T11:42:01Z</time>
      </trkpt>
      <trkpt lat="42.20257" lon="2.34299">
        <ele>1347</ele>
        <time>2018-11-26T11:42:02Z</time>
      </trkpt>
      <trkpt lat="42.20257" lon="2.34303">
        <ele>1347</ele>
        <time>2018-11-26T11:42:03Z</time>
      </trkpt>
      <trkpt lat="42.20256" lon="2.34307">
        <ele>1347</ele>
        <time>2018-11-26T11:42:04Z</time>
      </trkpt>
      <trkpt lat="42.20255" lon="2.34311">
        <ele>1347.1</ele>
        <time>2018-11-26T11:42:06Z</time>
      </trkpt>
      <trkpt lat="42.20253" lon="2.34315">
        <ele>1346.1</ele>
        <time>2018-11-26T11:42:07Z</time>
      </trkpt>
      <trkpt lat="42.20253" lon="2.34319">
        <ele>1347</ele>
        <time>2018-11-26T11:42:08Z</time>
      </trkpt>
      <trkpt lat="42.20252" lon="2.34323">
        <ele>1347</ele>
        <time>2018-11-26T11:42:10Z</time>
      </trkpt>
      <trkpt lat="42.20251" lon="2.34327">
        <ele>1347</ele>
        <time>2018-11-26T11:42:11Z</time>
      </trkpt>
      <trkpt lat="42.2025" lon="2.34331">
        <ele>1347.1</ele>
        <time>2018-11-26T11:42:12Z</time>
      </trkpt>
      <trkpt lat="42.2025" lon="2.34335">
        <ele>1347</ele>
        <time>2018-11-26T11:42:13Z</time>
      </trkpt>
      <trkpt lat="42.20249" lon="2.34338">
        <ele>1347.1</ele>
        <time>2018-11-26T11:42:14Z</time>
      </trkpt>
      <trkpt lat="42.20249" lon="2.34341">
        <ele>1347</ele>
        <time>2018-11-26T11:42:15Z</time>
      </trkpt>
      <trkpt lat="42.2025" lon="2.34344">
        <ele>1346.1</ele>
        <time>2018-11-26T11:42:16Z</time>
      </trkpt>
      <trkpt lat="42.20252" lon="2.34348">
        <ele>1346</ele>
        <time>2018-11-26T11:42:17Z</time>
      </trkpt>
      <trkpt lat="42.20253" lon="2.34351">
        <ele>1346.1</ele>
        <time>2018-11-26T11:42:18Z</time>
      </trkpt>
      <trkpt lat="42.20255" lon="2.34353">
        <ele>1346.1</ele>
        <time>2018-11-26T11:42:19Z</time>
      </trkpt>
      <trkpt lat="42.20256" lon="2.34356">
        <ele>1345.6</ele>
        <time>2018-11-26T11:42:20Z</time>
      </trkpt>
      <trkpt lat="42.20256" lon="2.34359">
        <ele>1344</ele>
        <time>2018-11-26T11:42:21Z</time>
      </trkpt>
      <trkpt lat="42.20257" lon="2.34363">
        <ele>1343</ele>
        <time>2018-11-26T11:42:22Z</time>
      </trkpt>
      <trkpt lat="42.20257" lon="2.34366">
        <ele>1343.1</ele>
        <time>2018-11-26T11:42:23Z</time>
      </trkpt>
      <trkpt lat="42.20258" lon="2.34369">
        <ele>1343.1</ele>
        <time>2018-11-26T11:42:24Z</time>
      </trkpt>
      <trkpt lat="42.20258" lon="2.34373">
        <ele>1343.1</ele>
        <time>2018-11-26T11:42:25Z</time>
      </trkpt>
      <trkpt lat="42.20258" lon="2.34376">
        <ele>1343.1</ele>
        <time>2018-11-26T11:42:26Z</time>
      </trkpt>
      <trkpt lat="42.20257" lon="2.34379">
        <ele>1343</ele>
        <time>2018-11-26T11:42:27Z</time>
      </trkpt>
      <trkpt lat="42.20257" lon="2.34382">
        <ele>1343.1</ele>
        <time>2018-11-26T11:42:28Z</time>
      </trkpt>
      <trkpt lat="42.20257" lon="2.34386">
        <ele>1343.1</ele>
        <time>2018-11-26T11:42:29Z</time>
      </trkpt>
      <trkpt lat="42.20258" lon="2.3439">
        <ele>1343.1</ele>
        <time>2018-11-26T11:42:30Z</time>
      </trkpt>
      <trkpt lat="42.20258" lon="2.34394">
        <ele>1343.1</ele>
        <time>2018-11-26T11:42:32Z</time>
      </trkpt>
      <trkpt lat="42.20258" lon="2.34398">
        <ele>1343</ele>
        <time>2018-11-26T11:42:33Z</time>
      </trkpt>
      <trkpt lat="42.20259" lon="2.34401">
        <ele>1343</ele>
        <time>2018-11-26T11:42:34Z</time>
      </trkpt>
      <trkpt lat="42.2026" lon="2.34405">
        <ele>1343.1</ele>
        <time>2018-11-26T11:42:35Z</time>
      </trkpt>
      <trkpt lat="42.20261" lon="2.34409">
        <ele>1343</ele>
        <time>2018-11-26T11:42:36Z</time>
      </trkpt>
      <trkpt lat="42.20263" lon="2.34413">
        <ele>1343.1</ele>
        <time>2018-11-26T11:42:38Z</time>
      </trkpt>
      <trkpt lat="42.20263" lon="2.34417">
        <ele>1343.1</ele>
        <time>2018-11-26T11:42:39Z</time>
      </trkpt>
      <trkpt lat="42.20264" lon="2.3442">
        <ele>1343.1</ele>
        <time>2018-11-26T11:42:40Z</time>
      </trkpt>
      <trkpt lat="42.20264" lon="2.34423">
        <ele>1343.1</ele>
        <time>2018-11-26T11:42:41Z</time>
      </trkpt>
      <trkpt lat="42.20263" lon="2.34426">
        <ele>1344</ele>
        <time>2018-11-26T11:42:42Z</time>
      </trkpt>
      <trkpt lat="42.20263" lon="2.3443">
        <ele>1344</ele>
        <time>2018-11-26T11:42:43Z</time>
      </trkpt>
      <trkpt lat="42.20263" lon="2.34434">
        <ele>1344.1</ele>
        <time>2018-11-26T11:42:44Z</time>
      </trkpt>
      <trkpt lat="42.20263" lon="2.34436">
        <ele>1344</ele>
        <time>2018-11-26T11:42:45Z</time>
      </trkpt>
      <trkpt lat="42.20262" lon="2.34439">
        <ele>1343</ele>
        <time>2018-11-26T11:42:46Z</time>
      </trkpt>
      <trkpt lat="42.2026" lon="2.34443">
        <ele>1344</ele>
        <time>2018-11-26T11:42:47Z</time>
      </trkpt>
      <trkpt lat="42.2026" lon="2.34447">
        <ele>1344</ele>
        <time>2018-11-26T11:42:48Z</time>
      </trkpt>
      <trkpt lat="42.20259" lon="2.34451">
        <ele>1344.1</ele>
        <time>2018-11-26T11:42:49Z</time>
      </trkpt>
      <trkpt lat="42.20258" lon="2.34455">
        <ele>1344</ele>
        <time>2018-11-26T11:42:51Z</time>
      </trkpt>
      <trkpt lat="42.20258" lon="2.34459">
        <ele>1344</ele>
        <time>2018-11-26T11:42:52Z</time>
      </trkpt>
      <trkpt lat="42.20257" lon="2.34463">
        <ele>1344</ele>
        <time>2018-11-26T11:42:53Z</time>
      </trkpt>
      <trkpt lat="42.20257" lon="2.34466">
        <ele>1344</ele>
        <time>2018-11-26T11:42:54Z</time>
      </trkpt>
      <trkpt lat="42.20255" lon="2.3447">
        <ele>1344</ele>
        <time>2018-11-26T11:42:55Z</time>
      </trkpt>
      <trkpt lat="42.20254" lon="2.34473">
        <ele>1344</ele>
        <time>2018-11-26T11:42:56Z</time>
      </trkpt>
      <trkpt lat="42.20252" lon="2.34476">
        <ele>1345</ele>
        <time>2018-11-26T11:42:57Z</time>
      </trkpt>
      <trkpt lat="42.20251" lon="2.3448">
        <ele>1345.1</ele>
        <time>2018-11-26T11:42:59Z</time>
      </trkpt>
      <trkpt lat="42.2025" lon="2.34483">
        <ele>1345</ele>
        <time>2018-11-26T11:43:00Z</time>
      </trkpt>
      <trkpt lat="42.20248" lon="2.34486">
        <ele>1346</ele>
        <time>2018-11-26T11:43:01Z</time>
      </trkpt>
      <trkpt lat="42.20248" lon="2.3449">
        <ele>1346.1</ele>
        <time>2018-11-26T11:43:02Z</time>
      </trkpt>
      <trkpt lat="42.20247" lon="2.34494">
        <ele>1346</ele>
        <time>2018-11-26T11:43:03Z</time>
      </trkpt>
      <trkpt lat="42.20246" lon="2.34497">
        <ele>1347</ele>
        <time>2018-11-26T11:43:04Z</time>
      </trkpt>
      <trkpt lat="42.20244" lon="2.345">
        <ele>1347.1</ele>
        <time>2018-11-26T11:43:05Z</time>
      </trkpt>
      <trkpt lat="42.20242" lon="2.34503">
        <ele>1347</ele>
        <time>2018-11-26T11:43:07Z</time>
      </trkpt>
      <trkpt lat="42.2024" lon="2.34507">
        <ele>1347</ele>
        <time>2018-11-26T11:43:08Z</time>
      </trkpt>
      <trkpt lat="42.20239" lon="2.34511">
        <ele>1347.1</ele>
        <time>2018-11-26T11:43:09Z</time>
      </trkpt>
      <trkpt lat="42.20237" lon="2.34514">
        <ele>1347</ele>
        <time>2018-11-26T11:43:10Z</time>
      </trkpt>
      <trkpt lat="42.20236" lon="2.34516">
        <ele>1347.1</ele>
        <time>2018-11-26T11:43:11Z</time>
      </trkpt>
      <trkpt lat="42.20234" lon="2.34519">
        <ele>1346.1</ele>
        <time>2018-11-26T11:43:12Z</time>
      </trkpt>
      <trkpt lat="42.20232" lon="2.34521">
        <ele>1346</ele>
        <time>2018-11-26T11:43:13Z</time>
      </trkpt>
      <trkpt lat="42.2023" lon="2.34524">
        <ele>1346</ele>
        <time>2018-11-26T11:43:14Z</time>
      </trkpt>
      <trkpt lat="42.20229" lon="2.34526">
        <ele>1345.8</ele>
        <time>2018-11-26T11:43:15Z</time>
      </trkpt>
      <trkpt lat="42.20228" lon="2.34528">
        <ele>1345.1</ele>
        <time>2018-11-26T11:43:16Z</time>
      </trkpt>
      <trkpt lat="42.20227" lon="2.3453">
        <ele>1344.1</ele>
        <time>2018-11-26T11:43:17Z</time>
      </trkpt>
      <trkpt lat="42.20226" lon="2.34533">
        <ele>1344</ele>
        <time>2018-11-26T11:43:17Z</time>
      </trkpt>
      <trkpt lat="42.20225" lon="2.34535">
        <ele>1344.1</ele>
        <time>2018-11-26T11:43:18Z</time>
      </trkpt>
      <trkpt lat="42.20223" lon="2.34537">
        <ele>1344.1</ele>
        <time>2018-11-26T11:43:19Z</time>
      </trkpt>
      <trkpt lat="42.20222" lon="2.3454">
        <ele>1343.8</ele>
        <time>2018-11-26T11:43:20Z</time>
      </trkpt>
      <trkpt lat="42.2022" lon="2.34542">
        <ele>1343</ele>
        <time>2018-11-26T11:43:21Z</time>
      </trkpt>
      <trkpt lat="42.2022" lon="2.34545">
        <ele>1343</ele>
        <time>2018-11-26T11:43:22Z</time>
      </trkpt>
      <trkpt lat="42.20219" lon="2.34548">
        <ele>1342.7</ele>
        <time>2018-11-26T11:43:23Z</time>
      </trkpt>
      <trkpt lat="42.20218" lon="2.3455">
        <ele>1342</ele>
        <time>2018-11-26T11:43:24Z</time>
      </trkpt>
      <trkpt lat="42.20216" lon="2.34553">
        <ele>1341.8</ele>
        <time>2018-11-26T11:43:25Z</time>
      </trkpt>
      <trkpt lat="42.20215" lon="2.34553">
        <ele>1341</ele>
        <time>2018-11-26T11:43:25Z</time>
      </trkpt>
      <trkpt lat="42.20213" lon="2.34556">
        <ele>1340</ele>
        <time>2018-11-26T11:43:26Z</time>
      </trkpt>
      <trkpt lat="42.20212" lon="2.34559">
        <ele>1339</ele>
        <time>2018-11-26T11:43:27Z</time>
      </trkpt>
      <trkpt lat="42.2021" lon="2.34561">
        <ele>1339.1</ele>
        <time>2018-11-26T11:43:28Z</time>
      </trkpt>
      <trkpt lat="42.20208" lon="2.34564">
        <ele>1339.1</ele>
        <time>2018-11-26T11:43:29Z</time>
      </trkpt>
      <trkpt lat="42.20206" lon="2.34567">
        <ele>1339</ele>
        <time>2018-11-26T11:43:30Z</time>
      </trkpt>
      <trkpt lat="42.20204" lon="2.3457">
        <ele>1339.1</ele>
        <time>2018-11-26T11:43:32Z</time>
      </trkpt>
      <trkpt lat="42.20203" lon="2.34573">
        <ele>1339</ele>
        <time>2018-11-26T11:43:33Z</time>
      </trkpt>
      <trkpt lat="42.20201" lon="2.34576">
        <ele>1339.1</ele>
        <time>2018-11-26T11:43:34Z</time>
      </trkpt>
      <trkpt lat="42.20201" lon="2.3458">
        <ele>1339.1</ele>
        <time>2018-11-26T11:43:35Z</time>
      </trkpt>
      <trkpt lat="42.202" lon="2.34582">
        <ele>1339</ele>
        <time>2018-11-26T11:43:36Z</time>
      </trkpt>
      <trkpt lat="42.20198" lon="2.34584">
        <ele>1340</ele>
        <time>2018-11-26T11:43:37Z</time>
      </trkpt>
      <trkpt lat="42.20196" lon="2.34586">
        <ele>1340.1</ele>
        <time>2018-11-26T11:43:38Z</time>
      </trkpt>
      <trkpt lat="42.20195" lon="2.34588">
        <ele>1340.1</ele>
        <time>2018-11-26T11:43:39Z</time>
      </trkpt>
      <trkpt lat="42.20192" lon="2.34591">
        <ele>1341.1</ele>
        <time>2018-11-26T11:43:40Z</time>
      </trkpt>
      <trkpt lat="42.2019" lon="2.34594">
        <ele>1340</ele>
        <time>2018-11-26T11:43:41Z</time>
      </trkpt>
      <trkpt lat="42.20189" lon="2.34596">
        <ele>1340</ele>
        <time>2018-11-26T11:43:42Z</time>
      </trkpt>
      <trkpt lat="42.20186" lon="2.34599">
        <ele>1340.1</ele>
        <time>2018-11-26T11:43:43Z</time>
      </trkpt>
      <trkpt lat="42.20184" lon="2.34603">
        <ele>1341.2</ele>
        <time>2018-11-26T11:43:45Z</time>
      </trkpt>
      <trkpt lat="42.20183" lon="2.34605">
        <ele>1342.1</ele>
        <time>2018-11-26T11:43:45Z</time>
      </trkpt>
      <trkpt lat="42.20182" lon="2.34607">
        <ele>1342</ele>
        <time>2018-11-26T11:43:46Z</time>
      </trkpt>
      <trkpt lat="42.20181" lon="2.3461">
        <ele>1342.1</ele>
        <time>2018-11-26T11:43:47Z</time>
      </trkpt>
      <trkpt lat="42.20179" lon="2.34613">
        <ele>1343</ele>
        <time>2018-11-26T11:43:48Z</time>
      </trkpt>
      <trkpt lat="42.20179" lon="2.34617">
        <ele>1344</ele>
        <time>2018-11-26T11:43:49Z</time>
      </trkpt>
      <trkpt lat="42.20179" lon="2.3462">
        <ele>1344.1</ele>
        <time>2018-11-26T11:43:50Z</time>
      </trkpt>
      <trkpt lat="42.20179" lon="2.34624">
        <ele>1344</ele>
        <time>2018-11-26T11:43:52Z</time>
      </trkpt>
      <trkpt lat="42.20179" lon="2.34628">
        <ele>1344.1</ele>
        <time>2018-11-26T11:43:53Z</time>
      </trkpt>
      <trkpt lat="42.20177" lon="2.34631">
        <ele>1344.1</ele>
        <time>2018-11-26T11:43:54Z</time>
      </trkpt>
      <trkpt lat="42.20174" lon="2.34633">
        <ele>1343.8</ele>
        <time>2018-11-26T11:43:55Z</time>
      </trkpt>
      <trkpt lat="42.20173" lon="2.34636">
        <ele>1344.3</ele>
        <time>2018-11-26T11:43:56Z</time>
      </trkpt>
      <trkpt lat="42.20171" lon="2.34637">
        <ele>1345.2</ele>
        <time>2018-11-26T11:43:57Z</time>
      </trkpt>
      <trkpt lat="42.2017" lon="2.34639">
        <ele>1346.1</ele>
        <time>2018-11-26T11:43:58Z</time>
      </trkpt>
      <trkpt lat="42.20168" lon="2.34641">
        <ele>1346.2</ele>
        <time>2018-11-26T11:43:59Z</time>
      </trkpt>
      <trkpt lat="42.20167" lon="2.34643">
        <ele>1347.2</ele>
        <time>2018-11-26T11:43:59Z</time>
      </trkpt>
      <trkpt lat="42.20167" lon="2.34646">
        <ele>1348</ele>
        <time>2018-11-26T11:44:00Z</time>
      </trkpt>
      <trkpt lat="42.20167" lon="2.34649">
        <ele>1347.1</ele>
        <time>2018-11-26T11:44:01Z</time>
      </trkpt>
      <trkpt lat="42.20166" lon="2.34651">
        <ele>1348</ele>
        <time>2018-11-26T11:44:02Z</time>
      </trkpt>
      <trkpt lat="42.20166" lon="2.34654">
        <ele>1347.2</ele>
        <time>2018-11-26T11:44:03Z</time>
      </trkpt>
      <trkpt lat="42.20165" lon="2.34657">
        <ele>1349.1</ele>
        <time>2018-11-26T11:44:03Z</time>
      </trkpt>
      <trkpt lat="42.20165" lon="2.3466">
        <ele>1349.1</ele>
        <time>2018-11-26T11:44:04Z</time>
      </trkpt>
      <trkpt lat="42.20164" lon="2.34663">
        <ele>1350.2</ele>
        <time>2018-11-26T11:44:05Z</time>
      </trkpt>
      <trkpt lat="42.20164" lon="2.34666">
        <ele>1351</ele>
        <time>2018-11-26T11:44:06Z</time>
      </trkpt>
      <trkpt lat="42.20165" lon="2.34668">
        <ele>1351.1</ele>
        <time>2018-11-26T11:44:07Z</time>
      </trkpt>
      <trkpt lat="42.20165" lon="2.34671">
        <ele>1351.2</ele>
        <time>2018-11-26T11:44:08Z</time>
      </trkpt>
      <trkpt lat="42.20165" lon="2.34674">
        <ele>1352.1</ele>
        <time>2018-11-26T11:44:09Z</time>
      </trkpt>
      <trkpt lat="42.20164" lon="2.34676">
        <ele>1353</ele>
        <time>2018-11-26T11:44:09Z</time>
      </trkpt>
      <trkpt lat="42.20164" lon="2.34679">
        <ele>1355</ele>
        <time>2018-11-26T11:44:10Z</time>
      </trkpt>
      <trkpt lat="42.20164" lon="2.34682">
        <ele>1355</ele>
        <time>2018-11-26T11:44:11Z</time>
      </trkpt>
      <trkpt lat="42.20164" lon="2.34685">
        <ele>1355.3</ele>
        <time>2018-11-26T11:44:12Z</time>
      </trkpt>
      <trkpt lat="42.20164" lon="2.34688">
        <ele>1356.1</ele>
        <time>2018-11-26T11:44:13Z</time>
      </trkpt>
      <trkpt lat="42.20164" lon="2.34691">
        <ele>1356</ele>
        <time>2018-11-26T11:44:14Z</time>
      </trkpt>
      <trkpt lat="42.20164" lon="2.34694">
        <ele>1356.1</ele>
        <time>2018-11-26T11:44:15Z</time>
      </trkpt>
      <trkpt lat="42.20164" lon="2.34696">
        <ele>1356.1</ele>
        <time>2018-11-26T11:44:15Z</time>
      </trkpt>
      <trkpt lat="42.20165" lon="2.34699">
        <ele>1356</ele>
        <time>2018-11-26T11:44:16Z</time>
      </trkpt>
      <trkpt lat="42.20165" lon="2.34703">
        <ele>1356</ele>
        <time>2018-11-26T11:44:17Z</time>
      </trkpt>
      <trkpt lat="42.20165" lon="2.34705">
        <ele>1357.1</ele>
        <time>2018-11-26T11:44:18Z</time>
      </trkpt>
      <trkpt lat="42.20164" lon="2.34708">
        <ele>1358</ele>
        <time>2018-11-26T11:44:19Z</time>
      </trkpt>
      <trkpt lat="42.20165" lon="2.34711">
        <ele>1358.1</ele>
        <time>2018-11-26T11:44:20Z</time>
      </trkpt>
      <trkpt lat="42.20166" lon="2.34713">
        <ele>1356</ele>
        <time>2018-11-26T11:44:21Z</time>
      </trkpt>
      <trkpt lat="42.20167" lon="2.34715">
        <ele>1355</ele>
        <time>2018-11-26T11:44:21Z</time>
      </trkpt>
      <trkpt lat="42.20168" lon="2.34717">
        <ele>1355</ele>
        <time>2018-11-26T11:44:22Z</time>
      </trkpt>
      <trkpt lat="42.20169" lon="2.3472">
        <ele>1355.1</ele>
        <time>2018-11-26T11:44:23Z</time>
      </trkpt>
      <trkpt lat="42.20167" lon="2.34721">
        <ele>1354</ele>
        <time>2018-11-26T11:44:24Z</time>
      </trkpt>
      <trkpt lat="42.20165" lon="2.34721">
        <ele>1354.3</ele>
        <time>2018-11-26T11:44:24Z</time>
      </trkpt>
      <trkpt lat="42.20163" lon="2.34719">
        <ele>1355</ele>
        <time>2018-11-26T11:44:25Z</time>
      </trkpt>
      <trkpt lat="42.20163" lon="2.34717">
        <ele>1354.9</ele>
        <time>2018-11-26T11:44:26Z</time>
      </trkpt>
      <trkpt lat="42.20161" lon="2.34715">
        <ele>1354</ele>
        <time>2018-11-26T11:44:27Z</time>
      </trkpt>
      <trkpt lat="42.20161" lon="2.34712">
        <ele>1353.6</ele>
        <time>2018-11-26T11:44:28Z</time>
      </trkpt>
      <trkpt lat="42.20159" lon="2.3471">
        <ele>1353</ele>
        <time>2018-11-26T11:44:28Z</time>
      </trkpt>
      <trkpt lat="42.20158" lon="2.34708">
        <ele>1352</ele>
        <time>2018-11-26T11:44:29Z</time>
      </trkpt>
      <trkpt lat="42.20157" lon="2.34705">
        <ele>1351.8</ele>
        <time>2018-11-26T11:44:30Z</time>
      </trkpt>
      <trkpt lat="42.20156" lon="2.34703">
        <ele>1351</ele>
        <time>2018-11-26T11:44:31Z</time>
      </trkpt>
      <trkpt lat="42.20157" lon="2.347">
        <ele>1351.1</ele>
        <time>2018-11-26T11:44:32Z</time>
      </trkpt>
      <trkpt lat="42.20157" lon="2.34696">
        <ele>1350.1</ele>
        <time>2018-11-26T11:44:33Z</time>
      </trkpt>
      <trkpt lat="42.20156" lon="2.34694">
        <ele>1350.1</ele>
        <time>2018-11-26T11:44:34Z</time>
      </trkpt>
      <trkpt lat="42.20155" lon="2.34691">
        <ele>1348</ele>
        <time>2018-11-26T11:44:35Z</time>
      </trkpt>
      <trkpt lat="42.20154" lon="2.34689">
        <ele>1347.1</ele>
        <time>2018-11-26T11:44:35Z</time>
      </trkpt>
      <trkpt lat="42.20154" lon="2.34686">
        <ele>1346</ele>
        <time>2018-11-26T11:44:36Z</time>
      </trkpt>
      <trkpt lat="42.20154" lon="2.34683">
        <ele>1345</ele>
        <time>2018-11-26T11:44:37Z</time>
      </trkpt>
      <trkpt lat="42.20154" lon="2.34679">
        <ele>1345.1</ele>
        <time>2018-11-26T11:44:38Z</time>
      </trkpt>
      <trkpt lat="42.20154" lon="2.34676">
        <ele>1345</ele>
        <time>2018-11-26T11:44:39Z</time>
      </trkpt>
      <trkpt lat="42.20154" lon="2.34673">
        <ele>1344.1</ele>
        <time>2018-11-26T11:44:40Z</time>
      </trkpt>
      <trkpt lat="42.20154" lon="2.34669">
        <ele>1343.8</ele>
        <time>2018-11-26T11:44:41Z</time>
      </trkpt>
      <trkpt lat="42.20155" lon="2.34667">
        <ele>1342</ele>
        <time>2018-11-26T11:44:42Z</time>
      </trkpt>
      <trkpt lat="42.20156" lon="2.34664">
        <ele>1342</ele>
        <time>2018-11-26T11:44:43Z</time>
      </trkpt>
      <trkpt lat="42.20156" lon="2.34662">
        <ele>1341.8</ele>
        <time>2018-11-26T11:44:44Z</time>
      </trkpt>
      <trkpt lat="42.20156" lon="2.34659">
        <ele>1342.7</ele>
        <time>2018-11-26T11:44:44Z</time>
      </trkpt>
      <trkpt lat="42.20158" lon="2.34658">
        <ele>1342.8</ele>
        <time>2018-11-26T11:44:45Z</time>
      </trkpt>
      <trkpt lat="42.20159" lon="2.34655">
        <ele>1343.1</ele>
        <time>2018-11-26T11:44:46Z</time>
      </trkpt>
      <trkpt lat="42.2016" lon="2.34653">
        <ele>1343.1</ele>
        <time>2018-11-26T11:44:47Z</time>
      </trkpt>
      <trkpt lat="42.2016" lon="2.3465">
        <ele>1342.8</ele>
        <time>2018-11-26T11:44:48Z</time>
      </trkpt>
      <trkpt lat="42.20161" lon="2.34648">
        <ele>1342.9</ele>
        <time>2018-11-26T11:44:48Z</time>
      </trkpt>
      <trkpt lat="42.20161" lon="2.34645">
        <ele>1340.8</ele>
        <time>2018-11-26T11:44:49Z</time>
      </trkpt>
      <trkpt lat="42.20162" lon="2.34642">
        <ele>1340.1</ele>
        <time>2018-11-26T11:44:50Z</time>
      </trkpt>
      <trkpt lat="42.20162" lon="2.3464">
        <ele>1340</ele>
        <time>2018-11-26T11:44:51Z</time>
      </trkpt>
      <trkpt lat="42.20162" lon="2.34637">
        <ele>1340</ele>
        <time>2018-11-26T11:44:52Z</time>
      </trkpt>
      <trkpt lat="42.20163" lon="2.34634">
        <ele>1340</ele>
        <time>2018-11-26T11:44:53Z</time>
      </trkpt>
      <trkpt lat="42.20164" lon="2.34631">
        <ele>1340.1</ele>
        <time>2018-11-26T11:44:54Z</time>
      </trkpt>
      <trkpt lat="42.20165" lon="2.34629">
        <ele>1340</ele>
        <time>2018-11-26T11:44:54Z</time>
      </trkpt>
      <trkpt lat="42.20165" lon="2.34626">
        <ele>1340.1</ele>
        <time>2018-11-26T11:44:55Z</time>
      </trkpt>
      <trkpt lat="42.20165" lon="2.34623">
        <ele>1339</ele>
        <time>2018-11-26T11:44:56Z</time>
      </trkpt>
      <trkpt lat="42.20165" lon="2.34621">
        <ele>1337.1</ele>
        <time>2018-11-26T11:44:57Z</time>
      </trkpt>
      <trkpt lat="42.20163" lon="2.34619">
        <ele>1336</ele>
        <time>2018-11-26T11:44:58Z</time>
      </trkpt>
      <trkpt lat="42.20163" lon="2.34621">
        <ele>1336</ele>
        <time>2018-11-26T11:44:58Z</time>
      </trkpt>
      <trkpt lat="42.20161" lon="2.34623">
        <ele>1336.1</ele>
        <time>2018-11-26T11:44:59Z</time>
      </trkpt>
      <trkpt lat="42.2016" lon="2.34625">
        <ele>1335.1</ele>
        <time>2018-11-26T11:45:00Z</time>
      </trkpt>
      <trkpt lat="42.20159" lon="2.34627">
        <ele>1335</ele>
        <time>2018-11-26T11:45:01Z</time>
      </trkpt>
      <trkpt lat="42.20157" lon="2.34628">
        <ele>1335</ele>
        <time>2018-11-26T11:45:02Z</time>
      </trkpt>
      <trkpt lat="42.20155" lon="2.34628">
        <ele>1334.8</ele>
        <time>2018-11-26T11:45:02Z</time>
      </trkpt>
      <trkpt lat="42.20154" lon="2.34626">
        <ele>1334.1</ele>
        <time>2018-11-26T11:45:03Z</time>
      </trkpt>
      <trkpt lat="42.20153" lon="2.34623">
        <ele>1333.9</ele>
        <time>2018-11-26T11:45:04Z</time>
      </trkpt>
      <trkpt lat="42.20153" lon="2.3462">
        <ele>1332.9</ele>
        <time>2018-11-26T11:45:05Z</time>
      </trkpt>
      <trkpt lat="42.20153" lon="2.34616">
        <ele>1331.8</ele>
        <time>2018-11-26T11:45:06Z</time>
      </trkpt>
      <trkpt lat="42.20152" lon="2.34614">
        <ele>1331</ele>
        <time>2018-11-26T11:45:07Z</time>
      </trkpt>
      <trkpt lat="42.20152" lon="2.34611">
        <ele>1331</ele>
        <time>2018-11-26T11:45:08Z</time>
      </trkpt>
      <trkpt lat="42.20151" lon="2.34609">
        <ele>1329</ele>
        <time>2018-11-26T11:45:08Z</time>
      </trkpt>
      <trkpt lat="42.2015" lon="2.34611">
        <ele>1328.9</ele>
        <time>2018-11-26T11:45:09Z</time>
      </trkpt>
      <trkpt lat="42.20148" lon="2.34608">
        <ele>1328.1</ele>
        <time>2018-11-26T11:45:10Z</time>
      </trkpt>
      <trkpt lat="42.2015" lon="2.34609">
        <ele>1328</ele>
        <time>2018-11-26T11:45:11Z</time>
      </trkpt>
      <trkpt lat="42.20152" lon="2.3461">
        <ele>1327</ele>
        <time>2018-11-26T11:45:12Z</time>
      </trkpt>
      <trkpt lat="42.2015" lon="2.34608">
        <ele>1325.9</ele>
        <time>2018-11-26T11:45:13Z</time>
      </trkpt>
      <trkpt lat="42.20151" lon="2.34605">
        <ele>1325.1</ele>
        <time>2018-11-26T11:45:13Z</time>
      </trkpt>
      <trkpt lat="42.20151" lon="2.34602">
        <ele>1325</ele>
        <time>2018-11-26T11:45:14Z</time>
      </trkpt>
      <trkpt lat="42.20151" lon="2.34598">
        <ele>1323.1</ele>
        <time>2018-11-26T11:45:15Z</time>
      </trkpt>
      <trkpt lat="42.2015" lon="2.34596">
        <ele>1322.1</ele>
        <time>2018-11-26T11:45:16Z</time>
      </trkpt>
      <trkpt lat="42.20148" lon="2.34596">
        <ele>1321</ele>
        <time>2018-11-26T11:45:17Z</time>
      </trkpt>
      <trkpt lat="42.20147" lon="2.34591">
        <ele>1320.1</ele>
        <time>2018-11-26T11:45:18Z</time>
      </trkpt>
      <trkpt lat="42.20146" lon="2.34588">
        <ele>1320.1</ele>
        <time>2018-11-26T11:45:19Z</time>
      </trkpt>
      <trkpt lat="42.20146" lon="2.34585">
        <ele>1319.1</ele>
        <time>2018-11-26T11:45:20Z</time>
      </trkpt>
      <trkpt lat="42.20145" lon="2.34583">
        <ele>1319.1</ele>
        <time>2018-11-26T11:45:21Z</time>
      </trkpt>
      <trkpt lat="42.20145" lon="2.3458">
        <ele>1319</ele>
        <time>2018-11-26T11:45:22Z</time>
      </trkpt>
      <trkpt lat="42.20144" lon="2.34576">
        <ele>1318</ele>
        <time>2018-11-26T11:45:23Z</time>
      </trkpt>
      <trkpt lat="42.20144" lon="2.34574">
        <ele>1318</ele>
        <time>2018-11-26T11:45:24Z</time>
      </trkpt>
      <trkpt lat="42.20145" lon="2.34571">
        <ele>1317.1</ele>
        <time>2018-11-26T11:45:25Z</time>
      </trkpt>
      <trkpt lat="42.20146" lon="2.34569">
        <ele>1316</ele>
        <time>2018-11-26T11:45:25Z</time>
      </trkpt>
      <trkpt lat="42.20147" lon="2.34566">
        <ele>1316.1</ele>
        <time>2018-11-26T11:45:26Z</time>
      </trkpt>
      <trkpt lat="42.20147" lon="2.34563">
        <ele>1314.9</ele>
        <time>2018-11-26T11:45:27Z</time>
      </trkpt>
      <trkpt lat="42.20146" lon="2.3456">
        <ele>1314</ele>
        <time>2018-11-26T11:45:28Z</time>
      </trkpt>
      <trkpt lat="42.20146" lon="2.34557">
        <ele>1313.1</ele>
        <time>2018-11-26T11:45:29Z</time>
      </trkpt>
      <trkpt lat="42.20144" lon="2.34558">
        <ele>1312</ele>
        <time>2018-11-26T11:45:30Z</time>
      </trkpt>
      <trkpt lat="42.20142" lon="2.34557">
        <ele>1310.1</ele>
        <time>2018-11-26T11:45:31Z</time>
      </trkpt>
      <trkpt lat="42.2014" lon="2.34556">
        <ele>1309.8</ele>
        <time>2018-11-26T11:45:32Z</time>
      </trkpt>
      <trkpt lat="42.20138" lon="2.34556">
        <ele>1308</ele>
        <time>2018-11-26T11:45:33Z</time>
      </trkpt>
      <trkpt lat="42.20136" lon="2.34557">
        <ele>1307</ele>
        <time>2018-11-26T11:45:33Z</time>
      </trkpt>
      <trkpt lat="42.20135" lon="2.34559">
        <ele>1307</ele>
        <time>2018-11-26T11:45:34Z</time>
      </trkpt>
      <trkpt lat="42.20133" lon="2.34561">
        <ele>1306.1</ele>
        <time>2018-11-26T11:45:35Z</time>
      </trkpt>
      <trkpt lat="42.20131" lon="2.34562">
        <ele>1306</ele>
        <time>2018-11-26T11:45:36Z</time>
      </trkpt>
      <trkpt lat="42.20129" lon="2.34563">
        <ele>1305.8</ele>
        <time>2018-11-26T11:45:37Z</time>
      </trkpt>
      <trkpt lat="42.20127" lon="2.34565">
        <ele>1304.1</ele>
        <time>2018-11-26T11:45:38Z</time>
      </trkpt>
      <trkpt lat="42.20126" lon="2.34567">
        <ele>1303.1</ele>
        <time>2018-11-26T11:45:39Z</time>
      </trkpt>
      <trkpt lat="42.20124" lon="2.34566">
        <ele>1301</ele>
        <time>2018-11-26T11:45:39Z</time>
      </trkpt>
      <trkpt lat="42.20122" lon="2.34566">
        <ele>1300.1</ele>
        <time>2018-11-26T11:45:40Z</time>
      </trkpt>
      <trkpt lat="42.2012" lon="2.34568">
        <ele>1300.1</ele>
        <time>2018-11-26T11:45:41Z</time>
      </trkpt>
      <trkpt lat="42.20119" lon="2.3457">
        <ele>1299.1</ele>
        <time>2018-11-26T11:45:42Z</time>
      </trkpt>
      <trkpt lat="42.20117" lon="2.34572">
        <ele>1299</ele>
        <time>2018-11-26T11:45:43Z</time>
      </trkpt>
      <trkpt lat="42.20115" lon="2.34574">
        <ele>1298</ele>
        <time>2018-11-26T11:45:44Z</time>
      </trkpt>
      <trkpt lat="42.20114" lon="2.34575">
        <ele>1297.9</ele>
        <time>2018-11-26T11:45:44Z</time>
      </trkpt>
      <trkpt lat="42.20112" lon="2.34576">
        <ele>1296.7</ele>
        <time>2018-11-26T11:45:45Z</time>
      </trkpt>
      <trkpt lat="42.2011" lon="2.34577">
        <ele>1295.7</ele>
        <time>2018-11-26T11:45:46Z</time>
      </trkpt>
      <trkpt lat="42.20109" lon="2.34579">
        <ele>1295.1</ele>
        <time>2018-11-26T11:45:47Z</time>
      </trkpt>
      <trkpt lat="42.20108" lon="2.34582">
        <ele>1294.1</ele>
        <time>2018-11-26T11:45:48Z</time>
      </trkpt>
      <trkpt lat="42.20107" lon="2.34584">
        <ele>1293</ele>
        <time>2018-11-26T11:45:48Z</time>
      </trkpt>
      <trkpt lat="42.20106" lon="2.34586">
        <ele>1292.1</ele>
        <time>2018-11-26T11:45:49Z</time>
      </trkpt>
      <trkpt lat="42.20104" lon="2.34586">
        <ele>1291.9</ele>
        <time>2018-11-26T11:45:50Z</time>
      </trkpt>
      <trkpt lat="42.20103" lon="2.34583">
        <ele>1291.1</ele>
        <time>2018-11-26T11:45:51Z</time>
      </trkpt>
      <trkpt lat="42.20102" lon="2.3458">
        <ele>1290.1</ele>
        <time>2018-11-26T11:45:52Z</time>
      </trkpt>
      <trkpt lat="42.20101" lon="2.34577">
        <ele>1290</ele>
        <time>2018-11-26T11:45:53Z</time>
      </trkpt>
      <trkpt lat="42.20101" lon="2.34575">
        <ele>1290</ele>
        <time>2018-11-26T11:45:54Z</time>
      </trkpt>
      <trkpt lat="42.201" lon="2.34572">
        <ele>1289</ele>
        <time>2018-11-26T11:45:55Z</time>
      </trkpt>
      <trkpt lat="42.20099" lon="2.34569">
        <ele>1288.1</ele>
        <time>2018-11-26T11:45:55Z</time>
      </trkpt>
      <trkpt lat="42.20098" lon="2.34568">
        <ele>1288.1</ele>
        <time>2018-11-26T11:45:56Z</time>
      </trkpt>
      <trkpt lat="42.20097" lon="2.34565">
        <ele>1287.1</ele>
        <time>2018-11-26T11:45:57Z</time>
      </trkpt>
      <trkpt lat="42.20096" lon="2.34563">
        <ele>1287</ele>
        <time>2018-11-26T11:45:58Z</time>
      </trkpt>
      <trkpt lat="42.20096" lon="2.3456">
        <ele>1285.1</ele>
        <time>2018-11-26T11:45:58Z</time>
      </trkpt>
      <trkpt lat="42.20094" lon="2.3456">
        <ele>1284.1</ele>
        <time>2018-11-26T11:45:59Z</time>
      </trkpt>
      <trkpt lat="42.20093" lon="2.34563">
        <ele>1282</ele>
        <time>2018-11-26T11:46:00Z</time>
      </trkpt>
      <trkpt lat="42.20091" lon="2.34562">
        <ele>1281</ele>
        <time>2018-11-26T11:46:01Z</time>
      </trkpt>
      <trkpt lat="42.20091" lon="2.34559">
        <ele>1280.1</ele>
        <time>2018-11-26T11:46:02Z</time>
      </trkpt>
      <trkpt lat="42.2009" lon="2.34557">
        <ele>1279</ele>
        <time>2018-11-26T11:46:02Z</time>
      </trkpt>
      <trkpt lat="42.2009" lon="2.34554">
        <ele>1278.8</ele>
        <time>2018-11-26T11:46:03Z</time>
      </trkpt>
      <trkpt lat="42.20088" lon="2.34554">
        <ele>1277</ele>
        <time>2018-11-26T11:46:04Z</time>
      </trkpt>
      <trkpt lat="42.20086" lon="2.34554">
        <ele>1276.9</ele>
        <time>2018-11-26T11:46:05Z</time>
      </trkpt>
      <trkpt lat="42.20085" lon="2.34553">
        <ele>1276.1</ele>
        <time>2018-11-26T11:46:06Z</time>
      </trkpt>
      <trkpt lat="42.20083" lon="2.34551">
        <ele>1275.1</ele>
        <time>2018-11-26T11:46:06Z</time>
      </trkpt>
      <trkpt lat="42.20082" lon="2.34548">
        <ele>1273.9</ele>
        <time>2018-11-26T11:46:07Z</time>
      </trkpt>
      <trkpt lat="42.2008" lon="2.34547">
        <ele>1273</ele>
        <time>2018-11-26T11:46:08Z</time>
      </trkpt>
      <trkpt lat="42.20077" lon="2.34546">
        <ele>1272</ele>
        <time>2018-11-26T11:46:09Z</time>
      </trkpt>
      <trkpt lat="42.20076" lon="2.34545">
        <ele>1272.1</ele>
        <time>2018-11-26T11:46:10Z</time>
      </trkpt>
      <trkpt lat="42.20075" lon="2.34543">
        <ele>1271.9</ele>
        <time>2018-11-26T11:46:11Z</time>
      </trkpt>
      <trkpt lat="42.20074" lon="2.3454">
        <ele>1270.9</ele>
        <time>2018-11-26T11:46:12Z</time>
      </trkpt>
      <trkpt lat="42.20074" lon="2.34538">
        <ele>1270</ele>
        <time>2018-11-26T11:46:12Z</time>
      </trkpt>
      <trkpt lat="42.20074" lon="2.34535">
        <ele>1269</ele>
        <time>2018-11-26T11:46:13Z</time>
      </trkpt>
      <trkpt lat="42.20073" lon="2.34532">
        <ele>1268</ele>
        <time>2018-11-26T11:46:14Z</time>
      </trkpt>
      <trkpt lat="42.20071" lon="2.34534">
        <ele>1268</ele>
        <time>2018-11-26T11:46:15Z</time>
      </trkpt>
      <trkpt lat="42.20069" lon="2.34534">
        <ele>1267.1</ele>
        <time>2018-11-26T11:46:16Z</time>
      </trkpt>
      <trkpt lat="42.20067" lon="2.34535">
        <ele>1267</ele>
        <time>2018-11-26T11:46:16Z</time>
      </trkpt>
      <trkpt lat="42.20065" lon="2.34536">
        <ele>1266.1</ele>
        <time>2018-11-26T11:46:17Z</time>
      </trkpt>
      <trkpt lat="42.20063" lon="2.34537">
        <ele>1265.1</ele>
        <time>2018-11-26T11:46:18Z</time>
      </trkpt>
      <trkpt lat="42.20061" lon="2.34538">
        <ele>1264.1</ele>
        <time>2018-11-26T11:46:19Z</time>
      </trkpt>
      <trkpt lat="42.20059" lon="2.34538">
        <ele>1262.1</ele>
        <time>2018-11-26T11:46:20Z</time>
      </trkpt>
      <trkpt lat="42.20057" lon="2.34538">
        <ele>1262</ele>
        <time>2018-11-26T11:46:21Z</time>
      </trkpt>
      <trkpt lat="42.20055" lon="2.34539">
        <ele>1260.1</ele>
        <time>2018-11-26T11:46:21Z</time>
      </trkpt>
      <trkpt lat="42.20055" lon="2.34536">
        <ele>1259</ele>
        <time>2018-11-26T11:46:22Z</time>
      </trkpt>
      <trkpt lat="42.20056" lon="2.34533">
        <ele>1259</ele>
        <time>2018-11-26T11:46:23Z</time>
      </trkpt>
      <trkpt lat="42.20054" lon="2.34532">
        <ele>1258</ele>
        <time>2018-11-26T11:46:24Z</time>
      </trkpt>
      <trkpt lat="42.20052" lon="2.34532">
        <ele>1256</ele>
        <time>2018-11-26T11:46:25Z</time>
      </trkpt>
      <trkpt lat="42.2005" lon="2.34531">
        <ele>1256.1</ele>
        <time>2018-11-26T11:46:26Z</time>
      </trkpt>
      <trkpt lat="42.2005" lon="2.34528">
        <ele>1255</ele>
        <time>2018-11-26T11:46:26Z</time>
      </trkpt>
      <trkpt lat="42.20048" lon="2.34526">
        <ele>1254.1</ele>
        <time>2018-11-26T11:46:27Z</time>
      </trkpt>
      <trkpt lat="42.20049" lon="2.34523">
        <ele>1253.1</ele>
        <time>2018-11-26T11:46:28Z</time>
      </trkpt>
      <trkpt lat="42.20049" lon="2.3452">
        <ele>1252.8</ele>
        <time>2018-11-26T11:46:29Z</time>
      </trkpt>
      <trkpt lat="42.20048" lon="2.34518">
        <ele>1252</ele>
        <time>2018-11-26T11:46:30Z</time>
      </trkpt>
      <trkpt lat="42.20047" lon="2.34515">
        <ele>1250.9</ele>
        <time>2018-11-26T11:46:31Z</time>
      </trkpt>
      <trkpt lat="42.20046" lon="2.34513">
        <ele>1249.9</ele>
        <time>2018-11-26T11:46:32Z</time>
      </trkpt>
      <trkpt lat="42.20045" lon="2.3451">
        <ele>1249</ele>
        <time>2018-11-26T11:46:32Z</time>
      </trkpt>
      <trkpt lat="42.20043" lon="2.34511">
        <ele>1247</ele>
        <time>2018-11-26T11:46:33Z</time>
      </trkpt>
      <trkpt lat="42.20042" lon="2.3451">
        <ele>1245.1</ele>
        <time>2018-11-26T11:46:34Z</time>
      </trkpt>
      <trkpt lat="42.2004" lon="2.3451">
        <ele>1245.1</ele>
        <time>2018-11-26T11:46:35Z</time>
      </trkpt>
      <trkpt lat="42.20038" lon="2.34509">
        <ele>1245.1</ele>
        <time>2018-11-26T11:46:35Z</time>
      </trkpt>
      <trkpt lat="42.20035" lon="2.3451">
        <ele>1244.1</ele>
        <time>2018-11-26T11:46:36Z</time>
      </trkpt>
      <trkpt lat="42.20034" lon="2.34512">
        <ele>1243.1</ele>
        <time>2018-11-26T11:46:37Z</time>
      </trkpt>
      <trkpt lat="42.20032" lon="2.34512">
        <ele>1242</ele>
        <time>2018-11-26T11:46:38Z</time>
      </trkpt>
      <trkpt lat="42.2003" lon="2.34514">
        <ele>1241.1</ele>
        <time>2018-11-26T11:46:39Z</time>
      </trkpt>
      <trkpt lat="42.20029" lon="2.34516">
        <ele>1240.1</ele>
        <time>2018-11-26T11:46:40Z</time>
      </trkpt>
      <trkpt lat="42.20029" lon="2.34514">
        <ele>1240.1</ele>
        <time>2018-11-26T11:46:40Z</time>
      </trkpt>
      <trkpt lat="42.20029" lon="2.34511">
        <ele>1239</ele>
        <time>2018-11-26T11:46:41Z</time>
      </trkpt>
      <trkpt lat="42.20029" lon="2.34508">
        <ele>1238</ele>
        <time>2018-11-26T11:46:42Z</time>
      </trkpt>
      <trkpt lat="42.2003" lon="2.34505">
        <ele>1236.8</ele>
        <time>2018-11-26T11:46:43Z</time>
      </trkpt>
      <trkpt lat="42.2003" lon="2.34503">
        <ele>1236.1</ele>
        <time>2018-11-26T11:46:44Z</time>
      </trkpt>
      <trkpt lat="42.20029" lon="2.345">
        <ele>1236</ele>
        <time>2018-11-26T11:46:45Z</time>
      </trkpt>
      <trkpt lat="42.20029" lon="2.34498">
        <ele>1235.1</ele>
        <time>2018-11-26T11:46:45Z</time>
      </trkpt>
      <trkpt lat="42.20029" lon="2.34495">
        <ele>1234.1</ele>
        <time>2018-11-26T11:46:46Z</time>
      </trkpt>
      <trkpt lat="42.20027" lon="2.34494">
        <ele>1233.1</ele>
        <time>2018-11-26T11:46:47Z</time>
      </trkpt>
      <trkpt lat="42.20025" lon="2.34495">
        <ele>1232</ele>
        <time>2018-11-26T11:46:48Z</time>
      </trkpt>
      <trkpt lat="42.20025" lon="2.34492">
        <ele>1231.1</ele>
        <time>2018-11-26T11:46:48Z</time>
      </trkpt>
      <trkpt lat="42.20026" lon="2.3449">
        <ele>1229</ele>
        <time>2018-11-26T11:46:49Z</time>
      </trkpt>
      <trkpt lat="42.20026" lon="2.34487">
        <ele>1229.1</ele>
        <time>2018-11-26T11:46:50Z</time>
      </trkpt>
      <trkpt lat="42.20027" lon="2.34483">
        <ele>1227.8</ele>
        <time>2018-11-26T11:46:51Z</time>
      </trkpt>
      <trkpt lat="42.20027" lon="2.34481">
        <ele>1227</ele>
        <time>2018-11-26T11:46:52Z</time>
      </trkpt>
      <trkpt lat="42.20026" lon="2.34478">
        <ele>1227</ele>
        <time>2018-11-26T11:46:53Z</time>
      </trkpt>
      <trkpt lat="42.20027" lon="2.34475">
        <ele>1226</ele>
        <time>2018-11-26T11:46:54Z</time>
      </trkpt>
      <trkpt lat="42.20027" lon="2.34472">
        <ele>1225.7</ele>
        <time>2018-11-26T11:46:55Z</time>
      </trkpt>
      <trkpt lat="42.20027" lon="2.34469">
        <ele>1225.1</ele>
        <time>2018-11-26T11:46:56Z</time>
      </trkpt>
      <trkpt lat="42.20025" lon="2.34467">
        <ele>1225.1</ele>
        <time>2018-11-26T11:46:57Z</time>
      </trkpt>
      <trkpt lat="42.20023" lon="2.34466">
        <ele>1223.8</ele>
        <time>2018-11-26T11:46:58Z</time>
      </trkpt>
      <trkpt lat="42.20021" lon="2.34467">
        <ele>1222.1</ele>
        <time>2018-11-26T11:46:58Z</time>
      </trkpt>
      <trkpt lat="42.2002" lon="2.34469">
        <ele>1222</ele>
        <time>2018-11-26T11:46:59Z</time>
      </trkpt>
      <trkpt lat="42.20018" lon="2.3447">
        <ele>1220.1</ele>
        <time>2018-11-26T11:47:00Z</time>
      </trkpt>
      <trkpt lat="42.20018" lon="2.34468">
        <ele>1219</ele>
        <time>2018-11-26T11:47:01Z</time>
      </trkpt>
      <trkpt lat="42.20018" lon="2.34465">
        <ele>1219.1</ele>
        <time>2018-11-26T11:47:02Z</time>
      </trkpt>
      <trkpt lat="42.20018" lon="2.34462">
        <ele>1215</ele>
        <time>2018-11-26T11:47:03Z</time>
      </trkpt>
      <trkpt lat="42.20019" lon="2.34459">
        <ele>1214</ele>
        <time>2018-11-26T11:47:04Z</time>
      </trkpt>
      <trkpt lat="42.2002" lon="2.34458">
        <ele>1213</ele>
        <time>2018-11-26T11:47:04Z</time>
      </trkpt>
      <trkpt lat="42.20021" lon="2.34455">
        <ele>1212</ele>
        <time>2018-11-26T11:47:05Z</time>
      </trkpt>
      <trkpt lat="42.20022" lon="2.34453">
        <ele>1211.1</ele>
        <time>2018-11-26T11:47:06Z</time>
      </trkpt>
      <trkpt lat="42.20023" lon="2.3445">
        <ele>1210.1</ele>
        <time>2018-11-26T11:47:07Z</time>
      </trkpt>
      <trkpt lat="42.20023" lon="2.34448">
        <ele>1209</ele>
        <time>2018-11-26T11:47:08Z</time>
      </trkpt>
      <trkpt lat="42.20024" lon="2.34445">
        <ele>1209</ele>
        <time>2018-11-26T11:47:08Z</time>
      </trkpt>
      <trkpt lat="42.20024" lon="2.34443">
        <ele>1209.1</ele>
        <time>2018-11-26T11:47:09Z</time>
      </trkpt>
      <trkpt lat="42.20024" lon="2.3444">
        <ele>1208</ele>
        <time>2018-11-26T11:47:10Z</time>
      </trkpt>
      <trkpt lat="42.20022" lon="2.34439">
        <ele>1207.1</ele>
        <time>2018-11-26T11:47:11Z</time>
      </trkpt>
      <trkpt lat="42.2002" lon="2.34437">
        <ele>1207.1</ele>
        <time>2018-11-26T11:47:12Z</time>
      </trkpt>
      <trkpt lat="42.20019" lon="2.34435">
        <ele>1206</ele>
        <time>2018-11-26T11:47:13Z</time>
      </trkpt>
      <trkpt lat="42.20018" lon="2.34432">
        <ele>1205.7</ele>
        <time>2018-11-26T11:47:14Z</time>
      </trkpt>
      <trkpt lat="42.20017" lon="2.3443">
        <ele>1204.9</ele>
        <time>2018-11-26T11:47:14Z</time>
      </trkpt>
      <trkpt lat="42.20017" lon="2.34427">
        <ele>1204</ele>
        <time>2018-11-26T11:47:15Z</time>
      </trkpt>
      <trkpt lat="42.20017" lon="2.34425">
        <ele>1202</ele>
        <time>2018-11-26T11:47:16Z</time>
      </trkpt>
      <trkpt lat="42.20017" lon="2.34422">
        <ele>1201.1</ele>
        <time>2018-11-26T11:47:17Z</time>
      </trkpt>
      <trkpt lat="42.20019" lon="2.3442">
        <ele>1200</ele>
        <time>2018-11-26T11:47:17Z</time>
      </trkpt>
      <trkpt lat="42.20019" lon="2.34417">
        <ele>1199.1</ele>
        <time>2018-11-26T11:47:18Z</time>
      </trkpt>
      <trkpt lat="42.20012" lon="2.34422">
        <ele>1198</ele>
        <time>2018-11-26T11:47:21Z</time>
      </trkpt>
      <trkpt lat="42.2001" lon="2.34422">
        <ele>1198</ele>
        <time>2018-11-26T11:47:22Z</time>
      </trkpt>
      <trkpt lat="42.20007" lon="2.34423">
        <ele>1197.9</ele>
        <time>2018-11-26T11:47:23Z</time>
      </trkpt>
      <trkpt lat="42.20006" lon="2.34424">
        <ele>1197.1</ele>
        <time>2018-11-26T11:47:24Z</time>
      </trkpt>
      <trkpt lat="42.20004" lon="2.34425">
        <ele>1197</ele>
        <time>2018-11-26T11:47:25Z</time>
      </trkpt>
      <trkpt lat="42.20002" lon="2.34428">
        <ele>1196</ele>
        <time>2018-11-26T11:47:26Z</time>
      </trkpt>
      <trkpt lat="42.19999" lon="2.34429">
        <ele>1196</ele>
        <time>2018-11-26T11:47:27Z</time>
      </trkpt>
      <trkpt lat="42.19998" lon="2.3443">
        <ele>1196.1</ele>
        <time>2018-11-26T11:47:28Z</time>
      </trkpt>
      <trkpt lat="42.19996" lon="2.34432">
        <ele>1196</ele>
        <time>2018-11-26T11:47:28Z</time>
      </trkpt>
      <trkpt lat="42.19994" lon="2.34434">
        <ele>1196</ele>
        <time>2018-11-26T11:47:29Z</time>
      </trkpt>
      <trkpt lat="42.19992" lon="2.34436">
        <ele>1195</ele>
        <time>2018-11-26T11:47:30Z</time>
      </trkpt>
      <trkpt lat="42.19991" lon="2.34437">
        <ele>1195.1</ele>
        <time>2018-11-26T11:47:31Z</time>
      </trkpt>
      <trkpt lat="42.19989" lon="2.34439">
        <ele>1194.6</ele>
        <time>2018-11-26T11:47:32Z</time>
      </trkpt>
      <trkpt lat="42.19988" lon="2.34441">
        <ele>1194.1</ele>
        <time>2018-11-26T11:47:33Z</time>
      </trkpt>
      <trkpt lat="42.19986" lon="2.34443">
        <ele>1194.1</ele>
        <time>2018-11-26T11:47:34Z</time>
      </trkpt>
      <trkpt lat="42.19984" lon="2.34445">
        <ele>1194</ele>
        <time>2018-11-26T11:47:35Z</time>
      </trkpt>
      <trkpt lat="42.19982" lon="2.34446">
        <ele>1194</ele>
        <time>2018-11-26T11:47:35Z</time>
      </trkpt>
      <trkpt lat="42.1998" lon="2.34448">
        <ele>1194</ele>
        <time>2018-11-26T11:47:36Z</time>
      </trkpt>
      <trkpt lat="42.19978" lon="2.3445">
        <ele>1194.1</ele>
        <time>2018-11-26T11:47:37Z</time>
      </trkpt>
      <trkpt lat="42.19976" lon="2.34451">
        <ele>1194.1</ele>
        <time>2018-11-26T11:47:38Z</time>
      </trkpt>
      <trkpt lat="42.19974" lon="2.34453">
        <ele>1194.1</ele>
        <time>2018-11-26T11:47:39Z</time>
      </trkpt>
      <trkpt lat="42.19972" lon="2.34455">
        <ele>1193</ele>
        <time>2018-11-26T11:47:40Z</time>
      </trkpt>
      <trkpt lat="42.1997" lon="2.34456">
        <ele>1193</ele>
        <time>2018-11-26T11:47:41Z</time>
      </trkpt>
      <trkpt lat="42.19967" lon="2.34456">
        <ele>1193</ele>
        <time>2018-11-26T11:47:42Z</time>
      </trkpt>
      <trkpt lat="42.19965" lon="2.34457">
        <ele>1193.1</ele>
        <time>2018-11-26T11:47:43Z</time>
      </trkpt>
      <trkpt lat="42.19963" lon="2.34457">
        <ele>1193.1</ele>
        <time>2018-11-26T11:47:44Z</time>
      </trkpt>
      <trkpt lat="42.19961" lon="2.34458">
        <ele>1192.8</ele>
        <time>2018-11-26T11:47:45Z</time>
      </trkpt>
      <trkpt lat="42.19958" lon="2.34459">
        <ele>1192.1</ele>
        <time>2018-11-26T11:47:46Z</time>
      </trkpt>
      <trkpt lat="42.19956" lon="2.34459">
        <ele>1192</ele>
        <time>2018-11-26T11:47:47Z</time>
      </trkpt>
      <trkpt lat="42.19953" lon="2.3446">
        <ele>1192</ele>
        <time>2018-11-26T11:47:48Z</time>
      </trkpt>
      <trkpt lat="42.19951" lon="2.34461">
        <ele>1191.1</ele>
        <time>2018-11-26T11:47:49Z</time>
      </trkpt>
      <trkpt lat="42.19949" lon="2.34462">
        <ele>1191.1</ele>
        <time>2018-11-26T11:47:50Z</time>
      </trkpt>
      <trkpt lat="42.19946" lon="2.34462">
        <ele>1190.8</ele>
        <time>2018-11-26T11:47:51Z</time>
      </trkpt>
      <trkpt lat="42.19944" lon="2.34463">
        <ele>1190</ele>
        <time>2018-11-26T11:47:52Z</time>
      </trkpt>
      <trkpt lat="42.19941" lon="2.34463">
        <ele>1190.1</ele>
        <time>2018-11-26T11:47:53Z</time>
      </trkpt>
      <trkpt lat="42.19938" lon="2.34464">
        <ele>1189.9</ele>
        <time>2018-11-26T11:47:54Z</time>
      </trkpt>
      <trkpt lat="42.19936" lon="2.34465">
        <ele>1189</ele>
        <time>2018-11-26T11:47:55Z</time>
      </trkpt>
      <trkpt lat="42.19934" lon="2.34466">
        <ele>1189.1</ele>
        <time>2018-11-26T11:47:56Z</time>
      </trkpt>
      <trkpt lat="42.19931" lon="2.34468">
        <ele>1189</ele>
        <time>2018-11-26T11:47:57Z</time>
      </trkpt>
      <trkpt lat="42.19929" lon="2.3447">
        <ele>1189.1</ele>
        <time>2018-11-26T11:47:58Z</time>
      </trkpt>
      <trkpt lat="42.19927" lon="2.34472">
        <ele>1189</ele>
        <time>2018-11-26T11:47:59Z</time>
      </trkpt>
      <trkpt lat="42.19926" lon="2.34474">
        <ele>1188</ele>
        <time>2018-11-26T11:48:00Z</time>
      </trkpt>
      <trkpt lat="42.19925" lon="2.34477">
        <ele>1187.7</ele>
        <time>2018-11-26T11:48:01Z</time>
      </trkpt>
      <trkpt lat="42.19925" lon="2.34481">
        <ele>1187</ele>
        <time>2018-11-26T11:48:02Z</time>
      </trkpt>
      <trkpt lat="42.19924" lon="2.34484">
        <ele>1187</ele>
        <time>2018-11-26T11:48:03Z</time>
      </trkpt>
      <trkpt lat="42.19923" lon="2.34488">
        <ele>1186.7</ele>
        <time>2018-11-26T11:48:04Z</time>
      </trkpt>
      <trkpt lat="42.19923" lon="2.34491">
        <ele>1186</ele>
        <time>2018-11-26T11:48:05Z</time>
      </trkpt>
      <trkpt lat="42.19924" lon="2.34494">
        <ele>1186</ele>
        <time>2018-11-26T11:48:06Z</time>
      </trkpt>
      <trkpt lat="42.19923" lon="2.34498">
        <ele>1186.1</ele>
        <time>2018-11-26T11:48:07Z</time>
      </trkpt>
      <trkpt lat="42.19924" lon="2.34502">
        <ele>1185.9</ele>
        <time>2018-11-26T11:48:08Z</time>
      </trkpt>
      <trkpt lat="42.19924" lon="2.34505">
        <ele>1184.9</ele>
        <time>2018-11-26T11:48:09Z</time>
      </trkpt>
      <trkpt lat="42.19925" lon="2.34508">
        <ele>1184.1</ele>
        <time>2018-11-26T11:48:10Z</time>
      </trkpt>
      <trkpt lat="42.19926" lon="2.34512">
        <ele>1184</ele>
        <time>2018-11-26T11:48:11Z</time>
      </trkpt>
      <trkpt lat="42.19927" lon="2.34515">
        <ele>1184</ele>
        <time>2018-11-26T11:48:12Z</time>
      </trkpt>
      <trkpt lat="42.19928" lon="2.34518">
        <ele>1183.2</ele>
        <time>2018-11-26T11:48:13Z</time>
      </trkpt>
      <trkpt lat="42.19929" lon="2.34521">
        <ele>1183.1</ele>
        <time>2018-11-26T11:48:14Z</time>
      </trkpt>
      <trkpt lat="42.19929" lon="2.34524">
        <ele>1183</ele>
        <time>2018-11-26T11:48:15Z</time>
      </trkpt>
      <trkpt lat="42.1993" lon="2.34527">
        <ele>1182.9</ele>
        <time>2018-11-26T11:48:16Z</time>
      </trkpt>
      <trkpt lat="42.1993" lon="2.3453">
        <ele>1182.1</ele>
        <time>2018-11-26T11:48:17Z</time>
      </trkpt>
      <trkpt lat="42.1993" lon="2.34533">
        <ele>1182.1</ele>
        <time>2018-11-26T11:48:18Z</time>
      </trkpt>
      <trkpt lat="42.19931" lon="2.34535">
        <ele>1182.1</ele>
        <time>2018-11-26T11:48:19Z</time>
      </trkpt>
      <trkpt lat="42.19931" lon="2.34538">
        <ele>1182.1</ele>
        <time>2018-11-26T11:48:20Z</time>
      </trkpt>
      <trkpt lat="42.19932" lon="2.34541">
        <ele>1181.1</ele>
        <time>2018-11-26T11:48:20Z</time>
      </trkpt>
      <trkpt lat="42.19932" lon="2.34543">
        <ele>1181.1</ele>
        <time>2018-11-26T11:48:21Z</time>
      </trkpt>
      <trkpt lat="42.19932" lon="2.34546">
        <ele>1180.6</ele>
        <time>2018-11-26T11:48:22Z</time>
      </trkpt>
      <trkpt lat="42.19932" lon="2.34549">
        <ele>1180</ele>
        <time>2018-11-26T11:48:23Z</time>
      </trkpt>
      <trkpt lat="42.19932" lon="2.34551">
        <ele>1180</ele>
        <time>2018-11-26T11:48:24Z</time>
      </trkpt>
      <trkpt lat="42.19932" lon="2.34554">
        <ele>1179.9</ele>
        <time>2018-11-26T11:48:24Z</time>
      </trkpt>
      <trkpt lat="42.19932" lon="2.34557">
        <ele>1178.9</ele>
        <time>2018-11-26T11:48:25Z</time>
      </trkpt>
      <trkpt lat="42.19932" lon="2.3456">
        <ele>1178</ele>
        <time>2018-11-26T11:48:26Z</time>
      </trkpt>
      <trkpt lat="42.19932" lon="2.34563">
        <ele>1178.1</ele>
        <time>2018-11-26T11:48:27Z</time>
      </trkpt>
      <trkpt lat="42.19932" lon="2.34566">
        <ele>1178.1</ele>
        <time>2018-11-26T11:48:28Z</time>
      </trkpt>
      <trkpt lat="42.19931" lon="2.34569">
        <ele>1177.8</ele>
        <time>2018-11-26T11:48:29Z</time>
      </trkpt>
      <trkpt lat="42.1993" lon="2.34572">
        <ele>1177.1</ele>
        <time>2018-11-26T11:48:30Z</time>
      </trkpt>
      <trkpt lat="42.19929" lon="2.34575">
        <ele>1177</ele>
        <time>2018-11-26T11:48:31Z</time>
      </trkpt>
      <trkpt lat="42.19929" lon="2.34578">
        <ele>1176.8</ele>
        <time>2018-11-26T11:48:32Z</time>
      </trkpt>
      <trkpt lat="42.19928" lon="2.34581">
        <ele>1176</ele>
        <time>2018-11-26T11:48:33Z</time>
      </trkpt>
      <trkpt lat="42.19927" lon="2.34584">
        <ele>1176</ele>
        <time>2018-11-26T11:48:34Z</time>
      </trkpt>
      <trkpt lat="42.19926" lon="2.34587">
        <ele>1175.9</ele>
        <time>2018-11-26T11:48:35Z</time>
      </trkpt>
      <trkpt lat="42.19925" lon="2.3459">
        <ele>1175</ele>
        <time>2018-11-26T11:48:36Z</time>
      </trkpt>
      <trkpt lat="42.19924" lon="2.34593">
        <ele>1175.1</ele>
        <time>2018-11-26T11:48:36Z</time>
      </trkpt>
      <trkpt lat="42.19923" lon="2.34595">
        <ele>1174</ele>
        <time>2018-11-26T11:48:37Z</time>
      </trkpt>
      <trkpt lat="42.19923" lon="2.34599">
        <ele>1174.1</ele>
        <time>2018-11-26T11:48:38Z</time>
      </trkpt>
      <trkpt lat="42.19922" lon="2.34602">
        <ele>1173.6</ele>
        <time>2018-11-26T11:48:39Z</time>
      </trkpt>
      <trkpt lat="42.19922" lon="2.34605">
        <ele>1173</ele>
        <time>2018-11-26T11:48:40Z</time>
      </trkpt>
      <trkpt lat="42.19922" lon="2.34608">
        <ele>1172.1</ele>
        <time>2018-11-26T11:48:41Z</time>
      </trkpt>
      <trkpt lat="42.19921" lon="2.3461">
        <ele>1172.1</ele>
        <time>2018-11-26T11:48:42Z</time>
      </trkpt>
      <trkpt lat="42.1992" lon="2.34612">
        <ele>1172</ele>
        <time>2018-11-26T11:48:43Z</time>
      </trkpt>
      <trkpt lat="42.19919" lon="2.34615">
        <ele>1172</ele>
        <time>2018-11-26T11:48:43Z</time>
      </trkpt>
      <trkpt lat="42.19919" lon="2.34617">
        <ele>1172</ele>
        <time>2018-11-26T11:48:44Z</time>
      </trkpt>
      <trkpt lat="42.19918" lon="2.3462">
        <ele>1170.8</ele>
        <time>2018-11-26T11:48:45Z</time>
      </trkpt>
      <trkpt lat="42.19918" lon="2.34622">
        <ele>1169.8</ele>
        <time>2018-11-26T11:48:46Z</time>
      </trkpt>
      <trkpt lat="42.19917" lon="2.34626">
        <ele>1169.1</ele>
        <time>2018-11-26T11:48:47Z</time>
      </trkpt>
      <trkpt lat="42.19916" lon="2.34628">
        <ele>1169.1</ele>
        <time>2018-11-26T11:48:48Z</time>
      </trkpt>
      <trkpt lat="42.19915" lon="2.3463">
        <ele>1169.1</ele>
        <time>2018-11-26T11:48:48Z</time>
      </trkpt>
      <trkpt lat="42.19914" lon="2.34632">
        <ele>1169.1</ele>
        <time>2018-11-26T11:48:49Z</time>
      </trkpt>
      <trkpt lat="42.19913" lon="2.34635">
        <ele>1169.1</ele>
        <time>2018-11-26T11:48:50Z</time>
      </trkpt>
      <trkpt lat="42.19913" lon="2.34637">
        <ele>1167.7</ele>
        <time>2018-11-26T11:48:51Z</time>
      </trkpt>
      <trkpt lat="42.19912" lon="2.3464">
        <ele>1167.1</ele>
        <time>2018-11-26T11:48:51Z</time>
      </trkpt>
      <trkpt lat="42.19911" lon="2.34642">
        <ele>1167</ele>
        <time>2018-11-26T11:48:52Z</time>
      </trkpt>
      <trkpt lat="42.1991" lon="2.34645">
        <ele>1167</ele>
        <time>2018-11-26T11:48:53Z</time>
      </trkpt>
      <trkpt lat="42.19909" lon="2.34648">
        <ele>1167</ele>
        <time>2018-11-26T11:48:54Z</time>
      </trkpt>
      <trkpt lat="42.19907" lon="2.3465">
        <ele>1167.1</ele>
        <time>2018-11-26T11:48:55Z</time>
      </trkpt>
      <trkpt lat="42.19906" lon="2.34652">
        <ele>1166.8</ele>
        <time>2018-11-26T11:48:56Z</time>
      </trkpt>
      <trkpt lat="42.19905" lon="2.34655">
        <ele>1166</ele>
        <time>2018-11-26T11:48:57Z</time>
      </trkpt>
      <trkpt lat="42.19903" lon="2.34657">
        <ele>1165.8</ele>
        <time>2018-11-26T11:48:58Z</time>
      </trkpt>
      <trkpt lat="42.19903" lon="2.3466">
        <ele>1165.1</ele>
        <time>2018-11-26T11:48:58Z</time>
      </trkpt>
      <trkpt lat="42.19902" lon="2.34662">
        <ele>1165</ele>
        <time>2018-11-26T11:48:59Z</time>
      </trkpt>
      <trkpt lat="42.19901" lon="2.34665">
        <ele>1165</ele>
        <time>2018-11-26T11:49:00Z</time>
      </trkpt>
      <trkpt lat="42.199" lon="2.34668">
        <ele>1164.9</ele>
        <time>2018-11-26T11:49:01Z</time>
      </trkpt>
      <trkpt lat="42.199" lon="2.34671">
        <ele>1164</ele>
        <time>2018-11-26T11:49:02Z</time>
      </trkpt>
      <trkpt lat="42.19899" lon="2.34674">
        <ele>1164.1</ele>
        <time>2018-11-26T11:49:03Z</time>
      </trkpt>
      <trkpt lat="42.19898" lon="2.34677">
        <ele>1164</ele>
        <time>2018-11-26T11:49:04Z</time>
      </trkpt>
      <trkpt lat="42.19895" lon="2.34679">
        <ele>1163</ele>
        <time>2018-11-26T11:49:05Z</time>
      </trkpt>
      <trkpt lat="42.19893" lon="2.34678">
        <ele>1163</ele>
        <time>2018-11-26T11:49:06Z</time>
      </trkpt>
      <trkpt lat="42.19891" lon="2.34677">
        <ele>1163.1</ele>
        <time>2018-11-26T11:49:07Z</time>
      </trkpt>
      <trkpt lat="42.1989" lon="2.34674">
        <ele>1162.1</ele>
        <time>2018-11-26T11:49:08Z</time>
      </trkpt>
      <trkpt lat="42.1989" lon="2.34671">
        <ele>1162</ele>
        <time>2018-11-26T11:49:09Z</time>
      </trkpt>
      <trkpt lat="42.19889" lon="2.34667">
        <ele>1162.1</ele>
        <time>2018-11-26T11:49:10Z</time>
      </trkpt>
      <trkpt lat="42.19888" lon="2.34664">
        <ele>1162</ele>
        <time>2018-11-26T11:49:11Z</time>
      </trkpt>
      <trkpt lat="42.19888" lon="2.34661">
        <ele>1162</ele>
        <time>2018-11-26T11:49:12Z</time>
      </trkpt>
      <trkpt lat="42.19887" lon="2.34658">
        <ele>1161.1</ele>
        <time>2018-11-26T11:49:13Z</time>
      </trkpt>
      <trkpt lat="42.19887" lon="2.34655">
        <ele>1161</ele>
        <time>2018-11-26T11:49:14Z</time>
      </trkpt>
      <trkpt lat="42.19886" lon="2.34651">
        <ele>1160.1</ele>
        <time>2018-11-26T11:49:15Z</time>
      </trkpt>
      <trkpt lat="42.19886" lon="2.34648">
        <ele>1160</ele>
        <time>2018-11-26T11:49:16Z</time>
      </trkpt>
      <trkpt lat="42.19885" lon="2.34645">
        <ele>1160</ele>
        <time>2018-11-26T11:49:17Z</time>
      </trkpt>
      <trkpt lat="42.19884" lon="2.34641">
        <ele>1160.1</ele>
        <time>2018-11-26T11:49:18Z</time>
      </trkpt>
      <trkpt lat="42.19883" lon="2.34638">
        <ele>1159.1</ele>
        <time>2018-11-26T11:49:19Z</time>
      </trkpt>
      <trkpt lat="42.19883" lon="2.34635">
        <ele>1159</ele>
        <time>2018-11-26T11:49:20Z</time>
      </trkpt>
      <trkpt lat="42.19882" lon="2.34632">
        <ele>1159.1</ele>
        <time>2018-11-26T11:49:21Z</time>
      </trkpt>
      <trkpt lat="42.19881" lon="2.34629">
        <ele>1158.9</ele>
        <time>2018-11-26T11:49:21Z</time>
      </trkpt>
      <trkpt lat="42.1988" lon="2.34626">
        <ele>1158.1</ele>
        <time>2018-11-26T11:49:22Z</time>
      </trkpt>
      <trkpt lat="42.19879" lon="2.34624">
        <ele>1158</ele>
        <time>2018-11-26T11:49:23Z</time>
      </trkpt>
      <trkpt lat="42.19878" lon="2.34622">
        <ele>1158.1</ele>
        <time>2018-11-26T11:49:24Z</time>
      </trkpt>
      <trkpt lat="42.19877" lon="2.34619">
        <ele>1158.1</ele>
        <time>2018-11-26T11:49:25Z</time>
      </trkpt>
      <trkpt lat="42.19876" lon="2.34616">
        <ele>1157.1</ele>
        <time>2018-11-26T11:49:26Z</time>
      </trkpt>
      <trkpt lat="42.19875" lon="2.34613">
        <ele>1157</ele>
        <time>2018-11-26T11:49:27Z</time>
      </trkpt>
      <trkpt lat="42.19874" lon="2.3461">
        <ele>1157</ele>
        <time>2018-11-26T11:49:28Z</time>
      </trkpt>
      <trkpt lat="42.19873" lon="2.34607">
        <ele>1156.1</ele>
        <time>2018-11-26T11:49:29Z</time>
      </trkpt>
      <trkpt lat="42.19873" lon="2.34605">
        <ele>1156.1</ele>
        <time>2018-11-26T11:49:29Z</time>
      </trkpt>
      <trkpt lat="42.19872" lon="2.34602">
        <ele>1156.1</ele>
        <time>2018-11-26T11:49:30Z</time>
      </trkpt>
      <trkpt lat="42.19871" lon="2.34599">
        <ele>1156</ele>
        <time>2018-11-26T11:49:31Z</time>
      </trkpt>
      <trkpt lat="42.1987" lon="2.34596">
        <ele>1155</ele>
        <time>2018-11-26T11:49:32Z</time>
      </trkpt>
      <trkpt lat="42.19869" lon="2.34593">
        <ele>1155</ele>
        <time>2018-11-26T11:49:33Z</time>
      </trkpt>
      <trkpt lat="42.19869" lon="2.3459">
        <ele>1155</ele>
        <time>2018-11-26T11:49:34Z</time>
      </trkpt>
      <trkpt lat="42.19868" lon="2.34587">
        <ele>1154.1</ele>
        <time>2018-11-26T11:49:35Z</time>
      </trkpt>
      <trkpt lat="42.19867" lon="2.34584">
        <ele>1153.9</ele>
        <time>2018-11-26T11:49:36Z</time>
      </trkpt>
      <trkpt lat="42.19867" lon="2.34582">
        <ele>1153.1</ele>
        <time>2018-11-26T11:49:37Z</time>
      </trkpt>
      <trkpt lat="42.19866" lon="2.34579">
        <ele>1153</ele>
        <time>2018-11-26T11:49:38Z</time>
      </trkpt>
      <trkpt lat="42.19866" lon="2.34576">
        <ele>1152.8</ele>
        <time>2018-11-26T11:49:39Z</time>
      </trkpt>
      <trkpt lat="42.19865" lon="2.34573">
        <ele>1152</ele>
        <time>2018-11-26T11:49:39Z</time>
      </trkpt>
      <trkpt lat="42.19865" lon="2.3457">
        <ele>1152</ele>
        <time>2018-11-26T11:49:40Z</time>
      </trkpt>
      <trkpt lat="42.19864" lon="2.34567">
        <ele>1152.1</ele>
        <time>2018-11-26T11:49:41Z</time>
      </trkpt>
      <trkpt lat="42.19863" lon="2.34564">
        <ele>1152</ele>
        <time>2018-11-26T11:49:42Z</time>
      </trkpt>
      <trkpt lat="42.19862" lon="2.34561">
        <ele>1151</ele>
        <time>2018-11-26T11:49:43Z</time>
      </trkpt>
      <trkpt lat="42.19862" lon="2.34557">
        <ele>1151.1</ele>
        <time>2018-11-26T11:49:44Z</time>
      </trkpt>
      <trkpt lat="42.19862" lon="2.34554">
        <ele>1151.1</ele>
        <time>2018-11-26T11:49:45Z</time>
      </trkpt>
      <trkpt lat="42.19861" lon="2.34551">
        <ele>1151</ele>
        <time>2018-11-26T11:49:46Z</time>
      </trkpt>
      <trkpt lat="42.1986" lon="2.34548">
        <ele>1150.1</ele>
        <time>2018-11-26T11:49:47Z</time>
      </trkpt>
      <trkpt lat="42.19859" lon="2.34545">
        <ele>1150.1</ele>
        <time>2018-11-26T11:49:48Z</time>
      </trkpt>
      <trkpt lat="42.19857" lon="2.34543">
        <ele>1150</ele>
        <time>2018-11-26T11:49:49Z</time>
      </trkpt>
      <trkpt lat="42.19856" lon="2.3454">
        <ele>1150</ele>
        <time>2018-11-26T11:49:50Z</time>
      </trkpt>
      <trkpt lat="42.19854" lon="2.34538">
        <ele>1150</ele>
        <time>2018-11-26T11:49:51Z</time>
      </trkpt>
      <trkpt lat="42.19851" lon="2.34535">
        <ele>1150.1</ele>
        <time>2018-11-26T11:49:52Z</time>
      </trkpt>
      <trkpt lat="42.19849" lon="2.34534">
        <ele>1149.8</ele>
        <time>2018-11-26T11:49:53Z</time>
      </trkpt>
      <trkpt lat="42.19847" lon="2.34532">
        <ele>1149</ele>
        <time>2018-11-26T11:49:54Z</time>
      </trkpt>
      <trkpt lat="42.19845" lon="2.34529">
        <ele>1149</ele>
        <time>2018-11-26T11:49:55Z</time>
      </trkpt>
      <trkpt lat="42.19844" lon="2.34527">
        <ele>1149.1</ele>
        <time>2018-11-26T11:49:56Z</time>
      </trkpt>
      <trkpt lat="42.19843" lon="2.34524">
        <ele>1149.1</ele>
        <time>2018-11-26T11:49:57Z</time>
      </trkpt>
      <trkpt lat="42.19842" lon="2.34521">
        <ele>1148.1</ele>
        <time>2018-11-26T11:49:58Z</time>
      </trkpt>
      <trkpt lat="42.19841" lon="2.34518">
        <ele>1148</ele>
        <time>2018-11-26T11:49:59Z</time>
      </trkpt>
      <trkpt lat="42.1984" lon="2.34515">
        <ele>1147.8</ele>
        <time>2018-11-26T11:50:00Z</time>
      </trkpt>
      <trkpt lat="42.19839" lon="2.34512">
        <ele>1147</ele>
        <time>2018-11-26T11:50:01Z</time>
      </trkpt>
      <trkpt lat="42.19838" lon="2.34509">
        <ele>1147</ele>
        <time>2018-11-26T11:50:02Z</time>
      </trkpt>
      <trkpt lat="42.19837" lon="2.34506">
        <ele>1147.1</ele>
        <time>2018-11-26T11:50:03Z</time>
      </trkpt>
      <trkpt lat="42.19837" lon="2.34503">
        <ele>1147.1</ele>
        <time>2018-11-26T11:50:04Z</time>
      </trkpt>
      <trkpt lat="42.19836" lon="2.34499">
        <ele>1147.1</ele>
        <time>2018-11-26T11:50:05Z</time>
      </trkpt>
      <trkpt lat="42.19836" lon="2.34496">
        <ele>1146</ele>
        <time>2018-11-26T11:50:06Z</time>
      </trkpt>
      <trkpt lat="42.19835" lon="2.34492">
        <ele>1146.1</ele>
        <time>2018-11-26T11:50:07Z</time>
      </trkpt>
      <trkpt lat="42.19834" lon="2.34489">
        <ele>1146</ele>
        <time>2018-11-26T11:50:08Z</time>
      </trkpt>
      <trkpt lat="42.19834" lon="2.34486">
        <ele>1145</ele>
        <time>2018-11-26T11:50:09Z</time>
      </trkpt>
      <trkpt lat="42.19833" lon="2.34484">
        <ele>1145.1</ele>
        <time>2018-11-26T11:50:10Z</time>
      </trkpt>
      <trkpt lat="42.19833" lon="2.34481">
        <ele>1145.1</ele>
        <time>2018-11-26T11:50:11Z</time>
      </trkpt>
      <trkpt lat="42.19833" lon="2.34478">
        <ele>1145.1</ele>
        <time>2018-11-26T11:50:11Z</time>
      </trkpt>
      <trkpt lat="42.19832" lon="2.34475">
        <ele>1144</ele>
        <time>2018-11-26T11:50:12Z</time>
      </trkpt>
      <trkpt lat="42.19832" lon="2.34472">
        <ele>1143</ele>
        <time>2018-11-26T11:50:13Z</time>
      </trkpt>
      <trkpt lat="42.19832" lon="2.34469">
        <ele>1143.1</ele>
        <time>2018-11-26T11:50:14Z</time>
      </trkpt>
      <trkpt lat="42.19832" lon="2.34466">
        <ele>1143</ele>
        <time>2018-11-26T11:50:15Z</time>
      </trkpt>
      <trkpt lat="42.19832" lon="2.34464">
        <ele>1142</ele>
        <time>2018-11-26T11:50:16Z</time>
      </trkpt>
      <trkpt lat="42.19831" lon="2.34461">
        <ele>1141.1</ele>
        <time>2018-11-26T11:50:17Z</time>
      </trkpt>
      <trkpt lat="42.19831" lon="2.34458">
        <ele>1141.1</ele>
        <time>2018-11-26T11:50:17Z</time>
      </trkpt>
      <trkpt lat="42.19831" lon="2.34455">
        <ele>1141</ele>
        <time>2018-11-26T11:50:18Z</time>
      </trkpt>
      <trkpt lat="42.19831" lon="2.34453">
        <ele>1141.1</ele>
        <time>2018-11-26T11:50:19Z</time>
      </trkpt>
      <trkpt lat="42.1983" lon="2.3445">
        <ele>1141</ele>
        <time>2018-11-26T11:50:20Z</time>
      </trkpt>
      <trkpt lat="42.19828" lon="2.34449">
        <ele>1140.9</ele>
        <time>2018-11-26T11:50:21Z</time>
      </trkpt>
      <trkpt lat="42.19825" lon="2.34449">
        <ele>1140.1</ele>
        <time>2018-11-26T11:50:22Z</time>
      </trkpt>
      <trkpt lat="42.19823" lon="2.34451">
        <ele>1140</ele>
        <time>2018-11-26T11:50:23Z</time>
      </trkpt>
      <trkpt lat="42.19821" lon="2.34453">
        <ele>1140</ele>
        <time>2018-11-26T11:50:24Z</time>
      </trkpt>
      <trkpt lat="42.1982" lon="2.34456">
        <ele>1140</ele>
        <time>2018-11-26T11:50:25Z</time>
      </trkpt>
      <trkpt lat="42.19819" lon="2.34459">
        <ele>1140.1</ele>
        <time>2018-11-26T11:50:26Z</time>
      </trkpt>
      <trkpt lat="42.19818" lon="2.34462">
        <ele>1139.1</ele>
        <time>2018-11-26T11:50:27Z</time>
      </trkpt>
      <trkpt lat="42.19818" lon="2.34466">
        <ele>1138.3</ele>
        <time>2018-11-26T11:50:28Z</time>
      </trkpt>
      <trkpt lat="42.19817" lon="2.34469">
        <ele>1139.1</ele>
        <time>2018-11-26T11:50:29Z</time>
      </trkpt>
      <trkpt lat="42.19817" lon="2.34472">
        <ele>1139</ele>
        <time>2018-11-26T11:50:30Z</time>
      </trkpt>
      <trkpt lat="42.19816" lon="2.34475">
        <ele>1138.1</ele>
        <time>2018-11-26T11:50:31Z</time>
      </trkpt>
      <trkpt lat="42.19816" lon="2.34478">
        <ele>1138.1</ele>
        <time>2018-11-26T11:50:31Z</time>
      </trkpt>
      <trkpt lat="42.19815" lon="2.34482">
        <ele>1138</ele>
        <time>2018-11-26T11:50:32Z</time>
      </trkpt>
      <trkpt lat="42.19815" lon="2.34485">
        <ele>1137.7</ele>
        <time>2018-11-26T11:50:33Z</time>
      </trkpt>
      <trkpt lat="42.19814" lon="2.34488">
        <ele>1137</ele>
        <time>2018-11-26T11:50:34Z</time>
      </trkpt>
      <trkpt lat="42.19814" lon="2.34491">
        <ele>1137</ele>
        <time>2018-11-26T11:50:35Z</time>
      </trkpt>
      <trkpt lat="42.19813" lon="2.34495">
        <ele>1137.1</ele>
        <time>2018-11-26T11:50:37Z</time>
      </trkpt>
      <trkpt lat="42.19812" lon="2.34498">
        <ele>1137</ele>
        <time>2018-11-26T11:50:37Z</time>
      </trkpt>
      <trkpt lat="42.19811" lon="2.34501">
        <ele>1136.1</ele>
        <time>2018-11-26T11:50:38Z</time>
      </trkpt>
      <trkpt lat="42.19811" lon="2.34504">
        <ele>1136.1</ele>
        <time>2018-11-26T11:50:39Z</time>
      </trkpt>
      <trkpt lat="42.1981" lon="2.34507">
        <ele>1136.1</ele>
        <time>2018-11-26T11:50:40Z</time>
      </trkpt>
      <trkpt lat="42.1981" lon="2.3451">
        <ele>1136.1</ele>
        <time>2018-11-26T11:50:41Z</time>
      </trkpt>
      <trkpt lat="42.19809" lon="2.34513">
        <ele>1136.1</ele>
        <time>2018-11-26T11:50:42Z</time>
      </trkpt>
      <trkpt lat="42.19809" lon="2.34516">
        <ele>1136.1</ele>
        <time>2018-11-26T11:50:43Z</time>
      </trkpt>
      <trkpt lat="42.19808" lon="2.3452">
        <ele>1136</ele>
        <time>2018-11-26T11:50:44Z</time>
      </trkpt>
      <trkpt lat="42.19808" lon="2.34523">
        <ele>1136</ele>
        <time>2018-11-26T11:50:45Z</time>
      </trkpt>
      <trkpt lat="42.19807" lon="2.34527">
        <ele>1135</ele>
        <time>2018-11-26T11:50:46Z</time>
      </trkpt>
      <trkpt lat="42.19806" lon="2.3453">
        <ele>1136</ele>
        <time>2018-11-26T11:50:47Z</time>
      </trkpt>
      <trkpt lat="42.19806" lon="2.34533">
        <ele>1135.8</ele>
        <time>2018-11-26T11:50:48Z</time>
      </trkpt>
      <trkpt lat="42.19805" lon="2.34537">
        <ele>1135.1</ele>
        <time>2018-11-26T11:50:49Z</time>
      </trkpt>
      <trkpt lat="42.19805" lon="2.3454">
        <ele>1135</ele>
        <time>2018-11-26T11:50:50Z</time>
      </trkpt>
      <trkpt lat="42.19805" lon="2.34543">
        <ele>1135.1</ele>
        <time>2018-11-26T11:50:51Z</time>
      </trkpt>
      <trkpt lat="42.19805" lon="2.34546">
        <ele>1135.1</ele>
        <time>2018-11-26T11:50:52Z</time>
      </trkpt>
      <trkpt lat="42.19804" lon="2.34549">
        <ele>1134.1</ele>
        <time>2018-11-26T11:50:53Z</time>
      </trkpt>
      <trkpt lat="42.19803" lon="2.34552">
        <ele>1134</ele>
        <time>2018-11-26T11:50:54Z</time>
      </trkpt>
      <trkpt lat="42.19803" lon="2.34555">
        <ele>1134.1</ele>
        <time>2018-11-26T11:50:55Z</time>
      </trkpt>
      <trkpt lat="42.19804" lon="2.34558">
        <ele>1134.1</ele>
        <time>2018-11-26T11:50:56Z</time>
      </trkpt>
      <trkpt lat="42.19803" lon="2.34561">
        <ele>1133.7</ele>
        <time>2018-11-26T11:50:57Z</time>
      </trkpt>
      <trkpt lat="42.19803" lon="2.34564">
        <ele>1133</ele>
        <time>2018-11-26T11:50:58Z</time>
      </trkpt>
      <trkpt lat="42.19802" lon="2.34566">
        <ele>1133</ele>
        <time>2018-11-26T11:50:58Z</time>
      </trkpt>
      <trkpt lat="42.198" lon="2.34569">
        <ele>1133.4</ele>
        <time>2018-11-26T11:50:59Z</time>
      </trkpt>
      <trkpt lat="42.198" lon="2.34572">
        <ele>1134</ele>
        <time>2018-11-26T11:51:00Z</time>
      </trkpt>
      <trkpt lat="42.198" lon="2.34575">
        <ele>1133.1</ele>
        <time>2018-11-26T11:51:01Z</time>
      </trkpt>
      <trkpt lat="42.19798" lon="2.34577">
        <ele>1133</ele>
        <time>2018-11-26T11:51:02Z</time>
      </trkpt>
      <trkpt lat="42.19797" lon="2.3458">
        <ele>1133</ele>
        <time>2018-11-26T11:51:03Z</time>
      </trkpt>
      <trkpt lat="42.19796" lon="2.34583">
        <ele>1133.1</ele>
        <time>2018-11-26T11:51:04Z</time>
      </trkpt>
      <trkpt lat="42.19794" lon="2.34585">
        <ele>1133</ele>
        <time>2018-11-26T11:51:05Z</time>
      </trkpt>
      <trkpt lat="42.19793" lon="2.34587">
        <ele>1132.8</ele>
        <time>2018-11-26T11:51:06Z</time>
      </trkpt>
      <trkpt lat="42.19792" lon="2.3459">
        <ele>1132</ele>
        <time>2018-11-26T11:51:07Z</time>
      </trkpt>
      <trkpt lat="42.19791" lon="2.34593">
        <ele>1132.1</ele>
        <time>2018-11-26T11:51:08Z</time>
      </trkpt>
      <trkpt lat="42.19789" lon="2.34596">
        <ele>1132</ele>
        <time>2018-11-26T11:51:09Z</time>
      </trkpt>
      <trkpt lat="42.19788" lon="2.34598">
        <ele>1132</ele>
        <time>2018-11-26T11:51:10Z</time>
      </trkpt>
      <trkpt lat="42.19787" lon="2.346">
        <ele>1131.1</ele>
        <time>2018-11-26T11:51:10Z</time>
      </trkpt>
      <trkpt lat="42.19786" lon="2.34603">
        <ele>1131</ele>
        <time>2018-11-26T11:51:11Z</time>
      </trkpt>
      <trkpt lat="42.19785" lon="2.34606">
        <ele>1131.1</ele>
        <time>2018-11-26T11:51:12Z</time>
      </trkpt>
      <trkpt lat="42.19784" lon="2.34609">
        <ele>1131.1</ele>
        <time>2018-11-26T11:51:13Z</time>
      </trkpt>
      <trkpt lat="42.19783" lon="2.34612">
        <ele>1131.1</ele>
        <time>2018-11-26T11:51:14Z</time>
      </trkpt>
      <trkpt lat="42.19783" lon="2.34614">
        <ele>1131</ele>
        <time>2018-11-26T11:51:15Z</time>
      </trkpt>
      <trkpt lat="42.19782" lon="2.34617">
        <ele>1131</ele>
        <time>2018-11-26T11:51:16Z</time>
      </trkpt>
      <trkpt lat="42.19781" lon="2.34619">
        <ele>1131</ele>
        <time>2018-11-26T11:51:16Z</time>
      </trkpt>
      <trkpt lat="42.1978" lon="2.34622">
        <ele>1131.1</ele>
        <time>2018-11-26T11:51:17Z</time>
      </trkpt>
      <trkpt lat="42.1978" lon="2.34625">
        <ele>1130.1</ele>
        <time>2018-11-26T11:51:18Z</time>
      </trkpt>
      <trkpt lat="42.19779" lon="2.34627">
        <ele>1130</ele>
        <time>2018-11-26T11:51:19Z</time>
      </trkpt>
      <trkpt lat="42.19778" lon="2.3463">
        <ele>1129.8</ele>
        <time>2018-11-26T11:51:20Z</time>
      </trkpt>
      <trkpt lat="42.19777" lon="2.34632">
        <ele>1129</ele>
        <time>2018-11-26T11:51:21Z</time>
      </trkpt>
      <trkpt lat="42.19776" lon="2.34635">
        <ele>1128.8</ele>
        <time>2018-11-26T11:51:22Z</time>
      </trkpt>
      <trkpt lat="42.19774" lon="2.34637">
        <ele>1128</ele>
        <time>2018-11-26T11:51:23Z</time>
      </trkpt>
      <trkpt lat="42.19772" lon="2.34639">
        <ele>1127.7</ele>
        <time>2018-11-26T11:51:23Z</time>
      </trkpt>
      <trkpt lat="42.19771" lon="2.34641">
        <ele>1127.1</ele>
        <time>2018-11-26T11:51:24Z</time>
      </trkpt>
      <trkpt lat="42.19769" lon="2.34642">
        <ele>1127</ele>
        <time>2018-11-26T11:51:25Z</time>
      </trkpt>
      <trkpt lat="42.19767" lon="2.34642">
        <ele>1126.9</ele>
        <time>2018-11-26T11:51:26Z</time>
      </trkpt>
      <trkpt lat="42.19765" lon="2.34641">
        <ele>1126</ele>
        <time>2018-11-26T11:51:27Z</time>
      </trkpt>
      <trkpt lat="42.19763" lon="2.3464">
        <ele>1126</ele>
        <time>2018-11-26T11:51:28Z</time>
      </trkpt>
      <trkpt lat="42.19761" lon="2.34639">
        <ele>1125.9</ele>
        <time>2018-11-26T11:51:28Z</time>
      </trkpt>
      <trkpt lat="42.19759" lon="2.34638">
        <ele>1125</ele>
        <time>2018-11-26T11:51:29Z</time>
      </trkpt>
      <trkpt lat="42.19757" lon="2.34637">
        <ele>1125</ele>
        <time>2018-11-26T11:51:30Z</time>
      </trkpt>
      <trkpt lat="42.19755" lon="2.34636">
        <ele>1125</ele>
        <time>2018-11-26T11:51:31Z</time>
      </trkpt>
      <trkpt lat="42.19752" lon="2.34635">
        <ele>1124</ele>
        <time>2018-11-26T11:51:32Z</time>
      </trkpt>
      <trkpt lat="42.19751" lon="2.34634">
        <ele>1123.9</ele>
        <time>2018-11-26T11:51:33Z</time>
      </trkpt>
      <trkpt lat="42.19749" lon="2.34632">
        <ele>1123</ele>
        <time>2018-11-26T11:51:34Z</time>
      </trkpt>
      <trkpt lat="42.19747" lon="2.3463">
        <ele>1123.1</ele>
        <time>2018-11-26T11:51:35Z</time>
      </trkpt>
      <trkpt lat="42.19745" lon="2.34628">
        <ele>1123</ele>
        <time>2018-11-26T11:51:36Z</time>
      </trkpt>
      <trkpt lat="42.19743" lon="2.34626">
        <ele>1122.1</ele>
        <time>2018-11-26T11:51:37Z</time>
      </trkpt>
      <trkpt lat="42.19741" lon="2.34624">
        <ele>1122</ele>
        <time>2018-11-26T11:51:38Z</time>
      </trkpt>
      <trkpt lat="42.1974" lon="2.34622">
        <ele>1122.1</ele>
        <time>2018-11-26T11:51:39Z</time>
      </trkpt>
      <trkpt lat="42.19739" lon="2.3462">
        <ele>1122</ele>
        <time>2018-11-26T11:51:39Z</time>
      </trkpt>
      <trkpt lat="42.19737" lon="2.34618">
        <ele>1122</ele>
        <time>2018-11-26T11:51:40Z</time>
      </trkpt>
      <trkpt lat="42.19736" lon="2.34615">
        <ele>1122</ele>
        <time>2018-11-26T11:51:41Z</time>
      </trkpt>
      <trkpt lat="42.19734" lon="2.34612">
        <ele>1122.1</ele>
        <time>2018-11-26T11:51:42Z</time>
      </trkpt>
      <trkpt lat="42.19733" lon="2.3461">
        <ele>1121</ele>
        <time>2018-11-26T11:51:43Z</time>
      </trkpt>
      <trkpt lat="42.19732" lon="2.34609">
        <ele>1121</ele>
        <time>2018-11-26T11:51:44Z</time>
      </trkpt>
      <trkpt lat="42.1973" lon="2.34607">
        <ele>1121.1</ele>
        <time>2018-11-26T11:51:45Z</time>
      </trkpt>
      <trkpt lat="42.19729" lon="2.34604">
        <ele>1120.1</ele>
        <time>2018-11-26T11:51:46Z</time>
      </trkpt>
      <trkpt lat="42.19727" lon="2.34602">
        <ele>1120</ele>
        <time>2018-11-26T11:51:46Z</time>
      </trkpt>
      <trkpt lat="42.19726" lon="2.346">
        <ele>1120.1</ele>
        <time>2018-11-26T11:51:47Z</time>
      </trkpt>
      <trkpt lat="42.19723" lon="2.34599">
        <ele>1120</ele>
        <time>2018-11-26T11:51:48Z</time>
      </trkpt>
      <trkpt lat="42.19721" lon="2.346">
        <ele>1120</ele>
        <time>2018-11-26T11:51:49Z</time>
      </trkpt>
      <trkpt lat="42.19719" lon="2.34601">
        <ele>1120</ele>
        <time>2018-11-26T11:51:50Z</time>
      </trkpt>
      <trkpt lat="42.19717" lon="2.34604">
        <ele>1120</ele>
        <time>2018-11-26T11:51:51Z</time>
      </trkpt>
      <trkpt lat="42.19715" lon="2.34604">
        <ele>1120</ele>
        <time>2018-11-26T11:51:52Z</time>
      </trkpt>
      <trkpt lat="42.19712" lon="2.34605">
        <ele>1120</ele>
        <time>2018-11-26T11:51:53Z</time>
      </trkpt>
      <trkpt lat="42.19711" lon="2.34605">
        <ele>1119</ele>
        <time>2018-11-26T11:51:54Z</time>
      </trkpt>
      <trkpt lat="42.19703" lon="2.34608">
        <ele>1126.1</ele>
        <time>2018-11-26T15:01:37Z</time>
      </trkpt>
      <trkpt lat="42.19703" lon="2.34608">
        <ele>1125.9</ele>
        <time>2018-11-26T15:01:37Z</time>
      </trkpt>
      <trkpt lat="42.19701" lon="2.34611">
        <ele>1125.2</ele>
        <time>2018-11-26T15:01:38Z</time>
      </trkpt>
      <trkpt lat="42.19699" lon="2.34611">
        <ele>1126</ele>
        <time>2018-11-26T15:01:39Z</time>
      </trkpt>
      <trkpt lat="42.19698" lon="2.34608">
        <ele>1126.1</ele>
        <time>2018-11-26T15:01:40Z</time>
      </trkpt>
      <trkpt lat="42.19697" lon="2.34605">
        <ele>1126.1</ele>
        <time>2018-11-26T15:01:41Z</time>
      </trkpt>
      <trkpt lat="42.19696" lon="2.34607">
        <ele>1126</ele>
        <time>2018-11-26T15:01:41Z</time>
      </trkpt>
      <trkpt lat="42.19694" lon="2.34608">
        <ele>1127.1</ele>
        <time>2018-11-26T15:01:42Z</time>
      </trkpt>
      <trkpt lat="42.19692" lon="2.3461">
        <ele>1127.1</ele>
        <time>2018-11-26T15:01:43Z</time>
      </trkpt>
      <trkpt lat="42.19689" lon="2.34611">
        <ele>1127</ele>
        <time>2018-11-26T15:01:44Z</time>
      </trkpt>
      <trkpt lat="42.19687" lon="2.34613">
        <ele>1128</ele>
        <time>2018-11-26T15:01:45Z</time>
      </trkpt>
      <trkpt lat="42.19685" lon="2.34614">
        <ele>1129.1</ele>
        <time>2018-11-26T15:01:46Z</time>
      </trkpt>
      <trkpt lat="42.19684" lon="2.34617">
        <ele>1129</ele>
        <time>2018-11-26T15:01:47Z</time>
      </trkpt>
      <trkpt lat="42.19683" lon="2.34619">
        <ele>1129</ele>
        <time>2018-11-26T15:01:48Z</time>
      </trkpt>
      <trkpt lat="42.1968" lon="2.3462">
        <ele>1129.1</ele>
        <time>2018-11-26T15:01:49Z</time>
      </trkpt>
      <trkpt lat="42.19678" lon="2.34621">
        <ele>1130</ele>
        <time>2018-11-26T15:01:50Z</time>
      </trkpt>
      <trkpt lat="42.19676" lon="2.34621">
        <ele>1130.1</ele>
        <time>2018-11-26T15:01:51Z</time>
      </trkpt>
      <trkpt lat="42.19673" lon="2.3462">
        <ele>1130.1</ele>
        <time>2018-11-26T15:01:52Z</time>
      </trkpt>
      <trkpt lat="42.19671" lon="2.34617">
        <ele>1131</ele>
        <time>2018-11-26T15:01:53Z</time>
      </trkpt>
      <trkpt lat="42.1967" lon="2.34614">
        <ele>1131.2</ele>
        <time>2018-11-26T15:01:54Z</time>
      </trkpt>
      <trkpt lat="42.19667" lon="2.34613">
        <ele>1131.9</ele>
        <time>2018-11-26T15:01:55Z</time>
      </trkpt>
      <trkpt lat="42.19665" lon="2.34611">
        <ele>1132.1</ele>
        <time>2018-11-26T15:01:56Z</time>
      </trkpt>
      <trkpt lat="42.19663" lon="2.3461">
        <ele>1133</ele>
        <time>2018-11-26T15:01:57Z</time>
      </trkpt>
      <trkpt lat="42.1966" lon="2.34609">
        <ele>1134</ele>
        <time>2018-11-26T15:01:58Z</time>
      </trkpt>
      <trkpt lat="42.19658" lon="2.34608">
        <ele>1134</ele>
        <time>2018-11-26T15:01:59Z</time>
      </trkpt>
      <trkpt lat="42.19656" lon="2.34606">
        <ele>1134.1</ele>
        <time>2018-11-26T15:02:00Z</time>
      </trkpt>
      <trkpt lat="42.19654" lon="2.34604">
        <ele>1135.1</ele>
        <time>2018-11-26T15:02:01Z</time>
      </trkpt>
      <trkpt lat="42.19651" lon="2.34602">
        <ele>1136</ele>
        <time>2018-11-26T15:02:02Z</time>
      </trkpt>
      <trkpt lat="42.19649" lon="2.34599">
        <ele>1136</ele>
        <time>2018-11-26T15:02:04Z</time>
      </trkpt>
      <trkpt lat="42.19646" lon="2.34598">
        <ele>1136.2</ele>
        <time>2018-11-26T15:02:05Z</time>
      </trkpt>
      <trkpt lat="42.19643" lon="2.34597">
        <ele>1137.1</ele>
        <time>2018-11-26T15:02:06Z</time>
      </trkpt>
      <trkpt lat="42.19641" lon="2.34595">
        <ele>1138.1</ele>
        <time>2018-11-26T15:02:07Z</time>
      </trkpt>
      <trkpt lat="42.19639" lon="2.34592">
        <ele>1138</ele>
        <time>2018-11-26T15:02:08Z</time>
      </trkpt>
      <trkpt lat="42.19637" lon="2.34589">
        <ele>1138</ele>
        <time>2018-11-26T15:02:10Z</time>
      </trkpt>
      <trkpt lat="42.19635" lon="2.34588">
        <ele>1138.2</ele>
        <time>2018-11-26T15:02:10Z</time>
      </trkpt>
      <trkpt lat="42.19632" lon="2.34587">
        <ele>1139</ele>
        <time>2018-11-26T15:02:11Z</time>
      </trkpt>
      <trkpt lat="42.1963" lon="2.34589">
        <ele>1139.1</ele>
        <time>2018-11-26T15:02:12Z</time>
      </trkpt>
      <trkpt lat="42.19628" lon="2.3459">
        <ele>1140</ele>
        <time>2018-11-26T15:02:13Z</time>
      </trkpt>
      <trkpt lat="42.19625" lon="2.3459">
        <ele>1140.1</ele>
        <time>2018-11-26T15:02:14Z</time>
      </trkpt>
      <trkpt lat="42.19624" lon="2.34589">
        <ele>1140.1</ele>
        <time>2018-11-26T15:02:15Z</time>
      </trkpt>
      <trkpt lat="42.19622" lon="2.34588">
        <ele>1140.1</ele>
        <time>2018-11-26T15:02:16Z</time>
      </trkpt>
      <trkpt lat="42.19619" lon="2.34587">
        <ele>1140.1</ele>
        <time>2018-11-26T15:02:17Z</time>
      </trkpt>
      <trkpt lat="42.19617" lon="2.34589">
        <ele>1142.1</ele>
        <time>2018-11-26T15:02:18Z</time>
      </trkpt>
      <trkpt lat="42.19616" lon="2.34591">
        <ele>1142</ele>
        <time>2018-11-26T15:02:19Z</time>
      </trkpt>
      <trkpt lat="42.19614" lon="2.34593">
        <ele>1143</ele>
        <time>2018-11-26T15:02:20Z</time>
      </trkpt>
      <trkpt lat="42.19612" lon="2.34592">
        <ele>1143</ele>
        <time>2018-11-26T15:02:21Z</time>
      </trkpt>
      <trkpt lat="42.1961" lon="2.3459">
        <ele>1143</ele>
        <time>2018-11-26T15:02:22Z</time>
      </trkpt>
      <trkpt lat="42.19607" lon="2.34589">
        <ele>1143</ele>
        <time>2018-11-26T15:02:22Z</time>
      </trkpt>
      <trkpt lat="42.19605" lon="2.34589">
        <ele>1143.1</ele>
        <time>2018-11-26T15:02:23Z</time>
      </trkpt>
      <trkpt lat="42.19603" lon="2.34589">
        <ele>1143</ele>
        <time>2018-11-26T15:02:24Z</time>
      </trkpt>
      <trkpt lat="42.19601" lon="2.34589">
        <ele>1142.2</ele>
        <time>2018-11-26T15:02:25Z</time>
      </trkpt>
      <trkpt lat="42.19599" lon="2.3459">
        <ele>1143</ele>
        <time>2018-11-26T15:02:26Z</time>
      </trkpt>
      <trkpt lat="42.19598" lon="2.34593">
        <ele>1144</ele>
        <time>2018-11-26T15:02:27Z</time>
      </trkpt>
      <trkpt lat="42.19598" lon="2.34597">
        <ele>1144</ele>
        <time>2018-11-26T15:02:28Z</time>
      </trkpt>
      <trkpt lat="42.19597" lon="2.346">
        <ele>1144.1</ele>
        <time>2018-11-26T15:02:29Z</time>
      </trkpt>
      <trkpt lat="42.19597" lon="2.34603">
        <ele>1144</ele>
        <time>2018-11-26T15:02:30Z</time>
      </trkpt>
      <trkpt lat="42.19597" lon="2.34607">
        <ele>1144.1</ele>
        <time>2018-11-26T15:02:31Z</time>
      </trkpt>
      <trkpt lat="42.19597" lon="2.34611">
        <ele>1144</ele>
        <time>2018-11-26T15:02:32Z</time>
      </trkpt>
      <trkpt lat="42.19597" lon="2.34614">
        <ele>1144</ele>
        <time>2018-11-26T15:02:33Z</time>
      </trkpt>
      <trkpt lat="42.19598" lon="2.34617">
        <ele>1144.2</ele>
        <time>2018-11-26T15:02:34Z</time>
      </trkpt>
      <trkpt lat="42.19599" lon="2.34619">
        <ele>1146.1</ele>
        <time>2018-11-26T15:02:35Z</time>
      </trkpt>
      <trkpt lat="42.196" lon="2.34621">
        <ele>1147.4</ele>
        <time>2018-11-26T15:02:36Z</time>
      </trkpt>
      <trkpt lat="42.19601" lon="2.34624">
        <ele>1148</ele>
        <time>2018-11-26T15:02:37Z</time>
      </trkpt>
      <trkpt lat="42.19601" lon="2.34627">
        <ele>1148.1</ele>
        <time>2018-11-26T15:02:37Z</time>
      </trkpt>
      <trkpt lat="42.19602" lon="2.3463">
        <ele>1147.1</ele>
        <time>2018-11-26T15:02:38Z</time>
      </trkpt>
      <trkpt lat="42.19603" lon="2.34633">
        <ele>1149</ele>
        <time>2018-11-26T15:02:39Z</time>
      </trkpt>
      <trkpt lat="42.19604" lon="2.34635">
        <ele>1149.1</ele>
        <time>2018-11-26T15:02:40Z</time>
      </trkpt>
      <trkpt lat="42.19606" lon="2.34639">
        <ele>1149.2</ele>
        <time>2018-11-26T15:02:41Z</time>
      </trkpt>
      <trkpt lat="42.19605" lon="2.34642">
        <ele>1151.1</ele>
        <time>2018-11-26T15:02:42Z</time>
      </trkpt>
      <trkpt lat="42.19605" lon="2.34645">
        <ele>1151</ele>
        <time>2018-11-26T15:02:43Z</time>
      </trkpt>
      <trkpt lat="42.19605" lon="2.34649">
        <ele>1151</ele>
        <time>2018-11-26T15:02:44Z</time>
      </trkpt>
      <trkpt lat="42.19604" lon="2.34652">
        <ele>1151</ele>
        <time>2018-11-26T15:02:46Z</time>
      </trkpt>
      <trkpt lat="42.19603" lon="2.34655">
        <ele>1151.1</ele>
        <time>2018-11-26T15:02:47Z</time>
      </trkpt>
      <trkpt lat="42.19602" lon="2.34659">
        <ele>1151.1</ele>
        <time>2018-11-26T15:02:48Z</time>
      </trkpt>
      <trkpt lat="42.19602" lon="2.34662">
        <ele>1151.1</ele>
        <time>2018-11-26T15:02:49Z</time>
      </trkpt>
      <trkpt lat="42.19601" lon="2.34666">
        <ele>1151.1</ele>
        <time>2018-11-26T15:02:50Z</time>
      </trkpt>
      <trkpt lat="42.196" lon="2.3467">
        <ele>1151</ele>
        <time>2018-11-26T15:02:51Z</time>
      </trkpt>
      <trkpt lat="42.196" lon="2.34673">
        <ele>1152.1</ele>
        <time>2018-11-26T15:02:52Z</time>
      </trkpt>
      <trkpt lat="42.19599" lon="2.34677">
        <ele>1153.3</ele>
        <time>2018-11-26T15:02:53Z</time>
      </trkpt>
      <trkpt lat="42.19598" lon="2.34681">
        <ele>1154.1</ele>
        <time>2018-11-26T15:02:54Z</time>
      </trkpt>
      <trkpt lat="42.19598" lon="2.34685">
        <ele>1154.1</ele>
        <time>2018-11-26T15:02:56Z</time>
      </trkpt>
      <trkpt lat="42.19598" lon="2.34689">
        <ele>1154</ele>
        <time>2018-11-26T15:02:57Z</time>
      </trkpt>
      <trkpt lat="42.19596" lon="2.34693">
        <ele>1154</ele>
        <time>2018-11-26T15:02:58Z</time>
      </trkpt>
      <trkpt lat="42.19596" lon="2.34696">
        <ele>1154</ele>
        <time>2018-11-26T15:02:59Z</time>
      </trkpt>
      <trkpt lat="42.19594" lon="2.34699">
        <ele>1155.1</ele>
        <time>2018-11-26T15:03:00Z</time>
      </trkpt>
      <trkpt lat="42.19591" lon="2.347">
        <ele>1155.1</ele>
        <time>2018-11-26T15:03:01Z</time>
      </trkpt>
      <trkpt lat="42.19588" lon="2.34701">
        <ele>1155.1</ele>
        <time>2018-11-26T15:03:02Z</time>
      </trkpt>
      <trkpt lat="42.19586" lon="2.34701">
        <ele>1155.2</ele>
        <time>2018-11-26T15:03:03Z</time>
      </trkpt>
      <trkpt lat="42.19584" lon="2.347">
        <ele>1156.1</ele>
        <time>2018-11-26T15:03:04Z</time>
      </trkpt>
      <trkpt lat="42.19581" lon="2.34699">
        <ele>1156.1</ele>
        <time>2018-11-26T15:03:05Z</time>
      </trkpt>
      <trkpt lat="42.19578" lon="2.34698">
        <ele>1156.1</ele>
        <time>2018-11-26T15:03:07Z</time>
      </trkpt>
      <trkpt lat="42.19576" lon="2.34697">
        <ele>1157.1</ele>
        <time>2018-11-26T15:03:08Z</time>
      </trkpt>
      <trkpt lat="42.19573" lon="2.34695">
        <ele>1157</ele>
        <time>2018-11-26T15:03:09Z</time>
      </trkpt>
      <trkpt lat="42.19571" lon="2.34693">
        <ele>1158</ele>
        <time>2018-11-26T15:03:10Z</time>
      </trkpt>
      <trkpt lat="42.19568" lon="2.34691">
        <ele>1158</ele>
        <time>2018-11-26T15:03:11Z</time>
      </trkpt>
      <trkpt lat="42.19566" lon="2.34688">
        <ele>1158.2</ele>
        <time>2018-11-26T15:03:13Z</time>
      </trkpt>
      <trkpt lat="42.19563" lon="2.34686">
        <ele>1159</ele>
        <time>2018-11-26T15:03:14Z</time>
      </trkpt>
      <trkpt lat="42.19561" lon="2.34683">
        <ele>1159.3</ele>
        <time>2018-11-26T15:03:15Z</time>
      </trkpt>
      <trkpt lat="42.1956" lon="2.3468">
        <ele>1160</ele>
        <time>2018-11-26T15:03:16Z</time>
      </trkpt>
      <trkpt lat="42.19557" lon="2.34678">
        <ele>1160.1</ele>
        <time>2018-11-26T15:03:17Z</time>
      </trkpt>
      <trkpt lat="42.19555" lon="2.34677">
        <ele>1161.1</ele>
        <time>2018-11-26T15:03:18Z</time>
      </trkpt>
      <trkpt lat="42.19554" lon="2.34675">
        <ele>1161.1</ele>
        <time>2018-11-26T15:03:19Z</time>
      </trkpt>
      <trkpt lat="42.19552" lon="2.34672">
        <ele>1162</ele>
        <time>2018-11-26T15:03:20Z</time>
      </trkpt>
      <trkpt lat="42.19551" lon="2.34669">
        <ele>1162.1</ele>
        <time>2018-11-26T15:03:21Z</time>
      </trkpt>
      <trkpt lat="42.19549" lon="2.34667">
        <ele>1162.1</ele>
        <time>2018-11-26T15:03:22Z</time>
      </trkpt>
      <trkpt lat="42.19548" lon="2.34664">
        <ele>1162</ele>
        <time>2018-11-26T15:03:23Z</time>
      </trkpt>
      <trkpt lat="42.19547" lon="2.34661">
        <ele>1165</ele>
        <time>2018-11-26T15:03:24Z</time>
      </trkpt>
      <trkpt lat="42.19545" lon="2.34658">
        <ele>1165.1</ele>
        <time>2018-11-26T15:03:25Z</time>
      </trkpt>
      <trkpt lat="42.19542" lon="2.34656">
        <ele>1166</ele>
        <time>2018-11-26T15:03:26Z</time>
      </trkpt>
      <trkpt lat="42.1954" lon="2.34654">
        <ele>1166</ele>
        <time>2018-11-26T15:03:27Z</time>
      </trkpt>
      <trkpt lat="42.19538" lon="2.34651">
        <ele>1167</ele>
        <time>2018-11-26T15:03:29Z</time>
      </trkpt>
      <trkpt lat="42.19535" lon="2.34652">
        <ele>1168.1</ele>
        <time>2018-11-26T15:03:30Z</time>
      </trkpt>
      <trkpt lat="42.19533" lon="2.34655">
        <ele>1169</ele>
        <time>2018-11-26T15:03:31Z</time>
      </trkpt>
      <trkpt lat="42.19532" lon="2.34658">
        <ele>1169.1</ele>
        <time>2018-11-26T15:03:32Z</time>
      </trkpt>
      <trkpt lat="42.19531" lon="2.34661">
        <ele>1169</ele>
        <time>2018-11-26T15:03:33Z</time>
      </trkpt>
      <trkpt lat="42.1953" lon="2.34665">
        <ele>1169.1</ele>
        <time>2018-11-26T15:03:34Z</time>
      </trkpt>
      <trkpt lat="42.1953" lon="2.34668">
        <ele>1169.4</ele>
        <time>2018-11-26T15:03:35Z</time>
      </trkpt>
      <trkpt lat="42.1953" lon="2.34671">
        <ele>1171</ele>
        <time>2018-11-26T15:03:36Z</time>
      </trkpt>
      <trkpt lat="42.1953" lon="2.34675">
        <ele>1171</ele>
        <time>2018-11-26T15:03:37Z</time>
      </trkpt>
      <trkpt lat="42.1953" lon="2.34677">
        <ele>1171</ele>
        <time>2018-11-26T15:03:38Z</time>
      </trkpt>
      <trkpt lat="42.19531" lon="2.34682">
        <ele>1172</ele>
        <time>2018-11-26T15:03:39Z</time>
      </trkpt>
      <trkpt lat="42.1953" lon="2.34686">
        <ele>1172</ele>
        <time>2018-11-26T15:03:40Z</time>
      </trkpt>
      <trkpt lat="42.19532" lon="2.3469">
        <ele>1172.1</ele>
        <time>2018-11-26T15:03:42Z</time>
      </trkpt>
      <trkpt lat="42.19532" lon="2.34693">
        <ele>1173</ele>
        <time>2018-11-26T15:03:43Z</time>
      </trkpt>
      <trkpt lat="42.19532" lon="2.34696">
        <ele>1173.3</ele>
        <time>2018-11-26T15:03:44Z</time>
      </trkpt>
      <trkpt lat="42.19531" lon="2.34699">
        <ele>1174.1</ele>
        <time>2018-11-26T15:03:45Z</time>
      </trkpt>
      <trkpt lat="42.19531" lon="2.34703">
        <ele>1176</ele>
        <time>2018-11-26T15:03:46Z</time>
      </trkpt>
      <trkpt lat="42.1953" lon="2.34705">
        <ele>1176.1</ele>
        <time>2018-11-26T15:03:46Z</time>
      </trkpt>
      <trkpt lat="42.19529" lon="2.34709">
        <ele>1176</ele>
        <time>2018-11-26T15:03:48Z</time>
      </trkpt>
      <trkpt lat="42.19529" lon="2.34712">
        <ele>1176</ele>
        <time>2018-11-26T15:03:49Z</time>
      </trkpt>
      <trkpt lat="42.1953" lon="2.34715">
        <ele>1176.1</ele>
        <time>2018-11-26T15:03:49Z</time>
      </trkpt>
      <trkpt lat="42.1953" lon="2.34718">
        <ele>1177.1</ele>
        <time>2018-11-26T15:03:50Z</time>
      </trkpt>
      <trkpt lat="42.1953" lon="2.34721">
        <ele>1178.1</ele>
        <time>2018-11-26T15:03:51Z</time>
      </trkpt>
      <trkpt lat="42.1953" lon="2.34725">
        <ele>1179.1</ele>
        <time>2018-11-26T15:03:52Z</time>
      </trkpt>
      <trkpt lat="42.19529" lon="2.34728">
        <ele>1179</ele>
        <time>2018-11-26T15:03:54Z</time>
      </trkpt>
      <trkpt lat="42.19528" lon="2.34732">
        <ele>1179</ele>
        <time>2018-11-26T15:03:55Z</time>
      </trkpt>
      <trkpt lat="42.19527" lon="2.34735">
        <ele>1180.1</ele>
        <time>2018-11-26T15:03:56Z</time>
      </trkpt>
      <trkpt lat="42.19526" lon="2.34738">
        <ele>1181.1</ele>
        <time>2018-11-26T15:03:57Z</time>
      </trkpt>
      <trkpt lat="42.19524" lon="2.34742">
        <ele>1181</ele>
        <time>2018-11-26T15:03:58Z</time>
      </trkpt>
      <trkpt lat="42.19524" lon="2.34744">
        <ele>1181.1</ele>
        <time>2018-11-26T15:03:59Z</time>
      </trkpt>
      <trkpt lat="42.19524" lon="2.34748">
        <ele>1182</ele>
        <time>2018-11-26T15:04:00Z</time>
      </trkpt>
      <trkpt lat="42.19523" lon="2.34752">
        <ele>1181</ele>
        <time>2018-11-26T15:04:01Z</time>
      </trkpt>
      <trkpt lat="42.19522" lon="2.34757">
        <ele>1181.1</ele>
        <time>2018-11-26T15:04:03Z</time>
      </trkpt>
      <trkpt lat="42.19521" lon="2.34759">
        <ele>1182.2</ele>
        <time>2018-11-26T15:04:03Z</time>
      </trkpt>
      <trkpt lat="42.1952" lon="2.34762">
        <ele>1183</ele>
        <time>2018-11-26T15:04:04Z</time>
      </trkpt>
      <trkpt lat="42.19517" lon="2.34772">
        <ele>1184.1</ele>
        <time>2018-11-26T15:04:07Z</time>
      </trkpt>
      <trkpt lat="42.19517" lon="2.34776">
        <ele>1184</ele>
        <time>2018-11-26T15:04:09Z</time>
      </trkpt>
      <trkpt lat="42.19516" lon="2.34779">
        <ele>1184.2</ele>
        <time>2018-11-26T15:04:10Z</time>
      </trkpt>
      <trkpt lat="42.19515" lon="2.34783">
        <ele>1186</ele>
        <time>2018-11-26T15:04:11Z</time>
      </trkpt>
      <trkpt lat="42.19516" lon="2.34786">
        <ele>1186.1</ele>
        <time>2018-11-26T15:04:12Z</time>
      </trkpt>
      <trkpt lat="42.19516" lon="2.3479">
        <ele>1186</ele>
        <time>2018-11-26T15:04:13Z</time>
      </trkpt>
      <trkpt lat="42.19515" lon="2.34794">
        <ele>1186.1</ele>
        <time>2018-11-26T15:04:14Z</time>
      </trkpt>
      <trkpt lat="42.19515" lon="2.34798">
        <ele>1186.2</ele>
        <time>2018-11-26T15:04:15Z</time>
      </trkpt>
      <trkpt lat="42.19516" lon="2.34802">
        <ele>1187</ele>
        <time>2018-11-26T15:04:16Z</time>
      </trkpt>
      <trkpt lat="42.19516" lon="2.34805">
        <ele>1187.1</ele>
        <time>2018-11-26T15:04:17Z</time>
      </trkpt>
      <trkpt lat="42.19516" lon="2.34809">
        <ele>1188</ele>
        <time>2018-11-26T15:04:19Z</time>
      </trkpt>
      <trkpt lat="42.19516" lon="2.34812">
        <ele>1188.3</ele>
        <time>2018-11-26T15:04:20Z</time>
      </trkpt>
      <trkpt lat="42.19516" lon="2.34816">
        <ele>1189.1</ele>
        <time>2018-11-26T15:04:21Z</time>
      </trkpt>
      <trkpt lat="42.19516" lon="2.34819">
        <ele>1189</ele>
        <time>2018-11-26T15:04:22Z</time>
      </trkpt>
      <trkpt lat="42.19517" lon="2.34822">
        <ele>1190.1</ele>
        <time>2018-11-26T15:04:22Z</time>
      </trkpt>
      <trkpt lat="42.19516" lon="2.34825">
        <ele>1190</ele>
        <time>2018-11-26T15:04:23Z</time>
      </trkpt>
      <trkpt lat="42.19515" lon="2.34829">
        <ele>1190.1</ele>
        <time>2018-11-26T15:04:25Z</time>
      </trkpt>
      <trkpt lat="42.19514" lon="2.34833">
        <ele>1189.1</ele>
        <time>2018-11-26T15:04:26Z</time>
      </trkpt>
      <trkpt lat="42.19514" lon="2.34837">
        <ele>1190.2</ele>
        <time>2018-11-26T15:04:27Z</time>
      </trkpt>
      <trkpt lat="42.19513" lon="2.3484">
        <ele>1191.1</ele>
        <time>2018-11-26T15:04:28Z</time>
      </trkpt>
      <trkpt lat="42.19512" lon="2.34844">
        <ele>1191</ele>
        <time>2018-11-26T15:04:29Z</time>
      </trkpt>
      <trkpt lat="42.19512" lon="2.34848">
        <ele>1192</ele>
        <time>2018-11-26T15:04:30Z</time>
      </trkpt>
      <trkpt lat="42.19512" lon="2.34852">
        <ele>1193</ele>
        <time>2018-11-26T15:04:32Z</time>
      </trkpt>
      <trkpt lat="42.19511" lon="2.34855">
        <ele>1193.1</ele>
        <time>2018-11-26T15:04:33Z</time>
      </trkpt>
      <trkpt lat="42.1951" lon="2.34859">
        <ele>1193.2</ele>
        <time>2018-11-26T15:04:34Z</time>
      </trkpt>
      <trkpt lat="42.19509" lon="2.34863">
        <ele>1194.1</ele>
        <time>2018-11-26T15:04:35Z</time>
      </trkpt>
      <trkpt lat="42.19508" lon="2.34867">
        <ele>1194.1</ele>
        <time>2018-11-26T15:04:36Z</time>
      </trkpt>
      <trkpt lat="42.19507" lon="2.34871">
        <ele>1194.1</ele>
        <time>2018-11-26T15:04:37Z</time>
      </trkpt>
      <trkpt lat="42.19506" lon="2.34875">
        <ele>1195.1</ele>
        <time>2018-11-26T15:04:39Z</time>
      </trkpt>
      <trkpt lat="42.19505" lon="2.34878">
        <ele>1195.1</ele>
        <time>2018-11-26T15:04:40Z</time>
      </trkpt>
      <trkpt lat="42.19505" lon="2.34881">
        <ele>1196.1</ele>
        <time>2018-11-26T15:04:41Z</time>
      </trkpt>
      <trkpt lat="42.19505" lon="2.34883">
        <ele>1196</ele>
        <time>2018-11-26T15:04:41Z</time>
      </trkpt>
      <trkpt lat="42.19506" lon="2.34887">
        <ele>1197</ele>
        <time>2018-11-26T15:04:42Z</time>
      </trkpt>
      <trkpt lat="42.19506" lon="2.3489">
        <ele>1197</ele>
        <time>2018-11-26T15:04:43Z</time>
      </trkpt>
      <trkpt lat="42.19506" lon="2.34893">
        <ele>1197</ele>
        <time>2018-11-26T15:04:44Z</time>
      </trkpt>
      <trkpt lat="42.19504" lon="2.34898">
        <ele>1197.1</ele>
        <time>2018-11-26T15:04:46Z</time>
      </trkpt>
      <trkpt lat="42.19503" lon="2.34902">
        <ele>1197</ele>
        <time>2018-11-26T15:04:47Z</time>
      </trkpt>
      <trkpt lat="42.19503" lon="2.34905">
        <ele>1197.1</ele>
        <time>2018-11-26T15:04:48Z</time>
      </trkpt>
      <trkpt lat="42.19502" lon="2.34909">
        <ele>1197</ele>
        <time>2018-11-26T15:04:49Z</time>
      </trkpt>
      <trkpt lat="42.19502" lon="2.34912">
        <ele>1197</ele>
        <time>2018-11-26T15:04:50Z</time>
      </trkpt>
      <trkpt lat="42.19502" lon="2.34916">
        <ele>1197.1</ele>
        <time>2018-11-26T15:04:51Z</time>
      </trkpt>
      <trkpt lat="42.19501" lon="2.34919">
        <ele>1198.3</ele>
        <time>2018-11-26T15:04:52Z</time>
      </trkpt>
      <trkpt lat="42.19499" lon="2.34923">
        <ele>1199.1</ele>
        <time>2018-11-26T15:04:54Z</time>
      </trkpt>
      <trkpt lat="42.19498" lon="2.34927">
        <ele>1199.1</ele>
        <time>2018-11-26T15:04:55Z</time>
      </trkpt>
      <trkpt lat="42.19498" lon="2.34931">
        <ele>1200</ele>
        <time>2018-11-26T15:04:56Z</time>
      </trkpt>
      <trkpt lat="42.19498" lon="2.34933">
        <ele>1200.2</ele>
        <time>2018-11-26T15:04:57Z</time>
      </trkpt>
      <trkpt lat="42.19497" lon="2.34937">
        <ele>1201.1</ele>
        <time>2018-11-26T15:04:58Z</time>
      </trkpt>
      <trkpt lat="42.19497" lon="2.34941">
        <ele>1202.1</ele>
        <time>2018-11-26T15:04:59Z</time>
      </trkpt>
      <trkpt lat="42.19497" lon="2.34945">
        <ele>1202.1</ele>
        <time>2018-11-26T15:05:00Z</time>
      </trkpt>
      <trkpt lat="42.19497" lon="2.34948">
        <ele>1202</ele>
        <time>2018-11-26T15:05:01Z</time>
      </trkpt>
      <trkpt lat="42.19496" lon="2.34952">
        <ele>1202.1</ele>
        <time>2018-11-26T15:05:02Z</time>
      </trkpt>
      <trkpt lat="42.19496" lon="2.34955">
        <ele>1204.1</ele>
        <time>2018-11-26T15:05:04Z</time>
      </trkpt>
      <trkpt lat="42.19495" lon="2.34958">
        <ele>1204.3</ele>
        <time>2018-11-26T15:05:04Z</time>
      </trkpt>
      <trkpt lat="42.19495" lon="2.34961">
        <ele>1205</ele>
        <time>2018-11-26T15:05:05Z</time>
      </trkpt>
      <trkpt lat="42.19495" lon="2.34965">
        <ele>1206</ele>
        <time>2018-11-26T15:05:06Z</time>
      </trkpt>
      <trkpt lat="42.19496" lon="2.34968">
        <ele>1206</ele>
        <time>2018-11-26T15:05:07Z</time>
      </trkpt>
      <trkpt lat="42.19496" lon="2.34972">
        <ele>1206</ele>
        <time>2018-11-26T15:05:09Z</time>
      </trkpt>
      <trkpt lat="42.19496" lon="2.34976">
        <ele>1206</ele>
        <time>2018-11-26T15:05:10Z</time>
      </trkpt>
      <trkpt lat="42.19495" lon="2.34973">
        <ele>1206.1</ele>
        <time>2018-11-26T15:05:11Z</time>
      </trkpt>
      <trkpt lat="42.19494" lon="2.34969">
        <ele>1207.3</ele>
        <time>2018-11-26T15:05:12Z</time>
      </trkpt>
      <trkpt lat="42.19494" lon="2.34967">
        <ele>1208.1</ele>
        <time>2018-11-26T15:05:13Z</time>
      </trkpt>
      <trkpt lat="42.19492" lon="2.34964">
        <ele>1209</ele>
        <time>2018-11-26T15:05:14Z</time>
      </trkpt>
      <trkpt lat="42.19492" lon="2.34961">
        <ele>1209.2</ele>
        <time>2018-11-26T15:05:15Z</time>
      </trkpt>
      <trkpt lat="42.19491" lon="2.34957">
        <ele>1211.1</ele>
        <time>2018-11-26T15:05:16Z</time>
      </trkpt>
      <trkpt lat="42.19491" lon="2.34953">
        <ele>1211</ele>
        <time>2018-11-26T15:05:17Z</time>
      </trkpt>
      <trkpt lat="42.1949" lon="2.34949">
        <ele>1211.1</ele>
        <time>2018-11-26T15:05:18Z</time>
      </trkpt>
      <trkpt lat="42.19489" lon="2.34946">
        <ele>1211</ele>
        <time>2018-11-26T15:05:19Z</time>
      </trkpt>
      <trkpt lat="42.19489" lon="2.34943">
        <ele>1211.1</ele>
        <time>2018-11-26T15:05:20Z</time>
      </trkpt>
      <trkpt lat="42.19489" lon="2.3494">
        <ele>1212</ele>
        <time>2018-11-26T15:05:21Z</time>
      </trkpt>
      <trkpt lat="42.19488" lon="2.34936">
        <ele>1212</ele>
        <time>2018-11-26T15:05:22Z</time>
      </trkpt>
      <trkpt lat="42.19487" lon="2.34933">
        <ele>1212</ele>
        <time>2018-11-26T15:05:23Z</time>
      </trkpt>
      <trkpt lat="42.19486" lon="2.3493">
        <ele>1212</ele>
        <time>2018-11-26T15:05:24Z</time>
      </trkpt>
      <trkpt lat="42.19485" lon="2.34926">
        <ele>1212.1</ele>
        <time>2018-11-26T15:05:25Z</time>
      </trkpt>
      <trkpt lat="42.19484" lon="2.34923">
        <ele>1212.8</ele>
        <time>2018-11-26T15:05:26Z</time>
      </trkpt>
      <trkpt lat="42.19483" lon="2.3492">
        <ele>1212.1</ele>
        <time>2018-11-26T15:05:28Z</time>
      </trkpt>
      <trkpt lat="42.19482" lon="2.34917">
        <ele>1213.2</ele>
        <time>2018-11-26T15:05:28Z</time>
      </trkpt>
      <trkpt lat="42.1948" lon="2.34915">
        <ele>1214.1</ele>
        <time>2018-11-26T15:05:29Z</time>
      </trkpt>
      <trkpt lat="42.19478" lon="2.34912">
        <ele>1213.1</ele>
        <time>2018-11-26T15:05:30Z</time>
      </trkpt>
      <trkpt lat="42.19478" lon="2.34908">
        <ele>1214.1</ele>
        <time>2018-11-26T15:05:32Z</time>
      </trkpt>
      <trkpt lat="42.19479" lon="2.34906">
        <ele>1214</ele>
        <time>2018-11-26T15:05:32Z</time>
      </trkpt>
      <trkpt lat="42.19478" lon="2.34903">
        <ele>1214</ele>
        <time>2018-11-26T15:05:33Z</time>
      </trkpt>
      <trkpt lat="42.19476" lon="2.349">
        <ele>1215</ele>
        <time>2018-11-26T15:05:35Z</time>
      </trkpt>
      <trkpt lat="42.19474" lon="2.34896">
        <ele>1215.1</ele>
        <time>2018-11-26T15:05:36Z</time>
      </trkpt>
      <trkpt lat="42.19472" lon="2.34892">
        <ele>1215</ele>
        <time>2018-11-26T15:05:37Z</time>
      </trkpt>
      <trkpt lat="42.19471" lon="2.34888">
        <ele>1215.1</ele>
        <time>2018-11-26T15:05:38Z</time>
      </trkpt>
      <trkpt lat="42.19469" lon="2.34885">
        <ele>1216</ele>
        <time>2018-11-26T15:05:40Z</time>
      </trkpt>
      <trkpt lat="42.19467" lon="2.34883">
        <ele>1216.1</ele>
        <time>2018-11-26T15:05:41Z</time>
      </trkpt>
      <trkpt lat="42.19466" lon="2.34881">
        <ele>1217</ele>
        <time>2018-11-26T15:05:42Z</time>
      </trkpt>
      <trkpt lat="42.19464" lon="2.34878">
        <ele>1217.1</ele>
        <time>2018-11-26T15:05:43Z</time>
      </trkpt>
      <trkpt lat="42.19463" lon="2.34876">
        <ele>1217</ele>
        <time>2018-11-26T15:05:44Z</time>
      </trkpt>
      <trkpt lat="42.19461" lon="2.34873">
        <ele>1218.1</ele>
        <time>2018-11-26T15:05:45Z</time>
      </trkpt>
      <trkpt lat="42.19459" lon="2.3487">
        <ele>1218.1</ele>
        <time>2018-11-26T15:05:46Z</time>
      </trkpt>
      <trkpt lat="42.19455" lon="2.34862">
        <ele>1219</ele>
        <time>2018-11-26T15:05:49Z</time>
      </trkpt>
      <trkpt lat="42.19454" lon="2.3486">
        <ele>1219</ele>
        <time>2018-11-26T15:05:50Z</time>
      </trkpt>
      <trkpt lat="42.19452" lon="2.34857">
        <ele>1219.1</ele>
        <time>2018-11-26T15:05:51Z</time>
      </trkpt>
      <trkpt lat="42.1945" lon="2.34853">
        <ele>1220.1</ele>
        <time>2018-11-26T15:05:52Z</time>
      </trkpt>
      <trkpt lat="42.19448" lon="2.34849">
        <ele>1221.1</ele>
        <time>2018-11-26T15:05:53Z</time>
      </trkpt>
      <trkpt lat="42.19447" lon="2.34846">
        <ele>1221.1</ele>
        <time>2018-11-26T15:05:54Z</time>
      </trkpt>
      <trkpt lat="42.19445" lon="2.34844">
        <ele>1222.1</ele>
        <time>2018-11-26T15:05:56Z</time>
      </trkpt>
      <trkpt lat="42.19442" lon="2.34841">
        <ele>1222.1</ele>
        <time>2018-11-26T15:05:57Z</time>
      </trkpt>
      <trkpt lat="42.1944" lon="2.34839">
        <ele>1222</ele>
        <time>2018-11-26T15:05:58Z</time>
      </trkpt>
      <trkpt lat="42.19439" lon="2.34836">
        <ele>1223</ele>
        <time>2018-11-26T15:05:59Z</time>
      </trkpt>
      <trkpt lat="42.19438" lon="2.34834">
        <ele>1223.1</ele>
        <time>2018-11-26T15:05:59Z</time>
      </trkpt>
      <trkpt lat="42.19436" lon="2.34832">
        <ele>1223.1</ele>
        <time>2018-11-26T15:06:00Z</time>
      </trkpt>
      <trkpt lat="42.19435" lon="2.34834">
        <ele>1222.8</ele>
        <time>2018-11-26T15:06:01Z</time>
      </trkpt>
      <trkpt lat="42.19434" lon="2.34839">
        <ele>1222</ele>
        <time>2018-11-26T15:06:02Z</time>
      </trkpt>
      <trkpt lat="42.19434" lon="2.34842">
        <ele>1222</ele>
        <time>2018-11-26T15:06:03Z</time>
      </trkpt>
      <trkpt lat="42.19434" lon="2.34846">
        <ele>1222.2</ele>
        <time>2018-11-26T15:06:05Z</time>
      </trkpt>
      <trkpt lat="42.19434" lon="2.34851">
        <ele>1224.1</ele>
        <time>2018-11-26T15:06:06Z</time>
      </trkpt>
      <trkpt lat="42.19434" lon="2.34855">
        <ele>1224.1</ele>
        <time>2018-11-26T15:06:07Z</time>
      </trkpt>
      <trkpt lat="42.19433" lon="2.3486">
        <ele>1224.1</ele>
        <time>2018-11-26T15:06:09Z</time>
      </trkpt>
      <trkpt lat="42.19434" lon="2.34865">
        <ele>1225.2</ele>
        <time>2018-11-26T15:06:10Z</time>
      </trkpt>
      <trkpt lat="42.19434" lon="2.34869">
        <ele>1226</ele>
        <time>2018-11-26T15:06:11Z</time>
      </trkpt>
      <trkpt lat="42.19434" lon="2.34872">
        <ele>1226</ele>
        <time>2018-11-26T15:06:12Z</time>
      </trkpt>
      <trkpt lat="42.19435" lon="2.34876">
        <ele>1226.1</ele>
        <time>2018-11-26T15:06:13Z</time>
      </trkpt>
      <trkpt lat="42.19436" lon="2.34879">
        <ele>1226</ele>
        <time>2018-11-26T15:06:14Z</time>
      </trkpt>
      <trkpt lat="42.19435" lon="2.34882">
        <ele>1226</ele>
        <time>2018-11-26T15:06:15Z</time>
      </trkpt>
      <trkpt lat="42.19436" lon="2.34886">
        <ele>1226</ele>
        <time>2018-11-26T15:06:17Z</time>
      </trkpt>
      <trkpt lat="42.19437" lon="2.34889">
        <ele>1226.1</ele>
        <time>2018-11-26T15:06:18Z</time>
      </trkpt>
      <trkpt lat="42.19438" lon="2.34892">
        <ele>1226</ele>
        <time>2018-11-26T15:06:19Z</time>
      </trkpt>
      <trkpt lat="42.19438" lon="2.34894">
        <ele>1226</ele>
        <time>2018-11-26T15:06:19Z</time>
      </trkpt>
      <trkpt lat="42.19437" lon="2.34898">
        <ele>1227</ele>
        <time>2018-11-26T15:06:20Z</time>
      </trkpt>
      <trkpt lat="42.19437" lon="2.34901">
        <ele>1227.1</ele>
        <time>2018-11-26T15:06:21Z</time>
      </trkpt>
      <trkpt lat="42.19436" lon="2.34905">
        <ele>1227.1</ele>
        <time>2018-11-26T15:06:22Z</time>
      </trkpt>
      <trkpt lat="42.19436" lon="2.3491">
        <ele>1228</ele>
        <time>2018-11-26T15:06:24Z</time>
      </trkpt>
      <trkpt lat="42.19436" lon="2.34913">
        <ele>1228</ele>
        <time>2018-11-26T15:06:25Z</time>
      </trkpt>
      <trkpt lat="42.19436" lon="2.34918">
        <ele>1228</ele>
        <time>2018-11-26T15:06:26Z</time>
      </trkpt>
      <trkpt lat="42.19436" lon="2.34921">
        <ele>1228.1</ele>
        <time>2018-11-26T15:06:27Z</time>
      </trkpt>
      <trkpt lat="42.19436" lon="2.34925">
        <ele>1228</ele>
        <time>2018-11-26T15:06:29Z</time>
      </trkpt>
      <trkpt lat="42.19436" lon="2.3493">
        <ele>1228</ele>
        <time>2018-11-26T15:06:30Z</time>
      </trkpt>
      <trkpt lat="42.19437" lon="2.34934">
        <ele>1228.1</ele>
        <time>2018-11-26T15:06:31Z</time>
      </trkpt>
      <trkpt lat="42.19437" lon="2.34938">
        <ele>1229.1</ele>
        <time>2018-11-26T15:06:32Z</time>
      </trkpt>
      <trkpt lat="42.19438" lon="2.34942">
        <ele>1229</ele>
        <time>2018-11-26T15:06:33Z</time>
      </trkpt>
      <trkpt lat="42.19438" lon="2.34945">
        <ele>1229</ele>
        <time>2018-11-26T15:06:34Z</time>
      </trkpt>
      <trkpt lat="42.19438" lon="2.34949">
        <ele>1230</ele>
        <time>2018-11-26T15:06:36Z</time>
      </trkpt>
      <trkpt lat="42.19438" lon="2.34951">
        <ele>1230.1</ele>
        <time>2018-11-26T15:06:36Z</time>
      </trkpt>
      <trkpt lat="42.19438" lon="2.34954">
        <ele>1230.1</ele>
        <time>2018-11-26T15:06:37Z</time>
      </trkpt>
      <trkpt lat="42.19438" lon="2.34958">
        <ele>1230.1</ele>
        <time>2018-11-26T15:06:38Z</time>
      </trkpt>
      <trkpt lat="42.19438" lon="2.34962">
        <ele>1230.1</ele>
        <time>2018-11-26T15:06:39Z</time>
      </trkpt>
      <trkpt lat="42.19438" lon="2.34964">
        <ele>1230.1</ele>
        <time>2018-11-26T15:06:40Z</time>
      </trkpt>
      <trkpt lat="42.19439" lon="2.34967">
        <ele>1230</ele>
        <time>2018-11-26T15:06:41Z</time>
      </trkpt>
      <trkpt lat="42.19439" lon="2.34971">
        <ele>1230</ele>
        <time>2018-11-26T15:06:42Z</time>
      </trkpt>
      <trkpt lat="42.1944" lon="2.34973">
        <ele>1230.1</ele>
        <time>2018-11-26T15:06:43Z</time>
      </trkpt>
      <trkpt lat="42.1944" lon="2.34976">
        <ele>1230</ele>
        <time>2018-11-26T15:06:44Z</time>
      </trkpt>
      <trkpt lat="42.1944" lon="2.34979">
        <ele>1230.1</ele>
        <time>2018-11-26T15:06:45Z</time>
      </trkpt>
      <trkpt lat="42.1944" lon="2.34981">
        <ele>1230</ele>
        <time>2018-11-26T15:06:45Z</time>
      </trkpt>
      <trkpt lat="42.19441" lon="2.34985">
        <ele>1230.1</ele>
        <time>2018-11-26T15:06:46Z</time>
      </trkpt>
      <trkpt lat="42.1944" lon="2.34989">
        <ele>1230.1</ele>
        <time>2018-11-26T15:06:48Z</time>
      </trkpt>
      <trkpt lat="42.1944" lon="2.34992">
        <ele>1231.1</ele>
        <time>2018-11-26T15:06:49Z</time>
      </trkpt>
      <trkpt lat="42.1944" lon="2.34996">
        <ele>1231</ele>
        <time>2018-11-26T15:06:50Z</time>
      </trkpt>
      <trkpt lat="42.1944" lon="2.35">
        <ele>1231.1</ele>
        <time>2018-11-26T15:06:51Z</time>
      </trkpt>
      <trkpt lat="42.19439" lon="2.35003">
        <ele>1231</ele>
        <time>2018-11-26T15:06:52Z</time>
      </trkpt>
      <trkpt lat="42.19439" lon="2.35006">
        <ele>1231</ele>
        <time>2018-11-26T15:06:53Z</time>
      </trkpt>
      <trkpt lat="42.19439" lon="2.3501">
        <ele>1231.1</ele>
        <time>2018-11-26T15:06:54Z</time>
      </trkpt>
      <trkpt lat="42.19438" lon="2.35014">
        <ele>1232</ele>
        <time>2018-11-26T15:06:55Z</time>
      </trkpt>
      <trkpt lat="42.19438" lon="2.35018">
        <ele>1232.1</ele>
        <time>2018-11-26T15:06:56Z</time>
      </trkpt>
      <trkpt lat="42.19437" lon="2.35022">
        <ele>1233.1</ele>
        <time>2018-11-26T15:06:57Z</time>
      </trkpt>
      <trkpt lat="42.19436" lon="2.35025">
        <ele>1233.2</ele>
        <time>2018-11-26T15:06:59Z</time>
      </trkpt>
      <trkpt lat="42.19435" lon="2.35029">
        <ele>1234.1</ele>
        <time>2018-11-26T15:07:00Z</time>
      </trkpt>
      <trkpt lat="42.19435" lon="2.35033">
        <ele>1234.1</ele>
        <time>2018-11-26T15:07:01Z</time>
      </trkpt>
      <trkpt lat="42.19436" lon="2.35037">
        <ele>1233.9</ele>
        <time>2018-11-26T15:07:02Z</time>
      </trkpt>
      <trkpt lat="42.19437" lon="2.3504">
        <ele>1233</ele>
        <time>2018-11-26T15:07:03Z</time>
      </trkpt>
      <trkpt lat="42.19437" lon="2.35043">
        <ele>1233.1</ele>
        <time>2018-11-26T15:07:04Z</time>
      </trkpt>
      <trkpt lat="42.19437" lon="2.35047">
        <ele>1233</ele>
        <time>2018-11-26T15:07:05Z</time>
      </trkpt>
      <trkpt lat="42.19437" lon="2.35049">
        <ele>1233</ele>
        <time>2018-11-26T15:07:06Z</time>
      </trkpt>
      <trkpt lat="42.19437" lon="2.35052">
        <ele>1233</ele>
        <time>2018-11-26T15:07:07Z</time>
      </trkpt>
      <trkpt lat="42.19435" lon="2.35055">
        <ele>1233</ele>
        <time>2018-11-26T15:07:08Z</time>
      </trkpt>
      <trkpt lat="42.19434" lon="2.35057">
        <ele>1233</ele>
        <time>2018-11-26T15:07:09Z</time>
      </trkpt>
      <trkpt lat="42.19433" lon="2.35059">
        <ele>1233.1</ele>
        <time>2018-11-26T15:07:10Z</time>
      </trkpt>
      <trkpt lat="42.19431" lon="2.35062">
        <ele>1233</ele>
        <time>2018-11-26T15:07:10Z</time>
      </trkpt>
      <trkpt lat="42.19431" lon="2.35065">
        <ele>1233.1</ele>
        <time>2018-11-26T15:07:11Z</time>
      </trkpt>
      <trkpt lat="42.19431" lon="2.35069">
        <ele>1233.1</ele>
        <time>2018-11-26T15:07:12Z</time>
      </trkpt>
      <trkpt lat="42.19431" lon="2.35072">
        <ele>1233.1</ele>
        <time>2018-11-26T15:07:13Z</time>
      </trkpt>
      <trkpt lat="42.19432" lon="2.35075">
        <ele>1233</ele>
        <time>2018-11-26T15:07:14Z</time>
      </trkpt>
      <trkpt lat="42.19432" lon="2.35079">
        <ele>1234</ele>
        <time>2018-11-26T15:07:15Z</time>
      </trkpt>
      <trkpt lat="42.19432" lon="2.35083">
        <ele>1233.1</ele>
        <time>2018-11-26T15:07:17Z</time>
      </trkpt>
      <trkpt lat="42.19432" lon="2.35088">
        <ele>1233.1</ele>
        <time>2018-11-26T15:07:18Z</time>
      </trkpt>
      <trkpt lat="42.19432" lon="2.35091">
        <ele>1234</ele>
        <time>2018-11-26T15:07:19Z</time>
      </trkpt>
      <trkpt lat="42.19432" lon="2.35094">
        <ele>1234</ele>
        <time>2018-11-26T15:07:20Z</time>
      </trkpt>
      <trkpt lat="42.19431" lon="2.35098">
        <ele>1234</ele>
        <time>2018-11-26T15:07:21Z</time>
      </trkpt>
      <trkpt lat="42.19431" lon="2.35101">
        <ele>1234.1</ele>
        <time>2018-11-26T15:07:22Z</time>
      </trkpt>
      <trkpt lat="42.1943" lon="2.35104">
        <ele>1234.1</ele>
        <time>2018-11-26T15:07:23Z</time>
      </trkpt>
      <trkpt lat="42.19429" lon="2.35108">
        <ele>1234</ele>
        <time>2018-11-26T15:07:24Z</time>
      </trkpt>
      <trkpt lat="42.19428" lon="2.35112">
        <ele>1234.1</ele>
        <time>2018-11-26T15:07:25Z</time>
      </trkpt>
      <trkpt lat="42.19428" lon="2.35116">
        <ele>1234</ele>
        <time>2018-11-26T15:07:27Z</time>
      </trkpt>
      <trkpt lat="42.19428" lon="2.3512">
        <ele>1234.1</ele>
        <time>2018-11-26T15:07:28Z</time>
      </trkpt>
      <trkpt lat="42.19428" lon="2.35124">
        <ele>1234</ele>
        <time>2018-11-26T15:07:29Z</time>
      </trkpt>
      <trkpt lat="42.19427" lon="2.35128">
        <ele>1234.1</ele>
        <time>2018-11-26T15:07:30Z</time>
      </trkpt>
      <trkpt lat="42.19426" lon="2.35132">
        <ele>1234</ele>
        <time>2018-11-26T15:07:32Z</time>
      </trkpt>
      <trkpt lat="42.19426" lon="2.35135">
        <ele>1234</ele>
        <time>2018-11-26T15:07:33Z</time>
      </trkpt>
      <trkpt lat="42.19424" lon="2.35139">
        <ele>1234.1</ele>
        <time>2018-11-26T15:07:34Z</time>
      </trkpt>
      <trkpt lat="42.19423" lon="2.35141">
        <ele>1234.1</ele>
        <time>2018-11-26T15:07:35Z</time>
      </trkpt>
      <trkpt lat="42.19423" lon="2.35144">
        <ele>1234</ele>
        <time>2018-11-26T15:07:35Z</time>
      </trkpt>
      <trkpt lat="42.19424" lon="2.35147">
        <ele>1236</ele>
        <time>2018-11-26T15:07:36Z</time>
      </trkpt>
      <trkpt lat="42.19423" lon="2.35151">
        <ele>1235.1</ele>
        <time>2018-11-26T15:07:37Z</time>
      </trkpt>
      <trkpt lat="42.19421" lon="2.35151">
        <ele>1234.1</ele>
        <time>2018-11-26T15:07:38Z</time>
      </trkpt>
      <trkpt lat="42.1942" lon="2.35154">
        <ele>1234.1</ele>
        <time>2018-11-26T15:07:39Z</time>
      </trkpt>
      <trkpt lat="42.19419" lon="2.35157">
        <ele>1234.1</ele>
        <time>2018-11-26T15:07:40Z</time>
      </trkpt>
      <trkpt lat="42.19419" lon="2.3516">
        <ele>1234.1</ele>
        <time>2018-11-26T15:07:41Z</time>
      </trkpt>
      <trkpt lat="42.19418" lon="2.35163">
        <ele>1234</ele>
        <time>2018-11-26T15:07:42Z</time>
      </trkpt>
      <trkpt lat="42.19418" lon="2.35167">
        <ele>1235</ele>
        <time>2018-11-26T15:07:43Z</time>
      </trkpt>
      <trkpt lat="42.19418" lon="2.3517">
        <ele>1235</ele>
        <time>2018-11-26T15:07:44Z</time>
      </trkpt>
      <trkpt lat="42.19418" lon="2.35174">
        <ele>1235.1</ele>
        <time>2018-11-26T15:07:45Z</time>
      </trkpt>
      <trkpt lat="42.19417" lon="2.35177">
        <ele>1235.1</ele>
        <time>2018-11-26T15:07:46Z</time>
      </trkpt>
      <trkpt lat="42.19418" lon="2.35181">
        <ele>1235.1</ele>
        <time>2018-11-26T15:07:47Z</time>
      </trkpt>
      <trkpt lat="42.19419" lon="2.35184">
        <ele>1234</ele>
        <time>2018-11-26T15:07:48Z</time>
      </trkpt>
      <trkpt lat="42.1942" lon="2.35187">
        <ele>1234</ele>
        <time>2018-11-26T15:07:49Z</time>
      </trkpt>
      <trkpt lat="42.1942" lon="2.3519">
        <ele>1235.1</ele>
        <time>2018-11-26T15:07:50Z</time>
      </trkpt>
      <trkpt lat="42.19419" lon="2.35194">
        <ele>1234.7</ele>
        <time>2018-11-26T15:07:51Z</time>
      </trkpt>
      <trkpt lat="42.19419" lon="2.35197">
        <ele>1234.1</ele>
        <time>2018-11-26T15:07:52Z</time>
      </trkpt>
      <trkpt lat="42.19419" lon="2.352">
        <ele>1234</ele>
        <time>2018-11-26T15:07:53Z</time>
      </trkpt>
      <trkpt lat="42.19419" lon="2.35204">
        <ele>1234.1</ele>
        <time>2018-11-26T15:07:55Z</time>
      </trkpt>
      <trkpt lat="42.19417" lon="2.35207">
        <ele>1234</ele>
        <time>2018-11-26T15:07:56Z</time>
      </trkpt>
      <trkpt lat="42.19415" lon="2.35209">
        <ele>1234.2</ele>
        <time>2018-11-26T15:07:57Z</time>
      </trkpt>
      <trkpt lat="42.19413" lon="2.35212">
        <ele>1235</ele>
        <time>2018-11-26T15:07:58Z</time>
      </trkpt>
      <trkpt lat="42.19411" lon="2.35215">
        <ele>1235</ele>
        <time>2018-11-26T15:07:59Z</time>
      </trkpt>
      <trkpt lat="42.19409" lon="2.35217">
        <ele>1235</ele>
        <time>2018-11-26T15:08:00Z</time>
      </trkpt>
      <trkpt lat="42.19407" lon="2.35221">
        <ele>1235.1</ele>
        <time>2018-11-26T15:08:01Z</time>
      </trkpt>
      <trkpt lat="42.19407" lon="2.35224">
        <ele>1236.1</ele>
        <time>2018-11-26T15:08:02Z</time>
      </trkpt>
      <trkpt lat="42.19406" lon="2.35228">
        <ele>1236.1</ele>
        <time>2018-11-26T15:08:03Z</time>
      </trkpt>
      <trkpt lat="42.19406" lon="2.35231">
        <ele>1236.1</ele>
        <time>2018-11-26T15:08:04Z</time>
      </trkpt>
      <trkpt lat="42.19405" lon="2.35233">
        <ele>1236.1</ele>
        <time>2018-11-26T15:08:05Z</time>
      </trkpt>
      <trkpt lat="42.19404" lon="2.35236">
        <ele>1236.1</ele>
        <time>2018-11-26T15:08:06Z</time>
      </trkpt>
      <trkpt lat="42.19404" lon="2.35238">
        <ele>1235.2</ele>
        <time>2018-11-26T15:08:07Z</time>
      </trkpt>
      <trkpt lat="42.19403" lon="2.35241">
        <ele>1237</ele>
        <time>2018-11-26T15:08:08Z</time>
      </trkpt>
      <trkpt lat="42.19403" lon="2.35245">
        <ele>1237</ele>
        <time>2018-11-26T15:08:09Z</time>
      </trkpt>
      <trkpt lat="42.19404" lon="2.35248">
        <ele>1237.1</ele>
        <time>2018-11-26T15:08:10Z</time>
      </trkpt>
      <trkpt lat="42.19405" lon="2.35251">
        <ele>1238.1</ele>
        <time>2018-11-26T15:08:11Z</time>
      </trkpt>
      <trkpt lat="42.19405" lon="2.35254">
        <ele>1238</ele>
        <time>2018-11-26T15:08:12Z</time>
      </trkpt>
      <trkpt lat="42.19405" lon="2.35257">
        <ele>1238</ele>
        <time>2018-11-26T15:08:13Z</time>
      </trkpt>
      <trkpt lat="42.19404" lon="2.35261">
        <ele>1238.1</ele>
        <time>2018-11-26T15:08:14Z</time>
      </trkpt>
      <trkpt lat="42.19402" lon="2.35263">
        <ele>1238</ele>
        <time>2018-11-26T15:08:15Z</time>
      </trkpt>
      <trkpt lat="42.19401" lon="2.35265">
        <ele>1238</ele>
        <time>2018-11-26T15:08:15Z</time>
      </trkpt>
      <trkpt lat="42.194" lon="2.35269">
        <ele>1238.2</ele>
        <time>2018-11-26T15:08:17Z</time>
      </trkpt>
      <trkpt lat="42.19401" lon="2.35272">
        <ele>1239</ele>
        <time>2018-11-26T15:08:17Z</time>
      </trkpt>
      <trkpt lat="42.19401" lon="2.35276">
        <ele>1239.1</ele>
        <time>2018-11-26T15:08:19Z</time>
      </trkpt>
      <trkpt lat="42.19402" lon="2.35279">
        <ele>1239.1</ele>
        <time>2018-11-26T15:08:20Z</time>
      </trkpt>
      <trkpt lat="42.19402" lon="2.35282">
        <ele>1240.3</ele>
        <time>2018-11-26T15:08:20Z</time>
      </trkpt>
      <trkpt lat="42.19401" lon="2.35284">
        <ele>1241</ele>
        <time>2018-11-26T15:08:21Z</time>
      </trkpt>
      <trkpt lat="42.194" lon="2.35287">
        <ele>1242.1</ele>
        <time>2018-11-26T15:08:22Z</time>
      </trkpt>
      <trkpt lat="42.194" lon="2.3529">
        <ele>1242.1</ele>
        <time>2018-11-26T15:08:23Z</time>
      </trkpt>
      <trkpt lat="42.194" lon="2.35293">
        <ele>1243.1</ele>
        <time>2018-11-26T15:08:24Z</time>
      </trkpt>
      <trkpt lat="42.194" lon="2.35297">
        <ele>1242.1</ele>
        <time>2018-11-26T15:08:25Z</time>
      </trkpt>
      <trkpt lat="42.19399" lon="2.353">
        <ele>1243.1</ele>
        <time>2018-11-26T15:08:26Z</time>
      </trkpt>
      <trkpt lat="42.19397" lon="2.35303">
        <ele>1243.2</ele>
        <time>2018-11-26T15:08:27Z</time>
      </trkpt>
      <trkpt lat="42.19398" lon="2.35306">
        <ele>1243</ele>
        <time>2018-11-26T15:08:28Z</time>
      </trkpt>
      <trkpt lat="42.19397" lon="2.35308">
        <ele>1243.1</ele>
        <time>2018-11-26T15:08:29Z</time>
      </trkpt>
      <trkpt lat="42.19396" lon="2.35311">
        <ele>1243</ele>
        <time>2018-11-26T15:08:30Z</time>
      </trkpt>
      <trkpt lat="42.19396" lon="2.35314">
        <ele>1243</ele>
        <time>2018-11-26T15:08:30Z</time>
      </trkpt>
      <trkpt lat="42.19394" lon="2.35316">
        <ele>1242</ele>
        <time>2018-11-26T15:08:31Z</time>
      </trkpt>
      <trkpt lat="42.19393" lon="2.35319">
        <ele>1242.1</ele>
        <time>2018-11-26T15:08:32Z</time>
      </trkpt>
      <trkpt lat="42.19392" lon="2.35322">
        <ele>1243</ele>
        <time>2018-11-26T15:08:33Z</time>
      </trkpt>
      <trkpt lat="42.19391" lon="2.35325">
        <ele>1243.1</ele>
        <time>2018-11-26T15:08:34Z</time>
      </trkpt>
      <trkpt lat="42.19391" lon="2.35328">
        <ele>1243.1</ele>
        <time>2018-11-26T15:08:35Z</time>
      </trkpt>
      <trkpt lat="42.19391" lon="2.35331">
        <ele>1243</ele>
        <time>2018-11-26T15:08:36Z</time>
      </trkpt>
      <trkpt lat="42.19392" lon="2.35334">
        <ele>1243</ele>
        <time>2018-11-26T15:08:37Z</time>
      </trkpt>
      <trkpt lat="42.19392" lon="2.35337">
        <ele>1243</ele>
        <time>2018-11-26T15:08:38Z</time>
      </trkpt>
      <trkpt lat="42.19392" lon="2.3534">
        <ele>1243.1</ele>
        <time>2018-11-26T15:08:39Z</time>
      </trkpt>
      <trkpt lat="42.19392" lon="2.35343">
        <ele>1243.1</ele>
        <time>2018-11-26T15:08:40Z</time>
      </trkpt>
      <trkpt lat="42.19392" lon="2.35346">
        <ele>1242</ele>
        <time>2018-11-26T15:08:41Z</time>
      </trkpt>
      <trkpt lat="42.1939" lon="2.35349">
        <ele>1242</ele>
        <time>2018-11-26T15:08:42Z</time>
      </trkpt>
      <trkpt lat="42.19389" lon="2.35352">
        <ele>1242</ele>
        <time>2018-11-26T15:08:43Z</time>
      </trkpt>
      <trkpt lat="42.19389" lon="2.35356">
        <ele>1242.1</ele>
        <time>2018-11-26T15:08:44Z</time>
      </trkpt>
      <trkpt lat="42.19389" lon="2.3536">
        <ele>1242</ele>
        <time>2018-11-26T15:08:45Z</time>
      </trkpt>
      <trkpt lat="42.19388" lon="2.35364">
        <ele>1242.1</ele>
        <time>2018-11-26T15:08:46Z</time>
      </trkpt>
      <trkpt lat="42.19388" lon="2.35367">
        <ele>1242</ele>
        <time>2018-11-26T15:08:47Z</time>
      </trkpt>
      <trkpt lat="42.19389" lon="2.35371">
        <ele>1242.1</ele>
        <time>2018-11-26T15:08:48Z</time>
      </trkpt>
      <trkpt lat="42.19388" lon="2.35374">
        <ele>1241.1</ele>
        <time>2018-11-26T15:08:49Z</time>
      </trkpt>
      <trkpt lat="42.19387" lon="2.35377">
        <ele>1241.1</ele>
        <time>2018-11-26T15:08:50Z</time>
      </trkpt>
      <trkpt lat="42.19386" lon="2.3538">
        <ele>1242</ele>
        <time>2018-11-26T15:08:51Z</time>
      </trkpt>
      <trkpt lat="42.19386" lon="2.35384">
        <ele>1242.1</ele>
        <time>2018-11-26T15:08:52Z</time>
      </trkpt>
      <trkpt lat="42.19386" lon="2.35387">
        <ele>1242</ele>
        <time>2018-11-26T15:08:53Z</time>
      </trkpt>
      <trkpt lat="42.19385" lon="2.35389">
        <ele>1242</ele>
        <time>2018-11-26T15:08:54Z</time>
      </trkpt>
      <trkpt lat="42.19385" lon="2.35392">
        <ele>1242</ele>
        <time>2018-11-26T15:08:55Z</time>
      </trkpt>
      <trkpt lat="42.19384" lon="2.35396">
        <ele>1242.1</ele>
        <time>2018-11-26T15:08:56Z</time>
      </trkpt>
      <trkpt lat="42.19383" lon="2.35399">
        <ele>1243.1</ele>
        <time>2018-11-26T15:08:57Z</time>
      </trkpt>
      <trkpt lat="42.19383" lon="2.35403">
        <ele>1243.1</ele>
        <time>2018-11-26T15:08:58Z</time>
      </trkpt>
      <trkpt lat="42.19382" lon="2.35406">
        <ele>1243</ele>
        <time>2018-11-26T15:08:59Z</time>
      </trkpt>
      <trkpt lat="42.19381" lon="2.35413">
        <ele>1243</ele>
        <time>2018-11-26T15:09:01Z</time>
      </trkpt>
      <trkpt lat="42.1938" lon="2.35415">
        <ele>1243.1</ele>
        <time>2018-11-26T15:09:02Z</time>
      </trkpt>
      <trkpt lat="42.19379" lon="2.35419">
        <ele>1244.1</ele>
        <time>2018-11-26T15:09:03Z</time>
      </trkpt>
      <trkpt lat="42.19378" lon="2.35421">
        <ele>1244.1</ele>
        <time>2018-11-26T15:09:04Z</time>
      </trkpt>
      <trkpt lat="42.19378" lon="2.35424">
        <ele>1244</ele>
        <time>2018-11-26T15:09:05Z</time>
      </trkpt>
      <trkpt lat="42.19378" lon="2.35426">
        <ele>1244.1</ele>
        <time>2018-11-26T15:09:05Z</time>
      </trkpt>
      <trkpt lat="42.19376" lon="2.35429">
        <ele>1244</ele>
        <time>2018-11-26T15:09:06Z</time>
      </trkpt>
      <trkpt lat="42.19375" lon="2.35432">
        <ele>1244</ele>
        <time>2018-11-26T15:09:07Z</time>
      </trkpt>
      <trkpt lat="42.19374" lon="2.35434">
        <ele>1244</ele>
        <time>2018-11-26T15:09:08Z</time>
      </trkpt>
      <trkpt lat="42.19373" lon="2.35437">
        <ele>1244</ele>
        <time>2018-11-26T15:09:09Z</time>
      </trkpt>
      <trkpt lat="42.19372" lon="2.35441">
        <ele>1244</ele>
        <time>2018-11-26T15:09:10Z</time>
      </trkpt>
      <trkpt lat="42.19372" lon="2.35444">
        <ele>1244.1</ele>
        <time>2018-11-26T15:09:11Z</time>
      </trkpt>
      <trkpt lat="42.19372" lon="2.35447">
        <ele>1244.1</ele>
        <time>2018-11-26T15:09:12Z</time>
      </trkpt>
      <trkpt lat="42.19371" lon="2.35451">
        <ele>1244.2</ele>
        <time>2018-11-26T15:09:13Z</time>
      </trkpt>
      <trkpt lat="42.1937" lon="2.35454">
        <ele>1245.1</ele>
        <time>2018-11-26T15:09:14Z</time>
      </trkpt>
      <trkpt lat="42.19369" lon="2.35457">
        <ele>1246.1</ele>
        <time>2018-11-26T15:09:15Z</time>
      </trkpt>
      <trkpt lat="42.19368" lon="2.35458">
        <ele>1246.1</ele>
        <time>2018-11-26T15:09:16Z</time>
      </trkpt>
      <trkpt lat="42.19366" lon="2.3546">
        <ele>1246.1</ele>
        <time>2018-11-26T15:09:17Z</time>
      </trkpt>
      <trkpt lat="42.19364" lon="2.35461">
        <ele>1247</ele>
        <time>2018-11-26T15:09:18Z</time>
      </trkpt>
      <trkpt lat="42.19363" lon="2.35464">
        <ele>1246.1</ele>
        <time>2018-11-26T15:09:19Z</time>
      </trkpt>
      <trkpt lat="42.19361" lon="2.35466">
        <ele>1248.2</ele>
        <time>2018-11-26T15:09:20Z</time>
      </trkpt>
      <trkpt lat="42.19359" lon="2.35469">
        <ele>1249</ele>
        <time>2018-11-26T15:09:21Z</time>
      </trkpt>
      <trkpt lat="42.19358" lon="2.35472">
        <ele>1249</ele>
        <time>2018-11-26T15:09:22Z</time>
      </trkpt>
      <trkpt lat="42.19358" lon="2.35475">
        <ele>1249.1</ele>
        <time>2018-11-26T15:09:23Z</time>
      </trkpt>
      <trkpt lat="42.19357" lon="2.35479">
        <ele>1249</ele>
        <time>2018-11-26T15:09:24Z</time>
      </trkpt>
      <trkpt lat="42.19356" lon="2.35482">
        <ele>1249</ele>
        <time>2018-11-26T15:09:25Z</time>
      </trkpt>
      <trkpt lat="42.19354" lon="2.35483">
        <ele>1249.1</ele>
        <time>2018-11-26T15:09:26Z</time>
      </trkpt>
      <trkpt lat="42.19353" lon="2.35485">
        <ele>1249</ele>
        <time>2018-11-26T15:09:26Z</time>
      </trkpt>
      <trkpt lat="42.19353" lon="2.35489">
        <ele>1249</ele>
        <time>2018-11-26T15:09:27Z</time>
      </trkpt>
      <trkpt lat="42.19354" lon="2.35492">
        <ele>1250</ele>
        <time>2018-11-26T15:09:28Z</time>
      </trkpt>
      <trkpt lat="42.19354" lon="2.35495">
        <ele>1250</ele>
        <time>2018-11-26T15:09:29Z</time>
      </trkpt>
      <trkpt lat="42.19354" lon="2.35498">
        <ele>1250</ele>
        <time>2018-11-26T15:09:30Z</time>
      </trkpt>
      <trkpt lat="42.19354" lon="2.35501">
        <ele>1250.1</ele>
        <time>2018-11-26T15:09:31Z</time>
      </trkpt>
      <trkpt lat="42.19355" lon="2.35504">
        <ele>1250.1</ele>
        <time>2018-11-26T15:09:32Z</time>
      </trkpt>
      <trkpt lat="42.19354" lon="2.35508">
        <ele>1251.1</ele>
        <time>2018-11-26T15:09:33Z</time>
      </trkpt>
      <trkpt lat="42.19353" lon="2.35512">
        <ele>1251.2</ele>
        <time>2018-11-26T15:09:35Z</time>
      </trkpt>
      <trkpt lat="42.19351" lon="2.35515">
        <ele>1252.1</ele>
        <time>2018-11-26T15:09:36Z</time>
      </trkpt>
      <trkpt lat="42.19351" lon="2.35518">
        <ele>1252</ele>
        <time>2018-11-26T15:09:37Z</time>
      </trkpt>
      <trkpt lat="42.19348" lon="2.35524">
        <ele>1251</ele>
        <time>2018-11-26T15:09:39Z</time>
      </trkpt>
      <trkpt lat="42.19342" lon="2.35534">
        <ele>1252.1</ele>
        <time>2018-11-26T15:09:43Z</time>
      </trkpt>
      <trkpt lat="42.19335" lon="2.35544">
        <ele>1252</ele>
        <time>2018-11-26T15:09:47Z</time>
      </trkpt>
      <trkpt lat="42.1933" lon="2.35556">
        <ele>1253</ele>
        <time>2018-11-26T15:09:51Z</time>
      </trkpt>
      <trkpt lat="42.19324" lon="2.35566">
        <ele>1251</ele>
        <time>2018-11-26T15:09:54Z</time>
      </trkpt>
      <trkpt lat="42.19316" lon="2.35572">
        <ele>1250</ele>
        <time>2018-11-26T15:09:58Z</time>
      </trkpt>
      <trkpt lat="42.19307" lon="2.3558">
        <ele>1250.3</ele>
        <time>2018-11-26T15:10:02Z</time>
      </trkpt>
      <trkpt lat="42.19299" lon="2.35587">
        <ele>1250.1</ele>
        <time>2018-11-26T15:10:06Z</time>
      </trkpt>
      <trkpt lat="42.1929" lon="2.35592">
        <ele>1249</ele>
        <time>2018-11-26T15:10:10Z</time>
      </trkpt>
      <trkpt lat="42.19281" lon="2.35596">
        <ele>1249.1</ele>
        <time>2018-11-26T15:10:14Z</time>
      </trkpt>
      <trkpt lat="42.19273" lon="2.356">
        <ele>1249.1</ele>
        <time>2018-11-26T15:10:17Z</time>
      </trkpt>
      <trkpt lat="42.19264" lon="2.35604">
        <ele>1248</ele>
        <time>2018-11-26T15:10:21Z</time>
      </trkpt>
      <trkpt lat="42.19257" lon="2.35611">
        <ele>1245.1</ele>
        <time>2018-11-26T15:10:25Z</time>
      </trkpt>
      <trkpt lat="42.19249" lon="2.35618">
        <ele>1243</ele>
        <time>2018-11-26T15:10:29Z</time>
      </trkpt>
      <trkpt lat="42.1925" lon="2.35621">
        <ele>1242</ele>
        <time>2018-11-26T15:10:29Z</time>
      </trkpt>
      <trkpt lat="42.19249" lon="2.35624">
        <ele>1242</ele>
        <time>2018-11-26T15:10:30Z</time>
      </trkpt>
      <trkpt lat="42.19248" lon="2.35626">
        <ele>1242</ele>
        <time>2018-11-26T15:10:31Z</time>
      </trkpt>
      <trkpt lat="42.19246" lon="2.35627">
        <ele>1241.8</ele>
        <time>2018-11-26T15:10:32Z</time>
      </trkpt>
      <trkpt lat="42.19244" lon="2.35624">
        <ele>1240.1</ele>
        <time>2018-11-26T15:10:33Z</time>
      </trkpt>
      <trkpt lat="42.19242" lon="2.35627">
        <ele>1240.1</ele>
        <time>2018-11-26T15:10:34Z</time>
      </trkpt>
      <trkpt lat="42.19241" lon="2.35629">
        <ele>1240</ele>
        <time>2018-11-26T15:10:35Z</time>
      </trkpt>
      <trkpt lat="42.1924" lon="2.35631">
        <ele>1239</ele>
        <time>2018-11-26T15:10:36Z</time>
      </trkpt>
      <trkpt lat="42.19239" lon="2.35633">
        <ele>1239.1</ele>
        <time>2018-11-26T15:10:36Z</time>
      </trkpt>
      <trkpt lat="42.19237" lon="2.35634">
        <ele>1238.1</ele>
        <time>2018-11-26T15:10:37Z</time>
      </trkpt>
      <trkpt lat="42.19235" lon="2.35635">
        <ele>1237.1</ele>
        <time>2018-11-26T15:10:38Z</time>
      </trkpt>
      <trkpt lat="42.19234" lon="2.35637">
        <ele>1237.2</ele>
        <time>2018-11-26T15:10:39Z</time>
      </trkpt>
      <trkpt lat="42.19232" lon="2.3564">
        <ele>1238</ele>
        <time>2018-11-26T15:10:40Z</time>
      </trkpt>
      <trkpt lat="42.1923" lon="2.35639">
        <ele>1237.1</ele>
        <time>2018-11-26T15:10:41Z</time>
      </trkpt>
      <trkpt lat="42.19228" lon="2.35638">
        <ele>1236</ele>
        <time>2018-11-26T15:10:42Z</time>
      </trkpt>
      <trkpt lat="42.19226" lon="2.3564">
        <ele>1236</ele>
        <time>2018-11-26T15:10:43Z</time>
      </trkpt>
      <trkpt lat="42.19223" lon="2.3564">
        <ele>1236.1</ele>
        <time>2018-11-26T15:10:44Z</time>
      </trkpt>
      <trkpt lat="42.19221" lon="2.3564">
        <ele>1236.1</ele>
        <time>2018-11-26T15:10:44Z</time>
      </trkpt>
      <trkpt lat="42.19219" lon="2.35641">
        <ele>1236.1</ele>
        <time>2018-11-26T15:10:45Z</time>
      </trkpt>
      <trkpt lat="42.19217" lon="2.35641">
        <ele>1236.1</ele>
        <time>2018-11-26T15:10:46Z</time>
      </trkpt>
      <trkpt lat="42.19214" lon="2.35642">
        <ele>1236.1</ele>
        <time>2018-11-26T15:10:47Z</time>
      </trkpt>
      <trkpt lat="42.19212" lon="2.35643">
        <ele>1236</ele>
        <time>2018-11-26T15:10:48Z</time>
      </trkpt>
      <trkpt lat="42.19209" lon="2.35643">
        <ele>1236</ele>
        <time>2018-11-26T15:10:49Z</time>
      </trkpt>
      <trkpt lat="42.19206" lon="2.35643">
        <ele>1236.1</ele>
        <time>2018-11-26T15:10:51Z</time>
      </trkpt>
      <trkpt lat="42.19204" lon="2.35643">
        <ele>1236.1</ele>
        <time>2018-11-26T15:10:51Z</time>
      </trkpt>
      <trkpt lat="42.192" lon="2.35642">
        <ele>1236</ele>
        <time>2018-11-26T15:10:53Z</time>
      </trkpt>
      <trkpt lat="42.19198" lon="2.35642">
        <ele>1236</ele>
        <time>2018-11-26T15:10:54Z</time>
      </trkpt>
      <trkpt lat="42.19195" lon="2.35643">
        <ele>1236</ele>
        <time>2018-11-26T15:10:55Z</time>
      </trkpt>
      <trkpt lat="42.19192" lon="2.35644">
        <ele>1236</ele>
        <time>2018-11-26T15:10:56Z</time>
      </trkpt>
      <trkpt lat="42.19189" lon="2.35643">
        <ele>1236.3</ele>
        <time>2018-11-26T15:10:57Z</time>
      </trkpt>
      <trkpt lat="42.19187" lon="2.35643">
        <ele>1237.1</ele>
        <time>2018-11-26T15:10:58Z</time>
      </trkpt>
      <trkpt lat="42.19184" lon="2.35644">
        <ele>1238</ele>
        <time>2018-11-26T15:10:59Z</time>
      </trkpt>
      <trkpt lat="42.19181" lon="2.35644">
        <ele>1238.2</ele>
        <time>2018-11-26T15:11:01Z</time>
      </trkpt>
      <trkpt lat="42.19178" lon="2.35645">
        <ele>1240.1</ele>
        <time>2018-11-26T15:11:02Z</time>
      </trkpt>
      <trkpt lat="42.19175" lon="2.35647">
        <ele>1240</ele>
        <time>2018-11-26T15:11:03Z</time>
      </trkpt>
      <trkpt lat="42.19173" lon="2.35649">
        <ele>1240.2</ele>
        <time>2018-11-26T15:11:04Z</time>
      </trkpt>
      <trkpt lat="42.19171" lon="2.35651">
        <ele>1241.1</ele>
        <time>2018-11-26T15:11:05Z</time>
      </trkpt>
      <trkpt lat="42.19169" lon="2.35654">
        <ele>1241</ele>
        <time>2018-11-26T15:11:06Z</time>
      </trkpt>
      <trkpt lat="42.19168" lon="2.35656">
        <ele>1241.1</ele>
        <time>2018-11-26T15:11:07Z</time>
      </trkpt>
      <trkpt lat="42.19167" lon="2.35659">
        <ele>1242</ele>
        <time>2018-11-26T15:11:08Z</time>
      </trkpt>
      <trkpt lat="42.19166" lon="2.35661">
        <ele>1242.1</ele>
        <time>2018-11-26T15:11:09Z</time>
      </trkpt>
      <trkpt lat="42.19164" lon="2.35664">
        <ele>1243.1</ele>
        <time>2018-11-26T15:11:10Z</time>
      </trkpt>
      <trkpt lat="42.19161" lon="2.35666">
        <ele>1244.1</ele>
        <time>2018-11-26T15:11:11Z</time>
      </trkpt>
      <trkpt lat="42.19159" lon="2.35668">
        <ele>1244.2</ele>
        <time>2018-11-26T15:11:12Z</time>
      </trkpt>
      <trkpt lat="42.19158" lon="2.35671">
        <ele>1246.1</ele>
        <time>2018-11-26T15:11:13Z</time>
      </trkpt>
      <trkpt lat="42.19156" lon="2.35671">
        <ele>1246.1</ele>
        <time>2018-11-26T15:11:14Z</time>
      </trkpt>
      <trkpt lat="42.19154" lon="2.35669">
        <ele>1246.2</ele>
        <time>2018-11-26T15:11:15Z</time>
      </trkpt>
      <trkpt lat="42.19152" lon="2.35668">
        <ele>1247.3</ele>
        <time>2018-11-26T15:11:16Z</time>
      </trkpt>
      <trkpt lat="42.1915" lon="2.35667">
        <ele>1249</ele>
        <time>2018-11-26T15:11:17Z</time>
      </trkpt>
      <trkpt lat="42.19148" lon="2.35669">
        <ele>1249.1</ele>
        <time>2018-11-26T15:11:18Z</time>
      </trkpt>
      <trkpt lat="42.19146" lon="2.3567">
        <ele>1251</ele>
        <time>2018-11-26T15:11:19Z</time>
      </trkpt>
      <trkpt lat="42.19145" lon="2.35672">
        <ele>1253</ele>
        <time>2018-11-26T15:11:20Z</time>
      </trkpt>
      <trkpt lat="42.19144" lon="2.3567">
        <ele>1252.7</ele>
        <time>2018-11-26T15:11:20Z</time>
      </trkpt>
      <trkpt lat="42.19142" lon="2.35669">
        <ele>1252.1</ele>
        <time>2018-11-26T15:11:21Z</time>
      </trkpt>
      <trkpt lat="42.1914" lon="2.35666">
        <ele>1254.1</ele>
        <time>2018-11-26T15:11:22Z</time>
      </trkpt>
      <trkpt lat="42.19139" lon="2.35664">
        <ele>1254</ele>
        <time>2018-11-26T15:11:23Z</time>
      </trkpt>
      <trkpt lat="42.19137" lon="2.35662">
        <ele>1254.2</ele>
        <time>2018-11-26T15:11:24Z</time>
      </trkpt>
      <trkpt lat="42.19135" lon="2.35661">
        <ele>1256.1</ele>
        <time>2018-11-26T15:11:25Z</time>
      </trkpt>
      <trkpt lat="42.19133" lon="2.35661">
        <ele>1256.1</ele>
        <time>2018-11-26T15:11:26Z</time>
      </trkpt>
      <trkpt lat="42.19131" lon="2.35659">
        <ele>1256.1</ele>
        <time>2018-11-26T15:11:27Z</time>
      </trkpt>
      <trkpt lat="42.19129" lon="2.35658">
        <ele>1258</ele>
        <time>2018-11-26T15:11:28Z</time>
      </trkpt>
      <trkpt lat="42.19127" lon="2.35656">
        <ele>1259.1</ele>
        <time>2018-11-26T15:11:29Z</time>
      </trkpt>
      <trkpt lat="42.19125" lon="2.35654">
        <ele>1259</ele>
        <time>2018-11-26T15:11:30Z</time>
      </trkpt>
      <trkpt lat="42.19123" lon="2.35655">
        <ele>1259.1</ele>
        <time>2018-11-26T15:11:30Z</time>
      </trkpt>
      <trkpt lat="42.19121" lon="2.35656">
        <ele>1260</ele>
        <time>2018-11-26T15:11:31Z</time>
      </trkpt>
      <trkpt lat="42.19119" lon="2.35656">
        <ele>1261.3</ele>
        <time>2018-11-26T15:11:32Z</time>
      </trkpt>
      <trkpt lat="42.19117" lon="2.35655">
        <ele>1262.1</ele>
        <time>2018-11-26T15:11:33Z</time>
      </trkpt>
      <trkpt lat="42.19115" lon="2.35654">
        <ele>1262</ele>
        <time>2018-11-26T15:11:34Z</time>
      </trkpt>
      <trkpt lat="42.19113" lon="2.35655">
        <ele>1262</ele>
        <time>2018-11-26T15:11:35Z</time>
      </trkpt>
      <trkpt lat="42.1911" lon="2.35655">
        <ele>1262</ele>
        <time>2018-11-26T15:11:36Z</time>
      </trkpt>
      <trkpt lat="42.19107" lon="2.35654">
        <ele>1262</ele>
        <time>2018-11-26T15:11:37Z</time>
      </trkpt>
      <trkpt lat="42.19106" lon="2.35653">
        <ele>1262.1</ele>
        <time>2018-11-26T15:11:38Z</time>
      </trkpt>
      <trkpt lat="42.19104" lon="2.35654">
        <ele>1262</ele>
        <time>2018-11-26T15:11:38Z</time>
      </trkpt>
      <trkpt lat="42.19102" lon="2.35655">
        <ele>1262</ele>
        <time>2018-11-26T15:11:39Z</time>
      </trkpt>
      <trkpt lat="42.191" lon="2.35657">
        <ele>1262</ele>
        <time>2018-11-26T15:11:40Z</time>
      </trkpt>
      <trkpt lat="42.19098" lon="2.35658">
        <ele>1261.6</ele>
        <time>2018-11-26T15:11:41Z</time>
      </trkpt>
      <trkpt lat="42.19092" lon="2.35658">
        <ele>1261</ele>
        <time>2018-11-26T15:11:43Z</time>
      </trkpt>
      <trkpt lat="42.1909" lon="2.35656">
        <ele>1261</ele>
        <time>2018-11-26T15:11:44Z</time>
      </trkpt>
      <trkpt lat="42.19088" lon="2.35655">
        <ele>1260</ele>
        <time>2018-11-26T15:11:45Z</time>
      </trkpt>
      <trkpt lat="42.19086" lon="2.35653">
        <ele>1260.1</ele>
        <time>2018-11-26T15:11:46Z</time>
      </trkpt>
      <trkpt lat="42.19084" lon="2.35654">
        <ele>1259</ele>
        <time>2018-11-26T15:11:47Z</time>
      </trkpt>
      <trkpt lat="42.19082" lon="2.35656">
        <ele>1259</ele>
        <time>2018-11-26T15:11:48Z</time>
      </trkpt>
      <trkpt lat="42.19079" lon="2.35656">
        <ele>1259</ele>
        <time>2018-11-26T15:11:50Z</time>
      </trkpt>
      <trkpt lat="42.19076" lon="2.35655">
        <ele>1260.1</ele>
        <time>2018-11-26T15:11:51Z</time>
      </trkpt>
      <trkpt lat="42.19074" lon="2.35654">
        <ele>1259.1</ele>
        <time>2018-11-26T15:11:52Z</time>
      </trkpt>
      <trkpt lat="42.19071" lon="2.35654">
        <ele>1259.1</ele>
        <time>2018-11-26T15:11:53Z</time>
      </trkpt>
      <trkpt lat="42.19068" lon="2.35655">
        <ele>1259</ele>
        <time>2018-11-26T15:11:54Z</time>
      </trkpt>
      <trkpt lat="42.19066" lon="2.35655">
        <ele>1259</ele>
        <time>2018-11-26T15:11:55Z</time>
      </trkpt>
      <trkpt lat="42.19064" lon="2.35655">
        <ele>1258.7</ele>
        <time>2018-11-26T15:11:56Z</time>
      </trkpt>
      <trkpt lat="42.19061" lon="2.35656">
        <ele>1258.2</ele>
        <time>2018-11-26T15:11:57Z</time>
      </trkpt>
      <trkpt lat="42.19059" lon="2.35657">
        <ele>1259</ele>
        <time>2018-11-26T15:11:58Z</time>
      </trkpt>
      <trkpt lat="42.19056" lon="2.35658">
        <ele>1259.1</ele>
        <time>2018-11-26T15:11:59Z</time>
      </trkpt>
      <trkpt lat="42.19054" lon="2.3566">
        <ele>1259.3</ele>
        <time>2018-11-26T15:12:00Z</time>
      </trkpt>
      <trkpt lat="42.19051" lon="2.35662">
        <ele>1260.1</ele>
        <time>2018-11-26T15:12:01Z</time>
      </trkpt>
      <trkpt lat="42.19049" lon="2.35663">
        <ele>1260.1</ele>
        <time>2018-11-26T15:12:02Z</time>
      </trkpt>
      <trkpt lat="42.19046" lon="2.35661">
        <ele>1261</ele>
        <time>2018-11-26T15:12:03Z</time>
      </trkpt>
      <trkpt lat="42.19043" lon="2.35659">
        <ele>1261.3</ele>
        <time>2018-11-26T15:12:05Z</time>
      </trkpt>
      <trkpt lat="42.19041" lon="2.35658">
        <ele>1262.1</ele>
        <time>2018-11-26T15:12:06Z</time>
      </trkpt>
      <trkpt lat="42.19038" lon="2.35658">
        <ele>1262</ele>
        <time>2018-11-26T15:12:07Z</time>
      </trkpt>
      <trkpt lat="42.19036" lon="2.35657">
        <ele>1263</ele>
        <time>2018-11-26T15:12:08Z</time>
      </trkpt>
      <trkpt lat="42.19034" lon="2.35655">
        <ele>1263.3</ele>
        <time>2018-11-26T15:12:09Z</time>
      </trkpt>
      <trkpt lat="42.19032" lon="2.35652">
        <ele>1264</ele>
        <time>2018-11-26T15:12:10Z</time>
      </trkpt>
      <trkpt lat="42.19029" lon="2.35651">
        <ele>1264.2</ele>
        <time>2018-11-26T15:12:11Z</time>
      </trkpt>
      <trkpt lat="42.19027" lon="2.35651">
        <ele>1265.1</ele>
        <time>2018-11-26T15:12:12Z</time>
      </trkpt>
      <trkpt lat="42.19025" lon="2.35651">
        <ele>1266.1</ele>
        <time>2018-11-26T15:12:12Z</time>
      </trkpt>
      <trkpt lat="42.19023" lon="2.35652">
        <ele>1266.2</ele>
        <time>2018-11-26T15:12:13Z</time>
      </trkpt>
      <trkpt lat="42.19021" lon="2.35653">
        <ele>1267.1</ele>
        <time>2018-11-26T15:12:14Z</time>
      </trkpt>
      <trkpt lat="42.1902" lon="2.35655">
        <ele>1267.1</ele>
        <time>2018-11-26T15:12:15Z</time>
      </trkpt>
      <trkpt lat="42.19018" lon="2.35656">
        <ele>1267.1</ele>
        <time>2018-11-26T15:12:16Z</time>
      </trkpt>
      <trkpt lat="42.19016" lon="2.35657">
        <ele>1268.1</ele>
        <time>2018-11-26T15:12:17Z</time>
      </trkpt>
      <trkpt lat="42.19014" lon="2.35657">
        <ele>1269</ele>
        <time>2018-11-26T15:12:17Z</time>
      </trkpt>
      <trkpt lat="42.19012" lon="2.35659">
        <ele>1270</ele>
        <time>2018-11-26T15:12:18Z</time>
      </trkpt>
      <trkpt lat="42.1901" lon="2.35661">
        <ele>1271.1</ele>
        <time>2018-11-26T15:12:19Z</time>
      </trkpt>
      <trkpt lat="42.19009" lon="2.35663">
        <ele>1271.1</ele>
        <time>2018-11-26T15:12:20Z</time>
      </trkpt>
      <trkpt lat="42.19007" lon="2.35664">
        <ele>1272.1</ele>
        <time>2018-11-26T15:12:21Z</time>
      </trkpt>
      <trkpt lat="42.19005" lon="2.35665">
        <ele>1272</ele>
        <time>2018-11-26T15:12:22Z</time>
      </trkpt>
      <trkpt lat="42.19003" lon="2.35666">
        <ele>1273.4</ele>
        <time>2018-11-26T15:12:22Z</time>
      </trkpt>
      <trkpt lat="42.19001" lon="2.35666">
        <ele>1275</ele>
        <time>2018-11-26T15:12:23Z</time>
      </trkpt>
      <trkpt lat="42.19" lon="2.35663">
        <ele>1275</ele>
        <time>2018-11-26T15:12:24Z</time>
      </trkpt>
      <trkpt lat="42.18997" lon="2.35662">
        <ele>1275.1</ele>
        <time>2018-11-26T15:12:25Z</time>
      </trkpt>
      <trkpt lat="42.18995" lon="2.35662">
        <ele>1275.1</ele>
        <time>2018-11-26T15:12:26Z</time>
      </trkpt>
      <trkpt lat="42.18993" lon="2.35661">
        <ele>1275</ele>
        <time>2018-11-26T15:12:27Z</time>
      </trkpt>
      <trkpt lat="42.18993" lon="2.35659">
        <ele>1276</ele>
        <time>2018-11-26T15:12:28Z</time>
      </trkpt>
      <trkpt lat="42.18991" lon="2.35656">
        <ele>1276</ele>
        <time>2018-11-26T15:12:29Z</time>
      </trkpt>
      <trkpt lat="42.18988" lon="2.35655">
        <ele>1276.1</ele>
        <time>2018-11-26T15:12:30Z</time>
      </trkpt>
      <trkpt lat="42.18987" lon="2.35654">
        <ele>1276.2</ele>
        <time>2018-11-26T15:12:31Z</time>
      </trkpt>
      <trkpt lat="42.18985" lon="2.35652">
        <ele>1277</ele>
        <time>2018-11-26T15:12:32Z</time>
      </trkpt>
      <trkpt lat="42.18983" lon="2.35652">
        <ele>1278.1</ele>
        <time>2018-11-26T15:12:32Z</time>
      </trkpt>
      <trkpt lat="42.1898" lon="2.35651">
        <ele>1278</ele>
        <time>2018-11-26T15:12:33Z</time>
      </trkpt>
      <trkpt lat="42.18979" lon="2.35651">
        <ele>1279.3</ele>
        <time>2018-11-26T15:12:34Z</time>
      </trkpt>
      <trkpt lat="42.18976" lon="2.35654">
        <ele>1280</ele>
        <time>2018-11-26T15:12:35Z</time>
      </trkpt>
      <trkpt lat="42.18975" lon="2.35655">
        <ele>1281.1</ele>
        <time>2018-11-26T15:12:36Z</time>
      </trkpt>
      <trkpt lat="42.18972" lon="2.35655">
        <ele>1282.1</ele>
        <time>2018-11-26T15:12:37Z</time>
      </trkpt>
      <trkpt lat="42.1897" lon="2.35653">
        <ele>1283.1</ele>
        <time>2018-11-26T15:12:38Z</time>
      </trkpt>
      <trkpt lat="42.18968" lon="2.35653">
        <ele>1283</ele>
        <time>2018-11-26T15:12:39Z</time>
      </trkpt>
      <trkpt lat="42.18966" lon="2.35653">
        <ele>1284</ele>
        <time>2018-11-26T15:12:40Z</time>
      </trkpt>
      <trkpt lat="42.18964" lon="2.35655">
        <ele>1285.1</ele>
        <time>2018-11-26T15:12:41Z</time>
      </trkpt>
      <trkpt lat="42.18963" lon="2.35657">
        <ele>1285</ele>
        <time>2018-11-26T15:12:41Z</time>
      </trkpt>
      <trkpt lat="42.18961" lon="2.35658">
        <ele>1285.3</ele>
        <time>2018-11-26T15:12:42Z</time>
      </trkpt>
      <trkpt lat="42.18959" lon="2.35658">
        <ele>1286.1</ele>
        <time>2018-11-26T15:12:43Z</time>
      </trkpt>
      <trkpt lat="42.18958" lon="2.35661">
        <ele>1287</ele>
        <time>2018-11-26T15:12:44Z</time>
      </trkpt>
      <trkpt lat="42.18957" lon="2.35664">
        <ele>1288.1</ele>
        <time>2018-11-26T15:12:45Z</time>
      </trkpt>
      <trkpt lat="42.18955" lon="2.35664">
        <ele>1289</ele>
        <time>2018-11-26T15:12:46Z</time>
      </trkpt>
      <trkpt lat="42.18952" lon="2.35664">
        <ele>1289.1</ele>
        <time>2018-11-26T15:12:47Z</time>
      </trkpt>
      <trkpt lat="42.1895" lon="2.35665">
        <ele>1290</ele>
        <time>2018-11-26T15:12:48Z</time>
      </trkpt>
      <trkpt lat="42.18948" lon="2.35665">
        <ele>1290.1</ele>
        <time>2018-11-26T15:12:49Z</time>
      </trkpt>
      <trkpt lat="42.18948" lon="2.35667">
        <ele>1291.1</ele>
        <time>2018-11-26T15:12:49Z</time>
      </trkpt>
      <trkpt lat="42.18947" lon="2.3567">
        <ele>1292</ele>
        <time>2018-11-26T15:12:50Z</time>
      </trkpt>
      <trkpt lat="42.18948" lon="2.35673">
        <ele>1293.1</ele>
        <time>2018-11-26T15:12:51Z</time>
      </trkpt>
      <trkpt lat="42.18948" lon="2.35675">
        <ele>1294</ele>
        <time>2018-11-26T15:12:52Z</time>
      </trkpt>
      <trkpt lat="42.18948" lon="2.35678">
        <ele>1294.1</ele>
        <time>2018-11-26T15:12:52Z</time>
      </trkpt>
      <trkpt lat="42.18948" lon="2.35681">
        <ele>1294.1</ele>
        <time>2018-11-26T15:12:53Z</time>
      </trkpt>
      <trkpt lat="42.18946" lon="2.35682">
        <ele>1294</ele>
        <time>2018-11-26T15:12:54Z</time>
      </trkpt>
      <trkpt lat="42.18944" lon="2.3568">
        <ele>1294.2</ele>
        <time>2018-11-26T15:12:55Z</time>
      </trkpt>
      <trkpt lat="42.18941" lon="2.35678">
        <ele>1297.1</ele>
        <time>2018-11-26T15:12:56Z</time>
      </trkpt>
      <trkpt lat="42.18939" lon="2.35679">
        <ele>1298.1</ele>
        <time>2018-11-26T15:12:57Z</time>
      </trkpt>
      <trkpt lat="42.18937" lon="2.35678">
        <ele>1298.2</ele>
        <time>2018-11-26T15:12:58Z</time>
      </trkpt>
      <trkpt lat="42.18935" lon="2.35677">
        <ele>1300.2</ele>
        <time>2018-11-26T15:12:59Z</time>
      </trkpt>
      <trkpt lat="42.18933" lon="2.35677">
        <ele>1300.1</ele>
        <time>2018-11-26T15:13:00Z</time>
      </trkpt>
      <trkpt lat="42.18931" lon="2.35679">
        <ele>1303</ele>
        <time>2018-11-26T15:13:01Z</time>
      </trkpt>
      <trkpt lat="42.1893" lon="2.35682">
        <ele>1303</ele>
        <time>2018-11-26T15:13:02Z</time>
      </trkpt>
      <trkpt lat="42.18929" lon="2.35685">
        <ele>1303</ele>
        <time>2018-11-26T15:13:03Z</time>
      </trkpt>
      <trkpt lat="42.18928" lon="2.35688">
        <ele>1304.1</ele>
        <time>2018-11-26T15:13:03Z</time>
      </trkpt>
      <trkpt lat="42.18929" lon="2.35691">
        <ele>1304.2</ele>
        <time>2018-11-26T15:13:04Z</time>
      </trkpt>
      <trkpt lat="42.18929" lon="2.35694">
        <ele>1306.1</ele>
        <time>2018-11-26T15:13:05Z</time>
      </trkpt>
      <trkpt lat="42.18928" lon="2.35696">
        <ele>1306.1</ele>
        <time>2018-11-26T15:13:06Z</time>
      </trkpt>
      <trkpt lat="42.18926" lon="2.35698">
        <ele>1306.1</ele>
        <time>2018-11-26T15:13:07Z</time>
      </trkpt>
      <trkpt lat="42.18924" lon="2.35698">
        <ele>1307</ele>
        <time>2018-11-26T15:13:08Z</time>
      </trkpt>
      <trkpt lat="42.18921" lon="2.35699">
        <ele>1308.1</ele>
        <time>2018-11-26T15:13:09Z</time>
      </trkpt>
      <trkpt lat="42.18919" lon="2.35698">
        <ele>1309.1</ele>
        <time>2018-11-26T15:13:10Z</time>
      </trkpt>
      <trkpt lat="42.18917" lon="2.357">
        <ele>1309</ele>
        <time>2018-11-26T15:13:11Z</time>
      </trkpt>
      <trkpt lat="42.18916" lon="2.35703">
        <ele>1308.8</ele>
        <time>2018-11-26T15:13:12Z</time>
      </trkpt>
      <trkpt lat="42.18915" lon="2.35704">
        <ele>1308.1</ele>
        <time>2018-11-26T15:13:13Z</time>
      </trkpt>
      <trkpt lat="42.18912" lon="2.35708">
        <ele>1310.1</ele>
        <time>2018-11-26T15:13:14Z</time>
      </trkpt>
      <trkpt lat="42.18911" lon="2.35712">
        <ele>1310</ele>
        <time>2018-11-26T15:13:15Z</time>
      </trkpt>
      <trkpt lat="42.18909" lon="2.35716">
        <ele>1310.1</ele>
        <time>2018-11-26T15:13:17Z</time>
      </trkpt>
      <trkpt lat="42.18907" lon="2.35719">
        <ele>1310.2</ele>
        <time>2018-11-26T15:13:18Z</time>
      </trkpt>
      <trkpt lat="42.18905" lon="2.35722">
        <ele>1311.1</ele>
        <time>2018-11-26T15:13:19Z</time>
      </trkpt>
      <trkpt lat="42.18902" lon="2.35725">
        <ele>1311.3</ele>
        <time>2018-11-26T15:13:20Z</time>
      </trkpt>
      <trkpt lat="42.18901" lon="2.35727">
        <ele>1312.1</ele>
        <time>2018-11-26T15:13:21Z</time>
      </trkpt>
      <trkpt lat="42.189" lon="2.3573">
        <ele>1312.1</ele>
        <time>2018-11-26T15:13:22Z</time>
      </trkpt>
      <trkpt lat="42.18898" lon="2.35732">
        <ele>1312</ele>
        <time>2018-11-26T15:13:23Z</time>
      </trkpt>
      <trkpt lat="42.18896" lon="2.35733">
        <ele>1313.2</ele>
        <time>2018-11-26T15:13:24Z</time>
      </trkpt>
      <trkpt lat="42.18894" lon="2.35734">
        <ele>1314</ele>
        <time>2018-11-26T15:13:25Z</time>
      </trkpt>
      <trkpt lat="42.18892" lon="2.35737">
        <ele>1314</ele>
        <time>2018-11-26T15:13:26Z</time>
      </trkpt>
      <trkpt lat="42.18891" lon="2.35738">
        <ele>1315</ele>
        <time>2018-11-26T15:13:27Z</time>
      </trkpt>
      <trkpt lat="42.18888" lon="2.35739">
        <ele>1315</ele>
        <time>2018-11-26T15:13:28Z</time>
      </trkpt>
      <trkpt lat="42.18886" lon="2.3574">
        <ele>1316</ele>
        <time>2018-11-26T15:13:29Z</time>
      </trkpt>
      <trkpt lat="42.18883" lon="2.35741">
        <ele>1316.1</ele>
        <time>2018-11-26T15:13:30Z</time>
      </trkpt>
      <trkpt lat="42.1888" lon="2.3574">
        <ele>1317.2</ele>
        <time>2018-11-26T15:13:31Z</time>
      </trkpt>
      <trkpt lat="42.18877" lon="2.35739">
        <ele>1318.8</ele>
        <time>2018-11-26T15:13:32Z</time>
      </trkpt>
      <trkpt lat="42.18875" lon="2.35742">
        <ele>1320.1</ele>
        <time>2018-11-26T15:13:33Z</time>
      </trkpt>
      <trkpt lat="42.18874" lon="2.35744">
        <ele>1320</ele>
        <time>2018-11-26T15:13:34Z</time>
      </trkpt>
      <trkpt lat="42.18872" lon="2.35746">
        <ele>1319.9</ele>
        <time>2018-11-26T15:13:35Z</time>
      </trkpt>
      <trkpt lat="42.18871" lon="2.35747">
        <ele>1319</ele>
        <time>2018-11-26T15:13:36Z</time>
      </trkpt>
      <trkpt lat="42.18869" lon="2.3575">
        <ele>1319</ele>
        <time>2018-11-26T15:13:37Z</time>
      </trkpt>
      <trkpt lat="42.18868" lon="2.35752">
        <ele>1318.1</ele>
        <time>2018-11-26T15:13:38Z</time>
      </trkpt>
      <trkpt lat="42.18866" lon="2.35754">
        <ele>1317</ele>
        <time>2018-11-26T15:13:39Z</time>
      </trkpt>
      <trkpt lat="42.18864" lon="2.35755">
        <ele>1316</ele>
        <time>2018-11-26T15:13:39Z</time>
      </trkpt>
      <trkpt lat="42.18862" lon="2.35756">
        <ele>1316</ele>
        <time>2018-11-26T15:13:40Z</time>
      </trkpt>
      <trkpt lat="42.18861" lon="2.35758">
        <ele>1315</ele>
        <time>2018-11-26T15:13:41Z</time>
      </trkpt>
      <trkpt lat="42.18859" lon="2.35759">
        <ele>1315.1</ele>
        <time>2018-11-26T15:13:42Z</time>
      </trkpt>
      <trkpt lat="42.18858" lon="2.35761">
        <ele>1314.8</ele>
        <time>2018-11-26T15:13:43Z</time>
      </trkpt>
      <trkpt lat="42.18856" lon="2.35763">
        <ele>1314</ele>
        <time>2018-11-26T15:13:44Z</time>
      </trkpt>
      <trkpt lat="42.18854" lon="2.35766">
        <ele>1314.1</ele>
        <time>2018-11-26T15:13:45Z</time>
      </trkpt>
      <trkpt lat="42.18852" lon="2.35767">
        <ele>1313.1</ele>
        <time>2018-11-26T15:13:46Z</time>
      </trkpt>
      <trkpt lat="42.1885" lon="2.35769">
        <ele>1313</ele>
        <time>2018-11-26T15:13:47Z</time>
      </trkpt>
      <trkpt lat="42.18848" lon="2.35771">
        <ele>1313</ele>
        <time>2018-11-26T15:13:48Z</time>
      </trkpt>
      <trkpt lat="42.18847" lon="2.35773">
        <ele>1313</ele>
        <time>2018-11-26T15:13:48Z</time>
      </trkpt>
      <trkpt lat="42.18845" lon="2.35775">
        <ele>1313.1</ele>
        <time>2018-11-26T15:13:49Z</time>
      </trkpt>
      <trkpt lat="42.18844" lon="2.35779">
        <ele>1313</ele>
        <time>2018-11-26T15:13:50Z</time>
      </trkpt>
      <trkpt lat="42.18843" lon="2.35781">
        <ele>1313</ele>
        <time>2018-11-26T15:13:51Z</time>
      </trkpt>
      <trkpt lat="42.18842" lon="2.35783">
        <ele>1313</ele>
        <time>2018-11-26T15:13:52Z</time>
      </trkpt>
      <trkpt lat="42.18839" lon="2.35785">
        <ele>1313</ele>
        <time>2018-11-26T15:13:53Z</time>
      </trkpt>
      <trkpt lat="42.18837" lon="2.35788">
        <ele>1313.1</ele>
        <time>2018-11-26T15:13:54Z</time>
      </trkpt>
      <trkpt lat="42.18836" lon="2.3579">
        <ele>1314</ele>
        <time>2018-11-26T15:13:55Z</time>
      </trkpt>
      <trkpt lat="42.18834" lon="2.35793">
        <ele>1314</ele>
        <time>2018-11-26T15:13:56Z</time>
      </trkpt>
      <trkpt lat="42.18833" lon="2.35796">
        <ele>1314</ele>
        <time>2018-11-26T15:13:57Z</time>
      </trkpt>
      <trkpt lat="42.18832" lon="2.35799">
        <ele>1314</ele>
        <time>2018-11-26T15:13:58Z</time>
      </trkpt>
      <trkpt lat="42.18831" lon="2.35801">
        <ele>1314</ele>
        <time>2018-11-26T15:13:59Z</time>
      </trkpt>
      <trkpt lat="42.1883" lon="2.35804">
        <ele>1314</ele>
        <time>2018-11-26T15:14:00Z</time>
      </trkpt>
      <trkpt lat="42.18829" lon="2.35807">
        <ele>1314.1</ele>
        <time>2018-11-26T15:14:01Z</time>
      </trkpt>
      <trkpt lat="42.18826" lon="2.35809">
        <ele>1315</ele>
        <time>2018-11-26T15:14:02Z</time>
      </trkpt>
      <trkpt lat="42.18824" lon="2.3581">
        <ele>1315.1</ele>
        <time>2018-11-26T15:14:03Z</time>
      </trkpt>
      <trkpt lat="42.18821" lon="2.35812">
        <ele>1316.2</ele>
        <time>2018-11-26T15:14:04Z</time>
      </trkpt>
      <trkpt lat="42.1882" lon="2.35814">
        <ele>1317</ele>
        <time>2018-11-26T15:14:05Z</time>
      </trkpt>
      <trkpt lat="42.18819" lon="2.35817">
        <ele>1317.1</ele>
        <time>2018-11-26T15:14:06Z</time>
      </trkpt>
      <trkpt lat="42.18817" lon="2.3582">
        <ele>1317.1</ele>
        <time>2018-11-26T15:14:07Z</time>
      </trkpt>
      <trkpt lat="42.18816" lon="2.35822">
        <ele>1317.1</ele>
        <time>2018-11-26T15:14:08Z</time>
      </trkpt>
      <trkpt lat="42.18814" lon="2.35824">
        <ele>1317</ele>
        <time>2018-11-26T15:14:09Z</time>
      </trkpt>
      <trkpt lat="42.18813" lon="2.35826">
        <ele>1317</ele>
        <time>2018-11-26T15:14:10Z</time>
      </trkpt>
      <trkpt lat="42.18811" lon="2.35828">
        <ele>1317</ele>
        <time>2018-11-26T15:14:11Z</time>
      </trkpt>
      <trkpt lat="42.18809" lon="2.35828">
        <ele>1317</ele>
        <time>2018-11-26T15:14:11Z</time>
      </trkpt>
      <trkpt lat="42.18807" lon="2.35828">
        <ele>1317.1</ele>
        <time>2018-11-26T15:14:12Z</time>
      </trkpt>
      <trkpt lat="42.18804" lon="2.35829">
        <ele>1317.1</ele>
        <time>2018-11-26T15:14:13Z</time>
      </trkpt>
      <trkpt lat="42.18802" lon="2.35828">
        <ele>1316</ele>
        <time>2018-11-26T15:14:14Z</time>
      </trkpt>
      <trkpt lat="42.188" lon="2.35826">
        <ele>1316.1</ele>
        <time>2018-11-26T15:14:15Z</time>
      </trkpt>
      <trkpt lat="42.18797" lon="2.35824">
        <ele>1315.1</ele>
        <time>2018-11-26T15:14:17Z</time>
      </trkpt>
      <trkpt lat="42.18795" lon="2.35824">
        <ele>1315.1</ele>
        <time>2018-11-26T15:14:18Z</time>
      </trkpt>
      <trkpt lat="42.18793" lon="2.35826">
        <ele>1315</ele>
        <time>2018-11-26T15:14:19Z</time>
      </trkpt>
      <trkpt lat="42.18791" lon="2.35828">
        <ele>1314</ele>
        <time>2018-11-26T15:14:19Z</time>
      </trkpt>
      <trkpt lat="42.18789" lon="2.3583">
        <ele>1312.7</ele>
        <time>2018-11-26T15:14:20Z</time>
      </trkpt>
      <trkpt lat="42.18787" lon="2.35831">
        <ele>1312</ele>
        <time>2018-11-26T15:14:21Z</time>
      </trkpt>
      <trkpt lat="42.18785" lon="2.35832">
        <ele>1312</ele>
        <time>2018-11-26T15:14:22Z</time>
      </trkpt>
      <trkpt lat="42.18783" lon="2.35833">
        <ele>1312</ele>
        <time>2018-11-26T15:14:23Z</time>
      </trkpt>
      <trkpt lat="42.18781" lon="2.35834">
        <ele>1312.1</ele>
        <time>2018-11-26T15:14:24Z</time>
      </trkpt>
      <trkpt lat="42.18778" lon="2.35834">
        <ele>1312.1</ele>
        <time>2018-11-26T15:14:25Z</time>
      </trkpt>
      <trkpt lat="42.18776" lon="2.35833">
        <ele>1313.1</ele>
        <time>2018-11-26T15:14:26Z</time>
      </trkpt>
      <trkpt lat="42.18774" lon="2.35832">
        <ele>1313.1</ele>
        <time>2018-11-26T15:14:27Z</time>
      </trkpt>
      <trkpt lat="42.18771" lon="2.35831">
        <ele>1313.1</ele>
        <time>2018-11-26T15:14:28Z</time>
      </trkpt>
      <trkpt lat="42.18769" lon="2.3583">
        <ele>1312.8</ele>
        <time>2018-11-26T15:14:29Z</time>
      </trkpt>
      <trkpt lat="42.18767" lon="2.3583">
        <ele>1311.1</ele>
        <time>2018-11-26T15:14:30Z</time>
      </trkpt>
      <trkpt lat="42.18765" lon="2.35831">
        <ele>1310.1</ele>
        <time>2018-11-26T15:14:31Z</time>
      </trkpt>
      <trkpt lat="42.18763" lon="2.3583">
        <ele>1310.1</ele>
        <time>2018-11-26T15:14:31Z</time>
      </trkpt>
      <trkpt lat="42.18762" lon="2.35828">
        <ele>1308.8</ele>
        <time>2018-11-26T15:14:32Z</time>
      </trkpt>
      <trkpt lat="42.18759" lon="2.35827">
        <ele>1308</ele>
        <time>2018-11-26T15:14:33Z</time>
      </trkpt>
      <trkpt lat="42.18757" lon="2.35827">
        <ele>1306.8</ele>
        <time>2018-11-26T15:14:34Z</time>
      </trkpt>
      <trkpt lat="42.18755" lon="2.35827">
        <ele>1306.1</ele>
        <time>2018-11-26T15:14:35Z</time>
      </trkpt>
      <trkpt lat="42.18753" lon="2.35826">
        <ele>1306</ele>
        <time>2018-11-26T15:14:36Z</time>
      </trkpt>
      <trkpt lat="42.18751" lon="2.35825">
        <ele>1306</ele>
        <time>2018-11-26T15:14:37Z</time>
      </trkpt>
      <trkpt lat="42.18749" lon="2.35824">
        <ele>1305.8</ele>
        <time>2018-11-26T15:14:38Z</time>
      </trkpt>
      <trkpt lat="42.18748" lon="2.35823">
        <ele>1305.1</ele>
        <time>2018-11-26T15:14:38Z</time>
      </trkpt>
      <trkpt lat="42.18746" lon="2.35822">
        <ele>1305.2</ele>
        <time>2018-11-26T15:14:39Z</time>
      </trkpt>
      <trkpt lat="42.18743" lon="2.35821">
        <ele>1307</ele>
        <time>2018-11-26T15:14:40Z</time>
      </trkpt>
      <trkpt lat="42.18741" lon="2.35821">
        <ele>1307.1</ele>
        <time>2018-11-26T15:14:41Z</time>
      </trkpt>
      <trkpt lat="42.18739" lon="2.3582">
        <ele>1307.1</ele>
        <time>2018-11-26T15:14:42Z</time>
      </trkpt>
      <trkpt lat="42.18736" lon="2.35821">
        <ele>1307</ele>
        <time>2018-11-26T15:14:43Z</time>
      </trkpt>
      <trkpt lat="42.18734" lon="2.35822">
        <ele>1307.1</ele>
        <time>2018-11-26T15:14:44Z</time>
      </trkpt>
      <trkpt lat="42.18732" lon="2.35822">
        <ele>1309.1</ele>
        <time>2018-11-26T15:14:45Z</time>
      </trkpt>
      <trkpt lat="42.1873" lon="2.35821">
        <ele>1309</ele>
        <time>2018-11-26T15:14:46Z</time>
      </trkpt>
      <trkpt lat="42.18728" lon="2.35819">
        <ele>1309.1</ele>
        <time>2018-11-26T15:14:46Z</time>
      </trkpt>
      <trkpt lat="42.18726" lon="2.35816">
        <ele>1310.1</ele>
        <time>2018-11-26T15:14:48Z</time>
      </trkpt>
      <trkpt lat="42.18724" lon="2.35815">
        <ele>1310</ele>
        <time>2018-11-26T15:14:48Z</time>
      </trkpt>
      <trkpt lat="42.18723" lon="2.35813">
        <ele>1311.1</ele>
        <time>2018-11-26T15:14:49Z</time>
      </trkpt>
      <trkpt lat="42.18721" lon="2.35813">
        <ele>1312.2</ele>
        <time>2018-11-26T15:14:50Z</time>
      </trkpt>
      <trkpt lat="42.18719" lon="2.35812">
        <ele>1313.1</ele>
        <time>2018-11-26T15:14:51Z</time>
      </trkpt>
      <trkpt lat="42.18716" lon="2.35812">
        <ele>1313.1</ele>
        <time>2018-11-26T15:14:52Z</time>
      </trkpt>
      <trkpt lat="42.18714" lon="2.35811">
        <ele>1314.2</ele>
        <time>2018-11-26T15:14:53Z</time>
      </trkpt>
      <trkpt lat="42.18712" lon="2.3581">
        <ele>1316</ele>
        <time>2018-11-26T15:14:54Z</time>
      </trkpt>
      <trkpt lat="42.1871" lon="2.3581">
        <ele>1317</ele>
        <time>2018-11-26T15:14:55Z</time>
      </trkpt>
      <trkpt lat="42.18708" lon="2.35808">
        <ele>1316.8</ele>
        <time>2018-11-26T15:14:56Z</time>
      </trkpt>
      <trkpt lat="42.18707" lon="2.35805">
        <ele>1316.1</ele>
        <time>2018-11-26T15:14:56Z</time>
      </trkpt>
      <trkpt lat="42.18705" lon="2.35806">
        <ele>1315.1</ele>
        <time>2018-11-26T15:14:57Z</time>
      </trkpt>
      <trkpt lat="42.18703" lon="2.35807">
        <ele>1313</ele>
        <time>2018-11-26T15:14:58Z</time>
      </trkpt>
      <trkpt lat="42.18702" lon="2.35809">
        <ele>1311.9</ele>
        <time>2018-11-26T15:14:59Z</time>
      </trkpt>
      <trkpt lat="42.187" lon="2.3581">
        <ele>1311.1</ele>
        <time>2018-11-26T15:15:00Z</time>
      </trkpt>
      <trkpt lat="42.18698" lon="2.3581">
        <ele>1311.1</ele>
        <time>2018-11-26T15:15:01Z</time>
      </trkpt>
      <trkpt lat="42.18696" lon="2.35808">
        <ele>1310.1</ele>
        <time>2018-11-26T15:15:02Z</time>
      </trkpt>
      <trkpt lat="42.18693" lon="2.35807">
        <ele>1309.1</ele>
        <time>2018-11-26T15:15:03Z</time>
      </trkpt>
      <trkpt lat="42.18692" lon="2.35806">
        <ele>1309.1</ele>
        <time>2018-11-26T15:15:03Z</time>
      </trkpt>
      <trkpt lat="42.18689" lon="2.35806">
        <ele>1308.8</ele>
        <time>2018-11-26T15:15:04Z</time>
      </trkpt>
      <trkpt lat="42.18687" lon="2.35807">
        <ele>1307</ele>
        <time>2018-11-26T15:15:05Z</time>
      </trkpt>
      <trkpt lat="42.18685" lon="2.35806">
        <ele>1307.1</ele>
        <time>2018-11-26T15:15:06Z</time>
      </trkpt>
      <trkpt lat="42.18682" lon="2.35806">
        <ele>1307</ele>
        <time>2018-11-26T15:15:07Z</time>
      </trkpt>
      <trkpt lat="42.1868" lon="2.35808">
        <ele>1307</ele>
        <time>2018-11-26T15:15:08Z</time>
      </trkpt>
      <trkpt lat="42.18678" lon="2.35809">
        <ele>1307.1</ele>
        <time>2018-11-26T15:15:09Z</time>
      </trkpt>
      <trkpt lat="42.18676" lon="2.35812">
        <ele>1306.8</ele>
        <time>2018-11-26T15:15:10Z</time>
      </trkpt>
      <trkpt lat="42.18674" lon="2.3581">
        <ele>1305.8</ele>
        <time>2018-11-26T15:15:11Z</time>
      </trkpt>
      <trkpt lat="42.18672" lon="2.35808">
        <ele>1305</ele>
        <time>2018-11-26T15:15:12Z</time>
      </trkpt>
      <trkpt lat="42.18671" lon="2.35806">
        <ele>1305</ele>
        <time>2018-11-26T15:15:13Z</time>
      </trkpt>
      <trkpt lat="42.1867" lon="2.35805">
        <ele>1305</ele>
        <time>2018-11-26T15:15:13Z</time>
      </trkpt>
      <trkpt lat="42.18667" lon="2.35804">
        <ele>1305.1</ele>
        <time>2018-11-26T15:15:15Z</time>
      </trkpt>
      <trkpt lat="42.18665" lon="2.35802">
        <ele>1306</ele>
        <time>2018-11-26T15:15:16Z</time>
      </trkpt>
      <trkpt lat="42.18662" lon="2.358">
        <ele>1306</ele>
        <time>2018-11-26T15:15:17Z</time>
      </trkpt>
      <trkpt lat="42.1866" lon="2.35799">
        <ele>1306.1</ele>
        <time>2018-11-26T15:15:18Z</time>
      </trkpt>
      <trkpt lat="42.18658" lon="2.35798">
        <ele>1306.2</ele>
        <time>2018-11-26T15:15:19Z</time>
      </trkpt>
      <trkpt lat="42.18656" lon="2.35795">
        <ele>1307</ele>
        <time>2018-11-26T15:15:20Z</time>
      </trkpt>
      <trkpt lat="42.18654" lon="2.35791">
        <ele>1307</ele>
        <time>2018-11-26T15:15:21Z</time>
      </trkpt>
      <trkpt lat="42.18652" lon="2.3579">
        <ele>1307</ele>
        <time>2018-11-26T15:15:22Z</time>
      </trkpt>
      <trkpt lat="42.1865" lon="2.35788">
        <ele>1307.1</ele>
        <time>2018-11-26T15:15:23Z</time>
      </trkpt>
      <trkpt lat="42.18648" lon="2.35787">
        <ele>1309</ele>
        <time>2018-11-26T15:15:24Z</time>
      </trkpt>
      <trkpt lat="42.18646" lon="2.35785">
        <ele>1309</ele>
        <time>2018-11-26T15:15:25Z</time>
      </trkpt>
      <trkpt lat="42.18644" lon="2.35783">
        <ele>1309</ele>
        <time>2018-11-26T15:15:26Z</time>
      </trkpt>
      <trkpt lat="42.18642" lon="2.3578">
        <ele>1309</ele>
        <time>2018-11-26T15:15:27Z</time>
      </trkpt>
      <trkpt lat="42.18639" lon="2.3578">
        <ele>1309</ele>
        <time>2018-11-26T15:15:28Z</time>
      </trkpt>
      <trkpt lat="42.18637" lon="2.35778">
        <ele>1309</ele>
        <time>2018-11-26T15:15:29Z</time>
      </trkpt>
      <trkpt lat="42.18634" lon="2.35777">
        <ele>1308.1</ele>
        <time>2018-11-26T15:15:30Z</time>
      </trkpt>
      <trkpt lat="42.18632" lon="2.3578">
        <ele>1309.1</ele>
        <time>2018-11-26T15:15:31Z</time>
      </trkpt>
      <trkpt lat="42.1863" lon="2.35782">
        <ele>1309</ele>
        <time>2018-11-26T15:15:32Z</time>
      </trkpt>
      <trkpt lat="42.18627" lon="2.35783">
        <ele>1309</ele>
        <time>2018-11-26T15:15:34Z</time>
      </trkpt>
      <trkpt lat="42.18625" lon="2.35781">
        <ele>1309.2</ele>
        <time>2018-11-26T15:15:35Z</time>
      </trkpt>
      <trkpt lat="42.18623" lon="2.35779">
        <ele>1310</ele>
        <time>2018-11-26T15:15:36Z</time>
      </trkpt>
      <trkpt lat="42.1862" lon="2.35777">
        <ele>1310</ele>
        <time>2018-11-26T15:15:37Z</time>
      </trkpt>
      <trkpt lat="42.18618" lon="2.35775">
        <ele>1310</ele>
        <time>2018-11-26T15:15:38Z</time>
      </trkpt>
      <trkpt lat="42.18617" lon="2.35773">
        <ele>1310.2</ele>
        <time>2018-11-26T15:15:39Z</time>
      </trkpt>
      <trkpt lat="42.18615" lon="2.35772">
        <ele>1312.1</ele>
        <time>2018-11-26T15:15:40Z</time>
      </trkpt>
      <trkpt lat="42.18613" lon="2.35773">
        <ele>1312</ele>
        <time>2018-11-26T15:15:41Z</time>
      </trkpt>
      <trkpt lat="42.1861" lon="2.35775">
        <ele>1312</ele>
        <time>2018-11-26T15:15:42Z</time>
      </trkpt>
      <trkpt lat="42.18608" lon="2.35776">
        <ele>1312.2</ele>
        <time>2018-11-26T15:15:43Z</time>
      </trkpt>
      <trkpt lat="42.18606" lon="2.35777">
        <ele>1314.1</ele>
        <time>2018-11-26T15:15:44Z</time>
      </trkpt>
      <trkpt lat="42.18603" lon="2.35776">
        <ele>1314.1</ele>
        <time>2018-11-26T15:15:45Z</time>
      </trkpt>
      <trkpt lat="42.18601" lon="2.35775">
        <ele>1314</ele>
        <time>2018-11-26T15:15:46Z</time>
      </trkpt>
      <trkpt lat="42.18598" lon="2.35774">
        <ele>1315.1</ele>
        <time>2018-11-26T15:15:47Z</time>
      </trkpt>
      <trkpt lat="42.186" lon="2.35773">
        <ele>1315</ele>
        <time>2018-11-26T15:15:47Z</time>
      </trkpt>
      <trkpt lat="42.18601" lon="2.3577">
        <ele>1315.1</ele>
        <time>2018-11-26T15:15:48Z</time>
      </trkpt>
      <trkpt lat="42.18602" lon="2.35767">
        <ele>1314</ele>
        <time>2018-11-26T15:15:49Z</time>
      </trkpt>
      <trkpt lat="42.18603" lon="2.35763">
        <ele>1313.1</ele>
        <time>2018-11-26T15:15:51Z</time>
      </trkpt>
      <trkpt lat="42.18604" lon="2.35759">
        <ele>1313.3</ele>
        <time>2018-11-26T15:15:52Z</time>
      </trkpt>
      <trkpt lat="42.18604" lon="2.35755">
        <ele>1314</ele>
        <time>2018-11-26T15:15:53Z</time>
      </trkpt>
      <trkpt lat="42.18605" lon="2.35751">
        <ele>1314</ele>
        <time>2018-11-26T15:15:54Z</time>
      </trkpt>
      <trkpt lat="42.18605" lon="2.35747">
        <ele>1314.1</ele>
        <time>2018-11-26T15:15:55Z</time>
      </trkpt>
      <trkpt lat="42.18605" lon="2.35743">
        <ele>1315.2</ele>
        <time>2018-11-26T15:15:57Z</time>
      </trkpt>
      <trkpt lat="42.18604" lon="2.35739">
        <ele>1316</ele>
        <time>2018-11-26T15:15:58Z</time>
      </trkpt>
      <trkpt lat="42.18602" lon="2.35736">
        <ele>1316</ele>
        <time>2018-11-26T15:15:59Z</time>
      </trkpt>
      <trkpt lat="42.186" lon="2.35733">
        <ele>1316</ele>
        <time>2018-11-26T15:16:00Z</time>
      </trkpt>
      <trkpt lat="42.18598" lon="2.3573">
        <ele>1316.1</ele>
        <time>2018-11-26T15:16:01Z</time>
      </trkpt>
      <trkpt lat="42.18597" lon="2.35727">
        <ele>1316</ele>
        <time>2018-11-26T15:16:02Z</time>
      </trkpt>
      <trkpt lat="42.18597" lon="2.35723">
        <ele>1316.4</ele>
        <time>2018-11-26T15:16:04Z</time>
      </trkpt>
      <trkpt lat="42.18596" lon="2.35721">
        <ele>1317</ele>
        <time>2018-11-26T15:16:04Z</time>
      </trkpt>
      <trkpt lat="42.18594" lon="2.35719">
        <ele>1317.1</ele>
        <time>2018-11-26T15:16:05Z</time>
      </trkpt>
      <trkpt lat="42.18593" lon="2.35715">
        <ele>1317.1</ele>
        <time>2018-11-26T15:16:07Z</time>
      </trkpt>
      <trkpt lat="42.18593" lon="2.35711">
        <ele>1318</ele>
        <time>2018-11-26T15:16:08Z</time>
      </trkpt>
      <trkpt lat="42.18591" lon="2.35707">
        <ele>1318.2</ele>
        <time>2018-11-26T15:16:09Z</time>
      </trkpt>
      <trkpt lat="42.1859" lon="2.35704">
        <ele>1319</ele>
        <time>2018-11-26T15:16:10Z</time>
      </trkpt>
      <trkpt lat="42.18589" lon="2.357">
        <ele>1319.1</ele>
        <time>2018-11-26T15:16:11Z</time>
      </trkpt>
      <trkpt lat="42.18588" lon="2.35696">
        <ele>1320</ele>
        <time>2018-11-26T15:16:12Z</time>
      </trkpt>
      <trkpt lat="42.18588" lon="2.35692">
        <ele>1320.1</ele>
        <time>2018-11-26T15:16:14Z</time>
      </trkpt>
      <trkpt lat="42.18587" lon="2.35688">
        <ele>1320</ele>
        <time>2018-11-26T15:16:15Z</time>
      </trkpt>
      <trkpt lat="42.18586" lon="2.35684">
        <ele>1321</ele>
        <time>2018-11-26T15:16:16Z</time>
      </trkpt>
      <trkpt lat="42.18586" lon="2.3568">
        <ele>1321.1</ele>
        <time>2018-11-26T15:16:17Z</time>
      </trkpt>
      <trkpt lat="42.18585" lon="2.35676">
        <ele>1321</ele>
        <time>2018-11-26T15:16:19Z</time>
      </trkpt>
      <trkpt lat="42.18585" lon="2.35672">
        <ele>1322</ele>
        <time>2018-11-26T15:16:20Z</time>
      </trkpt>
      <trkpt lat="42.18584" lon="2.35667">
        <ele>1322.1</ele>
        <time>2018-11-26T15:16:21Z</time>
      </trkpt>
      <trkpt lat="42.18584" lon="2.35663">
        <ele>1323</ele>
        <time>2018-11-26T15:16:22Z</time>
      </trkpt>
      <trkpt lat="42.18584" lon="2.35659">
        <ele>1323</ele>
        <time>2018-11-26T15:16:24Z</time>
      </trkpt>
      <trkpt lat="42.18584" lon="2.35655">
        <ele>1323.1</ele>
        <time>2018-11-26T15:16:25Z</time>
      </trkpt>
      <trkpt lat="42.18585" lon="2.35651">
        <ele>1325.1</ele>
        <time>2018-11-26T15:16:26Z</time>
      </trkpt>
      <trkpt lat="42.18585" lon="2.35647">
        <ele>1325.1</ele>
        <time>2018-11-26T15:16:27Z</time>
      </trkpt>
      <trkpt lat="42.18585" lon="2.35643">
        <ele>1325.1</ele>
        <time>2018-11-26T15:16:28Z</time>
      </trkpt>
      <trkpt lat="42.18585" lon="2.35639">
        <ele>1326.1</ele>
        <time>2018-11-26T15:16:30Z</time>
      </trkpt>
      <trkpt lat="42.18584" lon="2.35635">
        <ele>1326.2</ele>
        <time>2018-11-26T15:16:31Z</time>
      </trkpt>
      <trkpt lat="42.18584" lon="2.35631">
        <ele>1327.2</ele>
        <time>2018-11-26T15:16:32Z</time>
      </trkpt>
      <trkpt lat="42.18584" lon="2.35628">
        <ele>1328.1</ele>
        <time>2018-11-26T15:16:33Z</time>
      </trkpt>
      <trkpt lat="42.18584" lon="2.35625">
        <ele>1328.1</ele>
        <time>2018-11-26T15:16:34Z</time>
      </trkpt>
      <trkpt lat="42.18583" lon="2.35622">
        <ele>1330</ele>
        <time>2018-11-26T15:16:35Z</time>
      </trkpt>
      <trkpt lat="42.18581" lon="2.3562">
        <ele>1330</ele>
        <time>2018-11-26T15:16:36Z</time>
      </trkpt>
      <trkpt lat="42.18581" lon="2.35617">
        <ele>1330.1</ele>
        <time>2018-11-26T15:16:36Z</time>
      </trkpt>
      <trkpt lat="42.1858" lon="2.35615">
        <ele>1330.1</ele>
        <time>2018-11-26T15:16:37Z</time>
      </trkpt>
      <trkpt lat="42.18578" lon="2.35613">
        <ele>1331</ele>
        <time>2018-11-26T15:16:38Z</time>
      </trkpt>
      <trkpt lat="42.18577" lon="2.3561">
        <ele>1331</ele>
        <time>2018-11-26T15:16:39Z</time>
      </trkpt>
      <trkpt lat="42.18576" lon="2.35608">
        <ele>1332.1</ele>
        <time>2018-11-26T15:16:40Z</time>
      </trkpt>
      <trkpt lat="42.18575" lon="2.35606">
        <ele>1332.1</ele>
        <time>2018-11-26T15:16:41Z</time>
      </trkpt>
      <trkpt lat="42.18573" lon="2.35603">
        <ele>1332</ele>
        <time>2018-11-26T15:16:42Z</time>
      </trkpt>
      <trkpt lat="42.18573" lon="2.356">
        <ele>1333</ele>
        <time>2018-11-26T15:16:42Z</time>
      </trkpt>
      <trkpt lat="42.18573" lon="2.35597">
        <ele>1333.3</ele>
        <time>2018-11-26T15:16:43Z</time>
      </trkpt>
      <trkpt lat="42.18572" lon="2.35594">
        <ele>1334.1</ele>
        <time>2018-11-26T15:16:44Z</time>
      </trkpt>
      <trkpt lat="42.18572" lon="2.35591">
        <ele>1334</ele>
        <time>2018-11-26T15:16:45Z</time>
      </trkpt>
      <trkpt lat="42.18571" lon="2.35588">
        <ele>1335.1</ele>
        <time>2018-11-26T15:16:46Z</time>
      </trkpt>
      <trkpt lat="42.18571" lon="2.35585">
        <ele>1336.1</ele>
        <time>2018-11-26T15:16:47Z</time>
      </trkpt>
      <trkpt lat="42.18569" lon="2.35582">
        <ele>1336</ele>
        <time>2018-11-26T15:16:48Z</time>
      </trkpt>
      <trkpt lat="42.18568" lon="2.3558">
        <ele>1336</ele>
        <time>2018-11-26T15:16:49Z</time>
      </trkpt>
      <trkpt lat="42.18567" lon="2.35577">
        <ele>1336.1</ele>
        <time>2018-11-26T15:16:50Z</time>
      </trkpt>
      <trkpt lat="42.18565" lon="2.35574">
        <ele>1338</ele>
        <time>2018-11-26T15:16:51Z</time>
      </trkpt>
      <trkpt lat="42.18564" lon="2.35571">
        <ele>1338</ele>
        <time>2018-11-26T15:16:52Z</time>
      </trkpt>
      <trkpt lat="42.18563" lon="2.35568">
        <ele>1338.1</ele>
        <time>2018-11-26T15:16:53Z</time>
      </trkpt>
      <trkpt lat="42.18563" lon="2.35565">
        <ele>1339.1</ele>
        <time>2018-11-26T15:16:54Z</time>
      </trkpt>
      <trkpt lat="42.18562" lon="2.35562">
        <ele>1339</ele>
        <time>2018-11-26T15:16:55Z</time>
      </trkpt>
      <trkpt lat="42.18561" lon="2.35558">
        <ele>1339.1</ele>
        <time>2018-11-26T15:16:56Z</time>
      </trkpt>
      <trkpt lat="42.1856" lon="2.35555">
        <ele>1339</ele>
        <time>2018-11-26T15:16:57Z</time>
      </trkpt>
      <trkpt lat="42.18558" lon="2.35551">
        <ele>1339</ele>
        <time>2018-11-26T15:16:59Z</time>
      </trkpt>
      <trkpt lat="42.18557" lon="2.35547">
        <ele>1339</ele>
        <time>2018-11-26T15:17:00Z</time>
      </trkpt>
      <trkpt lat="42.18555" lon="2.35543">
        <ele>1340</ele>
        <time>2018-11-26T15:17:01Z</time>
      </trkpt>
      <trkpt lat="42.18553" lon="2.35541">
        <ele>1340</ele>
        <time>2018-11-26T15:17:02Z</time>
      </trkpt>
      <trkpt lat="42.18552" lon="2.35537">
        <ele>1340.2</ele>
        <time>2018-11-26T15:17:03Z</time>
      </trkpt>
      <trkpt lat="42.1855" lon="2.35534">
        <ele>1341.1</ele>
        <time>2018-11-26T15:17:04Z</time>
      </trkpt>
      <trkpt lat="42.18549" lon="2.35531">
        <ele>1341.1</ele>
        <time>2018-11-26T15:17:06Z</time>
      </trkpt>
      <trkpt lat="42.18547" lon="2.35528">
        <ele>1341</ele>
        <time>2018-11-26T15:17:07Z</time>
      </trkpt>
      <trkpt lat="42.18545" lon="2.35526">
        <ele>1341.1</ele>
        <time>2018-11-26T15:17:08Z</time>
      </trkpt>
      <trkpt lat="42.18543" lon="2.35524">
        <ele>1342.1</ele>
        <time>2018-11-26T15:17:09Z</time>
      </trkpt>
      <trkpt lat="42.18541" lon="2.3552">
        <ele>1342</ele>
        <time>2018-11-26T15:17:10Z</time>
      </trkpt>
      <trkpt lat="42.18539" lon="2.35518">
        <ele>1341</ele>
        <time>2018-11-26T15:17:11Z</time>
      </trkpt>
      <trkpt lat="42.18537" lon="2.35516">
        <ele>1342</ele>
        <time>2018-11-26T15:17:12Z</time>
      </trkpt>
      <trkpt lat="42.18534" lon="2.35515">
        <ele>1342.3</ele>
        <time>2018-11-26T15:17:13Z</time>
      </trkpt>
      <trkpt lat="42.18532" lon="2.35514">
        <ele>1343.2</ele>
        <time>2018-11-26T15:17:14Z</time>
      </trkpt>
      <trkpt lat="42.1853" lon="2.35512">
        <ele>1345.1</ele>
        <time>2018-11-26T15:17:15Z</time>
      </trkpt>
      <trkpt lat="42.18527" lon="2.35511">
        <ele>1345</ele>
        <time>2018-11-26T15:17:16Z</time>
      </trkpt>
      <trkpt lat="42.18525" lon="2.35511">
        <ele>1345.1</ele>
        <time>2018-11-26T15:17:17Z</time>
      </trkpt>
      <trkpt lat="42.18524" lon="2.3551">
        <ele>1345.1</ele>
        <time>2018-11-26T15:17:18Z</time>
      </trkpt>
      <trkpt lat="42.18522" lon="2.35509">
        <ele>1345.1</ele>
        <time>2018-11-26T15:17:18Z</time>
      </trkpt>
      <trkpt lat="42.18521" lon="2.35507">
        <ele>1346</ele>
        <time>2018-11-26T15:17:19Z</time>
      </trkpt>
      <trkpt lat="42.18519" lon="2.35504">
        <ele>1346</ele>
        <time>2018-11-26T15:17:20Z</time>
      </trkpt>
      <trkpt lat="42.18516" lon="2.35502">
        <ele>1346.1</ele>
        <time>2018-11-26T15:17:22Z</time>
      </trkpt>
      <trkpt lat="42.18514" lon="2.355">
        <ele>1347.1</ele>
        <time>2018-11-26T15:17:23Z</time>
      </trkpt>
      <trkpt lat="42.18512" lon="2.35497">
        <ele>1348</ele>
        <time>2018-11-26T15:17:24Z</time>
      </trkpt>
      <trkpt lat="42.18511" lon="2.35496">
        <ele>1348.2</ele>
        <time>2018-11-26T15:17:24Z</time>
      </trkpt>
      <trkpt lat="42.18509" lon="2.35494">
        <ele>1349.1</ele>
        <time>2018-11-26T15:17:25Z</time>
      </trkpt>
      <trkpt lat="42.18506" lon="2.35493">
        <ele>1349</ele>
        <time>2018-11-26T15:17:26Z</time>
      </trkpt>
      <trkpt lat="42.18504" lon="2.35493">
        <ele>1349.1</ele>
        <time>2018-11-26T15:17:27Z</time>
      </trkpt>
      <trkpt lat="42.18502" lon="2.35492">
        <ele>1349</ele>
        <time>2018-11-26T15:17:28Z</time>
      </trkpt>
      <trkpt lat="42.185" lon="2.35493">
        <ele>1350.1</ele>
        <time>2018-11-26T15:17:29Z</time>
      </trkpt>
      <trkpt lat="42.18497" lon="2.35493">
        <ele>1350.1</ele>
        <time>2018-11-26T15:17:30Z</time>
      </trkpt>
      <trkpt lat="42.18494" lon="2.35494">
        <ele>1350.1</ele>
        <time>2018-11-26T15:17:31Z</time>
      </trkpt>
      <trkpt lat="42.18492" lon="2.35494">
        <ele>1350</ele>
        <time>2018-11-26T15:17:32Z</time>
      </trkpt>
      <trkpt lat="42.18489" lon="2.35496">
        <ele>1349.1</ele>
        <time>2018-11-26T15:17:33Z</time>
      </trkpt>
      <trkpt lat="42.18487" lon="2.35497">
        <ele>1349</ele>
        <time>2018-11-26T15:17:34Z</time>
      </trkpt>
      <trkpt lat="42.18485" lon="2.35498">
        <ele>1350.1</ele>
        <time>2018-11-26T15:17:35Z</time>
      </trkpt>
      <trkpt lat="42.18482" lon="2.355">
        <ele>1351</ele>
        <time>2018-11-26T15:17:36Z</time>
      </trkpt>
      <trkpt lat="42.1848" lon="2.355">
        <ele>1351.2</ele>
        <time>2018-11-26T15:17:38Z</time>
      </trkpt>
      <trkpt lat="42.18477" lon="2.35501">
        <ele>1353.3</ele>
        <time>2018-11-26T15:17:39Z</time>
      </trkpt>
      <trkpt lat="42.18475" lon="2.35503">
        <ele>1354.1</ele>
        <time>2018-11-26T15:17:40Z</time>
      </trkpt>
      <trkpt lat="42.18473" lon="2.35506">
        <ele>1354.1</ele>
        <time>2018-11-26T15:17:41Z</time>
      </trkpt>
      <trkpt lat="42.18472" lon="2.3551">
        <ele>1354</ele>
        <time>2018-11-26T15:17:42Z</time>
      </trkpt>
      <trkpt lat="42.18472" lon="2.35513">
        <ele>1355</ele>
        <time>2018-11-26T15:17:43Z</time>
      </trkpt>
      <trkpt lat="42.18472" lon="2.35516">
        <ele>1356</ele>
        <time>2018-11-26T15:17:44Z</time>
      </trkpt>
      <trkpt lat="42.1847" lon="2.35518">
        <ele>1356</ele>
        <time>2018-11-26T15:17:45Z</time>
      </trkpt>
      <trkpt lat="42.18468" lon="2.35517">
        <ele>1356</ele>
        <time>2018-11-26T15:17:46Z</time>
      </trkpt>
      <trkpt lat="42.18466" lon="2.35514">
        <ele>1356.1</ele>
        <time>2018-11-26T15:17:47Z</time>
      </trkpt>
      <trkpt lat="42.18464" lon="2.35512">
        <ele>1358</ele>
        <time>2018-11-26T15:17:48Z</time>
      </trkpt>
      <trkpt lat="42.18462" lon="2.3551">
        <ele>1358</ele>
        <time>2018-11-26T15:17:49Z</time>
      </trkpt>
      <trkpt lat="42.1846" lon="2.35508">
        <ele>1358.1</ele>
        <time>2018-11-26T15:17:50Z</time>
      </trkpt>
      <trkpt lat="42.18458" lon="2.35507">
        <ele>1359.1</ele>
        <time>2018-11-26T15:17:50Z</time>
      </trkpt>
      <trkpt lat="42.18456" lon="2.35507">
        <ele>1359.1</ele>
        <time>2018-11-26T15:17:51Z</time>
      </trkpt>
      <trkpt lat="42.18454" lon="2.35508">
        <ele>1360.1</ele>
        <time>2018-11-26T15:17:52Z</time>
      </trkpt>
      <trkpt lat="42.18452" lon="2.35511">
        <ele>1360</ele>
        <time>2018-11-26T15:17:53Z</time>
      </trkpt>
      <trkpt lat="42.1845" lon="2.35513">
        <ele>1360.1</ele>
        <time>2018-11-26T15:17:54Z</time>
      </trkpt>
      <trkpt lat="42.18448" lon="2.35514">
        <ele>1360</ele>
        <time>2018-11-26T15:17:55Z</time>
      </trkpt>
      <trkpt lat="42.18446" lon="2.35515">
        <ele>1360.1</ele>
        <time>2018-11-26T15:17:56Z</time>
      </trkpt>
      <trkpt lat="42.18444" lon="2.35515">
        <ele>1360.2</ele>
        <time>2018-11-26T15:17:57Z</time>
      </trkpt>
      <trkpt lat="42.18442" lon="2.35514">
        <ele>1362</ele>
        <time>2018-11-26T15:17:58Z</time>
      </trkpt>
      <trkpt lat="42.1844" lon="2.35512">
        <ele>1362</ele>
        <time>2018-11-26T15:17:59Z</time>
      </trkpt>
      <trkpt lat="42.18438" lon="2.35509">
        <ele>1362.1</ele>
        <time>2018-11-26T15:18:00Z</time>
      </trkpt>
      <trkpt lat="42.18436" lon="2.35507">
        <ele>1362.4</ele>
        <time>2018-11-26T15:18:01Z</time>
      </trkpt>
      <trkpt lat="42.18434" lon="2.35504">
        <ele>1363</ele>
        <time>2018-11-26T15:18:02Z</time>
      </trkpt>
      <trkpt lat="42.18432" lon="2.35502">
        <ele>1363.1</ele>
        <time>2018-11-26T15:18:03Z</time>
      </trkpt>
      <trkpt lat="42.1843" lon="2.35501">
        <ele>1363.1</ele>
        <time>2018-11-26T15:18:04Z</time>
      </trkpt>
      <trkpt lat="42.18428" lon="2.35502">
        <ele>1363.1</ele>
        <time>2018-11-26T15:18:05Z</time>
      </trkpt>
      <trkpt lat="42.18426" lon="2.35501">
        <ele>1365.1</ele>
        <time>2018-11-26T15:18:06Z</time>
      </trkpt>
      <trkpt lat="42.18424" lon="2.35499">
        <ele>1365.1</ele>
        <time>2018-11-26T15:18:07Z</time>
      </trkpt>
      <trkpt lat="42.18421" lon="2.35498">
        <ele>1365.1</ele>
        <time>2018-11-26T15:18:08Z</time>
      </trkpt>
      <trkpt lat="42.18419" lon="2.35495">
        <ele>1365.2</ele>
        <time>2018-11-26T15:18:09Z</time>
      </trkpt>
      <trkpt lat="42.18416" lon="2.35493">
        <ele>1366.1</ele>
        <time>2018-11-26T15:18:10Z</time>
      </trkpt>
      <trkpt lat="42.18413" lon="2.35491">
        <ele>1367</ele>
        <time>2018-11-26T15:18:11Z</time>
      </trkpt>
      <trkpt lat="42.18412" lon="2.3549">
        <ele>1367.1</ele>
        <time>2018-11-26T15:18:12Z</time>
      </trkpt>
      <trkpt lat="42.18409" lon="2.35487">
        <ele>1367.2</ele>
        <time>2018-11-26T15:18:14Z</time>
      </trkpt>
      <trkpt lat="42.18406" lon="2.35486">
        <ele>1369</ele>
        <time>2018-11-26T15:18:15Z</time>
      </trkpt>
      <trkpt lat="42.18403" lon="2.35484">
        <ele>1369.2</ele>
        <time>2018-11-26T15:18:16Z</time>
      </trkpt>
      <trkpt lat="42.184" lon="2.35482">
        <ele>1371.1</ele>
        <time>2018-11-26T15:18:17Z</time>
      </trkpt>
      <trkpt lat="42.18398" lon="2.3548">
        <ele>1372.1</ele>
        <time>2018-11-26T15:18:19Z</time>
      </trkpt>
      <trkpt lat="42.18395" lon="2.3548">
        <ele>1372</ele>
        <time>2018-11-26T15:18:20Z</time>
      </trkpt>
      <trkpt lat="42.18392" lon="2.3548">
        <ele>1373</ele>
        <time>2018-11-26T15:18:21Z</time>
      </trkpt>
      <trkpt lat="42.1839" lon="2.3548">
        <ele>1373</ele>
        <time>2018-11-26T15:18:22Z</time>
      </trkpt>
      <trkpt lat="42.18387" lon="2.3548">
        <ele>1373</ele>
        <time>2018-11-26T15:18:23Z</time>
      </trkpt>
      <trkpt lat="42.18385" lon="2.35481">
        <ele>1373.2</ele>
        <time>2018-11-26T15:18:24Z</time>
      </trkpt>
      <trkpt lat="42.18383" lon="2.35478">
        <ele>1374</ele>
        <time>2018-11-26T15:18:25Z</time>
      </trkpt>
      <trkpt lat="42.18381" lon="2.35475">
        <ele>1375.1</ele>
        <time>2018-11-26T15:18:26Z</time>
      </trkpt>
      <trkpt lat="42.1838" lon="2.35472">
        <ele>1375.1</ele>
        <time>2018-11-26T15:18:27Z</time>
      </trkpt>
      <trkpt lat="42.18379" lon="2.35469">
        <ele>1375.1</ele>
        <time>2018-11-26T15:18:28Z</time>
      </trkpt>
      <trkpt lat="42.18378" lon="2.35465">
        <ele>1375</ele>
        <time>2018-11-26T15:18:29Z</time>
      </trkpt>
      <trkpt lat="42.18377" lon="2.35463">
        <ele>1374</ele>
        <time>2018-11-26T15:18:30Z</time>
      </trkpt>
      <trkpt lat="42.18376" lon="2.3546">
        <ele>1374</ele>
        <time>2018-11-26T15:18:31Z</time>
      </trkpt>
      <trkpt lat="42.18376" lon="2.35456">
        <ele>1374</ele>
        <time>2018-11-26T15:18:32Z</time>
      </trkpt>
      <trkpt lat="42.18375" lon="2.35452">
        <ele>1373.8</ele>
        <time>2018-11-26T15:18:33Z</time>
      </trkpt>
      <trkpt lat="42.18375" lon="2.35449">
        <ele>1373</ele>
        <time>2018-11-26T15:18:34Z</time>
      </trkpt>
      <trkpt lat="42.18376" lon="2.35446">
        <ele>1372.1</ele>
        <time>2018-11-26T15:18:35Z</time>
      </trkpt>
      <trkpt lat="42.18377" lon="2.35443">
        <ele>1372.1</ele>
        <time>2018-11-26T15:18:36Z</time>
      </trkpt>
      <trkpt lat="42.18376" lon="2.35438">
        <ele>1373</ele>
        <time>2018-11-26T15:18:37Z</time>
      </trkpt>
      <trkpt lat="42.18373" lon="2.35435">
        <ele>1373.1</ele>
        <time>2018-11-26T15:18:39Z</time>
      </trkpt>
      <trkpt lat="42.18372" lon="2.35433">
        <ele>1374.1</ele>
        <time>2018-11-26T15:18:40Z</time>
      </trkpt>
      <trkpt lat="42.1837" lon="2.3543">
        <ele>1374.1</ele>
        <time>2018-11-26T15:18:41Z</time>
      </trkpt>
      <trkpt lat="42.18367" lon="2.35429">
        <ele>1374.1</ele>
        <time>2018-11-26T15:18:42Z</time>
      </trkpt>
      <trkpt lat="42.18365" lon="2.35429">
        <ele>1375.1</ele>
        <time>2018-11-26T15:18:43Z</time>
      </trkpt>
      <trkpt lat="42.18364" lon="2.35428">
        <ele>1375.1</ele>
        <time>2018-11-26T15:18:43Z</time>
      </trkpt>
      <trkpt lat="42.18362" lon="2.35426">
        <ele>1375.1</ele>
        <time>2018-11-26T15:18:44Z</time>
      </trkpt>
      <trkpt lat="42.18359" lon="2.35423">
        <ele>1375.1</ele>
        <time>2018-11-26T15:18:46Z</time>
      </trkpt>
      <trkpt lat="42.18358" lon="2.3542">
        <ele>1376</ele>
        <time>2018-11-26T15:18:47Z</time>
      </trkpt>
      <trkpt lat="42.18356" lon="2.35416">
        <ele>1376.1</ele>
        <time>2018-11-26T15:18:48Z</time>
      </trkpt>
      <trkpt lat="42.18354" lon="2.35413">
        <ele>1376</ele>
        <time>2018-11-26T15:18:49Z</time>
      </trkpt>
      <trkpt lat="42.18352" lon="2.3541">
        <ele>1376</ele>
        <time>2018-11-26T15:18:51Z</time>
      </trkpt>
      <trkpt lat="42.18351" lon="2.35406">
        <ele>1376</ele>
        <time>2018-11-26T15:18:52Z</time>
      </trkpt>
      <trkpt lat="42.1835" lon="2.35402">
        <ele>1376</ele>
        <time>2018-11-26T15:18:53Z</time>
      </trkpt>
      <trkpt lat="42.18348" lon="2.35399">
        <ele>1376</ele>
        <time>2018-11-26T15:18:54Z</time>
      </trkpt>
      <trkpt lat="42.18347" lon="2.35395">
        <ele>1376</ele>
        <time>2018-11-26T15:18:56Z</time>
      </trkpt>
      <trkpt lat="42.18345" lon="2.35391">
        <ele>1376</ele>
        <time>2018-11-26T15:18:57Z</time>
      </trkpt>
      <trkpt lat="42.18343" lon="2.35387">
        <ele>1376</ele>
        <time>2018-11-26T15:18:58Z</time>
      </trkpt>
      <trkpt lat="42.18342" lon="2.35382">
        <ele>1376.1</ele>
        <time>2018-11-26T15:19:00Z</time>
      </trkpt>
      <trkpt lat="42.18341" lon="2.35378">
        <ele>1376.1</ele>
        <time>2018-11-26T15:19:01Z</time>
      </trkpt>
      <trkpt lat="42.18341" lon="2.35375">
        <ele>1376</ele>
        <time>2018-11-26T15:19:02Z</time>
      </trkpt>
      <trkpt lat="42.1834" lon="2.35372">
        <ele>1376.1</ele>
        <time>2018-11-26T15:19:03Z</time>
      </trkpt>
      <trkpt lat="42.18339" lon="2.35369">
        <ele>1376</ele>
        <time>2018-11-26T15:19:04Z</time>
      </trkpt>
      <trkpt lat="42.18337" lon="2.35367">
        <ele>1376</ele>
        <time>2018-11-26T15:19:05Z</time>
      </trkpt>
      <trkpt lat="42.18335" lon="2.35365">
        <ele>1376.1</ele>
        <time>2018-11-26T15:19:06Z</time>
      </trkpt>
      <trkpt lat="42.18333" lon="2.35364">
        <ele>1376.1</ele>
        <time>2018-11-26T15:19:07Z</time>
      </trkpt>
      <trkpt lat="42.18332" lon="2.35362">
        <ele>1376.1</ele>
        <time>2018-11-26T15:19:07Z</time>
      </trkpt>
      <trkpt lat="42.18329" lon="2.35359">
        <ele>1376.1</ele>
        <time>2018-11-26T15:19:09Z</time>
      </trkpt>
      <trkpt lat="42.18328" lon="2.35357">
        <ele>1376.1</ele>
        <time>2018-11-26T15:19:10Z</time>
      </trkpt>
      <trkpt lat="42.18325" lon="2.35354">
        <ele>1377.1</ele>
        <time>2018-11-26T15:19:11Z</time>
      </trkpt>
      <trkpt lat="42.18324" lon="2.35352">
        <ele>1377.1</ele>
        <time>2018-11-26T15:19:12Z</time>
      </trkpt>
      <trkpt lat="42.18322" lon="2.35351">
        <ele>1377</ele>
        <time>2018-11-26T15:19:13Z</time>
      </trkpt>
      <trkpt lat="42.1832" lon="2.35349">
        <ele>1378.1</ele>
        <time>2018-11-26T15:19:14Z</time>
      </trkpt>
      <trkpt lat="42.18318" lon="2.35347">
        <ele>1378.1</ele>
        <time>2018-11-26T15:19:14Z</time>
      </trkpt>
      <trkpt lat="42.18316" lon="2.35345">
        <ele>1378</ele>
        <time>2018-11-26T15:19:15Z</time>
      </trkpt>
      <trkpt lat="42.18315" lon="2.35342">
        <ele>1378</ele>
        <time>2018-11-26T15:19:16Z</time>
      </trkpt>
      <trkpt lat="42.18312" lon="2.35339">
        <ele>1378.1</ele>
        <time>2018-11-26T15:19:18Z</time>
      </trkpt>
      <trkpt lat="42.1831" lon="2.35335">
        <ele>1378</ele>
        <time>2018-11-26T15:19:19Z</time>
      </trkpt>
      <trkpt lat="42.18308" lon="2.35332">
        <ele>1378.1</ele>
        <time>2018-11-26T15:19:20Z</time>
      </trkpt>
      <trkpt lat="42.18307" lon="2.35329">
        <ele>1378.1</ele>
        <time>2018-11-26T15:19:22Z</time>
      </trkpt>
      <trkpt lat="42.18305" lon="2.35326">
        <ele>1378</ele>
        <time>2018-11-26T15:19:23Z</time>
      </trkpt>
      <trkpt lat="42.18303" lon="2.35322">
        <ele>1379.1</ele>
        <time>2018-11-26T15:19:24Z</time>
      </trkpt>
      <trkpt lat="42.18302" lon="2.35319">
        <ele>1379.1</ele>
        <time>2018-11-26T15:19:25Z</time>
      </trkpt>
      <trkpt lat="42.183" lon="2.35315">
        <ele>1379</ele>
        <time>2018-11-26T15:19:26Z</time>
      </trkpt>
      <trkpt lat="42.18298" lon="2.35312">
        <ele>1379</ele>
        <time>2018-11-26T15:19:28Z</time>
      </trkpt>
      <trkpt lat="42.18295" lon="2.3531">
        <ele>1379.1</ele>
        <time>2018-11-26T15:19:29Z</time>
      </trkpt>
      <trkpt lat="42.18292" lon="2.35309">
        <ele>1379.1</ele>
        <time>2018-11-26T15:19:30Z</time>
      </trkpt>
      <trkpt lat="42.1829" lon="2.35307">
        <ele>1380</ele>
        <time>2018-11-26T15:19:31Z</time>
      </trkpt>
      <trkpt lat="42.18287" lon="2.35305">
        <ele>1380</ele>
        <time>2018-11-26T15:19:33Z</time>
      </trkpt>
      <trkpt lat="42.18285" lon="2.35304">
        <ele>1381.1</ele>
        <time>2018-11-26T15:19:33Z</time>
      </trkpt>
      <trkpt lat="42.18282" lon="2.35303">
        <ele>1381.1</ele>
        <time>2018-11-26T15:19:35Z</time>
      </trkpt>
      <trkpt lat="42.1828" lon="2.35304">
        <ele>1382.1</ele>
        <time>2018-11-26T15:19:35Z</time>
      </trkpt>
      <trkpt lat="42.18278" lon="2.35304">
        <ele>1382</ele>
        <time>2018-11-26T15:19:36Z</time>
      </trkpt>
      <trkpt lat="42.18276" lon="2.35303">
        <ele>1382.1</ele>
        <time>2018-11-26T15:19:37Z</time>
      </trkpt>
      <trkpt lat="42.18273" lon="2.35302">
        <ele>1383.1</ele>
        <time>2018-11-26T15:19:38Z</time>
      </trkpt>
      <trkpt lat="42.18271" lon="2.35301">
        <ele>1383.1</ele>
        <time>2018-11-26T15:19:39Z</time>
      </trkpt>
      <trkpt lat="42.18269" lon="2.35302">
        <ele>1383</ele>
        <time>2018-11-26T15:19:40Z</time>
      </trkpt>
      <trkpt lat="42.18266" lon="2.35303">
        <ele>1382.1</ele>
        <time>2018-11-26T15:19:41Z</time>
      </trkpt>
      <trkpt lat="42.18263" lon="2.35304">
        <ele>1382</ele>
        <time>2018-11-26T15:19:43Z</time>
      </trkpt>
      <trkpt lat="42.1826" lon="2.35305">
        <ele>1382</ele>
        <time>2018-11-26T15:19:44Z</time>
      </trkpt>
      <trkpt lat="42.18258" lon="2.35306">
        <ele>1382.1</ele>
        <time>2018-11-26T15:19:45Z</time>
      </trkpt>
      <trkpt lat="42.18255" lon="2.35307">
        <ele>1382.1</ele>
        <time>2018-11-26T15:19:46Z</time>
      </trkpt>
      <trkpt lat="42.18253" lon="2.35309">
        <ele>1382.1</ele>
        <time>2018-11-26T15:19:47Z</time>
      </trkpt>
      <trkpt lat="42.1825" lon="2.3531">
        <ele>1382</ele>
        <time>2018-11-26T15:19:48Z</time>
      </trkpt>
      <trkpt lat="42.18248" lon="2.35312">
        <ele>1382.1</ele>
        <time>2018-11-26T15:19:49Z</time>
      </trkpt>
      <trkpt lat="42.18245" lon="2.35314">
        <ele>1382.1</ele>
        <time>2018-11-26T15:19:50Z</time>
      </trkpt>
      <trkpt lat="42.18244" lon="2.35315">
        <ele>1382.1</ele>
        <time>2018-11-26T15:19:51Z</time>
      </trkpt>
      <trkpt lat="42.18242" lon="2.35317">
        <ele>1381.8</ele>
        <time>2018-11-26T15:19:52Z</time>
      </trkpt>
      <trkpt lat="42.1824" lon="2.35319">
        <ele>1381</ele>
        <time>2018-11-26T15:19:53Z</time>
      </trkpt>
      <trkpt lat="42.18238" lon="2.35321">
        <ele>1381.1</ele>
        <time>2018-11-26T15:19:54Z</time>
      </trkpt>
      <trkpt lat="42.18236" lon="2.35322">
        <ele>1381</ele>
        <time>2018-11-26T15:19:55Z</time>
      </trkpt>
      <trkpt lat="42.18234" lon="2.35324">
        <ele>1381</ele>
        <time>2018-11-26T15:19:56Z</time>
      </trkpt>
      <trkpt lat="42.18232" lon="2.35326">
        <ele>1380</ele>
        <time>2018-11-26T15:19:57Z</time>
      </trkpt>
      <trkpt lat="42.1823" lon="2.35328">
        <ele>1379</ele>
        <time>2018-11-26T15:19:58Z</time>
      </trkpt>
      <trkpt lat="42.18228" lon="2.35329">
        <ele>1379</ele>
        <time>2018-11-26T15:19:59Z</time>
      </trkpt>
      <trkpt lat="42.18226" lon="2.35329">
        <ele>1379</ele>
        <time>2018-11-26T15:19:59Z</time>
      </trkpt>
      <trkpt lat="42.18224" lon="2.3533">
        <ele>1379.1</ele>
        <time>2018-11-26T15:20:00Z</time>
      </trkpt>
      <trkpt lat="42.18222" lon="2.3533">
        <ele>1379</ele>
        <time>2018-11-26T15:20:01Z</time>
      </trkpt>
      <trkpt lat="42.1822" lon="2.35331">
        <ele>1379</ele>
        <time>2018-11-26T15:20:02Z</time>
      </trkpt>
      <trkpt lat="42.18218" lon="2.35332">
        <ele>1379</ele>
        <time>2018-11-26T15:20:03Z</time>
      </trkpt>
      <trkpt lat="42.18216" lon="2.35334">
        <ele>1379.1</ele>
        <time>2018-11-26T15:20:04Z</time>
      </trkpt>
      <trkpt lat="42.18214" lon="2.35335">
        <ele>1379</ele>
        <time>2018-11-26T15:20:05Z</time>
      </trkpt>
      <trkpt lat="42.18212" lon="2.35337">
        <ele>1380</ele>
        <time>2018-11-26T15:20:06Z</time>
      </trkpt>
      <trkpt lat="42.18209" lon="2.35339">
        <ele>1381</ele>
        <time>2018-11-26T15:20:07Z</time>
      </trkpt>
      <trkpt lat="42.18207" lon="2.35341">
        <ele>1381.1</ele>
        <time>2018-11-26T15:20:08Z</time>
      </trkpt>
      <trkpt lat="42.18204" lon="2.35342">
        <ele>1381</ele>
        <time>2018-11-26T15:20:09Z</time>
      </trkpt>
      <trkpt lat="42.18201" lon="2.35343">
        <ele>1381</ele>
        <time>2018-11-26T15:20:10Z</time>
      </trkpt>
      <trkpt lat="42.18199" lon="2.35343">
        <ele>1381.3</ele>
        <time>2018-11-26T15:20:11Z</time>
      </trkpt>
      <trkpt lat="42.18196" lon="2.35344">
        <ele>1382</ele>
        <time>2018-11-26T15:20:13Z</time>
      </trkpt>
      <trkpt lat="42.18193" lon="2.35346">
        <ele>1382.1</ele>
        <time>2018-11-26T15:20:14Z</time>
      </trkpt>
      <trkpt lat="42.1819" lon="2.35347">
        <ele>1382.1</ele>
        <time>2018-11-26T15:20:15Z</time>
      </trkpt>
      <trkpt lat="42.18187" lon="2.35348">
        <ele>1382.1</ele>
        <time>2018-11-26T15:20:16Z</time>
      </trkpt>
      <trkpt lat="42.18185" lon="2.3535">
        <ele>1382</ele>
        <time>2018-11-26T15:20:17Z</time>
      </trkpt>
      <trkpt lat="42.18182" lon="2.35352">
        <ele>1382</ele>
        <time>2018-11-26T15:20:19Z</time>
      </trkpt>
      <trkpt lat="42.18179" lon="2.35353">
        <ele>1382</ele>
        <time>2018-11-26T15:20:20Z</time>
      </trkpt>
      <trkpt lat="42.18176" lon="2.35353">
        <ele>1383</ele>
        <time>2018-11-26T15:20:21Z</time>
      </trkpt>
      <trkpt lat="42.18174" lon="2.35353">
        <ele>1383</ele>
        <time>2018-11-26T15:20:22Z</time>
      </trkpt>
      <trkpt lat="42.18172" lon="2.35354">
        <ele>1383</ele>
        <time>2018-11-26T15:20:23Z</time>
      </trkpt>
      <trkpt lat="42.18169" lon="2.35353">
        <ele>1382.9</ele>
        <time>2018-11-26T15:20:24Z</time>
      </trkpt>
      <trkpt lat="42.18167" lon="2.35354">
        <ele>1382</ele>
        <time>2018-11-26T15:20:25Z</time>
      </trkpt>
      <trkpt lat="42.18165" lon="2.35354">
        <ele>1382</ele>
        <time>2018-11-26T15:20:26Z</time>
      </trkpt>
      <trkpt lat="42.18163" lon="2.35353">
        <ele>1382.1</ele>
        <time>2018-11-26T15:20:26Z</time>
      </trkpt>
      <trkpt lat="42.18161" lon="2.35353">
        <ele>1382.1</ele>
        <time>2018-11-26T15:20:27Z</time>
      </trkpt>
      <trkpt lat="42.18159" lon="2.35355">
        <ele>1382</ele>
        <time>2018-11-26T15:20:28Z</time>
      </trkpt>
      <trkpt lat="42.18157" lon="2.35355">
        <ele>1382.1</ele>
        <time>2018-11-26T15:20:29Z</time>
      </trkpt>
      <trkpt lat="42.18154" lon="2.35354">
        <ele>1382.1</ele>
        <time>2018-11-26T15:20:30Z</time>
      </trkpt>
      <trkpt lat="42.18152" lon="2.35354">
        <ele>1382</ele>
        <time>2018-11-26T15:20:31Z</time>
      </trkpt>
      <trkpt lat="42.1815" lon="2.35353">
        <ele>1382</ele>
        <time>2018-11-26T15:20:32Z</time>
      </trkpt>
      <trkpt lat="42.18148" lon="2.35353">
        <ele>1381.8</ele>
        <time>2018-11-26T15:20:33Z</time>
      </trkpt>
      <trkpt lat="42.18146" lon="2.35354">
        <ele>1381</ele>
        <time>2018-11-26T15:20:33Z</time>
      </trkpt>
      <trkpt lat="42.18143" lon="2.35356">
        <ele>1381</ele>
        <time>2018-11-26T15:20:35Z</time>
      </trkpt>
      <trkpt lat="42.18141" lon="2.35358">
        <ele>1381.1</ele>
        <time>2018-11-26T15:20:35Z</time>
      </trkpt>
      <trkpt lat="42.18139" lon="2.35359">
        <ele>1381</ele>
        <time>2018-11-26T15:20:36Z</time>
      </trkpt>
      <trkpt lat="42.18137" lon="2.3536">
        <ele>1380.8</ele>
        <time>2018-11-26T15:20:37Z</time>
      </trkpt>
      <trkpt lat="42.18135" lon="2.35361">
        <ele>1380</ele>
        <time>2018-11-26T15:20:38Z</time>
      </trkpt>
      <trkpt lat="42.18133" lon="2.35363">
        <ele>1380</ele>
        <time>2018-11-26T15:20:39Z</time>
      </trkpt>
      <trkpt lat="42.18132" lon="2.35364">
        <ele>1380</ele>
        <time>2018-11-26T15:20:40Z</time>
      </trkpt>
      <trkpt lat="42.1813" lon="2.35367">
        <ele>1380</ele>
        <time>2018-11-26T15:20:41Z</time>
      </trkpt>
      <trkpt lat="42.18129" lon="2.35369">
        <ele>1379.8</ele>
        <time>2018-11-26T15:20:42Z</time>
      </trkpt>
      <trkpt lat="42.18128" lon="2.35372">
        <ele>1379</ele>
        <time>2018-11-26T15:20:42Z</time>
      </trkpt>
      <trkpt lat="42.18127" lon="2.35374">
        <ele>1379</ele>
        <time>2018-11-26T15:20:43Z</time>
      </trkpt>
      <trkpt lat="42.18125" lon="2.35377">
        <ele>1379</ele>
        <time>2018-11-26T15:20:44Z</time>
      </trkpt>
      <trkpt lat="42.18124" lon="2.35379">
        <ele>1378.1</ele>
        <time>2018-11-26T15:20:45Z</time>
      </trkpt>
      <trkpt lat="42.18122" lon="2.35381">
        <ele>1378.1</ele>
        <time>2018-11-26T15:20:46Z</time>
      </trkpt>
      <trkpt lat="42.18121" lon="2.35383">
        <ele>1378</ele>
        <time>2018-11-26T15:20:47Z</time>
      </trkpt>
      <trkpt lat="42.18119" lon="2.35385">
        <ele>1378</ele>
        <time>2018-11-26T15:20:48Z</time>
      </trkpt>
      <trkpt lat="42.18117" lon="2.35387">
        <ele>1378</ele>
        <time>2018-11-26T15:20:49Z</time>
      </trkpt>
      <trkpt lat="42.18116" lon="2.35389">
        <ele>1378.1</ele>
        <time>2018-11-26T15:20:50Z</time>
      </trkpt>
      <trkpt lat="42.18114" lon="2.35392">
        <ele>1378.1</ele>
        <time>2018-11-26T15:20:51Z</time>
      </trkpt>
      <trkpt lat="42.18113" lon="2.35395">
        <ele>1378.1</ele>
        <time>2018-11-26T15:20:52Z</time>
      </trkpt>
      <trkpt lat="42.18111" lon="2.35396">
        <ele>1378</ele>
        <time>2018-11-26T15:20:53Z</time>
      </trkpt>
      <trkpt lat="42.18109" lon="2.35398">
        <ele>1377.7</ele>
        <time>2018-11-26T15:20:54Z</time>
      </trkpt>
      <trkpt lat="42.18107" lon="2.354">
        <ele>1377</ele>
        <time>2018-11-26T15:20:54Z</time>
      </trkpt>
      <trkpt lat="42.18106" lon="2.35401">
        <ele>1377.1</ele>
        <time>2018-11-26T15:20:55Z</time>
      </trkpt>
      <trkpt lat="42.18103" lon="2.35402">
        <ele>1377</ele>
        <time>2018-11-26T15:20:56Z</time>
      </trkpt>
      <trkpt lat="42.18101" lon="2.35404">
        <ele>1377</ele>
        <time>2018-11-26T15:20:57Z</time>
      </trkpt>
      <trkpt lat="42.18099" lon="2.35405">
        <ele>1377.1</ele>
        <time>2018-11-26T15:20:58Z</time>
      </trkpt>
      <trkpt lat="42.18097" lon="2.35405">
        <ele>1376.9</ele>
        <time>2018-11-26T15:20:59Z</time>
      </trkpt>
      <trkpt lat="42.18096" lon="2.35406">
        <ele>1376</ele>
        <time>2018-11-26T15:20:59Z</time>
      </trkpt>
      <trkpt lat="42.18093" lon="2.35407">
        <ele>1376.1</ele>
        <time>2018-11-26T15:21:00Z</time>
      </trkpt>
      <trkpt lat="42.18091" lon="2.35407">
        <ele>1376.1</ele>
        <time>2018-11-26T15:21:01Z</time>
      </trkpt>
      <trkpt lat="42.18089" lon="2.35407">
        <ele>1376.1</ele>
        <time>2018-11-26T15:21:02Z</time>
      </trkpt>
      <trkpt lat="42.18087" lon="2.35409">
        <ele>1376</ele>
        <time>2018-11-26T15:21:03Z</time>
      </trkpt>
      <trkpt lat="42.18085" lon="2.35411">
        <ele>1376</ele>
        <time>2018-11-26T15:21:04Z</time>
      </trkpt>
      <trkpt lat="42.18083" lon="2.35412">
        <ele>1376</ele>
        <time>2018-11-26T15:21:05Z</time>
      </trkpt>
      <trkpt lat="42.18081" lon="2.35413">
        <ele>1376</ele>
        <time>2018-11-26T15:21:06Z</time>
      </trkpt>
      <trkpt lat="42.18079" lon="2.35414">
        <ele>1375.8</ele>
        <time>2018-11-26T15:21:07Z</time>
      </trkpt>
      <trkpt lat="42.18077" lon="2.35415">
        <ele>1375.1</ele>
        <time>2018-11-26T15:21:08Z</time>
      </trkpt>
      <trkpt lat="42.18075" lon="2.35417">
        <ele>1375.1</ele>
        <time>2018-11-26T15:21:09Z</time>
      </trkpt>
      <trkpt lat="42.18073" lon="2.35419">
        <ele>1375</ele>
        <time>2018-11-26T15:21:10Z</time>
      </trkpt>
      <trkpt lat="42.18071" lon="2.35421">
        <ele>1375</ele>
        <time>2018-11-26T15:21:11Z</time>
      </trkpt>
      <trkpt lat="42.18069" lon="2.35423">
        <ele>1375</ele>
        <time>2018-11-26T15:21:12Z</time>
      </trkpt>
      <trkpt lat="42.18066" lon="2.35424">
        <ele>1375</ele>
        <time>2018-11-26T15:21:13Z</time>
      </trkpt>
      <trkpt lat="42.18064" lon="2.35426">
        <ele>1375.1</ele>
        <time>2018-11-26T15:21:14Z</time>
      </trkpt>
      <trkpt lat="42.18062" lon="2.35427">
        <ele>1374</ele>
        <time>2018-11-26T15:21:15Z</time>
      </trkpt>
      <trkpt lat="42.1806" lon="2.35428">
        <ele>1374</ele>
        <time>2018-11-26T15:21:15Z</time>
      </trkpt>
      <trkpt lat="42.18058" lon="2.35429">
        <ele>1374.1</ele>
        <time>2018-11-26T15:21:16Z</time>
      </trkpt>
      <trkpt lat="42.18055" lon="2.35431">
        <ele>1374.1</ele>
        <time>2018-11-26T15:21:17Z</time>
      </trkpt>
      <trkpt lat="42.18053" lon="2.35432">
        <ele>1374</ele>
        <time>2018-11-26T15:21:18Z</time>
      </trkpt>
      <trkpt lat="42.18051" lon="2.35434">
        <ele>1374</ele>
        <time>2018-11-26T15:21:20Z</time>
      </trkpt>
      <trkpt lat="42.18048" lon="2.35436">
        <ele>1373.1</ele>
        <time>2018-11-26T15:21:21Z</time>
      </trkpt>
      <trkpt lat="42.18046" lon="2.35436">
        <ele>1373.1</ele>
        <time>2018-11-26T15:21:22Z</time>
      </trkpt>
      <trkpt lat="42.18044" lon="2.35437">
        <ele>1373</ele>
        <time>2018-11-26T15:21:23Z</time>
      </trkpt>
      <trkpt lat="42.18041" lon="2.35437">
        <ele>1373</ele>
        <time>2018-11-26T15:21:24Z</time>
      </trkpt>
      <trkpt lat="42.18039" lon="2.35439">
        <ele>1374.1</ele>
        <time>2018-11-26T15:21:25Z</time>
      </trkpt>
      <trkpt lat="42.18037" lon="2.35439">
        <ele>1373.8</ele>
        <time>2018-11-26T15:21:25Z</time>
      </trkpt>
      <trkpt lat="42.18034" lon="2.35441">
        <ele>1373</ele>
        <time>2018-11-26T15:21:26Z</time>
      </trkpt>
      <trkpt lat="42.18032" lon="2.35443">
        <ele>1373</ele>
        <time>2018-11-26T15:21:28Z</time>
      </trkpt>
      <trkpt lat="42.1803" lon="2.35446">
        <ele>1373.1</ele>
        <time>2018-11-26T15:21:29Z</time>
      </trkpt>
      <trkpt lat="42.18027" lon="2.35448">
        <ele>1374.1</ele>
        <time>2018-11-26T15:21:30Z</time>
      </trkpt>
      <trkpt lat="42.18025" lon="2.3545">
        <ele>1374</ele>
        <time>2018-11-26T15:21:31Z</time>
      </trkpt>
      <trkpt lat="42.18022" lon="2.35451">
        <ele>1373.1</ele>
        <time>2018-11-26T15:21:32Z</time>
      </trkpt>
      <trkpt lat="42.18019" lon="2.35451">
        <ele>1373.1</ele>
        <time>2018-11-26T15:21:33Z</time>
      </trkpt>
      <trkpt lat="42.18017" lon="2.35454">
        <ele>1374.1</ele>
        <time>2018-11-26T15:21:35Z</time>
      </trkpt>
      <trkpt lat="42.18015" lon="2.35456">
        <ele>1374</ele>
        <time>2018-11-26T15:21:36Z</time>
      </trkpt>
      <trkpt lat="42.18013" lon="2.35458">
        <ele>1373.9</ele>
        <time>2018-11-26T15:21:37Z</time>
      </trkpt>
      <trkpt lat="42.1801" lon="2.3546">
        <ele>1373.1</ele>
        <time>2018-11-26T15:21:38Z</time>
      </trkpt>
      <trkpt lat="42.18008" lon="2.35462">
        <ele>1372.9</ele>
        <time>2018-11-26T15:21:39Z</time>
      </trkpt>
      <trkpt lat="42.18005" lon="2.35463">
        <ele>1372</ele>
        <time>2018-11-26T15:21:40Z</time>
      </trkpt>
      <trkpt lat="42.18002" lon="2.35465">
        <ele>1372.1</ele>
        <time>2018-11-26T15:21:41Z</time>
      </trkpt>
      <trkpt lat="42.17999" lon="2.35467">
        <ele>1373.1</ele>
        <time>2018-11-26T15:21:43Z</time>
      </trkpt>
      <trkpt lat="42.17996" lon="2.35468">
        <ele>1373.1</ele>
        <time>2018-11-26T15:21:44Z</time>
      </trkpt>
      <trkpt lat="42.17993" lon="2.35469">
        <ele>1373.3</ele>
        <time>2018-11-26T15:21:45Z</time>
      </trkpt>
      <trkpt lat="42.17991" lon="2.35471">
        <ele>1374</ele>
        <time>2018-11-26T15:21:46Z</time>
      </trkpt>
      <trkpt lat="42.17988" lon="2.35472">
        <ele>1374.1</ele>
        <time>2018-11-26T15:21:47Z</time>
      </trkpt>
      <trkpt lat="42.17985" lon="2.35474">
        <ele>1375.1</ele>
        <time>2018-11-26T15:21:49Z</time>
      </trkpt>
      <trkpt lat="42.17983" lon="2.35475">
        <ele>1375</ele>
        <time>2018-11-26T15:21:50Z</time>
      </trkpt>
      <trkpt lat="42.1798" lon="2.35476">
        <ele>1376.1</ele>
        <time>2018-11-26T15:21:51Z</time>
      </trkpt>
      <trkpt lat="42.17977" lon="2.35478">
        <ele>1376</ele>
        <time>2018-11-26T15:21:52Z</time>
      </trkpt>
      <trkpt lat="42.17974" lon="2.35479">
        <ele>1375.1</ele>
        <time>2018-11-26T15:21:53Z</time>
      </trkpt>
      <trkpt lat="42.17971" lon="2.35479">
        <ele>1376</ele>
        <time>2018-11-26T15:21:55Z</time>
      </trkpt>
      <trkpt lat="42.17968" lon="2.3548">
        <ele>1376</ele>
        <time>2018-11-26T15:21:56Z</time>
      </trkpt>
      <trkpt lat="42.17966" lon="2.3548">
        <ele>1376</ele>
        <time>2018-11-26T15:21:57Z</time>
      </trkpt>
      <trkpt lat="42.17963" lon="2.35478">
        <ele>1376</ele>
        <time>2018-11-26T15:21:58Z</time>
      </trkpt>
      <trkpt lat="42.17961" lon="2.35477">
        <ele>1376.1</ele>
        <time>2018-11-26T15:21:59Z</time>
      </trkpt>
      <trkpt lat="42.17959" lon="2.35476">
        <ele>1377.1</ele>
        <time>2018-11-26T15:22:00Z</time>
      </trkpt>
      <trkpt lat="42.17957" lon="2.35475">
        <ele>1377.4</ele>
        <time>2018-11-26T15:22:01Z</time>
      </trkpt>
      <trkpt lat="42.17954" lon="2.35475">
        <ele>1378</ele>
        <time>2018-11-26T15:22:02Z</time>
      </trkpt>
      <trkpt lat="42.17951" lon="2.35475">
        <ele>1378.1</ele>
        <time>2018-11-26T15:22:03Z</time>
      </trkpt>
      <trkpt lat="42.17949" lon="2.35476">
        <ele>1378</ele>
        <time>2018-11-26T15:22:04Z</time>
      </trkpt>
      <trkpt lat="42.17947" lon="2.35476">
        <ele>1378.1</ele>
        <time>2018-11-26T15:22:05Z</time>
      </trkpt>
      <trkpt lat="42.17943" lon="2.35477">
        <ele>1378.1</ele>
        <time>2018-11-26T15:22:06Z</time>
      </trkpt>
      <trkpt lat="42.17941" lon="2.35476">
        <ele>1378</ele>
        <time>2018-11-26T15:22:07Z</time>
      </trkpt>
      <trkpt lat="42.17939" lon="2.35473">
        <ele>1378</ele>
        <time>2018-11-26T15:22:08Z</time>
      </trkpt>
      <trkpt lat="42.17938" lon="2.35471">
        <ele>1378.2</ele>
        <time>2018-11-26T15:22:09Z</time>
      </trkpt>
      <trkpt lat="42.17935" lon="2.3547">
        <ele>1380</ele>
        <time>2018-11-26T15:22:10Z</time>
      </trkpt>
      <trkpt lat="42.17933" lon="2.35468">
        <ele>1380.1</ele>
        <time>2018-11-26T15:22:11Z</time>
      </trkpt>
      <trkpt lat="42.17932" lon="2.35466">
        <ele>1380</ele>
        <time>2018-11-26T15:22:12Z</time>
      </trkpt>
      <trkpt lat="42.17929" lon="2.35465">
        <ele>1380.1</ele>
        <time>2018-11-26T15:22:13Z</time>
      </trkpt>
      <trkpt lat="42.17927" lon="2.35464">
        <ele>1380.1</ele>
        <time>2018-11-26T15:22:14Z</time>
      </trkpt>
      <trkpt lat="42.17925" lon="2.35463">
        <ele>1380</ele>
        <time>2018-11-26T15:22:15Z</time>
      </trkpt>
      <trkpt lat="42.17923" lon="2.35461">
        <ele>1380.2</ele>
        <time>2018-11-26T15:22:16Z</time>
      </trkpt>
      <trkpt lat="42.17922" lon="2.3546">
        <ele>1381</ele>
        <time>2018-11-26T15:22:17Z</time>
      </trkpt>
      <trkpt lat="42.1792" lon="2.35458">
        <ele>1381</ele>
        <time>2018-11-26T15:22:18Z</time>
      </trkpt>
      <trkpt lat="42.17918" lon="2.35457">
        <ele>1381</ele>
        <time>2018-11-26T15:22:18Z</time>
      </trkpt>
      <trkpt lat="42.17915" lon="2.35457">
        <ele>1381</ele>
        <time>2018-11-26T15:22:19Z</time>
      </trkpt>
      <trkpt lat="42.17913" lon="2.35456">
        <ele>1381.3</ele>
        <time>2018-11-26T15:22:20Z</time>
      </trkpt>
      <trkpt lat="42.17911" lon="2.35456">
        <ele>1382.1</ele>
        <time>2018-11-26T15:22:21Z</time>
      </trkpt>
      <trkpt lat="42.17909" lon="2.35456">
        <ele>1382</ele>
        <time>2018-11-26T15:22:22Z</time>
      </trkpt>
      <trkpt lat="42.17907" lon="2.35456">
        <ele>1382.2</ele>
        <time>2018-11-26T15:22:23Z</time>
      </trkpt>
      <trkpt lat="42.17905" lon="2.35456">
        <ele>1383.1</ele>
        <time>2018-11-26T15:22:23Z</time>
      </trkpt>
      <trkpt lat="42.17903" lon="2.35455">
        <ele>1384.1</ele>
        <time>2018-11-26T15:22:24Z</time>
      </trkpt>
      <trkpt lat="42.179" lon="2.35454">
        <ele>1384.1</ele>
        <time>2018-11-26T15:22:25Z</time>
      </trkpt>
      <trkpt lat="42.17898" lon="2.35453">
        <ele>1384.1</ele>
        <time>2018-11-26T15:22:26Z</time>
      </trkpt>
      <trkpt lat="42.17896" lon="2.35452">
        <ele>1385</ele>
        <time>2018-11-26T15:22:27Z</time>
      </trkpt>
      <trkpt lat="42.17894" lon="2.35451">
        <ele>1385</ele>
        <time>2018-11-26T15:22:28Z</time>
      </trkpt>
      <trkpt lat="42.17892" lon="2.3545">
        <ele>1385.1</ele>
        <time>2018-11-26T15:22:29Z</time>
      </trkpt>
      <trkpt lat="42.1789" lon="2.35449">
        <ele>1386</ele>
        <time>2018-11-26T15:22:30Z</time>
      </trkpt>
      <trkpt lat="42.17888" lon="2.35447">
        <ele>1386.1</ele>
        <time>2018-11-26T15:22:31Z</time>
      </trkpt>
      <trkpt lat="42.17886" lon="2.35446">
        <ele>1386</ele>
        <time>2018-11-26T15:22:32Z</time>
      </trkpt>
      <trkpt lat="42.17884" lon="2.35444">
        <ele>1386</ele>
        <time>2018-11-26T15:22:33Z</time>
      </trkpt>
      <trkpt lat="42.17882" lon="2.35442">
        <ele>1386</ele>
        <time>2018-11-26T15:22:34Z</time>
      </trkpt>
      <trkpt lat="42.1788" lon="2.3544">
        <ele>1387.1</ele>
        <time>2018-11-26T15:22:35Z</time>
      </trkpt>
      <trkpt lat="42.17878" lon="2.35439">
        <ele>1387.1</ele>
        <time>2018-11-26T15:22:36Z</time>
      </trkpt>
      <trkpt lat="42.17875" lon="2.35438">
        <ele>1387</ele>
        <time>2018-11-26T15:22:37Z</time>
      </trkpt>
      <trkpt lat="42.17873" lon="2.35438">
        <ele>1387.2</ele>
        <time>2018-11-26T15:22:38Z</time>
      </trkpt>
      <trkpt lat="42.1787" lon="2.35437">
        <ele>1388.1</ele>
        <time>2018-11-26T15:22:39Z</time>
      </trkpt>
      <trkpt lat="42.17868" lon="2.3544">
        <ele>1388</ele>
        <time>2018-11-26T15:22:40Z</time>
      </trkpt>
      <trkpt lat="42.17867" lon="2.35442">
        <ele>1388</ele>
        <time>2018-11-26T15:22:41Z</time>
      </trkpt>
      <trkpt lat="42.17865" lon="2.35444">
        <ele>1387</ele>
        <time>2018-11-26T15:22:42Z</time>
      </trkpt>
      <trkpt lat="42.17863" lon="2.35446">
        <ele>1387.1</ele>
        <time>2018-11-26T15:22:43Z</time>
      </trkpt>
      <trkpt lat="42.17861" lon="2.35448">
        <ele>1388.1</ele>
        <time>2018-11-26T15:22:44Z</time>
      </trkpt>
      <trkpt lat="42.17859" lon="2.35449">
        <ele>1388</ele>
        <time>2018-11-26T15:22:44Z</time>
      </trkpt>
      <trkpt lat="42.17857" lon="2.3545">
        <ele>1388.1</ele>
        <time>2018-11-26T15:22:45Z</time>
      </trkpt>
      <trkpt lat="42.17855" lon="2.35452">
        <ele>1388.1</ele>
        <time>2018-11-26T15:22:46Z</time>
      </trkpt>
      <trkpt lat="42.17853" lon="2.35454">
        <ele>1388</ele>
        <time>2018-11-26T15:22:47Z</time>
      </trkpt>
      <trkpt lat="42.17851" lon="2.35456">
        <ele>1388</ele>
        <time>2018-11-26T15:22:48Z</time>
      </trkpt>
      <trkpt lat="42.17849" lon="2.35458">
        <ele>1388</ele>
        <time>2018-11-26T15:22:49Z</time>
      </trkpt>
      <trkpt lat="42.17847" lon="2.3546">
        <ele>1388</ele>
        <time>2018-11-26T15:22:50Z</time>
      </trkpt>
      <trkpt lat="42.17844" lon="2.35462">
        <ele>1386.9</ele>
        <time>2018-11-26T15:22:52Z</time>
      </trkpt>
      <trkpt lat="42.17843" lon="2.35463">
        <ele>1386</ele>
        <time>2018-11-26T15:22:52Z</time>
      </trkpt>
      <trkpt lat="42.17841" lon="2.35465">
        <ele>1386</ele>
        <time>2018-11-26T15:22:53Z</time>
      </trkpt>
      <trkpt lat="42.17839" lon="2.35466">
        <ele>1386</ele>
        <time>2018-11-26T15:22:54Z</time>
      </trkpt>
      <trkpt lat="42.17837" lon="2.35467">
        <ele>1386</ele>
        <time>2018-11-26T15:22:55Z</time>
      </trkpt>
      <trkpt lat="42.17835" lon="2.35468">
        <ele>1386.1</ele>
        <time>2018-11-26T15:22:56Z</time>
      </trkpt>
      <trkpt lat="42.17834" lon="2.3547">
        <ele>1386</ele>
        <time>2018-11-26T15:22:56Z</time>
      </trkpt>
      <trkpt lat="42.17832" lon="2.35472">
        <ele>1386.1</ele>
        <time>2018-11-26T15:22:57Z</time>
      </trkpt>
      <trkpt lat="42.17831" lon="2.35474">
        <ele>1386</ele>
        <time>2018-11-26T15:22:58Z</time>
      </trkpt>
      <trkpt lat="42.17829" lon="2.35476">
        <ele>1386</ele>
        <time>2018-11-26T15:22:59Z</time>
      </trkpt>
      <trkpt lat="42.17827" lon="2.35479">
        <ele>1386.1</ele>
        <time>2018-11-26T15:23:00Z</time>
      </trkpt>
      <trkpt lat="42.17827" lon="2.35482">
        <ele>1386.3</ele>
        <time>2018-11-26T15:23:01Z</time>
      </trkpt>
      <trkpt lat="42.17826" lon="2.35486">
        <ele>1386</ele>
        <time>2018-11-26T15:23:02Z</time>
      </trkpt>
      <trkpt lat="42.17825" lon="2.35488">
        <ele>1386</ele>
        <time>2018-11-26T15:23:03Z</time>
      </trkpt>
      <trkpt lat="42.17823" lon="2.35491">
        <ele>1386</ele>
        <time>2018-11-26T15:23:04Z</time>
      </trkpt>
      <trkpt lat="42.17822" lon="2.35493">
        <ele>1386</ele>
        <time>2018-11-26T15:23:05Z</time>
      </trkpt>
      <trkpt lat="42.1782" lon="2.35496">
        <ele>1386.1</ele>
        <time>2018-11-26T15:23:06Z</time>
      </trkpt>
      <trkpt lat="42.17818" lon="2.35499">
        <ele>1386.1</ele>
        <time>2018-11-26T15:23:07Z</time>
      </trkpt>
      <trkpt lat="42.17816" lon="2.35501">
        <ele>1386</ele>
        <time>2018-11-26T15:23:08Z</time>
      </trkpt>
      <trkpt lat="42.17814" lon="2.35503">
        <ele>1386</ele>
        <time>2018-11-26T15:23:09Z</time>
      </trkpt>
      <trkpt lat="42.17812" lon="2.35504">
        <ele>1386.1</ele>
        <time>2018-11-26T15:23:10Z</time>
      </trkpt>
      <trkpt lat="42.1781" lon="2.35506">
        <ele>1386</ele>
        <time>2018-11-26T15:23:11Z</time>
      </trkpt>
      <trkpt lat="42.17808" lon="2.35508">
        <ele>1385.1</ele>
        <time>2018-11-26T15:23:12Z</time>
      </trkpt>
      <trkpt lat="42.17806" lon="2.35509">
        <ele>1384.1</ele>
        <time>2018-11-26T15:23:13Z</time>
      </trkpt>
      <trkpt lat="42.17804" lon="2.3551">
        <ele>1384</ele>
        <time>2018-11-26T15:23:14Z</time>
      </trkpt>
      <trkpt lat="42.17802" lon="2.35512">
        <ele>1384</ele>
        <time>2018-11-26T15:23:15Z</time>
      </trkpt>
      <trkpt lat="42.178" lon="2.35514">
        <ele>1384</ele>
        <time>2018-11-26T15:23:16Z</time>
      </trkpt>
      <trkpt lat="42.17798" lon="2.35516">
        <ele>1384</ele>
        <time>2018-11-26T15:23:17Z</time>
      </trkpt>
      <trkpt lat="42.17796" lon="2.35518">
        <ele>1384.1</ele>
        <time>2018-11-26T15:23:18Z</time>
      </trkpt>
      <trkpt lat="42.17794" lon="2.3552">
        <ele>1383.7</ele>
        <time>2018-11-26T15:23:19Z</time>
      </trkpt>
      <trkpt lat="42.17792" lon="2.35523">
        <ele>1383.1</ele>
        <time>2018-11-26T15:23:20Z</time>
      </trkpt>
      <trkpt lat="42.1779" lon="2.35525">
        <ele>1383</ele>
        <time>2018-11-26T15:23:21Z</time>
      </trkpt>
      <trkpt lat="42.17788" lon="2.35527">
        <ele>1382</ele>
        <time>2018-11-26T15:23:22Z</time>
      </trkpt>
      <trkpt lat="42.17787" lon="2.35529">
        <ele>1382</ele>
        <time>2018-11-26T15:23:23Z</time>
      </trkpt>
      <trkpt lat="42.17784" lon="2.35532">
        <ele>1382</ele>
        <time>2018-11-26T15:23:24Z</time>
      </trkpt>
      <trkpt lat="42.17782" lon="2.35534">
        <ele>1382.1</ele>
        <time>2018-11-26T15:23:25Z</time>
      </trkpt>
      <trkpt lat="42.1778" lon="2.35535">
        <ele>1382.1</ele>
        <time>2018-11-26T15:23:26Z</time>
      </trkpt>
      <trkpt lat="42.17779" lon="2.35537">
        <ele>1382</ele>
        <time>2018-11-26T15:23:27Z</time>
      </trkpt>
      <trkpt lat="42.17777" lon="2.35539">
        <ele>1382</ele>
        <time>2018-11-26T15:23:28Z</time>
      </trkpt>
      <trkpt lat="42.17774" lon="2.35541">
        <ele>1382</ele>
        <time>2018-11-26T15:23:29Z</time>
      </trkpt>
      <trkpt lat="42.17772" lon="2.35543">
        <ele>1382.1</ele>
        <time>2018-11-26T15:23:30Z</time>
      </trkpt>
      <trkpt lat="42.1777" lon="2.35546">
        <ele>1382</ele>
        <time>2018-11-26T15:23:31Z</time>
      </trkpt>
      <trkpt lat="42.17767" lon="2.35546">
        <ele>1383</ele>
        <time>2018-11-26T15:23:33Z</time>
      </trkpt>
      <trkpt lat="42.17764" lon="2.35547">
        <ele>1383.1</ele>
        <time>2018-11-26T15:23:34Z</time>
      </trkpt>
      <trkpt lat="42.1776" lon="2.35548">
        <ele>1383.1</ele>
        <time>2018-11-26T15:23:35Z</time>
      </trkpt>
      <trkpt lat="42.17758" lon="2.35548">
        <ele>1383.1</ele>
        <time>2018-11-26T15:23:36Z</time>
      </trkpt>
      <trkpt lat="42.17755" lon="2.35547">
        <ele>1383</ele>
        <time>2018-11-26T15:23:37Z</time>
      </trkpt>
      <trkpt lat="42.17752" lon="2.35546">
        <ele>1383</ele>
        <time>2018-11-26T15:23:38Z</time>
      </trkpt>
      <trkpt lat="42.1775" lon="2.35546">
        <ele>1383</ele>
        <time>2018-11-26T15:23:39Z</time>
      </trkpt>
      <trkpt lat="42.17747" lon="2.35546">
        <ele>1383</ele>
        <time>2018-11-26T15:23:40Z</time>
      </trkpt>
      <trkpt lat="42.17744" lon="2.35547">
        <ele>1383</ele>
        <time>2018-11-26T15:23:42Z</time>
      </trkpt>
      <trkpt lat="42.17741" lon="2.35547">
        <ele>1383.2</ele>
        <time>2018-11-26T15:23:43Z</time>
      </trkpt>
      <trkpt lat="42.17738" lon="2.35547">
        <ele>1384.1</ele>
        <time>2018-11-26T15:23:44Z</time>
      </trkpt>
      <trkpt lat="42.17736" lon="2.35546">
        <ele>1384.1</ele>
        <time>2018-11-26T15:23:45Z</time>
      </trkpt>
      <trkpt lat="42.17734" lon="2.35545">
        <ele>1384</ele>
        <time>2018-11-26T15:23:46Z</time>
      </trkpt>
      <trkpt lat="42.17732" lon="2.35544">
        <ele>1384.1</ele>
        <time>2018-11-26T15:23:47Z</time>
      </trkpt>
      <trkpt lat="42.1773" lon="2.35543">
        <ele>1384</ele>
        <time>2018-11-26T15:23:48Z</time>
      </trkpt>
      <trkpt lat="42.17728" lon="2.35541">
        <ele>1385.1</ele>
        <time>2018-11-26T15:23:48Z</time>
      </trkpt>
      <trkpt lat="42.17726" lon="2.35541">
        <ele>1385</ele>
        <time>2018-11-26T15:23:49Z</time>
      </trkpt>
      <trkpt lat="42.17723" lon="2.35541">
        <ele>1385.1</ele>
        <time>2018-11-26T15:23:50Z</time>
      </trkpt>
      <trkpt lat="42.1772" lon="2.35541">
        <ele>1385</ele>
        <time>2018-11-26T15:23:52Z</time>
      </trkpt>
      <trkpt lat="42.17718" lon="2.3554">
        <ele>1384.8</ele>
        <time>2018-11-26T15:23:53Z</time>
      </trkpt>
      <trkpt lat="42.17715" lon="2.35539">
        <ele>1384</ele>
        <time>2018-11-26T15:23:54Z</time>
      </trkpt>
      <trkpt lat="42.17713" lon="2.35538">
        <ele>1384</ele>
        <time>2018-11-26T15:23:55Z</time>
      </trkpt>
      <trkpt lat="42.1771" lon="2.35537">
        <ele>1384.1</ele>
        <time>2018-11-26T15:23:56Z</time>
      </trkpt>
      <trkpt lat="42.17707" lon="2.35536">
        <ele>1384.2</ele>
        <time>2018-11-26T15:23:57Z</time>
      </trkpt>
      <trkpt lat="42.17704" lon="2.35535">
        <ele>1385.1</ele>
        <time>2018-11-26T15:23:58Z</time>
      </trkpt>
      <trkpt lat="42.17701" lon="2.35535">
        <ele>1386</ele>
        <time>2018-11-26T15:23:59Z</time>
      </trkpt>
      <trkpt lat="42.17699" lon="2.35534">
        <ele>1385.1</ele>
        <time>2018-11-26T15:24:01Z</time>
      </trkpt>
      <trkpt lat="42.17696" lon="2.35533">
        <ele>1384.1</ele>
        <time>2018-11-26T15:24:02Z</time>
      </trkpt>
      <trkpt lat="42.17693" lon="2.35532">
        <ele>1384.1</ele>
        <time>2018-11-26T15:24:03Z</time>
      </trkpt>
      <trkpt lat="42.1769" lon="2.35531">
        <ele>1384.1</ele>
        <time>2018-11-26T15:24:04Z</time>
      </trkpt>
      <trkpt lat="42.17687" lon="2.35531">
        <ele>1384</ele>
        <time>2018-11-26T15:24:05Z</time>
      </trkpt>
      <trkpt lat="42.17685" lon="2.35531">
        <ele>1384</ele>
        <time>2018-11-26T15:24:06Z</time>
      </trkpt>
      <trkpt lat="42.17682" lon="2.35532">
        <ele>1384</ele>
        <time>2018-11-26T15:24:07Z</time>
      </trkpt>
      <trkpt lat="42.17679" lon="2.35532">
        <ele>1384.1</ele>
        <time>2018-11-26T15:24:08Z</time>
      </trkpt>
      <trkpt lat="42.17677" lon="2.35532">
        <ele>1384</ele>
        <time>2018-11-26T15:24:10Z</time>
      </trkpt>
      <trkpt lat="42.17674" lon="2.35532">
        <ele>1384</ele>
        <time>2018-11-26T15:24:11Z</time>
      </trkpt>
      <trkpt lat="42.1767" lon="2.35533">
        <ele>1384.1</ele>
        <time>2018-11-26T15:24:12Z</time>
      </trkpt>
      <trkpt lat="42.17667" lon="2.35532">
        <ele>1384.1</ele>
        <time>2018-11-26T15:24:13Z</time>
      </trkpt>
      <trkpt lat="42.17664" lon="2.35533">
        <ele>1384.1</ele>
        <time>2018-11-26T15:24:14Z</time>
      </trkpt>
      <trkpt lat="42.17661" lon="2.35533">
        <ele>1384</ele>
        <time>2018-11-26T15:24:16Z</time>
      </trkpt>
      <trkpt lat="42.17658" lon="2.35533">
        <ele>1384.1</ele>
        <time>2018-11-26T15:24:17Z</time>
      </trkpt>
      <trkpt lat="42.17655" lon="2.35534">
        <ele>1384.1</ele>
        <time>2018-11-26T15:24:18Z</time>
      </trkpt>
      <trkpt lat="42.17653" lon="2.35534">
        <ele>1383.1</ele>
        <time>2018-11-26T15:24:19Z</time>
      </trkpt>
      <trkpt lat="42.1765" lon="2.35534">
        <ele>1383</ele>
        <time>2018-11-26T15:24:20Z</time>
      </trkpt>
      <trkpt lat="42.17647" lon="2.35533">
        <ele>1383</ele>
        <time>2018-11-26T15:24:21Z</time>
      </trkpt>
      <trkpt lat="42.17644" lon="2.35532">
        <ele>1383.1</ele>
        <time>2018-11-26T15:24:22Z</time>
      </trkpt>
      <trkpt lat="42.17642" lon="2.35531">
        <ele>1383</ele>
        <time>2018-11-26T15:24:24Z</time>
      </trkpt>
      <trkpt lat="42.1764" lon="2.35529">
        <ele>1383.1</ele>
        <time>2018-11-26T15:24:25Z</time>
      </trkpt>
      <trkpt lat="42.17637" lon="2.35527">
        <ele>1383.1</ele>
        <time>2018-11-26T15:24:26Z</time>
      </trkpt>
      <trkpt lat="42.17634" lon="2.35526">
        <ele>1383.1</ele>
        <time>2018-11-26T15:24:27Z</time>
      </trkpt>
      <trkpt lat="42.17632" lon="2.35524">
        <ele>1383</ele>
        <time>2018-11-26T15:24:28Z</time>
      </trkpt>
      <trkpt lat="42.17629" lon="2.35522">
        <ele>1383.1</ele>
        <time>2018-11-26T15:24:29Z</time>
      </trkpt>
      <trkpt lat="42.17627" lon="2.3552">
        <ele>1382.8</ele>
        <time>2018-11-26T15:24:30Z</time>
      </trkpt>
      <trkpt lat="42.17625" lon="2.35519">
        <ele>1382.1</ele>
        <time>2018-11-26T15:24:31Z</time>
      </trkpt>
      <trkpt lat="42.17622" lon="2.35517">
        <ele>1381.1</ele>
        <time>2018-11-26T15:24:32Z</time>
      </trkpt>
      <trkpt lat="42.1762" lon="2.35515">
        <ele>1382</ele>
        <time>2018-11-26T15:24:34Z</time>
      </trkpt>
      <trkpt lat="42.17618" lon="2.35513">
        <ele>1382</ele>
        <time>2018-11-26T15:24:35Z</time>
      </trkpt>
      <trkpt lat="42.17615" lon="2.35512">
        <ele>1382</ele>
        <time>2018-11-26T15:24:36Z</time>
      </trkpt>
      <trkpt lat="42.17613" lon="2.3551">
        <ele>1382</ele>
        <time>2018-11-26T15:24:37Z</time>
      </trkpt>
      <trkpt lat="42.1761" lon="2.35509">
        <ele>1381.8</ele>
        <time>2018-11-26T15:24:38Z</time>
      </trkpt>
      <trkpt lat="42.17608" lon="2.35508">
        <ele>1381</ele>
        <time>2018-11-26T15:24:39Z</time>
      </trkpt>
      <trkpt lat="42.17605" lon="2.35508">
        <ele>1381</ele>
        <time>2018-11-26T15:24:40Z</time>
      </trkpt>
      <trkpt lat="42.17602" lon="2.35506">
        <ele>1381.1</ele>
        <time>2018-11-26T15:24:41Z</time>
      </trkpt>
      <trkpt lat="42.176" lon="2.35505">
        <ele>1381</ele>
        <time>2018-11-26T15:24:42Z</time>
      </trkpt>
      <trkpt lat="42.17597" lon="2.35503">
        <ele>1381</ele>
        <time>2018-11-26T15:24:43Z</time>
      </trkpt>
      <trkpt lat="42.17595" lon="2.355">
        <ele>1381</ele>
        <time>2018-11-26T15:24:44Z</time>
      </trkpt>
      <trkpt lat="42.17593" lon="2.35499">
        <ele>1382.1</ele>
        <time>2018-11-26T15:24:46Z</time>
      </trkpt>
      <trkpt lat="42.1759" lon="2.35497">
        <ele>1382</ele>
        <time>2018-11-26T15:24:47Z</time>
      </trkpt>
      <trkpt lat="42.17589" lon="2.35494">
        <ele>1380</ele>
        <time>2018-11-26T15:24:48Z</time>
      </trkpt>
      <trkpt lat="42.17586" lon="2.35493">
        <ele>1381.1</ele>
        <time>2018-11-26T15:24:49Z</time>
      </trkpt>
      <trkpt lat="42.17584" lon="2.35491">
        <ele>1381.1</ele>
        <time>2018-11-26T15:24:50Z</time>
      </trkpt>
      <trkpt lat="42.17582" lon="2.3549">
        <ele>1381.1</ele>
        <time>2018-11-26T15:24:51Z</time>
      </trkpt>
      <trkpt lat="42.1758" lon="2.35489">
        <ele>1381</ele>
        <time>2018-11-26T15:24:52Z</time>
      </trkpt>
      <trkpt lat="42.17577" lon="2.35488">
        <ele>1381.2</ele>
        <time>2018-11-26T15:24:53Z</time>
      </trkpt>
      <trkpt lat="42.17575" lon="2.35487">
        <ele>1382.1</ele>
        <time>2018-11-26T15:24:54Z</time>
      </trkpt>
      <trkpt lat="42.17573" lon="2.35486">
        <ele>1382</ele>
        <time>2018-11-26T15:24:54Z</time>
      </trkpt>
      <trkpt lat="42.17571" lon="2.35485">
        <ele>1382.2</ele>
        <time>2018-11-26T15:24:55Z</time>
      </trkpt>
      <trkpt lat="42.17568" lon="2.35484">
        <ele>1383.2</ele>
        <time>2018-11-26T15:24:56Z</time>
      </trkpt>
      <trkpt lat="42.17566" lon="2.35483">
        <ele>1384.2</ele>
        <time>2018-11-26T15:24:57Z</time>
      </trkpt>
      <trkpt lat="42.17563" lon="2.35481">
        <ele>1385</ele>
        <time>2018-11-26T15:24:59Z</time>
      </trkpt>
      <trkpt lat="42.17561" lon="2.3548">
        <ele>1385</ele>
        <time>2018-11-26T15:25:00Z</time>
      </trkpt>
      <trkpt lat="42.17558" lon="2.35478">
        <ele>1385.4</ele>
        <time>2018-11-26T15:25:01Z</time>
      </trkpt>
      <trkpt lat="42.17556" lon="2.35477">
        <ele>1386.1</ele>
        <time>2018-11-26T15:25:02Z</time>
      </trkpt>
      <trkpt lat="42.17554" lon="2.35475">
        <ele>1387</ele>
        <time>2018-11-26T15:25:03Z</time>
      </trkpt>
      <trkpt lat="42.17552" lon="2.35474">
        <ele>1387</ele>
        <time>2018-11-26T15:25:04Z</time>
      </trkpt>
      <trkpt lat="42.17549" lon="2.35471">
        <ele>1387.1</ele>
        <time>2018-11-26T15:25:05Z</time>
      </trkpt>
      <trkpt lat="42.17547" lon="2.3547">
        <ele>1388.2</ele>
        <time>2018-11-26T15:25:06Z</time>
      </trkpt>
      <trkpt lat="42.17545" lon="2.35469">
        <ele>1389.1</ele>
        <time>2018-11-26T15:25:07Z</time>
      </trkpt>
      <trkpt lat="42.17543" lon="2.35467">
        <ele>1389.2</ele>
        <time>2018-11-26T15:25:08Z</time>
      </trkpt>
      <trkpt lat="42.17539" lon="2.35466">
        <ele>1390.1</ele>
        <time>2018-11-26T15:25:09Z</time>
      </trkpt>
      <trkpt lat="42.17536" lon="2.35466">
        <ele>1392.1</ele>
        <time>2018-11-26T15:25:11Z</time>
      </trkpt>
      <trkpt lat="42.17538" lon="2.35465">
        <ele>1391</ele>
        <time>2018-11-26T15:25:12Z</time>
      </trkpt>
      <trkpt lat="42.17536" lon="2.35464">
        <ele>1391</ele>
        <time>2018-11-26T15:25:12Z</time>
      </trkpt>
      <trkpt lat="42.17534" lon="2.35462">
        <ele>1391</ele>
        <time>2018-11-26T15:25:13Z</time>
      </trkpt>
      <trkpt lat="42.17532" lon="2.3546">
        <ele>1391.2</ele>
        <time>2018-11-26T15:25:14Z</time>
      </trkpt>
      <trkpt lat="42.1753" lon="2.35459">
        <ele>1392.2</ele>
        <time>2018-11-26T15:25:15Z</time>
      </trkpt>
      <trkpt lat="42.17528" lon="2.35457">
        <ele>1393</ele>
        <time>2018-11-26T15:25:16Z</time>
      </trkpt>
      <trkpt lat="42.17525" lon="2.35455">
        <ele>1393</ele>
        <time>2018-11-26T15:25:17Z</time>
      </trkpt>
      <trkpt lat="42.17523" lon="2.35453">
        <ele>1393.1</ele>
        <time>2018-11-26T15:25:18Z</time>
      </trkpt>
      <trkpt lat="42.17521" lon="2.35451">
        <ele>1394.1</ele>
        <time>2018-11-26T15:25:20Z</time>
      </trkpt>
      <trkpt lat="42.17519" lon="2.35449">
        <ele>1394.1</ele>
        <time>2018-11-26T15:25:20Z</time>
      </trkpt>
      <trkpt lat="42.17516" lon="2.35448">
        <ele>1394.3</ele>
        <time>2018-11-26T15:25:21Z</time>
      </trkpt>
      <trkpt lat="42.17514" lon="2.35448">
        <ele>1395.3</ele>
        <time>2018-11-26T15:25:22Z</time>
      </trkpt>
      <trkpt lat="42.17512" lon="2.35447">
        <ele>1397</ele>
        <time>2018-11-26T15:25:23Z</time>
      </trkpt>
      <trkpt lat="42.1751" lon="2.35445">
        <ele>1397</ele>
        <time>2018-11-26T15:25:24Z</time>
      </trkpt>
      <trkpt lat="42.17508" lon="2.35444">
        <ele>1397.4</ele>
        <time>2018-11-26T15:25:25Z</time>
      </trkpt>
      <trkpt lat="42.17506" lon="2.35442">
        <ele>1398.1</ele>
        <time>2018-11-26T15:25:26Z</time>
      </trkpt>
      <trkpt lat="42.17504" lon="2.35442">
        <ele>1398</ele>
        <time>2018-11-26T15:25:27Z</time>
      </trkpt>
      <trkpt lat="42.17502" lon="2.35442">
        <ele>1398.3</ele>
        <time>2018-11-26T15:25:28Z</time>
      </trkpt>
      <trkpt lat="42.17499" lon="2.35441">
        <ele>1399.1</ele>
        <time>2018-11-26T15:25:29Z</time>
      </trkpt>
      <trkpt lat="42.17497" lon="2.35439">
        <ele>1399.1</ele>
        <time>2018-11-26T15:25:30Z</time>
      </trkpt>
      <trkpt lat="42.17494" lon="2.35438">
        <ele>1400.1</ele>
        <time>2018-11-26T15:25:31Z</time>
      </trkpt>
      <trkpt lat="42.17491" lon="2.35436">
        <ele>1401.1</ele>
        <time>2018-11-26T15:25:32Z</time>
      </trkpt>
      <trkpt lat="42.1749" lon="2.35434">
        <ele>1401.1</ele>
        <time>2018-11-26T15:25:33Z</time>
      </trkpt>
      <trkpt lat="42.17489" lon="2.35431">
        <ele>1401</ele>
        <time>2018-11-26T15:25:34Z</time>
      </trkpt>
      <trkpt lat="42.17488" lon="2.35429">
        <ele>1401</ele>
        <time>2018-11-26T15:25:35Z</time>
      </trkpt>
      <trkpt lat="42.17486" lon="2.35427">
        <ele>1401</ele>
        <time>2018-11-26T15:25:36Z</time>
      </trkpt>
      <trkpt lat="42.17485" lon="2.35424">
        <ele>1401</ele>
        <time>2018-11-26T15:25:37Z</time>
      </trkpt>
      <trkpt lat="42.17483" lon="2.35422">
        <ele>1401.2</ele>
        <time>2018-11-26T15:25:38Z</time>
      </trkpt>
      <trkpt lat="42.17482" lon="2.35419">
        <ele>1402.2</ele>
        <time>2018-11-26T15:25:39Z</time>
      </trkpt>
      <trkpt lat="42.17482" lon="2.35416">
        <ele>1403.1</ele>
        <time>2018-11-26T15:25:40Z</time>
      </trkpt>
      <trkpt lat="42.1748" lon="2.35413">
        <ele>1403.5</ele>
        <time>2018-11-26T15:25:40Z</time>
      </trkpt>
      <trkpt lat="42.1748" lon="2.3541">
        <ele>1404.1</ele>
        <time>2018-11-26T15:25:41Z</time>
      </trkpt>
      <trkpt lat="42.17479" lon="2.35408">
        <ele>1404.1</ele>
        <time>2018-11-26T15:25:42Z</time>
      </trkpt>
      <trkpt lat="42.17477" lon="2.35405">
        <ele>1405</ele>
        <time>2018-11-26T15:25:43Z</time>
      </trkpt>
      <trkpt lat="42.17475" lon="2.35402">
        <ele>1406</ele>
        <time>2018-11-26T15:25:44Z</time>
      </trkpt>
      <trkpt lat="42.17473" lon="2.354">
        <ele>1406.2</ele>
        <time>2018-11-26T15:25:45Z</time>
      </trkpt>
      <trkpt lat="42.17472" lon="2.35398">
        <ele>1408</ele>
        <time>2018-11-26T15:25:46Z</time>
      </trkpt>
      <trkpt lat="42.17472" lon="2.35395">
        <ele>1408</ele>
        <time>2018-11-26T15:25:47Z</time>
      </trkpt>
      <trkpt lat="42.1747" lon="2.35392">
        <ele>1408</ele>
        <time>2018-11-26T15:25:48Z</time>
      </trkpt>
      <trkpt lat="42.17468" lon="2.3539">
        <ele>1409.4</ele>
        <time>2018-11-26T15:25:49Z</time>
      </trkpt>
      <trkpt lat="42.17467" lon="2.3539">
        <ele>1411.1</ele>
        <time>2018-11-26T15:25:50Z</time>
      </trkpt>
      <trkpt lat="42.17464" lon="2.35389">
        <ele>1412.2</ele>
        <time>2018-11-26T15:25:51Z</time>
      </trkpt>
      <trkpt lat="42.17462" lon="2.35388">
        <ele>1413</ele>
        <time>2018-11-26T15:25:52Z</time>
      </trkpt>
      <trkpt lat="42.1746" lon="2.35386">
        <ele>1414.1</ele>
        <time>2018-11-26T15:25:52Z</time>
      </trkpt>
      <trkpt lat="42.17459" lon="2.35385">
        <ele>1413</ele>
        <time>2018-11-26T15:25:53Z</time>
      </trkpt>
      <trkpt lat="42.17459" lon="2.35382">
        <ele>1413.1</ele>
        <time>2018-11-26T15:25:54Z</time>
      </trkpt>
      <trkpt lat="42.17457" lon="2.35381">
        <ele>1414.2</ele>
        <time>2018-11-26T15:25:55Z</time>
      </trkpt>
      <trkpt lat="42.17454" lon="2.35382">
        <ele>1415.1</ele>
        <time>2018-11-26T15:25:56Z</time>
      </trkpt>
      <trkpt lat="42.17452" lon="2.35381">
        <ele>1417</ele>
        <time>2018-11-26T15:25:57Z</time>
      </trkpt>
      <trkpt lat="42.1745" lon="2.3538">
        <ele>1416.8</ele>
        <time>2018-11-26T15:25:57Z</time>
      </trkpt>
      <trkpt lat="42.17449" lon="2.35376">
        <ele>1416.2</ele>
        <time>2018-11-26T15:25:59Z</time>
      </trkpt>
      <trkpt lat="42.17448" lon="2.35373">
        <ele>1417.1</ele>
        <time>2018-11-26T15:26:00Z</time>
      </trkpt>
      <trkpt lat="42.17446" lon="2.3537">
        <ele>1417.3</ele>
        <time>2018-11-26T15:26:01Z</time>
      </trkpt>
      <trkpt lat="42.17445" lon="2.35367">
        <ele>1418.1</ele>
        <time>2018-11-26T15:26:02Z</time>
      </trkpt>
      <trkpt lat="42.17445" lon="2.35364">
        <ele>1418.2</ele>
        <time>2018-11-26T15:26:03Z</time>
      </trkpt>
      <trkpt lat="42.17444" lon="2.35361">
        <ele>1419.1</ele>
        <time>2018-11-26T15:26:04Z</time>
      </trkpt>
      <trkpt lat="42.17442" lon="2.35359">
        <ele>1419.2</ele>
        <time>2018-11-26T15:26:05Z</time>
      </trkpt>
      <trkpt lat="42.17442" lon="2.35356">
        <ele>1419</ele>
        <time>2018-11-26T15:26:05Z</time>
      </trkpt>
      <trkpt lat="42.17442" lon="2.35353">
        <ele>1420.1</ele>
        <time>2018-11-26T15:26:06Z</time>
      </trkpt>
      <trkpt lat="42.1744" lon="2.35353">
        <ele>1421.2</ele>
        <time>2018-11-26T15:26:07Z</time>
      </trkpt>
      <trkpt lat="42.17438" lon="2.35354">
        <ele>1422</ele>
        <time>2018-11-26T15:26:08Z</time>
      </trkpt>
      <trkpt lat="42.17436" lon="2.35355">
        <ele>1422</ele>
        <time>2018-11-26T15:26:09Z</time>
      </trkpt>
      <trkpt lat="42.17434" lon="2.35356">
        <ele>1422.3</ele>
        <time>2018-11-26T15:26:10Z</time>
      </trkpt>
      <trkpt lat="42.17432" lon="2.35357">
        <ele>1423</ele>
        <time>2018-11-26T15:26:10Z</time>
      </trkpt>
      <trkpt lat="42.17431" lon="2.35357">
        <ele>1423.1</ele>
        <time>2018-11-26T15:26:11Z</time>
      </trkpt>
      <trkpt lat="42.17429" lon="2.35357">
        <ele>1423.1</ele>
        <time>2018-11-26T15:26:12Z</time>
      </trkpt>
      <trkpt lat="42.17426" lon="2.35356">
        <ele>1423</ele>
        <time>2018-11-26T15:26:13Z</time>
      </trkpt>
      <trkpt lat="42.17424" lon="2.35355">
        <ele>1423.1</ele>
        <time>2018-11-26T15:26:14Z</time>
      </trkpt>
      <trkpt lat="42.1742" lon="2.35355">
        <ele>1424</ele>
        <time>2018-11-26T15:26:15Z</time>
      </trkpt>
      <trkpt lat="42.17418" lon="2.35356">
        <ele>1423.1</ele>
        <time>2018-11-26T15:26:16Z</time>
      </trkpt>
      <trkpt lat="42.17416" lon="2.35357">
        <ele>1425.1</ele>
        <time>2018-11-26T15:26:17Z</time>
      </trkpt>
      <trkpt lat="42.17414" lon="2.35356">
        <ele>1425</ele>
        <time>2018-11-26T15:26:18Z</time>
      </trkpt>
      <trkpt lat="42.17411" lon="2.35356">
        <ele>1425</ele>
        <time>2018-11-26T15:26:19Z</time>
      </trkpt>
      <trkpt lat="42.17408" lon="2.35355">
        <ele>1425</ele>
        <time>2018-11-26T15:26:20Z</time>
      </trkpt>
      <trkpt lat="42.17406" lon="2.35353">
        <ele>1425.1</ele>
        <time>2018-11-26T15:26:21Z</time>
      </trkpt>
      <trkpt lat="42.17403" lon="2.35351">
        <ele>1425</ele>
        <time>2018-11-26T15:26:23Z</time>
      </trkpt>
      <trkpt lat="42.17401" lon="2.35349">
        <ele>1425</ele>
        <time>2018-11-26T15:26:24Z</time>
      </trkpt>
      <trkpt lat="42.17398" lon="2.35347">
        <ele>1425.1</ele>
        <time>2018-11-26T15:26:25Z</time>
      </trkpt>
      <trkpt lat="42.17396" lon="2.35346">
        <ele>1424.8</ele>
        <time>2018-11-26T15:26:26Z</time>
      </trkpt>
      <trkpt lat="42.17393" lon="2.35345">
        <ele>1424</ele>
        <time>2018-11-26T15:26:27Z</time>
      </trkpt>
      <trkpt lat="42.17391" lon="2.35344">
        <ele>1424</ele>
        <time>2018-11-26T15:26:28Z</time>
      </trkpt>
      <trkpt lat="42.17388" lon="2.35343">
        <ele>1424.1</ele>
        <time>2018-11-26T15:26:29Z</time>
      </trkpt>
      <trkpt lat="42.17385" lon="2.35341">
        <ele>1423.9</ele>
        <time>2018-11-26T15:26:30Z</time>
      </trkpt>
      <trkpt lat="42.17383" lon="2.35339">
        <ele>1423</ele>
        <time>2018-11-26T15:26:32Z</time>
      </trkpt>
      <trkpt lat="42.1738" lon="2.35338">
        <ele>1424</ele>
        <time>2018-11-26T15:26:33Z</time>
      </trkpt>
      <trkpt lat="42.17377" lon="2.35336">
        <ele>1424</ele>
        <time>2018-11-26T15:26:34Z</time>
      </trkpt>
      <trkpt lat="42.17374" lon="2.35335">
        <ele>1424</ele>
        <time>2018-11-26T15:26:35Z</time>
      </trkpt>
      <trkpt lat="42.17371" lon="2.35335">
        <ele>1424.1</ele>
        <time>2018-11-26T15:26:37Z</time>
      </trkpt>
      <trkpt lat="42.17367" lon="2.35335">
        <ele>1424.1</ele>
        <time>2018-11-26T15:26:38Z</time>
      </trkpt>
      <trkpt lat="42.17364" lon="2.35335">
        <ele>1424</ele>
        <time>2018-11-26T15:26:39Z</time>
      </trkpt>
      <trkpt lat="42.17361" lon="2.35335">
        <ele>1424.1</ele>
        <time>2018-11-26T15:26:40Z</time>
      </trkpt>
      <trkpt lat="42.17358" lon="2.35335">
        <ele>1424.1</ele>
        <time>2018-11-26T15:26:42Z</time>
      </trkpt>
      <trkpt lat="42.17355" lon="2.35335">
        <ele>1424</ele>
        <time>2018-11-26T15:26:43Z</time>
      </trkpt>
      <trkpt lat="42.17352" lon="2.35336">
        <ele>1424.2</ele>
        <time>2018-11-26T15:26:44Z</time>
      </trkpt>
      <trkpt lat="42.1735" lon="2.35337">
        <ele>1425.1</ele>
        <time>2018-11-26T15:26:45Z</time>
      </trkpt>
      <trkpt lat="42.17347" lon="2.35339">
        <ele>1425.1</ele>
        <time>2018-11-26T15:26:46Z</time>
      </trkpt>
      <trkpt lat="42.17344" lon="2.3534">
        <ele>1425</ele>
        <time>2018-11-26T15:26:47Z</time>
      </trkpt>
      <trkpt lat="42.17341" lon="2.3534">
        <ele>1425</ele>
        <time>2018-11-26T15:26:49Z</time>
      </trkpt>
      <trkpt lat="42.17338" lon="2.35341">
        <ele>1425</ele>
        <time>2018-11-26T15:26:50Z</time>
      </trkpt>
      <trkpt lat="42.17335" lon="2.35341">
        <ele>1425.1</ele>
        <time>2018-11-26T15:26:51Z</time>
      </trkpt>
      <trkpt lat="42.17332" lon="2.35341">
        <ele>1425</ele>
        <time>2018-11-26T15:26:52Z</time>
      </trkpt>
      <trkpt lat="42.17329" lon="2.35341">
        <ele>1425</ele>
        <time>2018-11-26T15:26:53Z</time>
      </trkpt>
      <trkpt lat="42.17326" lon="2.35341">
        <ele>1425.2</ele>
        <time>2018-11-26T15:26:55Z</time>
      </trkpt>
      <trkpt lat="42.17323" lon="2.35341">
        <ele>1426</ele>
        <time>2018-11-26T15:26:56Z</time>
      </trkpt>
      <trkpt lat="42.1732" lon="2.3534">
        <ele>1426.1</ele>
        <time>2018-11-26T15:26:57Z</time>
      </trkpt>
      <trkpt lat="42.17317" lon="2.35338">
        <ele>1426</ele>
        <time>2018-11-26T15:26:58Z</time>
      </trkpt>
      <trkpt lat="42.17314" lon="2.35338">
        <ele>1426</ele>
        <time>2018-11-26T15:27:00Z</time>
      </trkpt>
      <trkpt lat="42.17312" lon="2.35338">
        <ele>1426</ele>
        <time>2018-11-26T15:27:00Z</time>
      </trkpt>
      <trkpt lat="42.17309" lon="2.35337">
        <ele>1427</ele>
        <time>2018-11-26T15:27:02Z</time>
      </trkpt>
      <trkpt lat="42.17307" lon="2.35336">
        <ele>1427</ele>
        <time>2018-11-26T15:27:03Z</time>
      </trkpt>
      <trkpt lat="42.17304" lon="2.35336">
        <ele>1427.1</ele>
        <time>2018-11-26T15:27:04Z</time>
      </trkpt>
      <trkpt lat="42.17302" lon="2.35335">
        <ele>1427.1</ele>
        <time>2018-11-26T15:27:04Z</time>
      </trkpt>
      <trkpt lat="42.173" lon="2.35335">
        <ele>1427.1</ele>
        <time>2018-11-26T15:27:06Z</time>
      </trkpt>
      <trkpt lat="42.17297" lon="2.35335">
        <ele>1428</ele>
        <time>2018-11-26T15:27:07Z</time>
      </trkpt>
      <trkpt lat="42.17294" lon="2.35334">
        <ele>1428.1</ele>
        <time>2018-11-26T15:27:08Z</time>
      </trkpt>
      <trkpt lat="42.17292" lon="2.35334">
        <ele>1428.1</ele>
        <time>2018-11-26T15:27:08Z</time>
      </trkpt>
      <trkpt lat="42.1729" lon="2.35334">
        <ele>1428.2</ele>
        <time>2018-11-26T15:27:09Z</time>
      </trkpt>
      <trkpt lat="42.17288" lon="2.35331">
        <ele>1429.1</ele>
        <time>2018-11-26T15:27:10Z</time>
      </trkpt>
      <trkpt lat="42.17286" lon="2.35329">
        <ele>1429.1</ele>
        <time>2018-11-26T15:27:11Z</time>
      </trkpt>
      <trkpt lat="42.17284" lon="2.35329">
        <ele>1429.1</ele>
        <time>2018-11-26T15:27:12Z</time>
      </trkpt>
      <trkpt lat="42.17282" lon="2.3533">
        <ele>1429</ele>
        <time>2018-11-26T15:27:13Z</time>
      </trkpt>
      <trkpt lat="42.1728" lon="2.35331">
        <ele>1429</ele>
        <time>2018-11-26T15:27:14Z</time>
      </trkpt>
      <trkpt lat="42.17278" lon="2.3533">
        <ele>1429.1</ele>
        <time>2018-11-26T15:27:15Z</time>
      </trkpt>
      <trkpt lat="42.17276" lon="2.35328">
        <ele>1428.1</ele>
        <time>2018-11-26T15:27:16Z</time>
      </trkpt>
      <trkpt lat="42.17274" lon="2.35327">
        <ele>1428.1</ele>
        <time>2018-11-26T15:27:17Z</time>
      </trkpt>
      <trkpt lat="42.17272" lon="2.35329">
        <ele>1427.8</ele>
        <time>2018-11-26T15:27:18Z</time>
      </trkpt>
      <trkpt lat="42.1727" lon="2.35328">
        <ele>1427.1</ele>
        <time>2018-11-26T15:27:18Z</time>
      </trkpt>
      <trkpt lat="42.17268" lon="2.35326">
        <ele>1427.1</ele>
        <time>2018-11-26T15:27:19Z</time>
      </trkpt>
      <trkpt lat="42.17266" lon="2.35325">
        <ele>1426</ele>
        <time>2018-11-26T15:27:20Z</time>
      </trkpt>
      <trkpt lat="42.17264" lon="2.35323">
        <ele>1426</ele>
        <time>2018-11-26T15:27:21Z</time>
      </trkpt>
      <trkpt lat="42.17261" lon="2.35322">
        <ele>1426</ele>
        <time>2018-11-26T15:27:22Z</time>
      </trkpt>
      <trkpt lat="42.1726" lon="2.35321">
        <ele>1426.1</ele>
        <time>2018-11-26T15:27:23Z</time>
      </trkpt>
      <trkpt lat="42.17257" lon="2.3532">
        <ele>1426</ele>
        <time>2018-11-26T15:27:24Z</time>
      </trkpt>
      <trkpt lat="42.17255" lon="2.35319">
        <ele>1426</ele>
        <time>2018-11-26T15:27:25Z</time>
      </trkpt>
      <trkpt lat="42.17253" lon="2.35317">
        <ele>1425</ele>
        <time>2018-11-26T15:27:26Z</time>
      </trkpt>
      <trkpt lat="42.1725" lon="2.35316">
        <ele>1425.1</ele>
        <time>2018-11-26T15:27:27Z</time>
      </trkpt>
      <trkpt lat="42.17249" lon="2.35315">
        <ele>1425.1</ele>
        <time>2018-11-26T15:27:28Z</time>
      </trkpt>
      <trkpt lat="42.17246" lon="2.35314">
        <ele>1425.1</ele>
        <time>2018-11-26T15:27:29Z</time>
      </trkpt>
      <trkpt lat="42.17244" lon="2.35313">
        <ele>1425.1</ele>
        <time>2018-11-26T15:27:30Z</time>
      </trkpt>
      <trkpt lat="42.17243" lon="2.35311">
        <ele>1425.1</ele>
        <time>2018-11-26T15:27:31Z</time>
      </trkpt>
      <trkpt lat="42.17241" lon="2.35309">
        <ele>1425</ele>
        <time>2018-11-26T15:27:32Z</time>
      </trkpt>
      <trkpt lat="42.17238" lon="2.35308">
        <ele>1424.1</ele>
        <time>2018-11-26T15:27:33Z</time>
      </trkpt>
      <trkpt lat="42.17237" lon="2.35305">
        <ele>1424.1</ele>
        <time>2018-11-26T15:27:34Z</time>
      </trkpt>
      <trkpt lat="42.17235" lon="2.35302">
        <ele>1425</ele>
        <time>2018-11-26T15:27:35Z</time>
      </trkpt>
      <trkpt lat="42.17233" lon="2.353">
        <ele>1424</ele>
        <time>2018-11-26T15:27:36Z</time>
      </trkpt>
      <trkpt lat="42.17232" lon="2.35297">
        <ele>1424</ele>
        <time>2018-11-26T15:27:37Z</time>
      </trkpt>
      <trkpt lat="42.1723" lon="2.35295">
        <ele>1424.1</ele>
        <time>2018-11-26T15:27:38Z</time>
      </trkpt>
      <trkpt lat="42.17228" lon="2.35294">
        <ele>1423</ele>
        <time>2018-11-26T15:27:39Z</time>
      </trkpt>
      <trkpt lat="42.17226" lon="2.35292">
        <ele>1423.1</ele>
        <time>2018-11-26T15:27:40Z</time>
      </trkpt>
      <trkpt lat="42.17223" lon="2.3529">
        <ele>1424.1</ele>
        <time>2018-11-26T15:27:41Z</time>
      </trkpt>
      <trkpt lat="42.17221" lon="2.35288">
        <ele>1424.1</ele>
        <time>2018-11-26T15:27:42Z</time>
      </trkpt>
      <trkpt lat="42.17219" lon="2.35286">
        <ele>1424</ele>
        <time>2018-11-26T15:27:43Z</time>
      </trkpt>
      <trkpt lat="42.17217" lon="2.35284">
        <ele>1425</ele>
        <time>2018-11-26T15:27:44Z</time>
      </trkpt>
      <trkpt lat="42.17215" lon="2.35283">
        <ele>1424.8</ele>
        <time>2018-11-26T15:27:45Z</time>
      </trkpt>
      <trkpt lat="42.17214" lon="2.35281">
        <ele>1424</ele>
        <time>2018-11-26T15:27:46Z</time>
      </trkpt>
      <trkpt lat="42.17212" lon="2.3528">
        <ele>1424</ele>
        <time>2018-11-26T15:27:46Z</time>
      </trkpt>
      <trkpt lat="42.17209" lon="2.35278">
        <ele>1424</ele>
        <time>2018-11-26T15:27:48Z</time>
      </trkpt>
      <trkpt lat="42.17207" lon="2.35276">
        <ele>1424</ele>
        <time>2018-11-26T15:27:49Z</time>
      </trkpt>
      <trkpt lat="42.17204" lon="2.35276">
        <ele>1424</ele>
        <time>2018-11-26T15:27:50Z</time>
      </trkpt>
      <trkpt lat="42.17202" lon="2.35275">
        <ele>1424.1</ele>
        <time>2018-11-26T15:27:51Z</time>
      </trkpt>
      <trkpt lat="42.17199" lon="2.35272">
        <ele>1424</ele>
        <time>2018-11-26T15:27:52Z</time>
      </trkpt>
      <trkpt lat="42.17197" lon="2.3527">
        <ele>1424</ele>
        <time>2018-11-26T15:27:53Z</time>
      </trkpt>
      <trkpt lat="42.17195" lon="2.35268">
        <ele>1424</ele>
        <time>2018-11-26T15:27:54Z</time>
      </trkpt>
      <trkpt lat="42.17193" lon="2.35266">
        <ele>1424</ele>
        <time>2018-11-26T15:27:55Z</time>
      </trkpt>
      <trkpt lat="42.1719" lon="2.35265">
        <ele>1423.9</ele>
        <time>2018-11-26T15:27:56Z</time>
      </trkpt>
      <trkpt lat="42.17183" lon="2.35261">
        <ele>1423</ele>
        <time>2018-11-26T15:27:59Z</time>
      </trkpt>
      <trkpt lat="42.17181" lon="2.3526">
        <ele>1423.1</ele>
        <time>2018-11-26T15:28:00Z</time>
      </trkpt>
      <trkpt lat="42.17178" lon="2.35258">
        <ele>1423.1</ele>
        <time>2018-11-26T15:28:01Z</time>
      </trkpt>
      <trkpt lat="42.17176" lon="2.35257">
        <ele>1423</ele>
        <time>2018-11-26T15:28:02Z</time>
      </trkpt>
      <trkpt lat="42.17174" lon="2.35256">
        <ele>1423</ele>
        <time>2018-11-26T15:28:03Z</time>
      </trkpt>
      <trkpt lat="42.17172" lon="2.35254">
        <ele>1422</ele>
        <time>2018-11-26T15:28:04Z</time>
      </trkpt>
      <trkpt lat="42.1717" lon="2.35251">
        <ele>1422.1</ele>
        <time>2018-11-26T15:28:05Z</time>
      </trkpt>
      <trkpt lat="42.17169" lon="2.35249">
        <ele>1422.1</ele>
        <time>2018-11-26T15:28:06Z</time>
      </trkpt>
      <trkpt lat="42.17167" lon="2.35248">
        <ele>1422.1</ele>
        <time>2018-11-26T15:28:07Z</time>
      </trkpt>
      <trkpt lat="42.17164" lon="2.35245">
        <ele>1422</ele>
        <time>2018-11-26T15:28:08Z</time>
      </trkpt>
      <trkpt lat="42.17162" lon="2.35244">
        <ele>1422.1</ele>
        <time>2018-11-26T15:28:09Z</time>
      </trkpt>
      <trkpt lat="42.1716" lon="2.35242">
        <ele>1423.1</ele>
        <time>2018-11-26T15:28:10Z</time>
      </trkpt>
      <trkpt lat="42.17157" lon="2.3524">
        <ele>1423.1</ele>
        <time>2018-11-26T15:28:12Z</time>
      </trkpt>
      <trkpt lat="42.17155" lon="2.35237">
        <ele>1423.1</ele>
        <time>2018-11-26T15:28:13Z</time>
      </trkpt>
      <trkpt lat="42.17153" lon="2.35235">
        <ele>1423.1</ele>
        <time>2018-11-26T15:28:14Z</time>
      </trkpt>
      <trkpt lat="42.17151" lon="2.35233">
        <ele>1423</ele>
        <time>2018-11-26T15:28:15Z</time>
      </trkpt>
      <trkpt lat="42.17149" lon="2.35231">
        <ele>1423</ele>
        <time>2018-11-26T15:28:16Z</time>
      </trkpt>
      <trkpt lat="42.17147" lon="2.3523">
        <ele>1423.1</ele>
        <time>2018-11-26T15:28:17Z</time>
      </trkpt>
      <trkpt lat="42.17145" lon="2.35229">
        <ele>1423.1</ele>
        <time>2018-11-26T15:28:18Z</time>
      </trkpt>
      <trkpt lat="42.17142" lon="2.35228">
        <ele>1424.1</ele>
        <time>2018-11-26T15:28:19Z</time>
      </trkpt>
      <trkpt lat="42.1714" lon="2.35227">
        <ele>1424.1</ele>
        <time>2018-11-26T15:28:20Z</time>
      </trkpt>
      <trkpt lat="42.17137" lon="2.35225">
        <ele>1425.1</ele>
        <time>2018-11-26T15:28:21Z</time>
      </trkpt>
      <trkpt lat="42.17135" lon="2.35223">
        <ele>1425</ele>
        <time>2018-11-26T15:28:22Z</time>
      </trkpt>
      <trkpt lat="42.17132" lon="2.35222">
        <ele>1425.1</ele>
        <time>2018-11-26T15:28:23Z</time>
      </trkpt>
      <trkpt lat="42.1713" lon="2.3522">
        <ele>1425.1</ele>
        <time>2018-11-26T15:28:24Z</time>
      </trkpt>
      <trkpt lat="42.17128" lon="2.35217">
        <ele>1424.8</ele>
        <time>2018-11-26T15:28:25Z</time>
      </trkpt>
      <trkpt lat="42.17126" lon="2.35215">
        <ele>1424.1</ele>
        <time>2018-11-26T15:28:26Z</time>
      </trkpt>
      <trkpt lat="42.17123" lon="2.35214">
        <ele>1424</ele>
        <time>2018-11-26T15:28:28Z</time>
      </trkpt>
      <trkpt lat="42.17122" lon="2.35214">
        <ele>1424</ele>
        <time>2018-11-26T15:28:28Z</time>
      </trkpt>
      <trkpt lat="42.17119" lon="2.35212">
        <ele>1424</ele>
        <time>2018-11-26T15:28:29Z</time>
      </trkpt>
      <trkpt lat="42.17119" lon="2.35209">
        <ele>1425.1</ele>
        <time>2018-11-26T15:28:30Z</time>
      </trkpt>
      <trkpt lat="42.17117" lon="2.35205">
        <ele>1425.3</ele>
        <time>2018-11-26T15:28:31Z</time>
      </trkpt>
      <trkpt lat="42.17116" lon="2.35202">
        <ele>1426</ele>
        <time>2018-11-26T15:28:32Z</time>
      </trkpt>
      <trkpt lat="42.17115" lon="2.352">
        <ele>1426.2</ele>
        <time>2018-11-26T15:28:33Z</time>
      </trkpt>
      <trkpt lat="42.17113" lon="2.35197">
        <ele>1427.1</ele>
        <time>2018-11-26T15:28:34Z</time>
      </trkpt>
      <trkpt lat="42.17111" lon="2.35194">
        <ele>1427.2</ele>
        <time>2018-11-26T15:28:36Z</time>
      </trkpt>
      <trkpt lat="42.1711" lon="2.3519">
        <ele>1429</ele>
        <time>2018-11-26T15:28:37Z</time>
      </trkpt>
      <trkpt lat="42.17109" lon="2.35187">
        <ele>1429.1</ele>
        <time>2018-11-26T15:28:38Z</time>
      </trkpt>
      <trkpt lat="42.17109" lon="2.35183">
        <ele>1429</ele>
        <time>2018-11-26T15:28:39Z</time>
      </trkpt>
      <trkpt lat="42.17109" lon="2.35178">
        <ele>1430</ele>
        <time>2018-11-26T15:28:40Z</time>
      </trkpt>
      <trkpt lat="42.17108" lon="2.35174">
        <ele>1431</ele>
        <time>2018-11-26T15:28:42Z</time>
      </trkpt>
      <trkpt lat="42.17107" lon="2.3517">
        <ele>1432.4</ele>
        <time>2018-11-26T15:28:43Z</time>
      </trkpt>
      <trkpt lat="42.17105" lon="2.35166">
        <ele>1433.1</ele>
        <time>2018-11-26T15:28:44Z</time>
      </trkpt>
      <trkpt lat="42.17103" lon="2.35166">
        <ele>1434.1</ele>
        <time>2018-11-26T15:28:45Z</time>
      </trkpt>
      <trkpt lat="42.17101" lon="2.35164">
        <ele>1434.1</ele>
        <time>2018-11-26T15:28:46Z</time>
      </trkpt>
      <trkpt lat="42.17101" lon="2.35161">
        <ele>1434.1</ele>
        <time>2018-11-26T15:28:47Z</time>
      </trkpt>
      <trkpt lat="42.17101" lon="2.35156">
        <ele>1435.1</ele>
        <time>2018-11-26T15:28:49Z</time>
      </trkpt>
      <trkpt lat="42.17101" lon="2.35152">
        <ele>1436</ele>
        <time>2018-11-26T15:28:50Z</time>
      </trkpt>
      <trkpt lat="42.171" lon="2.35148">
        <ele>1436</ele>
        <time>2018-11-26T15:28:51Z</time>
      </trkpt>
      <trkpt lat="42.17099" lon="2.35145">
        <ele>1437.1</ele>
        <time>2018-11-26T15:28:52Z</time>
      </trkpt>
      <trkpt lat="42.17098" lon="2.35142">
        <ele>1438.3</ele>
        <time>2018-11-26T15:28:53Z</time>
      </trkpt>
      <trkpt lat="42.17096" lon="2.35139">
        <ele>1440</ele>
        <time>2018-11-26T15:28:54Z</time>
      </trkpt>
      <trkpt lat="42.17095" lon="2.35135">
        <ele>1440</ele>
        <time>2018-11-26T15:28:55Z</time>
      </trkpt>
      <trkpt lat="42.17092" lon="2.35134">
        <ele>1441</ele>
        <time>2018-11-26T15:28:57Z</time>
      </trkpt>
      <trkpt lat="42.1709" lon="2.35133">
        <ele>1441</ele>
        <time>2018-11-26T15:28:57Z</time>
      </trkpt>
      <trkpt lat="42.17089" lon="2.35134">
        <ele>1442</ele>
        <time>2018-11-26T15:28:58Z</time>
      </trkpt>
      <trkpt lat="42.17087" lon="2.35135">
        <ele>1442.1</ele>
        <time>2018-11-26T15:28:59Z</time>
      </trkpt>
      <trkpt lat="42.17085" lon="2.35134">
        <ele>1442.1</ele>
        <time>2018-11-26T15:29:00Z</time>
      </trkpt>
      <trkpt lat="42.17082" lon="2.35132">
        <ele>1444.1</ele>
        <time>2018-11-26T15:29:01Z</time>
      </trkpt>
      <trkpt lat="42.1708" lon="2.3513">
        <ele>1444</ele>
        <time>2018-11-26T15:29:02Z</time>
      </trkpt>
      <trkpt lat="42.17078" lon="2.35126">
        <ele>1443</ele>
        <time>2018-11-26T15:29:03Z</time>
      </trkpt>
      <trkpt lat="42.17076" lon="2.35123">
        <ele>1443.1</ele>
        <time>2018-11-26T15:29:05Z</time>
      </trkpt>
      <trkpt lat="42.17074" lon="2.3512">
        <ele>1443.1</ele>
        <time>2018-11-26T15:29:06Z</time>
      </trkpt>
      <trkpt lat="42.17071" lon="2.35116">
        <ele>1443</ele>
        <time>2018-11-26T15:29:07Z</time>
      </trkpt>
      <trkpt lat="42.17069" lon="2.35115">
        <ele>1443.2</ele>
        <time>2018-11-26T15:29:09Z</time>
      </trkpt>
      <trkpt lat="42.17066" lon="2.35113">
        <ele>1444</ele>
        <time>2018-11-26T15:29:10Z</time>
      </trkpt>
      <trkpt lat="42.17065" lon="2.35112">
        <ele>1444</ele>
        <time>2018-11-26T15:29:10Z</time>
      </trkpt>
      <trkpt lat="42.17062" lon="2.35109">
        <ele>1444.1</ele>
        <time>2018-11-26T15:29:12Z</time>
      </trkpt>
      <trkpt lat="42.1706" lon="2.35107">
        <ele>1445</ele>
        <time>2018-11-26T15:29:13Z</time>
      </trkpt>
      <trkpt lat="42.17058" lon="2.35107">
        <ele>1445.4</ele>
        <time>2018-11-26T15:29:14Z</time>
      </trkpt>
      <trkpt lat="42.17055" lon="2.35106">
        <ele>1446.1</ele>
        <time>2018-11-26T15:29:15Z</time>
      </trkpt>
      <trkpt lat="42.17053" lon="2.35104">
        <ele>1448</ele>
        <time>2018-11-26T15:29:16Z</time>
      </trkpt>
      <trkpt lat="42.17051" lon="2.35102">
        <ele>1448.1</ele>
        <time>2018-11-26T15:29:17Z</time>
      </trkpt>
      <trkpt lat="42.17049" lon="2.35099">
        <ele>1449.1</ele>
        <time>2018-11-26T15:29:18Z</time>
      </trkpt>
      <trkpt lat="42.17047" lon="2.35097">
        <ele>1449</ele>
        <time>2018-11-26T15:29:19Z</time>
      </trkpt>
      <trkpt lat="42.17045" lon="2.35094">
        <ele>1450</ele>
        <time>2018-11-26T15:29:20Z</time>
      </trkpt>
      <trkpt lat="42.17043" lon="2.35091">
        <ele>1450</ele>
        <time>2018-11-26T15:29:21Z</time>
      </trkpt>
      <trkpt lat="42.17041" lon="2.35089">
        <ele>1450.1</ele>
        <time>2018-11-26T15:29:22Z</time>
      </trkpt>
      <trkpt lat="42.17039" lon="2.35086">
        <ele>1452</ele>
        <time>2018-11-26T15:29:24Z</time>
      </trkpt>
      <trkpt lat="42.17036" lon="2.35085">
        <ele>1452</ele>
        <time>2018-11-26T15:29:25Z</time>
      </trkpt>
      <trkpt lat="42.17034" lon="2.35083">
        <ele>1452.1</ele>
        <time>2018-11-26T15:29:26Z</time>
      </trkpt>
      <trkpt lat="42.17032" lon="2.35079">
        <ele>1452</ele>
        <time>2018-11-26T15:29:27Z</time>
      </trkpt>
      <trkpt lat="42.17031" lon="2.35076">
        <ele>1452.1</ele>
        <time>2018-11-26T15:29:28Z</time>
      </trkpt>
      <trkpt lat="42.1703" lon="2.35073">
        <ele>1452.1</ele>
        <time>2018-11-26T15:29:29Z</time>
      </trkpt>
      <trkpt lat="42.17029" lon="2.3507">
        <ele>1452.1</ele>
        <time>2018-11-26T15:29:30Z</time>
      </trkpt>
      <trkpt lat="42.17028" lon="2.35066">
        <ele>1452</ele>
        <time>2018-11-26T15:29:31Z</time>
      </trkpt>
      <trkpt lat="42.17027" lon="2.35062">
        <ele>1452</ele>
        <time>2018-11-26T15:29:32Z</time>
      </trkpt>
      <trkpt lat="42.17026" lon="2.35059">
        <ele>1452</ele>
        <time>2018-11-26T15:29:34Z</time>
      </trkpt>
      <trkpt lat="42.17024" lon="2.35055">
        <ele>1452</ele>
        <time>2018-11-26T15:29:35Z</time>
      </trkpt>
      <trkpt lat="42.17023" lon="2.35052">
        <ele>1452.1</ele>
        <time>2018-11-26T15:29:36Z</time>
      </trkpt>
      <trkpt lat="42.17021" lon="2.35048">
        <ele>1452</ele>
        <time>2018-11-26T15:29:37Z</time>
      </trkpt>
      <trkpt lat="42.17021" lon="2.35044">
        <ele>1452</ele>
        <time>2018-11-26T15:29:38Z</time>
      </trkpt>
      <trkpt lat="42.17021" lon="2.35041">
        <ele>1452</ele>
        <time>2018-11-26T15:29:40Z</time>
      </trkpt>
      <trkpt lat="42.1702" lon="2.35037">
        <ele>1452.2</ele>
        <time>2018-11-26T15:29:41Z</time>
      </trkpt>
      <trkpt lat="42.1702" lon="2.35034">
        <ele>1453</ele>
        <time>2018-11-26T15:29:42Z</time>
      </trkpt>
      <trkpt lat="42.17019" lon="2.35032">
        <ele>1451.1</ele>
        <time>2018-11-26T15:29:42Z</time>
      </trkpt>
      <trkpt lat="42.17017" lon="2.35031">
        <ele>1451</ele>
        <time>2018-11-26T15:29:43Z</time>
      </trkpt>
      <trkpt lat="42.17016" lon="2.35028">
        <ele>1451.1</ele>
        <time>2018-11-26T15:29:44Z</time>
      </trkpt>
      <trkpt lat="42.17015" lon="2.35025">
        <ele>1451</ele>
        <time>2018-11-26T15:29:45Z</time>
      </trkpt>
      <trkpt lat="42.17014" lon="2.35021">
        <ele>1451</ele>
        <time>2018-11-26T15:29:46Z</time>
      </trkpt>
      <trkpt lat="42.17014" lon="2.35017">
        <ele>1451</ele>
        <time>2018-11-26T15:29:47Z</time>
      </trkpt>
      <trkpt lat="42.17013" lon="2.35014">
        <ele>1451.1</ele>
        <time>2018-11-26T15:29:48Z</time>
      </trkpt>
      <trkpt lat="42.17012" lon="2.3501">
        <ele>1452</ele>
        <time>2018-11-26T15:29:50Z</time>
      </trkpt>
      <trkpt lat="42.17012" lon="2.35006">
        <ele>1452.1</ele>
        <time>2018-11-26T15:29:51Z</time>
      </trkpt>
      <trkpt lat="42.17013" lon="2.35002">
        <ele>1452.1</ele>
        <time>2018-11-26T15:29:52Z</time>
      </trkpt>
      <trkpt lat="42.17013" lon="2.34998">
        <ele>1452</ele>
        <time>2018-11-26T15:29:53Z</time>
      </trkpt>
      <trkpt lat="42.17013" lon="2.34994">
        <ele>1452</ele>
        <time>2018-11-26T15:29:54Z</time>
      </trkpt>
      <trkpt lat="42.17012" lon="2.3499">
        <ele>1452</ele>
        <time>2018-11-26T15:29:56Z</time>
      </trkpt>
      <trkpt lat="42.17011" lon="2.34986">
        <ele>1452</ele>
        <time>2018-11-26T15:29:57Z</time>
      </trkpt>
      <trkpt lat="42.17009" lon="2.34983">
        <ele>1452.1</ele>
        <time>2018-11-26T15:29:58Z</time>
      </trkpt>
      <trkpt lat="42.17008" lon="2.3498">
        <ele>1452</ele>
        <time>2018-11-26T15:29:59Z</time>
      </trkpt>
      <trkpt lat="42.17007" lon="2.34977">
        <ele>1452</ele>
        <time>2018-11-26T15:30:00Z</time>
      </trkpt>
      <trkpt lat="42.17006" lon="2.34973">
        <ele>1452</ele>
        <time>2018-11-26T15:30:01Z</time>
      </trkpt>
      <trkpt lat="42.17006" lon="2.3497">
        <ele>1452</ele>
        <time>2018-11-26T15:30:02Z</time>
      </trkpt>
      <trkpt lat="42.17005" lon="2.34966">
        <ele>1452.1</ele>
        <time>2018-11-26T15:30:03Z</time>
      </trkpt>
      <trkpt lat="42.17005" lon="2.34962">
        <ele>1452.1</ele>
        <time>2018-11-26T15:30:04Z</time>
      </trkpt>
      <trkpt lat="42.17004" lon="2.34958">
        <ele>1452.1</ele>
        <time>2018-11-26T15:30:06Z</time>
      </trkpt>
      <trkpt lat="42.17004" lon="2.34954">
        <ele>1452</ele>
        <time>2018-11-26T15:30:07Z</time>
      </trkpt>
      <trkpt lat="42.17003" lon="2.3495">
        <ele>1452</ele>
        <time>2018-11-26T15:30:08Z</time>
      </trkpt>
      <trkpt lat="42.17002" lon="2.34946">
        <ele>1452</ele>
        <time>2018-11-26T15:30:09Z</time>
      </trkpt>
      <trkpt lat="42.17001" lon="2.34942">
        <ele>1452.2</ele>
        <time>2018-11-26T15:30:11Z</time>
      </trkpt>
      <trkpt lat="42.17" lon="2.34938">
        <ele>1453</ele>
        <time>2018-11-26T15:30:12Z</time>
      </trkpt>
      <trkpt lat="42.16999" lon="2.34934">
        <ele>1453.1</ele>
        <time>2018-11-26T15:30:13Z</time>
      </trkpt>
      <trkpt lat="42.16997" lon="2.3493">
        <ele>1453</ele>
        <time>2018-11-26T15:30:14Z</time>
      </trkpt>
      <trkpt lat="42.16996" lon="2.34927">
        <ele>1453.1</ele>
        <time>2018-11-26T15:30:16Z</time>
      </trkpt>
      <trkpt lat="42.16996" lon="2.34923">
        <ele>1454</ele>
        <time>2018-11-26T15:30:17Z</time>
      </trkpt>
      <trkpt lat="42.16995" lon="2.34919">
        <ele>1453.2</ele>
        <time>2018-11-26T15:30:18Z</time>
      </trkpt>
      <trkpt lat="42.16994" lon="2.34915">
        <ele>1454</ele>
        <time>2018-11-26T15:30:19Z</time>
      </trkpt>
      <trkpt lat="42.16993" lon="2.34911">
        <ele>1454</ele>
        <time>2018-11-26T15:30:20Z</time>
      </trkpt>
      <trkpt lat="42.16992" lon="2.34908">
        <ele>1454.1</ele>
        <time>2018-11-26T15:30:22Z</time>
      </trkpt>
      <trkpt lat="42.16991" lon="2.34903">
        <ele>1454</ele>
        <time>2018-11-26T15:30:23Z</time>
      </trkpt>
      <trkpt lat="42.1699" lon="2.34899">
        <ele>1454.1</ele>
        <time>2018-11-26T15:30:24Z</time>
      </trkpt>
      <trkpt lat="42.1699" lon="2.34895">
        <ele>1455.1</ele>
        <time>2018-11-26T15:30:25Z</time>
      </trkpt>
      <trkpt lat="42.16989" lon="2.34891">
        <ele>1455</ele>
        <time>2018-11-26T15:30:27Z</time>
      </trkpt>
      <trkpt lat="42.16988" lon="2.34887">
        <ele>1455</ele>
        <time>2018-11-26T15:30:28Z</time>
      </trkpt>
      <trkpt lat="42.16988" lon="2.34883">
        <ele>1455</ele>
        <time>2018-11-26T15:30:29Z</time>
      </trkpt>
      <trkpt lat="42.16988" lon="2.34879">
        <ele>1456</ele>
        <time>2018-11-26T15:30:30Z</time>
      </trkpt>
      <trkpt lat="42.16988" lon="2.34875">
        <ele>1456</ele>
        <time>2018-11-26T15:30:31Z</time>
      </trkpt>
      <trkpt lat="42.16988" lon="2.34871">
        <ele>1456</ele>
        <time>2018-11-26T15:30:32Z</time>
      </trkpt>
      <trkpt lat="42.16987" lon="2.34867">
        <ele>1455.1</ele>
        <time>2018-11-26T15:30:34Z</time>
      </trkpt>
      <trkpt lat="42.16986" lon="2.34864">
        <ele>1455</ele>
        <time>2018-11-26T15:30:35Z</time>
      </trkpt>
      <trkpt lat="42.16987" lon="2.3486">
        <ele>1455</ele>
        <time>2018-11-26T15:30:36Z</time>
      </trkpt>
      <trkpt lat="42.16987" lon="2.34856">
        <ele>1455</ele>
        <time>2018-11-26T15:30:37Z</time>
      </trkpt>
      <trkpt lat="42.16987" lon="2.34852">
        <ele>1455.1</ele>
        <time>2018-11-26T15:30:38Z</time>
      </trkpt>
      <trkpt lat="42.16987" lon="2.34848">
        <ele>1455.1</ele>
        <time>2018-11-26T15:30:40Z</time>
      </trkpt>
      <trkpt lat="42.16987" lon="2.34844">
        <ele>1455</ele>
        <time>2018-11-26T15:30:41Z</time>
      </trkpt>
      <trkpt lat="42.16987" lon="2.3484">
        <ele>1455.1</ele>
        <time>2018-11-26T15:30:42Z</time>
      </trkpt>
      <trkpt lat="42.16987" lon="2.34836">
        <ele>1455</ele>
        <time>2018-11-26T15:30:43Z</time>
      </trkpt>
      <trkpt lat="42.16988" lon="2.34832">
        <ele>1455</ele>
        <time>2018-11-26T15:30:45Z</time>
      </trkpt>
      <trkpt lat="42.16988" lon="2.34828">
        <ele>1455.1</ele>
        <time>2018-11-26T15:30:46Z</time>
      </trkpt>
      <trkpt lat="42.16988" lon="2.34824">
        <ele>1455</ele>
        <time>2018-11-26T15:30:47Z</time>
      </trkpt>
      <trkpt lat="42.16988" lon="2.34819">
        <ele>1455.1</ele>
        <time>2018-11-26T15:30:48Z</time>
      </trkpt>
      <trkpt lat="42.16988" lon="2.34815">
        <ele>1455</ele>
        <time>2018-11-26T15:30:49Z</time>
      </trkpt>
      <trkpt lat="42.16988" lon="2.34812">
        <ele>1455.1</ele>
        <time>2018-11-26T15:30:50Z</time>
      </trkpt>
      <trkpt lat="42.16989" lon="2.34808">
        <ele>1455</ele>
        <time>2018-11-26T15:30:52Z</time>
      </trkpt>
      <trkpt lat="42.16992" lon="2.34806">
        <ele>1455.1</ele>
        <time>2018-11-26T15:30:53Z</time>
      </trkpt>
      <trkpt lat="42.16993" lon="2.34802">
        <ele>1454.8</ele>
        <time>2018-11-26T15:30:54Z</time>
      </trkpt>
      <trkpt lat="42.16993" lon="2.34798">
        <ele>1455.1</ele>
        <time>2018-11-26T15:30:55Z</time>
      </trkpt>
      <trkpt lat="42.16993" lon="2.34794">
        <ele>1456.1</ele>
        <time>2018-11-26T15:30:56Z</time>
      </trkpt>
      <trkpt lat="42.16993" lon="2.34791">
        <ele>1455.8</ele>
        <time>2018-11-26T15:30:57Z</time>
      </trkpt>
      <trkpt lat="42.16993" lon="2.34787">
        <ele>1455</ele>
        <time>2018-11-26T15:30:59Z</time>
      </trkpt>
      <trkpt lat="42.16991" lon="2.34783">
        <ele>1455</ele>
        <time>2018-11-26T15:31:00Z</time>
      </trkpt>
      <trkpt lat="42.1699" lon="2.3478">
        <ele>1456</ele>
        <time>2018-11-26T15:31:01Z</time>
      </trkpt>
      <trkpt lat="42.16988" lon="2.34777">
        <ele>1456.1</ele>
        <time>2018-11-26T15:31:02Z</time>
      </trkpt>
      <trkpt lat="42.16987" lon="2.34773">
        <ele>1456.1</ele>
        <time>2018-11-26T15:31:03Z</time>
      </trkpt>
      <trkpt lat="42.16985" lon="2.34769">
        <ele>1457.1</ele>
        <time>2018-11-26T15:31:04Z</time>
      </trkpt>
      <trkpt lat="42.16985" lon="2.34765">
        <ele>1457.1</ele>
        <time>2018-11-26T15:31:06Z</time>
      </trkpt>
      <trkpt lat="42.16985" lon="2.34761">
        <ele>1457.2</ele>
        <time>2018-11-26T15:31:07Z</time>
      </trkpt>
      <trkpt lat="42.16985" lon="2.34758">
        <ele>1458.1</ele>
        <time>2018-11-26T15:31:08Z</time>
      </trkpt>
      <trkpt lat="42.16986" lon="2.34754">
        <ele>1459.1</ele>
        <time>2018-11-26T15:31:09Z</time>
      </trkpt>
      <trkpt lat="42.16986" lon="2.34751">
        <ele>1460.1</ele>
        <time>2018-11-26T15:31:10Z</time>
      </trkpt>
      <trkpt lat="42.16984" lon="2.34748">
        <ele>1460</ele>
        <time>2018-11-26T15:31:11Z</time>
      </trkpt>
      <trkpt lat="42.16984" lon="2.34746">
        <ele>1460</ele>
        <time>2018-11-26T15:31:12Z</time>
      </trkpt>
      <trkpt lat="42.16985" lon="2.34744">
        <ele>1461.3</ele>
        <time>2018-11-26T15:31:12Z</time>
      </trkpt>
      <trkpt lat="42.16985" lon="2.34741">
        <ele>1463</ele>
        <time>2018-11-26T15:31:13Z</time>
      </trkpt>
      <trkpt lat="42.16983" lon="2.34738">
        <ele>1463</ele>
        <time>2018-11-26T15:31:14Z</time>
      </trkpt>
      <trkpt lat="42.16982" lon="2.34734">
        <ele>1463.1</ele>
        <time>2018-11-26T15:31:15Z</time>
      </trkpt>
      <trkpt lat="42.16981" lon="2.3473">
        <ele>1464.1</ele>
        <time>2018-11-26T15:31:17Z</time>
      </trkpt>
      <trkpt lat="42.1698" lon="2.34725">
        <ele>1465.1</ele>
        <time>2018-11-26T15:31:18Z</time>
      </trkpt>
      <trkpt lat="42.16979" lon="2.34722">
        <ele>1465</ele>
        <time>2018-11-26T15:31:19Z</time>
      </trkpt>
      <trkpt lat="42.16976" lon="2.34721">
        <ele>1466</ele>
        <time>2018-11-26T15:31:20Z</time>
      </trkpt>
      <trkpt lat="42.16973" lon="2.34721">
        <ele>1466</ele>
        <time>2018-11-26T15:31:21Z</time>
      </trkpt>
      <trkpt lat="42.16971" lon="2.34721">
        <ele>1467.1</ele>
        <time>2018-11-26T15:31:22Z</time>
      </trkpt>
      <trkpt lat="42.16968" lon="2.3472">
        <ele>1467</ele>
        <time>2018-11-26T15:31:23Z</time>
      </trkpt>
      <trkpt lat="42.16966" lon="2.34719">
        <ele>1467</ele>
        <time>2018-11-26T15:31:25Z</time>
      </trkpt>
      <trkpt lat="42.16963" lon="2.34719">
        <ele>1466.1</ele>
        <time>2018-11-26T15:31:26Z</time>
      </trkpt>
      <trkpt lat="42.16961" lon="2.34719">
        <ele>1466.1</ele>
        <time>2018-11-26T15:31:26Z</time>
      </trkpt>
      <trkpt lat="42.16959" lon="2.34719">
        <ele>1466</ele>
        <time>2018-11-26T15:31:27Z</time>
      </trkpt>
      <trkpt lat="42.16957" lon="2.34719">
        <ele>1466.1</ele>
        <time>2018-11-26T15:31:28Z</time>
      </trkpt>
      <trkpt lat="42.16954" lon="2.34718">
        <ele>1466</ele>
        <time>2018-11-26T15:31:29Z</time>
      </trkpt>
      <trkpt lat="42.16953" lon="2.34716">
        <ele>1466</ele>
        <time>2018-11-26T15:31:30Z</time>
      </trkpt>
      <trkpt lat="42.16952" lon="2.34712">
        <ele>1466</ele>
        <time>2018-11-26T15:31:31Z</time>
      </trkpt>
      <trkpt lat="42.16952" lon="2.34709">
        <ele>1466</ele>
        <time>2018-11-26T15:31:32Z</time>
      </trkpt>
      <trkpt lat="42.16954" lon="2.34705">
        <ele>1466</ele>
        <time>2018-11-26T15:31:34Z</time>
      </trkpt>
      <trkpt lat="42.16955" lon="2.347">
        <ele>1466</ele>
        <time>2018-11-26T15:31:35Z</time>
      </trkpt>
      <trkpt lat="42.16954" lon="2.34696">
        <ele>1466</ele>
        <time>2018-11-26T15:31:36Z</time>
      </trkpt>
      <trkpt lat="42.16954" lon="2.34692">
        <ele>1466</ele>
        <time>2018-11-26T15:31:37Z</time>
      </trkpt>
      <trkpt lat="42.16953" lon="2.34688">
        <ele>1466.2</ele>
        <time>2018-11-26T15:31:39Z</time>
      </trkpt>
      <trkpt lat="42.16952" lon="2.34684">
        <ele>1468.1</ele>
        <time>2018-11-26T15:31:40Z</time>
      </trkpt>
      <trkpt lat="42.16951" lon="2.34681">
        <ele>1468.1</ele>
        <time>2018-11-26T15:31:41Z</time>
      </trkpt>
      <trkpt lat="42.16949" lon="2.34677">
        <ele>1469</ele>
        <time>2018-11-26T15:31:42Z</time>
      </trkpt>
      <trkpt lat="42.16947" lon="2.34674">
        <ele>1469.3</ele>
        <time>2018-11-26T15:31:44Z</time>
      </trkpt>
      <trkpt lat="42.16947" lon="2.3467">
        <ele>1470.1</ele>
        <time>2018-11-26T15:31:45Z</time>
      </trkpt>
      <trkpt lat="42.16946" lon="2.34667">
        <ele>1470.1</ele>
        <time>2018-11-26T15:31:46Z</time>
      </trkpt>
      <trkpt lat="42.16946" lon="2.34665">
        <ele>1470</ele>
        <time>2018-11-26T15:31:46Z</time>
      </trkpt>
      <trkpt lat="42.16944" lon="2.34661">
        <ele>1470</ele>
        <time>2018-11-26T15:31:48Z</time>
      </trkpt>
      <trkpt lat="42.16943" lon="2.34659">
        <ele>1470.1</ele>
        <time>2018-11-26T15:31:48Z</time>
      </trkpt>
      <trkpt lat="42.16941" lon="2.34656">
        <ele>1471.1</ele>
        <time>2018-11-26T15:31:49Z</time>
      </trkpt>
      <trkpt lat="42.16939" lon="2.34653">
        <ele>1472</ele>
        <time>2018-11-26T15:31:51Z</time>
      </trkpt>
      <trkpt lat="42.16938" lon="2.34651">
        <ele>1472</ele>
        <time>2018-11-26T15:31:51Z</time>
      </trkpt>
      <trkpt lat="42.16937" lon="2.34647">
        <ele>1473</ele>
        <time>2018-11-26T15:31:53Z</time>
      </trkpt>
      <trkpt lat="42.16935" lon="2.34644">
        <ele>1473.2</ele>
        <time>2018-11-26T15:31:54Z</time>
      </trkpt>
      <trkpt lat="42.16933" lon="2.34641">
        <ele>1475.1</ele>
        <time>2018-11-26T15:31:55Z</time>
      </trkpt>
      <trkpt lat="42.16931" lon="2.34637">
        <ele>1475.1</ele>
        <time>2018-11-26T15:31:57Z</time>
      </trkpt>
      <trkpt lat="42.1693" lon="2.34634">
        <ele>1475.2</ele>
        <time>2018-11-26T15:31:58Z</time>
      </trkpt>
      <trkpt lat="42.1693" lon="2.34631">
        <ele>1476.2</ele>
        <time>2018-11-26T15:31:58Z</time>
      </trkpt>
      <trkpt lat="42.16929" lon="2.34628">
        <ele>1477</ele>
        <time>2018-11-26T15:32:00Z</time>
      </trkpt>
      <trkpt lat="42.16928" lon="2.34624">
        <ele>1477</ele>
        <time>2018-11-26T15:32:01Z</time>
      </trkpt>
      <trkpt lat="42.16928" lon="2.3462">
        <ele>1476</ele>
        <time>2018-11-26T15:32:02Z</time>
      </trkpt>
      <trkpt lat="42.1693" lon="2.34621">
        <ele>1476</ele>
        <time>2018-11-26T15:32:03Z</time>
      </trkpt>
      <trkpt lat="42.1693" lon="2.34618">
        <ele>1477</ele>
        <time>2018-11-26T15:32:04Z</time>
      </trkpt>
      <trkpt lat="42.16929" lon="2.34614">
        <ele>1477</ele>
        <time>2018-11-26T15:32:05Z</time>
      </trkpt>
      <trkpt lat="42.16928" lon="2.34612">
        <ele>1477.1</ele>
        <time>2018-11-26T15:32:06Z</time>
      </trkpt>
      <trkpt lat="42.16927" lon="2.34609">
        <ele>1477.1</ele>
        <time>2018-11-26T15:32:07Z</time>
      </trkpt>
      <trkpt lat="42.16927" lon="2.34606">
        <ele>1478</ele>
        <time>2018-11-26T15:32:07Z</time>
      </trkpt>
      <trkpt lat="42.16926" lon="2.34602">
        <ele>1478</ele>
        <time>2018-11-26T15:32:09Z</time>
      </trkpt>
      <trkpt lat="42.16925" lon="2.34598">
        <ele>1478.2</ele>
        <time>2018-11-26T15:32:10Z</time>
      </trkpt>
      <trkpt lat="42.16923" lon="2.34595">
        <ele>1479.1</ele>
        <time>2018-11-26T15:32:11Z</time>
      </trkpt>
      <trkpt lat="42.16922" lon="2.34592">
        <ele>1479.3</ele>
        <time>2018-11-26T15:32:12Z</time>
      </trkpt>
      <trkpt lat="42.16921" lon="2.34589">
        <ele>1480</ele>
        <time>2018-11-26T15:32:13Z</time>
      </trkpt>
      <trkpt lat="42.16919" lon="2.34586">
        <ele>1480</ele>
        <time>2018-11-26T15:32:14Z</time>
      </trkpt>
      <trkpt lat="42.16917" lon="2.34583">
        <ele>1480</ele>
        <time>2018-11-26T15:32:16Z</time>
      </trkpt>
      <trkpt lat="42.16916" lon="2.3458">
        <ele>1480</ele>
        <time>2018-11-26T15:32:16Z</time>
      </trkpt>
      <trkpt lat="42.16914" lon="2.34578">
        <ele>1480.2</ele>
        <time>2018-11-26T15:32:17Z</time>
      </trkpt>
      <trkpt lat="42.16913" lon="2.34575">
        <ele>1481</ele>
        <time>2018-11-26T15:32:18Z</time>
      </trkpt>
      <trkpt lat="42.16912" lon="2.34572">
        <ele>1481.1</ele>
        <time>2018-11-26T15:32:19Z</time>
      </trkpt>
      <trkpt lat="42.16911" lon="2.34569">
        <ele>1482</ele>
        <time>2018-11-26T15:32:20Z</time>
      </trkpt>
      <trkpt lat="42.1691" lon="2.34565">
        <ele>1482</ele>
        <time>2018-11-26T15:32:21Z</time>
      </trkpt>
      <trkpt lat="42.16909" lon="2.34562">
        <ele>1481</ele>
        <time>2018-11-26T15:32:23Z</time>
      </trkpt>
      <trkpt lat="42.16908" lon="2.34559">
        <ele>1481.2</ele>
        <time>2018-11-26T15:32:24Z</time>
      </trkpt>
      <trkpt lat="42.16906" lon="2.34557">
        <ele>1482</ele>
        <time>2018-11-26T15:32:24Z</time>
      </trkpt>
      <trkpt lat="42.16905" lon="2.34555">
        <ele>1483.1</ele>
        <time>2018-11-26T15:32:25Z</time>
      </trkpt>
      <trkpt lat="42.16903" lon="2.34553">
        <ele>1483</ele>
        <time>2018-11-26T15:32:26Z</time>
      </trkpt>
      <trkpt lat="42.16902" lon="2.34551">
        <ele>1483</ele>
        <time>2018-11-26T15:32:27Z</time>
      </trkpt>
      <trkpt lat="42.169" lon="2.34548">
        <ele>1482.1</ele>
        <time>2018-11-26T15:32:28Z</time>
      </trkpt>
      <trkpt lat="42.16898" lon="2.34546">
        <ele>1483</ele>
        <time>2018-11-26T15:32:29Z</time>
      </trkpt>
      <trkpt lat="42.16896" lon="2.34545">
        <ele>1483.1</ele>
        <time>2018-11-26T15:32:30Z</time>
      </trkpt>
      <trkpt lat="42.16895" lon="2.34543">
        <ele>1483</ele>
        <time>2018-11-26T15:32:31Z</time>
      </trkpt>
      <trkpt lat="42.16893" lon="2.34541">
        <ele>1483.1</ele>
        <time>2018-11-26T15:32:31Z</time>
      </trkpt>
      <trkpt lat="42.16892" lon="2.3454">
        <ele>1483.1</ele>
        <time>2018-11-26T15:32:32Z</time>
      </trkpt>
      <trkpt lat="42.16889" lon="2.34539">
        <ele>1483.1</ele>
        <time>2018-11-26T15:32:33Z</time>
      </trkpt>
      <trkpt lat="42.16888" lon="2.34537">
        <ele>1483.1</ele>
        <time>2018-11-26T15:32:34Z</time>
      </trkpt>
      <trkpt lat="42.16886" lon="2.34536">
        <ele>1483.2</ele>
        <time>2018-11-26T15:32:35Z</time>
      </trkpt>
      <trkpt lat="42.16885" lon="2.34534">
        <ele>1484</ele>
        <time>2018-11-26T15:32:36Z</time>
      </trkpt>
      <trkpt lat="42.16884" lon="2.34531">
        <ele>1484</ele>
        <time>2018-11-26T15:32:37Z</time>
      </trkpt>
      <trkpt lat="42.16883" lon="2.34528">
        <ele>1484</ele>
        <time>2018-11-26T15:32:38Z</time>
      </trkpt>
      <trkpt lat="42.16881" lon="2.34526">
        <ele>1484</ele>
        <time>2018-11-26T15:32:38Z</time>
      </trkpt>
      <trkpt lat="42.16879" lon="2.34523">
        <ele>1484</ele>
        <time>2018-11-26T15:32:40Z</time>
      </trkpt>
      <trkpt lat="42.16878" lon="2.3452">
        <ele>1484.1</ele>
        <time>2018-11-26T15:32:41Z</time>
      </trkpt>
      <trkpt lat="42.16875" lon="2.34517">
        <ele>1484.1</ele>
        <time>2018-11-26T15:32:42Z</time>
      </trkpt>
      <trkpt lat="42.16874" lon="2.34514">
        <ele>1484</ele>
        <time>2018-11-26T15:32:43Z</time>
      </trkpt>
      <trkpt lat="42.16872" lon="2.34512">
        <ele>1484.1</ele>
        <time>2018-11-26T15:32:44Z</time>
      </trkpt>
      <trkpt lat="42.1687" lon="2.34509">
        <ele>1485.1</ele>
        <time>2018-11-26T15:32:45Z</time>
      </trkpt>
      <trkpt lat="42.16869" lon="2.34505">
        <ele>1485.1</ele>
        <time>2018-11-26T15:32:46Z</time>
      </trkpt>
      <trkpt lat="42.16868" lon="2.34502">
        <ele>1485</ele>
        <time>2018-11-26T15:32:48Z</time>
      </trkpt>
      <trkpt lat="42.16866" lon="2.34499">
        <ele>1485.1</ele>
        <time>2018-11-26T15:32:49Z</time>
      </trkpt>
      <trkpt lat="42.16864" lon="2.34495">
        <ele>1485</ele>
        <time>2018-11-26T15:32:50Z</time>
      </trkpt>
      <trkpt lat="42.16863" lon="2.34493">
        <ele>1485</ele>
        <time>2018-11-26T15:32:51Z</time>
      </trkpt>
      <trkpt lat="42.16862" lon="2.34489">
        <ele>1486</ele>
        <time>2018-11-26T15:32:52Z</time>
      </trkpt>
      <trkpt lat="42.16861" lon="2.34485">
        <ele>1486</ele>
        <time>2018-11-26T15:32:53Z</time>
      </trkpt>
      <trkpt lat="42.16863" lon="2.34485">
        <ele>1486.1</ele>
        <time>2018-11-26T15:32:54Z</time>
      </trkpt>
      <trkpt lat="42.16862" lon="2.34482">
        <ele>1486</ele>
        <time>2018-11-26T15:32:55Z</time>
      </trkpt>
      <trkpt lat="42.16861" lon="2.34479">
        <ele>1486.1</ele>
        <time>2018-11-26T15:32:56Z</time>
      </trkpt>
      <trkpt lat="42.1686" lon="2.34477">
        <ele>1486</ele>
        <time>2018-11-26T15:32:57Z</time>
      </trkpt>
      <trkpt lat="42.16862" lon="2.34475">
        <ele>1486.1</ele>
        <time>2018-11-26T15:32:58Z</time>
      </trkpt>
      <trkpt lat="42.16864" lon="2.34475">
        <ele>1486</ele>
        <time>2018-11-26T15:32:59Z</time>
      </trkpt>
      <trkpt lat="42.16864" lon="2.34472">
        <ele>1486.1</ele>
        <time>2018-11-26T15:33:00Z</time>
      </trkpt>
      <trkpt lat="42.16864" lon="2.34469">
        <ele>1486</ele>
        <time>2018-11-26T15:33:01Z</time>
      </trkpt>
      <trkpt lat="42.16863" lon="2.34467">
        <ele>1485.7</ele>
        <time>2018-11-26T15:33:02Z</time>
      </trkpt>
      <trkpt lat="42.16861" lon="2.34464">
        <ele>1485</ele>
        <time>2018-11-26T15:33:03Z</time>
      </trkpt>
      <trkpt lat="42.1686" lon="2.34461">
        <ele>1485</ele>
        <time>2018-11-26T15:33:03Z</time>
      </trkpt>
      <trkpt lat="42.1686" lon="2.34459">
        <ele>1485</ele>
        <time>2018-11-26T15:33:04Z</time>
      </trkpt>
      <trkpt lat="42.16858" lon="2.34456">
        <ele>1485.1</ele>
        <time>2018-11-26T15:33:05Z</time>
      </trkpt>
      <trkpt lat="42.16857" lon="2.34455">
        <ele>1485.1</ele>
        <time>2018-11-26T15:33:06Z</time>
      </trkpt>
      <trkpt lat="42.16855" lon="2.34452">
        <ele>1485</ele>
        <time>2018-11-26T15:33:07Z</time>
      </trkpt>
      <trkpt lat="42.16854" lon="2.3445">
        <ele>1485.1</ele>
        <time>2018-11-26T15:33:08Z</time>
      </trkpt>
      <trkpt lat="42.16852" lon="2.34448">
        <ele>1485.1</ele>
        <time>2018-11-26T15:33:09Z</time>
      </trkpt>
      <trkpt lat="42.1685" lon="2.34445">
        <ele>1485.1</ele>
        <time>2018-11-26T15:33:10Z</time>
      </trkpt>
      <trkpt lat="42.16847" lon="2.34442">
        <ele>1484.1</ele>
        <time>2018-11-26T15:33:11Z</time>
      </trkpt>
      <trkpt lat="42.16846" lon="2.34439">
        <ele>1484.1</ele>
        <time>2018-11-26T15:33:12Z</time>
      </trkpt>
      <trkpt lat="42.16844" lon="2.34436">
        <ele>1484</ele>
        <time>2018-11-26T15:33:14Z</time>
      </trkpt>
      <trkpt lat="42.16759" lon="2.34466">
        <ele>1475.5</ele>
        <time>2018-11-26T17:02:02Z</time>
      </trkpt>
      <trkpt lat="42.16758" lon="2.34464">
        <ele>1475.5</ele>
        <time>2018-11-26T17:02:02Z</time>
      </trkpt>
      <trkpt lat="42.16756" lon="2.34462">
        <ele>1475.6</ele>
        <time>2018-11-26T17:02:03Z</time>
      </trkpt>
      <trkpt lat="42.16757" lon="2.34465">
        <ele>1474.2</ele>
        <time>2018-11-26T17:02:04Z</time>
      </trkpt>
      <trkpt lat="42.1676" lon="2.34468">
        <ele>1475</ele>
        <time>2018-11-26T17:02:06Z</time>
      </trkpt>
      <trkpt lat="42.16761" lon="2.34471">
        <ele>1475</ele>
        <time>2018-11-26T17:02:06Z</time>
      </trkpt>
      <trkpt lat="42.16752" lon="2.34473">
        <ele>1476</ele>
        <time>2018-11-26T17:02:10Z</time>
      </trkpt>
      <trkpt lat="42.16745" lon="2.34481">
        <ele>1478.2</ele>
        <time>2018-11-26T17:02:14Z</time>
      </trkpt>
      <trkpt lat="42.16737" lon="2.3449">
        <ele>1479.4</ele>
        <time>2018-11-26T17:02:18Z</time>
      </trkpt>
      <trkpt lat="42.16729" lon="2.34497">
        <ele>1480.4</ele>
        <time>2018-11-26T17:02:22Z</time>
      </trkpt>
      <trkpt lat="42.16721" lon="2.34501">
        <ele>1480.6</ele>
        <time>2018-11-26T17:02:25Z</time>
      </trkpt>
      <trkpt lat="42.16712" lon="2.34505">
        <ele>1481.5</ele>
        <time>2018-11-26T17:02:29Z</time>
      </trkpt>
      <trkpt lat="42.16703" lon="2.34507">
        <ele>1481.5</ele>
        <time>2018-11-26T17:02:32Z</time>
      </trkpt>
      <trkpt lat="42.16693" lon="2.34504">
        <ele>1480.5</ele>
        <time>2018-11-26T17:02:37Z</time>
      </trkpt>
      <trkpt lat="42.16684" lon="2.34507">
        <ele>1480.1</ele>
        <time>2018-11-26T17:02:40Z</time>
      </trkpt>
      <trkpt lat="42.16675" lon="2.34508">
        <ele>1478.2</ele>
        <time>2018-11-26T17:02:44Z</time>
      </trkpt>
      <trkpt lat="42.16666" lon="2.34516">
        <ele>1478.5</ele>
        <time>2018-11-26T17:02:48Z</time>
      </trkpt>
      <trkpt lat="42.16664" lon="2.34518">
        <ele>1478.4</ele>
        <time>2018-11-26T17:02:49Z</time>
      </trkpt>
      <trkpt lat="42.16662" lon="2.34518">
        <ele>1479.1</ele>
        <time>2018-11-26T17:02:50Z</time>
      </trkpt>
      <trkpt lat="42.1666" lon="2.34517">
        <ele>1479.2</ele>
        <time>2018-11-26T17:02:51Z</time>
      </trkpt>
      <trkpt lat="42.16657" lon="2.34516">
        <ele>1479.5</ele>
        <time>2018-11-26T17:02:52Z</time>
      </trkpt>
      <trkpt lat="42.16655" lon="2.34516">
        <ele>1478.9</ele>
        <time>2018-11-26T17:02:53Z</time>
      </trkpt>
      <trkpt lat="42.16653" lon="2.34518">
        <ele>1478.1</ele>
        <time>2018-11-26T17:02:54Z</time>
      </trkpt>
      <trkpt lat="42.16651" lon="2.3452">
        <ele>1477</ele>
        <time>2018-11-26T17:02:55Z</time>
      </trkpt>
      <trkpt lat="42.16649" lon="2.34521">
        <ele>1475.5</ele>
        <time>2018-11-26T17:02:56Z</time>
      </trkpt>
      <trkpt lat="42.16647" lon="2.3452">
        <ele>1474.9</ele>
        <time>2018-11-26T17:02:57Z</time>
      </trkpt>
      <trkpt lat="42.16645" lon="2.3452">
        <ele>1474.5</ele>
        <time>2018-11-26T17:02:58Z</time>
      </trkpt>
      <trkpt lat="42.16642" lon="2.34519">
        <ele>1473.8</ele>
        <time>2018-11-26T17:02:58Z</time>
      </trkpt>
      <trkpt lat="42.16641" lon="2.34517">
        <ele>1471.4</ele>
        <time>2018-11-26T17:02:59Z</time>
      </trkpt>
      <trkpt lat="42.1664" lon="2.34515">
        <ele>1471.1</ele>
        <time>2018-11-26T17:03:00Z</time>
      </trkpt>
      <trkpt lat="42.16639" lon="2.34513">
        <ele>1470.8</ele>
        <time>2018-11-26T17:03:01Z</time>
      </trkpt>
      <trkpt lat="42.16637" lon="2.34513">
        <ele>1468.6</ele>
        <time>2018-11-26T17:03:02Z</time>
      </trkpt>
      <trkpt lat="42.16635" lon="2.34514">
        <ele>1467.9</ele>
        <time>2018-11-26T17:03:02Z</time>
      </trkpt>
      <trkpt lat="42.16625" lon="2.34514">
        <ele>1464.4</ele>
        <time>2018-11-26T17:03:06Z</time>
      </trkpt>
      <trkpt lat="42.1662" lon="2.34514">
        <ele>1463.6</ele>
        <time>2018-11-26T17:03:08Z</time>
      </trkpt>
      <trkpt lat="42.16617" lon="2.34514">
        <ele>1463.6</ele>
        <time>2018-11-26T17:03:10Z</time>
      </trkpt>
      <trkpt lat="42.16607" lon="2.34512">
        <ele>1462.8</ele>
        <time>2018-11-26T17:03:14Z</time>
      </trkpt>
      <trkpt lat="42.16597" lon="2.34509">
        <ele>1461.1</ele>
        <time>2018-11-26T17:03:18Z</time>
      </trkpt>
      <trkpt lat="42.16593" lon="2.34508">
        <ele>1461.1</ele>
        <time>2018-11-26T17:03:19Z</time>
      </trkpt>
      <trkpt lat="42.16591" lon="2.34509">
        <ele>1461.1</ele>
        <time>2018-11-26T17:03:20Z</time>
      </trkpt>
      <trkpt lat="42.16588" lon="2.34509">
        <ele>1460.1</ele>
        <time>2018-11-26T17:03:22Z</time>
      </trkpt>
      <trkpt lat="42.16585" lon="2.3451">
        <ele>1459.4</ele>
        <time>2018-11-26T17:03:23Z</time>
      </trkpt>
      <trkpt lat="42.16584" lon="2.34512">
        <ele>1459.1</ele>
        <time>2018-11-26T17:03:24Z</time>
      </trkpt>
      <trkpt lat="42.16582" lon="2.34513">
        <ele>1459.2</ele>
        <time>2018-11-26T17:03:24Z</time>
      </trkpt>
      <trkpt lat="42.16579" lon="2.34512">
        <ele>1457.8</ele>
        <time>2018-11-26T17:03:25Z</time>
      </trkpt>
      <trkpt lat="42.16576" lon="2.34512">
        <ele>1457.3</ele>
        <time>2018-11-26T17:03:27Z</time>
      </trkpt>
      <trkpt lat="42.16574" lon="2.34511">
        <ele>1456.6</ele>
        <time>2018-11-26T17:03:27Z</time>
      </trkpt>
      <trkpt lat="42.16572" lon="2.34509">
        <ele>1456.5</ele>
        <time>2018-11-26T17:03:28Z</time>
      </trkpt>
      <trkpt lat="42.16569" lon="2.34508">
        <ele>1455.6</ele>
        <time>2018-11-26T17:03:30Z</time>
      </trkpt>
      <trkpt lat="42.16565" lon="2.34507">
        <ele>1454.8</ele>
        <time>2018-11-26T17:03:31Z</time>
      </trkpt>
      <trkpt lat="42.16563" lon="2.34507">
        <ele>1454.5</ele>
        <time>2018-11-26T17:03:32Z</time>
      </trkpt>
      <trkpt lat="42.16562" lon="2.34508">
        <ele>1453.9</ele>
        <time>2018-11-26T17:03:33Z</time>
      </trkpt>
      <trkpt lat="42.16559" lon="2.34508">
        <ele>1453.6</ele>
        <time>2018-11-26T17:03:34Z</time>
      </trkpt>
      <trkpt lat="42.16555" lon="2.34508">
        <ele>1452.5</ele>
        <time>2018-11-26T17:03:35Z</time>
      </trkpt>
      <trkpt lat="42.16553" lon="2.34509">
        <ele>1452</ele>
        <time>2018-11-26T17:03:36Z</time>
      </trkpt>
      <trkpt lat="42.16551" lon="2.34509">
        <ele>1451.9</ele>
        <time>2018-11-26T17:03:37Z</time>
      </trkpt>
      <trkpt lat="42.16549" lon="2.34509">
        <ele>1451.8</ele>
        <time>2018-11-26T17:03:38Z</time>
      </trkpt>
      <trkpt lat="42.16547" lon="2.34509">
        <ele>1451.5</ele>
        <time>2018-11-26T17:03:39Z</time>
      </trkpt>
      <trkpt lat="42.16544" lon="2.34509">
        <ele>1451.1</ele>
        <time>2018-11-26T17:03:40Z</time>
      </trkpt>
      <trkpt lat="42.16542" lon="2.34509">
        <ele>1450.2</ele>
        <time>2018-11-26T17:03:41Z</time>
      </trkpt>
      <trkpt lat="42.1654" lon="2.3451">
        <ele>1450.2</ele>
        <time>2018-11-26T17:03:41Z</time>
      </trkpt>
      <trkpt lat="42.16537" lon="2.34509">
        <ele>1450.1</ele>
        <time>2018-11-26T17:03:42Z</time>
      </trkpt>
      <trkpt lat="42.16535" lon="2.34509">
        <ele>1449.5</ele>
        <time>2018-11-26T17:03:43Z</time>
      </trkpt>
      <trkpt lat="42.16531" lon="2.34508">
        <ele>1450</ele>
        <time>2018-11-26T17:03:45Z</time>
      </trkpt>
      <trkpt lat="42.16529" lon="2.34507">
        <ele>1449.5</ele>
        <time>2018-11-26T17:03:46Z</time>
      </trkpt>
      <trkpt lat="42.16527" lon="2.34506">
        <ele>1450</ele>
        <time>2018-11-26T17:03:46Z</time>
      </trkpt>
      <trkpt lat="42.16526" lon="2.34505">
        <ele>1450</ele>
        <time>2018-11-26T17:03:47Z</time>
      </trkpt>
      <trkpt lat="42.16524" lon="2.34504">
        <ele>1450.1</ele>
        <time>2018-11-26T17:03:48Z</time>
      </trkpt>
      <trkpt lat="42.16522" lon="2.34503">
        <ele>1450.2</ele>
        <time>2018-11-26T17:03:49Z</time>
      </trkpt>
      <trkpt lat="42.1652" lon="2.34501">
        <ele>1450.1</ele>
        <time>2018-11-26T17:03:50Z</time>
      </trkpt>
      <trkpt lat="42.16518" lon="2.34499">
        <ele>1450.2</ele>
        <time>2018-11-26T17:03:51Z</time>
      </trkpt>
      <trkpt lat="42.16516" lon="2.34497">
        <ele>1450.1</ele>
        <time>2018-11-26T17:03:52Z</time>
      </trkpt>
      <trkpt lat="42.16515" lon="2.34494">
        <ele>1450.2</ele>
        <time>2018-11-26T17:03:53Z</time>
      </trkpt>
      <trkpt lat="42.16513" lon="2.34493">
        <ele>1450.1</ele>
        <time>2018-11-26T17:03:53Z</time>
      </trkpt>
      <trkpt lat="42.1651" lon="2.3449">
        <ele>1449.9</ele>
        <time>2018-11-26T17:03:55Z</time>
      </trkpt>
      <trkpt lat="42.16508" lon="2.34488">
        <ele>1449.5</ele>
        <time>2018-11-26T17:03:56Z</time>
      </trkpt>
      <trkpt lat="42.16505" lon="2.34486">
        <ele>1449.6</ele>
        <time>2018-11-26T17:03:57Z</time>
      </trkpt>
      <trkpt lat="42.16503" lon="2.34484">
        <ele>1448.8</ele>
        <time>2018-11-26T17:03:59Z</time>
      </trkpt>
      <trkpt lat="42.165" lon="2.34482">
        <ele>1448.5</ele>
        <time>2018-11-26T17:04:00Z</time>
      </trkpt>
      <trkpt lat="42.16497" lon="2.3448">
        <ele>1447.1</ele>
        <time>2018-11-26T17:04:01Z</time>
      </trkpt>
      <trkpt lat="42.16495" lon="2.34479">
        <ele>1446.8</ele>
        <time>2018-11-26T17:04:02Z</time>
      </trkpt>
      <trkpt lat="42.16491" lon="2.34477">
        <ele>1445.9</ele>
        <time>2018-11-26T17:04:03Z</time>
      </trkpt>
      <trkpt lat="42.1649" lon="2.34477">
        <ele>1445.5</ele>
        <time>2018-11-26T17:04:04Z</time>
      </trkpt>
      <trkpt lat="42.16488" lon="2.34478">
        <ele>1444.1</ele>
        <time>2018-11-26T17:04:05Z</time>
      </trkpt>
      <trkpt lat="42.16486" lon="2.34479">
        <ele>1443.5</ele>
        <time>2018-11-26T17:04:06Z</time>
      </trkpt>
      <trkpt lat="42.16484" lon="2.34479">
        <ele>1443.4</ele>
        <time>2018-11-26T17:04:06Z</time>
      </trkpt>
      <trkpt lat="42.16482" lon="2.34478">
        <ele>1442.5</ele>
        <time>2018-11-26T17:04:07Z</time>
      </trkpt>
      <trkpt lat="42.16481" lon="2.34477">
        <ele>1442.2</ele>
        <time>2018-11-26T17:04:08Z</time>
      </trkpt>
      <trkpt lat="42.16479" lon="2.34476">
        <ele>1442.1</ele>
        <time>2018-11-26T17:04:09Z</time>
      </trkpt>
      <trkpt lat="42.16476" lon="2.34474">
        <ele>1441.1</ele>
        <time>2018-11-26T17:04:10Z</time>
      </trkpt>
      <trkpt lat="42.16474" lon="2.34471">
        <ele>1441.5</ele>
        <time>2018-11-26T17:04:11Z</time>
      </trkpt>
      <trkpt lat="42.16472" lon="2.34469">
        <ele>1441.1</ele>
        <time>2018-11-26T17:04:12Z</time>
      </trkpt>
      <trkpt lat="42.16468" lon="2.34467">
        <ele>1441.6</ele>
        <time>2018-11-26T17:04:14Z</time>
      </trkpt>
      <trkpt lat="42.16465" lon="2.34467">
        <ele>1441.2</ele>
        <time>2018-11-26T17:04:15Z</time>
      </trkpt>
      <trkpt lat="42.16462" lon="2.34466">
        <ele>1440.8</ele>
        <time>2018-11-26T17:04:16Z</time>
      </trkpt>
      <trkpt lat="42.1646" lon="2.34465">
        <ele>1441.1</ele>
        <time>2018-11-26T17:04:17Z</time>
      </trkpt>
      <trkpt lat="42.16458" lon="2.34464">
        <ele>1441</ele>
        <time>2018-11-26T17:04:18Z</time>
      </trkpt>
      <trkpt lat="42.16456" lon="2.34464">
        <ele>1441.1</ele>
        <time>2018-11-26T17:04:19Z</time>
      </trkpt>
      <trkpt lat="42.16454" lon="2.34465">
        <ele>1440.5</ele>
        <time>2018-11-26T17:04:20Z</time>
      </trkpt>
      <trkpt lat="42.16452" lon="2.34462">
        <ele>1440.5</ele>
        <time>2018-11-26T17:04:21Z</time>
      </trkpt>
      <trkpt lat="42.16452" lon="2.3446">
        <ele>1439.1</ele>
        <time>2018-11-26T17:04:22Z</time>
      </trkpt>
      <trkpt lat="42.16449" lon="2.34458">
        <ele>1438.5</ele>
        <time>2018-11-26T17:04:23Z</time>
      </trkpt>
      <trkpt lat="42.16448" lon="2.34458">
        <ele>1437.4</ele>
        <time>2018-11-26T17:04:23Z</time>
      </trkpt>
      <trkpt lat="42.16446" lon="2.34458">
        <ele>1435.9</ele>
        <time>2018-11-26T17:04:24Z</time>
      </trkpt>
      <trkpt lat="42.16444" lon="2.34458">
        <ele>1435.1</ele>
        <time>2018-11-26T17:04:25Z</time>
      </trkpt>
      <trkpt lat="42.16441" lon="2.34459">
        <ele>1434.3</ele>
        <time>2018-11-26T17:04:26Z</time>
      </trkpt>
      <trkpt lat="42.16439" lon="2.3446">
        <ele>1433.5</ele>
        <time>2018-11-26T17:04:27Z</time>
      </trkpt>
      <trkpt lat="42.16437" lon="2.34461">
        <ele>1433.4</ele>
        <time>2018-11-26T17:04:28Z</time>
      </trkpt>
      <trkpt lat="42.16435" lon="2.34462">
        <ele>1433.1</ele>
        <time>2018-11-26T17:04:29Z</time>
      </trkpt>
      <trkpt lat="42.16432" lon="2.34463">
        <ele>1432.8</ele>
        <time>2018-11-26T17:04:30Z</time>
      </trkpt>
      <trkpt lat="42.1643" lon="2.34465">
        <ele>1432.9</ele>
        <time>2018-11-26T17:04:31Z</time>
      </trkpt>
      <trkpt lat="42.16428" lon="2.34467">
        <ele>1431.6</ele>
        <time>2018-11-26T17:04:32Z</time>
      </trkpt>
      <trkpt lat="42.16425" lon="2.3447">
        <ele>1428.9</ele>
        <time>2018-11-26T17:04:33Z</time>
      </trkpt>
      <trkpt lat="42.16423" lon="2.34472">
        <ele>1428.4</ele>
        <time>2018-11-26T17:04:34Z</time>
      </trkpt>
      <trkpt lat="42.16422" lon="2.34474">
        <ele>1428.4</ele>
        <time>2018-11-26T17:04:35Z</time>
      </trkpt>
      <trkpt lat="42.1642" lon="2.34477">
        <ele>1428.2</ele>
        <time>2018-11-26T17:04:36Z</time>
      </trkpt>
      <trkpt lat="42.16418" lon="2.34479">
        <ele>1427.5</ele>
        <time>2018-11-26T17:04:37Z</time>
      </trkpt>
      <trkpt lat="42.16415" lon="2.3448">
        <ele>1427.4</ele>
        <time>2018-11-26T17:04:38Z</time>
      </trkpt>
      <trkpt lat="42.16413" lon="2.34481">
        <ele>1426.2</ele>
        <time>2018-11-26T17:04:39Z</time>
      </trkpt>
      <trkpt lat="42.16412" lon="2.34482">
        <ele>1426.1</ele>
        <time>2018-11-26T17:04:40Z</time>
      </trkpt>
      <trkpt lat="42.16409" lon="2.34483">
        <ele>1425.4</ele>
        <time>2018-11-26T17:04:41Z</time>
      </trkpt>
      <trkpt lat="42.16406" lon="2.34485">
        <ele>1425</ele>
        <time>2018-11-26T17:04:42Z</time>
      </trkpt>
      <trkpt lat="42.16403" lon="2.34485">
        <ele>1423.5</ele>
        <time>2018-11-26T17:04:43Z</time>
      </trkpt>
      <trkpt lat="42.16401" lon="2.34486">
        <ele>1423.2</ele>
        <time>2018-11-26T17:04:44Z</time>
      </trkpt>
      <trkpt lat="42.164" lon="2.34488">
        <ele>1422.4</ele>
        <time>2018-11-26T17:04:45Z</time>
      </trkpt>
      <trkpt lat="42.16397" lon="2.34488">
        <ele>1420.5</ele>
        <time>2018-11-26T17:04:46Z</time>
      </trkpt>
      <trkpt lat="42.16395" lon="2.3449">
        <ele>1420.1</ele>
        <time>2018-11-26T17:04:47Z</time>
      </trkpt>
      <trkpt lat="42.16392" lon="2.3449">
        <ele>1417.8</ele>
        <time>2018-11-26T17:04:48Z</time>
      </trkpt>
      <trkpt lat="42.1639" lon="2.3449">
        <ele>1417.8</ele>
        <time>2018-11-26T17:04:49Z</time>
      </trkpt>
      <trkpt lat="42.16388" lon="2.34489">
        <ele>1417.5</ele>
        <time>2018-11-26T17:04:50Z</time>
      </trkpt>
      <trkpt lat="42.16386" lon="2.34489">
        <ele>1416.6</ele>
        <time>2018-11-26T17:04:51Z</time>
      </trkpt>
      <trkpt lat="42.16382" lon="2.34488">
        <ele>1416.1</ele>
        <time>2018-11-26T17:04:52Z</time>
      </trkpt>
      <trkpt lat="42.1638" lon="2.34487">
        <ele>1414.5</ele>
        <time>2018-11-26T17:04:53Z</time>
      </trkpt>
      <trkpt lat="42.16378" lon="2.34486">
        <ele>1414.1</ele>
        <time>2018-11-26T17:04:54Z</time>
      </trkpt>
      <trkpt lat="42.16375" lon="2.34484">
        <ele>1413.8</ele>
        <time>2018-11-26T17:04:55Z</time>
      </trkpt>
      <trkpt lat="42.16374" lon="2.34482">
        <ele>1411.5</ele>
        <time>2018-11-26T17:04:56Z</time>
      </trkpt>
      <trkpt lat="42.16372" lon="2.34481">
        <ele>1411</ele>
        <time>2018-11-26T17:04:57Z</time>
      </trkpt>
      <trkpt lat="42.1637" lon="2.34481">
        <ele>1411</ele>
        <time>2018-11-26T17:04:57Z</time>
      </trkpt>
      <trkpt lat="42.16368" lon="2.34481">
        <ele>1410.4</ele>
        <time>2018-11-26T17:04:58Z</time>
      </trkpt>
      <trkpt lat="42.16366" lon="2.34481">
        <ele>1409.2</ele>
        <time>2018-11-26T17:04:59Z</time>
      </trkpt>
      <trkpt lat="42.16364" lon="2.34483">
        <ele>1407.6</ele>
        <time>2018-11-26T17:05:00Z</time>
      </trkpt>
      <trkpt lat="42.16362" lon="2.34482">
        <ele>1405.5</ele>
        <time>2018-11-26T17:05:01Z</time>
      </trkpt>
      <trkpt lat="42.1636" lon="2.34483">
        <ele>1404.5</ele>
        <time>2018-11-26T17:05:02Z</time>
      </trkpt>
      <trkpt lat="42.16358" lon="2.34484">
        <ele>1404.2</ele>
        <time>2018-11-26T17:05:02Z</time>
      </trkpt>
      <trkpt lat="42.16356" lon="2.34485">
        <ele>1403.9</ele>
        <time>2018-11-26T17:05:03Z</time>
      </trkpt>
      <trkpt lat="42.16354" lon="2.34486">
        <ele>1403.8</ele>
        <time>2018-11-26T17:05:04Z</time>
      </trkpt>
      <trkpt lat="42.16353" lon="2.34486">
        <ele>1403.1</ele>
        <time>2018-11-26T17:05:05Z</time>
      </trkpt>
      <trkpt lat="42.16351" lon="2.34488">
        <ele>1403.2</ele>
        <time>2018-11-26T17:05:06Z</time>
      </trkpt>
      <trkpt lat="42.16348" lon="2.34491">
        <ele>1401.8</ele>
        <time>2018-11-26T17:05:07Z</time>
      </trkpt>
      <trkpt lat="42.16346" lon="2.34492">
        <ele>1400.8</ele>
        <time>2018-11-26T17:05:08Z</time>
      </trkpt>
      <trkpt lat="42.16343" lon="2.34497">
        <ele>1399.1</ele>
        <time>2018-11-26T17:05:10Z</time>
      </trkpt>
      <trkpt lat="42.16342" lon="2.34497">
        <ele>1399.2</ele>
        <time>2018-11-26T17:05:10Z</time>
      </trkpt>
      <trkpt lat="42.1634" lon="2.34496">
        <ele>1398.8</ele>
        <time>2018-11-26T17:05:11Z</time>
      </trkpt>
      <trkpt lat="42.16338" lon="2.34497">
        <ele>1397.1</ele>
        <time>2018-11-26T17:05:12Z</time>
      </trkpt>
      <trkpt lat="42.16335" lon="2.34497">
        <ele>1396</ele>
        <time>2018-11-26T17:05:13Z</time>
      </trkpt>
      <trkpt lat="42.16334" lon="2.34499">
        <ele>1396.5</ele>
        <time>2018-11-26T17:05:14Z</time>
      </trkpt>
      <trkpt lat="42.16332" lon="2.34498">
        <ele>1396</ele>
        <time>2018-11-26T17:05:15Z</time>
      </trkpt>
      <trkpt lat="42.1633" lon="2.34498">
        <ele>1395.4</ele>
        <time>2018-11-26T17:05:16Z</time>
      </trkpt>
      <trkpt lat="42.16328" lon="2.34496">
        <ele>1393.5</ele>
        <time>2018-11-26T17:05:16Z</time>
      </trkpt>
      <trkpt lat="42.16327" lon="2.34494">
        <ele>1392.1</ele>
        <time>2018-11-26T17:05:17Z</time>
      </trkpt>
      <trkpt lat="42.16325" lon="2.34492">
        <ele>1388.9</ele>
        <time>2018-11-26T17:05:18Z</time>
      </trkpt>
      <trkpt lat="42.16323" lon="2.34494">
        <ele>1387.5</ele>
        <time>2018-11-26T17:05:19Z</time>
      </trkpt>
      <trkpt lat="42.16321" lon="2.34495">
        <ele>1387.1</ele>
        <time>2018-11-26T17:05:20Z</time>
      </trkpt>
      <trkpt lat="42.1632" lon="2.34498">
        <ele>1386.5</ele>
        <time>2018-11-26T17:05:21Z</time>
      </trkpt>
      <trkpt lat="42.16318" lon="2.34501">
        <ele>1386</ele>
        <time>2018-11-26T17:05:22Z</time>
      </trkpt>
      <trkpt lat="42.16317" lon="2.34503">
        <ele>1385.8</ele>
        <time>2018-11-26T17:05:23Z</time>
      </trkpt>
      <trkpt lat="42.16315" lon="2.34507">
        <ele>1385.5</ele>
        <time>2018-11-26T17:05:24Z</time>
      </trkpt>
      <trkpt lat="42.16315" lon="2.34511">
        <ele>1384.2</ele>
        <time>2018-11-26T17:05:25Z</time>
      </trkpt>
      <trkpt lat="42.16314" lon="2.34513">
        <ele>1384.1</ele>
        <time>2018-11-26T17:05:26Z</time>
      </trkpt>
      <trkpt lat="42.16313" lon="2.34515">
        <ele>1383</ele>
        <time>2018-11-26T17:05:27Z</time>
      </trkpt>
      <trkpt lat="42.16311" lon="2.3452">
        <ele>1382.3</ele>
        <time>2018-11-26T17:05:29Z</time>
      </trkpt>
      <trkpt lat="42.16308" lon="2.34524">
        <ele>1381.1</ele>
        <time>2018-11-26T17:05:30Z</time>
      </trkpt>
      <trkpt lat="42.16307" lon="2.34525">
        <ele>1381</ele>
        <time>2018-11-26T17:05:31Z</time>
      </trkpt>
      <trkpt lat="42.16307" lon="2.34529">
        <ele>1380.1</ele>
        <time>2018-11-26T17:05:32Z</time>
      </trkpt>
      <trkpt lat="42.16306" lon="2.34531">
        <ele>1379.1</ele>
        <time>2018-11-26T17:05:33Z</time>
      </trkpt>
      <trkpt lat="42.16304" lon="2.34533">
        <ele>1378.8</ele>
        <time>2018-11-26T17:05:34Z</time>
      </trkpt>
      <trkpt lat="42.16303" lon="2.34535">
        <ele>1377.2</ele>
        <time>2018-11-26T17:05:35Z</time>
      </trkpt>
      <trkpt lat="42.163" lon="2.34538">
        <ele>1376.8</ele>
        <time>2018-11-26T17:05:36Z</time>
      </trkpt>
      <trkpt lat="42.16298" lon="2.34539">
        <ele>1375.6</ele>
        <time>2018-11-26T17:05:37Z</time>
      </trkpt>
      <trkpt lat="42.16296" lon="2.34536">
        <ele>1375.5</ele>
        <time>2018-11-26T17:05:38Z</time>
      </trkpt>
      <trkpt lat="42.16295" lon="2.34535">
        <ele>1373.5</ele>
        <time>2018-11-26T17:05:39Z</time>
      </trkpt>
      <trkpt lat="42.16292" lon="2.34535">
        <ele>1373.2</ele>
        <time>2018-11-26T17:05:40Z</time>
      </trkpt>
      <trkpt lat="42.1629" lon="2.34535">
        <ele>1372</ele>
        <time>2018-11-26T17:05:41Z</time>
      </trkpt>
      <trkpt lat="42.16288" lon="2.34536">
        <ele>1370.6</ele>
        <time>2018-11-26T17:05:41Z</time>
      </trkpt>
      <trkpt lat="42.16286" lon="2.34535">
        <ele>1370.4</ele>
        <time>2018-11-26T17:05:42Z</time>
      </trkpt>
      <trkpt lat="42.16283" lon="2.34534">
        <ele>1369</ele>
        <time>2018-11-26T17:05:43Z</time>
      </trkpt>
      <trkpt lat="42.16281" lon="2.34534">
        <ele>1368</ele>
        <time>2018-11-26T17:05:44Z</time>
      </trkpt>
      <trkpt lat="42.16279" lon="2.34536">
        <ele>1365.4</ele>
        <time>2018-11-26T17:05:45Z</time>
      </trkpt>
      <trkpt lat="42.16278" lon="2.34537">
        <ele>1365.4</ele>
        <time>2018-11-26T17:05:46Z</time>
      </trkpt>
      <trkpt lat="42.16278" lon="2.3454">
        <ele>1363.1</ele>
        <time>2018-11-26T17:05:47Z</time>
      </trkpt>
      <trkpt lat="42.16279" lon="2.34544">
        <ele>1362.2</ele>
        <time>2018-11-26T17:05:48Z</time>
      </trkpt>
      <trkpt lat="42.16281" lon="2.34548">
        <ele>1360.9</ele>
        <time>2018-11-26T17:05:49Z</time>
      </trkpt>
      <trkpt lat="42.16281" lon="2.34551">
        <ele>1360.5</ele>
        <time>2018-11-26T17:05:50Z</time>
      </trkpt>
      <trkpt lat="42.16281" lon="2.34554">
        <ele>1359.5</ele>
        <time>2018-11-26T17:05:51Z</time>
      </trkpt>
      <trkpt lat="42.16277" lon="2.3456">
        <ele>1358.9</ele>
        <time>2018-11-26T17:05:54Z</time>
      </trkpt>
      <trkpt lat="42.16275" lon="2.3456">
        <ele>1356.9</ele>
        <time>2018-11-26T17:05:55Z</time>
      </trkpt>
      <trkpt lat="42.16272" lon="2.34559">
        <ele>1355.9</ele>
        <time>2018-11-26T17:05:56Z</time>
      </trkpt>
      <trkpt lat="42.16269" lon="2.34557">
        <ele>1355.1</ele>
        <time>2018-11-26T17:05:57Z</time>
      </trkpt>
      <trkpt lat="42.16267" lon="2.34555">
        <ele>1355</ele>
        <time>2018-11-26T17:05:58Z</time>
      </trkpt>
      <trkpt lat="42.16264" lon="2.34553">
        <ele>1353.8</ele>
        <time>2018-11-26T17:05:59Z</time>
      </trkpt>
      <trkpt lat="42.16262" lon="2.34554">
        <ele>1353.2</ele>
        <time>2018-11-26T17:06:00Z</time>
      </trkpt>
      <trkpt lat="42.16259" lon="2.34553">
        <ele>1353.2</ele>
        <time>2018-11-26T17:06:01Z</time>
      </trkpt>
      <trkpt lat="42.16256" lon="2.3455">
        <ele>1353</ele>
        <time>2018-11-26T17:06:03Z</time>
      </trkpt>
      <trkpt lat="42.16256" lon="2.34544">
        <ele>1351.5</ele>
        <time>2018-11-26T17:06:05Z</time>
      </trkpt>
      <trkpt lat="42.16253" lon="2.34532">
        <ele>1350.6</ele>
        <time>2018-11-26T17:06:08Z</time>
      </trkpt>
      <trkpt lat="42.1625" lon="2.34519">
        <ele>1349.5</ele>
        <time>2018-11-26T17:06:12Z</time>
      </trkpt>
      <trkpt lat="42.16247" lon="2.34507">
        <ele>1348.1</ele>
        <time>2018-11-26T17:06:16Z</time>
      </trkpt>
      <trkpt lat="42.16245" lon="2.34506">
        <ele>1346.8</ele>
        <time>2018-11-26T17:06:17Z</time>
      </trkpt>
      <trkpt lat="42.1624" lon="2.34506">
        <ele>1344</ele>
        <time>2018-11-26T17:06:19Z</time>
      </trkpt>
      <trkpt lat="42.1624" lon="2.34509">
        <ele>1343.1</ele>
        <time>2018-11-26T17:06:20Z</time>
      </trkpt>
      <trkpt lat="42.16238" lon="2.34509">
        <ele>1342.4</ele>
        <time>2018-11-26T17:06:20Z</time>
      </trkpt>
      <trkpt lat="42.16238" lon="2.34505">
        <ele>1342.2</ele>
        <time>2018-11-26T17:06:22Z</time>
      </trkpt>
      <trkpt lat="42.16238" lon="2.34501">
        <ele>1341.6</ele>
        <time>2018-11-26T17:06:23Z</time>
      </trkpt>
      <trkpt lat="42.1624" lon="2.34498">
        <ele>1341</ele>
        <time>2018-11-26T17:06:24Z</time>
      </trkpt>
      <trkpt lat="42.16241" lon="2.34495">
        <ele>1341.1</ele>
        <time>2018-11-26T17:06:25Z</time>
      </trkpt>
      <trkpt lat="42.16241" lon="2.34493">
        <ele>1341.1</ele>
        <time>2018-11-26T17:06:25Z</time>
      </trkpt>
      <trkpt lat="42.16243" lon="2.3449">
        <ele>1340.5</ele>
        <time>2018-11-26T17:06:27Z</time>
      </trkpt>
      <trkpt lat="42.16244" lon="2.34487">
        <ele>1340.6</ele>
        <time>2018-11-26T17:06:27Z</time>
      </trkpt>
      <trkpt lat="42.16245" lon="2.34485">
        <ele>1340.5</ele>
        <time>2018-11-26T17:06:28Z</time>
      </trkpt>
      <trkpt lat="42.16246" lon="2.34483">
        <ele>1340.2</ele>
        <time>2018-11-26T17:06:29Z</time>
      </trkpt>
      <trkpt lat="42.16247" lon="2.3448">
        <ele>1339.5</ele>
        <time>2018-11-26T17:06:30Z</time>
      </trkpt>
      <trkpt lat="42.16248" lon="2.34478">
        <ele>1339.4</ele>
        <time>2018-11-26T17:06:31Z</time>
      </trkpt>
      <trkpt lat="42.16249" lon="2.34473">
        <ele>1339.4</ele>
        <time>2018-11-26T17:06:32Z</time>
      </trkpt>
      <trkpt lat="42.1625" lon="2.34469">
        <ele>1339.2</ele>
        <time>2018-11-26T17:06:33Z</time>
      </trkpt>
      <trkpt lat="42.16251" lon="2.34465">
        <ele>1339.6</ele>
        <time>2018-11-26T17:06:35Z</time>
      </trkpt>
      <trkpt lat="42.16251" lon="2.34462">
        <ele>1339.8</ele>
        <time>2018-11-26T17:06:35Z</time>
      </trkpt>
      <trkpt lat="42.16252" lon="2.34458">
        <ele>1339.6</ele>
        <time>2018-11-26T17:06:37Z</time>
      </trkpt>
      <trkpt lat="42.16252" lon="2.34455">
        <ele>1339.1</ele>
        <time>2018-11-26T17:06:38Z</time>
      </trkpt>
      <trkpt lat="42.16252" lon="2.3445">
        <ele>1338.5</ele>
        <time>2018-11-26T17:06:39Z</time>
      </trkpt>
      <trkpt lat="42.16251" lon="2.34447">
        <ele>1338.1</ele>
        <time>2018-11-26T17:06:40Z</time>
      </trkpt>
      <trkpt lat="42.1625" lon="2.34442">
        <ele>1337.4</ele>
        <time>2018-11-26T17:06:42Z</time>
      </trkpt>
      <trkpt lat="42.1625" lon="2.34439">
        <ele>1337.5</ele>
        <time>2018-11-26T17:06:43Z</time>
      </trkpt>
      <trkpt lat="42.16251" lon="2.34434">
        <ele>1337</ele>
        <time>2018-11-26T17:06:44Z</time>
      </trkpt>
      <trkpt lat="42.16251" lon="2.3443">
        <ele>1336.1</ele>
        <time>2018-11-26T17:06:45Z</time>
      </trkpt>
      <trkpt lat="42.16254" lon="2.34418">
        <ele>1335.4</ele>
        <time>2018-11-26T17:06:49Z</time>
      </trkpt>
      <trkpt lat="42.16256" lon="2.34416">
        <ele>1335.1</ele>
        <time>2018-11-26T17:06:50Z</time>
      </trkpt>
      <trkpt lat="42.16257" lon="2.34413">
        <ele>1335</ele>
        <time>2018-11-26T17:06:51Z</time>
      </trkpt>
      <trkpt lat="42.16259" lon="2.34408">
        <ele>1334.1</ele>
        <time>2018-11-26T17:06:52Z</time>
      </trkpt>
      <trkpt lat="42.16261" lon="2.34404">
        <ele>1334.2</ele>
        <time>2018-11-26T17:06:54Z</time>
      </trkpt>
      <trkpt lat="42.16263" lon="2.34402">
        <ele>1334</ele>
        <time>2018-11-26T17:06:55Z</time>
      </trkpt>
      <trkpt lat="42.16264" lon="2.344">
        <ele>1333.5</ele>
        <time>2018-11-26T17:06:56Z</time>
      </trkpt>
      <trkpt lat="42.16266" lon="2.34398">
        <ele>1333.5</ele>
        <time>2018-11-26T17:06:57Z</time>
      </trkpt>
      <trkpt lat="42.16267" lon="2.34396">
        <ele>1333.4</ele>
        <time>2018-11-26T17:06:57Z</time>
      </trkpt>
      <trkpt lat="42.1627" lon="2.3439">
        <ele>1332.9</ele>
        <time>2018-11-26T17:07:00Z</time>
      </trkpt>
      <trkpt lat="42.16272" lon="2.34386">
        <ele>1331.2</ele>
        <time>2018-11-26T17:07:01Z</time>
      </trkpt>
      <trkpt lat="42.16273" lon="2.34384">
        <ele>1331.1</ele>
        <time>2018-11-26T17:07:02Z</time>
      </trkpt>
      <trkpt lat="42.16275" lon="2.34382">
        <ele>1331.1</ele>
        <time>2018-11-26T17:07:03Z</time>
      </trkpt>
      <trkpt lat="42.16276" lon="2.3438">
        <ele>1331.1</ele>
        <time>2018-11-26T17:07:03Z</time>
      </trkpt>
      <trkpt lat="42.16285" lon="2.34372">
        <ele>1330.1</ele>
        <time>2018-11-26T17:07:08Z</time>
      </trkpt>
      <trkpt lat="42.16293" lon="2.34364">
        <ele>1328</ele>
        <time>2018-11-26T17:07:12Z</time>
      </trkpt>
      <trkpt lat="42.16299" lon="2.34355">
        <ele>1325.5</ele>
        <time>2018-11-26T17:07:15Z</time>
      </trkpt>
      <trkpt lat="42.16306" lon="2.34345">
        <ele>1325.1</ele>
        <time>2018-11-26T17:07:19Z</time>
      </trkpt>
      <trkpt lat="42.16312" lon="2.34331">
        <ele>1324.3</ele>
        <time>2018-11-26T17:07:24Z</time>
      </trkpt>
      <trkpt lat="42.16313" lon="2.3432">
        <ele>1323.6</ele>
        <time>2018-11-26T17:07:27Z</time>
      </trkpt>
      <trkpt lat="42.1631" lon="2.34307">
        <ele>1321.9</ele>
        <time>2018-11-26T17:07:31Z</time>
      </trkpt>
      <trkpt lat="42.16312" lon="2.34295">
        <ele>1320.6</ele>
        <time>2018-11-26T17:07:35Z</time>
      </trkpt>
      <trkpt lat="42.16316" lon="2.34286">
        <ele>1320.1</ele>
        <time>2018-11-26T17:07:38Z</time>
      </trkpt>
      <trkpt lat="42.16319" lon="2.34274">
        <ele>1318.8</ele>
        <time>2018-11-26T17:07:42Z</time>
      </trkpt>
      <trkpt lat="42.16316" lon="2.34266">
        <ele>1317.5</ele>
        <time>2018-11-26T17:07:45Z</time>
      </trkpt>
      <trkpt lat="42.16314" lon="2.34264">
        <ele>1316.4</ele>
        <time>2018-11-26T17:07:46Z</time>
      </trkpt>
      <trkpt lat="42.16312" lon="2.3426">
        <ele>1315.6</ele>
        <time>2018-11-26T17:07:47Z</time>
      </trkpt>
      <trkpt lat="42.16313" lon="2.34256">
        <ele>1315</ele>
        <time>2018-11-26T17:07:48Z</time>
      </trkpt>
      <trkpt lat="42.16315" lon="2.34243">
        <ele>1313.6</ele>
        <time>2018-11-26T17:07:52Z</time>
      </trkpt>
      <trkpt lat="42.16316" lon="2.34239">
        <ele>1313.2</ele>
        <time>2018-11-26T17:07:54Z</time>
      </trkpt>
      <trkpt lat="42.16317" lon="2.34236">
        <ele>1313.2</ele>
        <time>2018-11-26T17:07:54Z</time>
      </trkpt>
      <trkpt lat="42.16319" lon="2.34232">
        <ele>1313.2</ele>
        <time>2018-11-26T17:07:56Z</time>
      </trkpt>
      <trkpt lat="42.16322" lon="2.34229">
        <ele>1312.6</ele>
        <time>2018-11-26T17:07:57Z</time>
      </trkpt>
      <trkpt lat="42.16323" lon="2.34227">
        <ele>1311.6</ele>
        <time>2018-11-26T17:07:58Z</time>
      </trkpt>
      <trkpt lat="42.16315" lon="2.34232">
        <ele>1308.5</ele>
        <time>2018-11-26T17:08:02Z</time>
      </trkpt>
      <trkpt lat="42.16307" lon="2.34241">
        <ele>1307.1</ele>
        <time>2018-11-26T17:08:06Z</time>
      </trkpt>
      <trkpt lat="42.163" lon="2.34251">
        <ele>1306</ele>
        <time>2018-11-26T17:08:10Z</time>
      </trkpt>
      <trkpt lat="42.16294" lon="2.34261">
        <ele>1304.9</ele>
        <time>2018-11-26T17:08:14Z</time>
      </trkpt>
      <trkpt lat="42.16292" lon="2.34264">
        <ele>1304.4</ele>
        <time>2018-11-26T17:08:15Z</time>
      </trkpt>
      <trkpt lat="42.16283" lon="2.34266">
        <ele>1301.4</ele>
        <time>2018-11-26T17:08:19Z</time>
      </trkpt>
      <trkpt lat="42.16281" lon="2.34263">
        <ele>1300.9</ele>
        <time>2018-11-26T17:08:20Z</time>
      </trkpt>
      <trkpt lat="42.16279" lon="2.34258">
        <ele>1299.7</ele>
        <time>2018-11-26T17:08:21Z</time>
      </trkpt>
      <trkpt lat="42.16271" lon="2.34262">
        <ele>1294.5</ele>
        <time>2018-11-26T17:08:25Z</time>
      </trkpt>
      <trkpt lat="42.16265" lon="2.34272">
        <ele>1293.4</ele>
        <time>2018-11-26T17:08:29Z</time>
      </trkpt>
      <trkpt lat="42.16262" lon="2.34275">
        <ele>1293.5</ele>
        <time>2018-11-26T17:08:30Z</time>
      </trkpt>
      <trkpt lat="42.16261" lon="2.34278">
        <ele>1294.4</ele>
        <time>2018-11-26T17:08:31Z</time>
      </trkpt>
      <trkpt lat="42.1626" lon="2.3428">
        <ele>1294.8</ele>
        <time>2018-11-26T17:08:32Z</time>
      </trkpt>
      <trkpt lat="42.16252" lon="2.34288">
        <ele>1291.8</ele>
        <time>2018-11-26T17:08:36Z</time>
      </trkpt>
      <trkpt lat="42.16246" lon="2.34299">
        <ele>1290.8</ele>
        <time>2018-11-26T17:08:40Z</time>
      </trkpt>
      <trkpt lat="42.16239" lon="2.34308">
        <ele>1289.9</ele>
        <time>2018-11-26T17:08:44Z</time>
      </trkpt>
      <trkpt lat="42.1623" lon="2.34313">
        <ele>1287.6</ele>
        <time>2018-11-26T17:08:48Z</time>
      </trkpt>
      <trkpt lat="42.16221" lon="2.34318">
        <ele>1286.2</ele>
        <time>2018-11-26T17:08:51Z</time>
      </trkpt>
      <trkpt lat="42.16218" lon="2.34317">
        <ele>1284.1</ele>
        <time>2018-11-26T17:08:53Z</time>
      </trkpt>
      <trkpt lat="42.16209" lon="2.34315">
        <ele>1281.5</ele>
        <time>2018-11-26T17:08:57Z</time>
      </trkpt>
      <trkpt lat="42.162" lon="2.3432">
        <ele>1280.5</ele>
        <time>2018-11-26T17:09:00Z</time>
      </trkpt>
      <trkpt lat="42.16191" lon="2.34326">
        <ele>1277.1</ele>
        <time>2018-11-26T17:09:04Z</time>
      </trkpt>
      <trkpt lat="42.16186" lon="2.34328">
        <ele>1276.2</ele>
        <time>2018-11-26T17:09:06Z</time>
      </trkpt>
      <trkpt lat="42.16183" lon="2.3433">
        <ele>1276</ele>
        <time>2018-11-26T17:09:08Z</time>
      </trkpt>
      <trkpt lat="42.16182" lon="2.34332">
        <ele>1275.8</ele>
        <time>2018-11-26T17:09:08Z</time>
      </trkpt>
      <trkpt lat="42.1618" lon="2.34329">
        <ele>1275.5</ele>
        <time>2018-11-26T17:09:10Z</time>
      </trkpt>
      <trkpt lat="42.16178" lon="2.34327">
        <ele>1275.8</ele>
        <time>2018-11-26T17:09:11Z</time>
      </trkpt>
      <trkpt lat="42.16176" lon="2.34325">
        <ele>1276.1</ele>
        <time>2018-11-26T17:09:11Z</time>
      </trkpt>
      <trkpt lat="42.16174" lon="2.34323">
        <ele>1276.2</ele>
        <time>2018-11-26T17:09:13Z</time>
      </trkpt>
      <trkpt lat="42.16171" lon="2.34323">
        <ele>1277</ele>
        <time>2018-11-26T17:09:14Z</time>
      </trkpt>
      <trkpt lat="42.16169" lon="2.34321">
        <ele>1277.1</ele>
        <time>2018-11-26T17:09:15Z</time>
      </trkpt>
      <trkpt lat="42.16168" lon="2.34319">
        <ele>1276.9</ele>
        <time>2018-11-26T17:09:15Z</time>
      </trkpt>
      <trkpt lat="42.16167" lon="2.34316">
        <ele>1276.9</ele>
        <time>2018-11-26T17:09:16Z</time>
      </trkpt>
      <trkpt lat="42.16166" lon="2.34312">
        <ele>1277.1</ele>
        <time>2018-11-26T17:09:18Z</time>
      </trkpt>
      <trkpt lat="42.16165" lon="2.34309">
        <ele>1278.1</ele>
        <time>2018-11-26T17:09:19Z</time>
      </trkpt>
      <trkpt lat="42.16163" lon="2.34307">
        <ele>1278.1</ele>
        <time>2018-11-26T17:09:20Z</time>
      </trkpt>
      <trkpt lat="42.16161" lon="2.34304">
        <ele>1278.2</ele>
        <time>2018-11-26T17:09:21Z</time>
      </trkpt>
      <trkpt lat="42.16158" lon="2.34301">
        <ele>1278.1</ele>
        <time>2018-11-26T17:09:22Z</time>
      </trkpt>
      <trkpt lat="42.16157" lon="2.34298">
        <ele>1278.1</ele>
        <time>2018-11-26T17:09:23Z</time>
      </trkpt>
      <trkpt lat="42.16155" lon="2.34295">
        <ele>1278.1</ele>
        <time>2018-11-26T17:09:24Z</time>
      </trkpt>
      <trkpt lat="42.16153" lon="2.34295">
        <ele>1278.6</ele>
        <time>2018-11-26T17:09:25Z</time>
      </trkpt>
      <trkpt lat="42.16151" lon="2.34296">
        <ele>1278.6</ele>
        <time>2018-11-26T17:09:26Z</time>
      </trkpt>
      <trkpt lat="42.16149" lon="2.34297">
        <ele>1278.6</ele>
        <time>2018-11-26T17:09:27Z</time>
      </trkpt>
      <trkpt lat="42.16148" lon="2.343">
        <ele>1278.4</ele>
        <time>2018-11-26T17:09:28Z</time>
      </trkpt>
      <trkpt lat="42.16148" lon="2.34303">
        <ele>1278.9</ele>
        <time>2018-11-26T17:09:29Z</time>
      </trkpt>
      <trkpt lat="42.16149" lon="2.34306">
        <ele>1278.8</ele>
        <time>2018-11-26T17:09:30Z</time>
      </trkpt>
      <trkpt lat="42.1615" lon="2.34309">
        <ele>1279.2</ele>
        <time>2018-11-26T17:09:31Z</time>
      </trkpt>
      <trkpt lat="42.16149" lon="2.34312">
        <ele>1279.4</ele>
        <time>2018-11-26T17:09:32Z</time>
      </trkpt>
      <trkpt lat="42.16148" lon="2.34315">
        <ele>1280.1</ele>
        <time>2018-11-26T17:09:33Z</time>
      </trkpt>
      <trkpt lat="42.16146" lon="2.34318">
        <ele>1280</ele>
        <time>2018-11-26T17:09:34Z</time>
      </trkpt>
      <trkpt lat="42.16144" lon="2.34321">
        <ele>1280</ele>
        <time>2018-11-26T17:09:35Z</time>
      </trkpt>
      <trkpt lat="42.16143" lon="2.34324">
        <ele>1280.4</ele>
        <time>2018-11-26T17:09:36Z</time>
      </trkpt>
      <trkpt lat="42.16141" lon="2.34324">
        <ele>1281.1</ele>
        <time>2018-11-26T17:09:37Z</time>
      </trkpt>
      <trkpt lat="42.16138" lon="2.34326">
        <ele>1281.1</ele>
        <time>2018-11-26T17:09:38Z</time>
      </trkpt>
      <trkpt lat="42.16136" lon="2.34327">
        <ele>1281.5</ele>
        <time>2018-11-26T17:09:39Z</time>
      </trkpt>
      <trkpt lat="42.16134" lon="2.34329">
        <ele>1282.2</ele>
        <time>2018-11-26T17:09:40Z</time>
      </trkpt>
      <trkpt lat="42.16132" lon="2.34331">
        <ele>1282.5</ele>
        <time>2018-11-26T17:09:41Z</time>
      </trkpt>
      <trkpt lat="42.16129" lon="2.34333">
        <ele>1282.2</ele>
        <time>2018-11-26T17:09:42Z</time>
      </trkpt>
      <trkpt lat="42.16127" lon="2.34335">
        <ele>1282.1</ele>
        <time>2018-11-26T17:09:43Z</time>
      </trkpt>
      <trkpt lat="42.16124" lon="2.34338">
        <ele>1281.5</ele>
        <time>2018-11-26T17:09:45Z</time>
      </trkpt>
      <trkpt lat="42.16121" lon="2.34339">
        <ele>1281.2</ele>
        <time>2018-11-26T17:09:46Z</time>
      </trkpt>
      <trkpt lat="42.16119" lon="2.34341">
        <ele>1281.4</ele>
        <time>2018-11-26T17:09:47Z</time>
      </trkpt>
      <trkpt lat="42.16116" lon="2.34343">
        <ele>1281.4</ele>
        <time>2018-11-26T17:09:48Z</time>
      </trkpt>
      <trkpt lat="42.16113" lon="2.34345">
        <ele>1281.4</ele>
        <time>2018-11-26T17:09:49Z</time>
      </trkpt>
      <trkpt lat="42.1611" lon="2.34347">
        <ele>1281.5</ele>
        <time>2018-11-26T17:09:51Z</time>
      </trkpt>
      <trkpt lat="42.16108" lon="2.34348">
        <ele>1281.5</ele>
        <time>2018-11-26T17:09:52Z</time>
      </trkpt>
      <trkpt lat="42.16105" lon="2.34349">
        <ele>1281.5</ele>
        <time>2018-11-26T17:09:53Z</time>
      </trkpt>
      <trkpt lat="42.16103" lon="2.34351">
        <ele>1281</ele>
        <time>2018-11-26T17:09:54Z</time>
      </trkpt>
      <trkpt lat="42.161" lon="2.34352">
        <ele>1281.2</ele>
        <time>2018-11-26T17:09:55Z</time>
      </trkpt>
      <trkpt lat="42.16097" lon="2.34354">
        <ele>1281.2</ele>
        <time>2018-11-26T17:09:56Z</time>
      </trkpt>
      <trkpt lat="42.16094" lon="2.34355">
        <ele>1281.1</ele>
        <time>2018-11-26T17:09:58Z</time>
      </trkpt>
      <trkpt lat="42.16092" lon="2.34357">
        <ele>1280.9</ele>
        <time>2018-11-26T17:09:59Z</time>
      </trkpt>
      <trkpt lat="42.1609" lon="2.3436">
        <ele>1280.5</ele>
        <time>2018-11-26T17:10:00Z</time>
      </trkpt>
      <trkpt lat="42.16088" lon="2.34361">
        <ele>1280.1</ele>
        <time>2018-11-26T17:10:01Z</time>
      </trkpt>
      <trkpt lat="42.16086" lon="2.34364">
        <ele>1279.5</ele>
        <time>2018-11-26T17:10:02Z</time>
      </trkpt>
      <trkpt lat="42.16083" lon="2.34365">
        <ele>1279.6</ele>
        <time>2018-11-26T17:10:03Z</time>
      </trkpt>
      <trkpt lat="42.16081" lon="2.34367">
        <ele>1279.5</ele>
        <time>2018-11-26T17:10:04Z</time>
      </trkpt>
      <trkpt lat="42.16078" lon="2.34368">
        <ele>1279.5</ele>
        <time>2018-11-26T17:10:05Z</time>
      </trkpt>
      <trkpt lat="42.16076" lon="2.34369">
        <ele>1279.2</ele>
        <time>2018-11-26T17:10:06Z</time>
      </trkpt>
      <trkpt lat="42.16073" lon="2.34369">
        <ele>1278.4</ele>
        <time>2018-11-26T17:10:07Z</time>
      </trkpt>
      <trkpt lat="42.1607" lon="2.3437">
        <ele>1278.1</ele>
        <time>2018-11-26T17:10:08Z</time>
      </trkpt>
      <trkpt lat="42.16068" lon="2.34371">
        <ele>1278.1</ele>
        <time>2018-11-26T17:10:09Z</time>
      </trkpt>
      <trkpt lat="42.16066" lon="2.34373">
        <ele>1278.4</ele>
        <time>2018-11-26T17:10:10Z</time>
      </trkpt>
      <trkpt lat="42.16064" lon="2.34375">
        <ele>1278</ele>
        <time>2018-11-26T17:10:11Z</time>
      </trkpt>
      <trkpt lat="42.16061" lon="2.34376">
        <ele>1277.5</ele>
        <time>2018-11-26T17:10:13Z</time>
      </trkpt>
      <trkpt lat="42.16059" lon="2.34378">
        <ele>1277.4</ele>
        <time>2018-11-26T17:10:14Z</time>
      </trkpt>
      <trkpt lat="42.16056" lon="2.34379">
        <ele>1276.8</ele>
        <time>2018-11-26T17:10:15Z</time>
      </trkpt>
      <trkpt lat="42.16054" lon="2.34379">
        <ele>1276.4</ele>
        <time>2018-11-26T17:10:15Z</time>
      </trkpt>
      <trkpt lat="42.16052" lon="2.3438">
        <ele>1276.9</ele>
        <time>2018-11-26T17:10:16Z</time>
      </trkpt>
      <trkpt lat="42.16049" lon="2.34381">
        <ele>1276.5</ele>
        <time>2018-11-26T17:10:17Z</time>
      </trkpt>
      <trkpt lat="42.16048" lon="2.34382">
        <ele>1276.4</ele>
        <time>2018-11-26T17:10:18Z</time>
      </trkpt>
      <trkpt lat="42.16046" lon="2.34384">
        <ele>1276.5</ele>
        <time>2018-11-26T17:10:19Z</time>
      </trkpt>
      <trkpt lat="42.16044" lon="2.34386">
        <ele>1277.1</ele>
        <time>2018-11-26T17:10:20Z</time>
      </trkpt>
      <trkpt lat="42.16043" lon="2.34388">
        <ele>1277.1</ele>
        <time>2018-11-26T17:10:21Z</time>
      </trkpt>
      <trkpt lat="42.1604" lon="2.34389">
        <ele>1277.5</ele>
        <time>2018-11-26T17:10:22Z</time>
      </trkpt>
      <trkpt lat="42.16038" lon="2.34389">
        <ele>1277.6</ele>
        <time>2018-11-26T17:10:23Z</time>
      </trkpt>
      <trkpt lat="42.16036" lon="2.3439">
        <ele>1277.5</ele>
        <time>2018-11-26T17:10:24Z</time>
      </trkpt>
      <trkpt lat="42.16034" lon="2.34391">
        <ele>1277.4</ele>
        <time>2018-11-26T17:10:25Z</time>
      </trkpt>
      <trkpt lat="42.16032" lon="2.34392">
        <ele>1277.1</ele>
        <time>2018-11-26T17:10:26Z</time>
      </trkpt>
      <trkpt lat="42.1603" lon="2.34392">
        <ele>1277.2</ele>
        <time>2018-11-26T17:10:26Z</time>
      </trkpt>
      <trkpt lat="42.16027" lon="2.34393">
        <ele>1277.2</ele>
        <time>2018-11-26T17:10:27Z</time>
      </trkpt>
      <trkpt lat="42.16025" lon="2.34393">
        <ele>1277.1</ele>
        <time>2018-11-26T17:10:28Z</time>
      </trkpt>
      <trkpt lat="42.16023" lon="2.34395">
        <ele>1277.6</ele>
        <time>2018-11-26T17:10:29Z</time>
      </trkpt>
      <trkpt lat="42.1602" lon="2.34396">
        <ele>1278.1</ele>
        <time>2018-11-26T17:10:30Z</time>
      </trkpt>
      <trkpt lat="42.16019" lon="2.34398">
        <ele>1278.5</ele>
        <time>2018-11-26T17:10:31Z</time>
      </trkpt>
      <trkpt lat="42.16017" lon="2.344">
        <ele>1278.4</ele>
        <time>2018-11-26T17:10:32Z</time>
      </trkpt>
      <trkpt lat="42.16015" lon="2.34402">
        <ele>1278.5</ele>
        <time>2018-11-26T17:10:33Z</time>
      </trkpt>
      <trkpt lat="42.16012" lon="2.34404">
        <ele>1279.1</ele>
        <time>2018-11-26T17:10:34Z</time>
      </trkpt>
      <trkpt lat="42.1601" lon="2.34405">
        <ele>1279</ele>
        <time>2018-11-26T17:10:35Z</time>
      </trkpt>
      <trkpt lat="42.16008" lon="2.34405">
        <ele>1278.8</ele>
        <time>2018-11-26T17:10:36Z</time>
      </trkpt>
      <trkpt lat="42.16006" lon="2.34406">
        <ele>1278.1</ele>
        <time>2018-11-26T17:10:37Z</time>
      </trkpt>
      <trkpt lat="42.16004" lon="2.34408">
        <ele>1278.2</ele>
        <time>2018-11-26T17:10:38Z</time>
      </trkpt>
      <trkpt lat="42.16002" lon="2.3441">
        <ele>1278.2</ele>
        <time>2018-11-26T17:10:39Z</time>
      </trkpt>
      <trkpt lat="42.16" lon="2.34411">
        <ele>1278.2</ele>
        <time>2018-11-26T17:10:40Z</time>
      </trkpt>
      <trkpt lat="42.15998" lon="2.34411">
        <ele>1278.4</ele>
        <time>2018-11-26T17:10:40Z</time>
      </trkpt>
      <trkpt lat="42.15996" lon="2.34412">
        <ele>1278.4</ele>
        <time>2018-11-26T17:10:41Z</time>
      </trkpt>
      <trkpt lat="42.15994" lon="2.34414">
        <ele>1278.4</ele>
        <time>2018-11-26T17:10:42Z</time>
      </trkpt>
      <trkpt lat="42.15992" lon="2.34415">
        <ele>1278.5</ele>
        <time>2018-11-26T17:10:43Z</time>
      </trkpt>
      <trkpt lat="42.1599" lon="2.34417">
        <ele>1278.2</ele>
        <time>2018-11-26T17:10:44Z</time>
      </trkpt>
      <trkpt lat="42.15988" lon="2.34418">
        <ele>1279.1</ele>
        <time>2018-11-26T17:10:45Z</time>
      </trkpt>
      <trkpt lat="42.15985" lon="2.34421">
        <ele>1279.1</ele>
        <time>2018-11-26T17:10:47Z</time>
      </trkpt>
      <trkpt lat="42.15984" lon="2.34422">
        <ele>1278.8</ele>
        <time>2018-11-26T17:10:47Z</time>
      </trkpt>
      <trkpt lat="42.15982" lon="2.34424">
        <ele>1278.5</ele>
        <time>2018-11-26T17:10:48Z</time>
      </trkpt>
      <trkpt lat="42.15981" lon="2.34427">
        <ele>1278.5</ele>
        <time>2018-11-26T17:10:49Z</time>
      </trkpt>
      <trkpt lat="42.15978" lon="2.34429">
        <ele>1279.1</ele>
        <time>2018-11-26T17:10:50Z</time>
      </trkpt>
      <trkpt lat="42.15976" lon="2.34429">
        <ele>1279.2</ele>
        <time>2018-11-26T17:10:51Z</time>
      </trkpt>
      <trkpt lat="42.15973" lon="2.34429">
        <ele>1279.8</ele>
        <time>2018-11-26T17:10:52Z</time>
      </trkpt>
      <trkpt lat="42.15971" lon="2.3443">
        <ele>1279.1</ele>
        <time>2018-11-26T17:10:53Z</time>
      </trkpt>
      <trkpt lat="42.15968" lon="2.34429">
        <ele>1279.8</ele>
        <time>2018-11-26T17:10:54Z</time>
      </trkpt>
      <trkpt lat="42.15966" lon="2.34429">
        <ele>1279.8</ele>
        <time>2018-11-26T17:10:55Z</time>
      </trkpt>
      <trkpt lat="42.15964" lon="2.34428">
        <ele>1280</ele>
        <time>2018-11-26T17:10:56Z</time>
      </trkpt>
      <trkpt lat="42.15961" lon="2.34427">
        <ele>1280.1</ele>
        <time>2018-11-26T17:10:57Z</time>
      </trkpt>
      <trkpt lat="42.15959" lon="2.34427">
        <ele>1279.5</ele>
        <time>2018-11-26T17:10:58Z</time>
      </trkpt>
      <trkpt lat="42.15956" lon="2.34426">
        <ele>1278.5</ele>
        <time>2018-11-26T17:10:59Z</time>
      </trkpt>
      <trkpt lat="42.15953" lon="2.34426">
        <ele>1277.5</ele>
        <time>2018-11-26T17:11:00Z</time>
      </trkpt>
      <trkpt lat="42.15951" lon="2.34427">
        <ele>1277.5</ele>
        <time>2018-11-26T17:11:01Z</time>
      </trkpt>
      <trkpt lat="42.15948" lon="2.34427">
        <ele>1277.1</ele>
        <time>2018-11-26T17:11:02Z</time>
      </trkpt>
      <trkpt lat="42.15945" lon="2.34428">
        <ele>1277.1</ele>
        <time>2018-11-26T17:11:04Z</time>
      </trkpt>
      <trkpt lat="42.15942" lon="2.34429">
        <ele>1276.4</ele>
        <time>2018-11-26T17:11:05Z</time>
      </trkpt>
      <trkpt lat="42.15939" lon="2.34431">
        <ele>1276.1</ele>
        <time>2018-11-26T17:11:06Z</time>
      </trkpt>
      <trkpt lat="42.15936" lon="2.34433">
        <ele>1275.4</ele>
        <time>2018-11-26T17:11:08Z</time>
      </trkpt>
      <trkpt lat="42.15933" lon="2.34434">
        <ele>1275.5</ele>
        <time>2018-11-26T17:11:09Z</time>
      </trkpt>
      <trkpt lat="42.1593" lon="2.34436">
        <ele>1275</ele>
        <time>2018-11-26T17:11:10Z</time>
      </trkpt>
      <trkpt lat="42.15927" lon="2.34438">
        <ele>1275</ele>
        <time>2018-11-26T17:11:11Z</time>
      </trkpt>
      <trkpt lat="42.15924" lon="2.34439">
        <ele>1275.1</ele>
        <time>2018-11-26T17:11:13Z</time>
      </trkpt>
      <trkpt lat="42.15921" lon="2.34439">
        <ele>1275.1</ele>
        <time>2018-11-26T17:11:14Z</time>
      </trkpt>
      <trkpt lat="42.15919" lon="2.3444">
        <ele>1274.9</ele>
        <time>2018-11-26T17:11:15Z</time>
      </trkpt>
      <trkpt lat="42.15917" lon="2.34441">
        <ele>1275.1</ele>
        <time>2018-11-26T17:11:16Z</time>
      </trkpt>
      <trkpt lat="42.15914" lon="2.34441">
        <ele>1274.6</ele>
        <time>2018-11-26T17:11:17Z</time>
      </trkpt>
      <trkpt lat="42.15911" lon="2.34441">
        <ele>1274.6</ele>
        <time>2018-11-26T17:11:18Z</time>
      </trkpt>
      <trkpt lat="42.15909" lon="2.34442">
        <ele>1274.5</ele>
        <time>2018-11-26T17:11:19Z</time>
      </trkpt>
      <trkpt lat="42.15906" lon="2.34442">
        <ele>1274.9</ele>
        <time>2018-11-26T17:11:20Z</time>
      </trkpt>
      <trkpt lat="42.15904" lon="2.34441">
        <ele>1275</ele>
        <time>2018-11-26T17:11:21Z</time>
      </trkpt>
      <trkpt lat="42.15901" lon="2.34439">
        <ele>1275.5</ele>
        <time>2018-11-26T17:11:22Z</time>
      </trkpt>
      <trkpt lat="42.15899" lon="2.34437">
        <ele>1275.4</ele>
        <time>2018-11-26T17:11:23Z</time>
      </trkpt>
      <trkpt lat="42.15897" lon="2.34436">
        <ele>1275.9</ele>
        <time>2018-11-26T17:11:24Z</time>
      </trkpt>
      <trkpt lat="42.15895" lon="2.34435">
        <ele>1275.8</ele>
        <time>2018-11-26T17:11:25Z</time>
      </trkpt>
      <trkpt lat="42.15893" lon="2.34433">
        <ele>1276</ele>
        <time>2018-11-26T17:11:26Z</time>
      </trkpt>
      <trkpt lat="42.15891" lon="2.34432">
        <ele>1275.5</ele>
        <time>2018-11-26T17:11:26Z</time>
      </trkpt>
      <trkpt lat="42.15889" lon="2.34431">
        <ele>1276</ele>
        <time>2018-11-26T17:11:27Z</time>
      </trkpt>
      <trkpt lat="42.15887" lon="2.34429">
        <ele>1276.1</ele>
        <time>2018-11-26T17:11:28Z</time>
      </trkpt>
      <trkpt lat="42.15885" lon="2.34427">
        <ele>1276.2</ele>
        <time>2018-11-26T17:11:29Z</time>
      </trkpt>
      <trkpt lat="42.15883" lon="2.34425">
        <ele>1276.2</ele>
        <time>2018-11-26T17:11:30Z</time>
      </trkpt>
      <trkpt lat="42.15882" lon="2.34424">
        <ele>1276.9</ele>
        <time>2018-11-26T17:11:31Z</time>
      </trkpt>
      <trkpt lat="42.1588" lon="2.34422">
        <ele>1277.1</ele>
        <time>2018-11-26T17:11:32Z</time>
      </trkpt>
      <trkpt lat="42.15878" lon="2.3442">
        <ele>1277.8</ele>
        <time>2018-11-26T17:11:33Z</time>
      </trkpt>
      <trkpt lat="42.15877" lon="2.34417">
        <ele>1277.9</ele>
        <time>2018-11-26T17:11:34Z</time>
      </trkpt>
      <trkpt lat="42.15875" lon="2.34414">
        <ele>1277.6</ele>
        <time>2018-11-26T17:11:35Z</time>
      </trkpt>
      <trkpt lat="42.15873" lon="2.34414">
        <ele>1277</ele>
        <time>2018-11-26T17:11:36Z</time>
      </trkpt>
      <trkpt lat="42.1587" lon="2.34415">
        <ele>1276.8</ele>
        <time>2018-11-26T17:11:37Z</time>
      </trkpt>
      <trkpt lat="42.15868" lon="2.34416">
        <ele>1276.8</ele>
        <time>2018-11-26T17:11:38Z</time>
      </trkpt>
      <trkpt lat="42.15864" lon="2.34417">
        <ele>1276.5</ele>
        <time>2018-11-26T17:11:40Z</time>
      </trkpt>
      <trkpt lat="42.15862" lon="2.34418">
        <ele>1276.5</ele>
        <time>2018-11-26T17:11:40Z</time>
      </trkpt>
      <trkpt lat="42.1586" lon="2.3442">
        <ele>1276</ele>
        <time>2018-11-26T17:11:41Z</time>
      </trkpt>
      <trkpt lat="42.15858" lon="2.34421">
        <ele>1275.1</ele>
        <time>2018-11-26T17:11:42Z</time>
      </trkpt>
      <trkpt lat="42.15856" lon="2.34423">
        <ele>1275.2</ele>
        <time>2018-11-26T17:11:43Z</time>
      </trkpt>
      <trkpt lat="42.15855" lon="2.34424">
        <ele>1274.9</ele>
        <time>2018-11-26T17:11:44Z</time>
      </trkpt>
      <trkpt lat="42.15853" lon="2.34426">
        <ele>1274.9</ele>
        <time>2018-11-26T17:11:45Z</time>
      </trkpt>
      <trkpt lat="42.15852" lon="2.34428">
        <ele>1274.8</ele>
        <time>2018-11-26T17:11:45Z</time>
      </trkpt>
      <trkpt lat="42.1585" lon="2.3443">
        <ele>1274.6</ele>
        <time>2018-11-26T17:11:46Z</time>
      </trkpt>
      <trkpt lat="42.15849" lon="2.34432">
        <ele>1274.4</ele>
        <time>2018-11-26T17:11:47Z</time>
      </trkpt>
      <trkpt lat="42.15849" lon="2.34435">
        <ele>1274.4</ele>
        <time>2018-11-26T17:11:48Z</time>
      </trkpt>
      <trkpt lat="42.15848" lon="2.34437">
        <ele>1274.4</ele>
        <time>2018-11-26T17:11:49Z</time>
      </trkpt>
      <trkpt lat="42.15847" lon="2.34441">
        <ele>1273.8</ele>
        <time>2018-11-26T17:11:50Z</time>
      </trkpt>
      <trkpt lat="42.15848" lon="2.34445">
        <ele>1272.9</ele>
        <time>2018-11-26T17:11:51Z</time>
      </trkpt>
      <trkpt lat="42.15849" lon="2.3445">
        <ele>1272.5</ele>
        <time>2018-11-26T17:11:53Z</time>
      </trkpt>
      <trkpt lat="42.1585" lon="2.34452">
        <ele>1272.2</ele>
        <time>2018-11-26T17:11:54Z</time>
      </trkpt>
      <trkpt lat="42.15852" lon="2.34455">
        <ele>1272.5</ele>
        <time>2018-11-26T17:11:55Z</time>
      </trkpt>
      <trkpt lat="42.15854" lon="2.34457">
        <ele>1272.5</ele>
        <time>2018-11-26T17:11:56Z</time>
      </trkpt>
      <trkpt lat="42.15856" lon="2.34459">
        <ele>1272.2</ele>
        <time>2018-11-26T17:11:57Z</time>
      </trkpt>
      <trkpt lat="42.15857" lon="2.34462">
        <ele>1272.2</ele>
        <time>2018-11-26T17:11:57Z</time>
      </trkpt>
      <trkpt lat="42.15859" lon="2.34464">
        <ele>1272.1</ele>
        <time>2018-11-26T17:11:59Z</time>
      </trkpt>
      <trkpt lat="42.15861" lon="2.34467">
        <ele>1272</ele>
        <time>2018-11-26T17:12:00Z</time>
      </trkpt>
      <trkpt lat="42.15863" lon="2.34469">
        <ele>1272</ele>
        <time>2018-11-26T17:12:01Z</time>
      </trkpt>
      <trkpt lat="42.15865" lon="2.34472">
        <ele>1269.1</ele>
        <time>2018-11-26T17:12:02Z</time>
      </trkpt>
      <trkpt lat="42.15867" lon="2.34475">
        <ele>1269.1</ele>
        <time>2018-11-26T17:12:03Z</time>
      </trkpt>
      <trkpt lat="42.15869" lon="2.34478">
        <ele>1269.1</ele>
        <time>2018-11-26T17:12:04Z</time>
      </trkpt>
      <trkpt lat="42.1587" lon="2.34481">
        <ele>1268.9</ele>
        <time>2018-11-26T17:12:05Z</time>
      </trkpt>
      <trkpt lat="42.15872" lon="2.34484">
        <ele>1268.1</ele>
        <time>2018-11-26T17:12:06Z</time>
      </trkpt>
      <trkpt lat="42.15872" lon="2.34487">
        <ele>1268</ele>
        <time>2018-11-26T17:12:07Z</time>
      </trkpt>
      <trkpt lat="42.15873" lon="2.3449">
        <ele>1267.8</ele>
        <time>2018-11-26T17:12:08Z</time>
      </trkpt>
      <trkpt lat="42.15873" lon="2.34493">
        <ele>1267.5</ele>
        <time>2018-11-26T17:12:09Z</time>
      </trkpt>
      <trkpt lat="42.15874" lon="2.34495">
        <ele>1267.6</ele>
        <time>2018-11-26T17:12:10Z</time>
      </trkpt>
      <trkpt lat="42.15875" lon="2.34499">
        <ele>1267.5</ele>
        <time>2018-11-26T17:12:11Z</time>
      </trkpt>
      <trkpt lat="42.15876" lon="2.34503">
        <ele>1268.4</ele>
        <time>2018-11-26T17:12:12Z</time>
      </trkpt>
      <trkpt lat="42.15876" lon="2.34507">
        <ele>1268.5</ele>
        <time>2018-11-26T17:12:13Z</time>
      </trkpt>
      <trkpt lat="42.15876" lon="2.34511">
        <ele>1268.1</ele>
        <time>2018-11-26T17:12:14Z</time>
      </trkpt>
      <trkpt lat="42.15874" lon="2.34514">
        <ele>1267.6</ele>
        <time>2018-11-26T17:12:16Z</time>
      </trkpt>
      <trkpt lat="42.15872" lon="2.34517">
        <ele>1267.5</ele>
        <time>2018-11-26T17:12:17Z</time>
      </trkpt>
      <trkpt lat="42.1587" lon="2.34518">
        <ele>1267.5</ele>
        <time>2018-11-26T17:12:18Z</time>
      </trkpt>
      <trkpt lat="42.15868" lon="2.34519">
        <ele>1267.8</ele>
        <time>2018-11-26T17:12:19Z</time>
      </trkpt>
      <trkpt lat="42.15866" lon="2.34519">
        <ele>1267.9</ele>
        <time>2018-11-26T17:12:19Z</time>
      </trkpt>
      <trkpt lat="42.15864" lon="2.34521">
        <ele>1267.6</ele>
        <time>2018-11-26T17:12:20Z</time>
      </trkpt>
      <trkpt lat="42.15862" lon="2.34522">
        <ele>1267.9</ele>
        <time>2018-11-26T17:12:21Z</time>
      </trkpt>
      <trkpt lat="42.1586" lon="2.34525">
        <ele>1267.5</ele>
        <time>2018-11-26T17:12:22Z</time>
      </trkpt>
      <trkpt lat="42.15865" lon="2.34525">
        <ele>1267</ele>
        <time>2018-11-26T17:12:24Z</time>
      </trkpt>
      <trkpt lat="42.15863" lon="2.34525">
        <ele>1266.1</ele>
        <time>2018-11-26T17:12:25Z</time>
      </trkpt>
      <trkpt lat="42.15863" lon="2.34528">
        <ele>1266.1</ele>
        <time>2018-11-26T17:12:26Z</time>
      </trkpt>
      <trkpt lat="42.15862" lon="2.34525">
        <ele>1266</ele>
        <time>2018-11-26T17:12:27Z</time>
      </trkpt>
      <trkpt lat="42.1586" lon="2.34523">
        <ele>1266</ele>
        <time>2018-11-26T17:12:28Z</time>
      </trkpt>
      <trkpt lat="42.15864" lon="2.34524">
        <ele>1265.1</ele>
        <time>2018-11-26T17:12:29Z</time>
      </trkpt>
      <trkpt lat="42.15862" lon="2.34525">
        <ele>1265.1</ele>
        <time>2018-11-26T17:12:30Z</time>
      </trkpt>
      <trkpt lat="42.15863" lon="2.34528">
        <ele>1265.1</ele>
        <time>2018-11-26T17:12:31Z</time>
      </trkpt>
      <trkpt lat="42.15872" lon="2.34525">
        <ele>1265</ele>
        <time>2018-11-26T17:12:35Z</time>
      </trkpt>
      <trkpt lat="42.15872" lon="2.34522">
        <ele>1265.1</ele>
        <time>2018-11-26T17:12:36Z</time>
      </trkpt>
      <trkpt lat="42.15872" lon="2.34524">
        <ele>1265</ele>
        <time>2018-11-26T17:12:37Z</time>
      </trkpt>
      <trkpt lat="42.15863" lon="2.34523">
        <ele>1265</ele>
        <time>2018-11-26T17:12:40Z</time>
      </trkpt>
      <trkpt lat="42.15858" lon="2.34532">
        <ele>1265.1</ele>
        <time>2018-11-26T17:12:44Z</time>
      </trkpt>
      <trkpt lat="42.15863" lon="2.34522">
        <ele>1265</ele>
        <time>2018-11-26T17:12:48Z</time>
      </trkpt>
      <trkpt lat="42.15863" lon="2.34507">
        <ele>1265</ele>
        <time>2018-11-26T17:12:52Z</time>
      </trkpt>
      <trkpt lat="42.15871" lon="2.34515">
        <ele>1264.8</ele>
        <time>2018-11-26T17:12:56Z</time>
      </trkpt>
      <trkpt lat="42.15864" lon="2.34522">
        <ele>1264.6</ele>
        <time>2018-11-26T17:13:00Z</time>
      </trkpt>
      <trkpt lat="42.15853" lon="2.34523">
        <ele>1264.9</ele>
        <time>2018-11-26T17:13:04Z</time>
      </trkpt>
      <trkpt lat="42.15864" lon="2.34517">
        <ele>1264.8</ele>
        <time>2018-11-26T17:13:08Z</time>
      </trkpt>
      <trkpt lat="42.15858" lon="2.34527">
        <ele>1264.9</ele>
        <time>2018-11-26T17:13:12Z</time>
      </trkpt>
      <trkpt lat="42.15855" lon="2.34534">
        <ele>1265</ele>
        <time>2018-11-26T17:13:14Z</time>
      </trkpt>
      <trkpt lat="42.15857" lon="2.34537">
        <ele>1265.1</ele>
        <time>2018-11-26T17:13:16Z</time>
      </trkpt>
      <trkpt lat="42.15866" lon="2.34542">
        <ele>1265</ele>
        <time>2018-11-26T17:13:19Z</time>
      </trkpt>
      <trkpt lat="42.15867" lon="2.34545">
        <ele>1265.1</ele>
        <time>2018-11-26T17:13:20Z</time>
      </trkpt>
      <trkpt lat="42.15866" lon="2.34549">
        <ele>1265.1</ele>
        <time>2018-11-26T17:13:22Z</time>
      </trkpt>
      <trkpt lat="42.15864" lon="2.34553">
        <ele>1261</ele>
        <time>2018-11-26T17:13:23Z</time>
      </trkpt>
      <trkpt lat="42.15862" lon="2.34554">
        <ele>1260.5</ele>
        <time>2018-11-26T17:13:24Z</time>
      </trkpt>
      <trkpt lat="42.15859" lon="2.34557">
        <ele>1260.4</ele>
        <time>2018-11-26T17:13:25Z</time>
      </trkpt>
      <trkpt lat="42.15857" lon="2.34559">
        <ele>1260.2</ele>
        <time>2018-11-26T17:13:26Z</time>
      </trkpt>
      <trkpt lat="42.15854" lon="2.3456">
        <ele>1259.6</ele>
        <time>2018-11-26T17:13:27Z</time>
      </trkpt>
      <trkpt lat="42.15852" lon="2.34562">
        <ele>1258.8</ele>
        <time>2018-11-26T17:13:28Z</time>
      </trkpt>
      <trkpt lat="42.1585" lon="2.34564">
        <ele>1258.6</ele>
        <time>2018-11-26T17:13:29Z</time>
      </trkpt>
      <trkpt lat="42.15849" lon="2.34567">
        <ele>1258.6</ele>
        <time>2018-11-26T17:13:30Z</time>
      </trkpt>
      <trkpt lat="42.15847" lon="2.34571">
        <ele>1258.4</ele>
        <time>2018-11-26T17:13:32Z</time>
      </trkpt>
      <trkpt lat="42.15846" lon="2.34574">
        <ele>1258.1</ele>
        <time>2018-11-26T17:13:33Z</time>
      </trkpt>
      <trkpt lat="42.15846" lon="2.34578">
        <ele>1257.4</ele>
        <time>2018-11-26T17:13:34Z</time>
      </trkpt>
      <trkpt lat="42.15845" lon="2.34582">
        <ele>1257.1</ele>
        <time>2018-11-26T17:13:35Z</time>
      </trkpt>
      <trkpt lat="42.15844" lon="2.34586">
        <ele>1256.5</ele>
        <time>2018-11-26T17:13:36Z</time>
      </trkpt>
      <trkpt lat="42.15842" lon="2.34587">
        <ele>1256.4</ele>
        <time>2018-11-26T17:13:37Z</time>
      </trkpt>
      <trkpt lat="42.1584" lon="2.34591">
        <ele>1256.4</ele>
        <time>2018-11-26T17:13:39Z</time>
      </trkpt>
      <trkpt lat="42.15838" lon="2.34595">
        <ele>1256.5</ele>
        <time>2018-11-26T17:13:40Z</time>
      </trkpt>
      <trkpt lat="42.15837" lon="2.34598">
        <ele>1257</ele>
        <time>2018-11-26T17:13:41Z</time>
      </trkpt>
      <trkpt lat="42.15836" lon="2.34602">
        <ele>1257.4</ele>
        <time>2018-11-26T17:13:42Z</time>
      </trkpt>
      <trkpt lat="42.15836" lon="2.34606">
        <ele>1257.4</ele>
        <time>2018-11-26T17:13:43Z</time>
      </trkpt>
      <trkpt lat="42.15836" lon="2.3461">
        <ele>1257.1</ele>
        <time>2018-11-26T17:13:45Z</time>
      </trkpt>
      <trkpt lat="42.15836" lon="2.34614">
        <ele>1257.1</ele>
        <time>2018-11-26T17:13:46Z</time>
      </trkpt>
      <trkpt lat="42.15837" lon="2.34617">
        <ele>1257.1</ele>
        <time>2018-11-26T17:13:47Z</time>
      </trkpt>
      <trkpt lat="42.15837" lon="2.3462">
        <ele>1256.9</ele>
        <time>2018-11-26T17:13:48Z</time>
      </trkpt>
      <trkpt lat="42.15837" lon="2.34624">
        <ele>1256.5</ele>
        <time>2018-11-26T17:13:49Z</time>
      </trkpt>
      <trkpt lat="42.15837" lon="2.34626">
        <ele>1256.5</ele>
        <time>2018-11-26T17:13:50Z</time>
      </trkpt>
      <trkpt lat="42.15838" lon="2.34629">
        <ele>1256.1</ele>
        <time>2018-11-26T17:13:50Z</time>
      </trkpt>
      <trkpt lat="42.15839" lon="2.34632">
        <ele>1256.5</ele>
        <time>2018-11-26T17:13:51Z</time>
      </trkpt>
      <trkpt lat="42.15841" lon="2.34635">
        <ele>1256.5</ele>
        <time>2018-11-26T17:13:53Z</time>
      </trkpt>
      <trkpt lat="42.15842" lon="2.34638">
        <ele>1256.5</ele>
        <time>2018-11-26T17:13:54Z</time>
      </trkpt>
      <trkpt lat="42.15844" lon="2.34641">
        <ele>1256.6</ele>
        <time>2018-11-26T17:13:55Z</time>
      </trkpt>
      <trkpt lat="42.15846" lon="2.34644">
        <ele>1256.6</ele>
        <time>2018-11-26T17:13:56Z</time>
      </trkpt>
      <trkpt lat="42.15847" lon="2.34646">
        <ele>1257</ele>
        <time>2018-11-26T17:13:57Z</time>
      </trkpt>
      <trkpt lat="42.15849" lon="2.34649">
        <ele>1257.4</ele>
        <time>2018-11-26T17:13:58Z</time>
      </trkpt>
      <trkpt lat="42.15851" lon="2.34652">
        <ele>1257.5</ele>
        <time>2018-11-26T17:13:59Z</time>
      </trkpt>
      <trkpt lat="42.15852" lon="2.34654">
        <ele>1257.2</ele>
        <time>2018-11-26T17:14:00Z</time>
      </trkpt>
      <trkpt lat="42.15854" lon="2.34657">
        <ele>1256.9</ele>
        <time>2018-11-26T17:14:01Z</time>
      </trkpt>
      <trkpt lat="42.15854" lon="2.3466">
        <ele>1257.1</ele>
        <time>2018-11-26T17:14:02Z</time>
      </trkpt>
      <trkpt lat="42.15855" lon="2.34663">
        <ele>1256.8</ele>
        <time>2018-11-26T17:14:03Z</time>
      </trkpt>
      <trkpt lat="42.15857" lon="2.34667">
        <ele>1257.1</ele>
        <time>2018-11-26T17:14:04Z</time>
      </trkpt>
      <trkpt lat="42.15859" lon="2.3467">
        <ele>1257.1</ele>
        <time>2018-11-26T17:14:05Z</time>
      </trkpt>
      <trkpt lat="42.1586" lon="2.34672">
        <ele>1257.5</ele>
        <time>2018-11-26T17:14:06Z</time>
      </trkpt>
      <trkpt lat="42.15862" lon="2.34675">
        <ele>1257.4</ele>
        <time>2018-11-26T17:14:07Z</time>
      </trkpt>
      <trkpt lat="42.15864" lon="2.34677">
        <ele>1257.8</ele>
        <time>2018-11-26T17:14:08Z</time>
      </trkpt>
      <trkpt lat="42.15866" lon="2.3468">
        <ele>1257.8</ele>
        <time>2018-11-26T17:14:10Z</time>
      </trkpt>
      <trkpt lat="42.15866" lon="2.34684">
        <ele>1258.5</ele>
        <time>2018-11-26T17:14:11Z</time>
      </trkpt>
      <trkpt lat="42.15867" lon="2.34688">
        <ele>1258.4</ele>
        <time>2018-11-26T17:14:12Z</time>
      </trkpt>
      <trkpt lat="42.15868" lon="2.34691">
        <ele>1258.5</ele>
        <time>2018-11-26T17:14:13Z</time>
      </trkpt>
      <trkpt lat="42.15868" lon="2.34695">
        <ele>1257.8</ele>
        <time>2018-11-26T17:14:14Z</time>
      </trkpt>
      <trkpt lat="42.15869" lon="2.34698">
        <ele>1257.6</ele>
        <time>2018-11-26T17:14:15Z</time>
      </trkpt>
      <trkpt lat="42.1587" lon="2.34701">
        <ele>1257.1</ele>
        <time>2018-11-26T17:14:16Z</time>
      </trkpt>
      <trkpt lat="42.1587" lon="2.34705">
        <ele>1257.1</ele>
        <time>2018-11-26T17:14:17Z</time>
      </trkpt>
      <trkpt lat="42.1587" lon="2.34708">
        <ele>1257.5</ele>
        <time>2018-11-26T17:14:18Z</time>
      </trkpt>
      <trkpt lat="42.1587" lon="2.34711">
        <ele>1257.5</ele>
        <time>2018-11-26T17:14:19Z</time>
      </trkpt>
      <trkpt lat="42.15871" lon="2.34714">
        <ele>1258.2</ele>
        <time>2018-11-26T17:14:20Z</time>
      </trkpt>
      <trkpt lat="42.15871" lon="2.34718">
        <ele>1258.2</ele>
        <time>2018-11-26T17:14:21Z</time>
      </trkpt>
      <trkpt lat="42.15871" lon="2.34721">
        <ele>1258.1</ele>
        <time>2018-11-26T17:14:22Z</time>
      </trkpt>
      <trkpt lat="42.15872" lon="2.34724">
        <ele>1258.4</ele>
        <time>2018-11-26T17:14:23Z</time>
      </trkpt>
      <trkpt lat="42.15872" lon="2.34727">
        <ele>1258.5</ele>
        <time>2018-11-26T17:14:24Z</time>
      </trkpt>
      <trkpt lat="42.15872" lon="2.3473">
        <ele>1258.5</ele>
        <time>2018-11-26T17:14:24Z</time>
      </trkpt>
      <trkpt lat="42.15873" lon="2.34732">
        <ele>1259</ele>
        <time>2018-11-26T17:14:25Z</time>
      </trkpt>
      <trkpt lat="42.15873" lon="2.34736">
        <ele>1259.2</ele>
        <time>2018-11-26T17:14:26Z</time>
      </trkpt>
      <trkpt lat="42.15872" lon="2.34739">
        <ele>1259.1</ele>
        <time>2018-11-26T17:14:27Z</time>
      </trkpt>
      <trkpt lat="42.15872" lon="2.34744">
        <ele>1259.1</ele>
        <time>2018-11-26T17:14:29Z</time>
      </trkpt>
      <trkpt lat="42.15871" lon="2.34748">
        <ele>1258.5</ele>
        <time>2018-11-26T17:14:30Z</time>
      </trkpt>
      <trkpt lat="42.15871" lon="2.34751">
        <ele>1259</ele>
        <time>2018-11-26T17:14:31Z</time>
      </trkpt>
      <trkpt lat="42.15869" lon="2.34754">
        <ele>1258.9</ele>
        <time>2018-11-26T17:14:32Z</time>
      </trkpt>
      <trkpt lat="42.15868" lon="2.34757">
        <ele>1259.1</ele>
        <time>2018-11-26T17:14:33Z</time>
      </trkpt>
      <trkpt lat="42.15867" lon="2.34761">
        <ele>1258.9</ele>
        <time>2018-11-26T17:14:34Z</time>
      </trkpt>
      <trkpt lat="42.15866" lon="2.34765">
        <ele>1259.1</ele>
        <time>2018-11-26T17:14:35Z</time>
      </trkpt>
      <trkpt lat="42.15865" lon="2.34768">
        <ele>1258.8</ele>
        <time>2018-11-26T17:14:37Z</time>
      </trkpt>
      <trkpt lat="42.15864" lon="2.34772">
        <ele>1258.9</ele>
        <time>2018-11-26T17:14:38Z</time>
      </trkpt>
      <trkpt lat="42.15863" lon="2.34776">
        <ele>1258.9</ele>
        <time>2018-11-26T17:14:39Z</time>
      </trkpt>
      <trkpt lat="42.15863" lon="2.3478">
        <ele>1258.5</ele>
        <time>2018-11-26T17:14:40Z</time>
      </trkpt>
      <trkpt lat="42.15862" lon="2.34784">
        <ele>1258.1</ele>
        <time>2018-11-26T17:14:41Z</time>
      </trkpt>
      <trkpt lat="42.15861" lon="2.34788">
        <ele>1258.1</ele>
        <time>2018-11-26T17:14:43Z</time>
      </trkpt>
      <trkpt lat="42.15861" lon="2.34791">
        <ele>1258</ele>
        <time>2018-11-26T17:14:44Z</time>
      </trkpt>
      <trkpt lat="42.1586" lon="2.34795">
        <ele>1258.9</ele>
        <time>2018-11-26T17:14:45Z</time>
      </trkpt>
      <trkpt lat="42.15859" lon="2.348">
        <ele>1258</ele>
        <time>2018-11-26T17:14:46Z</time>
      </trkpt>
      <trkpt lat="42.15859" lon="2.34804">
        <ele>1258.1</ele>
        <time>2018-11-26T17:14:47Z</time>
      </trkpt>
      <trkpt lat="42.15859" lon="2.34807">
        <ele>1257.6</ele>
        <time>2018-11-26T17:14:48Z</time>
      </trkpt>
      <trkpt lat="42.15859" lon="2.34811">
        <ele>1257.5</ele>
        <time>2018-11-26T17:14:50Z</time>
      </trkpt>
      <trkpt lat="42.15859" lon="2.34815">
        <ele>1257.5</ele>
        <time>2018-11-26T17:14:51Z</time>
      </trkpt>
      <trkpt lat="42.15861" lon="2.34818">
        <ele>1257.6</ele>
        <time>2018-11-26T17:14:52Z</time>
      </trkpt>
      <trkpt lat="42.15862" lon="2.34821">
        <ele>1257.1</ele>
        <time>2018-11-26T17:14:53Z</time>
      </trkpt>
      <trkpt lat="42.15864" lon="2.34823">
        <ele>1256.6</ele>
        <time>2018-11-26T17:14:54Z</time>
      </trkpt>
      <trkpt lat="42.15867" lon="2.34825">
        <ele>1255.8</ele>
        <time>2018-11-26T17:14:55Z</time>
      </trkpt>
      <trkpt lat="42.1587" lon="2.34827">
        <ele>1255.1</ele>
        <time>2018-11-26T17:14:57Z</time>
      </trkpt>
      <trkpt lat="42.15872" lon="2.3483">
        <ele>1254.9</ele>
        <time>2018-11-26T17:14:58Z</time>
      </trkpt>
      <trkpt lat="42.15873" lon="2.34833">
        <ele>1254.6</ele>
        <time>2018-11-26T17:14:59Z</time>
      </trkpt>
      <trkpt lat="42.15874" lon="2.34835">
        <ele>1253.1</ele>
        <time>2018-11-26T17:15:00Z</time>
      </trkpt>
      <trkpt lat="42.15876" lon="2.34838">
        <ele>1252.4</ele>
        <time>2018-11-26T17:15:01Z</time>
      </trkpt>
      <trkpt lat="42.15878" lon="2.34842">
        <ele>1252.5</ele>
        <time>2018-11-26T17:15:02Z</time>
      </trkpt>
      <trkpt lat="42.15879" lon="2.34845">
        <ele>1251.5</ele>
        <time>2018-11-26T17:15:03Z</time>
      </trkpt>
      <trkpt lat="42.15881" lon="2.34846">
        <ele>1251.6</ele>
        <time>2018-11-26T17:15:04Z</time>
      </trkpt>
      <trkpt lat="42.15883" lon="2.34848">
        <ele>1251.2</ele>
        <time>2018-11-26T17:15:05Z</time>
      </trkpt>
      <trkpt lat="42.15885" lon="2.34849">
        <ele>1250.9</ele>
        <time>2018-11-26T17:15:06Z</time>
      </trkpt>
      <trkpt lat="42.15888" lon="2.34849">
        <ele>1250.8</ele>
        <time>2018-11-26T17:15:07Z</time>
      </trkpt>
      <trkpt lat="42.1589" lon="2.3485">
        <ele>1249.4</ele>
        <time>2018-11-26T17:15:08Z</time>
      </trkpt>
      <trkpt lat="42.15892" lon="2.34851">
        <ele>1249.1</ele>
        <time>2018-11-26T17:15:09Z</time>
      </trkpt>
      <trkpt lat="42.15895" lon="2.34852">
        <ele>1248.1</ele>
        <time>2018-11-26T17:15:10Z</time>
      </trkpt>
      <trkpt lat="42.15898" lon="2.34855">
        <ele>1247</ele>
        <time>2018-11-26T17:15:11Z</time>
      </trkpt>
      <trkpt lat="42.159" lon="2.34857">
        <ele>1246.5</ele>
        <time>2018-11-26T17:15:12Z</time>
      </trkpt>
      <trkpt lat="42.15902" lon="2.34859">
        <ele>1246.2</ele>
        <time>2018-11-26T17:15:13Z</time>
      </trkpt>
      <trkpt lat="42.15904" lon="2.34862">
        <ele>1245.6</ele>
        <time>2018-11-26T17:15:14Z</time>
      </trkpt>
      <trkpt lat="42.15906" lon="2.34865">
        <ele>1245.5</ele>
        <time>2018-11-26T17:15:16Z</time>
      </trkpt>
      <trkpt lat="42.15907" lon="2.34867">
        <ele>1245.5</ele>
        <time>2018-11-26T17:15:17Z</time>
      </trkpt>
      <trkpt lat="42.15909" lon="2.3487">
        <ele>1244.5</ele>
        <time>2018-11-26T17:15:17Z</time>
      </trkpt>
      <trkpt lat="42.1591" lon="2.34872">
        <ele>1244.6</ele>
        <time>2018-11-26T17:15:18Z</time>
      </trkpt>
      <trkpt lat="42.15911" lon="2.34875">
        <ele>1244.6</ele>
        <time>2018-11-26T17:15:19Z</time>
      </trkpt>
      <trkpt lat="42.15911" lon="2.34878">
        <ele>1243.5</ele>
        <time>2018-11-26T17:15:20Z</time>
      </trkpt>
      <trkpt lat="42.15911" lon="2.34881">
        <ele>1243.1</ele>
        <time>2018-11-26T17:15:21Z</time>
      </trkpt>
      <trkpt lat="42.15912" lon="2.34884">
        <ele>1242.5</ele>
        <time>2018-11-26T17:15:22Z</time>
      </trkpt>
      <trkpt lat="42.15911" lon="2.34887">
        <ele>1242.5</ele>
        <time>2018-11-26T17:15:23Z</time>
      </trkpt>
      <trkpt lat="42.1591" lon="2.3489">
        <ele>1242.6</ele>
        <time>2018-11-26T17:15:24Z</time>
      </trkpt>
      <trkpt lat="42.15908" lon="2.34893">
        <ele>1242</ele>
        <time>2018-11-26T17:15:25Z</time>
      </trkpt>
      <trkpt lat="42.15907" lon="2.34895">
        <ele>1241.8</ele>
        <time>2018-11-26T17:15:26Z</time>
      </trkpt>
      <trkpt lat="42.15906" lon="2.34898">
        <ele>1242.1</ele>
        <time>2018-11-26T17:15:27Z</time>
      </trkpt>
      <trkpt lat="42.15904" lon="2.34901">
        <ele>1242.2</ele>
        <time>2018-11-26T17:15:28Z</time>
      </trkpt>
      <trkpt lat="42.15902" lon="2.34904">
        <ele>1242.1</ele>
        <time>2018-11-26T17:15:29Z</time>
      </trkpt>
      <trkpt lat="42.15902" lon="2.34907">
        <ele>1241.6</ele>
        <time>2018-11-26T17:15:30Z</time>
      </trkpt>
      <trkpt lat="42.15901" lon="2.34911">
        <ele>1241.1</ele>
        <time>2018-11-26T17:15:31Z</time>
      </trkpt>
      <trkpt lat="42.15902" lon="2.34914">
        <ele>1241.1</ele>
        <time>2018-11-26T17:15:32Z</time>
      </trkpt>
      <trkpt lat="42.15902" lon="2.34919">
        <ele>1241.1</ele>
        <time>2018-11-26T17:15:34Z</time>
      </trkpt>
      <trkpt lat="42.15902" lon="2.34923">
        <ele>1241.2</ele>
        <time>2018-11-26T17:15:35Z</time>
      </trkpt>
      <trkpt lat="42.15903" lon="2.34927">
        <ele>1241.1</ele>
        <time>2018-11-26T17:15:36Z</time>
      </trkpt>
      <trkpt lat="42.15904" lon="2.34931">
        <ele>1240.5</ele>
        <time>2018-11-26T17:15:37Z</time>
      </trkpt>
      <trkpt lat="42.15905" lon="2.34935">
        <ele>1240.2</ele>
        <time>2018-11-26T17:15:39Z</time>
      </trkpt>
      <trkpt lat="42.15906" lon="2.34938">
        <ele>1239.4</ele>
        <time>2018-11-26T17:15:40Z</time>
      </trkpt>
      <trkpt lat="42.15906" lon="2.34941">
        <ele>1238.6</ele>
        <time>2018-11-26T17:15:40Z</time>
      </trkpt>
      <trkpt lat="42.15907" lon="2.34944">
        <ele>1238.1</ele>
        <time>2018-11-26T17:15:41Z</time>
      </trkpt>
      <trkpt lat="42.15908" lon="2.34947">
        <ele>1238.1</ele>
        <time>2018-11-26T17:15:42Z</time>
      </trkpt>
      <trkpt lat="42.15909" lon="2.34949">
        <ele>1237.5</ele>
        <time>2018-11-26T17:15:43Z</time>
      </trkpt>
      <trkpt lat="42.15911" lon="2.34951">
        <ele>1236.5</ele>
        <time>2018-11-26T17:15:44Z</time>
      </trkpt>
      <trkpt lat="42.15912" lon="2.34955">
        <ele>1236</ele>
        <time>2018-11-26T17:15:45Z</time>
      </trkpt>
      <trkpt lat="42.15913" lon="2.34958">
        <ele>1235</ele>
        <time>2018-11-26T17:15:46Z</time>
      </trkpt>
      <trkpt lat="42.15914" lon="2.34961">
        <ele>1234.1</ele>
        <time>2018-11-26T17:15:47Z</time>
      </trkpt>
      <trkpt lat="42.15915" lon="2.34965">
        <ele>1233.4</ele>
        <time>2018-11-26T17:15:48Z</time>
      </trkpt>
      <trkpt lat="42.15916" lon="2.34969">
        <ele>1233.1</ele>
        <time>2018-11-26T17:15:50Z</time>
      </trkpt>
      <trkpt lat="42.15917" lon="2.34972">
        <ele>1232.9</ele>
        <time>2018-11-26T17:15:51Z</time>
      </trkpt>
      <trkpt lat="42.15918" lon="2.34975">
        <ele>1232.9</ele>
        <time>2018-11-26T17:15:52Z</time>
      </trkpt>
      <trkpt lat="42.15918" lon="2.34978">
        <ele>1232.2</ele>
        <time>2018-11-26T17:15:52Z</time>
      </trkpt>
      <trkpt lat="42.15918" lon="2.34981">
        <ele>1232.1</ele>
        <time>2018-11-26T17:15:53Z</time>
      </trkpt>
      <trkpt lat="42.15919" lon="2.34983">
        <ele>1232.1</ele>
        <time>2018-11-26T17:15:54Z</time>
      </trkpt>
      <trkpt lat="42.15919" lon="2.34986">
        <ele>1231.8</ele>
        <time>2018-11-26T17:15:55Z</time>
      </trkpt>
      <trkpt lat="42.15919" lon="2.34988">
        <ele>1231.4</ele>
        <time>2018-11-26T17:15:56Z</time>
      </trkpt>
      <trkpt lat="42.15919" lon="2.34991">
        <ele>1231.4</ele>
        <time>2018-11-26T17:15:56Z</time>
      </trkpt>
      <trkpt lat="42.15918" lon="2.34993">
        <ele>1231</ele>
        <time>2018-11-26T17:15:57Z</time>
      </trkpt>
      <trkpt lat="42.15917" lon="2.34995">
        <ele>1230.2</ele>
        <time>2018-11-26T17:15:58Z</time>
      </trkpt>
      <trkpt lat="42.15917" lon="2.34999">
        <ele>1229.5</ele>
        <time>2018-11-26T17:15:59Z</time>
      </trkpt>
      <trkpt lat="42.15917" lon="2.35003">
        <ele>1229.5</ele>
        <time>2018-11-26T17:16:00Z</time>
      </trkpt>
      <trkpt lat="42.15919" lon="2.35006">
        <ele>1228.7</ele>
        <time>2018-11-26T17:16:01Z</time>
      </trkpt>
      <trkpt lat="42.15919" lon="2.35009">
        <ele>1227.8</ele>
        <time>2018-11-26T17:16:02Z</time>
      </trkpt>
      <trkpt lat="42.15921" lon="2.3501">
        <ele>1226.5</ele>
        <time>2018-11-26T17:16:03Z</time>
      </trkpt>
      <trkpt lat="42.15924" lon="2.3501">
        <ele>1224.9</ele>
        <time>2018-11-26T17:16:04Z</time>
      </trkpt>
      <trkpt lat="42.15927" lon="2.3501">
        <ele>1224.8</ele>
        <time>2018-11-26T17:16:05Z</time>
      </trkpt>
      <trkpt lat="42.15929" lon="2.35011">
        <ele>1224.2</ele>
        <time>2018-11-26T17:16:06Z</time>
      </trkpt>
      <trkpt lat="42.15932" lon="2.35011">
        <ele>1223.9</ele>
        <time>2018-11-26T17:16:07Z</time>
      </trkpt>
      <trkpt lat="42.15935" lon="2.3501">
        <ele>1223</ele>
        <time>2018-11-26T17:16:08Z</time>
      </trkpt>
      <trkpt lat="42.15937" lon="2.35009">
        <ele>1221.5</ele>
        <time>2018-11-26T17:16:09Z</time>
      </trkpt>
      <trkpt lat="42.15939" lon="2.35009">
        <ele>1220.6</ele>
        <time>2018-11-26T17:16:10Z</time>
      </trkpt>
      <trkpt lat="42.15942" lon="2.35009">
        <ele>1219.6</ele>
        <time>2018-11-26T17:16:11Z</time>
      </trkpt>
      <trkpt lat="42.15951" lon="2.35008">
        <ele>1217.1</ele>
        <time>2018-11-26T17:16:15Z</time>
      </trkpt>
      <trkpt lat="42.1596" lon="2.35015">
        <ele>1214.5</ele>
        <time>2018-11-26T17:16:19Z</time>
      </trkpt>
      <trkpt lat="42.15966" lon="2.35028">
        <ele>1213.1</ele>
        <time>2018-11-26T17:16:24Z</time>
      </trkpt>
      <trkpt lat="42.15967" lon="2.35042">
        <ele>1209.9</ele>
        <time>2018-11-26T17:16:28Z</time>
      </trkpt>
      <trkpt lat="42.15965" lon="2.35054">
        <ele>1206.5</ele>
        <time>2018-11-26T17:16:31Z</time>
      </trkpt>
      <trkpt lat="42.15963" lon="2.35068">
        <ele>1205.2</ele>
        <time>2018-11-26T17:16:35Z</time>
      </trkpt>
      <trkpt lat="42.15956" lon="2.35078">
        <ele>1205</ele>
        <time>2018-11-26T17:16:40Z</time>
      </trkpt>
      <trkpt lat="42.1595" lon="2.35089">
        <ele>1204.1</ele>
        <time>2018-11-26T17:16:44Z</time>
      </trkpt>
      <trkpt lat="42.15959" lon="2.35089">
        <ele>1198</ele>
        <time>2018-11-26T17:16:47Z</time>
      </trkpt>
      <trkpt lat="42.15969" lon="2.35087">
        <ele>1194.1</ele>
        <time>2018-11-26T17:16:51Z</time>
      </trkpt>
      <trkpt lat="42.15972" lon="2.35099">
        <ele>1192.4</ele>
        <time>2018-11-26T17:16:55Z</time>
      </trkpt>
      <trkpt lat="42.15964" lon="2.35106">
        <ele>1192.1</ele>
        <time>2018-11-26T17:16:59Z</time>
      </trkpt>
      <trkpt lat="42.15961" lon="2.35119">
        <ele>1189.9</ele>
        <time>2018-11-26T17:17:03Z</time>
      </trkpt>
      <trkpt lat="42.15952" lon="2.35127">
        <ele>1189.5</ele>
        <time>2018-11-26T17:17:07Z</time>
      </trkpt>
      <trkpt lat="42.15945" lon="2.35135">
        <ele>1188.2</ele>
        <time>2018-11-26T17:17:11Z</time>
      </trkpt>
      <trkpt lat="42.15955" lon="2.35139">
        <ele>1185.2</ele>
        <time>2018-11-26T17:17:15Z</time>
      </trkpt>
      <trkpt lat="42.15951" lon="2.35152">
        <ele>1184.1</ele>
        <time>2018-11-26T17:17:19Z</time>
      </trkpt>
      <trkpt lat="42.15942" lon="2.35159">
        <ele>1181</ele>
        <time>2018-11-26T17:17:24Z</time>
      </trkpt>
      <trkpt lat="42.15935" lon="2.35169">
        <ele>1182.6</ele>
        <time>2018-11-26T17:17:27Z</time>
      </trkpt>
      <trkpt lat="42.15928" lon="2.35178">
        <ele>1183.6</ele>
        <time>2018-11-26T17:17:32Z</time>
      </trkpt>
      <trkpt lat="42.15918" lon="2.35186">
        <ele>1185.1</ele>
        <time>2018-11-26T17:17:36Z</time>
      </trkpt>
      <trkpt lat="42.15909" lon="2.35192">
        <ele>1184.8</ele>
        <time>2018-11-26T17:17:40Z</time>
      </trkpt>
      <trkpt lat="42.159" lon="2.35197">
        <ele>1183.4</ele>
        <time>2018-11-26T17:17:44Z</time>
      </trkpt>
      <trkpt lat="42.15891" lon="2.35205">
        <ele>1182.2</ele>
        <time>2018-11-26T17:17:48Z</time>
      </trkpt>
      <trkpt lat="42.15883" lon="2.35212">
        <ele>1181.9</ele>
        <time>2018-11-26T17:17:52Z</time>
      </trkpt>
      <trkpt lat="42.15874" lon="2.35215">
        <ele>1182.6</ele>
        <time>2018-11-26T17:17:56Z</time>
      </trkpt>
      <trkpt lat="42.15865" lon="2.35217">
        <ele>1181.9</ele>
        <time>2018-11-26T17:18:00Z</time>
      </trkpt>
      <trkpt lat="42.15855" lon="2.35221">
        <ele>1180.5</ele>
        <time>2018-11-26T17:18:04Z</time>
      </trkpt>
      <trkpt lat="42.15845" lon="2.35226">
        <ele>1180.4</ele>
        <time>2018-11-26T17:18:08Z</time>
      </trkpt>
      <trkpt lat="42.15838" lon="2.35236">
        <ele>1179.9</ele>
        <time>2018-11-26T17:18:12Z</time>
      </trkpt>
      <trkpt lat="42.15831" lon="2.35248">
        <ele>1180.1</ele>
        <time>2018-11-26T17:18:16Z</time>
      </trkpt>
      <trkpt lat="42.15824" lon="2.35255">
        <ele>1179.4</ele>
        <time>2018-11-26T17:18:20Z</time>
      </trkpt>
      <trkpt lat="42.15816" lon="2.35264">
        <ele>1179.4</ele>
        <time>2018-11-26T17:18:24Z</time>
      </trkpt>
      <trkpt lat="42.15809" lon="2.35272">
        <ele>1178</ele>
        <time>2018-11-26T17:18:28Z</time>
      </trkpt>
      <trkpt lat="42.15802" lon="2.35283">
        <ele>1175.8</ele>
        <time>2018-11-26T17:18:32Z</time>
      </trkpt>
      <trkpt lat="42.15795" lon="2.35292">
        <ele>1175.4</ele>
        <time>2018-11-26T17:18:36Z</time>
      </trkpt>
      <trkpt lat="42.15792" lon="2.35305">
        <ele>1173.6</ele>
        <time>2018-11-26T17:18:40Z</time>
      </trkpt>
      <trkpt lat="42.15795" lon="2.35318">
        <ele>1172.1</ele>
        <time>2018-11-26T17:18:44Z</time>
      </trkpt>
      <trkpt lat="42.15797" lon="2.3533">
        <ele>1171.6</ele>
        <time>2018-11-26T17:18:48Z</time>
      </trkpt>
      <trkpt lat="42.15801" lon="2.35345">
        <ele>1169.4</ele>
        <time>2018-11-26T17:18:52Z</time>
      </trkpt>
      <trkpt lat="42.15803" lon="2.35357">
        <ele>1167.5</ele>
        <time>2018-11-26T17:18:56Z</time>
      </trkpt>
      <trkpt lat="42.15801" lon="2.35369">
        <ele>1166.5</ele>
        <time>2018-11-26T17:19:00Z</time>
      </trkpt>
      <trkpt lat="42.15799" lon="2.35368">
        <ele>1164.6</ele>
        <time>2018-11-26T17:19:01Z</time>
      </trkpt>
      <trkpt lat="42.1579" lon="2.3536">
        <ele>1162.5</ele>
        <time>2018-11-26T17:19:05Z</time>
      </trkpt>
      <trkpt lat="42.15783" lon="2.35351">
        <ele>1162.5</ele>
        <time>2018-11-26T17:19:09Z</time>
      </trkpt>
      <trkpt lat="42.15775" lon="2.35346">
        <ele>1163.4</ele>
        <time>2018-11-26T17:19:12Z</time>
      </trkpt>
      <trkpt lat="42.1577" lon="2.35344">
        <ele>1163.1</ele>
        <time>2018-11-26T17:19:15Z</time>
      </trkpt>
      <trkpt lat="42.15767" lon="2.35342">
        <ele>1163</ele>
        <time>2018-11-26T17:19:16Z</time>
      </trkpt>
      <trkpt lat="42.15766" lon="2.3534">
        <ele>1163.1</ele>
        <time>2018-11-26T17:19:17Z</time>
      </trkpt>
      <trkpt lat="42.15766" lon="2.35337">
        <ele>1163.1</ele>
        <time>2018-11-26T17:19:18Z</time>
      </trkpt>
      <trkpt lat="42.15765" lon="2.35335">
        <ele>1163.4</ele>
        <time>2018-11-26T17:19:18Z</time>
      </trkpt>
      <trkpt lat="42.15764" lon="2.35333">
        <ele>1163.4</ele>
        <time>2018-11-26T17:19:19Z</time>
      </trkpt>
      <trkpt lat="42.15765" lon="2.35329">
        <ele>1163.5</ele>
        <time>2018-11-26T17:19:20Z</time>
      </trkpt>
      <trkpt lat="42.15766" lon="2.35326">
        <ele>1163.5</ele>
        <time>2018-11-26T17:19:21Z</time>
      </trkpt>
      <trkpt lat="42.15765" lon="2.35322">
        <ele>1163.5</ele>
        <time>2018-11-26T17:19:22Z</time>
      </trkpt>
      <trkpt lat="42.15765" lon="2.3532">
        <ele>1163.8</ele>
        <time>2018-11-26T17:19:23Z</time>
      </trkpt>
      <trkpt lat="42.15762" lon="2.35313">
        <ele>1164.1</ele>
        <time>2018-11-26T17:19:25Z</time>
      </trkpt>
      <trkpt lat="42.1576" lon="2.3531">
        <ele>1165</ele>
        <time>2018-11-26T17:19:27Z</time>
      </trkpt>
      <trkpt lat="42.1576" lon="2.35307">
        <ele>1165.1</ele>
        <time>2018-11-26T17:19:27Z</time>
      </trkpt>
      <trkpt lat="42.15758" lon="2.35306">
        <ele>1166.2</ele>
        <time>2018-11-26T17:19:28Z</time>
      </trkpt>
      <trkpt lat="42.15758" lon="2.35308">
        <ele>1166.6</ele>
        <time>2018-11-26T17:19:29Z</time>
      </trkpt>
      <trkpt lat="42.15758" lon="2.35321">
        <ele>1168.6</ele>
        <time>2018-11-26T17:19:33Z</time>
      </trkpt>
      <trkpt lat="42.15754" lon="2.35333">
        <ele>1170.1</ele>
        <time>2018-11-26T17:19:37Z</time>
      </trkpt>
      <trkpt lat="42.15753" lon="2.35346">
        <ele>1170.4</ele>
        <time>2018-11-26T17:19:41Z</time>
      </trkpt>
      <trkpt lat="42.15754" lon="2.35359">
        <ele>1170.1</ele>
        <time>2018-11-26T17:19:45Z</time>
      </trkpt>
      <trkpt lat="42.15753" lon="2.35373">
        <ele>1170.1</ele>
        <time>2018-11-26T17:19:49Z</time>
      </trkpt>
      <trkpt lat="42.15751" lon="2.35386">
        <ele>1169.9</ele>
        <time>2018-11-26T17:19:53Z</time>
      </trkpt>
      <trkpt lat="42.15753" lon="2.35397">
        <ele>1170.1</ele>
        <time>2018-11-26T17:19:56Z</time>
      </trkpt>
      <trkpt lat="42.15753" lon="2.35408">
        <ele>1171.1</ele>
        <time>2018-11-26T17:19:59Z</time>
      </trkpt>
      <trkpt lat="42.15748" lon="2.35418">
        <ele>1171.4</ele>
        <time>2018-11-26T17:20:03Z</time>
      </trkpt>
      <trkpt lat="42.15749" lon="2.35416">
        <ele>1172.9</ele>
        <time>2018-11-26T17:20:04Z</time>
      </trkpt>
      <trkpt lat="42.15748" lon="2.35421">
        <ele>1171.5</ele>
        <time>2018-11-26T17:20:05Z</time>
      </trkpt>
      <trkpt lat="42.15748" lon="2.35424">
        <ele>1172.1</ele>
        <time>2018-11-26T17:20:06Z</time>
      </trkpt>
      <trkpt lat="42.15747" lon="2.35427">
        <ele>1172.1</ele>
        <time>2018-11-26T17:20:07Z</time>
      </trkpt>
      <trkpt lat="42.15746" lon="2.35432">
        <ele>1172.9</ele>
        <time>2018-11-26T17:20:09Z</time>
      </trkpt>
      <trkpt lat="42.1575" lon="2.35436">
        <ele>1173.2</ele>
        <time>2018-11-26T17:20:10Z</time>
      </trkpt>
      <trkpt lat="42.15751" lon="2.35439">
        <ele>1173</ele>
        <time>2018-11-26T17:20:11Z</time>
      </trkpt>
      <trkpt lat="42.1575" lon="2.35443">
        <ele>1173.8</ele>
        <time>2018-11-26T17:20:13Z</time>
      </trkpt>
      <trkpt lat="42.15752" lon="2.35446">
        <ele>1174.2</ele>
        <time>2018-11-26T17:20:14Z</time>
      </trkpt>
      <trkpt lat="42.15753" lon="2.3545">
        <ele>1174.4</ele>
        <time>2018-11-26T17:20:15Z</time>
      </trkpt>
      <trkpt lat="42.15753" lon="2.35454">
        <ele>1174.5</ele>
        <time>2018-11-26T17:20:16Z</time>
      </trkpt>
      <trkpt lat="42.15754" lon="2.35458">
        <ele>1175</ele>
        <time>2018-11-26T17:20:17Z</time>
      </trkpt>
      <trkpt lat="42.15753" lon="2.3546">
        <ele>1175</ele>
        <time>2018-11-26T17:20:18Z</time>
      </trkpt>
      <trkpt lat="42.15749" lon="2.35473">
        <ele>1175.5</ele>
        <time>2018-11-26T17:20:22Z</time>
      </trkpt>
      <trkpt lat="42.15748" lon="2.35479">
        <ele>1175.9</ele>
        <time>2018-11-26T17:20:24Z</time>
      </trkpt>
      <trkpt lat="42.15747" lon="2.35483">
        <ele>1176.5</ele>
        <time>2018-11-26T17:20:25Z</time>
      </trkpt>
      <trkpt lat="42.15747" lon="2.35488">
        <ele>1176.5</ele>
        <time>2018-11-26T17:20:27Z</time>
      </trkpt>
      <trkpt lat="42.15746" lon="2.3549">
        <ele>1176.5</ele>
        <time>2018-11-26T17:20:28Z</time>
      </trkpt>
      <trkpt lat="42.15743" lon="2.35494">
        <ele>1177.1</ele>
        <time>2018-11-26T17:20:29Z</time>
      </trkpt>
      <trkpt lat="42.1574" lon="2.35506">
        <ele>1179</ele>
        <time>2018-11-26T17:20:33Z</time>
      </trkpt>
      <trkpt lat="42.15741" lon="2.35518">
        <ele>1180.8</ele>
        <time>2018-11-26T17:20:36Z</time>
      </trkpt>
      <trkpt lat="42.1574" lon="2.35525">
        <ele>1181.2</ele>
        <time>2018-11-26T17:20:39Z</time>
      </trkpt>
      <trkpt lat="42.15739" lon="2.35532">
        <ele>1181</ele>
        <time>2018-11-26T17:20:41Z</time>
      </trkpt>
      <trkpt lat="42.15739" lon="2.35538">
        <ele>1181.4</ele>
        <time>2018-11-26T17:20:42Z</time>
      </trkpt>
      <trkpt lat="42.15739" lon="2.35542">
        <ele>1181.2</ele>
        <time>2018-11-26T17:20:44Z</time>
      </trkpt>
      <trkpt lat="42.1574" lon="2.35547">
        <ele>1181.9</ele>
        <time>2018-11-26T17:20:45Z</time>
      </trkpt>
      <trkpt lat="42.1574" lon="2.3555">
        <ele>1182.1</ele>
        <time>2018-11-26T17:20:46Z</time>
      </trkpt>
      <trkpt lat="42.15738" lon="2.35562">
        <ele>1182.8</ele>
        <time>2018-11-26T17:20:50Z</time>
      </trkpt>
      <trkpt lat="42.15736" lon="2.35575">
        <ele>1183.1</ele>
        <time>2018-11-26T17:20:54Z</time>
      </trkpt>
      <trkpt lat="42.15736" lon="2.35588">
        <ele>1183.9</ele>
        <time>2018-11-26T17:20:57Z</time>
      </trkpt>
      <trkpt lat="42.1573" lon="2.35598">
        <ele>1185.4</ele>
        <time>2018-11-26T17:21:01Z</time>
      </trkpt>
      <trkpt lat="42.15726" lon="2.35609">
        <ele>1186.6</ele>
        <time>2018-11-26T17:21:05Z</time>
      </trkpt>
      <trkpt lat="42.15718" lon="2.35618">
        <ele>1187.6</ele>
        <time>2018-11-26T17:21:09Z</time>
      </trkpt>
      <trkpt lat="42.15713" lon="2.35628">
        <ele>1188.4</ele>
        <time>2018-11-26T17:21:13Z</time>
      </trkpt>
      <trkpt lat="42.15704" lon="2.35634">
        <ele>1188.1</ele>
        <time>2018-11-26T17:21:16Z</time>
      </trkpt>
      <trkpt lat="42.15697" lon="2.35641">
        <ele>1188.8</ele>
        <time>2018-11-26T17:21:20Z</time>
      </trkpt>
      <trkpt lat="42.15687" lon="2.35642">
        <ele>1189.6</ele>
        <time>2018-11-26T17:21:24Z</time>
      </trkpt>
      <trkpt lat="42.15677" lon="2.35641">
        <ele>1191.1</ele>
        <time>2018-11-26T17:21:28Z</time>
      </trkpt>
      <trkpt lat="42.15667" lon="2.35642">
        <ele>1192</ele>
        <time>2018-11-26T17:21:32Z</time>
      </trkpt>
      <trkpt lat="42.15657" lon="2.35645">
        <ele>1192.8</ele>
        <time>2018-11-26T17:21:36Z</time>
      </trkpt>
      <trkpt lat="42.15652" lon="2.35645">
        <ele>1194.1</ele>
        <time>2018-11-26T17:21:38Z</time>
      </trkpt>
      <trkpt lat="42.1565" lon="2.35645">
        <ele>1194.9</ele>
        <time>2018-11-26T17:21:39Z</time>
      </trkpt>
      <trkpt lat="42.15648" lon="2.35645">
        <ele>1195.2</ele>
        <time>2018-11-26T17:21:40Z</time>
      </trkpt>
      <trkpt lat="42.15645" lon="2.35645">
        <ele>1195.1</ele>
        <time>2018-11-26T17:21:41Z</time>
      </trkpt>
      <trkpt lat="42.15643" lon="2.35645">
        <ele>1195.5</ele>
        <time>2018-11-26T17:21:42Z</time>
      </trkpt>
      <trkpt lat="42.1564" lon="2.35645">
        <ele>1195.5</ele>
        <time>2018-11-26T17:21:43Z</time>
      </trkpt>
      <trkpt lat="42.15638" lon="2.35646">
        <ele>1196</ele>
        <time>2018-11-26T17:21:44Z</time>
      </trkpt>
      <trkpt lat="42.15636" lon="2.35647">
        <ele>1196.1</ele>
        <time>2018-11-26T17:21:45Z</time>
      </trkpt>
      <trkpt lat="42.15634" lon="2.35648">
        <ele>1196.5</ele>
        <time>2018-11-26T17:21:46Z</time>
      </trkpt>
      <trkpt lat="42.15632" lon="2.35649">
        <ele>1197.1</ele>
        <time>2018-11-26T17:21:46Z</time>
      </trkpt>
      <trkpt lat="42.1563" lon="2.3565">
        <ele>1197</ele>
        <time>2018-11-26T17:21:47Z</time>
      </trkpt>
      <trkpt lat="42.15627" lon="2.35651">
        <ele>1197.4</ele>
        <time>2018-11-26T17:21:48Z</time>
      </trkpt>
      <trkpt lat="42.15625" lon="2.35651">
        <ele>1197.4</ele>
        <time>2018-11-26T17:21:49Z</time>
      </trkpt>
      <trkpt lat="42.15622" lon="2.35651">
        <ele>1198.2</ele>
        <time>2018-11-26T17:21:50Z</time>
      </trkpt>
      <trkpt lat="42.1562" lon="2.35652">
        <ele>1198.4</ele>
        <time>2018-11-26T17:21:51Z</time>
      </trkpt>
      <trkpt lat="42.15617" lon="2.35652">
        <ele>1198.4</ele>
        <time>2018-11-26T17:21:52Z</time>
      </trkpt>
      <trkpt lat="42.15614" lon="2.35654">
        <ele>1198.6</ele>
        <time>2018-11-26T17:21:54Z</time>
      </trkpt>
      <trkpt lat="42.15612" lon="2.35654">
        <ele>1198.5</ele>
        <time>2018-11-26T17:21:55Z</time>
      </trkpt>
      <trkpt lat="42.15609" lon="2.35655">
        <ele>1199.1</ele>
        <time>2018-11-26T17:21:56Z</time>
      </trkpt>
      <trkpt lat="42.15607" lon="2.35655">
        <ele>1199.1</ele>
        <time>2018-11-26T17:21:57Z</time>
      </trkpt>
      <trkpt lat="42.15605" lon="2.35654">
        <ele>1199.5</ele>
        <time>2018-11-26T17:21:57Z</time>
      </trkpt>
      <trkpt lat="42.15603" lon="2.35653">
        <ele>1199.4</ele>
        <time>2018-11-26T17:21:58Z</time>
      </trkpt>
      <trkpt lat="42.15601" lon="2.35654">
        <ele>1199.5</ele>
        <time>2018-11-26T17:21:59Z</time>
      </trkpt>
      <trkpt lat="42.15598" lon="2.35655">
        <ele>1199.2</ele>
        <time>2018-11-26T17:22:00Z</time>
      </trkpt>
      <trkpt lat="42.15596" lon="2.35656">
        <ele>1199.2</ele>
        <time>2018-11-26T17:22:01Z</time>
      </trkpt>
      <trkpt lat="42.15594" lon="2.35658">
        <ele>1199.6</ele>
        <time>2018-11-26T17:22:02Z</time>
      </trkpt>
      <trkpt lat="42.15591" lon="2.35659">
        <ele>1199.6</ele>
        <time>2018-11-26T17:22:03Z</time>
      </trkpt>
      <trkpt lat="42.15589" lon="2.3566">
        <ele>1199.9</ele>
        <time>2018-11-26T17:22:04Z</time>
      </trkpt>
      <trkpt lat="42.15587" lon="2.35662">
        <ele>1200.2</ele>
        <time>2018-11-26T17:22:05Z</time>
      </trkpt>
      <trkpt lat="42.15585" lon="2.35664">
        <ele>1200.5</ele>
        <time>2018-11-26T17:22:06Z</time>
      </trkpt>
      <trkpt lat="42.15583" lon="2.35665">
        <ele>1200.4</ele>
        <time>2018-11-26T17:22:07Z</time>
      </trkpt>
      <trkpt lat="42.15581" lon="2.35667">
        <ele>1200.5</ele>
        <time>2018-11-26T17:22:08Z</time>
      </trkpt>
      <trkpt lat="42.15579" lon="2.35668">
        <ele>1200.8</ele>
        <time>2018-11-26T17:22:09Z</time>
      </trkpt>
      <trkpt lat="42.15577" lon="2.35669">
        <ele>1201.2</ele>
        <time>2018-11-26T17:22:10Z</time>
      </trkpt>
      <trkpt lat="42.15575" lon="2.35671">
        <ele>1201.4</ele>
        <time>2018-11-26T17:22:11Z</time>
      </trkpt>
      <trkpt lat="42.1557" lon="2.35674">
        <ele>1201.8</ele>
        <time>2018-11-26T17:22:13Z</time>
      </trkpt>
      <trkpt lat="42.15569" lon="2.35676">
        <ele>1202.2</ele>
        <time>2018-11-26T17:22:14Z</time>
      </trkpt>
      <trkpt lat="42.15566" lon="2.35678">
        <ele>1202.9</ele>
        <time>2018-11-26T17:22:15Z</time>
      </trkpt>
      <trkpt lat="42.15564" lon="2.35679">
        <ele>1203.6</ele>
        <time>2018-11-26T17:22:16Z</time>
      </trkpt>
      <trkpt lat="42.15562" lon="2.3568">
        <ele>1204.9</ele>
        <time>2018-11-26T17:22:17Z</time>
      </trkpt>
      <trkpt lat="42.15551" lon="2.35681">
        <ele>1206</ele>
        <time>2018-11-26T17:22:21Z</time>
      </trkpt>
      <trkpt lat="42.15546" lon="2.35682">
        <ele>1206.4</ele>
        <time>2018-11-26T17:22:23Z</time>
      </trkpt>
      <trkpt lat="42.15544" lon="2.35682">
        <ele>1206.8</ele>
        <time>2018-11-26T17:22:24Z</time>
      </trkpt>
      <trkpt lat="42.15542" lon="2.35682">
        <ele>1207.4</ele>
        <time>2018-11-26T17:22:25Z</time>
      </trkpt>
      <trkpt lat="42.1554" lon="2.35683">
        <ele>1208.2</ele>
        <time>2018-11-26T17:22:26Z</time>
      </trkpt>
      <trkpt lat="42.15538" lon="2.35683">
        <ele>1209.1</ele>
        <time>2018-11-26T17:22:26Z</time>
      </trkpt>
      <trkpt lat="42.15536" lon="2.35683">
        <ele>1209.3</ele>
        <time>2018-11-26T17:22:27Z</time>
      </trkpt>
      <trkpt lat="42.15533" lon="2.35683">
        <ele>1210</ele>
        <time>2018-11-26T17:22:28Z</time>
      </trkpt>
      <trkpt lat="42.15531" lon="2.35684">
        <ele>1210.5</ele>
        <time>2018-11-26T17:22:29Z</time>
      </trkpt>
      <trkpt lat="42.15529" lon="2.35683">
        <ele>1210.8</ele>
        <time>2018-11-26T17:22:30Z</time>
      </trkpt>
      <trkpt lat="42.1552" lon="2.3568">
        <ele>1212.5</ele>
        <time>2018-11-26T17:22:34Z</time>
      </trkpt>
      <trkpt lat="42.15517" lon="2.35679">
        <ele>1212.9</ele>
        <time>2018-11-26T17:22:35Z</time>
      </trkpt>
      <trkpt lat="42.15515" lon="2.35677">
        <ele>1213.1</ele>
        <time>2018-11-26T17:22:36Z</time>
      </trkpt>
      <trkpt lat="42.15513" lon="2.35675">
        <ele>1213.8</ele>
        <time>2018-11-26T17:22:37Z</time>
      </trkpt>
      <trkpt lat="42.15511" lon="2.35674">
        <ele>1213.8</ele>
        <time>2018-11-26T17:22:38Z</time>
      </trkpt>
      <trkpt lat="42.15509" lon="2.35674">
        <ele>1214</ele>
        <time>2018-11-26T17:22:39Z</time>
      </trkpt>
      <trkpt lat="42.15507" lon="2.35675">
        <ele>1214.4</ele>
        <time>2018-11-26T17:22:39Z</time>
      </trkpt>
      <trkpt lat="42.15505" lon="2.35675">
        <ele>1215.2</ele>
        <time>2018-11-26T17:22:40Z</time>
      </trkpt>
      <trkpt lat="42.15503" lon="2.35676">
        <ele>1215.6</ele>
        <time>2018-11-26T17:22:41Z</time>
      </trkpt>
      <trkpt lat="42.15501" lon="2.35675">
        <ele>1215.6</ele>
        <time>2018-11-26T17:22:42Z</time>
      </trkpt>
      <trkpt lat="42.15499" lon="2.35673">
        <ele>1215.9</ele>
        <time>2018-11-26T17:22:43Z</time>
      </trkpt>
      <trkpt lat="42.15497" lon="2.35672">
        <ele>1216.4</ele>
        <time>2018-11-26T17:22:44Z</time>
      </trkpt>
      <trkpt lat="42.15495" lon="2.3567">
        <ele>1216.8</ele>
        <time>2018-11-26T17:22:45Z</time>
      </trkpt>
      <trkpt lat="42.15494" lon="2.35668">
        <ele>1217.4</ele>
        <time>2018-11-26T17:22:45Z</time>
      </trkpt>
      <trkpt lat="42.15492" lon="2.35666">
        <ele>1217.4</ele>
        <time>2018-11-26T17:22:46Z</time>
      </trkpt>
      <trkpt lat="42.15489" lon="2.35666">
        <ele>1217.5</ele>
        <time>2018-11-26T17:22:47Z</time>
      </trkpt>
      <trkpt lat="42.15488" lon="2.35665">
        <ele>1217.1</ele>
        <time>2018-11-26T17:22:48Z</time>
      </trkpt>
      <trkpt lat="42.15486" lon="2.35665">
        <ele>1218.1</ele>
        <time>2018-11-26T17:22:49Z</time>
      </trkpt>
      <trkpt lat="42.15484" lon="2.35664">
        <ele>1219</ele>
        <time>2018-11-26T17:22:50Z</time>
      </trkpt>
      <trkpt lat="42.15482" lon="2.35663">
        <ele>1219.2</ele>
        <time>2018-11-26T17:22:50Z</time>
      </trkpt>
      <trkpt lat="42.1548" lon="2.35662">
        <ele>1219.4</ele>
        <time>2018-11-26T17:22:51Z</time>
      </trkpt>
      <trkpt lat="42.15479" lon="2.35662">
        <ele>1220.1</ele>
        <time>2018-11-26T17:22:52Z</time>
      </trkpt>
      <trkpt lat="42.15476" lon="2.3566">
        <ele>1220.5</ele>
        <time>2018-11-26T17:22:53Z</time>
      </trkpt>
      <trkpt lat="42.15474" lon="2.3566">
        <ele>1221.1</ele>
        <time>2018-11-26T17:22:54Z</time>
      </trkpt>
      <trkpt lat="42.15472" lon="2.3566">
        <ele>1221.1</ele>
        <time>2018-11-26T17:22:55Z</time>
      </trkpt>
      <trkpt lat="42.15468" lon="2.35659">
        <ele>1222</ele>
        <time>2018-11-26T17:22:56Z</time>
      </trkpt>
      <trkpt lat="42.15465" lon="2.35659">
        <ele>1222.2</ele>
        <time>2018-11-26T17:22:57Z</time>
      </trkpt>
      <trkpt lat="42.15463" lon="2.3566">
        <ele>1222.6</ele>
        <time>2018-11-26T17:22:58Z</time>
      </trkpt>
      <trkpt lat="42.15462" lon="2.3566">
        <ele>1222.5</ele>
        <time>2018-11-26T17:22:59Z</time>
      </trkpt>
      <trkpt lat="42.1546" lon="2.35661">
        <ele>1223.5</ele>
        <time>2018-11-26T17:23:00Z</time>
      </trkpt>
      <trkpt lat="42.15458" lon="2.35662">
        <ele>1224.1</ele>
        <time>2018-11-26T17:23:01Z</time>
      </trkpt>
      <trkpt lat="42.15456" lon="2.35663">
        <ele>1224.5</ele>
        <time>2018-11-26T17:23:01Z</time>
      </trkpt>
      <trkpt lat="42.15447" lon="2.35668">
        <ele>1225.6</ele>
        <time>2018-11-26T17:23:05Z</time>
      </trkpt>
      <trkpt lat="42.15438" lon="2.35667">
        <ele>1227.4</ele>
        <time>2018-11-26T17:23:09Z</time>
      </trkpt>
      <trkpt lat="42.15429" lon="2.3567">
        <ele>1229.4</ele>
        <time>2018-11-26T17:23:13Z</time>
      </trkpt>
      <trkpt lat="42.1542" lon="2.35677">
        <ele>1230.5</ele>
        <time>2018-11-26T17:23:17Z</time>
      </trkpt>
      <trkpt lat="42.15411" lon="2.35678">
        <ele>1230.8</ele>
        <time>2018-11-26T17:23:20Z</time>
      </trkpt>
      <trkpt lat="42.15409" lon="2.35678">
        <ele>1230.9</ele>
        <time>2018-11-26T17:23:21Z</time>
      </trkpt>
      <trkpt lat="42.15407" lon="2.35677">
        <ele>1230.4</ele>
        <time>2018-11-26T17:23:22Z</time>
      </trkpt>
      <trkpt lat="42.15406" lon="2.35677">
        <ele>1230.6</ele>
        <time>2018-11-26T17:23:23Z</time>
      </trkpt>
      <trkpt lat="42.15404" lon="2.35677">
        <ele>1230.5</ele>
        <time>2018-11-26T17:23:23Z</time>
      </trkpt>
      <trkpt lat="42.15397" lon="2.35678">
        <ele>1229.4</ele>
        <time>2018-11-26T17:23:26Z</time>
      </trkpt>
      <trkpt lat="42.15388" lon="2.35675">
        <ele>1228.8</ele>
        <time>2018-11-26T17:23:30Z</time>
      </trkpt>
      <trkpt lat="42.15379" lon="2.35674">
        <ele>1227.5</ele>
        <time>2018-11-26T17:23:33Z</time>
      </trkpt>
      <trkpt lat="42.1537" lon="2.3567">
        <ele>1222.5</ele>
        <time>2018-11-26T17:23:37Z</time>
      </trkpt>
      <trkpt lat="42.15363" lon="2.3566">
        <ele>1220.8</ele>
        <time>2018-11-26T17:23:41Z</time>
      </trkpt>
      <trkpt lat="42.15355" lon="2.35655">
        <ele>1219</ele>
        <time>2018-11-26T17:23:45Z</time>
      </trkpt>
      <trkpt lat="42.15346" lon="2.35649">
        <ele>1218.1</ele>
        <time>2018-11-26T17:23:49Z</time>
      </trkpt>
      <trkpt lat="42.1535" lon="2.35661">
        <ele>1220.1</ele>
        <time>2018-11-26T17:23:53Z</time>
      </trkpt>
      <trkpt lat="42.15351" lon="2.35673">
        <ele>1220.6</ele>
        <time>2018-11-26T17:23:56Z</time>
      </trkpt>
      <trkpt lat="42.1535" lon="2.35686">
        <ele>1223.5</ele>
        <time>2018-11-26T17:24:00Z</time>
      </trkpt>
      <trkpt lat="42.15348" lon="2.357">
        <ele>1223.6</ele>
        <time>2018-11-26T17:24:04Z</time>
      </trkpt>
      <trkpt lat="42.15347" lon="2.35714">
        <ele>1223.4</ele>
        <time>2018-11-26T17:24:08Z</time>
      </trkpt>
      <trkpt lat="42.15343" lon="2.35725">
        <ele>1222.8</ele>
        <time>2018-11-26T17:24:12Z</time>
      </trkpt>
      <trkpt lat="42.15334" lon="2.35731">
        <ele>1222.5</ele>
        <time>2018-11-26T17:24:16Z</time>
      </trkpt>
      <trkpt lat="42.15327" lon="2.35738">
        <ele>1222.6</ele>
        <time>2018-11-26T17:24:20Z</time>
      </trkpt>
      <trkpt lat="42.15317" lon="2.35741">
        <ele>1223.6</ele>
        <time>2018-11-26T17:24:24Z</time>
      </trkpt>
      <trkpt lat="42.15308" lon="2.35744">
        <ele>1226.5</ele>
        <time>2018-11-26T17:24:28Z</time>
      </trkpt>
      <trkpt lat="42.15299" lon="2.35753">
        <ele>1229.2</ele>
        <time>2018-11-26T17:24:32Z</time>
      </trkpt>
      <trkpt lat="42.1529" lon="2.35755">
        <ele>1230.9</ele>
        <time>2018-11-26T17:24:36Z</time>
      </trkpt>
      <trkpt lat="42.1528" lon="2.3576">
        <ele>1233.5</ele>
        <time>2018-11-26T17:24:40Z</time>
      </trkpt>
      <trkpt lat="42.1527" lon="2.35761">
        <ele>1234.1</ele>
        <time>2018-11-26T17:24:44Z</time>
      </trkpt>
      <trkpt lat="42.15261" lon="2.35765">
        <ele>1236.2</ele>
        <time>2018-11-26T17:24:48Z</time>
      </trkpt>
      <trkpt lat="42.15252" lon="2.35768">
        <ele>1237.5</ele>
        <time>2018-11-26T17:24:51Z</time>
      </trkpt>
      <trkpt lat="42.15243" lon="2.35774">
        <ele>1238.8</ele>
        <time>2018-11-26T17:24:55Z</time>
      </trkpt>
      <trkpt lat="42.15235" lon="2.3578">
        <ele>1240.4</ele>
        <time>2018-11-26T17:24:59Z</time>
      </trkpt>
      <trkpt lat="42.15226" lon="2.35779">
        <ele>1244.9</ele>
        <time>2018-11-26T17:25:03Z</time>
      </trkpt>
      <trkpt lat="42.15229" lon="2.35791">
        <ele>1254.1</ele>
        <time>2018-11-26T17:25:06Z</time>
      </trkpt>
      <trkpt lat="42.15225" lon="2.35803">
        <ele>1258.5</ele>
        <time>2018-11-26T17:25:10Z</time>
      </trkpt>
      <trkpt lat="42.15232" lon="2.35795">
        <ele>1260.5</ele>
        <time>2018-11-26T17:25:14Z</time>
      </trkpt>
      <trkpt lat="42.15242" lon="2.35796">
        <ele>1261</ele>
        <time>2018-11-26T17:25:18Z</time>
      </trkpt>
      <trkpt lat="42.15248" lon="2.35794">
        <ele>1262.1</ele>
        <time>2018-11-26T17:25:20Z</time>
      </trkpt>
      <trkpt lat="42.1525" lon="2.35794">
        <ele>1261.9</ele>
        <time>2018-11-26T17:25:21Z</time>
      </trkpt>
      <trkpt lat="42.15253" lon="2.35795">
        <ele>1261.9</ele>
        <time>2018-11-26T17:25:22Z</time>
      </trkpt>
      <trkpt lat="42.15255" lon="2.35796">
        <ele>1261.9</ele>
        <time>2018-11-26T17:25:23Z</time>
      </trkpt>
      <trkpt lat="42.15257" lon="2.35796">
        <ele>1262.2</ele>
        <time>2018-11-26T17:25:24Z</time>
      </trkpt>
      <trkpt lat="42.15259" lon="2.35797">
        <ele>1263.1</ele>
        <time>2018-11-26T17:25:25Z</time>
      </trkpt>
      <trkpt lat="42.15262" lon="2.35799">
        <ele>1264</ele>
        <time>2018-11-26T17:25:26Z</time>
      </trkpt>
      <trkpt lat="42.15264" lon="2.358">
        <ele>1264.1</ele>
        <time>2018-11-26T17:25:27Z</time>
      </trkpt>
      <trkpt lat="42.15268" lon="2.35802">
        <ele>1264.5</ele>
        <time>2018-11-26T17:25:28Z</time>
      </trkpt>
      <trkpt lat="42.1527" lon="2.35804">
        <ele>1265</ele>
        <time>2018-11-26T17:25:29Z</time>
      </trkpt>
      <trkpt lat="42.15271" lon="2.35807">
        <ele>1265</ele>
        <time>2018-11-26T17:25:31Z</time>
      </trkpt>
      <trkpt lat="42.15272" lon="2.3581">
        <ele>1265.5</ele>
        <time>2018-11-26T17:25:32Z</time>
      </trkpt>
      <trkpt lat="42.15273" lon="2.35812">
        <ele>1265.8</ele>
        <time>2018-11-26T17:25:32Z</time>
      </trkpt>
      <trkpt lat="42.15275" lon="2.35813">
        <ele>1265.8</ele>
        <time>2018-11-26T17:25:33Z</time>
      </trkpt>
      <trkpt lat="42.15277" lon="2.35814">
        <ele>1266.9</ele>
        <time>2018-11-26T17:25:34Z</time>
      </trkpt>
      <trkpt lat="42.15279" lon="2.35814">
        <ele>1267.1</ele>
        <time>2018-11-26T17:25:35Z</time>
      </trkpt>
      <trkpt lat="42.15282" lon="2.35814">
        <ele>1267.1</ele>
        <time>2018-11-26T17:25:36Z</time>
      </trkpt>
      <trkpt lat="42.15285" lon="2.35813">
        <ele>1267</ele>
        <time>2018-11-26T17:25:37Z</time>
      </trkpt>
      <trkpt lat="42.15287" lon="2.35813">
        <ele>1267</ele>
        <time>2018-11-26T17:25:38Z</time>
      </trkpt>
      <trkpt lat="42.15297" lon="2.35812">
        <ele>1266.9</ele>
        <time>2018-11-26T17:25:42Z</time>
      </trkpt>
      <trkpt lat="42.15307" lon="2.35813">
        <ele>1266.5</ele>
        <time>2018-11-26T17:25:46Z</time>
      </trkpt>
      <trkpt lat="42.15317" lon="2.35811">
        <ele>1265.4</ele>
        <time>2018-11-26T17:25:50Z</time>
      </trkpt>
      <trkpt lat="42.15328" lon="2.35807">
        <ele>1265</ele>
        <time>2018-11-26T17:25:55Z</time>
      </trkpt>
      <trkpt lat="42.15338" lon="2.35809">
        <ele>1264</ele>
        <time>2018-11-26T17:25:59Z</time>
      </trkpt>
      <trkpt lat="42.15349" lon="2.35811">
        <ele>1263.6</ele>
        <time>2018-11-26T17:26:03Z</time>
      </trkpt>
      <trkpt lat="42.15359" lon="2.35813">
        <ele>1263.8</ele>
        <time>2018-11-26T17:26:07Z</time>
      </trkpt>
      <trkpt lat="42.1537" lon="2.35815">
        <ele>1263.1</ele>
        <time>2018-11-26T17:26:12Z</time>
      </trkpt>
      <trkpt lat="42.15379" lon="2.35816">
        <ele>1263.4</ele>
        <time>2018-11-26T17:26:15Z</time>
      </trkpt>
      <trkpt lat="42.15389" lon="2.35816">
        <ele>1263.4</ele>
        <time>2018-11-26T17:26:19Z</time>
      </trkpt>
      <trkpt lat="42.15398" lon="2.35818">
        <ele>1263</ele>
        <time>2018-11-26T17:26:23Z</time>
      </trkpt>
      <trkpt lat="42.15407" lon="2.35825">
        <ele>1262.8</ele>
        <time>2018-11-26T17:26:27Z</time>
      </trkpt>
      <trkpt lat="42.15417" lon="2.35831">
        <ele>1262.5</ele>
        <time>2018-11-26T17:26:31Z</time>
      </trkpt>
      <trkpt lat="42.15427" lon="2.35835">
        <ele>1261.8</ele>
        <time>2018-11-26T17:26:36Z</time>
      </trkpt>
      <trkpt lat="42.15436" lon="2.35843">
        <ele>1261.2</ele>
        <time>2018-11-26T17:26:40Z</time>
      </trkpt>
      <trkpt lat="42.15442" lon="2.35852">
        <ele>1260.6</ele>
        <time>2018-11-26T17:26:44Z</time>
      </trkpt>
      <trkpt lat="42.15448" lon="2.35863">
        <ele>1261.2</ele>
        <time>2018-11-26T17:26:48Z</time>
      </trkpt>
      <trkpt lat="42.15443" lon="2.35874">
        <ele>1263.1</ele>
        <time>2018-11-26T17:26:51Z</time>
      </trkpt>
      <trkpt lat="42.15434" lon="2.35879">
        <ele>1265.5</ele>
        <time>2018-11-26T17:26:55Z</time>
      </trkpt>
      <trkpt lat="42.15425" lon="2.35884">
        <ele>1267.9</ele>
        <time>2018-11-26T17:26:59Z</time>
      </trkpt>
      <trkpt lat="42.15415" lon="2.35883">
        <ele>1271</ele>
        <time>2018-11-26T17:27:03Z</time>
      </trkpt>
      <trkpt lat="42.15406" lon="2.35884">
        <ele>1273.1</ele>
        <time>2018-11-26T17:27:07Z</time>
      </trkpt>
      <trkpt lat="42.15397" lon="2.35887">
        <ele>1277</ele>
        <time>2018-11-26T17:27:10Z</time>
      </trkpt>
      <trkpt lat="42.15388" lon="2.35887">
        <ele>1279.5</ele>
        <time>2018-11-26T17:27:14Z</time>
      </trkpt>
      <trkpt lat="42.15378" lon="2.3589">
        <ele>1283.4</ele>
        <time>2018-11-26T17:27:18Z</time>
      </trkpt>
      <trkpt lat="42.15368" lon="2.35893">
        <ele>1285.5</ele>
        <time>2018-11-26T17:27:22Z</time>
      </trkpt>
      <trkpt lat="42.15364" lon="2.35892">
        <ele>1286.6</ele>
        <time>2018-11-26T17:27:24Z</time>
      </trkpt>
      <trkpt lat="42.15355" lon="2.35888">
        <ele>1287.5</ele>
        <time>2018-11-26T17:27:27Z</time>
      </trkpt>
      <trkpt lat="42.15353" lon="2.35886">
        <ele>1288.4</ele>
        <time>2018-11-26T17:27:29Z</time>
      </trkpt>
      <trkpt lat="42.15351" lon="2.35899">
        <ele>1290.9</ele>
        <time>2018-11-26T17:27:32Z</time>
      </trkpt>
      <trkpt lat="42.1535" lon="2.35904">
        <ele>1291.9</ele>
        <time>2018-11-26T17:27:34Z</time>
      </trkpt>
      <trkpt lat="42.15348" lon="2.35916">
        <ele>1290.5</ele>
        <time>2018-11-26T17:27:38Z</time>
      </trkpt>
      <trkpt lat="42.15358" lon="2.35917">
        <ele>1290.5</ele>
        <time>2018-11-26T17:27:41Z</time>
      </trkpt>
      <trkpt lat="42.15363" lon="2.35928">
        <ele>1291.1</ele>
        <time>2018-11-26T17:27:45Z</time>
      </trkpt>
      <trkpt lat="42.15362" lon="2.35941">
        <ele>1289.8</ele>
        <time>2018-11-26T17:27:49Z</time>
      </trkpt>
      <trkpt lat="42.1536" lon="2.35953">
        <ele>1285.8</ele>
        <time>2018-11-26T17:27:53Z</time>
      </trkpt>
      <trkpt lat="42.15362" lon="2.35966">
        <ele>1286.6</ele>
        <time>2018-11-26T17:27:56Z</time>
      </trkpt>
      <trkpt lat="42.15364" lon="2.35979">
        <ele>1286.5</ele>
        <time>2018-11-26T17:28:01Z</time>
      </trkpt>
      <trkpt lat="42.15371" lon="2.35986">
        <ele>1287.6</ele>
        <time>2018-11-26T17:28:04Z</time>
      </trkpt>
      <trkpt lat="42.15379" lon="2.35993">
        <ele>1289.9</ele>
        <time>2018-11-26T17:28:08Z</time>
      </trkpt>
      <trkpt lat="42.15388" lon="2.35993">
        <ele>1293.5</ele>
        <time>2018-11-26T17:28:12Z</time>
      </trkpt>
      <trkpt lat="42.15387" lon="2.36006">
        <ele>1290.8</ele>
        <time>2018-11-26T17:28:16Z</time>
      </trkpt>
      <trkpt lat="42.15391" lon="2.36017">
        <ele>1288.5</ele>
        <time>2018-11-26T17:28:19Z</time>
      </trkpt>
      <trkpt lat="42.154" lon="2.36021">
        <ele>1290.5</ele>
        <time>2018-11-26T17:28:23Z</time>
      </trkpt>
      <trkpt lat="42.15409" lon="2.36024">
        <ele>1291.8</ele>
        <time>2018-11-26T17:28:27Z</time>
      </trkpt>
      <trkpt lat="42.15404" lon="2.36034">
        <ele>1291.4</ele>
        <time>2018-11-26T17:28:31Z</time>
      </trkpt>
      <trkpt lat="42.15392" lon="2.36041">
        <ele>1289.8</ele>
        <time>2018-11-26T17:28:36Z</time>
      </trkpt>
      <trkpt lat="42.15382" lon="2.36047">
        <ele>1290.1</ele>
        <time>2018-11-26T17:28:40Z</time>
      </trkpt>
      <trkpt lat="42.15393" lon="2.36053">
        <ele>1290.2</ele>
        <time>2018-11-26T17:28:45Z</time>
      </trkpt>
      <trkpt lat="42.15402" lon="2.36057">
        <ele>1290.1</ele>
        <time>2018-11-26T17:28:49Z</time>
      </trkpt>
      <trkpt lat="42.15411" lon="2.3606">
        <ele>1291.4</ele>
        <time>2018-11-26T17:28:53Z</time>
      </trkpt>
      <trkpt lat="42.15421" lon="2.36062">
        <ele>1290.6</ele>
        <time>2018-11-26T17:28:56Z</time>
      </trkpt>
      <trkpt lat="42.15431" lon="2.36069">
        <ele>1291.5</ele>
        <time>2018-11-26T17:29:01Z</time>
      </trkpt>
      <trkpt lat="42.15434" lon="2.36081">
        <ele>1291.1</ele>
        <time>2018-11-26T17:29:05Z</time>
      </trkpt>
      <trkpt lat="42.15425" lon="2.36086">
        <ele>1291.2</ele>
        <time>2018-11-26T17:29:09Z</time>
      </trkpt>
      <trkpt lat="42.15416" lon="2.36086">
        <ele>1291.1</ele>
        <time>2018-11-26T17:29:12Z</time>
      </trkpt>
      <trkpt lat="42.15409" lon="2.36099">
        <ele>1291.2</ele>
        <time>2018-11-26T17:29:17Z</time>
      </trkpt>
      <trkpt lat="42.15409" lon="2.36112">
        <ele>1291.1</ele>
        <time>2018-11-26T17:29:21Z</time>
      </trkpt>
      <trkpt lat="42.15418" lon="2.36117">
        <ele>1291.1</ele>
        <time>2018-11-26T17:29:25Z</time>
      </trkpt>
      <trkpt lat="42.15424" lon="2.36126">
        <ele>1295.1</ele>
        <time>2018-11-26T17:29:29Z</time>
      </trkpt>
      <trkpt lat="42.15423" lon="2.36129">
        <ele>1294.6</ele>
        <time>2018-11-26T17:29:30Z</time>
      </trkpt>
      <trkpt lat="42.15414" lon="2.36128">
        <ele>1297.6</ele>
        <time>2018-11-26T17:29:34Z</time>
      </trkpt>
      <trkpt lat="42.15406" lon="2.3612">
        <ele>1299</ele>
        <time>2018-11-26T17:29:37Z</time>
      </trkpt>
      <trkpt lat="42.154" lon="2.36111">
        <ele>1299</ele>
        <time>2018-11-26T17:29:41Z</time>
      </trkpt>
      <trkpt lat="42.1539" lon="2.36112">
        <ele>1300.6</ele>
        <time>2018-11-26T17:29:45Z</time>
      </trkpt>
      <trkpt lat="42.15381" lon="2.3611">
        <ele>1302.2</ele>
        <time>2018-11-26T17:29:49Z</time>
      </trkpt>
      <trkpt lat="42.15371" lon="2.36107">
        <ele>1305.2</ele>
        <time>2018-11-26T17:29:53Z</time>
      </trkpt>
      <trkpt lat="42.15363" lon="2.36113">
        <ele>1306</ele>
        <time>2018-11-26T17:29:56Z</time>
      </trkpt>
      <trkpt lat="42.15359" lon="2.36127">
        <ele>1305.6</ele>
        <time>2018-11-26T17:30:01Z</time>
      </trkpt>
      <trkpt lat="42.15366" lon="2.36136">
        <ele>1305.9</ele>
        <time>2018-11-26T17:30:04Z</time>
      </trkpt>
      <trkpt lat="42.15342" lon="2.36143">
        <ele>1312</ele>
        <time>2018-11-26T17:30:14Z</time>
      </trkpt>
      <trkpt lat="42.15351" lon="2.36156">
        <ele>1314</ele>
        <time>2018-11-26T17:30:19Z</time>
      </trkpt>
      <trkpt lat="42.15342" lon="2.36149">
        <ele>1313.2</ele>
        <time>2018-11-26T17:30:23Z</time>
      </trkpt>
      <trkpt lat="42.15346" lon="2.36139">
        <ele>1313.6</ele>
        <time>2018-11-26T17:30:27Z</time>
      </trkpt>
      <trkpt lat="42.15355" lon="2.36142">
        <ele>1314.2</ele>
        <time>2018-11-26T17:30:30Z</time>
      </trkpt>
      <trkpt lat="42.15363" lon="2.36148">
        <ele>1315.9</ele>
        <time>2018-11-26T17:30:34Z</time>
      </trkpt>
      <trkpt lat="42.15367" lon="2.3616">
        <ele>1317.5</ele>
        <time>2018-11-26T17:30:38Z</time>
      </trkpt>
      <trkpt lat="42.15367" lon="2.36163">
        <ele>1319.5</ele>
        <time>2018-11-26T17:30:39Z</time>
      </trkpt>
      <trkpt lat="42.15369" lon="2.36164">
        <ele>1318.9</ele>
        <time>2018-11-26T17:30:40Z</time>
      </trkpt>
      <trkpt lat="42.1536" lon="2.36159">
        <ele>1318.1</ele>
        <time>2018-11-26T17:30:44Z</time>
      </trkpt>
      <trkpt lat="42.15352" lon="2.36164">
        <ele>1321.6</ele>
        <time>2018-11-26T17:30:47Z</time>
      </trkpt>
      <trkpt lat="42.15347" lon="2.36175">
        <ele>1323.9</ele>
        <time>2018-11-26T17:30:51Z</time>
      </trkpt>
      <trkpt lat="42.15344" lon="2.36187">
        <ele>1325.1</ele>
        <time>2018-11-26T17:30:55Z</time>
      </trkpt>
      <trkpt lat="42.15338" lon="2.36197">
        <ele>1326.8</ele>
        <time>2018-11-26T17:30:59Z</time>
      </trkpt>
      <trkpt lat="42.15332" lon="2.36205">
        <ele>1325.4</ele>
        <time>2018-11-26T17:31:02Z</time>
      </trkpt>
      <trkpt lat="42.15332" lon="2.36209">
        <ele>1324</ele>
        <time>2018-11-26T17:31:03Z</time>
      </trkpt>
      <trkpt lat="42.15333" lon="2.36212">
        <ele>1322.7</ele>
        <time>2018-11-26T17:31:04Z</time>
      </trkpt>
      <trkpt lat="42.15333" lon="2.36215">
        <ele>1321.2</ele>
        <time>2018-11-26T17:31:05Z</time>
      </trkpt>
      <trkpt lat="42.15339" lon="2.36224">
        <ele>1318.1</ele>
        <time>2018-11-26T17:31:09Z</time>
      </trkpt>
      <trkpt lat="42.15346" lon="2.36233">
        <ele>1317.1</ele>
        <time>2018-11-26T17:31:12Z</time>
      </trkpt>
      <trkpt lat="42.15348" lon="2.36245">
        <ele>1317.2</ele>
        <time>2018-11-26T17:31:16Z</time>
      </trkpt>
      <trkpt lat="42.15351" lon="2.36257">
        <ele>1317</ele>
        <time>2018-11-26T17:31:20Z</time>
      </trkpt>
      <trkpt lat="42.15353" lon="2.36268">
        <ele>1316.9</ele>
        <time>2018-11-26T17:31:23Z</time>
      </trkpt>
      <trkpt lat="42.15354" lon="2.36281">
        <ele>1316.5</ele>
        <time>2018-11-26T17:31:27Z</time>
      </trkpt>
      <trkpt lat="42.15356" lon="2.36294">
        <ele>1317.8</ele>
        <time>2018-11-26T17:31:31Z</time>
      </trkpt>
      <trkpt lat="42.15359" lon="2.36306">
        <ele>1319.1</ele>
        <time>2018-11-26T17:31:35Z</time>
      </trkpt>
      <trkpt lat="42.15358" lon="2.36319">
        <ele>1319.1</ele>
        <time>2018-11-26T17:31:39Z</time>
      </trkpt>
      <trkpt lat="42.15357" lon="2.36324">
        <ele>1318.6</ele>
        <time>2018-11-26T17:31:40Z</time>
      </trkpt>
      <trkpt lat="42.15366" lon="2.36325">
        <ele>1317.5</ele>
        <time>2018-11-26T17:31:44Z</time>
      </trkpt>
      <trkpt lat="42.15356" lon="2.36327">
        <ele>1316.6</ele>
        <time>2018-11-26T17:31:48Z</time>
      </trkpt>
      <trkpt lat="42.15352" lon="2.3634">
        <ele>1317</ele>
        <time>2018-11-26T17:31:52Z</time>
      </trkpt>
      <trkpt lat="42.15352" lon="2.36354">
        <ele>1317.9</ele>
        <time>2018-11-26T17:31:56Z</time>
      </trkpt>
      <trkpt lat="42.1535" lon="2.36366">
        <ele>1319.6</ele>
        <time>2018-11-26T17:32:00Z</time>
      </trkpt>
      <trkpt lat="42.15339" lon="2.36366">
        <ele>1322.1</ele>
        <time>2018-11-26T17:32:04Z</time>
      </trkpt>
      <trkpt lat="42.15331" lon="2.36358">
        <ele>1324.4</ele>
        <time>2018-11-26T17:32:08Z</time>
      </trkpt>
      <trkpt lat="42.15323" lon="2.36353">
        <ele>1328.4</ele>
        <time>2018-11-26T17:32:12Z</time>
      </trkpt>
      <trkpt lat="42.15321" lon="2.36354">
        <ele>1329.4</ele>
        <time>2018-11-26T17:32:13Z</time>
      </trkpt>
      <trkpt lat="42.15319" lon="2.36354">
        <ele>1330.4</ele>
        <time>2018-11-26T17:32:14Z</time>
      </trkpt>
      <trkpt lat="42.15317" lon="2.36354">
        <ele>1331.5</ele>
        <time>2018-11-26T17:32:14Z</time>
      </trkpt>
      <trkpt lat="42.15315" lon="2.36352">
        <ele>1331.4</ele>
        <time>2018-11-26T17:32:15Z</time>
      </trkpt>
      <trkpt lat="42.15313" lon="2.36351">
        <ele>1331.9</ele>
        <time>2018-11-26T17:32:16Z</time>
      </trkpt>
      <trkpt lat="42.15311" lon="2.36349">
        <ele>1332.9</ele>
        <time>2018-11-26T17:32:17Z</time>
      </trkpt>
      <trkpt lat="42.15309" lon="2.36348">
        <ele>1332.8</ele>
        <time>2018-11-26T17:32:18Z</time>
      </trkpt>
      <trkpt lat="42.15307" lon="2.36347">
        <ele>1333.8</ele>
        <time>2018-11-26T17:32:19Z</time>
      </trkpt>
      <trkpt lat="42.15305" lon="2.36347">
        <ele>1333.9</ele>
        <time>2018-11-26T17:32:20Z</time>
      </trkpt>
      <trkpt lat="42.15302" lon="2.36346">
        <ele>1334.5</ele>
        <time>2018-11-26T17:32:21Z</time>
      </trkpt>
      <trkpt lat="42.15301" lon="2.36345">
        <ele>1334.9</ele>
        <time>2018-11-26T17:32:21Z</time>
      </trkpt>
      <trkpt lat="42.15299" lon="2.36345">
        <ele>1334.8</ele>
        <time>2018-11-26T17:32:22Z</time>
      </trkpt>
      <trkpt lat="42.15296" lon="2.36345">
        <ele>1335.5</ele>
        <time>2018-11-26T17:32:23Z</time>
      </trkpt>
      <trkpt lat="42.15294" lon="2.36346">
        <ele>1336.1</ele>
        <time>2018-11-26T17:32:24Z</time>
      </trkpt>
      <trkpt lat="42.15291" lon="2.36346">
        <ele>1336.6</ele>
        <time>2018-11-26T17:32:25Z</time>
      </trkpt>
      <trkpt lat="42.15289" lon="2.36347">
        <ele>1337.1</ele>
        <time>2018-11-26T17:32:26Z</time>
      </trkpt>
      <trkpt lat="42.15287" lon="2.36348">
        <ele>1337.4</ele>
        <time>2018-11-26T17:32:27Z</time>
      </trkpt>
      <trkpt lat="42.15286" lon="2.3635">
        <ele>1337.6</ele>
        <time>2018-11-26T17:32:28Z</time>
      </trkpt>
      <trkpt lat="42.15284" lon="2.36351">
        <ele>1338.5</ele>
        <time>2018-11-26T17:32:29Z</time>
      </trkpt>
      <trkpt lat="42.15282" lon="2.36352">
        <ele>1339.1</ele>
        <time>2018-11-26T17:32:30Z</time>
      </trkpt>
      <trkpt lat="42.15279" lon="2.36352">
        <ele>1339.5</ele>
        <time>2018-11-26T17:32:31Z</time>
      </trkpt>
      <trkpt lat="42.15277" lon="2.36353">
        <ele>1340.6</ele>
        <time>2018-11-26T17:32:31Z</time>
      </trkpt>
      <trkpt lat="42.15275" lon="2.36354">
        <ele>1340.9</ele>
        <time>2018-11-26T17:32:32Z</time>
      </trkpt>
      <trkpt lat="42.15273" lon="2.36355">
        <ele>1342</ele>
        <time>2018-11-26T17:32:33Z</time>
      </trkpt>
      <trkpt lat="42.1527" lon="2.36355">
        <ele>1342.4</ele>
        <time>2018-11-26T17:32:34Z</time>
      </trkpt>
      <trkpt lat="42.15268" lon="2.36355">
        <ele>1342.4</ele>
        <time>2018-11-26T17:32:35Z</time>
      </trkpt>
      <trkpt lat="42.15266" lon="2.36355">
        <ele>1342.2</ele>
        <time>2018-11-26T17:32:36Z</time>
      </trkpt>
      <trkpt lat="42.15265" lon="2.36354">
        <ele>1343.1</ele>
        <time>2018-11-26T17:32:37Z</time>
      </trkpt>
      <trkpt lat="42.15263" lon="2.36354">
        <ele>1343.9</ele>
        <time>2018-11-26T17:32:37Z</time>
      </trkpt>
      <trkpt lat="42.15261" lon="2.36355">
        <ele>1344.2</ele>
        <time>2018-11-26T17:32:38Z</time>
      </trkpt>
      <trkpt lat="42.15259" lon="2.36356">
        <ele>1345</ele>
        <time>2018-11-26T17:32:39Z</time>
      </trkpt>
      <trkpt lat="42.15257" lon="2.36356">
        <ele>1345.2</ele>
        <time>2018-11-26T17:32:40Z</time>
      </trkpt>
      <trkpt lat="42.15255" lon="2.36356">
        <ele>1345.4</ele>
        <time>2018-11-26T17:32:41Z</time>
      </trkpt>
      <trkpt lat="42.15253" lon="2.36356">
        <ele>1345.4</ele>
        <time>2018-11-26T17:32:41Z</time>
      </trkpt>
      <trkpt lat="42.15251" lon="2.36356">
        <ele>1345.9</ele>
        <time>2018-11-26T17:32:42Z</time>
      </trkpt>
      <trkpt lat="42.15248" lon="2.36357">
        <ele>1346.9</ele>
        <time>2018-11-26T17:32:43Z</time>
      </trkpt>
      <trkpt lat="42.15246" lon="2.36358">
        <ele>1347.4</ele>
        <time>2018-11-26T17:32:44Z</time>
      </trkpt>
      <trkpt lat="42.15244" lon="2.36358">
        <ele>1347.5</ele>
        <time>2018-11-26T17:32:45Z</time>
      </trkpt>
      <trkpt lat="42.15242" lon="2.36358">
        <ele>1348.1</ele>
        <time>2018-11-26T17:32:46Z</time>
      </trkpt>
      <trkpt lat="42.15239" lon="2.36358">
        <ele>1348.9</ele>
        <time>2018-11-26T17:32:47Z</time>
      </trkpt>
      <trkpt lat="42.15237" lon="2.36359">
        <ele>1349</ele>
        <time>2018-11-26T17:32:48Z</time>
      </trkpt>
      <trkpt lat="42.15235" lon="2.3636">
        <ele>1349</ele>
        <time>2018-11-26T17:32:49Z</time>
      </trkpt>
      <trkpt lat="42.15233" lon="2.3636">
        <ele>1348.8</ele>
        <time>2018-11-26T17:32:49Z</time>
      </trkpt>
      <trkpt lat="42.15231" lon="2.3636">
        <ele>1349.4</ele>
        <time>2018-11-26T17:32:50Z</time>
      </trkpt>
      <trkpt lat="42.15229" lon="2.36361">
        <ele>1350.9</ele>
        <time>2018-11-26T17:32:51Z</time>
      </trkpt>
      <trkpt lat="42.15227" lon="2.36361">
        <ele>1351.1</ele>
        <time>2018-11-26T17:32:52Z</time>
      </trkpt>
      <trkpt lat="42.15225" lon="2.36361">
        <ele>1350.9</ele>
        <time>2018-11-26T17:32:53Z</time>
      </trkpt>
      <trkpt lat="42.15222" lon="2.36361">
        <ele>1351.4</ele>
        <time>2018-11-26T17:32:54Z</time>
      </trkpt>
      <trkpt lat="42.15219" lon="2.36361">
        <ele>1351.4</ele>
        <time>2018-11-26T17:32:55Z</time>
      </trkpt>
      <trkpt lat="42.15217" lon="2.36361">
        <ele>1351.8</ele>
        <time>2018-11-26T17:32:56Z</time>
      </trkpt>
      <trkpt lat="42.15214" lon="2.36361">
        <ele>1352</ele>
        <time>2018-11-26T17:32:57Z</time>
      </trkpt>
      <trkpt lat="42.15211" lon="2.36362">
        <ele>1352.1</ele>
        <time>2018-11-26T17:32:58Z</time>
      </trkpt>
      <trkpt lat="42.15208" lon="2.36362">
        <ele>1352.5</ele>
        <time>2018-11-26T17:32:59Z</time>
      </trkpt>
      <trkpt lat="42.15205" lon="2.36361">
        <ele>1353</ele>
        <time>2018-11-26T17:33:01Z</time>
      </trkpt>
      <trkpt lat="42.15203" lon="2.36361">
        <ele>1353.2</ele>
        <time>2018-11-26T17:33:02Z</time>
      </trkpt>
      <trkpt lat="42.15201" lon="2.36361">
        <ele>1353.6</ele>
        <time>2018-11-26T17:33:02Z</time>
      </trkpt>
      <trkpt lat="42.15199" lon="2.36361">
        <ele>1353.8</ele>
        <time>2018-11-26T17:33:03Z</time>
      </trkpt>
      <trkpt lat="42.15197" lon="2.36361">
        <ele>1353.9</ele>
        <time>2018-11-26T17:33:04Z</time>
      </trkpt>
      <trkpt lat="42.15195" lon="2.3636">
        <ele>1354.5</ele>
        <time>2018-11-26T17:33:05Z</time>
      </trkpt>
      <trkpt lat="42.15193" lon="2.36359">
        <ele>1355.1</ele>
        <time>2018-11-26T17:33:06Z</time>
      </trkpt>
      <trkpt lat="42.15191" lon="2.36359">
        <ele>1355</ele>
        <time>2018-11-26T17:33:06Z</time>
      </trkpt>
      <trkpt lat="42.15189" lon="2.36359">
        <ele>1356</ele>
        <time>2018-11-26T17:33:07Z</time>
      </trkpt>
      <trkpt lat="42.15187" lon="2.36359">
        <ele>1356.1</ele>
        <time>2018-11-26T17:33:08Z</time>
      </trkpt>
      <trkpt lat="42.15185" lon="2.36359">
        <ele>1356.4</ele>
        <time>2018-11-26T17:33:09Z</time>
      </trkpt>
      <trkpt lat="42.15182" lon="2.36359">
        <ele>1356.4</ele>
        <time>2018-11-26T17:33:10Z</time>
      </trkpt>
      <trkpt lat="42.1518" lon="2.3636">
        <ele>1356.8</ele>
        <time>2018-11-26T17:33:11Z</time>
      </trkpt>
      <trkpt lat="42.15178" lon="2.36359">
        <ele>1357</ele>
        <time>2018-11-26T17:33:12Z</time>
      </trkpt>
      <trkpt lat="42.15176" lon="2.36358">
        <ele>1357.5</ele>
        <time>2018-11-26T17:33:13Z</time>
      </trkpt>
      <trkpt lat="42.15174" lon="2.36358">
        <ele>1358.1</ele>
        <time>2018-11-26T17:33:13Z</time>
      </trkpt>
      <trkpt lat="42.15172" lon="2.36358">
        <ele>1359.2</ele>
        <time>2018-11-26T17:33:14Z</time>
      </trkpt>
      <trkpt lat="42.15169" lon="2.36358">
        <ele>1359.1</ele>
        <time>2018-11-26T17:33:15Z</time>
      </trkpt>
      <trkpt lat="42.15166" lon="2.36357">
        <ele>1359.2</ele>
        <time>2018-11-26T17:33:16Z</time>
      </trkpt>
      <trkpt lat="42.15164" lon="2.36356">
        <ele>1359.1</ele>
        <time>2018-11-26T17:33:17Z</time>
      </trkpt>
      <trkpt lat="42.15162" lon="2.36355">
        <ele>1358.8</ele>
        <time>2018-11-26T17:33:18Z</time>
      </trkpt>
      <trkpt lat="42.1516" lon="2.36355">
        <ele>1358.9</ele>
        <time>2018-11-26T17:33:19Z</time>
      </trkpt>
      <trkpt lat="42.15158" lon="2.36354">
        <ele>1359.1</ele>
        <time>2018-11-26T17:33:20Z</time>
      </trkpt>
      <trkpt lat="42.15156" lon="2.36353">
        <ele>1359.4</ele>
        <time>2018-11-26T17:33:21Z</time>
      </trkpt>
      <trkpt lat="42.15153" lon="2.36353">
        <ele>1359.9</ele>
        <time>2018-11-26T17:33:22Z</time>
      </trkpt>
      <trkpt lat="42.15152" lon="2.36353">
        <ele>1360.2</ele>
        <time>2018-11-26T17:33:23Z</time>
      </trkpt>
      <trkpt lat="42.15149" lon="2.36352">
        <ele>1360.2</ele>
        <time>2018-11-26T17:33:24Z</time>
      </trkpt>
      <trkpt lat="42.15147" lon="2.3635">
        <ele>1361.1</ele>
        <time>2018-11-26T17:33:25Z</time>
      </trkpt>
      <trkpt lat="42.15145" lon="2.36348">
        <ele>1361</ele>
        <time>2018-11-26T17:33:26Z</time>
      </trkpt>
      <trkpt lat="42.15143" lon="2.36348">
        <ele>1361.5</ele>
        <time>2018-11-26T17:33:26Z</time>
      </trkpt>
      <trkpt lat="42.15141" lon="2.36347">
        <ele>1362.8</ele>
        <time>2018-11-26T17:33:27Z</time>
      </trkpt>
      <trkpt lat="42.15139" lon="2.36347">
        <ele>1363</ele>
        <time>2018-11-26T17:33:28Z</time>
      </trkpt>
      <trkpt lat="42.15137" lon="2.36346">
        <ele>1363.1</ele>
        <time>2018-11-26T17:33:29Z</time>
      </trkpt>
      <trkpt lat="42.15135" lon="2.36344">
        <ele>1363.6</ele>
        <time>2018-11-26T17:33:30Z</time>
      </trkpt>
      <trkpt lat="42.15134" lon="2.36343">
        <ele>1363.9</ele>
        <time>2018-11-26T17:33:30Z</time>
      </trkpt>
      <trkpt lat="42.15132" lon="2.36341">
        <ele>1364.5</ele>
        <time>2018-11-26T17:33:31Z</time>
      </trkpt>
      <trkpt lat="42.1513" lon="2.36339">
        <ele>1365.1</ele>
        <time>2018-11-26T17:33:32Z</time>
      </trkpt>
      <trkpt lat="42.15128" lon="2.36338">
        <ele>1365.5</ele>
        <time>2018-11-26T17:33:33Z</time>
      </trkpt>
      <trkpt lat="42.15126" lon="2.36338">
        <ele>1366.1</ele>
        <time>2018-11-26T17:33:34Z</time>
      </trkpt>
      <trkpt lat="42.15124" lon="2.36336">
        <ele>1367</ele>
        <time>2018-11-26T17:33:35Z</time>
      </trkpt>
      <trkpt lat="42.15122" lon="2.36334">
        <ele>1367.2</ele>
        <time>2018-11-26T17:33:36Z</time>
      </trkpt>
      <trkpt lat="42.1512" lon="2.36334">
        <ele>1367.5</ele>
        <time>2018-11-26T17:33:37Z</time>
      </trkpt>
      <trkpt lat="42.15118" lon="2.36334">
        <ele>1368</ele>
        <time>2018-11-26T17:33:38Z</time>
      </trkpt>
      <trkpt lat="42.15116" lon="2.36333">
        <ele>1368.5</ele>
        <time>2018-11-26T17:33:38Z</time>
      </trkpt>
      <trkpt lat="42.15114" lon="2.36332">
        <ele>1368.8</ele>
        <time>2018-11-26T17:33:39Z</time>
      </trkpt>
      <trkpt lat="42.15111" lon="2.36332">
        <ele>1369.2</ele>
        <time>2018-11-26T17:33:40Z</time>
      </trkpt>
      <trkpt lat="42.15108" lon="2.36332">
        <ele>1369.1</ele>
        <time>2018-11-26T17:33:41Z</time>
      </trkpt>
      <trkpt lat="42.15106" lon="2.36332">
        <ele>1369.6</ele>
        <time>2018-11-26T17:33:42Z</time>
      </trkpt>
      <trkpt lat="42.15104" lon="2.36331">
        <ele>1369.6</ele>
        <time>2018-11-26T17:33:43Z</time>
      </trkpt>
      <trkpt lat="42.15101" lon="2.36331">
        <ele>1370</ele>
        <time>2018-11-26T17:33:44Z</time>
      </trkpt>
      <trkpt lat="42.15099" lon="2.36331">
        <ele>1369.9</ele>
        <time>2018-11-26T17:33:45Z</time>
      </trkpt>
      <trkpt lat="42.15097" lon="2.36332">
        <ele>1369.6</ele>
        <time>2018-11-26T17:33:46Z</time>
      </trkpt>
      <trkpt lat="42.15094" lon="2.36333">
        <ele>1369.5</ele>
        <time>2018-11-26T17:33:47Z</time>
      </trkpt>
      <trkpt lat="42.15092" lon="2.36333">
        <ele>1369.2</ele>
        <time>2018-11-26T17:33:48Z</time>
      </trkpt>
      <trkpt lat="42.1509" lon="2.36334">
        <ele>1369.5</ele>
        <time>2018-11-26T17:33:49Z</time>
      </trkpt>
      <trkpt lat="42.15088" lon="2.36335">
        <ele>1369.5</ele>
        <time>2018-11-26T17:33:50Z</time>
      </trkpt>
      <trkpt lat="42.15086" lon="2.36336">
        <ele>1369.5</ele>
        <time>2018-11-26T17:33:51Z</time>
      </trkpt>
      <trkpt lat="42.15084" lon="2.36337">
        <ele>1370.2</ele>
        <time>2018-11-26T17:33:52Z</time>
      </trkpt>
      <trkpt lat="42.15082" lon="2.36338">
        <ele>1370.5</ele>
        <time>2018-11-26T17:33:52Z</time>
      </trkpt>
      <trkpt lat="42.1508" lon="2.3634">
        <ele>1370.8</ele>
        <time>2018-11-26T17:33:53Z</time>
      </trkpt>
      <trkpt lat="42.15079" lon="2.36344">
        <ele>1372.1</ele>
        <time>2018-11-26T17:33:54Z</time>
      </trkpt>
      <trkpt lat="42.15078" lon="2.36346">
        <ele>1372.2</ele>
        <time>2018-11-26T17:33:55Z</time>
      </trkpt>
      <trkpt lat="42.15077" lon="2.36349">
        <ele>1372.6</ele>
        <time>2018-11-26T17:33:56Z</time>
      </trkpt>
      <trkpt lat="42.15077" lon="2.36352">
        <ele>1374</ele>
        <time>2018-11-26T17:33:57Z</time>
      </trkpt>
      <trkpt lat="42.15076" lon="2.36354">
        <ele>1374.1</ele>
        <time>2018-11-26T17:33:58Z</time>
      </trkpt>
      <trkpt lat="42.15075" lon="2.36356">
        <ele>1374.4</ele>
        <time>2018-11-26T17:33:59Z</time>
      </trkpt>
      <trkpt lat="42.15074" lon="2.36358">
        <ele>1375.4</ele>
        <time>2018-11-26T17:33:59Z</time>
      </trkpt>
      <trkpt lat="42.15074" lon="2.36362">
        <ele>1375.4</ele>
        <time>2018-11-26T17:34:00Z</time>
      </trkpt>
      <trkpt lat="42.15073" lon="2.36365">
        <ele>1375.4</ele>
        <time>2018-11-26T17:34:01Z</time>
      </trkpt>
      <trkpt lat="42.15072" lon="2.36368">
        <ele>1375.6</ele>
        <time>2018-11-26T17:34:02Z</time>
      </trkpt>
      <trkpt lat="42.1507" lon="2.36371">
        <ele>1376.5</ele>
        <time>2018-11-26T17:34:03Z</time>
      </trkpt>
      <trkpt lat="42.15068" lon="2.36373">
        <ele>1376.6</ele>
        <time>2018-11-26T17:34:04Z</time>
      </trkpt>
      <trkpt lat="42.15067" lon="2.36377">
        <ele>1376.5</ele>
        <time>2018-11-26T17:34:06Z</time>
      </trkpt>
      <trkpt lat="42.15065" lon="2.36379">
        <ele>1376.9</ele>
        <time>2018-11-26T17:34:06Z</time>
      </trkpt>
      <trkpt lat="42.1506" lon="2.3639">
        <ele>1378.1</ele>
        <time>2018-11-26T17:34:10Z</time>
      </trkpt>
      <trkpt lat="42.15058" lon="2.36402">
        <ele>1380.9</ele>
        <time>2018-11-26T17:34:14Z</time>
      </trkpt>
      <trkpt lat="42.15054" lon="2.36411">
        <ele>1381.5</ele>
        <time>2018-11-26T17:34:17Z</time>
      </trkpt>
      <trkpt lat="42.15052" lon="2.36423">
        <ele>1381.8</ele>
        <time>2018-11-26T17:34:21Z</time>
      </trkpt>
      <trkpt lat="42.15051" lon="2.36436">
        <ele>1383.2</ele>
        <time>2018-11-26T17:34:25Z</time>
      </trkpt>
      <trkpt lat="42.15048" lon="2.36449">
        <ele>1384.4</ele>
        <time>2018-11-26T17:34:29Z</time>
      </trkpt>
      <trkpt lat="42.15048" lon="2.36462">
        <ele>1384.5</ele>
        <time>2018-11-26T17:34:32Z</time>
      </trkpt>
      <trkpt lat="42.15052" lon="2.36475">
        <ele>1384.4</ele>
        <time>2018-11-26T17:34:37Z</time>
      </trkpt>
      <trkpt lat="42.15054" lon="2.36488">
        <ele>1383.4</ele>
        <time>2018-11-26T17:34:41Z</time>
      </trkpt>
      <trkpt lat="42.15055" lon="2.365">
        <ele>1383.9</ele>
        <time>2018-11-26T17:34:44Z</time>
      </trkpt>
      <trkpt lat="42.1506" lon="2.36511">
        <ele>1385.2</ele>
        <time>2018-11-26T17:34:48Z</time>
      </trkpt>
      <trkpt lat="42.15062" lon="2.36515">
        <ele>1385.1</ele>
        <time>2018-11-26T17:34:49Z</time>
      </trkpt>
      <trkpt lat="42.15062" lon="2.36518">
        <ele>1385.1</ele>
        <time>2018-11-26T17:34:50Z</time>
      </trkpt>
      <trkpt lat="42.15063" lon="2.36521">
        <ele>1385.2</ele>
        <time>2018-11-26T17:34:51Z</time>
      </trkpt>
      <trkpt lat="42.15064" lon="2.36524">
        <ele>1385.9</ele>
        <time>2018-11-26T17:34:52Z</time>
      </trkpt>
      <trkpt lat="42.15064" lon="2.36526">
        <ele>1385.8</ele>
        <time>2018-11-26T17:34:53Z</time>
      </trkpt>
      <trkpt lat="42.15064" lon="2.36529">
        <ele>1385.9</ele>
        <time>2018-11-26T17:34:54Z</time>
      </trkpt>
      <trkpt lat="42.15065" lon="2.36533">
        <ele>1386.4</ele>
        <time>2018-11-26T17:34:55Z</time>
      </trkpt>
      <trkpt lat="42.15065" lon="2.36538">
        <ele>1386.4</ele>
        <time>2018-11-26T17:34:57Z</time>
      </trkpt>
      <trkpt lat="42.15066" lon="2.36541">
        <ele>1386.6</ele>
        <time>2018-11-26T17:34:57Z</time>
      </trkpt>
      <trkpt lat="42.15066" lon="2.36543">
        <ele>1386.6</ele>
        <time>2018-11-26T17:34:58Z</time>
      </trkpt>
      <trkpt lat="42.15066" lon="2.36546">
        <ele>1386.5</ele>
        <time>2018-11-26T17:34:59Z</time>
      </trkpt>
      <trkpt lat="42.15069" lon="2.36559">
        <ele>1386.9</ele>
        <time>2018-11-26T17:35:03Z</time>
      </trkpt>
      <trkpt lat="42.1507" lon="2.36562">
        <ele>1386.5</ele>
        <time>2018-11-26T17:35:04Z</time>
      </trkpt>
      <trkpt lat="42.15072" lon="2.36567">
        <ele>1386.5</ele>
        <time>2018-11-26T17:35:06Z</time>
      </trkpt>
      <trkpt lat="42.15073" lon="2.3657">
        <ele>1386.6</ele>
        <time>2018-11-26T17:35:07Z</time>
      </trkpt>
      <trkpt lat="42.15074" lon="2.36573">
        <ele>1386.1</ele>
        <time>2018-11-26T17:35:08Z</time>
      </trkpt>
      <trkpt lat="42.15076" lon="2.36586">
        <ele>1385.4</ele>
        <time>2018-11-26T17:35:11Z</time>
      </trkpt>
      <trkpt lat="42.15079" lon="2.36597">
        <ele>1385.1</ele>
        <time>2018-11-26T17:35:15Z</time>
      </trkpt>
      <trkpt lat="42.15078" lon="2.36611">
        <ele>1384.4</ele>
        <time>2018-11-26T17:35:19Z</time>
      </trkpt>
      <trkpt lat="42.15077" lon="2.36614">
        <ele>1384.4</ele>
        <time>2018-11-26T17:35:20Z</time>
      </trkpt>
      <trkpt lat="42.15077" lon="2.36617">
        <ele>1384</ele>
        <time>2018-11-26T17:35:21Z</time>
      </trkpt>
      <trkpt lat="42.15077" lon="2.3662">
        <ele>1382.9</ele>
        <time>2018-11-26T17:35:22Z</time>
      </trkpt>
      <trkpt lat="42.15077" lon="2.36623">
        <ele>1382.5</ele>
        <time>2018-11-26T17:35:23Z</time>
      </trkpt>
      <trkpt lat="42.15079" lon="2.36636">
        <ele>1382.5</ele>
        <time>2018-11-26T17:35:27Z</time>
      </trkpt>
      <trkpt lat="42.15079" lon="2.36649">
        <ele>1381.4</ele>
        <time>2018-11-26T17:35:31Z</time>
      </trkpt>
      <trkpt lat="42.15081" lon="2.36662">
        <ele>1380.2</ele>
        <time>2018-11-26T17:35:35Z</time>
      </trkpt>
      <trkpt lat="42.15084" lon="2.36674">
        <ele>1378.2</ele>
        <time>2018-11-26T17:35:38Z</time>
      </trkpt>
      <trkpt lat="42.15084" lon="2.36683">
        <ele>1378.1</ele>
        <time>2018-11-26T17:35:41Z</time>
      </trkpt>
      <trkpt lat="42.15084" lon="2.36687">
        <ele>1378.1</ele>
        <time>2018-11-26T17:35:42Z</time>
      </trkpt>
      <trkpt lat="42.15085" lon="2.36691">
        <ele>1378.5</ele>
        <time>2018-11-26T17:35:43Z</time>
      </trkpt>
      <trkpt lat="42.15086" lon="2.36694">
        <ele>1378.1</ele>
        <time>2018-11-26T17:35:44Z</time>
      </trkpt>
      <trkpt lat="42.15087" lon="2.36697">
        <ele>1378.1</ele>
        <time>2018-11-26T17:35:45Z</time>
      </trkpt>
      <trkpt lat="42.15089" lon="2.36709">
        <ele>1378.2</ele>
        <time>2018-11-26T17:35:49Z</time>
      </trkpt>
      <trkpt lat="42.15093" lon="2.36721">
        <ele>1376.4</ele>
        <time>2018-11-26T17:35:53Z</time>
      </trkpt>
      <trkpt lat="42.15097" lon="2.36733">
        <ele>1376.1</ele>
        <time>2018-11-26T17:35:57Z</time>
      </trkpt>
      <trkpt lat="42.15102" lon="2.36744">
        <ele>1376.1</ele>
        <time>2018-11-26T17:36:00Z</time>
      </trkpt>
      <trkpt lat="42.15106" lon="2.36754">
        <ele>1376</ele>
        <time>2018-11-26T17:36:04Z</time>
      </trkpt>
      <trkpt lat="42.15109" lon="2.36767">
        <ele>1374.1</ele>
        <time>2018-11-26T17:36:08Z</time>
      </trkpt>
      <trkpt lat="42.15112" lon="2.36779">
        <ele>1374.2</ele>
        <time>2018-11-26T17:36:12Z</time>
      </trkpt>
      <trkpt lat="42.15113" lon="2.36783">
        <ele>1374</ele>
        <time>2018-11-26T17:36:13Z</time>
      </trkpt>
      <trkpt lat="42.15114" lon="2.36786">
        <ele>1373.6</ele>
        <time>2018-11-26T17:36:14Z</time>
      </trkpt>
      <trkpt lat="42.15116" lon="2.36789">
        <ele>1373.6</ele>
        <time>2018-11-26T17:36:15Z</time>
      </trkpt>
      <trkpt lat="42.15118" lon="2.36789">
        <ele>1373.5</ele>
        <time>2018-11-26T17:36:16Z</time>
      </trkpt>
      <trkpt lat="42.1512" lon="2.36791">
        <ele>1373.1</ele>
        <time>2018-11-26T17:36:17Z</time>
      </trkpt>
      <trkpt lat="42.15122" lon="2.36794">
        <ele>1373.5</ele>
        <time>2018-11-26T17:36:18Z</time>
      </trkpt>
      <trkpt lat="42.15124" lon="2.36796">
        <ele>1373.1</ele>
        <time>2018-11-26T17:36:19Z</time>
      </trkpt>
      <trkpt lat="42.15126" lon="2.36796">
        <ele>1373.5</ele>
        <time>2018-11-26T17:36:20Z</time>
      </trkpt>
      <trkpt lat="42.1513" lon="2.36808">
        <ele>1372.1</ele>
        <time>2018-11-26T17:36:24Z</time>
      </trkpt>
      <trkpt lat="42.1513" lon="2.36821">
        <ele>1372</ele>
        <time>2018-11-26T17:36:28Z</time>
      </trkpt>
      <trkpt lat="42.15131" lon="2.36835">
        <ele>1372.1</ele>
        <time>2018-11-26T17:36:32Z</time>
      </trkpt>
      <trkpt lat="42.15134" lon="2.36847">
        <ele>1371.9</ele>
        <time>2018-11-26T17:36:36Z</time>
      </trkpt>
      <trkpt lat="42.15138" lon="2.36859">
        <ele>1371.2</ele>
        <time>2018-11-26T17:36:39Z</time>
      </trkpt>
      <trkpt lat="42.15142" lon="2.3687">
        <ele>1371.2</ele>
        <time>2018-11-26T17:36:43Z</time>
      </trkpt>
      <trkpt lat="42.15145" lon="2.36883">
        <ele>1370.1</ele>
        <time>2018-11-26T17:36:47Z</time>
      </trkpt>
      <trkpt lat="42.1515" lon="2.36895">
        <ele>1370</ele>
        <time>2018-11-26T17:36:51Z</time>
      </trkpt>
      <trkpt lat="42.15153" lon="2.36908">
        <ele>1369.1</ele>
        <time>2018-11-26T17:36:55Z</time>
      </trkpt>
      <trkpt lat="42.15157" lon="2.36922">
        <ele>1368.5</ele>
        <time>2018-11-26T17:37:00Z</time>
      </trkpt>
      <trkpt lat="42.1516" lon="2.36934">
        <ele>1367.5</ele>
        <time>2018-11-26T17:37:04Z</time>
      </trkpt>
      <trkpt lat="42.15164" lon="2.36946">
        <ele>1367.1</ele>
        <time>2018-11-26T17:37:07Z</time>
      </trkpt>
      <trkpt lat="42.15169" lon="2.36959">
        <ele>1366.9</ele>
        <time>2018-11-26T17:37:12Z</time>
      </trkpt>
      <trkpt lat="42.15173" lon="2.36971">
        <ele>1366.1</ele>
        <time>2018-11-26T17:37:16Z</time>
      </trkpt>
      <trkpt lat="42.15173" lon="2.36983">
        <ele>1365.2</ele>
        <time>2018-11-26T17:37:19Z</time>
      </trkpt>
      <trkpt lat="42.15168" lon="2.36995">
        <ele>1363.1</ele>
        <time>2018-11-26T17:37:23Z</time>
      </trkpt>
      <trkpt lat="42.15165" lon="2.37008">
        <ele>1360.6</ele>
        <time>2018-11-26T17:37:27Z</time>
      </trkpt>
      <trkpt lat="42.15163" lon="2.37021">
        <ele>1357.9</ele>
        <time>2018-11-26T17:37:31Z</time>
      </trkpt>
      <trkpt lat="42.15157" lon="2.37023">
        <ele>1357.1</ele>
        <time>2018-11-26T17:37:33Z</time>
      </trkpt>
      <trkpt lat="42.15155" lon="2.37024">
        <ele>1356.8</ele>
        <time>2018-11-26T17:37:34Z</time>
      </trkpt>
      <trkpt lat="42.15152" lon="2.37025">
        <ele>1356.4</ele>
        <time>2018-11-26T17:37:35Z</time>
      </trkpt>
      <trkpt lat="42.15149" lon="2.37025">
        <ele>1356</ele>
        <time>2018-11-26T17:37:37Z</time>
      </trkpt>
      <trkpt lat="42.15147" lon="2.37027">
        <ele>1354.9</ele>
        <time>2018-11-26T17:37:37Z</time>
      </trkpt>
      <trkpt lat="42.15146" lon="2.37028">
        <ele>1354</ele>
        <time>2018-11-26T17:37:38Z</time>
      </trkpt>
      <trkpt lat="42.15144" lon="2.37032">
        <ele>1353</ele>
        <time>2018-11-26T17:37:40Z</time>
      </trkpt>
      <trkpt lat="42.15141" lon="2.37033">
        <ele>1352.8</ele>
        <time>2018-11-26T17:37:41Z</time>
      </trkpt>
      <trkpt lat="42.15139" lon="2.37034">
        <ele>1351.5</ele>
        <time>2018-11-26T17:37:42Z</time>
      </trkpt>
      <trkpt lat="42.15134" lon="2.37046">
        <ele>1343</ele>
        <time>2018-11-26T17:37:46Z</time>
      </trkpt>
      <trkpt lat="42.15131" lon="2.37057">
        <ele>1338.5</ele>
        <time>2018-11-26T17:37:49Z</time>
      </trkpt>
      <trkpt lat="42.15129" lon="2.37059">
        <ele>1337.5</ele>
        <time>2018-11-26T17:37:50Z</time>
      </trkpt>
      <trkpt lat="42.15128" lon="2.37057">
        <ele>1336.6</ele>
        <time>2018-11-26T17:37:51Z</time>
      </trkpt>
      <trkpt lat="42.15125" lon="2.37056">
        <ele>1336.1</ele>
        <time>2018-11-26T17:37:52Z</time>
      </trkpt>
      <trkpt lat="42.15123" lon="2.37058">
        <ele>1334.4</ele>
        <time>2018-11-26T17:37:53Z</time>
      </trkpt>
      <trkpt lat="42.15122" lon="2.3706">
        <ele>1333.4</ele>
        <time>2018-11-26T17:37:54Z</time>
      </trkpt>
      <trkpt lat="42.15121" lon="2.37061">
        <ele>1332</ele>
        <time>2018-11-26T17:37:54Z</time>
      </trkpt>
      <trkpt lat="42.1512" lon="2.37064">
        <ele>1330.9</ele>
        <time>2018-11-26T17:37:55Z</time>
      </trkpt>
      <trkpt lat="42.15119" lon="2.37065">
        <ele>1330.6</ele>
        <time>2018-11-26T17:37:56Z</time>
      </trkpt>
      <trkpt lat="42.15118" lon="2.37068">
        <ele>1329.8</ele>
        <time>2018-11-26T17:37:57Z</time>
      </trkpt>
      <trkpt lat="42.15115" lon="2.3708">
        <ele>1323.8</ele>
        <time>2018-11-26T17:38:01Z</time>
      </trkpt>
      <trkpt lat="42.1512" lon="2.37091">
        <ele>1319.2</ele>
        <time>2018-11-26T17:38:04Z</time>
      </trkpt>
      <trkpt lat="42.1512" lon="2.37103">
        <ele>1318.4</ele>
        <time>2018-11-26T17:38:08Z</time>
      </trkpt>
      <trkpt lat="42.15119" lon="2.37115">
        <ele>1314.8</ele>
        <time>2018-11-26T17:38:12Z</time>
      </trkpt>
      <trkpt lat="42.15116" lon="2.37127">
        <ele>1314</ele>
        <time>2018-11-26T17:38:15Z</time>
      </trkpt>
      <trkpt lat="42.1511" lon="2.37136">
        <ele>1311.4</ele>
        <time>2018-11-26T17:38:19Z</time>
      </trkpt>
      <trkpt lat="42.15104" lon="2.37141">
        <ele>1310</ele>
        <time>2018-11-26T17:38:21Z</time>
      </trkpt>
      <trkpt lat="42.15101" lon="2.37142">
        <ele>1308.8</ele>
        <time>2018-11-26T17:38:23Z</time>
      </trkpt>
      <trkpt lat="42.15099" lon="2.37142">
        <ele>1308.1</ele>
        <time>2018-11-26T17:38:24Z</time>
      </trkpt>
      <trkpt lat="42.15098" lon="2.37144">
        <ele>1307.1</ele>
        <time>2018-11-26T17:38:24Z</time>
      </trkpt>
      <trkpt lat="42.15096" lon="2.37157">
        <ele>1299.8</ele>
        <time>2018-11-26T17:38:28Z</time>
      </trkpt>
      <trkpt lat="42.15093" lon="2.3717">
        <ele>1294.6</ele>
        <time>2018-11-26T17:38:32Z</time>
      </trkpt>
      <trkpt lat="42.1509" lon="2.3717">
        <ele>1291.8</ele>
        <time>2018-11-26T17:38:34Z</time>
      </trkpt>
      <trkpt lat="42.15088" lon="2.37171">
        <ele>1291.1</ele>
        <time>2018-11-26T17:38:34Z</time>
      </trkpt>
      <trkpt lat="42.15088" lon="2.37175">
        <ele>1290.5</ele>
        <time>2018-11-26T17:38:35Z</time>
      </trkpt>
      <trkpt lat="42.1508" lon="2.37181">
        <ele>1285.8</ele>
        <time>2018-11-26T17:38:39Z</time>
      </trkpt>
      <trkpt lat="42.1508" lon="2.37184">
        <ele>1286.5</ele>
        <time>2018-11-26T17:38:40Z</time>
      </trkpt>
      <trkpt lat="42.15078" lon="2.37189">
        <ele>1286.8</ele>
        <time>2018-11-26T17:38:41Z</time>
      </trkpt>
      <trkpt lat="42.15076" lon="2.37192">
        <ele>1287.4</ele>
        <time>2018-11-26T17:38:43Z</time>
      </trkpt>
      <trkpt lat="42.15074" lon="2.37197">
        <ele>1288</ele>
        <time>2018-11-26T17:38:44Z</time>
      </trkpt>
      <trkpt lat="42.15072" lon="2.37198">
        <ele>1288.1</ele>
        <time>2018-11-26T17:38:45Z</time>
      </trkpt>
      <trkpt lat="42.15069" lon="2.37199">
        <ele>1288.1</ele>
        <time>2018-11-26T17:38:46Z</time>
      </trkpt>
      <trkpt lat="42.15067" lon="2.372">
        <ele>1288</ele>
        <time>2018-11-26T17:38:47Z</time>
      </trkpt>
      <trkpt lat="42.15064" lon="2.37201">
        <ele>1288.2</ele>
        <time>2018-11-26T17:38:48Z</time>
      </trkpt>
      <trkpt lat="42.15062" lon="2.37203">
        <ele>1288.2</ele>
        <time>2018-11-26T17:38:49Z</time>
      </trkpt>
      <trkpt lat="42.1506" lon="2.37204">
        <ele>1288.6</ele>
        <time>2018-11-26T17:38:50Z</time>
      </trkpt>
      <trkpt lat="42.15058" lon="2.37205">
        <ele>1288.6</ele>
        <time>2018-11-26T17:38:51Z</time>
      </trkpt>
      <trkpt lat="42.15057" lon="2.37207">
        <ele>1289.2</ele>
        <time>2018-11-26T17:38:52Z</time>
      </trkpt>
      <trkpt lat="42.15055" lon="2.37209">
        <ele>1289.1</ele>
        <time>2018-11-26T17:38:53Z</time>
      </trkpt>
      <trkpt lat="42.15052" lon="2.37212">
        <ele>1290.1</ele>
        <time>2018-11-26T17:38:54Z</time>
      </trkpt>
      <trkpt lat="42.15049" lon="2.37214">
        <ele>1290.1</ele>
        <time>2018-11-26T17:38:55Z</time>
      </trkpt>
      <trkpt lat="42.15048" lon="2.37217">
        <ele>1290.1</ele>
        <time>2018-11-26T17:38:56Z</time>
      </trkpt>
      <trkpt lat="42.15047" lon="2.3722">
        <ele>1289.2</ele>
        <time>2018-11-26T17:38:58Z</time>
      </trkpt>
      <trkpt lat="42.15046" lon="2.37224">
        <ele>1288.6</ele>
        <time>2018-11-26T17:38:59Z</time>
      </trkpt>
      <trkpt lat="42.15045" lon="2.37227">
        <ele>1288.1</ele>
        <time>2018-11-26T17:39:00Z</time>
      </trkpt>
      <trkpt lat="42.15042" lon="2.37231">
        <ele>1286.4</ele>
        <time>2018-11-26T17:39:01Z</time>
      </trkpt>
      <trkpt lat="42.15041" lon="2.37233">
        <ele>1287.1</ele>
        <time>2018-11-26T17:39:02Z</time>
      </trkpt>
      <trkpt lat="42.15039" lon="2.37235">
        <ele>1286.2</ele>
        <time>2018-11-26T17:39:03Z</time>
      </trkpt>
      <trkpt lat="42.15037" lon="2.37238">
        <ele>1286.2</ele>
        <time>2018-11-26T17:39:04Z</time>
      </trkpt>
      <trkpt lat="42.15036" lon="2.3724">
        <ele>1286.2</ele>
        <time>2018-11-26T17:39:05Z</time>
      </trkpt>
      <trkpt lat="42.15033" lon="2.37242">
        <ele>1286.2</ele>
        <time>2018-11-26T17:39:06Z</time>
      </trkpt>
      <trkpt lat="42.15025" lon="2.37248">
        <ele>1285.5</ele>
        <time>2018-11-26T17:39:10Z</time>
      </trkpt>
      <trkpt lat="42.15016" lon="2.37245">
        <ele>1284</ele>
        <time>2018-11-26T17:39:14Z</time>
      </trkpt>
      <trkpt lat="42.15006" lon="2.37242">
        <ele>1284.1</ele>
        <time>2018-11-26T17:39:18Z</time>
      </trkpt>
      <trkpt lat="42.14997" lon="2.37238">
        <ele>1283.5</ele>
        <time>2018-11-26T17:39:22Z</time>
      </trkpt>
      <trkpt lat="42.14989" lon="2.3723">
        <ele>1283</ele>
        <time>2018-11-26T17:39:26Z</time>
      </trkpt>
      <trkpt lat="42.14985" lon="2.37224">
        <ele>1283.1</ele>
        <time>2018-11-26T17:39:28Z</time>
      </trkpt>
      <trkpt lat="42.14982" lon="2.37223">
        <ele>1283.4</ele>
        <time>2018-11-26T17:39:29Z</time>
      </trkpt>
      <trkpt lat="42.14979" lon="2.37224">
        <ele>1284.1</ele>
        <time>2018-11-26T17:39:31Z</time>
      </trkpt>
      <trkpt lat="42.14976" lon="2.37225">
        <ele>1284.5</ele>
        <time>2018-11-26T17:39:32Z</time>
      </trkpt>
      <trkpt lat="42.14974" lon="2.37225">
        <ele>1284.4</ele>
        <time>2018-11-26T17:39:33Z</time>
      </trkpt>
      <trkpt lat="42.14971" lon="2.37226">
        <ele>1284.4</ele>
        <time>2018-11-26T17:39:34Z</time>
      </trkpt>
      <trkpt lat="42.14964" lon="2.37229">
        <ele>1283.5</ele>
        <time>2018-11-26T17:39:37Z</time>
      </trkpt>
      <trkpt lat="42.14961" lon="2.37233">
        <ele>1283.1</ele>
        <time>2018-11-26T17:39:38Z</time>
      </trkpt>
      <trkpt lat="42.14959" lon="2.37235">
        <ele>1282.5</ele>
        <time>2018-11-26T17:39:40Z</time>
      </trkpt>
      <trkpt lat="42.14958" lon="2.37238">
        <ele>1282.5</ele>
        <time>2018-11-26T17:39:40Z</time>
      </trkpt>
      <trkpt lat="42.14956" lon="2.37241">
        <ele>1282.4</ele>
        <time>2018-11-26T17:39:41Z</time>
      </trkpt>
      <trkpt lat="42.14955" lon="2.37245">
        <ele>1282.2</ele>
        <time>2018-11-26T17:39:43Z</time>
      </trkpt>
      <trkpt lat="42.14954" lon="2.37247">
        <ele>1282.9</ele>
        <time>2018-11-26T17:39:43Z</time>
      </trkpt>
      <trkpt lat="42.14953" lon="2.37249">
        <ele>1282.6</ele>
        <time>2018-11-26T17:39:44Z</time>
      </trkpt>
      <trkpt lat="42.14953" lon="2.37252">
        <ele>1283.1</ele>
        <time>2018-11-26T17:39:45Z</time>
      </trkpt>
      <trkpt lat="42.1495" lon="2.37255">
        <ele>1283.1</ele>
        <time>2018-11-26T17:39:46Z</time>
      </trkpt>
      <trkpt lat="42.14949" lon="2.37257">
        <ele>1283.1</ele>
        <time>2018-11-26T17:39:47Z</time>
      </trkpt>
      <trkpt lat="42.14946" lon="2.3726">
        <ele>1282.9</ele>
        <time>2018-11-26T17:39:48Z</time>
      </trkpt>
      <trkpt lat="42.14944" lon="2.37262">
        <ele>1282.9</ele>
        <time>2018-11-26T17:39:50Z</time>
      </trkpt>
      <trkpt lat="42.14941" lon="2.37263">
        <ele>1282.8</ele>
        <time>2018-11-26T17:39:51Z</time>
      </trkpt>
      <trkpt lat="42.14937" lon="2.37264">
        <ele>1282.4</ele>
        <time>2018-11-26T17:39:52Z</time>
      </trkpt>
      <trkpt lat="42.14935" lon="2.37264">
        <ele>1282.2</ele>
        <time>2018-11-26T17:39:53Z</time>
      </trkpt>
      <trkpt lat="42.14933" lon="2.37265">
        <ele>1282.1</ele>
        <time>2018-11-26T17:39:54Z</time>
      </trkpt>
      <trkpt lat="42.14931" lon="2.37265">
        <ele>1282.2</ele>
        <time>2018-11-26T17:39:55Z</time>
      </trkpt>
      <trkpt lat="42.14928" lon="2.37265">
        <ele>1282.2</ele>
        <time>2018-11-26T17:39:56Z</time>
      </trkpt>
      <trkpt lat="42.14926" lon="2.37264">
        <ele>1282.1</ele>
        <time>2018-11-26T17:39:57Z</time>
      </trkpt>
      <trkpt lat="42.14924" lon="2.37264">
        <ele>1282</ele>
        <time>2018-11-26T17:39:58Z</time>
      </trkpt>
      <trkpt lat="42.14922" lon="2.37263">
        <ele>1282</ele>
        <time>2018-11-26T17:39:59Z</time>
      </trkpt>
      <trkpt lat="42.1492" lon="2.37263">
        <ele>1281.9</ele>
        <time>2018-11-26T17:39:59Z</time>
      </trkpt>
      <trkpt lat="42.14917" lon="2.37262">
        <ele>1281.9</ele>
        <time>2018-11-26T17:40:00Z</time>
      </trkpt>
      <trkpt lat="42.14915" lon="2.37261">
        <ele>1282</ele>
        <time>2018-11-26T17:40:01Z</time>
      </trkpt>
      <trkpt lat="42.14913" lon="2.3726">
        <ele>1282</ele>
        <time>2018-11-26T17:40:02Z</time>
      </trkpt>
      <trkpt lat="42.14912" lon="2.37259">
        <ele>1282</ele>
        <time>2018-11-26T17:40:03Z</time>
      </trkpt>
      <trkpt lat="42.1491" lon="2.37258">
        <ele>1282.1</ele>
        <time>2018-11-26T17:40:04Z</time>
      </trkpt>
      <trkpt lat="42.14908" lon="2.37256">
        <ele>1281.2</ele>
        <time>2018-11-26T17:40:04Z</time>
      </trkpt>
      <trkpt lat="42.14907" lon="2.37254">
        <ele>1280.8</ele>
        <time>2018-11-26T17:40:05Z</time>
      </trkpt>
      <trkpt lat="42.14905" lon="2.37253">
        <ele>1281.5</ele>
        <time>2018-11-26T17:40:06Z</time>
      </trkpt>
      <trkpt lat="42.14904" lon="2.37251">
        <ele>1281.5</ele>
        <time>2018-11-26T17:40:07Z</time>
      </trkpt>
      <trkpt lat="42.14902" lon="2.37249">
        <ele>1280.8</ele>
        <time>2018-11-26T17:40:08Z</time>
      </trkpt>
      <trkpt lat="42.14901" lon="2.37247">
        <ele>1280.9</ele>
        <time>2018-11-26T17:40:08Z</time>
      </trkpt>
      <trkpt lat="42.14899" lon="2.37245">
        <ele>1280.8</ele>
        <time>2018-11-26T17:40:09Z</time>
      </trkpt>
      <trkpt lat="42.14897" lon="2.37243">
        <ele>1280.9</ele>
        <time>2018-11-26T17:40:10Z</time>
      </trkpt>
      <trkpt lat="42.14896" lon="2.37241">
        <ele>1280.9</ele>
        <time>2018-11-26T17:40:11Z</time>
      </trkpt>
      <trkpt lat="42.14894" lon="2.37238">
        <ele>1280.8</ele>
        <time>2018-11-26T17:40:12Z</time>
      </trkpt>
      <trkpt lat="42.14893" lon="2.37236">
        <ele>1280.8</ele>
        <time>2018-11-26T17:40:13Z</time>
      </trkpt>
      <trkpt lat="42.14891" lon="2.37234">
        <ele>1280.6</ele>
        <time>2018-11-26T17:40:14Z</time>
      </trkpt>
      <trkpt lat="42.1489" lon="2.37232">
        <ele>1280.5</ele>
        <time>2018-11-26T17:40:15Z</time>
      </trkpt>
      <trkpt lat="42.14888" lon="2.37231">
        <ele>1280.6</ele>
        <time>2018-11-26T17:40:15Z</time>
      </trkpt>
      <trkpt lat="42.14887" lon="2.37229">
        <ele>1280.4</ele>
        <time>2018-11-26T17:40:16Z</time>
      </trkpt>
      <trkpt lat="42.14885" lon="2.37227">
        <ele>1280.5</ele>
        <time>2018-11-26T17:40:17Z</time>
      </trkpt>
      <trkpt lat="42.14883" lon="2.37224">
        <ele>1280.5</ele>
        <time>2018-11-26T17:40:18Z</time>
      </trkpt>
      <trkpt lat="42.1488" lon="2.37223">
        <ele>1279.6</ele>
        <time>2018-11-26T17:40:20Z</time>
      </trkpt>
      <trkpt lat="42.14878" lon="2.37222">
        <ele>1279.5</ele>
        <time>2018-11-26T17:40:20Z</time>
      </trkpt>
      <trkpt lat="42.14876" lon="2.37221">
        <ele>1279.5</ele>
        <time>2018-11-26T17:40:21Z</time>
      </trkpt>
      <trkpt lat="42.14874" lon="2.37221">
        <ele>1279.6</ele>
        <time>2018-11-26T17:40:22Z</time>
      </trkpt>
      <trkpt lat="42.14872" lon="2.3722">
        <ele>1279.5</ele>
        <time>2018-11-26T17:40:23Z</time>
      </trkpt>
      <trkpt lat="42.1487" lon="2.3722">
        <ele>1279.5</ele>
        <time>2018-11-26T17:40:24Z</time>
      </trkpt>
      <trkpt lat="42.14868" lon="2.37219">
        <ele>1279.6</ele>
        <time>2018-11-26T17:40:24Z</time>
      </trkpt>
      <trkpt lat="42.14867" lon="2.37218">
        <ele>1279.6</ele>
        <time>2018-11-26T17:40:25Z</time>
      </trkpt>
      <trkpt lat="42.14865" lon="2.37216">
        <ele>1279.4</ele>
        <time>2018-11-26T17:40:26Z</time>
      </trkpt>
      <trkpt lat="42.14863" lon="2.37215">
        <ele>1279.2</ele>
        <time>2018-11-26T17:40:27Z</time>
      </trkpt>
      <trkpt lat="42.14861" lon="2.37215">
        <ele>1279.2</ele>
        <time>2018-11-26T17:40:28Z</time>
      </trkpt>
      <trkpt lat="42.14859" lon="2.37214">
        <ele>1279</ele>
        <time>2018-11-26T17:40:28Z</time>
      </trkpt>
      <trkpt lat="42.14858" lon="2.37212">
        <ele>1279</ele>
        <time>2018-11-26T17:40:29Z</time>
      </trkpt>
      <trkpt lat="42.14856" lon="2.37211">
        <ele>1278.9</ele>
        <time>2018-11-26T17:40:30Z</time>
      </trkpt>
      <trkpt lat="42.14854" lon="2.3721">
        <ele>1278.4</ele>
        <time>2018-11-26T17:40:31Z</time>
      </trkpt>
      <trkpt lat="42.14852" lon="2.37208">
        <ele>1278.4</ele>
        <time>2018-11-26T17:40:32Z</time>
      </trkpt>
      <trkpt lat="42.1485" lon="2.37207">
        <ele>1277.5</ele>
        <time>2018-11-26T17:40:32Z</time>
      </trkpt>
      <trkpt lat="42.14849" lon="2.37206">
        <ele>1276.1</ele>
        <time>2018-11-26T17:40:33Z</time>
      </trkpt>
      <trkpt lat="42.14847" lon="2.37204">
        <ele>1277.6</ele>
        <time>2018-11-26T17:40:34Z</time>
      </trkpt>
      <trkpt lat="42.14845" lon="2.37203">
        <ele>1276.1</ele>
        <time>2018-11-26T17:40:35Z</time>
      </trkpt>
      <trkpt lat="42.14844" lon="2.37201">
        <ele>1275.8</ele>
        <time>2018-11-26T17:40:35Z</time>
      </trkpt>
      <trkpt lat="42.14842" lon="2.37199">
        <ele>1275.8</ele>
        <time>2018-11-26T17:40:37Z</time>
      </trkpt>
      <trkpt lat="42.1484" lon="2.37198">
        <ele>1275.8</ele>
        <time>2018-11-26T17:40:37Z</time>
      </trkpt>
      <trkpt lat="42.14838" lon="2.37197">
        <ele>1275.5</ele>
        <time>2018-11-26T17:40:38Z</time>
      </trkpt>
      <trkpt lat="42.14835" lon="2.37195">
        <ele>1275.1</ele>
        <time>2018-11-26T17:40:40Z</time>
      </trkpt>
      <trkpt lat="42.14832" lon="2.37193">
        <ele>1274.2</ele>
        <time>2018-11-26T17:40:41Z</time>
      </trkpt>
      <trkpt lat="42.14831" lon="2.37191">
        <ele>1274.1</ele>
        <time>2018-11-26T17:40:42Z</time>
      </trkpt>
      <trkpt lat="42.14829" lon="2.37189">
        <ele>1273.9</ele>
        <time>2018-11-26T17:40:43Z</time>
      </trkpt>
      <trkpt lat="42.14828" lon="2.37187">
        <ele>1273.4</ele>
        <time>2018-11-26T17:40:44Z</time>
      </trkpt>
      <trkpt lat="42.14825" lon="2.37184">
        <ele>1272.8</ele>
        <time>2018-11-26T17:40:45Z</time>
      </trkpt>
      <trkpt lat="42.14824" lon="2.37181">
        <ele>1272.5</ele>
        <time>2018-11-26T17:40:46Z</time>
      </trkpt>
      <trkpt lat="42.14823" lon="2.37177">
        <ele>1272.1</ele>
        <time>2018-11-26T17:40:47Z</time>
      </trkpt>
      <trkpt lat="42.14822" lon="2.37175">
        <ele>1271.8</ele>
        <time>2018-11-26T17:40:48Z</time>
      </trkpt>
      <trkpt lat="42.1482" lon="2.37171">
        <ele>1271.2</ele>
        <time>2018-11-26T17:40:49Z</time>
      </trkpt>
      <trkpt lat="42.14819" lon="2.37169">
        <ele>1270.5</ele>
        <time>2018-11-26T17:40:50Z</time>
      </trkpt>
      <trkpt lat="42.14817" lon="2.37165">
        <ele>1269.8</ele>
        <time>2018-11-26T17:40:51Z</time>
      </trkpt>
      <trkpt lat="42.14816" lon="2.37161">
        <ele>1269.6</ele>
        <time>2018-11-26T17:40:53Z</time>
      </trkpt>
      <trkpt lat="42.14814" lon="2.37159">
        <ele>1269.2</ele>
        <time>2018-11-26T17:40:54Z</time>
      </trkpt>
      <trkpt lat="42.14812" lon="2.37158">
        <ele>1268.4</ele>
        <time>2018-11-26T17:40:54Z</time>
      </trkpt>
      <trkpt lat="42.1481" lon="2.37157">
        <ele>1266.5</ele>
        <time>2018-11-26T17:40:55Z</time>
      </trkpt>
      <trkpt lat="42.14808" lon="2.37157">
        <ele>1266.5</ele>
        <time>2018-11-26T17:40:56Z</time>
      </trkpt>
      <trkpt lat="42.14805" lon="2.37157">
        <ele>1266.1</ele>
        <time>2018-11-26T17:40:57Z</time>
      </trkpt>
      <trkpt lat="42.14802" lon="2.37156">
        <ele>1266</ele>
        <time>2018-11-26T17:40:58Z</time>
      </trkpt>
      <trkpt lat="42.14799" lon="2.37154">
        <ele>1265.3</ele>
        <time>2018-11-26T17:41:00Z</time>
      </trkpt>
      <trkpt lat="42.14796" lon="2.37154">
        <ele>1264.2</ele>
        <time>2018-11-26T17:41:01Z</time>
      </trkpt>
      <trkpt lat="42.14793" lon="2.37156">
        <ele>1262.5</ele>
        <time>2018-11-26T17:41:02Z</time>
      </trkpt>
      <trkpt lat="42.1479" lon="2.37156">
        <ele>1261.5</ele>
        <time>2018-11-26T17:41:04Z</time>
      </trkpt>
      <trkpt lat="42.14787" lon="2.37156">
        <ele>1260.5</ele>
        <time>2018-11-26T17:41:05Z</time>
      </trkpt>
      <trkpt lat="42.14785" lon="2.37158">
        <ele>1259.6</ele>
        <time>2018-11-26T17:41:06Z</time>
      </trkpt>
      <trkpt lat="42.14784" lon="2.37161">
        <ele>1258.9</ele>
        <time>2018-11-26T17:41:07Z</time>
      </trkpt>
      <trkpt lat="42.14782" lon="2.37163">
        <ele>1257.5</ele>
        <time>2018-11-26T17:41:08Z</time>
      </trkpt>
      <trkpt lat="42.14779" lon="2.37164">
        <ele>1257.2</ele>
        <time>2018-11-26T17:41:09Z</time>
      </trkpt>
      <trkpt lat="42.14777" lon="2.37164">
        <ele>1255</ele>
        <time>2018-11-26T17:41:09Z</time>
      </trkpt>
      <trkpt lat="42.14774" lon="2.37165">
        <ele>1254</ele>
        <time>2018-11-26T17:41:11Z</time>
      </trkpt>
      <trkpt lat="42.14772" lon="2.37165">
        <ele>1254.1</ele>
        <time>2018-11-26T17:41:11Z</time>
      </trkpt>
      <trkpt lat="42.14769" lon="2.37167">
        <ele>1252.1</ele>
        <time>2018-11-26T17:41:13Z</time>
      </trkpt>
      <trkpt lat="42.14767" lon="2.37169">
        <ele>1251.8</ele>
        <time>2018-11-26T17:41:14Z</time>
      </trkpt>
      <trkpt lat="42.14764" lon="2.37171">
        <ele>1251.6</ele>
        <time>2018-11-26T17:41:15Z</time>
      </trkpt>
      <trkpt lat="42.14762" lon="2.37173">
        <ele>1250.8</ele>
        <time>2018-11-26T17:41:16Z</time>
      </trkpt>
      <trkpt lat="42.14761" lon="2.37175">
        <ele>1250.5</ele>
        <time>2018-11-26T17:41:17Z</time>
      </trkpt>
      <trkpt lat="42.14759" lon="2.37176">
        <ele>1249.5</ele>
        <time>2018-11-26T17:41:18Z</time>
      </trkpt>
      <trkpt lat="42.14751" lon="2.37185">
        <ele>1246.5</ele>
        <time>2018-11-26T17:41:22Z</time>
      </trkpt>
      <trkpt lat="42.14749" lon="2.37187">
        <ele>1245.1</ele>
        <time>2018-11-26T17:41:23Z</time>
      </trkpt>
      <trkpt lat="42.14748" lon="2.3719">
        <ele>1244.5</ele>
        <time>2018-11-26T17:41:24Z</time>
      </trkpt>
      <trkpt lat="42.14748" lon="2.37193">
        <ele>1244</ele>
        <time>2018-11-26T17:41:25Z</time>
      </trkpt>
      <trkpt lat="42.14744" lon="2.372">
        <ele>1242.5</ele>
        <time>2018-11-26T17:41:27Z</time>
      </trkpt>
      <trkpt lat="42.14741" lon="2.37206">
        <ele>1242.5</ele>
        <time>2018-11-26T17:41:29Z</time>
      </trkpt>
      <trkpt lat="42.14739" lon="2.37208">
        <ele>1242.6</ele>
        <time>2018-11-26T17:41:30Z</time>
      </trkpt>
      <trkpt lat="42.14738" lon="2.37209">
        <ele>1240.8</ele>
        <time>2018-11-26T17:41:31Z</time>
      </trkpt>
      <trkpt lat="42.14736" lon="2.37211">
        <ele>1240.8</ele>
        <time>2018-11-26T17:41:32Z</time>
      </trkpt>
      <trkpt lat="42.14734" lon="2.37212">
        <ele>1240.2</ele>
        <time>2018-11-26T17:41:33Z</time>
      </trkpt>
      <trkpt lat="42.14732" lon="2.3721">
        <ele>1239.5</ele>
        <time>2018-11-26T17:41:33Z</time>
      </trkpt>
      <trkpt lat="42.14729" lon="2.37207">
        <ele>1238.9</ele>
        <time>2018-11-26T17:41:35Z</time>
      </trkpt>
      <trkpt lat="42.14727" lon="2.37205">
        <ele>1238.5</ele>
        <time>2018-11-26T17:41:36Z</time>
      </trkpt>
      <trkpt lat="42.14725" lon="2.37202">
        <ele>1237.1</ele>
        <time>2018-11-26T17:41:37Z</time>
      </trkpt>
      <trkpt lat="42.14722" lon="2.37202">
        <ele>1236.1</ele>
        <time>2018-11-26T17:41:38Z</time>
      </trkpt>
      <trkpt lat="42.14721" lon="2.37203">
        <ele>1235.8</ele>
        <time>2018-11-26T17:41:39Z</time>
      </trkpt>
      <trkpt lat="42.14718" lon="2.37205">
        <ele>1235.5</ele>
        <time>2018-11-26T17:41:40Z</time>
      </trkpt>
      <trkpt lat="42.14716" lon="2.37208">
        <ele>1235.1</ele>
        <time>2018-11-26T17:41:42Z</time>
      </trkpt>
      <trkpt lat="42.14714" lon="2.3721">
        <ele>1235.2</ele>
        <time>2018-11-26T17:41:42Z</time>
      </trkpt>
      <trkpt lat="42.14712" lon="2.37212">
        <ele>1233.5</ele>
        <time>2018-11-26T17:41:44Z</time>
      </trkpt>
      <trkpt lat="42.1471" lon="2.37214">
        <ele>1232.9</ele>
        <time>2018-11-26T17:41:44Z</time>
      </trkpt>
      <trkpt lat="42.14709" lon="2.37216">
        <ele>1231.1</ele>
        <time>2018-11-26T17:41:45Z</time>
      </trkpt>
      <trkpt lat="42.14707" lon="2.37218">
        <ele>1229.5</ele>
        <time>2018-11-26T17:41:46Z</time>
      </trkpt>
      <trkpt lat="42.14703" lon="2.37229">
        <ele>1229.5</ele>
        <time>2018-11-26T17:41:50Z</time>
      </trkpt>
      <trkpt lat="42.14696" lon="2.37238">
        <ele>1227.4</ele>
        <time>2018-11-26T17:41:54Z</time>
      </trkpt>
      <trkpt lat="42.14692" lon="2.37251">
        <ele>1226</ele>
        <time>2018-11-26T17:41:58Z</time>
      </trkpt>
      <trkpt lat="42.14693" lon="2.37261">
        <ele>1224.2</ele>
        <time>2018-11-26T17:42:01Z</time>
      </trkpt>
      <trkpt lat="42.14692" lon="2.37264">
        <ele>1223.4</ele>
        <time>2018-11-26T17:42:02Z</time>
      </trkpt>
      <trkpt lat="42.14691" lon="2.37267">
        <ele>1222.4</ele>
        <time>2018-11-26T17:42:03Z</time>
      </trkpt>
      <trkpt lat="42.14691" lon="2.3727">
        <ele>1220.1</ele>
        <time>2018-11-26T17:42:04Z</time>
      </trkpt>
      <trkpt lat="42.14689" lon="2.37272">
        <ele>1220</ele>
        <time>2018-11-26T17:42:04Z</time>
      </trkpt>
      <trkpt lat="42.14689" lon="2.37275">
        <ele>1220</ele>
        <time>2018-11-26T17:42:05Z</time>
      </trkpt>
      <trkpt lat="42.14688" lon="2.37277">
        <ele>1219.4</ele>
        <time>2018-11-26T17:42:06Z</time>
      </trkpt>
      <trkpt lat="42.14687" lon="2.37279">
        <ele>1219.2</ele>
        <time>2018-11-26T17:42:07Z</time>
      </trkpt>
      <trkpt lat="42.14687" lon="2.37282">
        <ele>1218.5</ele>
        <time>2018-11-26T17:42:08Z</time>
      </trkpt>
      <trkpt lat="42.14687" lon="2.37286">
        <ele>1217.5</ele>
        <time>2018-11-26T17:42:09Z</time>
      </trkpt>
      <trkpt lat="42.14687" lon="2.37288">
        <ele>1216.6</ele>
        <time>2018-11-26T17:42:10Z</time>
      </trkpt>
      <trkpt lat="42.14687" lon="2.37291">
        <ele>1215.9</ele>
        <time>2018-11-26T17:42:10Z</time>
      </trkpt>
      <trkpt lat="42.14687" lon="2.37294">
        <ele>1215.8</ele>
        <time>2018-11-26T17:42:11Z</time>
      </trkpt>
      <trkpt lat="42.14687" lon="2.37298">
        <ele>1215.1</ele>
        <time>2018-11-26T17:42:12Z</time>
      </trkpt>
      <trkpt lat="42.14686" lon="2.37302">
        <ele>1214.5</ele>
        <time>2018-11-26T17:42:13Z</time>
      </trkpt>
      <trkpt lat="42.14686" lon="2.37314">
        <ele>1212.4</ele>
        <time>2018-11-26T17:42:17Z</time>
      </trkpt>
      <trkpt lat="42.14688" lon="2.37326">
        <ele>1210.1</ele>
        <time>2018-11-26T17:42:21Z</time>
      </trkpt>
      <trkpt lat="42.14689" lon="2.37332">
        <ele>1209.1</ele>
        <time>2018-11-26T17:42:23Z</time>
      </trkpt>
      <trkpt lat="42.14689" lon="2.37336">
        <ele>1208</ele>
        <time>2018-11-26T17:42:24Z</time>
      </trkpt>
      <trkpt lat="42.1469" lon="2.3735">
        <ele>1206.1</ele>
        <time>2018-11-26T17:42:28Z</time>
      </trkpt>
      <trkpt lat="42.14689" lon="2.37352">
        <ele>1206.2</ele>
        <time>2018-11-26T17:42:29Z</time>
      </trkpt>
      <trkpt lat="42.14691" lon="2.37358">
        <ele>1206</ele>
        <time>2018-11-26T17:42:30Z</time>
      </trkpt>
      <trkpt lat="42.14692" lon="2.3737">
        <ele>1203.9</ele>
        <time>2018-11-26T17:42:34Z</time>
      </trkpt>
      <trkpt lat="42.14692" lon="2.37383">
        <ele>1201.1</ele>
        <time>2018-11-26T17:42:38Z</time>
      </trkpt>
      <trkpt lat="42.14692" lon="2.37398">
        <ele>1200.5</ele>
        <time>2018-11-26T17:42:42Z</time>
      </trkpt>
      <trkpt lat="42.14691" lon="2.3741">
        <ele>1198.4</ele>
        <time>2018-11-26T17:42:46Z</time>
      </trkpt>
      <trkpt lat="42.1469" lon="2.37424">
        <ele>1196.8</ele>
        <time>2018-11-26T17:42:50Z</time>
      </trkpt>
      <trkpt lat="42.14685" lon="2.37436">
        <ele>1195.1</ele>
        <time>2018-11-26T17:42:54Z</time>
      </trkpt>
      <trkpt lat="42.14684" lon="2.37452">
        <ele>1192.4</ele>
        <time>2018-11-26T17:42:59Z</time>
      </trkpt>
      <trkpt lat="42.14682" lon="2.37464">
        <ele>1191</ele>
        <time>2018-11-26T17:43:03Z</time>
      </trkpt>
      <trkpt lat="42.14679" lon="2.37477">
        <ele>1186.8</ele>
        <time>2018-11-26T17:43:07Z</time>
      </trkpt>
      <trkpt lat="42.14676" lon="2.37488">
        <ele>1185.5</ele>
        <time>2018-11-26T17:43:10Z</time>
      </trkpt>
      <trkpt lat="42.14679" lon="2.375">
        <ele>1180.6</ele>
        <time>2018-11-26T17:43:14Z</time>
      </trkpt>
      <trkpt lat="42.1468" lon="2.37513">
        <ele>1177.4</ele>
        <time>2018-11-26T17:43:18Z</time>
      </trkpt>
      <trkpt lat="42.1468" lon="2.37525">
        <ele>1174.9</ele>
        <time>2018-11-26T17:43:21Z</time>
      </trkpt>
      <trkpt lat="42.14679" lon="2.37538">
        <ele>1172.9</ele>
        <time>2018-11-26T17:43:25Z</time>
      </trkpt>
      <trkpt lat="42.14678" lon="2.37552">
        <ele>1171.5</ele>
        <time>2018-11-26T17:43:30Z</time>
      </trkpt>
      <trkpt lat="42.14678" lon="2.37568">
        <ele>1170.4</ele>
        <time>2018-11-26T17:43:34Z</time>
      </trkpt>
      <trkpt lat="42.14677" lon="2.37582">
        <ele>1169.8</ele>
        <time>2018-11-26T17:43:38Z</time>
      </trkpt>
      <trkpt lat="42.14677" lon="2.37594">
        <ele>1169.4</ele>
        <time>2018-11-26T17:43:42Z</time>
      </trkpt>
      <trkpt lat="42.14678" lon="2.37607">
        <ele>1169.1</ele>
        <time>2018-11-26T17:43:46Z</time>
      </trkpt>
      <trkpt lat="42.14675" lon="2.3762">
        <ele>1167.5</ele>
        <time>2018-11-26T17:43:50Z</time>
      </trkpt>
      <trkpt lat="42.14676" lon="2.37626">
        <ele>1166.5</ele>
        <time>2018-11-26T17:43:52Z</time>
      </trkpt>
      <trkpt lat="42.14675" lon="2.3763">
        <ele>1166.5</ele>
        <time>2018-11-26T17:43:53Z</time>
      </trkpt>
      <trkpt lat="42.14675" lon="2.37633">
        <ele>1166.4</ele>
        <time>2018-11-26T17:43:54Z</time>
      </trkpt>
      <trkpt lat="42.14675" lon="2.37636">
        <ele>1165.6</ele>
        <time>2018-11-26T17:43:55Z</time>
      </trkpt>
      <trkpt lat="42.14675" lon="2.37642">
        <ele>1164.9</ele>
        <time>2018-11-26T17:43:56Z</time>
      </trkpt>
      <trkpt lat="42.14675" lon="2.37644">
        <ele>1164.6</ele>
        <time>2018-11-26T17:43:57Z</time>
      </trkpt>
      <trkpt lat="42.14675" lon="2.37648">
        <ele>1163.1</ele>
        <time>2018-11-26T17:43:58Z</time>
      </trkpt>
      <trkpt lat="42.14676" lon="2.37651">
        <ele>1163.1</ele>
        <time>2018-11-26T17:43:59Z</time>
      </trkpt>
      <trkpt lat="42.14676" lon="2.37654">
        <ele>1162.4</ele>
        <time>2018-11-26T17:44:00Z</time>
      </trkpt>
      <trkpt lat="42.14678" lon="2.37656">
        <ele>1161.9</ele>
        <time>2018-11-26T17:44:01Z</time>
      </trkpt>
      <trkpt lat="42.14677" lon="2.37662">
        <ele>1160.1</ele>
        <time>2018-11-26T17:44:03Z</time>
      </trkpt>
      <trkpt lat="42.14675" lon="2.37666">
        <ele>1159</ele>
        <time>2018-11-26T17:44:05Z</time>
      </trkpt>
      <trkpt lat="42.14673" lon="2.37669">
        <ele>1158.6</ele>
        <time>2018-11-26T17:44:06Z</time>
      </trkpt>
      <trkpt lat="42.14673" lon="2.37671">
        <ele>1158.1</ele>
        <time>2018-11-26T17:44:06Z</time>
      </trkpt>
      <trkpt lat="42.14672" lon="2.37674">
        <ele>1158.2</ele>
        <time>2018-11-26T17:44:07Z</time>
      </trkpt>
      <trkpt lat="42.1467" lon="2.37677">
        <ele>1156.9</ele>
        <time>2018-11-26T17:44:08Z</time>
      </trkpt>
      <trkpt lat="42.14665" lon="2.37683">
        <ele>1155.5</ele>
        <time>2018-11-26T17:44:11Z</time>
      </trkpt>
      <trkpt lat="42.14663" lon="2.37685">
        <ele>1155.1</ele>
        <time>2018-11-26T17:44:12Z</time>
      </trkpt>
      <trkpt lat="42.1466" lon="2.37688">
        <ele>1154.2</ele>
        <time>2018-11-26T17:44:14Z</time>
      </trkpt>
      <trkpt lat="42.14658" lon="2.3769">
        <ele>1153</ele>
        <time>2018-11-26T17:44:15Z</time>
      </trkpt>
      <trkpt lat="42.14656" lon="2.37692">
        <ele>1151.8</ele>
        <time>2018-11-26T17:44:16Z</time>
      </trkpt>
      <trkpt lat="42.14654" lon="2.37693">
        <ele>1150.6</ele>
        <time>2018-11-26T17:44:16Z</time>
      </trkpt>
      <trkpt lat="42.14652" lon="2.37694">
        <ele>1150.2</ele>
        <time>2018-11-26T17:44:17Z</time>
      </trkpt>
      <trkpt lat="42.1465" lon="2.37696">
        <ele>1150.1</ele>
        <time>2018-11-26T17:44:18Z</time>
      </trkpt>
      <trkpt lat="42.14648" lon="2.37697">
        <ele>1150</ele>
        <time>2018-11-26T17:44:19Z</time>
      </trkpt>
      <trkpt lat="42.14645" lon="2.37699">
        <ele>1148.8</ele>
        <time>2018-11-26T17:44:20Z</time>
      </trkpt>
      <trkpt lat="42.14643" lon="2.377">
        <ele>1147.8</ele>
        <time>2018-11-26T17:44:21Z</time>
      </trkpt>
      <trkpt lat="42.14641" lon="2.37702">
        <ele>1146.8</ele>
        <time>2018-11-26T17:44:22Z</time>
      </trkpt>
      <trkpt lat="42.14639" lon="2.37703">
        <ele>1146.5</ele>
        <time>2018-11-26T17:44:23Z</time>
      </trkpt>
      <trkpt lat="42.14637" lon="2.37704">
        <ele>1145.8</ele>
        <time>2018-11-26T17:44:24Z</time>
      </trkpt>
      <trkpt lat="42.14634" lon="2.37705">
        <ele>1145.6</ele>
        <time>2018-11-26T17:44:25Z</time>
      </trkpt>
      <trkpt lat="42.14633" lon="2.37707">
        <ele>1145.5</ele>
        <time>2018-11-26T17:44:26Z</time>
      </trkpt>
      <trkpt lat="42.14624" lon="2.37713">
        <ele>1141.8</ele>
        <time>2018-11-26T17:44:30Z</time>
      </trkpt>
      <trkpt lat="42.14623" lon="2.37714">
        <ele>1141.2</ele>
        <time>2018-11-26T17:44:31Z</time>
      </trkpt>
      <trkpt lat="42.14621" lon="2.37716">
        <ele>1141.2</ele>
        <time>2018-11-26T17:44:31Z</time>
      </trkpt>
      <trkpt lat="42.14618" lon="2.37722">
        <ele>1140.4</ele>
        <time>2018-11-26T17:44:34Z</time>
      </trkpt>
      <trkpt lat="42.14617" lon="2.37724">
        <ele>1140.1</ele>
        <time>2018-11-26T17:44:34Z</time>
      </trkpt>
      <trkpt lat="42.14615" lon="2.37727">
        <ele>1138.5</ele>
        <time>2018-11-26T17:44:35Z</time>
      </trkpt>
      <trkpt lat="42.14613" lon="2.37729">
        <ele>1138.5</ele>
        <time>2018-11-26T17:44:36Z</time>
      </trkpt>
      <trkpt lat="42.14612" lon="2.37732">
        <ele>1137</ele>
        <time>2018-11-26T17:44:37Z</time>
      </trkpt>
      <trkpt lat="42.1461" lon="2.37736">
        <ele>1136.2</ele>
        <time>2018-11-26T17:44:39Z</time>
      </trkpt>
      <trkpt lat="42.14609" lon="2.37739">
        <ele>1135.1</ele>
        <time>2018-11-26T17:44:40Z</time>
      </trkpt>
      <trkpt lat="42.14606" lon="2.37743">
        <ele>1132.5</ele>
        <time>2018-11-26T17:44:42Z</time>
      </trkpt>
      <trkpt lat="42.14604" lon="2.37747">
        <ele>1131.4</ele>
        <time>2018-11-26T17:44:43Z</time>
      </trkpt>
      <trkpt lat="42.14603" lon="2.3775">
        <ele>1130.8</ele>
        <time>2018-11-26T17:44:44Z</time>
      </trkpt>
      <trkpt lat="42.14603" lon="2.37753">
        <ele>1129.5</ele>
        <time>2018-11-26T17:44:45Z</time>
      </trkpt>
      <trkpt lat="42.14604" lon="2.37755">
        <ele>1129.1</ele>
        <time>2018-11-26T17:44:45Z</time>
      </trkpt>
      <trkpt lat="42.14603" lon="2.37758">
        <ele>1128.9</ele>
        <time>2018-11-26T17:44:46Z</time>
      </trkpt>
      <trkpt lat="42.14601" lon="2.37759">
        <ele>1127.9</ele>
        <time>2018-11-26T17:44:47Z</time>
      </trkpt>
      <trkpt lat="42.14599" lon="2.3776">
        <ele>1127.5</ele>
        <time>2018-11-26T17:44:48Z</time>
      </trkpt>
      <trkpt lat="42.14597" lon="2.37761">
        <ele>1127.1</ele>
        <time>2018-11-26T17:44:49Z</time>
      </trkpt>
      <trkpt lat="42.14595" lon="2.37762">
        <ele>1125.5</ele>
        <time>2018-11-26T17:44:50Z</time>
      </trkpt>
      <trkpt lat="42.14592" lon="2.37765">
        <ele>1125.1</ele>
        <time>2018-11-26T17:44:51Z</time>
      </trkpt>
      <trkpt lat="42.14591" lon="2.37767">
        <ele>1124.5</ele>
        <time>2018-11-26T17:44:52Z</time>
      </trkpt>
      <trkpt lat="42.1459" lon="2.37771">
        <ele>1124.5</ele>
        <time>2018-11-26T17:44:53Z</time>
      </trkpt>
      <trkpt lat="42.1459" lon="2.37775">
        <ele>1124.1</ele>
        <time>2018-11-26T17:44:55Z</time>
      </trkpt>
      <trkpt lat="42.14589" lon="2.37779">
        <ele>1123.5</ele>
        <time>2018-11-26T17:44:56Z</time>
      </trkpt>
      <trkpt lat="42.14588" lon="2.37784">
        <ele>1122.1</ele>
        <time>2018-11-26T17:44:57Z</time>
      </trkpt>
      <trkpt lat="42.14588" lon="2.37786">
        <ele>1120.6</ele>
        <time>2018-11-26T17:44:58Z</time>
      </trkpt>
      <trkpt lat="42.14587" lon="2.37791">
        <ele>1120.6</ele>
        <time>2018-11-26T17:44:59Z</time>
      </trkpt>
      <trkpt lat="42.14587" lon="2.37795">
        <ele>1120.2</ele>
        <time>2018-11-26T17:45:00Z</time>
      </trkpt>
      <trkpt lat="42.14585" lon="2.37798">
        <ele>1118.9</ele>
        <time>2018-11-26T17:45:02Z</time>
      </trkpt>
      <trkpt lat="42.14584" lon="2.37802">
        <ele>1118.5</ele>
        <time>2018-11-26T17:45:03Z</time>
      </trkpt>
      <trkpt lat="42.14584" lon="2.37805">
        <ele>1118.1</ele>
        <time>2018-11-26T17:45:04Z</time>
      </trkpt>
      <trkpt lat="42.14583" lon="2.37809">
        <ele>1117.9</ele>
        <time>2018-11-26T17:45:05Z</time>
      </trkpt>
      <trkpt lat="42.14582" lon="2.37813">
        <ele>1117</ele>
        <time>2018-11-26T17:45:06Z</time>
      </trkpt>
      <trkpt lat="42.14581" lon="2.37816">
        <ele>1116.2</ele>
        <time>2018-11-26T17:45:07Z</time>
      </trkpt>
      <trkpt lat="42.14579" lon="2.3782">
        <ele>1115.8</ele>
        <time>2018-11-26T17:45:09Z</time>
      </trkpt>
      <trkpt lat="42.14578" lon="2.37824">
        <ele>1115.8</ele>
        <time>2018-11-26T17:45:10Z</time>
      </trkpt>
      <trkpt lat="42.14577" lon="2.37827">
        <ele>1113.9</ele>
        <time>2018-11-26T17:45:11Z</time>
      </trkpt>
      <trkpt lat="42.14576" lon="2.3783">
        <ele>1113.4</ele>
        <time>2018-11-26T17:45:12Z</time>
      </trkpt>
      <trkpt lat="42.14573" lon="2.37833">
        <ele>1114.1</ele>
        <time>2018-11-26T17:45:13Z</time>
      </trkpt>
      <trkpt lat="42.14571" lon="2.37836">
        <ele>1112.9</ele>
        <time>2018-11-26T17:45:14Z</time>
      </trkpt>
      <trkpt lat="42.14569" lon="2.37838">
        <ele>1112.1</ele>
        <time>2018-11-26T17:45:15Z</time>
      </trkpt>
      <trkpt lat="42.14568" lon="2.37841">
        <ele>1112.1</ele>
        <time>2018-11-26T17:45:17Z</time>
      </trkpt>
      <trkpt lat="42.14567" lon="2.37845">
        <ele>1110.4</ele>
        <time>2018-11-26T17:45:18Z</time>
      </trkpt>
      <trkpt lat="42.14566" lon="2.37849">
        <ele>1109.2</ele>
        <time>2018-11-26T17:45:19Z</time>
      </trkpt>
      <trkpt lat="42.14564" lon="2.37852">
        <ele>1109.1</ele>
        <time>2018-11-26T17:45:20Z</time>
      </trkpt>
      <trkpt lat="42.14561" lon="2.37854">
        <ele>1109</ele>
        <time>2018-11-26T17:45:22Z</time>
      </trkpt>
      <trkpt lat="42.14558" lon="2.37856">
        <ele>1108.1</ele>
        <time>2018-11-26T17:45:23Z</time>
      </trkpt>
      <trkpt lat="42.14557" lon="2.37859">
        <ele>1107.5</ele>
        <time>2018-11-26T17:45:24Z</time>
      </trkpt>
      <trkpt lat="42.14554" lon="2.37862">
        <ele>1107.6</ele>
        <time>2018-11-26T17:45:25Z</time>
      </trkpt>
      <trkpt lat="42.14552" lon="2.37864">
        <ele>1105.6</ele>
        <time>2018-11-26T17:45:26Z</time>
      </trkpt>
      <trkpt lat="42.1455" lon="2.37867">
        <ele>1104.4</ele>
        <time>2018-11-26T17:45:27Z</time>
      </trkpt>
      <trkpt lat="42.14548" lon="2.37869">
        <ele>1104.2</ele>
        <time>2018-11-26T17:45:28Z</time>
      </trkpt>
      <trkpt lat="42.14547" lon="2.37872">
        <ele>1103.5</ele>
        <time>2018-11-26T17:45:29Z</time>
      </trkpt>
      <trkpt lat="42.14545" lon="2.37875">
        <ele>1102.9</ele>
        <time>2018-11-26T17:45:30Z</time>
      </trkpt>
      <trkpt lat="42.14544" lon="2.37879">
        <ele>1102.1</ele>
        <time>2018-11-26T17:45:32Z</time>
      </trkpt>
      <trkpt lat="42.14542" lon="2.37882">
        <ele>1102.1</ele>
        <time>2018-11-26T17:45:33Z</time>
      </trkpt>
      <trkpt lat="42.1454" lon="2.37884">
        <ele>1100.4</ele>
        <time>2018-11-26T17:45:34Z</time>
      </trkpt>
      <trkpt lat="42.14538" lon="2.37887">
        <ele>1099.5</ele>
        <time>2018-11-26T17:45:35Z</time>
      </trkpt>
      <trkpt lat="42.14535" lon="2.37888">
        <ele>1100</ele>
        <time>2018-11-26T17:45:36Z</time>
      </trkpt>
      <trkpt lat="42.14533" lon="2.37889">
        <ele>1099.1</ele>
        <time>2018-11-26T17:45:37Z</time>
      </trkpt>
      <trkpt lat="42.14531" lon="2.37891">
        <ele>1098.2</ele>
        <time>2018-11-26T17:45:38Z</time>
      </trkpt>
      <trkpt lat="42.1453" lon="2.37893">
        <ele>1096.5</ele>
        <time>2018-11-26T17:45:39Z</time>
      </trkpt>
      <trkpt lat="42.14527" lon="2.37896">
        <ele>1096.1</ele>
        <time>2018-11-26T17:45:40Z</time>
      </trkpt>
      <trkpt lat="42.14525" lon="2.37898">
        <ele>1095.9</ele>
        <time>2018-11-26T17:45:41Z</time>
      </trkpt>
      <trkpt lat="42.14523" lon="2.37899">
        <ele>1095</ele>
        <time>2018-11-26T17:45:42Z</time>
      </trkpt>
      <trkpt lat="42.14521" lon="2.37902">
        <ele>1094.6</ele>
        <time>2018-11-26T17:45:43Z</time>
      </trkpt>
      <trkpt lat="42.1452" lon="2.37904">
        <ele>1094.1</ele>
        <time>2018-11-26T17:45:44Z</time>
      </trkpt>
      <trkpt lat="42.14518" lon="2.37906">
        <ele>1093.1</ele>
        <time>2018-11-26T17:45:45Z</time>
      </trkpt>
      <trkpt lat="42.14517" lon="2.37908">
        <ele>1093</ele>
        <time>2018-11-26T17:45:46Z</time>
      </trkpt>
      <trkpt lat="42.14514" lon="2.37911">
        <ele>1093</ele>
        <time>2018-11-26T17:45:47Z</time>
      </trkpt>
      <trkpt lat="42.14513" lon="2.37912">
        <ele>1093</ele>
        <time>2018-11-26T17:45:48Z</time>
      </trkpt>
      <trkpt lat="42.1451" lon="2.37915">
        <ele>1092</ele>
        <time>2018-11-26T17:45:49Z</time>
      </trkpt>
      <trkpt lat="42.14508" lon="2.37917">
        <ele>1091.5</ele>
        <time>2018-11-26T17:45:51Z</time>
      </trkpt>
      <trkpt lat="42.14506" lon="2.37917">
        <ele>1090.6</ele>
        <time>2018-11-26T17:45:51Z</time>
      </trkpt>
      <trkpt lat="42.14502" lon="2.37919">
        <ele>1089.2</ele>
        <time>2018-11-26T17:45:53Z</time>
      </trkpt>
      <trkpt lat="42.14501" lon="2.37919">
        <ele>1089.2</ele>
        <time>2018-11-26T17:45:53Z</time>
      </trkpt>
      <trkpt lat="42.14499" lon="2.3792">
        <ele>1088.6</ele>
        <time>2018-11-26T17:45:54Z</time>
      </trkpt>
      <trkpt lat="42.14497" lon="2.37921">
        <ele>1088.5</ele>
        <time>2018-11-26T17:45:55Z</time>
      </trkpt>
      <trkpt lat="42.14495" lon="2.37922">
        <ele>1088.1</ele>
        <time>2018-11-26T17:45:56Z</time>
      </trkpt>
      <trkpt lat="42.14493" lon="2.37922">
        <ele>1087.6</ele>
        <time>2018-11-26T17:45:57Z</time>
      </trkpt>
      <trkpt lat="42.14491" lon="2.37922">
        <ele>1087.6</ele>
        <time>2018-11-26T17:45:57Z</time>
      </trkpt>
      <trkpt lat="42.14487" lon="2.37922">
        <ele>1087</ele>
        <time>2018-11-26T17:45:59Z</time>
      </trkpt>
      <trkpt lat="42.14485" lon="2.37922">
        <ele>1085.8</ele>
        <time>2018-11-26T17:46:00Z</time>
      </trkpt>
      <trkpt lat="42.14482" lon="2.37923">
        <ele>1083.8</ele>
        <time>2018-11-26T17:46:01Z</time>
      </trkpt>
      <trkpt lat="42.1448" lon="2.37924">
        <ele>1083.5</ele>
        <time>2018-11-26T17:46:02Z</time>
      </trkpt>
      <trkpt lat="42.14477" lon="2.37925">
        <ele>1083.2</ele>
        <time>2018-11-26T17:46:03Z</time>
      </trkpt>
      <trkpt lat="42.14474" lon="2.37925">
        <ele>1083</ele>
        <time>2018-11-26T17:46:04Z</time>
      </trkpt>
      <trkpt lat="42.14471" lon="2.37923">
        <ele>1081.8</ele>
        <time>2018-11-26T17:46:06Z</time>
      </trkpt>
      <trkpt lat="42.14469" lon="2.37923">
        <ele>1081.6</ele>
        <time>2018-11-26T17:46:06Z</time>
      </trkpt>
      <trkpt lat="42.14467" lon="2.37922">
        <ele>1080.6</ele>
        <time>2018-11-26T17:46:07Z</time>
      </trkpt>
      <trkpt lat="42.14464" lon="2.37922">
        <ele>1080</ele>
        <time>2018-11-26T17:46:09Z</time>
      </trkpt>
      <trkpt lat="42.14461" lon="2.37922">
        <ele>1079</ele>
        <time>2018-11-26T17:46:10Z</time>
      </trkpt>
      <trkpt lat="42.14457" lon="2.37921">
        <ele>1078</ele>
        <time>2018-11-26T17:46:11Z</time>
      </trkpt>
      <trkpt lat="42.14454" lon="2.37921">
        <ele>1077</ele>
        <time>2018-11-26T17:46:12Z</time>
      </trkpt>
      <trkpt lat="42.14451" lon="2.3792">
        <ele>1076.4</ele>
        <time>2018-11-26T17:46:14Z</time>
      </trkpt>
      <trkpt lat="42.14449" lon="2.37919">
        <ele>1076.1</ele>
        <time>2018-11-26T17:46:15Z</time>
      </trkpt>
      <trkpt lat="42.14447" lon="2.37915">
        <ele>1075.5</ele>
        <time>2018-11-26T17:46:16Z</time>
      </trkpt>
      <trkpt lat="42.14444" lon="2.37913">
        <ele>1074.2</ele>
        <time>2018-11-26T17:46:17Z</time>
      </trkpt>
      <trkpt lat="42.14443" lon="2.37911">
        <ele>1073.5</ele>
        <time>2018-11-26T17:46:18Z</time>
      </trkpt>
      <trkpt lat="42.1444" lon="2.3791">
        <ele>1072.5</ele>
        <time>2018-11-26T17:46:19Z</time>
      </trkpt>
      <trkpt lat="42.14438" lon="2.37908">
        <ele>1070.6</ele>
        <time>2018-11-26T17:46:20Z</time>
      </trkpt>
      <trkpt lat="42.14436" lon="2.37906">
        <ele>1070.1</ele>
        <time>2018-11-26T17:46:21Z</time>
      </trkpt>
      <trkpt lat="42.14434" lon="2.37905">
        <ele>1069.1</ele>
        <time>2018-11-26T17:46:22Z</time>
      </trkpt>
      <trkpt lat="42.14431" lon="2.37905">
        <ele>1067.9</ele>
        <time>2018-11-26T17:46:23Z</time>
      </trkpt>
      <trkpt lat="42.14428" lon="2.37907">
        <ele>1067.1</ele>
        <time>2018-11-26T17:46:24Z</time>
      </trkpt>
      <trkpt lat="42.14425" lon="2.37907">
        <ele>1067.2</ele>
        <time>2018-11-26T17:46:26Z</time>
      </trkpt>
      <trkpt lat="42.14421" lon="2.37906">
        <ele>1066.5</ele>
        <time>2018-11-26T17:46:27Z</time>
      </trkpt>
      <trkpt lat="42.14418" lon="2.37904">
        <ele>1066.5</ele>
        <time>2018-11-26T17:46:29Z</time>
      </trkpt>
      <trkpt lat="42.14416" lon="2.37903">
        <ele>1066.1</ele>
        <time>2018-11-26T17:46:29Z</time>
      </trkpt>
      <trkpt lat="42.14415" lon="2.379">
        <ele>1065.8</ele>
        <time>2018-11-26T17:46:31Z</time>
      </trkpt>
      <trkpt lat="42.14414" lon="2.37897">
        <ele>1065.9</ele>
        <time>2018-11-26T17:46:31Z</time>
      </trkpt>
      <trkpt lat="42.14413" lon="2.37895">
        <ele>1065.9</ele>
        <time>2018-11-26T17:46:32Z</time>
      </trkpt>
      <trkpt lat="42.14413" lon="2.37892">
        <ele>1065.9</ele>
        <time>2018-11-26T17:46:33Z</time>
      </trkpt>
      <trkpt lat="42.14411" lon="2.3788">
        <ele>1065.5</ele>
        <time>2018-11-26T17:46:37Z</time>
      </trkpt>
      <trkpt lat="42.14409" lon="2.37873">
        <ele>1065.5</ele>
        <time>2018-11-26T17:46:39Z</time>
      </trkpt>
      <trkpt lat="42.14407" lon="2.3787">
        <ele>1065.5</ele>
        <time>2018-11-26T17:46:40Z</time>
      </trkpt>
      <trkpt lat="42.14406" lon="2.37867">
        <ele>1065.5</ele>
        <time>2018-11-26T17:46:41Z</time>
      </trkpt>
      <trkpt lat="42.14404" lon="2.37863">
        <ele>1065</ele>
        <time>2018-11-26T17:46:42Z</time>
      </trkpt>
      <trkpt lat="42.14402" lon="2.3786">
        <ele>1064.5</ele>
        <time>2018-11-26T17:46:44Z</time>
      </trkpt>
      <trkpt lat="42.144" lon="2.37855">
        <ele>1063.8</ele>
        <time>2018-11-26T17:46:45Z</time>
      </trkpt>
      <trkpt lat="42.144" lon="2.37853">
        <ele>1063.6</ele>
        <time>2018-11-26T17:46:46Z</time>
      </trkpt>
      <trkpt lat="42.144" lon="2.37849">
        <ele>1063.6</ele>
        <time>2018-11-26T17:46:47Z</time>
      </trkpt>
      <trkpt lat="42.144" lon="2.37846">
        <ele>1063.6</ele>
        <time>2018-11-26T17:46:48Z</time>
      </trkpt>
      <trkpt lat="42.14401" lon="2.37844">
        <ele>1062.9</ele>
        <time>2018-11-26T17:46:49Z</time>
      </trkpt>
      <trkpt lat="42.14402" lon="2.37841">
        <ele>1062.6</ele>
        <time>2018-11-26T17:46:50Z</time>
      </trkpt>
      <trkpt lat="42.14404" lon="2.37839">
        <ele>1062.4</ele>
        <time>2018-11-26T17:46:51Z</time>
      </trkpt>
      <trkpt lat="42.14405" lon="2.37835">
        <ele>1061.9</ele>
        <time>2018-11-26T17:46:52Z</time>
      </trkpt>
      <trkpt lat="42.14405" lon="2.37832">
        <ele>1062.1</ele>
        <time>2018-11-26T17:46:53Z</time>
      </trkpt>
      <trkpt lat="42.14405" lon="2.37829">
        <ele>1061.8</ele>
        <time>2018-11-26T17:46:54Z</time>
      </trkpt>
      <trkpt lat="42.14407" lon="2.37821">
        <ele>1061.8</ele>
        <time>2018-11-26T17:46:56Z</time>
      </trkpt>
      <trkpt lat="42.14406" lon="2.37818">
        <ele>1062.1</ele>
        <time>2018-11-26T17:46:57Z</time>
      </trkpt>
      <trkpt lat="42.14407" lon="2.37814">
        <ele>1062.1</ele>
        <time>2018-11-26T17:46:58Z</time>
      </trkpt>
      <trkpt lat="42.14407" lon="2.37812">
        <ele>1062.2</ele>
        <time>2018-11-26T17:46:59Z</time>
      </trkpt>
      <trkpt lat="42.14408" lon="2.37809">
        <ele>1062.2</ele>
        <time>2018-11-26T17:47:00Z</time>
      </trkpt>
      <trkpt lat="42.14409" lon="2.37806">
        <ele>1062</ele>
        <time>2018-11-26T17:47:01Z</time>
      </trkpt>
      <trkpt lat="42.14411" lon="2.37804">
        <ele>1062.9</ele>
        <time>2018-11-26T17:47:02Z</time>
      </trkpt>
      <trkpt lat="42.14412" lon="2.37791">
        <ele>1062.9</ele>
        <time>2018-11-26T17:47:06Z</time>
      </trkpt>
      <trkpt lat="42.14413" lon="2.37778">
        <ele>1063.4</ele>
        <time>2018-11-26T17:47:09Z</time>
      </trkpt>
      <trkpt lat="42.14409" lon="2.37767">
        <ele>1063.4</ele>
        <time>2018-11-26T17:47:13Z</time>
      </trkpt>
      <trkpt lat="42.14408" lon="2.37753">
        <ele>1062.4</ele>
        <time>2018-11-26T17:47:17Z</time>
      </trkpt>
      <trkpt lat="42.14399" lon="2.37745">
        <ele>1061.6</ele>
        <time>2018-11-26T17:47:21Z</time>
      </trkpt>
      <trkpt lat="42.14392" lon="2.37739">
        <ele>1061.5</ele>
        <time>2018-11-26T17:47:25Z</time>
      </trkpt>
      <trkpt lat="42.14383" lon="2.37731">
        <ele>1060.8</ele>
        <time>2018-11-26T17:47:29Z</time>
      </trkpt>
      <trkpt lat="42.14376" lon="2.37726">
        <ele>1060.5</ele>
        <time>2018-11-26T17:47:32Z</time>
      </trkpt>
      <trkpt lat="42.14373" lon="2.37724">
        <ele>1059.9</ele>
        <time>2018-11-26T17:47:34Z</time>
      </trkpt>
      <trkpt lat="42.14371" lon="2.37723">
        <ele>1059.2</ele>
        <time>2018-11-26T17:47:34Z</time>
      </trkpt>
      <trkpt lat="42.14368" lon="2.37722">
        <ele>1058.5</ele>
        <time>2018-11-26T17:47:36Z</time>
      </trkpt>
      <trkpt lat="42.14365" lon="2.37722">
        <ele>1057.2</ele>
        <time>2018-11-26T17:47:37Z</time>
      </trkpt>
      <trkpt lat="42.14362" lon="2.37721">
        <ele>1056.5</ele>
        <time>2018-11-26T17:47:38Z</time>
      </trkpt>
      <trkpt lat="42.14358" lon="2.37721">
        <ele>1056.1</ele>
        <time>2018-11-26T17:47:40Z</time>
      </trkpt>
      <trkpt lat="42.14355" lon="2.37722">
        <ele>1054.8</ele>
        <time>2018-11-26T17:47:41Z</time>
      </trkpt>
      <trkpt lat="42.14353" lon="2.37721">
        <ele>1054.6</ele>
        <time>2018-11-26T17:47:42Z</time>
      </trkpt>
      <trkpt lat="42.14351" lon="2.3772">
        <ele>1054.5</ele>
        <time>2018-11-26T17:47:43Z</time>
      </trkpt>
      <trkpt lat="42.14349" lon="2.3772">
        <ele>1054.4</ele>
        <time>2018-11-26T17:47:43Z</time>
      </trkpt>
      <trkpt lat="42.14348" lon="2.37718">
        <ele>1053.8</ele>
        <time>2018-11-26T17:47:44Z</time>
      </trkpt>
      <trkpt lat="42.14345" lon="2.37715">
        <ele>1053.1</ele>
        <time>2018-11-26T17:47:45Z</time>
      </trkpt>
      <trkpt lat="42.14343" lon="2.37715">
        <ele>1051.9</ele>
        <time>2018-11-26T17:47:46Z</time>
      </trkpt>
      <trkpt lat="42.1434" lon="2.37714">
        <ele>1050.5</ele>
        <time>2018-11-26T17:47:47Z</time>
      </trkpt>
      <trkpt lat="42.14339" lon="2.3771">
        <ele>1050.5</ele>
        <time>2018-11-26T17:47:49Z</time>
      </trkpt>
      <trkpt lat="42.14337" lon="2.37706">
        <ele>1050.4</ele>
        <time>2018-11-26T17:47:50Z</time>
      </trkpt>
      <trkpt lat="42.14337" lon="2.37703">
        <ele>1050.4</ele>
        <time>2018-11-26T17:47:51Z</time>
      </trkpt>
      <trkpt lat="42.14337" lon="2.37699">
        <ele>1049.2</ele>
        <time>2018-11-26T17:47:52Z</time>
      </trkpt>
      <trkpt lat="42.14336" lon="2.37696">
        <ele>1048.1</ele>
        <time>2018-11-26T17:47:53Z</time>
      </trkpt>
      <trkpt lat="42.14335" lon="2.37694">
        <ele>1047.2</ele>
        <time>2018-11-26T17:47:54Z</time>
      </trkpt>
      <trkpt lat="42.14332" lon="2.37692">
        <ele>1046.9</ele>
        <time>2018-11-26T17:47:55Z</time>
      </trkpt>
      <trkpt lat="42.1433" lon="2.3769">
        <ele>1045.8</ele>
        <time>2018-11-26T17:47:56Z</time>
      </trkpt>
      <trkpt lat="42.14328" lon="2.37687">
        <ele>1045.4</ele>
        <time>2018-11-26T17:47:57Z</time>
      </trkpt>
      <trkpt lat="42.14326" lon="2.37685">
        <ele>1045.8</ele>
        <time>2018-11-26T17:47:58Z</time>
      </trkpt>
      <trkpt lat="42.14324" lon="2.37683">
        <ele>1045.6</ele>
        <time>2018-11-26T17:47:59Z</time>
      </trkpt>
      <trkpt lat="42.14323" lon="2.37681">
        <ele>1045.4</ele>
        <time>2018-11-26T17:48:00Z</time>
      </trkpt>
      <trkpt lat="42.14321" lon="2.37676">
        <ele>1045.1</ele>
        <time>2018-11-26T17:48:02Z</time>
      </trkpt>
      <trkpt lat="42.14314" lon="2.37665">
        <ele>1045.5</ele>
        <time>2018-11-26T17:48:06Z</time>
      </trkpt>
      <trkpt lat="42.14311" lon="2.37663">
        <ele>1045</ele>
        <time>2018-11-26T17:48:07Z</time>
      </trkpt>
      <trkpt lat="42.14306" lon="2.37656">
        <ele>1043.9</ele>
        <time>2018-11-26T17:48:10Z</time>
      </trkpt>
      <trkpt lat="42.14304" lon="2.37655">
        <ele>1043.9</ele>
        <time>2018-11-26T17:48:11Z</time>
      </trkpt>
      <trkpt lat="42.14297" lon="2.37647">
        <ele>1042.6</ele>
        <time>2018-11-26T17:48:15Z</time>
      </trkpt>
      <trkpt lat="42.14297" lon="2.37641">
        <ele>1042</ele>
        <time>2018-11-26T17:48:16Z</time>
      </trkpt>
      <trkpt lat="42.14296" lon="2.37639">
        <ele>1041.5</ele>
        <time>2018-11-26T17:48:17Z</time>
      </trkpt>
      <trkpt lat="42.14295" lon="2.37636">
        <ele>1041.1</ele>
        <time>2018-11-26T17:48:18Z</time>
      </trkpt>
      <trkpt lat="42.14294" lon="2.37632">
        <ele>1041.1</ele>
        <time>2018-11-26T17:48:19Z</time>
      </trkpt>
      <trkpt lat="42.14293" lon="2.37629">
        <ele>1041.1</ele>
        <time>2018-11-26T17:48:20Z</time>
      </trkpt>
      <trkpt lat="42.14292" lon="2.37626">
        <ele>1041.2</ele>
        <time>2018-11-26T17:48:21Z</time>
      </trkpt>
      <trkpt lat="42.14291" lon="2.37623">
        <ele>1041.1</ele>
        <time>2018-11-26T17:48:22Z</time>
      </trkpt>
      <trkpt lat="42.1429" lon="2.37621">
        <ele>1042</ele>
        <time>2018-11-26T17:48:23Z</time>
      </trkpt>
      <trkpt lat="42.14288" lon="2.37619">
        <ele>1042.1</ele>
        <time>2018-11-26T17:48:24Z</time>
      </trkpt>
      <trkpt lat="42.14286" lon="2.37618">
        <ele>1041.5</ele>
        <time>2018-11-26T17:48:25Z</time>
      </trkpt>
      <trkpt lat="42.14285" lon="2.37616">
        <ele>1041.6</ele>
        <time>2018-11-26T17:48:25Z</time>
      </trkpt>
      <trkpt lat="42.14282" lon="2.37614">
        <ele>1041.6</ele>
        <time>2018-11-26T17:48:27Z</time>
      </trkpt>
      <trkpt lat="42.14279" lon="2.37611">
        <ele>1042.1</ele>
        <time>2018-11-26T17:48:28Z</time>
      </trkpt>
      <trkpt lat="42.14277" lon="2.37609">
        <ele>1041.9</ele>
        <time>2018-11-26T17:48:29Z</time>
      </trkpt>
      <trkpt lat="42.14275" lon="2.37606">
        <ele>1041.8</ele>
        <time>2018-11-26T17:48:30Z</time>
      </trkpt>
      <trkpt lat="42.1429" lon="2.37738">
        <ele>980.2</ele>
        <time>2018-11-26T21:02:20Z</time>
      </trkpt>
      <trkpt lat="42.14295" lon="2.37739">
        <ele>981.8</ele>
        <time>2018-11-26T21:02:22Z</time>
      </trkpt>
      <trkpt lat="42.143" lon="2.37742">
        <ele>984.5</ele>
        <time>2018-11-26T21:02:24Z</time>
      </trkpt>
      <trkpt lat="42.14304" lon="2.37745">
        <ele>988.6</ele>
        <time>2018-11-26T21:02:26Z</time>
      </trkpt>
      <trkpt lat="42.14304" lon="2.37751">
        <ele>991.9</ele>
        <time>2018-11-26T21:02:27Z</time>
      </trkpt>
      <trkpt lat="42.14307" lon="2.37756">
        <ele>993.1</ele>
        <time>2018-11-26T21:02:29Z</time>
      </trkpt>
      <trkpt lat="42.14308" lon="2.37763">
        <ele>994.5</ele>
        <time>2018-11-26T21:02:31Z</time>
      </trkpt>
      <trkpt lat="42.14306" lon="2.37772">
        <ele>996</ele>
        <time>2018-11-26T21:02:34Z</time>
      </trkpt>
      <trkpt lat="42.14306" lon="2.37778">
        <ele>997</ele>
        <time>2018-11-26T21:02:36Z</time>
      </trkpt>
      <trkpt lat="42.14305" lon="2.37786">
        <ele>997.7</ele>
        <time>2018-11-26T21:02:38Z</time>
      </trkpt>
      <trkpt lat="42.14303" lon="2.37791">
        <ele>998.1</ele>
        <time>2018-11-26T21:02:40Z</time>
      </trkpt>
      <trkpt lat="42.14308" lon="2.37793">
        <ele>999.8</ele>
        <time>2018-11-26T21:02:42Z</time>
      </trkpt>
      <trkpt lat="42.14312" lon="2.37788">
        <ele>1002.2</ele>
        <time>2018-11-26T21:02:44Z</time>
      </trkpt>
      <trkpt lat="42.14315" lon="2.37784">
        <ele>1004.4</ele>
        <time>2018-11-26T21:02:46Z</time>
      </trkpt>
      <trkpt lat="42.1432" lon="2.37782">
        <ele>1007.1</ele>
        <time>2018-11-26T21:02:48Z</time>
      </trkpt>
      <trkpt lat="42.14325" lon="2.37779">
        <ele>1008.9</ele>
        <time>2018-11-26T21:02:50Z</time>
      </trkpt>
      <trkpt lat="42.14329" lon="2.37777">
        <ele>1011.1</ele>
        <time>2018-11-26T21:02:52Z</time>
      </trkpt>
      <trkpt lat="42.14333" lon="2.37771">
        <ele>1015.4</ele>
        <time>2018-11-26T21:02:54Z</time>
      </trkpt>
      <trkpt lat="42.14338" lon="2.37767">
        <ele>1017.4</ele>
        <time>2018-11-26T21:02:57Z</time>
      </trkpt>
      <trkpt lat="42.14343" lon="2.37767">
        <ele>1020.2</ele>
        <time>2018-11-26T21:02:59Z</time>
      </trkpt>
      <trkpt lat="42.14348" lon="2.37763">
        <ele>1021.8</ele>
        <time>2018-11-26T21:03:01Z</time>
      </trkpt>
      <trkpt lat="42.14347" lon="2.37769">
        <ele>1025.2</ele>
        <time>2018-11-26T21:03:03Z</time>
      </trkpt>
      <trkpt lat="42.1435" lon="2.37765">
        <ele>1027.6</ele>
        <time>2018-11-26T21:03:05Z</time>
      </trkpt>
      <trkpt lat="42.14355" lon="2.37765">
        <ele>1029.7</ele>
        <time>2018-11-26T21:03:07Z</time>
      </trkpt>
      <trkpt lat="42.1436" lon="2.37768">
        <ele>1031.8</ele>
        <time>2018-11-26T21:03:09Z</time>
      </trkpt>
      <trkpt lat="42.14364" lon="2.37766">
        <ele>1034.1</ele>
        <time>2018-11-26T21:03:10Z</time>
      </trkpt>
      <trkpt lat="42.14367" lon="2.37761">
        <ele>1037.9</ele>
        <time>2018-11-26T21:03:12Z</time>
      </trkpt>
      <trkpt lat="42.14372" lon="2.37759">
        <ele>1040.7</ele>
        <time>2018-11-26T21:03:14Z</time>
      </trkpt>
      <trkpt lat="42.14376" lon="2.37755">
        <ele>1042.1</ele>
        <time>2018-11-26T21:03:16Z</time>
      </trkpt>
      <trkpt lat="42.14381" lon="2.37752">
        <ele>1042.7</ele>
        <time>2018-11-26T21:03:19Z</time>
      </trkpt>
      <trkpt lat="42.14378" lon="2.37747">
        <ele>1045.6</ele>
        <time>2018-11-26T21:03:21Z</time>
      </trkpt>
      <trkpt lat="42.14378" lon="2.3774">
        <ele>1047.6</ele>
        <time>2018-11-26T21:03:23Z</time>
      </trkpt>
      <trkpt lat="42.14375" lon="2.37735">
        <ele>1049.3</ele>
        <time>2018-11-26T21:03:24Z</time>
      </trkpt>
      <trkpt lat="42.14373" lon="2.3773">
        <ele>1050.1</ele>
        <time>2018-11-26T21:03:26Z</time>
      </trkpt>
      <trkpt lat="42.1437" lon="2.37724">
        <ele>1050.5</ele>
        <time>2018-11-26T21:03:28Z</time>
      </trkpt>
      <trkpt lat="42.14367" lon="2.37719">
        <ele>1050.8</ele>
        <time>2018-11-26T21:03:30Z</time>
      </trkpt>
      <trkpt lat="42.14369" lon="2.37713">
        <ele>1051.4</ele>
        <time>2018-11-26T21:03:32Z</time>
      </trkpt>
      <trkpt lat="42.14368" lon="2.37707">
        <ele>1051.7</ele>
        <time>2018-11-26T21:03:34Z</time>
      </trkpt>
      <trkpt lat="42.14365" lon="2.37702">
        <ele>1050.1</ele>
        <time>2018-11-26T21:03:36Z</time>
      </trkpt>
      <trkpt lat="42.14365" lon="2.37695">
        <ele>1049.8</ele>
        <time>2018-11-26T21:03:38Z</time>
      </trkpt>
      <trkpt lat="42.14367" lon="2.37689">
        <ele>1049.7</ele>
        <time>2018-11-26T21:03:40Z</time>
      </trkpt>
      <trkpt lat="42.14366" lon="2.37683">
        <ele>1049</ele>
        <time>2018-11-26T21:03:42Z</time>
      </trkpt>
      <trkpt lat="42.14361" lon="2.37679">
        <ele>1048.4</ele>
        <time>2018-11-26T21:03:44Z</time>
      </trkpt>
      <trkpt lat="42.14357" lon="2.37677">
        <ele>1048.3</ele>
        <time>2018-11-26T21:03:46Z</time>
      </trkpt>
      <trkpt lat="42.14356" lon="2.37671">
        <ele>1048.1</ele>
        <time>2018-11-26T21:03:48Z</time>
      </trkpt>
      <trkpt lat="42.14356" lon="2.37664">
        <ele>1048.7</ele>
        <time>2018-11-26T21:03:50Z</time>
      </trkpt>
      <trkpt lat="42.14356" lon="2.37657">
        <ele>1049.2</ele>
        <time>2018-11-26T21:03:52Z</time>
      </trkpt>
      <trkpt lat="42.14357" lon="2.3765">
        <ele>1049.3</ele>
        <time>2018-11-26T21:03:54Z</time>
      </trkpt>
      <trkpt lat="42.14358" lon="2.37644">
        <ele>1049.8</ele>
        <time>2018-11-26T21:03:56Z</time>
      </trkpt>
      <trkpt lat="42.14358" lon="2.37637">
        <ele>1050.1</ele>
        <time>2018-11-26T21:03:58Z</time>
      </trkpt>
      <trkpt lat="42.14358" lon="2.3763">
        <ele>1050.4</ele>
        <time>2018-11-26T21:04:00Z</time>
      </trkpt>
      <trkpt lat="42.14359" lon="2.37624">
        <ele>1050.9</ele>
        <time>2018-11-26T21:04:02Z</time>
      </trkpt>
      <trkpt lat="42.1436" lon="2.37618">
        <ele>1051.2</ele>
        <time>2018-11-26T21:04:04Z</time>
      </trkpt>
      <trkpt lat="42.1436" lon="2.37611">
        <ele>1051.3</ele>
        <time>2018-11-26T21:04:06Z</time>
      </trkpt>
      <trkpt lat="42.1436" lon="2.37605">
        <ele>1051.2</ele>
        <time>2018-11-26T21:04:08Z</time>
      </trkpt>
      <trkpt lat="42.14361" lon="2.37598">
        <ele>1049.6</ele>
        <time>2018-11-26T21:04:10Z</time>
      </trkpt>
      <trkpt lat="42.14364" lon="2.37593">
        <ele>1049.6</ele>
        <time>2018-11-26T21:04:12Z</time>
      </trkpt>
      <trkpt lat="42.14368" lon="2.37589">
        <ele>1049.7</ele>
        <time>2018-11-26T21:04:14Z</time>
      </trkpt>
      <trkpt lat="42.14372" lon="2.37585">
        <ele>1049.9</ele>
        <time>2018-11-26T21:04:15Z</time>
      </trkpt>
      <trkpt lat="42.14375" lon="2.37581">
        <ele>1050.3</ele>
        <time>2018-11-26T21:04:17Z</time>
      </trkpt>
      <trkpt lat="42.14379" lon="2.37575">
        <ele>1050.6</ele>
        <time>2018-11-26T21:04:19Z</time>
      </trkpt>
      <trkpt lat="42.14382" lon="2.37571">
        <ele>1051.3</ele>
        <time>2018-11-26T21:04:21Z</time>
      </trkpt>
      <trkpt lat="42.14384" lon="2.37564">
        <ele>1051.8</ele>
        <time>2018-11-26T21:04:23Z</time>
      </trkpt>
      <trkpt lat="42.14388" lon="2.37561">
        <ele>1052.4</ele>
        <time>2018-11-26T21:04:25Z</time>
      </trkpt>
      <trkpt lat="42.14393" lon="2.37559">
        <ele>1053.1</ele>
        <time>2018-11-26T21:04:27Z</time>
      </trkpt>
      <trkpt lat="42.14397" lon="2.37558">
        <ele>1054.1</ele>
        <time>2018-11-26T21:04:29Z</time>
      </trkpt>
      <trkpt lat="42.144" lon="2.37553">
        <ele>1054.4</ele>
        <time>2018-11-26T21:04:31Z</time>
      </trkpt>
      <trkpt lat="42.14406" lon="2.37549">
        <ele>1054.6</ele>
        <time>2018-11-26T21:04:34Z</time>
      </trkpt>
      <trkpt lat="42.14408" lon="2.37542">
        <ele>1055</ele>
        <time>2018-11-26T21:04:36Z</time>
      </trkpt>
      <trkpt lat="42.14412" lon="2.37539">
        <ele>1056.3</ele>
        <time>2018-11-26T21:04:38Z</time>
      </trkpt>
      <trkpt lat="42.14417" lon="2.37538">
        <ele>1056.9</ele>
        <time>2018-11-26T21:04:40Z</time>
      </trkpt>
      <trkpt lat="42.14421" lon="2.37535">
        <ele>1058.5</ele>
        <time>2018-11-26T21:04:42Z</time>
      </trkpt>
      <trkpt lat="42.14424" lon="2.3753">
        <ele>1059.8</ele>
        <time>2018-11-26T21:04:43Z</time>
      </trkpt>
      <trkpt lat="42.14426" lon="2.37523">
        <ele>1059.8</ele>
        <time>2018-11-26T21:04:46Z</time>
      </trkpt>
      <trkpt lat="42.14427" lon="2.37517">
        <ele>1060</ele>
        <time>2018-11-26T21:04:47Z</time>
      </trkpt>
      <trkpt lat="42.14421" lon="2.37515">
        <ele>1063.4</ele>
        <time>2018-11-26T21:04:50Z</time>
      </trkpt>
      <trkpt lat="42.14416" lon="2.37516">
        <ele>1065.3</ele>
        <time>2018-11-26T21:04:52Z</time>
      </trkpt>
      <trkpt lat="42.14417" lon="2.3751">
        <ele>1067.4</ele>
        <time>2018-11-26T21:04:54Z</time>
      </trkpt>
      <trkpt lat="42.1442" lon="2.37505">
        <ele>1068.8</ele>
        <time>2018-11-26T21:04:56Z</time>
      </trkpt>
      <trkpt lat="42.14423" lon="2.375">
        <ele>1069.7</ele>
        <time>2018-11-26T21:04:57Z</time>
      </trkpt>
      <trkpt lat="42.14425" lon="2.37494">
        <ele>1071.7</ele>
        <time>2018-11-26T21:04:59Z</time>
      </trkpt>
      <trkpt lat="42.14428" lon="2.37489">
        <ele>1073.3</ele>
        <time>2018-11-26T21:05:01Z</time>
      </trkpt>
      <trkpt lat="42.14424" lon="2.37485">
        <ele>1075.9</ele>
        <time>2018-11-26T21:05:03Z</time>
      </trkpt>
      <trkpt lat="42.14424" lon="2.37478">
        <ele>1078.5</ele>
        <time>2018-11-26T21:05:05Z</time>
      </trkpt>
      <trkpt lat="42.14422" lon="2.37471">
        <ele>1080</ele>
        <time>2018-11-26T21:05:07Z</time>
      </trkpt>
      <trkpt lat="42.14426" lon="2.37467">
        <ele>1080.1</ele>
        <time>2018-11-26T21:05:09Z</time>
      </trkpt>
      <trkpt lat="42.14428" lon="2.3746">
        <ele>1081.1</ele>
        <time>2018-11-26T21:05:11Z</time>
      </trkpt>
      <trkpt lat="42.14432" lon="2.37455">
        <ele>1081.6</ele>
        <time>2018-11-26T21:05:13Z</time>
      </trkpt>
      <trkpt lat="42.14434" lon="2.37449">
        <ele>1081.9</ele>
        <time>2018-11-26T21:05:16Z</time>
      </trkpt>
      <trkpt lat="42.14435" lon="2.37442">
        <ele>1082.9</ele>
        <time>2018-11-26T21:05:18Z</time>
      </trkpt>
      <trkpt lat="42.14431" lon="2.37437">
        <ele>1083.6</ele>
        <time>2018-11-26T21:05:20Z</time>
      </trkpt>
      <trkpt lat="42.14426" lon="2.37434">
        <ele>1084.1</ele>
        <time>2018-11-26T21:05:22Z</time>
      </trkpt>
      <trkpt lat="42.14421" lon="2.37431">
        <ele>1084.6</ele>
        <time>2018-11-26T21:05:24Z</time>
      </trkpt>
      <trkpt lat="42.14418" lon="2.37426">
        <ele>1085.2</ele>
        <time>2018-11-26T21:05:26Z</time>
      </trkpt>
      <trkpt lat="42.14416" lon="2.3742">
        <ele>1085.6</ele>
        <time>2018-11-26T21:05:28Z</time>
      </trkpt>
      <trkpt lat="42.14417" lon="2.37413">
        <ele>1085.8</ele>
        <time>2018-11-26T21:05:30Z</time>
      </trkpt>
      <trkpt lat="42.14417" lon="2.37406">
        <ele>1086</ele>
        <time>2018-11-26T21:05:32Z</time>
      </trkpt>
      <trkpt lat="42.14416" lon="2.37399">
        <ele>1086.2</ele>
        <time>2018-11-26T21:05:34Z</time>
      </trkpt>
      <trkpt lat="42.14417" lon="2.37393">
        <ele>1086.3</ele>
        <time>2018-11-26T21:05:36Z</time>
      </trkpt>
      <trkpt lat="42.14416" lon="2.37387">
        <ele>1086.8</ele>
        <time>2018-11-26T21:05:38Z</time>
      </trkpt>
      <trkpt lat="42.14416" lon="2.37379">
        <ele>1087.5</ele>
        <time>2018-11-26T21:05:40Z</time>
      </trkpt>
      <trkpt lat="42.14415" lon="2.37373">
        <ele>1087.6</ele>
        <time>2018-11-26T21:05:42Z</time>
      </trkpt>
      <trkpt lat="42.14415" lon="2.37367">
        <ele>1088</ele>
        <time>2018-11-26T21:05:44Z</time>
      </trkpt>
      <trkpt lat="42.14415" lon="2.3736">
        <ele>1088.1</ele>
        <time>2018-11-26T21:05:46Z</time>
      </trkpt>
      <trkpt lat="42.14413" lon="2.37353">
        <ele>1088.3</ele>
        <time>2018-11-26T21:05:48Z</time>
      </trkpt>
      <trkpt lat="42.14412" lon="2.37347">
        <ele>1088.5</ele>
        <time>2018-11-26T21:05:50Z</time>
      </trkpt>
      <trkpt lat="42.14409" lon="2.37341">
        <ele>1088.5</ele>
        <time>2018-11-26T21:05:52Z</time>
      </trkpt>
      <trkpt lat="42.14405" lon="2.37337">
        <ele>1088.5</ele>
        <time>2018-11-26T21:05:54Z</time>
      </trkpt>
      <trkpt lat="42.14401" lon="2.37335">
        <ele>1088.5</ele>
        <time>2018-11-26T21:05:56Z</time>
      </trkpt>
      <trkpt lat="42.14397" lon="2.37331">
        <ele>1088.6</ele>
        <time>2018-11-26T21:05:58Z</time>
      </trkpt>
      <trkpt lat="42.14395" lon="2.37325">
        <ele>1088.9</ele>
        <time>2018-11-26T21:06:00Z</time>
      </trkpt>
      <trkpt lat="42.14393" lon="2.37319">
        <ele>1089.4</ele>
        <time>2018-11-26T21:06:01Z</time>
      </trkpt>
      <trkpt lat="42.1439" lon="2.37313">
        <ele>1090.2</ele>
        <time>2018-11-26T21:06:04Z</time>
      </trkpt>
      <trkpt lat="42.14388" lon="2.37307">
        <ele>1091.5</ele>
        <time>2018-11-26T21:06:06Z</time>
      </trkpt>
      <trkpt lat="42.14385" lon="2.37301">
        <ele>1092.7</ele>
        <time>2018-11-26T21:06:08Z</time>
      </trkpt>
      <trkpt lat="42.14384" lon="2.37294">
        <ele>1093.4</ele>
        <time>2018-11-26T21:06:10Z</time>
      </trkpt>
      <trkpt lat="42.14383" lon="2.37287">
        <ele>1093.5</ele>
        <time>2018-11-26T21:06:12Z</time>
      </trkpt>
      <trkpt lat="42.14383" lon="2.3728">
        <ele>1093.5</ele>
        <time>2018-11-26T21:06:14Z</time>
      </trkpt>
      <trkpt lat="42.14382" lon="2.37273">
        <ele>1093.5</ele>
        <time>2018-11-26T21:06:16Z</time>
      </trkpt>
      <trkpt lat="42.14378" lon="2.3727">
        <ele>1093.7</ele>
        <time>2018-11-26T21:06:18Z</time>
      </trkpt>
      <trkpt lat="42.14375" lon="2.37265">
        <ele>1093.7</ele>
        <time>2018-11-26T21:06:20Z</time>
      </trkpt>
      <trkpt lat="42.14372" lon="2.3726">
        <ele>1093.9</ele>
        <time>2018-11-26T21:06:22Z</time>
      </trkpt>
      <trkpt lat="42.14369" lon="2.37254">
        <ele>1094</ele>
        <time>2018-11-26T21:06:24Z</time>
      </trkpt>
      <trkpt lat="42.14368" lon="2.37249">
        <ele>1093.8</ele>
        <time>2018-11-26T21:06:26Z</time>
      </trkpt>
      <trkpt lat="42.14367" lon="2.37242">
        <ele>1093.8</ele>
        <time>2018-11-26T21:06:28Z</time>
      </trkpt>
      <trkpt lat="42.14367" lon="2.37235">
        <ele>1093.7</ele>
        <time>2018-11-26T21:06:30Z</time>
      </trkpt>
      <trkpt lat="42.14368" lon="2.37228">
        <ele>1094</ele>
        <time>2018-11-26T21:06:32Z</time>
      </trkpt>
      <trkpt lat="42.14369" lon="2.3722">
        <ele>1094.4</ele>
        <time>2018-11-26T21:06:34Z</time>
      </trkpt>
      <trkpt lat="42.1437" lon="2.37213">
        <ele>1095.1</ele>
        <time>2018-11-26T21:06:36Z</time>
      </trkpt>
      <trkpt lat="42.1437" lon="2.37207">
        <ele>1096.1</ele>
        <time>2018-11-26T21:06:38Z</time>
      </trkpt>
      <trkpt lat="42.1437" lon="2.372">
        <ele>1096.9</ele>
        <time>2018-11-26T21:06:40Z</time>
      </trkpt>
      <trkpt lat="42.14371" lon="2.37193">
        <ele>1097.2</ele>
        <time>2018-11-26T21:06:42Z</time>
      </trkpt>
      <trkpt lat="42.14372" lon="2.37187">
        <ele>1097.3</ele>
        <time>2018-11-26T21:06:44Z</time>
      </trkpt>
      <trkpt lat="42.14375" lon="2.37182">
        <ele>1097.4</ele>
        <time>2018-11-26T21:06:46Z</time>
      </trkpt>
      <trkpt lat="42.14376" lon="2.37175">
        <ele>1097.7</ele>
        <time>2018-11-26T21:06:48Z</time>
      </trkpt>
      <trkpt lat="42.14376" lon="2.37168">
        <ele>1098.1</ele>
        <time>2018-11-26T21:06:50Z</time>
      </trkpt>
      <trkpt lat="42.14374" lon="2.37162">
        <ele>1098.4</ele>
        <time>2018-11-26T21:06:52Z</time>
      </trkpt>
      <trkpt lat="42.14371" lon="2.37156">
        <ele>1098.6</ele>
        <time>2018-11-26T21:06:54Z</time>
      </trkpt>
      <trkpt lat="42.14368" lon="2.3715">
        <ele>1098.9</ele>
        <time>2018-11-26T21:06:57Z</time>
      </trkpt>
      <trkpt lat="42.14364" lon="2.37145">
        <ele>1099.3</ele>
        <time>2018-11-26T21:06:58Z</time>
      </trkpt>
      <trkpt lat="42.14361" lon="2.3714">
        <ele>1099.9</ele>
        <time>2018-11-26T21:07:00Z</time>
      </trkpt>
      <trkpt lat="42.14358" lon="2.37134">
        <ele>1100.6</ele>
        <time>2018-11-26T21:07:03Z</time>
      </trkpt>
      <trkpt lat="42.14357" lon="2.37128">
        <ele>1100.7</ele>
        <time>2018-11-26T21:07:04Z</time>
      </trkpt>
      <trkpt lat="42.14358" lon="2.37121">
        <ele>1101</ele>
        <time>2018-11-26T21:07:06Z</time>
      </trkpt>
      <trkpt lat="42.1436" lon="2.37115">
        <ele>1100.9</ele>
        <time>2018-11-26T21:07:08Z</time>
      </trkpt>
      <trkpt lat="42.14361" lon="2.37108">
        <ele>1101</ele>
        <time>2018-11-26T21:07:10Z</time>
      </trkpt>
      <trkpt lat="42.14363" lon="2.37102">
        <ele>1101.5</ele>
        <time>2018-11-26T21:07:12Z</time>
      </trkpt>
      <trkpt lat="42.14366" lon="2.37097">
        <ele>1101.5</ele>
        <time>2018-11-26T21:07:15Z</time>
      </trkpt>
      <trkpt lat="42.14371" lon="2.37094">
        <ele>1101.5</ele>
        <time>2018-11-26T21:07:16Z</time>
      </trkpt>
      <trkpt lat="42.14376" lon="2.37095">
        <ele>1101.2</ele>
        <time>2018-11-26T21:07:18Z</time>
      </trkpt>
      <trkpt lat="42.14381" lon="2.37095">
        <ele>1101</ele>
        <time>2018-11-26T21:07:21Z</time>
      </trkpt>
      <trkpt lat="42.14386" lon="2.37097">
        <ele>1100.8</ele>
        <time>2018-11-26T21:07:22Z</time>
      </trkpt>
      <trkpt lat="42.1439" lon="2.37097">
        <ele>1100.6</ele>
        <time>2018-11-26T21:07:24Z</time>
      </trkpt>
      <trkpt lat="42.14395" lon="2.37096">
        <ele>1100.5</ele>
        <time>2018-11-26T21:07:26Z</time>
      </trkpt>
      <trkpt lat="42.14399" lon="2.37093">
        <ele>1100.7</ele>
        <time>2018-11-26T21:07:28Z</time>
      </trkpt>
      <trkpt lat="42.14403" lon="2.37088">
        <ele>1100.6</ele>
        <time>2018-11-26T21:07:30Z</time>
      </trkpt>
      <trkpt lat="42.14406" lon="2.37082">
        <ele>1100.7</ele>
        <time>2018-11-26T21:07:32Z</time>
      </trkpt>
      <trkpt lat="42.14409" lon="2.37076">
        <ele>1101</ele>
        <time>2018-11-26T21:07:35Z</time>
      </trkpt>
      <trkpt lat="42.14413" lon="2.37072">
        <ele>1101.4</ele>
        <time>2018-11-26T21:07:37Z</time>
      </trkpt>
      <trkpt lat="42.14417" lon="2.37069">
        <ele>1102.1</ele>
        <time>2018-11-26T21:07:38Z</time>
      </trkpt>
      <trkpt lat="42.14422" lon="2.37067">
        <ele>1102.7</ele>
        <time>2018-11-26T21:07:41Z</time>
      </trkpt>
      <trkpt lat="42.14427" lon="2.37063">
        <ele>1102.8</ele>
        <time>2018-11-26T21:07:43Z</time>
      </trkpt>
      <trkpt lat="42.14431" lon="2.37059">
        <ele>1103.5</ele>
        <time>2018-11-26T21:07:45Z</time>
      </trkpt>
      <trkpt lat="42.14435" lon="2.37055">
        <ele>1104.3</ele>
        <time>2018-11-26T21:07:47Z</time>
      </trkpt>
      <trkpt lat="42.14439" lon="2.37052">
        <ele>1104.7</ele>
        <time>2018-11-26T21:07:49Z</time>
      </trkpt>
      <trkpt lat="42.14442" lon="2.37046">
        <ele>1105.4</ele>
        <time>2018-11-26T21:07:51Z</time>
      </trkpt>
      <trkpt lat="42.14446" lon="2.37041">
        <ele>1105.9</ele>
        <time>2018-11-26T21:07:53Z</time>
      </trkpt>
      <trkpt lat="42.1445" lon="2.37038">
        <ele>1106.7</ele>
        <time>2018-11-26T21:07:55Z</time>
      </trkpt>
      <trkpt lat="42.14454" lon="2.37036">
        <ele>1107.4</ele>
        <time>2018-11-26T21:07:57Z</time>
      </trkpt>
      <trkpt lat="42.14458" lon="2.37035">
        <ele>1108.2</ele>
        <time>2018-11-26T21:07:58Z</time>
      </trkpt>
      <trkpt lat="42.14464" lon="2.37034">
        <ele>1108.8</ele>
        <time>2018-11-26T21:08:00Z</time>
      </trkpt>
      <trkpt lat="42.14469" lon="2.37032">
        <ele>1110.2</ele>
        <time>2018-11-26T21:08:03Z</time>
      </trkpt>
      <trkpt lat="42.14473" lon="2.37026">
        <ele>1111</ele>
        <time>2018-11-26T21:08:05Z</time>
      </trkpt>
      <trkpt lat="42.14473" lon="2.3702">
        <ele>1111.5</ele>
        <time>2018-11-26T21:08:07Z</time>
      </trkpt>
      <trkpt lat="42.14469" lon="2.37016">
        <ele>1111.5</ele>
        <time>2018-11-26T21:08:09Z</time>
      </trkpt>
      <trkpt lat="42.14464" lon="2.37015">
        <ele>1111.8</ele>
        <time>2018-11-26T21:08:11Z</time>
      </trkpt>
      <trkpt lat="42.1446" lon="2.37012">
        <ele>1112</ele>
        <time>2018-11-26T21:08:13Z</time>
      </trkpt>
      <trkpt lat="42.14455" lon="2.37009">
        <ele>1112.5</ele>
        <time>2018-11-26T21:08:15Z</time>
      </trkpt>
      <trkpt lat="42.1445" lon="2.37009">
        <ele>1113</ele>
        <time>2018-11-26T21:08:17Z</time>
      </trkpt>
      <trkpt lat="42.14445" lon="2.37007">
        <ele>1114.1</ele>
        <time>2018-11-26T21:08:19Z</time>
      </trkpt>
      <trkpt lat="42.1444" lon="2.37005">
        <ele>1114.9</ele>
        <time>2018-11-26T21:08:22Z</time>
      </trkpt>
      <trkpt lat="42.14435" lon="2.37002">
        <ele>1115.6</ele>
        <time>2018-11-26T21:08:24Z</time>
      </trkpt>
      <trkpt lat="42.14431" lon="2.36998">
        <ele>1115.9</ele>
        <time>2018-11-26T21:08:25Z</time>
      </trkpt>
      <trkpt lat="42.14429" lon="2.36991">
        <ele>1115.8</ele>
        <time>2018-11-26T21:08:28Z</time>
      </trkpt>
      <trkpt lat="42.14428" lon="2.36985">
        <ele>1115.4</ele>
        <time>2018-11-26T21:08:30Z</time>
      </trkpt>
      <trkpt lat="42.14428" lon="2.36978">
        <ele>1114.9</ele>
        <time>2018-11-26T21:08:32Z</time>
      </trkpt>
      <trkpt lat="42.14427" lon="2.36972">
        <ele>1114.7</ele>
        <time>2018-11-26T21:08:34Z</time>
      </trkpt>
      <trkpt lat="42.14425" lon="2.36965">
        <ele>1114.7</ele>
        <time>2018-11-26T21:08:36Z</time>
      </trkpt>
      <trkpt lat="42.14422" lon="2.36961">
        <ele>1114.7</ele>
        <time>2018-11-26T21:08:38Z</time>
      </trkpt>
      <trkpt lat="42.14419" lon="2.36955">
        <ele>1114.5</ele>
        <time>2018-11-26T21:08:40Z</time>
      </trkpt>
      <trkpt lat="42.14415" lon="2.3695">
        <ele>1114.1</ele>
        <time>2018-11-26T21:08:42Z</time>
      </trkpt>
      <trkpt lat="42.14411" lon="2.36949">
        <ele>1113.9</ele>
        <time>2018-11-26T21:08:43Z</time>
      </trkpt>
      <trkpt lat="42.14407" lon="2.36944">
        <ele>1114.1</ele>
        <time>2018-11-26T21:08:45Z</time>
      </trkpt>
      <trkpt lat="42.14404" lon="2.36939">
        <ele>1113.9</ele>
        <time>2018-11-26T21:08:47Z</time>
      </trkpt>
      <trkpt lat="42.14401" lon="2.36934">
        <ele>1113.7</ele>
        <time>2018-11-26T21:08:49Z</time>
      </trkpt>
      <trkpt lat="42.14398" lon="2.36928">
        <ele>1113.6</ele>
        <time>2018-11-26T21:08:51Z</time>
      </trkpt>
      <trkpt lat="42.14396" lon="2.36922">
        <ele>1113.6</ele>
        <time>2018-11-26T21:08:53Z</time>
      </trkpt>
      <trkpt lat="42.14391" lon="2.36918">
        <ele>1113.6</ele>
        <time>2018-11-26T21:08:56Z</time>
      </trkpt>
      <trkpt lat="42.14391" lon="2.36912">
        <ele>1113.7</ele>
        <time>2018-11-26T21:08:58Z</time>
      </trkpt>
      <trkpt lat="42.14387" lon="2.36906">
        <ele>1113.6</ele>
        <time>2018-11-26T21:09:00Z</time>
      </trkpt>
      <trkpt lat="42.14384" lon="2.36901">
        <ele>1113.6</ele>
        <time>2018-11-26T21:09:02Z</time>
      </trkpt>
      <trkpt lat="42.1438" lon="2.36897">
        <ele>1114.2</ele>
        <time>2018-11-26T21:09:04Z</time>
      </trkpt>
      <trkpt lat="42.14376" lon="2.3689">
        <ele>1114.6</ele>
        <time>2018-11-26T21:09:06Z</time>
      </trkpt>
      <trkpt lat="42.14374" lon="2.36885">
        <ele>1115</ele>
        <time>2018-11-26T21:09:08Z</time>
      </trkpt>
      <trkpt lat="42.14372" lon="2.36879">
        <ele>1115.7</ele>
        <time>2018-11-26T21:09:10Z</time>
      </trkpt>
      <trkpt lat="42.14367" lon="2.36875">
        <ele>1116.1</ele>
        <time>2018-11-26T21:09:12Z</time>
      </trkpt>
      <trkpt lat="42.14366" lon="2.36868">
        <ele>1116.7</ele>
        <time>2018-11-26T21:09:14Z</time>
      </trkpt>
      <trkpt lat="42.14362" lon="2.36864">
        <ele>1117.6</ele>
        <time>2018-11-26T21:09:16Z</time>
      </trkpt>
      <trkpt lat="42.14358" lon="2.36862">
        <ele>1118.4</ele>
        <time>2018-11-26T21:09:18Z</time>
      </trkpt>
      <trkpt lat="42.14353" lon="2.3686">
        <ele>1119.6</ele>
        <time>2018-11-26T21:09:20Z</time>
      </trkpt>
      <trkpt lat="42.14348" lon="2.36859">
        <ele>1119.8</ele>
        <time>2018-11-26T21:09:22Z</time>
      </trkpt>
      <trkpt lat="42.14343" lon="2.36856">
        <ele>1120.5</ele>
        <time>2018-11-26T21:09:24Z</time>
      </trkpt>
      <trkpt lat="42.14339" lon="2.36852">
        <ele>1121</ele>
        <time>2018-11-26T21:09:26Z</time>
      </trkpt>
      <trkpt lat="42.14335" lon="2.36849">
        <ele>1121.2</ele>
        <time>2018-11-26T21:09:28Z</time>
      </trkpt>
      <trkpt lat="42.14332" lon="2.36843">
        <ele>1121.7</ele>
        <time>2018-11-26T21:09:30Z</time>
      </trkpt>
      <trkpt lat="42.14328" lon="2.36838">
        <ele>1121.6</ele>
        <time>2018-11-26T21:09:32Z</time>
      </trkpt>
      <trkpt lat="42.14326" lon="2.36832">
        <ele>1121.7</ele>
        <time>2018-11-26T21:09:34Z</time>
      </trkpt>
      <trkpt lat="42.14324" lon="2.36826">
        <ele>1121.6</ele>
        <time>2018-11-26T21:09:36Z</time>
      </trkpt>
      <trkpt lat="42.14322" lon="2.36819">
        <ele>1121.5</ele>
        <time>2018-11-26T21:09:39Z</time>
      </trkpt>
      <trkpt lat="42.14322" lon="2.36813">
        <ele>1121.1</ele>
        <time>2018-11-26T21:09:40Z</time>
      </trkpt>
      <trkpt lat="42.1432" lon="2.36806">
        <ele>1120.8</ele>
        <time>2018-11-26T21:09:42Z</time>
      </trkpt>
      <trkpt lat="42.14319" lon="2.368">
        <ele>1120.8</ele>
        <time>2018-11-26T21:09:44Z</time>
      </trkpt>
      <trkpt lat="42.14318" lon="2.36793">
        <ele>1120.3</ele>
        <time>2018-11-26T21:09:46Z</time>
      </trkpt>
      <trkpt lat="42.14319" lon="2.36786">
        <ele>1120.2</ele>
        <time>2018-11-26T21:09:48Z</time>
      </trkpt>
      <trkpt lat="42.14323" lon="2.3678">
        <ele>1120.1</ele>
        <time>2018-11-26T21:09:51Z</time>
      </trkpt>
      <trkpt lat="42.14325" lon="2.36773">
        <ele>1120.3</ele>
        <time>2018-11-26T21:09:53Z</time>
      </trkpt>
      <trkpt lat="42.14325" lon="2.36767">
        <ele>1120.2</ele>
        <time>2018-11-26T21:09:55Z</time>
      </trkpt>
      <trkpt lat="42.14326" lon="2.3676">
        <ele>1120.4</ele>
        <time>2018-11-26T21:09:57Z</time>
      </trkpt>
      <trkpt lat="42.14325" lon="2.36754">
        <ele>1120.6</ele>
        <time>2018-11-26T21:09:59Z</time>
      </trkpt>
      <trkpt lat="42.14326" lon="2.36748">
        <ele>1121.2</ele>
        <time>2018-11-26T21:10:01Z</time>
      </trkpt>
      <trkpt lat="42.14324" lon="2.36742">
        <ele>1122.2</ele>
        <time>2018-11-26T21:10:03Z</time>
      </trkpt>
      <trkpt lat="42.14322" lon="2.36736">
        <ele>1123.3</ele>
        <time>2018-11-26T21:10:05Z</time>
      </trkpt>
      <trkpt lat="42.14321" lon="2.3673">
        <ele>1124.1</ele>
        <time>2018-11-26T21:10:06Z</time>
      </trkpt>
      <trkpt lat="42.1432" lon="2.36723">
        <ele>1125.2</ele>
        <time>2018-11-26T21:10:08Z</time>
      </trkpt>
      <trkpt lat="42.14319" lon="2.36717">
        <ele>1125.8</ele>
        <time>2018-11-26T21:10:10Z</time>
      </trkpt>
      <trkpt lat="42.14318" lon="2.36711">
        <ele>1126.4</ele>
        <time>2018-11-26T21:10:12Z</time>
      </trkpt>
      <trkpt lat="42.14315" lon="2.36706">
        <ele>1127.1</ele>
        <time>2018-11-26T21:10:14Z</time>
      </trkpt>
      <trkpt lat="42.14313" lon="2.36699">
        <ele>1127.7</ele>
        <time>2018-11-26T21:10:16Z</time>
      </trkpt>
      <trkpt lat="42.14311" lon="2.36692">
        <ele>1128.5</ele>
        <time>2018-11-26T21:10:18Z</time>
      </trkpt>
      <trkpt lat="42.14306" lon="2.36693">
        <ele>1129.7</ele>
        <time>2018-11-26T21:10:20Z</time>
      </trkpt>
      <trkpt lat="42.14301" lon="2.36692">
        <ele>1130.7</ele>
        <time>2018-11-26T21:10:22Z</time>
      </trkpt>
      <trkpt lat="42.14297" lon="2.36688">
        <ele>1132.2</ele>
        <time>2018-11-26T21:10:24Z</time>
      </trkpt>
      <trkpt lat="42.14292" lon="2.36686">
        <ele>1133.1</ele>
        <time>2018-11-26T21:10:26Z</time>
      </trkpt>
      <trkpt lat="42.14287" lon="2.36683">
        <ele>1134.4</ele>
        <time>2018-11-26T21:10:28Z</time>
      </trkpt>
      <trkpt lat="42.14284" lon="2.3668">
        <ele>1134.9</ele>
        <time>2018-11-26T21:10:30Z</time>
      </trkpt>
      <trkpt lat="42.1428" lon="2.36675">
        <ele>1135.2</ele>
        <time>2018-11-26T21:10:32Z</time>
      </trkpt>
      <trkpt lat="42.14277" lon="2.36668">
        <ele>1135.9</ele>
        <time>2018-11-26T21:10:34Z</time>
      </trkpt>
      <trkpt lat="42.14274" lon="2.36662">
        <ele>1136.5</ele>
        <time>2018-11-26T21:10:37Z</time>
      </trkpt>
      <trkpt lat="42.14274" lon="2.36656">
        <ele>1137.3</ele>
        <time>2018-11-26T21:10:39Z</time>
      </trkpt>
      <trkpt lat="42.1427" lon="2.36654">
        <ele>1137.9</ele>
        <time>2018-11-26T21:10:40Z</time>
      </trkpt>
      <trkpt lat="42.14264" lon="2.36653">
        <ele>1138.3</ele>
        <time>2018-11-26T21:10:43Z</time>
      </trkpt>
      <trkpt lat="42.14261" lon="2.36648">
        <ele>1138.7</ele>
        <time>2018-11-26T21:10:45Z</time>
      </trkpt>
      <trkpt lat="42.14257" lon="2.36644">
        <ele>1138.6</ele>
        <time>2018-11-26T21:10:47Z</time>
      </trkpt>
      <trkpt lat="42.14255" lon="2.36638">
        <ele>1138.8</ele>
        <time>2018-11-26T21:10:48Z</time>
      </trkpt>
      <trkpt lat="42.14251" lon="2.36634">
        <ele>1139.2</ele>
        <time>2018-11-26T21:10:50Z</time>
      </trkpt>
      <trkpt lat="42.14247" lon="2.36629">
        <ele>1139</ele>
        <time>2018-11-26T21:10:52Z</time>
      </trkpt>
      <trkpt lat="42.14245" lon="2.36622">
        <ele>1139.3</ele>
        <time>2018-11-26T21:10:55Z</time>
      </trkpt>
      <trkpt lat="42.14242" lon="2.36616">
        <ele>1139.3</ele>
        <time>2018-11-26T21:10:57Z</time>
      </trkpt>
      <trkpt lat="42.14239" lon="2.3661">
        <ele>1139.3</ele>
        <time>2018-11-26T21:10:59Z</time>
      </trkpt>
      <trkpt lat="42.14239" lon="2.36603">
        <ele>1139.7</ele>
        <time>2018-11-26T21:11:01Z</time>
      </trkpt>
      <trkpt lat="42.14236" lon="2.36597">
        <ele>1140.1</ele>
        <time>2018-11-26T21:11:03Z</time>
      </trkpt>
      <trkpt lat="42.14238" lon="2.3659">
        <ele>1140.7</ele>
        <time>2018-11-26T21:11:05Z</time>
      </trkpt>
      <trkpt lat="42.14235" lon="2.36584">
        <ele>1141.6</ele>
        <time>2018-11-26T21:11:07Z</time>
      </trkpt>
      <trkpt lat="42.14233" lon="2.36578">
        <ele>1142.3</ele>
        <time>2018-11-26T21:11:09Z</time>
      </trkpt>
      <trkpt lat="42.14233" lon="2.36572">
        <ele>1143.2</ele>
        <time>2018-11-26T21:11:11Z</time>
      </trkpt>
      <trkpt lat="42.14231" lon="2.36567">
        <ele>1144.6</ele>
        <time>2018-11-26T21:11:13Z</time>
      </trkpt>
      <trkpt lat="42.14229" lon="2.36561">
        <ele>1145.1</ele>
        <time>2018-11-26T21:11:15Z</time>
      </trkpt>
      <trkpt lat="42.14228" lon="2.36554">
        <ele>1146.6</ele>
        <time>2018-11-26T21:11:17Z</time>
      </trkpt>
      <trkpt lat="42.14224" lon="2.3655">
        <ele>1147.2</ele>
        <time>2018-11-26T21:11:19Z</time>
      </trkpt>
      <trkpt lat="42.14221" lon="2.36545">
        <ele>1148.4</ele>
        <time>2018-11-26T21:11:21Z</time>
      </trkpt>
      <trkpt lat="42.14223" lon="2.36539">
        <ele>1148.7</ele>
        <time>2018-11-26T21:11:23Z</time>
      </trkpt>
      <trkpt lat="42.14225" lon="2.36533">
        <ele>1149.2</ele>
        <time>2018-11-26T21:11:25Z</time>
      </trkpt>
      <trkpt lat="42.14225" lon="2.36526">
        <ele>1149.6</ele>
        <time>2018-11-26T21:11:27Z</time>
      </trkpt>
      <trkpt lat="42.1423" lon="2.36523">
        <ele>1150.3</ele>
        <time>2018-11-26T21:11:29Z</time>
      </trkpt>
      <trkpt lat="42.14235" lon="2.36521">
        <ele>1151.4</ele>
        <time>2018-11-26T21:11:31Z</time>
      </trkpt>
      <trkpt lat="42.14239" lon="2.36518">
        <ele>1152.6</ele>
        <time>2018-11-26T21:11:33Z</time>
      </trkpt>
      <trkpt lat="42.14244" lon="2.36515">
        <ele>1153.4</ele>
        <time>2018-11-26T21:11:35Z</time>
      </trkpt>
      <trkpt lat="42.14249" lon="2.36511">
        <ele>1154.2</ele>
        <time>2018-11-26T21:11:37Z</time>
      </trkpt>
      <trkpt lat="42.14251" lon="2.36506">
        <ele>1156.2</ele>
        <time>2018-11-26T21:11:39Z</time>
      </trkpt>
      <trkpt lat="42.14253" lon="2.365">
        <ele>1157.4</ele>
        <time>2018-11-26T21:11:41Z</time>
      </trkpt>
      <trkpt lat="42.14248" lon="2.36497">
        <ele>1157.9</ele>
        <time>2018-11-26T21:11:43Z</time>
      </trkpt>
      <trkpt lat="42.14244" lon="2.36496">
        <ele>1158.6</ele>
        <time>2018-11-26T21:11:45Z</time>
      </trkpt>
      <trkpt lat="42.14239" lon="2.36495">
        <ele>1159.8</ele>
        <time>2018-11-26T21:11:47Z</time>
      </trkpt>
      <trkpt lat="42.14234" lon="2.36494">
        <ele>1160.4</ele>
        <time>2018-11-26T21:11:49Z</time>
      </trkpt>
      <trkpt lat="42.14229" lon="2.36493">
        <ele>1161.6</ele>
        <time>2018-11-26T21:11:51Z</time>
      </trkpt>
      <trkpt lat="42.14225" lon="2.3649">
        <ele>1163.4</ele>
        <time>2018-11-26T21:11:53Z</time>
      </trkpt>
      <trkpt lat="42.14221" lon="2.36486">
        <ele>1163.9</ele>
        <time>2018-11-26T21:11:54Z</time>
      </trkpt>
      <trkpt lat="42.14222" lon="2.3648">
        <ele>1164.4</ele>
        <time>2018-11-26T21:11:56Z</time>
      </trkpt>
      <trkpt lat="42.14226" lon="2.36476">
        <ele>1166</ele>
        <time>2018-11-26T21:11:58Z</time>
      </trkpt>
      <trkpt lat="42.14231" lon="2.36478">
        <ele>1166.3</ele>
        <time>2018-11-26T21:12:00Z</time>
      </trkpt>
      <trkpt lat="42.14235" lon="2.36476">
        <ele>1166.5</ele>
        <time>2018-11-26T21:12:02Z</time>
      </trkpt>
      <trkpt lat="42.14238" lon="2.36471">
        <ele>1166.8</ele>
        <time>2018-11-26T21:12:04Z</time>
      </trkpt>
      <trkpt lat="42.14238" lon="2.36465">
        <ele>1167.3</ele>
        <time>2018-11-26T21:12:06Z</time>
      </trkpt>
      <trkpt lat="42.14238" lon="2.36458">
        <ele>1167.7</ele>
        <time>2018-11-26T21:12:08Z</time>
      </trkpt>
      <trkpt lat="42.14239" lon="2.36452">
        <ele>1168.4</ele>
        <time>2018-11-26T21:12:10Z</time>
      </trkpt>
      <trkpt lat="42.1424" lon="2.36445">
        <ele>1169.3</ele>
        <time>2018-11-26T21:12:12Z</time>
      </trkpt>
      <trkpt lat="42.14242" lon="2.36438">
        <ele>1170.1</ele>
        <time>2018-11-26T21:12:14Z</time>
      </trkpt>
      <trkpt lat="42.14242" lon="2.36431">
        <ele>1170.8</ele>
        <time>2018-11-26T21:12:16Z</time>
      </trkpt>
      <trkpt lat="42.14242" lon="2.36424">
        <ele>1171.4</ele>
        <time>2018-11-26T21:12:18Z</time>
      </trkpt>
      <trkpt lat="42.14243" lon="2.36418">
        <ele>1172.2</ele>
        <time>2018-11-26T21:12:20Z</time>
      </trkpt>
      <trkpt lat="42.14243" lon="2.36412">
        <ele>1172.7</ele>
        <time>2018-11-26T21:12:22Z</time>
      </trkpt>
      <trkpt lat="42.14242" lon="2.36405">
        <ele>1173.4</ele>
        <time>2018-11-26T21:12:24Z</time>
      </trkpt>
      <trkpt lat="42.14242" lon="2.36399">
        <ele>1174.2</ele>
        <time>2018-11-26T21:12:26Z</time>
      </trkpt>
      <trkpt lat="42.14241" lon="2.36393">
        <ele>1175.4</ele>
        <time>2018-11-26T21:12:28Z</time>
      </trkpt>
      <trkpt lat="42.14238" lon="2.36387">
        <ele>1175.8</ele>
        <time>2018-11-26T21:12:30Z</time>
      </trkpt>
      <trkpt lat="42.14239" lon="2.3638">
        <ele>1176.2</ele>
        <time>2018-11-26T21:12:32Z</time>
      </trkpt>
      <trkpt lat="42.14239" lon="2.36374">
        <ele>1176.6</ele>
        <time>2018-11-26T21:12:34Z</time>
      </trkpt>
      <trkpt lat="42.14236" lon="2.36368">
        <ele>1177.4</ele>
        <time>2018-11-26T21:12:36Z</time>
      </trkpt>
      <trkpt lat="42.14235" lon="2.36362">
        <ele>1178.1</ele>
        <time>2018-11-26T21:12:37Z</time>
      </trkpt>
      <trkpt lat="42.14235" lon="2.36355">
        <ele>1178.9</ele>
        <time>2018-11-26T21:12:39Z</time>
      </trkpt>
      <trkpt lat="42.14236" lon="2.36349">
        <ele>1179.7</ele>
        <time>2018-11-26T21:12:41Z</time>
      </trkpt>
      <trkpt lat="42.14239" lon="2.36344">
        <ele>1180.2</ele>
        <time>2018-11-26T21:12:43Z</time>
      </trkpt>
      <trkpt lat="42.14242" lon="2.36338">
        <ele>1180.4</ele>
        <time>2018-11-26T21:12:45Z</time>
      </trkpt>
      <trkpt lat="42.14244" lon="2.36332">
        <ele>1180.6</ele>
        <time>2018-11-26T21:12:47Z</time>
      </trkpt>
      <trkpt lat="42.14248" lon="2.36328">
        <ele>1181</ele>
        <time>2018-11-26T21:12:49Z</time>
      </trkpt>
      <trkpt lat="42.14251" lon="2.36324">
        <ele>1181.3</ele>
        <time>2018-11-26T21:12:51Z</time>
      </trkpt>
      <trkpt lat="42.14256" lon="2.3632">
        <ele>1181.9</ele>
        <time>2018-11-26T21:12:53Z</time>
      </trkpt>
      <trkpt lat="42.14261" lon="2.36319">
        <ele>1182.6</ele>
        <time>2018-11-26T21:12:55Z</time>
      </trkpt>
      <trkpt lat="42.14266" lon="2.36318">
        <ele>1183.2</ele>
        <time>2018-11-26T21:12:57Z</time>
      </trkpt>
      <trkpt lat="42.1427" lon="2.36314">
        <ele>1183.6</ele>
        <time>2018-11-26T21:12:59Z</time>
      </trkpt>
      <trkpt lat="42.14273" lon="2.3631">
        <ele>1183.9</ele>
        <time>2018-11-26T21:13:01Z</time>
      </trkpt>
      <trkpt lat="42.14277" lon="2.36305">
        <ele>1184.3</ele>
        <time>2018-11-26T21:13:03Z</time>
      </trkpt>
      <trkpt lat="42.1428" lon="2.36301">
        <ele>1184.8</ele>
        <time>2018-11-26T21:13:05Z</time>
      </trkpt>
      <trkpt lat="42.14284" lon="2.36297">
        <ele>1185.7</ele>
        <time>2018-11-26T21:13:07Z</time>
      </trkpt>
      <trkpt lat="42.14289" lon="2.36295">
        <ele>1186</ele>
        <time>2018-11-26T21:13:09Z</time>
      </trkpt>
      <trkpt lat="42.14293" lon="2.36293">
        <ele>1186.3</ele>
        <time>2018-11-26T21:13:11Z</time>
      </trkpt>
      <trkpt lat="42.14298" lon="2.36291">
        <ele>1186.7</ele>
        <time>2018-11-26T21:13:13Z</time>
      </trkpt>
      <trkpt lat="42.14302" lon="2.36287">
        <ele>1186.7</ele>
        <time>2018-11-26T21:13:15Z</time>
      </trkpt>
      <trkpt lat="42.14306" lon="2.36283">
        <ele>1187.3</ele>
        <time>2018-11-26T21:13:17Z</time>
      </trkpt>
      <trkpt lat="42.14309" lon="2.36278">
        <ele>1187.9</ele>
        <time>2018-11-26T21:13:18Z</time>
      </trkpt>
      <trkpt lat="42.14313" lon="2.36274">
        <ele>1188.4</ele>
        <time>2018-11-26T21:13:21Z</time>
      </trkpt>
      <trkpt lat="42.14317" lon="2.3627">
        <ele>1188.9</ele>
        <time>2018-11-26T21:13:22Z</time>
      </trkpt>
      <trkpt lat="42.1432" lon="2.36265">
        <ele>1189.5</ele>
        <time>2018-11-26T21:13:24Z</time>
      </trkpt>
      <trkpt lat="42.14322" lon="2.3626">
        <ele>1190.1</ele>
        <time>2018-11-26T21:13:26Z</time>
      </trkpt>
      <trkpt lat="42.14325" lon="2.36253">
        <ele>1190.9</ele>
        <time>2018-11-26T21:13:29Z</time>
      </trkpt>
      <trkpt lat="42.14328" lon="2.36249">
        <ele>1191.4</ele>
        <time>2018-11-26T21:13:30Z</time>
      </trkpt>
      <trkpt lat="42.1433" lon="2.36242">
        <ele>1192</ele>
        <time>2018-11-26T21:13:33Z</time>
      </trkpt>
      <trkpt lat="42.14329" lon="2.36236">
        <ele>1192.5</ele>
        <time>2018-11-26T21:13:35Z</time>
      </trkpt>
      <trkpt lat="42.14328" lon="2.36229">
        <ele>1192.7</ele>
        <time>2018-11-26T21:13:37Z</time>
      </trkpt>
      <trkpt lat="42.14323" lon="2.36228">
        <ele>1193.4</ele>
        <time>2018-11-26T21:13:38Z</time>
      </trkpt>
      <trkpt lat="42.14318" lon="2.36227">
        <ele>1194.1</ele>
        <time>2018-11-26T21:13:41Z</time>
      </trkpt>
      <trkpt lat="42.14313" lon="2.36224">
        <ele>1194.6</ele>
        <time>2018-11-26T21:13:43Z</time>
      </trkpt>
      <trkpt lat="42.14309" lon="2.3622">
        <ele>1195.1</ele>
        <time>2018-11-26T21:13:45Z</time>
      </trkpt>
      <trkpt lat="42.14303" lon="2.36223">
        <ele>1196.2</ele>
        <time>2018-11-26T21:13:47Z</time>
      </trkpt>
      <trkpt lat="42.14299" lon="2.36219">
        <ele>1196.8</ele>
        <time>2018-11-26T21:13:49Z</time>
      </trkpt>
      <trkpt lat="42.14294" lon="2.36217">
        <ele>1197.3</ele>
        <time>2018-11-26T21:13:51Z</time>
      </trkpt>
      <trkpt lat="42.14288" lon="2.36214">
        <ele>1198</ele>
        <time>2018-11-26T21:13:54Z</time>
      </trkpt>
      <trkpt lat="42.14285" lon="2.3621">
        <ele>1198.9</ele>
        <time>2018-11-26T21:13:56Z</time>
      </trkpt>
      <trkpt lat="42.14282" lon="2.36204">
        <ele>1199.2</ele>
        <time>2018-11-26T21:13:58Z</time>
      </trkpt>
      <trkpt lat="42.14279" lon="2.362">
        <ele>1199.4</ele>
        <time>2018-11-26T21:13:59Z</time>
      </trkpt>
      <trkpt lat="42.14279" lon="2.36194">
        <ele>1199.7</ele>
        <time>2018-11-26T21:14:01Z</time>
      </trkpt>
      <trkpt lat="42.14276" lon="2.36189">
        <ele>1200.1</ele>
        <time>2018-11-26T21:14:03Z</time>
      </trkpt>
      <trkpt lat="42.14273" lon="2.36182">
        <ele>1200.3</ele>
        <time>2018-11-26T21:14:05Z</time>
      </trkpt>
      <trkpt lat="42.14271" lon="2.36176">
        <ele>1200.6</ele>
        <time>2018-11-26T21:14:07Z</time>
      </trkpt>
      <trkpt lat="42.1427" lon="2.3617">
        <ele>1201.2</ele>
        <time>2018-11-26T21:14:09Z</time>
      </trkpt>
      <trkpt lat="42.14269" lon="2.36164">
        <ele>1201.1</ele>
        <time>2018-11-26T21:14:11Z</time>
      </trkpt>
      <trkpt lat="42.1427" lon="2.36157">
        <ele>1201.4</ele>
        <time>2018-11-26T21:14:13Z</time>
      </trkpt>
      <trkpt lat="42.14272" lon="2.36151">
        <ele>1201.9</ele>
        <time>2018-11-26T21:14:15Z</time>
      </trkpt>
      <trkpt lat="42.14273" lon="2.36144">
        <ele>1202.2</ele>
        <time>2018-11-26T21:14:17Z</time>
      </trkpt>
      <trkpt lat="42.14276" lon="2.36138">
        <ele>1202.3</ele>
        <time>2018-11-26T21:14:20Z</time>
      </trkpt>
      <trkpt lat="42.14278" lon="2.36131">
        <ele>1202.8</ele>
        <time>2018-11-26T21:14:22Z</time>
      </trkpt>
      <trkpt lat="42.14278" lon="2.36124">
        <ele>1203.5</ele>
        <time>2018-11-26T21:14:24Z</time>
      </trkpt>
      <trkpt lat="42.14278" lon="2.36117">
        <ele>1203.8</ele>
        <time>2018-11-26T21:14:26Z</time>
      </trkpt>
      <trkpt lat="42.14279" lon="2.36111">
        <ele>1204</ele>
        <time>2018-11-26T21:14:28Z</time>
      </trkpt>
      <trkpt lat="42.14278" lon="2.36105">
        <ele>1204.5</ele>
        <time>2018-11-26T21:14:29Z</time>
      </trkpt>
      <trkpt lat="42.1428" lon="2.361">
        <ele>1205.1</ele>
        <time>2018-11-26T21:14:31Z</time>
      </trkpt>
      <trkpt lat="42.14284" lon="2.36095">
        <ele>1205.6</ele>
        <time>2018-11-26T21:14:33Z</time>
      </trkpt>
      <trkpt lat="42.14284" lon="2.36089">
        <ele>1206.1</ele>
        <time>2018-11-26T21:14:35Z</time>
      </trkpt>
      <trkpt lat="42.14287" lon="2.36084">
        <ele>1206.1</ele>
        <time>2018-11-26T21:14:37Z</time>
      </trkpt>
      <trkpt lat="42.14291" lon="2.36079">
        <ele>1206.3</ele>
        <time>2018-11-26T21:14:39Z</time>
      </trkpt>
      <trkpt lat="42.1429" lon="2.36072">
        <ele>1206.3</ele>
        <time>2018-11-26T21:14:41Z</time>
      </trkpt>
      <trkpt lat="42.14292" lon="2.36066">
        <ele>1206.6</ele>
        <time>2018-11-26T21:14:43Z</time>
      </trkpt>
      <trkpt lat="42.14292" lon="2.36058">
        <ele>1207.1</ele>
        <time>2018-11-26T21:14:45Z</time>
      </trkpt>
      <trkpt lat="42.14293" lon="2.36052">
        <ele>1207.5</ele>
        <time>2018-11-26T21:14:47Z</time>
      </trkpt>
      <trkpt lat="42.14295" lon="2.36045">
        <ele>1208</ele>
        <time>2018-11-26T21:14:50Z</time>
      </trkpt>
      <trkpt lat="42.14297" lon="2.36039">
        <ele>1208.3</ele>
        <time>2018-11-26T21:14:51Z</time>
      </trkpt>
      <trkpt lat="42.14298" lon="2.36033">
        <ele>1208.8</ele>
        <time>2018-11-26T21:14:53Z</time>
      </trkpt>
      <trkpt lat="42.14301" lon="2.36028">
        <ele>1209.1</ele>
        <time>2018-11-26T21:14:55Z</time>
      </trkpt>
      <trkpt lat="42.14302" lon="2.36021">
        <ele>1209.6</ele>
        <time>2018-11-26T21:14:57Z</time>
      </trkpt>
      <trkpt lat="42.14304" lon="2.36016">
        <ele>1209.9</ele>
        <time>2018-11-26T21:14:59Z</time>
      </trkpt>
      <trkpt lat="42.14307" lon="2.3601">
        <ele>1210.4</ele>
        <time>2018-11-26T21:15:01Z</time>
      </trkpt>
      <trkpt lat="42.14311" lon="2.36005">
        <ele>1210.9</ele>
        <time>2018-11-26T21:15:03Z</time>
      </trkpt>
      <trkpt lat="42.14314" lon="2.36">
        <ele>1211.4</ele>
        <time>2018-11-26T21:15:05Z</time>
      </trkpt>
      <trkpt lat="42.14317" lon="2.35994">
        <ele>1212.1</ele>
        <time>2018-11-26T21:15:07Z</time>
      </trkpt>
      <trkpt lat="42.14321" lon="2.35991">
        <ele>1212.7</ele>
        <time>2018-11-26T21:15:09Z</time>
      </trkpt>
      <trkpt lat="42.14325" lon="2.35987">
        <ele>1213.2</ele>
        <time>2018-11-26T21:15:11Z</time>
      </trkpt>
      <trkpt lat="42.14329" lon="2.35983">
        <ele>1213.7</ele>
        <time>2018-11-26T21:15:13Z</time>
      </trkpt>
      <trkpt lat="42.14331" lon="2.35977">
        <ele>1214.3</ele>
        <time>2018-11-26T21:15:15Z</time>
      </trkpt>
      <trkpt lat="42.14332" lon="2.35971">
        <ele>1215</ele>
        <time>2018-11-26T21:15:17Z</time>
      </trkpt>
      <trkpt lat="42.14334" lon="2.35964">
        <ele>1215.5</ele>
        <time>2018-11-26T21:15:19Z</time>
      </trkpt>
      <trkpt lat="42.14336" lon="2.35959">
        <ele>1215.6</ele>
        <time>2018-11-26T21:15:21Z</time>
      </trkpt>
      <trkpt lat="42.14338" lon="2.35953">
        <ele>1216</ele>
        <time>2018-11-26T21:15:23Z</time>
      </trkpt>
      <trkpt lat="42.1434" lon="2.35947">
        <ele>1216.4</ele>
        <time>2018-11-26T21:15:25Z</time>
      </trkpt>
      <trkpt lat="42.14342" lon="2.35941">
        <ele>1216.6</ele>
        <time>2018-11-26T21:15:27Z</time>
      </trkpt>
      <trkpt lat="42.14344" lon="2.35935">
        <ele>1217.2</ele>
        <time>2018-11-26T21:15:29Z</time>
      </trkpt>
      <trkpt lat="42.14347" lon="2.3593">
        <ele>1217.5</ele>
        <time>2018-11-26T21:15:31Z</time>
      </trkpt>
      <trkpt lat="42.14352" lon="2.35925">
        <ele>1218.5</ele>
        <time>2018-11-26T21:15:33Z</time>
      </trkpt>
      <trkpt lat="42.14356" lon="2.3592">
        <ele>1219.2</ele>
        <time>2018-11-26T21:15:35Z</time>
      </trkpt>
      <trkpt lat="42.14358" lon="2.35914">
        <ele>1219.7</ele>
        <time>2018-11-26T21:15:37Z</time>
      </trkpt>
      <trkpt lat="42.14359" lon="2.35908">
        <ele>1220.2</ele>
        <time>2018-11-26T21:15:39Z</time>
      </trkpt>
      <trkpt lat="42.1436" lon="2.35902">
        <ele>1220.4</ele>
        <time>2018-11-26T21:15:41Z</time>
      </trkpt>
      <trkpt lat="42.14361" lon="2.35896">
        <ele>1220.7</ele>
        <time>2018-11-26T21:15:43Z</time>
      </trkpt>
      <trkpt lat="42.14362" lon="2.3589">
        <ele>1221.2</ele>
        <time>2018-11-26T21:15:45Z</time>
      </trkpt>
      <trkpt lat="42.14362" lon="2.35883">
        <ele>1221.6</ele>
        <time>2018-11-26T21:15:47Z</time>
      </trkpt>
      <trkpt lat="42.14361" lon="2.35876">
        <ele>1222.4</ele>
        <time>2018-11-26T21:15:49Z</time>
      </trkpt>
      <trkpt lat="42.14361" lon="2.3587">
        <ele>1223</ele>
        <time>2018-11-26T21:15:51Z</time>
      </trkpt>
      <trkpt lat="42.14361" lon="2.35863">
        <ele>1223.8</ele>
        <time>2018-11-26T21:15:53Z</time>
      </trkpt>
      <trkpt lat="42.14362" lon="2.35856">
        <ele>1224.6</ele>
        <time>2018-11-26T21:15:55Z</time>
      </trkpt>
      <trkpt lat="42.14361" lon="2.35849">
        <ele>1225.1</ele>
        <time>2018-11-26T21:15:57Z</time>
      </trkpt>
      <trkpt lat="42.14362" lon="2.35843">
        <ele>1225.6</ele>
        <time>2018-11-26T21:15:59Z</time>
      </trkpt>
      <trkpt lat="42.14362" lon="2.35835">
        <ele>1226.3</ele>
        <time>2018-11-26T21:16:01Z</time>
      </trkpt>
      <trkpt lat="42.14363" lon="2.35828">
        <ele>1226.9</ele>
        <time>2018-11-26T21:16:03Z</time>
      </trkpt>
      <trkpt lat="42.14364" lon="2.35821">
        <ele>1227</ele>
        <time>2018-11-26T21:16:05Z</time>
      </trkpt>
      <trkpt lat="42.14365" lon="2.35814">
        <ele>1227.3</ele>
        <time>2018-11-26T21:16:07Z</time>
      </trkpt>
      <trkpt lat="42.14366" lon="2.35808">
        <ele>1227.1</ele>
        <time>2018-11-26T21:16:09Z</time>
      </trkpt>
      <trkpt lat="42.14369" lon="2.35803">
        <ele>1227.2</ele>
        <time>2018-11-26T21:16:11Z</time>
      </trkpt>
      <trkpt lat="42.14372" lon="2.35798">
        <ele>1227.4</ele>
        <time>2018-11-26T21:16:13Z</time>
      </trkpt>
      <trkpt lat="42.14376" lon="2.35792">
        <ele>1228.2</ele>
        <time>2018-11-26T21:16:15Z</time>
      </trkpt>
      <trkpt lat="42.14379" lon="2.35786">
        <ele>1228.5</ele>
        <time>2018-11-26T21:16:17Z</time>
      </trkpt>
      <trkpt lat="42.14381" lon="2.35781">
        <ele>1228.9</ele>
        <time>2018-11-26T21:16:19Z</time>
      </trkpt>
      <trkpt lat="42.14385" lon="2.35776">
        <ele>1229.1</ele>
        <time>2018-11-26T21:16:21Z</time>
      </trkpt>
      <trkpt lat="42.14385" lon="2.3577">
        <ele>1229.2</ele>
        <time>2018-11-26T21:16:23Z</time>
      </trkpt>
      <trkpt lat="42.14387" lon="2.35762">
        <ele>1229.6</ele>
        <time>2018-11-26T21:16:26Z</time>
      </trkpt>
      <trkpt lat="42.14387" lon="2.35755">
        <ele>1229.9</ele>
        <time>2018-11-26T21:16:28Z</time>
      </trkpt>
      <trkpt lat="42.14386" lon="2.35748">
        <ele>1230</ele>
        <time>2018-11-26T21:16:30Z</time>
      </trkpt>
      <trkpt lat="42.14384" lon="2.3574">
        <ele>1230.4</ele>
        <time>2018-11-26T21:16:32Z</time>
      </trkpt>
      <trkpt lat="42.14383" lon="2.35733">
        <ele>1230.5</ele>
        <time>2018-11-26T21:16:34Z</time>
      </trkpt>
      <trkpt lat="42.14382" lon="2.35727">
        <ele>1230.6</ele>
        <time>2018-11-26T21:16:36Z</time>
      </trkpt>
      <trkpt lat="42.14383" lon="2.3572">
        <ele>1230.5</ele>
        <time>2018-11-26T21:16:38Z</time>
      </trkpt>
      <trkpt lat="42.14383" lon="2.35714">
        <ele>1230.8</ele>
        <time>2018-11-26T21:16:40Z</time>
      </trkpt>
      <trkpt lat="42.14381" lon="2.35707">
        <ele>1231.3</ele>
        <time>2018-11-26T21:16:42Z</time>
      </trkpt>
      <trkpt lat="42.14381" lon="2.357">
        <ele>1231.5</ele>
        <time>2018-11-26T21:16:44Z</time>
      </trkpt>
      <trkpt lat="42.1438" lon="2.35693">
        <ele>1231.7</ele>
        <time>2018-11-26T21:16:46Z</time>
      </trkpt>
      <trkpt lat="42.1438" lon="2.35687">
        <ele>1231.9</ele>
        <time>2018-11-26T21:16:48Z</time>
      </trkpt>
      <trkpt lat="42.14379" lon="2.3568">
        <ele>1232.2</ele>
        <time>2018-11-26T21:16:50Z</time>
      </trkpt>
      <trkpt lat="42.14378" lon="2.35673">
        <ele>1232.2</ele>
        <time>2018-11-26T21:16:52Z</time>
      </trkpt>
      <trkpt lat="42.14377" lon="2.35666">
        <ele>1231.8</ele>
        <time>2018-11-26T21:16:54Z</time>
      </trkpt>
      <trkpt lat="42.14376" lon="2.3566">
        <ele>1231.8</ele>
        <time>2018-11-26T21:16:56Z</time>
      </trkpt>
      <trkpt lat="42.14375" lon="2.35654">
        <ele>1231.9</ele>
        <time>2018-11-26T21:16:58Z</time>
      </trkpt>
      <trkpt lat="42.14374" lon="2.35648">
        <ele>1231.8</ele>
        <time>2018-11-26T21:17:00Z</time>
      </trkpt>
      <trkpt lat="42.14373" lon="2.35641">
        <ele>1232.2</ele>
        <time>2018-11-26T21:17:02Z</time>
      </trkpt>
      <trkpt lat="42.14372" lon="2.35635">
        <ele>1232.5</ele>
        <time>2018-11-26T21:17:04Z</time>
      </trkpt>
      <trkpt lat="42.14371" lon="2.35629">
        <ele>1232.9</ele>
        <time>2018-11-26T21:17:06Z</time>
      </trkpt>
      <trkpt lat="42.14369" lon="2.35623">
        <ele>1233</ele>
        <time>2018-11-26T21:17:08Z</time>
      </trkpt>
      <trkpt lat="42.14369" lon="2.35616">
        <ele>1233.2</ele>
        <time>2018-11-26T21:17:10Z</time>
      </trkpt>
      <trkpt lat="42.14369" lon="2.35609">
        <ele>1233</ele>
        <time>2018-11-26T21:17:12Z</time>
      </trkpt>
      <trkpt lat="42.14368" lon="2.35603">
        <ele>1233.2</ele>
        <time>2018-11-26T21:17:14Z</time>
      </trkpt>
      <trkpt lat="42.1437" lon="2.35597">
        <ele>1232.2</ele>
        <time>2018-11-26T21:17:16Z</time>
      </trkpt>
      <trkpt lat="42.14375" lon="2.35593">
        <ele>1232.6</ele>
        <time>2018-11-26T21:17:18Z</time>
      </trkpt>
      <trkpt lat="42.14374" lon="2.35588">
        <ele>1232.9</ele>
        <time>2018-11-26T21:17:20Z</time>
      </trkpt>
      <trkpt lat="42.14371" lon="2.35582">
        <ele>1232.4</ele>
        <time>2018-11-26T21:17:22Z</time>
      </trkpt>
      <trkpt lat="42.14368" lon="2.35577">
        <ele>1232.7</ele>
        <time>2018-11-26T21:17:24Z</time>
      </trkpt>
      <trkpt lat="42.14365" lon="2.35572">
        <ele>1232.7</ele>
        <time>2018-11-26T21:17:26Z</time>
      </trkpt>
      <trkpt lat="42.14363" lon="2.35565">
        <ele>1233.8</ele>
        <time>2018-11-26T21:17:28Z</time>
      </trkpt>
      <trkpt lat="42.14365" lon="2.35559">
        <ele>1234.1</ele>
        <time>2018-11-26T21:17:30Z</time>
      </trkpt>
      <trkpt lat="42.14365" lon="2.35552">
        <ele>1234.2</ele>
        <time>2018-11-26T21:17:32Z</time>
      </trkpt>
      <trkpt lat="42.14366" lon="2.35546">
        <ele>1234.5</ele>
        <time>2018-11-26T21:17:34Z</time>
      </trkpt>
      <trkpt lat="42.14365" lon="2.35539">
        <ele>1234.7</ele>
        <time>2018-11-26T21:17:36Z</time>
      </trkpt>
      <trkpt lat="42.14365" lon="2.35532">
        <ele>1235.1</ele>
        <time>2018-11-26T21:17:38Z</time>
      </trkpt>
      <trkpt lat="42.14365" lon="2.35525">
        <ele>1235.5</ele>
        <time>2018-11-26T21:17:40Z</time>
      </trkpt>
      <trkpt lat="42.14367" lon="2.3552">
        <ele>1236.2</ele>
        <time>2018-11-26T21:17:42Z</time>
      </trkpt>
      <trkpt lat="42.14365" lon="2.35513">
        <ele>1236.3</ele>
        <time>2018-11-26T21:17:44Z</time>
      </trkpt>
      <trkpt lat="42.14364" lon="2.35507">
        <ele>1236.5</ele>
        <time>2018-11-26T21:17:46Z</time>
      </trkpt>
      <trkpt lat="42.14369" lon="2.35505">
        <ele>1236.6</ele>
        <time>2018-11-26T21:17:48Z</time>
      </trkpt>
      <trkpt lat="42.14374" lon="2.35506">
        <ele>1236.6</ele>
        <time>2018-11-26T21:17:50Z</time>
      </trkpt>
      <trkpt lat="42.14368" lon="2.35507">
        <ele>1236.8</ele>
        <time>2018-11-26T21:17:52Z</time>
      </trkpt>
      <trkpt lat="42.14372" lon="2.3551">
        <ele>1236</ele>
        <time>2018-11-26T21:17:54Z</time>
      </trkpt>
      <trkpt lat="42.14376" lon="2.35506">
        <ele>1237</ele>
        <time>2018-11-26T21:17:56Z</time>
      </trkpt>
      <trkpt lat="42.1438" lon="2.35502">
        <ele>1237.8</ele>
        <time>2018-11-26T21:17:58Z</time>
      </trkpt>
      <trkpt lat="42.14382" lon="2.35496">
        <ele>1239.3</ele>
        <time>2018-11-26T21:18:00Z</time>
      </trkpt>
      <trkpt lat="42.14383" lon="2.35489">
        <ele>1240.8</ele>
        <time>2018-11-26T21:18:02Z</time>
      </trkpt>
      <trkpt lat="42.14384" lon="2.35483">
        <ele>1242.7</ele>
        <time>2018-11-26T21:18:04Z</time>
      </trkpt>
      <trkpt lat="42.14383" lon="2.35477">
        <ele>1242</ele>
        <time>2018-11-26T21:18:06Z</time>
      </trkpt>
      <trkpt lat="42.14381" lon="2.35472">
        <ele>1241.9</ele>
        <time>2018-11-26T21:18:08Z</time>
      </trkpt>
      <trkpt lat="42.14379" lon="2.35465">
        <ele>1241.9</ele>
        <time>2018-11-26T21:18:10Z</time>
      </trkpt>
      <trkpt lat="42.14379" lon="2.35458">
        <ele>1242.4</ele>
        <time>2018-11-26T21:18:12Z</time>
      </trkpt>
      <trkpt lat="42.14379" lon="2.35451">
        <ele>1243</ele>
        <time>2018-11-26T21:18:14Z</time>
      </trkpt>
      <trkpt lat="42.14379" lon="2.35445">
        <ele>1245</ele>
        <time>2018-11-26T21:18:16Z</time>
      </trkpt>
      <trkpt lat="42.14377" lon="2.35439">
        <ele>1245.9</ele>
        <time>2018-11-26T21:18:18Z</time>
      </trkpt>
      <trkpt lat="42.14379" lon="2.35433">
        <ele>1246.6</ele>
        <time>2018-11-26T21:18:19Z</time>
      </trkpt>
      <trkpt lat="42.14382" lon="2.35427">
        <ele>1249.1</ele>
        <time>2018-11-26T21:18:21Z</time>
      </trkpt>
      <trkpt lat="42.1438" lon="2.35421">
        <ele>1250.5</ele>
        <time>2018-11-26T21:18:23Z</time>
      </trkpt>
      <trkpt lat="42.14381" lon="2.35415">
        <ele>1251.3</ele>
        <time>2018-11-26T21:18:25Z</time>
      </trkpt>
      <trkpt lat="42.14378" lon="2.35409">
        <ele>1252.2</ele>
        <time>2018-11-26T21:18:27Z</time>
      </trkpt>
      <trkpt lat="42.14377" lon="2.35402">
        <ele>1252.8</ele>
        <time>2018-11-26T21:18:29Z</time>
      </trkpt>
      <trkpt lat="42.14377" lon="2.35395">
        <ele>1254</ele>
        <time>2018-11-26T21:18:31Z</time>
      </trkpt>
      <trkpt lat="42.14376" lon="2.35389">
        <ele>1255.4</ele>
        <time>2018-11-26T21:18:33Z</time>
      </trkpt>
      <trkpt lat="42.14377" lon="2.35383">
        <ele>1256.4</ele>
        <time>2018-11-26T21:18:35Z</time>
      </trkpt>
      <trkpt lat="42.14377" lon="2.35377">
        <ele>1257.9</ele>
        <time>2018-11-26T21:18:37Z</time>
      </trkpt>
      <trkpt lat="42.14378" lon="2.35369">
        <ele>1259</ele>
        <time>2018-11-26T21:18:39Z</time>
      </trkpt>
      <trkpt lat="42.1438" lon="2.35363">
        <ele>1259.7</ele>
        <time>2018-11-26T21:18:41Z</time>
      </trkpt>
      <trkpt lat="42.14383" lon="2.35357">
        <ele>1260.7</ele>
        <time>2018-11-26T21:18:43Z</time>
      </trkpt>
      <trkpt lat="42.14379" lon="2.35353">
        <ele>1261.3</ele>
        <time>2018-11-26T21:18:45Z</time>
      </trkpt>
      <trkpt lat="42.14382" lon="2.35347">
        <ele>1262.8</ele>
        <time>2018-11-26T21:18:47Z</time>
      </trkpt>
      <trkpt lat="42.14383" lon="2.35341">
        <ele>1263.6</ele>
        <time>2018-11-26T21:18:49Z</time>
      </trkpt>
      <trkpt lat="42.14381" lon="2.35335">
        <ele>1264.5</ele>
        <time>2018-11-26T21:18:51Z</time>
      </trkpt>
      <trkpt lat="42.14381" lon="2.35328">
        <ele>1264.5</ele>
        <time>2018-11-26T21:18:53Z</time>
      </trkpt>
      <trkpt lat="42.14383" lon="2.35322">
        <ele>1266.1</ele>
        <time>2018-11-26T21:18:55Z</time>
      </trkpt>
      <trkpt lat="42.14388" lon="2.35323">
        <ele>1268.2</ele>
        <time>2018-11-26T21:18:57Z</time>
      </trkpt>
      <trkpt lat="42.14389" lon="2.35316">
        <ele>1269.5</ele>
        <time>2018-11-26T21:18:59Z</time>
      </trkpt>
      <trkpt lat="42.14394" lon="2.35313">
        <ele>1273.2</ele>
        <time>2018-11-26T21:19:01Z</time>
      </trkpt>
      <trkpt lat="42.14396" lon="2.35307">
        <ele>1274.1</ele>
        <time>2018-11-26T21:19:03Z</time>
      </trkpt>
      <trkpt lat="42.14396" lon="2.353">
        <ele>1274.3</ele>
        <time>2018-11-26T21:19:05Z</time>
      </trkpt>
      <trkpt lat="42.14394" lon="2.35294">
        <ele>1274.6</ele>
        <time>2018-11-26T21:19:07Z</time>
      </trkpt>
      <trkpt lat="42.14393" lon="2.35288">
        <ele>1274.9</ele>
        <time>2018-11-26T21:19:09Z</time>
      </trkpt>
      <trkpt lat="42.14391" lon="2.35282">
        <ele>1275.1</ele>
        <time>2018-11-26T21:19:11Z</time>
      </trkpt>
      <trkpt lat="42.14391" lon="2.35276">
        <ele>1275.1</ele>
        <time>2018-11-26T21:19:12Z</time>
      </trkpt>
      <trkpt lat="42.14389" lon="2.3527">
        <ele>1275.7</ele>
        <time>2018-11-26T21:19:14Z</time>
      </trkpt>
      <trkpt lat="42.14388" lon="2.35264">
        <ele>1276</ele>
        <time>2018-11-26T21:19:16Z</time>
      </trkpt>
      <trkpt lat="42.14384" lon="2.3526">
        <ele>1275.9</ele>
        <time>2018-11-26T21:19:18Z</time>
      </trkpt>
      <trkpt lat="42.14381" lon="2.35254">
        <ele>1276</ele>
        <time>2018-11-26T21:19:20Z</time>
      </trkpt>
      <trkpt lat="42.14378" lon="2.35249">
        <ele>1275.6</ele>
        <time>2018-11-26T21:19:22Z</time>
      </trkpt>
      <trkpt lat="42.14375" lon="2.35244">
        <ele>1275.1</ele>
        <time>2018-11-26T21:19:24Z</time>
      </trkpt>
      <trkpt lat="42.14372" lon="2.35239">
        <ele>1274.6</ele>
        <time>2018-11-26T21:19:26Z</time>
      </trkpt>
      <trkpt lat="42.1437" lon="2.35233">
        <ele>1274.8</ele>
        <time>2018-11-26T21:19:28Z</time>
      </trkpt>
      <trkpt lat="42.14368" lon="2.35226">
        <ele>1274.7</ele>
        <time>2018-11-26T21:19:30Z</time>
      </trkpt>
      <trkpt lat="42.14365" lon="2.3522">
        <ele>1274.6</ele>
        <time>2018-11-26T21:19:32Z</time>
      </trkpt>
      <trkpt lat="42.14362" lon="2.35215">
        <ele>1274.8</ele>
        <time>2018-11-26T21:19:34Z</time>
      </trkpt>
      <trkpt lat="42.14361" lon="2.35209">
        <ele>1275.7</ele>
        <time>2018-11-26T21:19:36Z</time>
      </trkpt>
      <trkpt lat="42.14359" lon="2.35202">
        <ele>1276.8</ele>
        <time>2018-11-26T21:19:38Z</time>
      </trkpt>
      <trkpt lat="42.14359" lon="2.35195">
        <ele>1277.4</ele>
        <time>2018-11-26T21:19:40Z</time>
      </trkpt>
      <trkpt lat="42.14357" lon="2.35188">
        <ele>1278</ele>
        <time>2018-11-26T21:19:43Z</time>
      </trkpt>
      <trkpt lat="42.14355" lon="2.35181">
        <ele>1278.7</ele>
        <time>2018-11-26T21:19:45Z</time>
      </trkpt>
      <trkpt lat="42.14354" lon="2.35175">
        <ele>1279.7</ele>
        <time>2018-11-26T21:19:47Z</time>
      </trkpt>
      <trkpt lat="42.14351" lon="2.35169">
        <ele>1280.7</ele>
        <time>2018-11-26T21:19:49Z</time>
      </trkpt>
      <trkpt lat="42.14349" lon="2.35162">
        <ele>1281.6</ele>
        <time>2018-11-26T21:19:51Z</time>
      </trkpt>
      <trkpt lat="42.14348" lon="2.35156">
        <ele>1282.8</ele>
        <time>2018-11-26T21:19:53Z</time>
      </trkpt>
      <trkpt lat="42.14347" lon="2.3515">
        <ele>1283.8</ele>
        <time>2018-11-26T21:19:55Z</time>
      </trkpt>
      <trkpt lat="42.14345" lon="2.35144">
        <ele>1285.1</ele>
        <time>2018-11-26T21:19:57Z</time>
      </trkpt>
      <trkpt lat="42.14343" lon="2.35137">
        <ele>1285.9</ele>
        <time>2018-11-26T21:19:59Z</time>
      </trkpt>
      <trkpt lat="42.14343" lon="2.35131">
        <ele>1286.1</ele>
        <time>2018-11-26T21:20:01Z</time>
      </trkpt>
      <trkpt lat="42.14342" lon="2.35124">
        <ele>1286.3</ele>
        <time>2018-11-26T21:20:03Z</time>
      </trkpt>
      <trkpt lat="42.14341" lon="2.35117">
        <ele>1286.7</ele>
        <time>2018-11-26T21:20:05Z</time>
      </trkpt>
      <trkpt lat="42.14339" lon="2.35112">
        <ele>1287.2</ele>
        <time>2018-11-26T21:20:07Z</time>
      </trkpt>
      <trkpt lat="42.14337" lon="2.35106">
        <ele>1287.4</ele>
        <time>2018-11-26T21:20:09Z</time>
      </trkpt>
      <trkpt lat="42.14336" lon="2.351">
        <ele>1288.1</ele>
        <time>2018-11-26T21:20:11Z</time>
      </trkpt>
      <trkpt lat="42.14335" lon="2.35093">
        <ele>1288.4</ele>
        <time>2018-11-26T21:20:12Z</time>
      </trkpt>
      <trkpt lat="42.14334" lon="2.35086">
        <ele>1288.5</ele>
        <time>2018-11-26T21:20:15Z</time>
      </trkpt>
      <trkpt lat="42.14334" lon="2.35079">
        <ele>1288.5</ele>
        <time>2018-11-26T21:20:17Z</time>
      </trkpt>
      <trkpt lat="42.14332" lon="2.35072">
        <ele>1288.9</ele>
        <time>2018-11-26T21:20:19Z</time>
      </trkpt>
      <trkpt lat="42.14332" lon="2.35065">
        <ele>1289.2</ele>
        <time>2018-11-26T21:20:21Z</time>
      </trkpt>
      <trkpt lat="42.14332" lon="2.35058">
        <ele>1289.8</ele>
        <time>2018-11-26T21:20:23Z</time>
      </trkpt>
      <trkpt lat="42.1433" lon="2.35051">
        <ele>1290.1</ele>
        <time>2018-11-26T21:20:25Z</time>
      </trkpt>
      <trkpt lat="42.1433" lon="2.35045">
        <ele>1290.6</ele>
        <time>2018-11-26T21:20:27Z</time>
      </trkpt>
      <trkpt lat="42.1433" lon="2.35037">
        <ele>1291.8</ele>
        <time>2018-11-26T21:20:29Z</time>
      </trkpt>
      <trkpt lat="42.1433" lon="2.3503">
        <ele>1292.3</ele>
        <time>2018-11-26T21:20:31Z</time>
      </trkpt>
      <trkpt lat="42.14329" lon="2.35023">
        <ele>1293.4</ele>
        <time>2018-11-26T21:20:34Z</time>
      </trkpt>
      <trkpt lat="42.1433" lon="2.35016">
        <ele>1294</ele>
        <time>2018-11-26T21:20:36Z</time>
      </trkpt>
      <trkpt lat="42.14328" lon="2.3501">
        <ele>1294.7</ele>
        <time>2018-11-26T21:20:38Z</time>
      </trkpt>
      <trkpt lat="42.14327" lon="2.35004">
        <ele>1295.5</ele>
        <time>2018-11-26T21:20:39Z</time>
      </trkpt>
      <trkpt lat="42.14329" lon="2.34997">
        <ele>1296</ele>
        <time>2018-11-26T21:20:41Z</time>
      </trkpt>
      <trkpt lat="42.1433" lon="2.34991">
        <ele>1297</ele>
        <time>2018-11-26T21:20:43Z</time>
      </trkpt>
      <trkpt lat="42.14325" lon="2.34989">
        <ele>1297.3</ele>
        <time>2018-11-26T21:20:45Z</time>
      </trkpt>
      <trkpt lat="42.14321" lon="2.34984">
        <ele>1298.5</ele>
        <time>2018-11-26T21:20:47Z</time>
      </trkpt>
      <trkpt lat="42.14319" lon="2.34979">
        <ele>1300.1</ele>
        <time>2018-11-26T21:20:49Z</time>
      </trkpt>
      <trkpt lat="42.14314" lon="2.34976">
        <ele>1301.1</ele>
        <time>2018-11-26T21:20:51Z</time>
      </trkpt>
      <trkpt lat="42.14312" lon="2.34971">
        <ele>1302</ele>
        <time>2018-11-26T21:20:53Z</time>
      </trkpt>
      <trkpt lat="42.14311" lon="2.34964">
        <ele>1303.2</ele>
        <time>2018-11-26T21:20:55Z</time>
      </trkpt>
      <trkpt lat="42.14308" lon="2.34959">
        <ele>1304.7</ele>
        <time>2018-11-26T21:20:57Z</time>
      </trkpt>
      <trkpt lat="42.14306" lon="2.34952">
        <ele>1306</ele>
        <time>2018-11-26T21:20:59Z</time>
      </trkpt>
      <trkpt lat="42.14304" lon="2.34946">
        <ele>1307.3</ele>
        <time>2018-11-26T21:21:01Z</time>
      </trkpt>
      <trkpt lat="42.14302" lon="2.3494">
        <ele>1307.7</ele>
        <time>2018-11-26T21:21:03Z</time>
      </trkpt>
      <trkpt lat="42.14298" lon="2.34935">
        <ele>1309.1</ele>
        <time>2018-11-26T21:21:05Z</time>
      </trkpt>
      <trkpt lat="42.14294" lon="2.34933">
        <ele>1310.3</ele>
        <time>2018-11-26T21:21:07Z</time>
      </trkpt>
      <trkpt lat="42.14289" lon="2.34931">
        <ele>1311.4</ele>
        <time>2018-11-26T21:21:09Z</time>
      </trkpt>
      <trkpt lat="42.14285" lon="2.34925">
        <ele>1313.5</ele>
        <time>2018-11-26T21:21:11Z</time>
      </trkpt>
      <trkpt lat="42.1428" lon="2.34923">
        <ele>1314.4</ele>
        <time>2018-11-26T21:21:13Z</time>
      </trkpt>
      <trkpt lat="42.14276" lon="2.3492">
        <ele>1317.1</ele>
        <time>2018-11-26T21:21:15Z</time>
      </trkpt>
      <trkpt lat="42.14272" lon="2.3492">
        <ele>1318.1</ele>
        <time>2018-11-26T21:21:17Z</time>
      </trkpt>
      <trkpt lat="42.14268" lon="2.34922">
        <ele>1319.4</ele>
        <time>2018-11-26T21:21:19Z</time>
      </trkpt>
      <trkpt lat="42.14265" lon="2.34916">
        <ele>1320.1</ele>
        <time>2018-11-26T21:21:21Z</time>
      </trkpt>
      <trkpt lat="42.14261" lon="2.34912">
        <ele>1321.1</ele>
        <time>2018-11-26T21:21:23Z</time>
      </trkpt>
      <trkpt lat="42.14258" lon="2.34909">
        <ele>1322</ele>
        <time>2018-11-26T21:21:25Z</time>
      </trkpt>
      <trkpt lat="42.14252" lon="2.34909">
        <ele>1324.8</ele>
        <time>2018-11-26T21:21:27Z</time>
      </trkpt>
      <trkpt lat="42.14249" lon="2.34913">
        <ele>1326.4</ele>
        <time>2018-11-26T21:21:28Z</time>
      </trkpt>
      <trkpt lat="42.14248" lon="2.3492">
        <ele>1327.5</ele>
        <time>2018-11-26T21:21:30Z</time>
      </trkpt>
      <trkpt lat="42.14245" lon="2.34926">
        <ele>1328.3</ele>
        <time>2018-11-26T21:21:33Z</time>
      </trkpt>
      <trkpt lat="42.14242" lon="2.34931">
        <ele>1328.8</ele>
        <time>2018-11-26T21:21:35Z</time>
      </trkpt>
      <trkpt lat="42.14241" lon="2.34937">
        <ele>1329.4</ele>
        <time>2018-11-26T21:21:36Z</time>
      </trkpt>
      <trkpt lat="42.14238" lon="2.34943">
        <ele>1330.2</ele>
        <time>2018-11-26T21:21:39Z</time>
      </trkpt>
      <trkpt lat="42.14234" lon="2.34947">
        <ele>1331.2</ele>
        <time>2018-11-26T21:21:40Z</time>
      </trkpt>
      <trkpt lat="42.1423" lon="2.34949">
        <ele>1332.9</ele>
        <time>2018-11-26T21:21:42Z</time>
      </trkpt>
      <trkpt lat="42.14226" lon="2.34952">
        <ele>1333.8</ele>
        <time>2018-11-26T21:21:44Z</time>
      </trkpt>
      <trkpt lat="42.14225" lon="2.34958">
        <ele>1335.4</ele>
        <time>2018-11-26T21:21:46Z</time>
      </trkpt>
      <trkpt lat="42.14221" lon="2.34961">
        <ele>1336.6</ele>
        <time>2018-11-26T21:21:48Z</time>
      </trkpt>
      <trkpt lat="42.14218" lon="2.34966">
        <ele>1337.3</ele>
        <time>2018-11-26T21:21:50Z</time>
      </trkpt>
      <trkpt lat="42.14214" lon="2.3497">
        <ele>1337.5</ele>
        <time>2018-11-26T21:21:52Z</time>
      </trkpt>
      <trkpt lat="42.14209" lon="2.34971">
        <ele>1337.8</ele>
        <time>2018-11-26T21:21:54Z</time>
      </trkpt>
      <trkpt lat="42.14205" lon="2.34969">
        <ele>1338.5</ele>
        <time>2018-11-26T21:21:56Z</time>
      </trkpt>
      <trkpt lat="42.142" lon="2.34969">
        <ele>1338.6</ele>
        <time>2018-11-26T21:21:58Z</time>
      </trkpt>
      <trkpt lat="42.14195" lon="2.3497">
        <ele>1338.4</ele>
        <time>2018-11-26T21:22:00Z</time>
      </trkpt>
      <trkpt lat="42.14189" lon="2.34971">
        <ele>1337.6</ele>
        <time>2018-11-26T21:22:02Z</time>
      </trkpt>
      <trkpt lat="42.14185" lon="2.34972">
        <ele>1337.7</ele>
        <time>2018-11-26T21:22:04Z</time>
      </trkpt>
      <trkpt lat="42.1418" lon="2.34974">
        <ele>1336.7</ele>
        <time>2018-11-26T21:22:06Z</time>
      </trkpt>
      <trkpt lat="42.14175" lon="2.34976">
        <ele>1336.8</ele>
        <time>2018-11-26T21:22:08Z</time>
      </trkpt>
      <trkpt lat="42.14171" lon="2.34979">
        <ele>1337</ele>
        <time>2018-11-26T21:22:10Z</time>
      </trkpt>
      <trkpt lat="42.14166" lon="2.34982">
        <ele>1337.2</ele>
        <time>2018-11-26T21:22:12Z</time>
      </trkpt>
      <trkpt lat="42.14162" lon="2.34984">
        <ele>1338</ele>
        <time>2018-11-26T21:22:14Z</time>
      </trkpt>
      <trkpt lat="42.14157" lon="2.34988">
        <ele>1338.5</ele>
        <time>2018-11-26T21:22:16Z</time>
      </trkpt>
      <trkpt lat="42.14153" lon="2.34992">
        <ele>1339</ele>
        <time>2018-11-26T21:22:18Z</time>
      </trkpt>
      <trkpt lat="42.14149" lon="2.34995">
        <ele>1339.8</ele>
        <time>2018-11-26T21:22:20Z</time>
      </trkpt>
      <trkpt lat="42.14145" lon="2.34998">
        <ele>1340.9</ele>
        <time>2018-11-26T21:22:22Z</time>
      </trkpt>
      <trkpt lat="42.1414" lon="2.35">
        <ele>1342.4</ele>
        <time>2018-11-26T21:22:24Z</time>
      </trkpt>
      <trkpt lat="42.14136" lon="2.35003">
        <ele>1344.2</ele>
        <time>2018-11-26T21:22:26Z</time>
      </trkpt>
      <trkpt lat="42.14131" lon="2.35003">
        <ele>1345.8</ele>
        <time>2018-11-26T21:22:27Z</time>
      </trkpt>
      <trkpt lat="42.14126" lon="2.35004">
        <ele>1346.9</ele>
        <time>2018-11-26T21:22:29Z</time>
      </trkpt>
      <trkpt lat="42.14076" lon="2.35002">
        <ele>1369.9</ele>
        <time>2018-11-26T21:22:50Z</time>
      </trkpt>
      <trkpt lat="42.14072" lon="2.35001">
        <ele>1371.6</ele>
        <time>2018-11-26T21:22:51Z</time>
      </trkpt>
      <trkpt lat="42.14068" lon="2.35004">
        <ele>1374.1</ele>
        <time>2018-11-26T21:22:53Z</time>
      </trkpt>
      <trkpt lat="42.14064" lon="2.35007">
        <ele>1375.9</ele>
        <time>2018-11-26T21:22:55Z</time>
      </trkpt>
      <trkpt lat="42.14061" lon="2.35013">
        <ele>1377.4</ele>
        <time>2018-11-26T21:22:57Z</time>
      </trkpt>
      <trkpt lat="42.14058" lon="2.35017">
        <ele>1379.7</ele>
        <time>2018-11-26T21:22:59Z</time>
      </trkpt>
      <trkpt lat="42.14054" lon="2.35021">
        <ele>1381.4</ele>
        <time>2018-11-26T21:23:01Z</time>
      </trkpt>
      <trkpt lat="42.1405" lon="2.35025">
        <ele>1382.9</ele>
        <time>2018-11-26T21:23:03Z</time>
      </trkpt>
      <trkpt lat="42.14047" lon="2.3503">
        <ele>1384.4</ele>
        <time>2018-11-26T21:23:05Z</time>
      </trkpt>
      <trkpt lat="42.14043" lon="2.35035">
        <ele>1386</ele>
        <time>2018-11-26T21:23:07Z</time>
      </trkpt>
      <trkpt lat="42.1404" lon="2.35039">
        <ele>1387.2</ele>
        <time>2018-11-26T21:23:09Z</time>
      </trkpt>
      <trkpt lat="42.14036" lon="2.35043">
        <ele>1388.7</ele>
        <time>2018-11-26T21:23:11Z</time>
      </trkpt>
      <trkpt lat="42.14031" lon="2.35044">
        <ele>1389.3</ele>
        <time>2018-11-26T21:23:13Z</time>
      </trkpt>
      <trkpt lat="42.14026" lon="2.35046">
        <ele>1389.7</ele>
        <time>2018-11-26T21:23:15Z</time>
      </trkpt>
      <trkpt lat="42.14021" lon="2.35047">
        <ele>1389.9</ele>
        <time>2018-11-26T21:23:17Z</time>
      </trkpt>
      <trkpt lat="42.14017" lon="2.35051">
        <ele>1390.1</ele>
        <time>2018-11-26T21:23:19Z</time>
      </trkpt>
      <trkpt lat="42.14012" lon="2.35054">
        <ele>1390.2</ele>
        <time>2018-11-26T21:23:21Z</time>
      </trkpt>
      <trkpt lat="42.14008" lon="2.35057">
        <ele>1390.8</ele>
        <time>2018-11-26T21:23:23Z</time>
      </trkpt>
      <trkpt lat="42.14004" lon="2.35062">
        <ele>1391.4</ele>
        <time>2018-11-26T21:23:25Z</time>
      </trkpt>
      <trkpt lat="42.14001" lon="2.35066">
        <ele>1391.1</ele>
        <time>2018-11-26T21:23:27Z</time>
      </trkpt>
      <trkpt lat="42.13998" lon="2.35071">
        <ele>1390.7</ele>
        <time>2018-11-26T21:23:29Z</time>
      </trkpt>
      <trkpt lat="42.13995" lon="2.35076">
        <ele>1390</ele>
        <time>2018-11-26T21:23:31Z</time>
      </trkpt>
      <trkpt lat="42.13991" lon="2.35081">
        <ele>1389.3</ele>
        <time>2018-11-26T21:23:33Z</time>
      </trkpt>
      <trkpt lat="42.13988" lon="2.35085">
        <ele>1388.9</ele>
        <time>2018-11-26T21:23:34Z</time>
      </trkpt>
      <trkpt lat="42.13983" lon="2.35088">
        <ele>1388.5</ele>
        <time>2018-11-26T21:23:37Z</time>
      </trkpt>
      <trkpt lat="42.13979" lon="2.35092">
        <ele>1388.6</ele>
        <time>2018-11-26T21:23:38Z</time>
      </trkpt>
      <trkpt lat="42.13977" lon="2.35098">
        <ele>1388.5</ele>
        <time>2018-11-26T21:23:40Z</time>
      </trkpt>
      <trkpt lat="42.13972" lon="2.351">
        <ele>1388.4</ele>
        <time>2018-11-26T21:23:43Z</time>
      </trkpt>
      <trkpt lat="42.13968" lon="2.35102">
        <ele>1388.4</ele>
        <time>2018-11-26T21:23:44Z</time>
      </trkpt>
      <trkpt lat="42.13964" lon="2.35106">
        <ele>1388</ele>
        <time>2018-11-26T21:23:46Z</time>
      </trkpt>
      <trkpt lat="42.13962" lon="2.35111">
        <ele>1387.7</ele>
        <time>2018-11-26T21:23:48Z</time>
      </trkpt>
      <trkpt lat="42.13957" lon="2.35113">
        <ele>1387.5</ele>
        <time>2018-11-26T21:23:50Z</time>
      </trkpt>
      <trkpt lat="42.13951" lon="2.35113">
        <ele>1387.7</ele>
        <time>2018-11-26T21:23:52Z</time>
      </trkpt>
      <trkpt lat="42.13946" lon="2.35115">
        <ele>1388.2</ele>
        <time>2018-11-26T21:23:54Z</time>
      </trkpt>
      <trkpt lat="42.13942" lon="2.35118">
        <ele>1387.9</ele>
        <time>2018-11-26T21:23:56Z</time>
      </trkpt>
      <trkpt lat="42.13937" lon="2.35121">
        <ele>1387.7</ele>
        <time>2018-11-26T21:23:58Z</time>
      </trkpt>
      <trkpt lat="42.13933" lon="2.35121">
        <ele>1387.9</ele>
        <time>2018-11-26T21:24:00Z</time>
      </trkpt>
      <trkpt lat="42.13928" lon="2.35124">
        <ele>1388.5</ele>
        <time>2018-11-26T21:24:02Z</time>
      </trkpt>
      <trkpt lat="42.13923" lon="2.35126">
        <ele>1389.3</ele>
        <time>2018-11-26T21:24:04Z</time>
      </trkpt>
      <trkpt lat="42.13917" lon="2.35126">
        <ele>1389.6</ele>
        <time>2018-11-26T21:24:07Z</time>
      </trkpt>
      <trkpt lat="42.13912" lon="2.35131">
        <ele>1390.3</ele>
        <time>2018-11-26T21:24:09Z</time>
      </trkpt>
      <trkpt lat="42.13908" lon="2.35131">
        <ele>1391.1</ele>
        <time>2018-11-26T21:24:11Z</time>
      </trkpt>
      <trkpt lat="42.13904" lon="2.35135">
        <ele>1391.6</ele>
        <time>2018-11-26T21:24:13Z</time>
      </trkpt>
      <trkpt lat="42.13899" lon="2.35137">
        <ele>1393.4</ele>
        <time>2018-11-26T21:24:15Z</time>
      </trkpt>
      <trkpt lat="42.13894" lon="2.35138">
        <ele>1394</ele>
        <time>2018-11-26T21:24:17Z</time>
      </trkpt>
      <trkpt lat="42.13889" lon="2.35139">
        <ele>1395.5</ele>
        <time>2018-11-26T21:24:19Z</time>
      </trkpt>
      <trkpt lat="42.13885" lon="2.35142">
        <ele>1397.4</ele>
        <time>2018-11-26T21:24:21Z</time>
      </trkpt>
      <trkpt lat="42.13881" lon="2.35145">
        <ele>1398</ele>
        <time>2018-11-26T21:24:22Z</time>
      </trkpt>
      <trkpt lat="42.13878" lon="2.35151">
        <ele>1398.5</ele>
        <time>2018-11-26T21:24:25Z</time>
      </trkpt>
      <trkpt lat="42.13874" lon="2.35151">
        <ele>1399</ele>
        <time>2018-11-26T21:24:26Z</time>
      </trkpt>
      <trkpt lat="42.13868" lon="2.35151">
        <ele>1400.6</ele>
        <time>2018-11-26T21:24:29Z</time>
      </trkpt>
      <trkpt lat="42.13865" lon="2.35155">
        <ele>1402.1</ele>
        <time>2018-11-26T21:24:30Z</time>
      </trkpt>
      <trkpt lat="42.1386" lon="2.35157">
        <ele>1402.6</ele>
        <time>2018-11-26T21:24:32Z</time>
      </trkpt>
      <trkpt lat="42.13855" lon="2.3516">
        <ele>1403.9</ele>
        <time>2018-11-26T21:24:35Z</time>
      </trkpt>
      <trkpt lat="42.13854" lon="2.35166">
        <ele>1405.2</ele>
        <time>2018-11-26T21:24:36Z</time>
      </trkpt>
      <trkpt lat="42.13852" lon="2.35172">
        <ele>1405.9</ele>
        <time>2018-11-26T21:24:38Z</time>
      </trkpt>
      <trkpt lat="42.1385" lon="2.35178">
        <ele>1406.9</ele>
        <time>2018-11-26T21:24:40Z</time>
      </trkpt>
      <trkpt lat="42.13846" lon="2.35181">
        <ele>1407.1</ele>
        <time>2018-11-26T21:24:42Z</time>
      </trkpt>
      <trkpt lat="42.13843" lon="2.35186">
        <ele>1408.3</ele>
        <time>2018-11-26T21:24:44Z</time>
      </trkpt>
      <trkpt lat="42.1384" lon="2.35192">
        <ele>1408.7</ele>
        <time>2018-11-26T21:24:46Z</time>
      </trkpt>
      <trkpt lat="42.13836" lon="2.35196">
        <ele>1408.8</ele>
        <time>2018-11-26T21:24:48Z</time>
      </trkpt>
      <trkpt lat="42.13831" lon="2.35198">
        <ele>1409.3</ele>
        <time>2018-11-26T21:24:50Z</time>
      </trkpt>
      <trkpt lat="42.13827" lon="2.35198">
        <ele>1410.8</ele>
        <time>2018-11-26T21:24:52Z</time>
      </trkpt>
      <trkpt lat="42.13822" lon="2.35199">
        <ele>1412.5</ele>
        <time>2018-11-26T21:24:54Z</time>
      </trkpt>
      <trkpt lat="42.13817" lon="2.35198">
        <ele>1414.8</ele>
        <time>2018-11-26T21:24:56Z</time>
      </trkpt>
      <trkpt lat="42.13813" lon="2.35195">
        <ele>1416.8</ele>
        <time>2018-11-26T21:24:58Z</time>
      </trkpt>
      <trkpt lat="42.13816" lon="2.35188">
        <ele>1418.2</ele>
        <time>2018-11-26T21:25:00Z</time>
      </trkpt>
      <trkpt lat="42.1382" lon="2.35185">
        <ele>1419.8</ele>
        <time>2018-11-26T21:25:02Z</time>
      </trkpt>
      <trkpt lat="42.13824" lon="2.35182">
        <ele>1421</ele>
        <time>2018-11-26T21:25:04Z</time>
      </trkpt>
      <trkpt lat="42.13829" lon="2.35178">
        <ele>1422.1</ele>
        <time>2018-11-26T21:25:06Z</time>
      </trkpt>
      <trkpt lat="42.1383" lon="2.35172">
        <ele>1422.4</ele>
        <time>2018-11-26T21:25:08Z</time>
      </trkpt>
      <trkpt lat="42.13831" lon="2.35165">
        <ele>1423.1</ele>
        <time>2018-11-26T21:25:10Z</time>
      </trkpt>
      <trkpt lat="42.13832" lon="2.35159">
        <ele>1424.2</ele>
        <time>2018-11-26T21:25:12Z</time>
      </trkpt>
      <trkpt lat="42.13831" lon="2.35153">
        <ele>1424.8</ele>
        <time>2018-11-26T21:25:14Z</time>
      </trkpt>
      <trkpt lat="42.13834" lon="2.35148">
        <ele>1425.4</ele>
        <time>2018-11-26T21:25:16Z</time>
      </trkpt>
      <trkpt lat="42.13835" lon="2.35142">
        <ele>1426.5</ele>
        <time>2018-11-26T21:25:18Z</time>
      </trkpt>
      <trkpt lat="42.13838" lon="2.35136">
        <ele>1427.5</ele>
        <time>2018-11-26T21:25:20Z</time>
      </trkpt>
      <trkpt lat="42.13839" lon="2.3513">
        <ele>1428.7</ele>
        <time>2018-11-26T21:25:22Z</time>
      </trkpt>
      <trkpt lat="42.13841" lon="2.35124">
        <ele>1429.7</ele>
        <time>2018-11-26T21:25:24Z</time>
      </trkpt>
      <trkpt lat="42.13844" lon="2.35119">
        <ele>1430.8</ele>
        <time>2018-11-26T21:25:26Z</time>
      </trkpt>
      <trkpt lat="42.13847" lon="2.35114">
        <ele>1431.1</ele>
        <time>2018-11-26T21:25:28Z</time>
      </trkpt>
      <trkpt lat="42.1385" lon="2.35108">
        <ele>1431.7</ele>
        <time>2018-11-26T21:25:30Z</time>
      </trkpt>
      <trkpt lat="42.13854" lon="2.35104">
        <ele>1432.2</ele>
        <time>2018-11-26T21:25:32Z</time>
      </trkpt>
      <trkpt lat="42.13857" lon="2.351">
        <ele>1432.8</ele>
        <time>2018-11-26T21:25:33Z</time>
      </trkpt>
      <trkpt lat="42.13862" lon="2.35097">
        <ele>1433.4</ele>
        <time>2018-11-26T21:25:36Z</time>
      </trkpt>
      <trkpt lat="42.13865" lon="2.35092">
        <ele>1434.3</ele>
        <time>2018-11-26T21:25:37Z</time>
      </trkpt>
      <trkpt lat="42.1387" lon="2.35088">
        <ele>1435.3</ele>
        <time>2018-11-26T21:25:40Z</time>
      </trkpt>
      <trkpt lat="42.13873" lon="2.35084">
        <ele>1436.2</ele>
        <time>2018-11-26T21:25:42Z</time>
      </trkpt>
      <trkpt lat="42.13873" lon="2.35078">
        <ele>1437</ele>
        <time>2018-11-26T21:25:43Z</time>
      </trkpt>
      <trkpt lat="42.13878" lon="2.35074">
        <ele>1438</ele>
        <time>2018-11-26T21:25:45Z</time>
      </trkpt>
      <trkpt lat="42.1388" lon="2.35068">
        <ele>1438.9</ele>
        <time>2018-11-26T21:25:47Z</time>
      </trkpt>
      <trkpt lat="42.13883" lon="2.35063">
        <ele>1440.3</ele>
        <time>2018-11-26T21:25:49Z</time>
      </trkpt>
      <trkpt lat="42.13887" lon="2.35059">
        <ele>1440.9</ele>
        <time>2018-11-26T21:25:51Z</time>
      </trkpt>
      <trkpt lat="42.13884" lon="2.35054">
        <ele>1443.2</ele>
        <time>2018-11-26T21:25:53Z</time>
      </trkpt>
      <trkpt lat="42.13879" lon="2.35056">
        <ele>1445.9</ele>
        <time>2018-11-26T21:25:55Z</time>
      </trkpt>
      <trkpt lat="42.13875" lon="2.35054">
        <ele>1447.7</ele>
        <time>2018-11-26T21:25:57Z</time>
      </trkpt>
      <trkpt lat="42.1387" lon="2.35052">
        <ele>1448.3</ele>
        <time>2018-11-26T21:25:59Z</time>
      </trkpt>
      <trkpt lat="42.13865" lon="2.35052">
        <ele>1448.7</ele>
        <time>2018-11-26T21:26:01Z</time>
      </trkpt>
      <trkpt lat="42.13861" lon="2.35049">
        <ele>1449</ele>
        <time>2018-11-26T21:26:03Z</time>
      </trkpt>
      <trkpt lat="42.13855" lon="2.3505">
        <ele>1450.3</ele>
        <time>2018-11-26T21:26:05Z</time>
      </trkpt>
      <trkpt lat="42.13851" lon="2.35052">
        <ele>1451.6</ele>
        <time>2018-11-26T21:26:07Z</time>
      </trkpt>
      <trkpt lat="42.13846" lon="2.35053">
        <ele>1453.2</ele>
        <time>2018-11-26T21:26:09Z</time>
      </trkpt>
      <trkpt lat="42.13841" lon="2.35055">
        <ele>1454.3</ele>
        <time>2018-11-26T21:26:11Z</time>
      </trkpt>
      <trkpt lat="42.13836" lon="2.35057">
        <ele>1455.5</ele>
        <time>2018-11-26T21:26:13Z</time>
      </trkpt>
      <trkpt lat="42.13832" lon="2.35057">
        <ele>1456.6</ele>
        <time>2018-11-26T21:26:15Z</time>
      </trkpt>
      <trkpt lat="42.13827" lon="2.35057">
        <ele>1458.6</ele>
        <time>2018-11-26T21:26:17Z</time>
      </trkpt>
      <trkpt lat="42.13822" lon="2.35057">
        <ele>1460.1</ele>
        <time>2018-11-26T21:26:19Z</time>
      </trkpt>
      <trkpt lat="42.13818" lon="2.3506">
        <ele>1462</ele>
        <time>2018-11-26T21:26:21Z</time>
      </trkpt>
      <trkpt lat="42.13813" lon="2.35061">
        <ele>1463.1</ele>
        <time>2018-11-26T21:26:23Z</time>
      </trkpt>
      <trkpt lat="42.1381" lon="2.35065">
        <ele>1467.5</ele>
        <time>2018-11-26T21:26:24Z</time>
      </trkpt>
      <trkpt lat="42.13805" lon="2.35066">
        <ele>1471.8</ele>
        <time>2018-11-26T21:26:26Z</time>
      </trkpt>
      <trkpt lat="42.13801" lon="2.35063">
        <ele>1474.8</ele>
        <time>2018-11-26T21:26:28Z</time>
      </trkpt>
      <trkpt lat="42.13797" lon="2.35059">
        <ele>1475.6</ele>
        <time>2018-11-26T21:26:30Z</time>
      </trkpt>
      <trkpt lat="42.13793" lon="2.35056">
        <ele>1475.1</ele>
        <time>2018-11-26T21:26:32Z</time>
      </trkpt>
      <trkpt lat="42.13789" lon="2.35053">
        <ele>1474.8</ele>
        <time>2018-11-26T21:26:34Z</time>
      </trkpt>
      <trkpt lat="42.13785" lon="2.35049">
        <ele>1473.4</ele>
        <time>2018-11-26T21:26:36Z</time>
      </trkpt>
      <trkpt lat="42.13781" lon="2.35045">
        <ele>1472.6</ele>
        <time>2018-11-26T21:26:38Z</time>
      </trkpt>
      <trkpt lat="42.13776" lon="2.35043">
        <ele>1472.3</ele>
        <time>2018-11-26T21:26:40Z</time>
      </trkpt>
      <trkpt lat="42.13772" lon="2.35042">
        <ele>1471.6</ele>
        <time>2018-11-26T21:26:42Z</time>
      </trkpt>
      <trkpt lat="42.13767" lon="2.3504">
        <ele>1472.4</ele>
        <time>2018-11-26T21:26:44Z</time>
      </trkpt>
      <trkpt lat="42.13763" lon="2.35038">
        <ele>1473.6</ele>
        <time>2018-11-26T21:26:46Z</time>
      </trkpt>
      <trkpt lat="42.13758" lon="2.35036">
        <ele>1474</ele>
        <time>2018-11-26T21:26:47Z</time>
      </trkpt>
      <trkpt lat="42.13754" lon="2.35038">
        <ele>1474.3</ele>
        <time>2018-11-26T21:26:49Z</time>
      </trkpt>
      <trkpt lat="42.13752" lon="2.35044">
        <ele>1476.7</ele>
        <time>2018-11-26T21:26:51Z</time>
      </trkpt>
      <trkpt lat="42.13756" lon="2.35046">
        <ele>1478.7</ele>
        <time>2018-11-26T21:26:53Z</time>
      </trkpt>
      <trkpt lat="42.1376" lon="2.3505">
        <ele>1481.3</ele>
        <time>2018-11-26T21:26:55Z</time>
      </trkpt>
      <trkpt lat="42.13763" lon="2.35054">
        <ele>1483.4</ele>
        <time>2018-11-26T21:26:57Z</time>
      </trkpt>
      <trkpt lat="42.13765" lon="2.35059">
        <ele>1485.7</ele>
        <time>2018-11-26T21:26:59Z</time>
      </trkpt>
      <trkpt lat="42.13766" lon="2.35066">
        <ele>1489.6</ele>
        <time>2018-11-26T21:27:00Z</time>
      </trkpt>
      <trkpt lat="42.13764" lon="2.35072">
        <ele>1492.7</ele>
        <time>2018-11-26T21:27:02Z</time>
      </trkpt>
      <trkpt lat="42.13767" lon="2.35077">
        <ele>1495.3</ele>
        <time>2018-11-26T21:27:04Z</time>
      </trkpt>
      <trkpt lat="42.13768" lon="2.35083">
        <ele>1498.3</ele>
        <time>2018-11-26T21:27:06Z</time>
      </trkpt>
      <trkpt lat="42.13766" lon="2.35089">
        <ele>1498.6</ele>
        <time>2018-11-26T21:27:08Z</time>
      </trkpt>
      <trkpt lat="42.13763" lon="2.35094">
        <ele>1498</ele>
        <time>2018-11-26T21:27:10Z</time>
      </trkpt>
      <trkpt lat="42.13766" lon="2.35088">
        <ele>1498.2</ele>
        <time>2018-11-26T21:27:12Z</time>
      </trkpt>
      <trkpt lat="42.13766" lon="2.35082">
        <ele>1489.7</ele>
        <time>2018-11-26T21:27:14Z</time>
      </trkpt>
      <trkpt lat="42.13771" lon="2.35078">
        <ele>1489.4</ele>
        <time>2018-11-26T21:27:16Z</time>
      </trkpt>
      <trkpt lat="42.13769" lon="2.35084">
        <ele>1489.1</ele>
        <time>2018-11-26T21:27:18Z</time>
      </trkpt>
      <trkpt lat="42.13766" lon="2.35089">
        <ele>1489.5</ele>
        <time>2018-11-26T21:27:20Z</time>
      </trkpt>
      <trkpt lat="42.13768" lon="2.35084">
        <ele>1489.3</ele>
        <time>2018-11-26T21:27:21Z</time>
      </trkpt>
      <trkpt lat="42.13765" lon="2.35089">
        <ele>1489.3</ele>
        <time>2018-11-26T21:27:23Z</time>
      </trkpt>
      <trkpt lat="42.13768" lon="2.35083">
        <ele>1489</ele>
        <time>2018-11-26T21:27:25Z</time>
      </trkpt>
      <trkpt lat="42.13768" lon="2.35077">
        <ele>1490</ele>
        <time>2018-11-26T21:27:27Z</time>
      </trkpt>
      <trkpt lat="42.13772" lon="2.35075">
        <ele>1488.3</ele>
        <time>2018-11-26T21:27:29Z</time>
      </trkpt>
      <trkpt lat="42.13777" lon="2.35075">
        <ele>1486.7</ele>
        <time>2018-11-26T21:27:31Z</time>
      </trkpt>
      <trkpt lat="42.13782" lon="2.35074">
        <ele>1482.3</ele>
        <time>2018-11-26T21:27:33Z</time>
      </trkpt>
      <trkpt lat="42.13786" lon="2.35077">
        <ele>1480.2</ele>
        <time>2018-11-26T21:27:35Z</time>
      </trkpt>
      <trkpt lat="42.13787" lon="2.35083">
        <ele>1478.1</ele>
        <time>2018-11-26T21:27:37Z</time>
      </trkpt>
      <trkpt lat="42.13786" lon="2.35089">
        <ele>1476.3</ele>
        <time>2018-11-26T21:27:38Z</time>
      </trkpt>
      <trkpt lat="42.13783" lon="2.35095">
        <ele>1475.2</ele>
        <time>2018-11-26T21:27:41Z</time>
      </trkpt>
      <trkpt lat="42.1378" lon="2.35101">
        <ele>1474.5</ele>
        <time>2018-11-26T21:27:43Z</time>
      </trkpt>
      <trkpt lat="42.13776" lon="2.35106">
        <ele>1473.7</ele>
        <time>2018-11-26T21:27:45Z</time>
      </trkpt>
      <trkpt lat="42.13774" lon="2.35112">
        <ele>1472.5</ele>
        <time>2018-11-26T21:27:47Z</time>
      </trkpt>
      <trkpt lat="42.1377" lon="2.35117">
        <ele>1471.3</ele>
        <time>2018-11-26T21:27:49Z</time>
      </trkpt>
      <trkpt lat="42.13767" lon="2.3512">
        <ele>1471.2</ele>
        <time>2018-11-26T21:27:51Z</time>
      </trkpt>
      <trkpt lat="42.13764" lon="2.35126">
        <ele>1470.4</ele>
        <time>2018-11-26T21:27:53Z</time>
      </trkpt>
      <trkpt lat="42.13762" lon="2.35133">
        <ele>1469.6</ele>
        <time>2018-11-26T21:27:55Z</time>
      </trkpt>
      <trkpt lat="42.13761" lon="2.35139">
        <ele>1468.9</ele>
        <time>2018-11-26T21:27:57Z</time>
      </trkpt>
      <trkpt lat="42.1376" lon="2.35145">
        <ele>1468.6</ele>
        <time>2018-11-26T21:27:59Z</time>
      </trkpt>
      <trkpt lat="42.13759" lon="2.35152">
        <ele>1467.7</ele>
        <time>2018-11-26T21:28:01Z</time>
      </trkpt>
      <trkpt lat="42.13758" lon="2.35159">
        <ele>1466.8</ele>
        <time>2018-11-26T21:28:03Z</time>
      </trkpt>
      <trkpt lat="42.13758" lon="2.35165">
        <ele>1465.6</ele>
        <time>2018-11-26T21:28:05Z</time>
      </trkpt>
      <trkpt lat="42.13755" lon="2.35171">
        <ele>1464.9</ele>
        <time>2018-11-26T21:28:07Z</time>
      </trkpt>
      <trkpt lat="42.13752" lon="2.35178">
        <ele>1463.5</ele>
        <time>2018-11-26T21:28:09Z</time>
      </trkpt>
      <trkpt lat="42.13752" lon="2.35185">
        <ele>1461.7</ele>
        <time>2018-11-26T21:28:11Z</time>
      </trkpt>
      <trkpt lat="42.13752" lon="2.35193">
        <ele>1460.5</ele>
        <time>2018-11-26T21:28:14Z</time>
      </trkpt>
      <trkpt lat="42.1375" lon="2.352">
        <ele>1459.7</ele>
        <time>2018-11-26T21:28:16Z</time>
      </trkpt>
      <trkpt lat="42.13748" lon="2.35205">
        <ele>1458.7</ele>
        <time>2018-11-26T21:28:18Z</time>
      </trkpt>
      <trkpt lat="42.13744" lon="2.3521">
        <ele>1457.1</ele>
        <time>2018-11-26T21:28:20Z</time>
      </trkpt>
      <trkpt lat="42.13741" lon="2.35214">
        <ele>1454.8</ele>
        <time>2018-11-26T21:28:21Z</time>
      </trkpt>
      <trkpt lat="42.13739" lon="2.3522">
        <ele>1451.8</ele>
        <time>2018-11-26T21:28:23Z</time>
      </trkpt>
      <trkpt lat="42.13735" lon="2.35226">
        <ele>1449.6</ele>
        <time>2018-11-26T21:28:26Z</time>
      </trkpt>
      <trkpt lat="42.13733" lon="2.35232">
        <ele>1446.5</ele>
        <time>2018-11-26T21:28:28Z</time>
      </trkpt>
      <trkpt lat="42.13729" lon="2.35236">
        <ele>1444.8</ele>
        <time>2018-11-26T21:28:30Z</time>
      </trkpt>
      <trkpt lat="42.13725" lon="2.3524">
        <ele>1443.2</ele>
        <time>2018-11-26T21:28:32Z</time>
      </trkpt>
      <trkpt lat="42.13721" lon="2.35244">
        <ele>1441.5</ele>
        <time>2018-11-26T21:28:33Z</time>
      </trkpt>
      <trkpt lat="42.13718" lon="2.35248">
        <ele>1439.7</ele>
        <time>2018-11-26T21:28:35Z</time>
      </trkpt>
      <trkpt lat="42.13714" lon="2.35252">
        <ele>1438.7</ele>
        <time>2018-11-26T21:28:37Z</time>
      </trkpt>
      <trkpt lat="42.1371" lon="2.35256">
        <ele>1437.8</ele>
        <time>2018-11-26T21:28:39Z</time>
      </trkpt>
      <trkpt lat="42.13708" lon="2.35262">
        <ele>1436.5</ele>
        <time>2018-11-26T21:28:41Z</time>
      </trkpt>
      <trkpt lat="42.13709" lon="2.35268">
        <ele>1436.1</ele>
        <time>2018-11-26T21:28:43Z</time>
      </trkpt>
      <trkpt lat="42.13712" lon="2.35273">
        <ele>1433</ele>
        <time>2018-11-26T21:28:45Z</time>
      </trkpt>
      <trkpt lat="42.13718" lon="2.35273">
        <ele>1430.4</ele>
        <time>2018-11-26T21:28:47Z</time>
      </trkpt>
      <trkpt lat="42.13718" lon="2.35279">
        <ele>1428.1</ele>
        <time>2018-11-26T21:28:49Z</time>
      </trkpt>
      <trkpt lat="42.13715" lon="2.35285">
        <ele>1426.6</ele>
        <time>2018-11-26T21:28:51Z</time>
      </trkpt>
      <trkpt lat="42.13713" lon="2.35291">
        <ele>1425.4</ele>
        <time>2018-11-26T21:28:53Z</time>
      </trkpt>
      <trkpt lat="42.1371" lon="2.35295">
        <ele>1423.9</ele>
        <time>2018-11-26T21:28:55Z</time>
      </trkpt>
      <trkpt lat="42.13708" lon="2.35301">
        <ele>1422.5</ele>
        <time>2018-11-26T21:28:57Z</time>
      </trkpt>
      <trkpt lat="42.13706" lon="2.35307">
        <ele>1421.1</ele>
        <time>2018-11-26T21:28:58Z</time>
      </trkpt>
      <trkpt lat="42.13705" lon="2.35313">
        <ele>1419.3</ele>
        <time>2018-11-26T21:29:00Z</time>
      </trkpt>
      <trkpt lat="42.13702" lon="2.35318">
        <ele>1417.8</ele>
        <time>2018-11-26T21:29:02Z</time>
      </trkpt>
      <trkpt lat="42.137" lon="2.35324">
        <ele>1416.9</ele>
        <time>2018-11-26T21:29:04Z</time>
      </trkpt>
      <trkpt lat="42.13697" lon="2.3533">
        <ele>1415.9</ele>
        <time>2018-11-26T21:29:06Z</time>
      </trkpt>
      <trkpt lat="42.13693" lon="2.35334">
        <ele>1415.4</ele>
        <time>2018-11-26T21:29:08Z</time>
      </trkpt>
      <trkpt lat="42.13691" lon="2.35339">
        <ele>1414.7</ele>
        <time>2018-11-26T21:29:10Z</time>
      </trkpt>
      <trkpt lat="42.13688" lon="2.35345">
        <ele>1413.5</ele>
        <time>2018-11-26T21:29:12Z</time>
      </trkpt>
      <trkpt lat="42.13684" lon="2.35349">
        <ele>1412.6</ele>
        <time>2018-11-26T21:29:14Z</time>
      </trkpt>
      <trkpt lat="42.1368" lon="2.35353">
        <ele>1411.5</ele>
        <time>2018-11-26T21:29:16Z</time>
      </trkpt>
      <trkpt lat="42.13677" lon="2.35357">
        <ele>1410.8</ele>
        <time>2018-11-26T21:29:18Z</time>
      </trkpt>
      <trkpt lat="42.13674" lon="2.35363">
        <ele>1410.4</ele>
        <time>2018-11-26T21:29:20Z</time>
      </trkpt>
      <trkpt lat="42.13671" lon="2.35367">
        <ele>1410.1</ele>
        <time>2018-11-26T21:29:22Z</time>
      </trkpt>
      <trkpt lat="42.13668" lon="2.35373">
        <ele>1409.7</ele>
        <time>2018-11-26T21:29:24Z</time>
      </trkpt>
      <trkpt lat="42.13664" lon="2.35379">
        <ele>1408.4</ele>
        <time>2018-11-26T21:29:26Z</time>
      </trkpt>
      <trkpt lat="42.13661" lon="2.35382">
        <ele>1407.4</ele>
        <time>2018-11-26T21:29:28Z</time>
      </trkpt>
      <trkpt lat="42.13657" lon="2.35388">
        <ele>1406.9</ele>
        <time>2018-11-26T21:29:30Z</time>
      </trkpt>
      <trkpt lat="42.13654" lon="2.35393">
        <ele>1407.2</ele>
        <time>2018-11-26T21:29:32Z</time>
      </trkpt>
      <trkpt lat="42.1365" lon="2.35398">
        <ele>1407.1</ele>
        <time>2018-11-26T21:29:34Z</time>
      </trkpt>
      <trkpt lat="42.13647" lon="2.35403">
        <ele>1406</ele>
        <time>2018-11-26T21:29:36Z</time>
      </trkpt>
      <trkpt lat="42.13644" lon="2.35407">
        <ele>1404.5</ele>
        <time>2018-11-26T21:29:38Z</time>
      </trkpt>
      <trkpt lat="42.13641" lon="2.35413">
        <ele>1402.4</ele>
        <time>2018-11-26T21:29:40Z</time>
      </trkpt>
      <trkpt lat="42.13638" lon="2.35418">
        <ele>1400.4</ele>
        <time>2018-11-26T21:29:42Z</time>
      </trkpt>
      <trkpt lat="42.13636" lon="2.35423">
        <ele>1398.1</ele>
        <time>2018-11-26T21:29:44Z</time>
      </trkpt>
      <trkpt lat="42.13633" lon="2.35428">
        <ele>1396.1</ele>
        <time>2018-11-26T21:29:45Z</time>
      </trkpt>
      <trkpt lat="42.13629" lon="2.3543">
        <ele>1394</ele>
        <time>2018-11-26T21:29:47Z</time>
      </trkpt>
      <trkpt lat="42.13628" lon="2.35436">
        <ele>1391.7</ele>
        <time>2018-11-26T21:29:49Z</time>
      </trkpt>
      <trkpt lat="42.13625" lon="2.35442">
        <ele>1389.8</ele>
        <time>2018-11-26T21:29:51Z</time>
      </trkpt>
      <trkpt lat="42.1362" lon="2.35444">
        <ele>1388.5</ele>
        <time>2018-11-26T21:29:53Z</time>
      </trkpt>
      <trkpt lat="42.13616" lon="2.35445">
        <ele>1387.6</ele>
        <time>2018-11-26T21:29:55Z</time>
      </trkpt>
      <trkpt lat="42.13611" lon="2.35446">
        <ele>1387.2</ele>
        <time>2018-11-26T21:29:57Z</time>
      </trkpt>
      <trkpt lat="42.13608" lon="2.35451">
        <ele>1386.4</ele>
        <time>2018-11-26T21:29:59Z</time>
      </trkpt>
      <trkpt lat="42.1361" lon="2.35457">
        <ele>1382.5</ele>
        <time>2018-11-26T21:30:01Z</time>
      </trkpt>
      <trkpt lat="42.13614" lon="2.35461">
        <ele>1379.3</ele>
        <time>2018-11-26T21:30:03Z</time>
      </trkpt>
      <trkpt lat="42.13616" lon="2.35466">
        <ele>1377.4</ele>
        <time>2018-11-26T21:30:04Z</time>
      </trkpt>
      <trkpt lat="42.13621" lon="2.35467">
        <ele>1376.5</ele>
        <time>2018-11-26T21:30:06Z</time>
      </trkpt>
      <trkpt lat="42.13625" lon="2.35469">
        <ele>1376.4</ele>
        <time>2018-11-26T21:30:08Z</time>
      </trkpt>
      <trkpt lat="42.1363" lon="2.35469">
        <ele>1375.1</ele>
        <time>2018-11-26T21:30:10Z</time>
      </trkpt>
      <trkpt lat="42.13635" lon="2.35469">
        <ele>1374.1</ele>
        <time>2018-11-26T21:30:12Z</time>
      </trkpt>
      <trkpt lat="42.13641" lon="2.35469">
        <ele>1374.2</ele>
        <time>2018-11-26T21:30:14Z</time>
      </trkpt>
      <trkpt lat="42.13645" lon="2.35465">
        <ele>1374.5</ele>
        <time>2018-11-26T21:30:16Z</time>
      </trkpt>
      <trkpt lat="42.13649" lon="2.35462">
        <ele>1375.5</ele>
        <time>2018-11-26T21:30:18Z</time>
      </trkpt>
      <trkpt lat="42.13654" lon="2.3546">
        <ele>1376.2</ele>
        <time>2018-11-26T21:30:20Z</time>
      </trkpt>
      <trkpt lat="42.13659" lon="2.35462">
        <ele>1375.6</ele>
        <time>2018-11-26T21:30:22Z</time>
      </trkpt>
      <trkpt lat="42.13663" lon="2.35465">
        <ele>1374.7</ele>
        <time>2018-11-26T21:30:24Z</time>
      </trkpt>
      <trkpt lat="42.13667" lon="2.35469">
        <ele>1372.9</ele>
        <time>2018-11-26T21:30:26Z</time>
      </trkpt>
      <trkpt lat="42.1367" lon="2.35464">
        <ele>1370.6</ele>
        <time>2018-11-26T21:30:28Z</time>
      </trkpt>
      <trkpt lat="42.13675" lon="2.35463">
        <ele>1367.3</ele>
        <time>2018-11-26T21:30:30Z</time>
      </trkpt>
      <trkpt lat="42.13679" lon="2.35467">
        <ele>1364.6</ele>
        <time>2018-11-26T21:30:32Z</time>
      </trkpt>
      <trkpt lat="42.13684" lon="2.35466">
        <ele>1362.1</ele>
        <time>2018-11-26T21:30:34Z</time>
      </trkpt>
      <trkpt lat="42.1369" lon="2.35468">
        <ele>1361</ele>
        <time>2018-11-26T21:30:36Z</time>
      </trkpt>
      <trkpt lat="42.13691" lon="2.35476">
        <ele>1358.9</ele>
        <time>2018-11-26T21:30:38Z</time>
      </trkpt>
      <trkpt lat="42.13689" lon="2.35481">
        <ele>1357.9</ele>
        <time>2018-11-26T21:30:40Z</time>
      </trkpt>
      <trkpt lat="42.13686" lon="2.35486">
        <ele>1356.9</ele>
        <time>2018-11-26T21:30:42Z</time>
      </trkpt>
      <trkpt lat="42.13684" lon="2.35493">
        <ele>1355.3</ele>
        <time>2018-11-26T21:30:44Z</time>
      </trkpt>
      <trkpt lat="42.1368" lon="2.35497">
        <ele>1354.2</ele>
        <time>2018-11-26T21:30:46Z</time>
      </trkpt>
      <trkpt lat="42.13677" lon="2.35503">
        <ele>1353.4</ele>
        <time>2018-11-26T21:30:48Z</time>
      </trkpt>
      <trkpt lat="42.13674" lon="2.35508">
        <ele>1352.8</ele>
        <time>2018-11-26T21:30:50Z</time>
      </trkpt>
      <trkpt lat="42.1367" lon="2.35512">
        <ele>1352.1</ele>
        <time>2018-11-26T21:30:52Z</time>
      </trkpt>
      <trkpt lat="42.13665" lon="2.35516">
        <ele>1351.3</ele>
        <time>2018-11-26T21:30:55Z</time>
      </trkpt>
      <trkpt lat="42.1366" lon="2.35519">
        <ele>1350.8</ele>
        <time>2018-11-26T21:30:57Z</time>
      </trkpt>
      <trkpt lat="42.13655" lon="2.35523">
        <ele>1350</ele>
        <time>2018-11-26T21:30:59Z</time>
      </trkpt>
      <trkpt lat="42.13651" lon="2.35527">
        <ele>1348.2</ele>
        <time>2018-11-26T21:31:01Z</time>
      </trkpt>
      <trkpt lat="42.13647" lon="2.35529">
        <ele>1346.5</ele>
        <time>2018-11-26T21:31:03Z</time>
      </trkpt>
      <trkpt lat="42.13642" lon="2.3553">
        <ele>1346</ele>
        <time>2018-11-26T21:31:05Z</time>
      </trkpt>
      <trkpt lat="42.1364" lon="2.35536">
        <ele>1344.6</ele>
        <time>2018-11-26T21:31:07Z</time>
      </trkpt>
      <trkpt lat="42.13636" lon="2.3554">
        <ele>1342.2</ele>
        <time>2018-11-26T21:31:09Z</time>
      </trkpt>
      <trkpt lat="42.13632" lon="2.35544">
        <ele>1339.2</ele>
        <time>2018-11-26T21:31:11Z</time>
      </trkpt>
      <trkpt lat="42.13627" lon="2.35544">
        <ele>1337.5</ele>
        <time>2018-11-26T21:31:13Z</time>
      </trkpt>
      <trkpt lat="42.13626" lon="2.3555">
        <ele>1335</ele>
        <time>2018-11-26T21:31:14Z</time>
      </trkpt>
      <trkpt lat="42.13627" lon="2.35557">
        <ele>1333.3</ele>
        <time>2018-11-26T21:31:17Z</time>
      </trkpt>
      <trkpt lat="42.13628" lon="2.35564">
        <ele>1331.5</ele>
        <time>2018-11-26T21:31:19Z</time>
      </trkpt>
      <trkpt lat="42.13627" lon="2.3557">
        <ele>1329.3</ele>
        <time>2018-11-26T21:31:21Z</time>
      </trkpt>
      <trkpt lat="42.13626" lon="2.35577">
        <ele>1327.5</ele>
        <time>2018-11-26T21:31:23Z</time>
      </trkpt>
      <trkpt lat="42.13626" lon="2.35583">
        <ele>1326</ele>
        <time>2018-11-26T21:31:24Z</time>
      </trkpt>
      <trkpt lat="42.13625" lon="2.3559">
        <ele>1324.6</ele>
        <time>2018-11-26T21:31:26Z</time>
      </trkpt>
      <trkpt lat="42.13626" lon="2.35597">
        <ele>1323.6</ele>
        <time>2018-11-26T21:31:29Z</time>
      </trkpt>
      <trkpt lat="42.13626" lon="2.35604">
        <ele>1322.5</ele>
        <time>2018-11-26T21:31:31Z</time>
      </trkpt>
      <trkpt lat="42.13627" lon="2.35612">
        <ele>1320.7</ele>
        <time>2018-11-26T21:31:33Z</time>
      </trkpt>
      <trkpt lat="42.13632" lon="2.35615">
        <ele>1318.4</ele>
        <time>2018-11-26T21:31:35Z</time>
      </trkpt>
      <trkpt lat="42.13635" lon="2.3562">
        <ele>1316.8</ele>
        <time>2018-11-26T21:31:37Z</time>
      </trkpt>
      <trkpt lat="42.13639" lon="2.35622">
        <ele>1315.4</ele>
        <time>2018-11-26T21:31:39Z</time>
      </trkpt>
      <trkpt lat="42.13643" lon="2.35626">
        <ele>1314.3</ele>
        <time>2018-11-26T21:31:41Z</time>
      </trkpt>
      <trkpt lat="42.13643" lon="2.35633">
        <ele>1312.2</ele>
        <time>2018-11-26T21:31:43Z</time>
      </trkpt>
      <trkpt lat="42.13643" lon="2.35639">
        <ele>1310</ele>
        <time>2018-11-26T21:31:45Z</time>
      </trkpt>
      <trkpt lat="42.13641" lon="2.35645">
        <ele>1307.6</ele>
        <time>2018-11-26T21:31:47Z</time>
      </trkpt>
      <trkpt lat="42.13643" lon="2.35651">
        <ele>1306.8</ele>
        <time>2018-11-26T21:31:49Z</time>
      </trkpt>
      <trkpt lat="42.13641" lon="2.35657">
        <ele>1305.3</ele>
        <time>2018-11-26T21:31:51Z</time>
      </trkpt>
      <trkpt lat="42.13636" lon="2.35658">
        <ele>1304</ele>
        <time>2018-11-26T21:31:53Z</time>
      </trkpt>
      <trkpt lat="42.13632" lon="2.35656">
        <ele>1303.5</ele>
        <time>2018-11-26T21:31:55Z</time>
      </trkpt>
      <trkpt lat="42.13635" lon="2.3566">
        <ele>1303.3</ele>
        <time>2018-11-26T21:31:57Z</time>
      </trkpt>
      <trkpt lat="42.1364" lon="2.35659">
        <ele>1303.4</ele>
        <time>2018-11-26T21:31:59Z</time>
      </trkpt>
      <trkpt lat="42.13644" lon="2.35663">
        <ele>1303.6</ele>
        <time>2018-11-26T21:32:01Z</time>
      </trkpt>
      <trkpt lat="42.13649" lon="2.35665">
        <ele>1303.1</ele>
        <time>2018-11-26T21:32:03Z</time>
      </trkpt>
      <trkpt lat="42.13654" lon="2.35668">
        <ele>1302.7</ele>
        <time>2018-11-26T21:32:05Z</time>
      </trkpt>
      <trkpt lat="42.13657" lon="2.35673">
        <ele>1302.7</ele>
        <time>2018-11-26T21:32:07Z</time>
      </trkpt>
      <trkpt lat="42.13662" lon="2.35676">
        <ele>1302.3</ele>
        <time>2018-11-26T21:32:09Z</time>
      </trkpt>
      <trkpt lat="42.13667" lon="2.35679">
        <ele>1302.2</ele>
        <time>2018-11-26T21:32:11Z</time>
      </trkpt>
      <trkpt lat="42.13673" lon="2.35681">
        <ele>1302</ele>
        <time>2018-11-26T21:32:13Z</time>
      </trkpt>
      <trkpt lat="42.13678" lon="2.35683">
        <ele>1302.1</ele>
        <time>2018-11-26T21:32:16Z</time>
      </trkpt>
      <trkpt lat="42.13683" lon="2.35685">
        <ele>1301.9</ele>
        <time>2018-11-26T21:32:18Z</time>
      </trkpt>
      <trkpt lat="42.13689" lon="2.35686">
        <ele>1301.8</ele>
        <time>2018-11-26T21:32:20Z</time>
      </trkpt>
      <trkpt lat="42.13693" lon="2.35689">
        <ele>1301.5</ele>
        <time>2018-11-26T21:32:22Z</time>
      </trkpt>
      <trkpt lat="42.13697" lon="2.35695">
        <ele>1301.1</ele>
        <time>2018-11-26T21:32:24Z</time>
      </trkpt>
      <trkpt lat="42.13701" lon="2.357">
        <ele>1300.1</ele>
        <time>2018-11-26T21:32:27Z</time>
      </trkpt>
      <trkpt lat="42.13705" lon="2.35703">
        <ele>1299.3</ele>
        <time>2018-11-26T21:32:28Z</time>
      </trkpt>
      <trkpt lat="42.1371" lon="2.35706">
        <ele>1298.5</ele>
        <time>2018-11-26T21:32:30Z</time>
      </trkpt>
      <trkpt lat="42.13715" lon="2.35706">
        <ele>1298.2</ele>
        <time>2018-11-26T21:32:32Z</time>
      </trkpt>
      <trkpt lat="42.13719" lon="2.35707">
        <ele>1298.1</ele>
        <time>2018-11-26T21:32:34Z</time>
      </trkpt>
      <trkpt lat="42.13723" lon="2.35713">
        <ele>1297.4</ele>
        <time>2018-11-26T21:32:36Z</time>
      </trkpt>
      <trkpt lat="42.13723" lon="2.35719">
        <ele>1296.8</ele>
        <time>2018-11-26T21:32:38Z</time>
      </trkpt>
      <trkpt lat="42.13724" lon="2.35726">
        <ele>1295.8</ele>
        <time>2018-11-26T21:32:40Z</time>
      </trkpt>
      <trkpt lat="42.13721" lon="2.35731">
        <ele>1294.2</ele>
        <time>2018-11-26T21:32:42Z</time>
      </trkpt>
      <trkpt lat="42.13717" lon="2.35729">
        <ele>1294.1</ele>
        <time>2018-11-26T21:32:44Z</time>
      </trkpt>
      <trkpt lat="42.1372" lon="2.35734">
        <ele>1294</ele>
        <time>2018-11-26T21:32:46Z</time>
      </trkpt>
      <trkpt lat="42.13722" lon="2.35741">
        <ele>1293.9</ele>
        <time>2018-11-26T21:32:48Z</time>
      </trkpt>
      <trkpt lat="42.13725" lon="2.35747">
        <ele>1293.6</ele>
        <time>2018-11-26T21:32:51Z</time>
      </trkpt>
      <trkpt lat="42.13726" lon="2.35753">
        <ele>1293.1</ele>
        <time>2018-11-26T21:32:53Z</time>
      </trkpt>
      <trkpt lat="42.13726" lon="2.3576">
        <ele>1292.9</ele>
        <time>2018-11-26T21:32:55Z</time>
      </trkpt>
      <trkpt lat="42.13728" lon="2.35766">
        <ele>1292.5</ele>
        <time>2018-11-26T21:32:57Z</time>
      </trkpt>
      <trkpt lat="42.13729" lon="2.35774">
        <ele>1292.2</ele>
        <time>2018-11-26T21:32:59Z</time>
      </trkpt>
      <trkpt lat="42.13729" lon="2.3578">
        <ele>1291.8</ele>
        <time>2018-11-26T21:33:01Z</time>
      </trkpt>
      <trkpt lat="42.1373" lon="2.35786">
        <ele>1291.2</ele>
        <time>2018-11-26T21:33:02Z</time>
      </trkpt>
      <trkpt lat="42.13733" lon="2.35791">
        <ele>1290.6</ele>
        <time>2018-11-26T21:33:04Z</time>
      </trkpt>
      <trkpt lat="42.13737" lon="2.35795">
        <ele>1289.9</ele>
        <time>2018-11-26T21:33:06Z</time>
      </trkpt>
      <trkpt lat="42.1374" lon="2.358">
        <ele>1288.5</ele>
        <time>2018-11-26T21:33:08Z</time>
      </trkpt>
      <trkpt lat="42.13741" lon="2.35807">
        <ele>1287.4</ele>
        <time>2018-11-26T21:33:10Z</time>
      </trkpt>
      <trkpt lat="42.13742" lon="2.35815">
        <ele>1286.7</ele>
        <time>2018-11-26T21:33:13Z</time>
      </trkpt>
      <trkpt lat="42.13743" lon="2.35821">
        <ele>1286.4</ele>
        <time>2018-11-26T21:33:15Z</time>
      </trkpt>
      <trkpt lat="42.13744" lon="2.35828">
        <ele>1285.7</ele>
        <time>2018-11-26T21:33:17Z</time>
      </trkpt>
      <trkpt lat="42.13744" lon="2.35835">
        <ele>1284.9</ele>
        <time>2018-11-26T21:33:19Z</time>
      </trkpt>
      <trkpt lat="42.13745" lon="2.35842">
        <ele>1284.8</ele>
        <time>2018-11-26T21:33:21Z</time>
      </trkpt>
      <trkpt lat="42.13745" lon="2.35848">
        <ele>1283.5</ele>
        <time>2018-11-26T21:33:23Z</time>
      </trkpt>
      <trkpt lat="42.13746" lon="2.35854">
        <ele>1282.6</ele>
        <time>2018-11-26T21:33:25Z</time>
      </trkpt>
      <trkpt lat="42.13745" lon="2.35861">
        <ele>1281.6</ele>
        <time>2018-11-26T21:33:27Z</time>
      </trkpt>
      <trkpt lat="42.13742" lon="2.35867">
        <ele>1280.1</ele>
        <time>2018-11-26T21:33:29Z</time>
      </trkpt>
      <trkpt lat="42.13746" lon="2.35872">
        <ele>1278.5</ele>
        <time>2018-11-26T21:33:31Z</time>
      </trkpt>
      <trkpt lat="42.13749" lon="2.35876">
        <ele>1277.5</ele>
        <time>2018-11-26T21:33:33Z</time>
      </trkpt>
      <trkpt lat="42.13754" lon="2.35876">
        <ele>1276.5</ele>
        <time>2018-11-26T21:33:35Z</time>
      </trkpt>
      <trkpt lat="42.13757" lon="2.35871">
        <ele>1276.8</ele>
        <time>2018-11-26T21:33:36Z</time>
      </trkpt>
      <trkpt lat="42.13758" lon="2.35865">
        <ele>1277.3</ele>
        <time>2018-11-26T21:33:38Z</time>
      </trkpt>
      <trkpt lat="42.13762" lon="2.3586">
        <ele>1277.4</ele>
        <time>2018-11-26T21:33:40Z</time>
      </trkpt>
      <trkpt lat="42.13766" lon="2.35855">
        <ele>1278.1</ele>
        <time>2018-11-26T21:33:43Z</time>
      </trkpt>
      <trkpt lat="42.13768" lon="2.35848">
        <ele>1279.1</ele>
        <time>2018-11-26T21:33:45Z</time>
      </trkpt>
      <trkpt lat="42.13773" lon="2.35849">
        <ele>1279.8</ele>
        <time>2018-11-26T21:33:47Z</time>
      </trkpt>
      <trkpt lat="42.13774" lon="2.35852">
        <ele>1278.3</ele>
        <time>2018-11-26T21:33:48Z</time>
      </trkpt>
      <trkpt lat="42.13774" lon="2.35852">
        <ele>1278.2</ele>
        <time>2018-11-26T21:33:48Z</time>
      </trkpt>
      <trkpt lat="42.13774" lon="2.35853">
        <ele>1278.6</ele>
        <time>2018-11-26T21:33:48Z</time>
      </trkpt>
      <trkpt lat="42.13772" lon="2.35848">
        <ele>1279</ele>
        <time>2018-11-26T21:33:50Z</time>
      </trkpt>
      <trkpt lat="42.13767" lon="2.3585">
        <ele>1277.6</ele>
        <time>2018-11-26T21:33:52Z</time>
      </trkpt>
      <trkpt lat="42.13763" lon="2.35852">
        <ele>1278.8</ele>
        <time>2018-11-26T21:33:54Z</time>
      </trkpt>
      <trkpt lat="42.13763" lon="2.35859">
        <ele>1278.2</ele>
        <time>2018-11-26T21:33:56Z</time>
      </trkpt>
      <trkpt lat="42.1376" lon="2.35864">
        <ele>1277.9</ele>
        <time>2018-11-26T21:33:58Z</time>
      </trkpt>
      <trkpt lat="42.13756" lon="2.35868">
        <ele>1277.7</ele>
        <time>2018-11-26T21:34:00Z</time>
      </trkpt>
      <trkpt lat="42.13753" lon="2.35874">
        <ele>1277.4</ele>
        <time>2018-11-26T21:34:02Z</time>
      </trkpt>
      <trkpt lat="42.1375" lon="2.35878">
        <ele>1276.6</ele>
        <time>2018-11-26T21:34:03Z</time>
      </trkpt>
      <trkpt lat="42.13744" lon="2.35884">
        <ele>1276.4</ele>
        <time>2018-11-26T21:34:06Z</time>
      </trkpt>
      <trkpt lat="42.13744" lon="2.35891">
        <ele>1276.1</ele>
        <time>2018-11-26T21:34:08Z</time>
      </trkpt>
      <trkpt lat="42.13745" lon="2.35897">
        <ele>1275.8</ele>
        <time>2018-11-26T21:34:10Z</time>
      </trkpt>
      <trkpt lat="42.13747" lon="2.35904">
        <ele>1275.9</ele>
        <time>2018-11-26T21:34:12Z</time>
      </trkpt>
      <trkpt lat="42.13748" lon="2.35911">
        <ele>1275.4</ele>
        <time>2018-11-26T21:34:14Z</time>
      </trkpt>
      <trkpt lat="42.13748" lon="2.35917">
        <ele>1275.1</ele>
        <time>2018-11-26T21:34:16Z</time>
      </trkpt>
      <trkpt lat="42.13747" lon="2.35925">
        <ele>1274.9</ele>
        <time>2018-11-26T21:34:19Z</time>
      </trkpt>
      <trkpt lat="42.13746" lon="2.35932">
        <ele>1274.8</ele>
        <time>2018-11-26T21:34:21Z</time>
      </trkpt>
      <trkpt lat="42.13746" lon="2.35939">
        <ele>1274.4</ele>
        <time>2018-11-26T21:34:23Z</time>
      </trkpt>
      <trkpt lat="42.13747" lon="2.35946">
        <ele>1274.2</ele>
        <time>2018-11-26T21:34:25Z</time>
      </trkpt>
      <trkpt lat="42.13746" lon="2.35952">
        <ele>1274</ele>
        <time>2018-11-26T21:34:27Z</time>
      </trkpt>
      <trkpt lat="42.13746" lon="2.35959">
        <ele>1273.8</ele>
        <time>2018-11-26T21:34:29Z</time>
      </trkpt>
      <trkpt lat="42.13746" lon="2.35966">
        <ele>1274</ele>
        <time>2018-11-26T21:34:31Z</time>
      </trkpt>
      <trkpt lat="42.13747" lon="2.35973">
        <ele>1273.9</ele>
        <time>2018-11-26T21:34:33Z</time>
      </trkpt>
      <trkpt lat="42.13747" lon="2.35979">
        <ele>1273.8</ele>
        <time>2018-11-26T21:34:35Z</time>
      </trkpt>
      <trkpt lat="42.13747" lon="2.35985">
        <ele>1273.7</ele>
        <time>2018-11-26T21:34:37Z</time>
      </trkpt>
      <trkpt lat="42.13747" lon="2.35992">
        <ele>1273.8</ele>
        <time>2018-11-26T21:34:39Z</time>
      </trkpt>
      <trkpt lat="42.13747" lon="2.35999">
        <ele>1274.1</ele>
        <time>2018-11-26T21:34:41Z</time>
      </trkpt>
      <trkpt lat="42.13747" lon="2.36006">
        <ele>1274.2</ele>
        <time>2018-11-26T21:34:43Z</time>
      </trkpt>
      <trkpt lat="42.13748" lon="2.36013">
        <ele>1274.1</ele>
        <time>2018-11-26T21:34:45Z</time>
      </trkpt>
      <trkpt lat="42.13748" lon="2.3602">
        <ele>1274</ele>
        <time>2018-11-26T21:34:47Z</time>
      </trkpt>
      <trkpt lat="42.13748" lon="2.36028">
        <ele>1274.2</ele>
        <time>2018-11-26T21:34:49Z</time>
      </trkpt>
      <trkpt lat="42.13748" lon="2.36034">
        <ele>1273.9</ele>
        <time>2018-11-26T21:34:51Z</time>
      </trkpt>
      <trkpt lat="42.13749" lon="2.3604">
        <ele>1273.9</ele>
        <time>2018-11-26T21:34:53Z</time>
      </trkpt>
      <trkpt lat="42.1375" lon="2.36046">
        <ele>1273.6</ele>
        <time>2018-11-26T21:34:55Z</time>
      </trkpt>
      <trkpt lat="42.13751" lon="2.36053">
        <ele>1273.5</ele>
        <time>2018-11-26T21:34:57Z</time>
      </trkpt>
      <trkpt lat="42.13753" lon="2.3606">
        <ele>1273.2</ele>
        <time>2018-11-26T21:34:59Z</time>
      </trkpt>
      <trkpt lat="42.13753" lon="2.36067">
        <ele>1273</ele>
        <time>2018-11-26T21:35:01Z</time>
      </trkpt>
      <trkpt lat="42.13754" lon="2.36073">
        <ele>1271.6</ele>
        <time>2018-11-26T21:35:03Z</time>
      </trkpt>
      <trkpt lat="42.13757" lon="2.36078">
        <ele>1269.6</ele>
        <time>2018-11-26T21:35:05Z</time>
      </trkpt>
      <trkpt lat="42.13761" lon="2.36082">
        <ele>1268.7</ele>
        <time>2018-11-26T21:35:07Z</time>
      </trkpt>
      <trkpt lat="42.13763" lon="2.36089">
        <ele>1267.3</ele>
        <time>2018-11-26T21:35:09Z</time>
      </trkpt>
      <trkpt lat="42.13764" lon="2.36095">
        <ele>1265.9</ele>
        <time>2018-11-26T21:35:11Z</time>
      </trkpt>
      <trkpt lat="42.13766" lon="2.36101">
        <ele>1265.6</ele>
        <time>2018-11-26T21:35:13Z</time>
      </trkpt>
      <trkpt lat="42.13768" lon="2.36107">
        <ele>1265.3</ele>
        <time>2018-11-26T21:35:15Z</time>
      </trkpt>
      <trkpt lat="42.13772" lon="2.3611">
        <ele>1264.4</ele>
        <time>2018-11-26T21:35:17Z</time>
      </trkpt>
      <trkpt lat="42.13775" lon="2.36105">
        <ele>1264.1</ele>
        <time>2018-11-26T21:35:19Z</time>
      </trkpt>
      <trkpt lat="42.13779" lon="2.36101">
        <ele>1263.7</ele>
        <time>2018-11-26T21:35:20Z</time>
      </trkpt>
      <trkpt lat="42.13783" lon="2.36099">
        <ele>1263.2</ele>
        <time>2018-11-26T21:35:22Z</time>
      </trkpt>
      <trkpt lat="42.13787" lon="2.36096">
        <ele>1262.9</ele>
        <time>2018-11-26T21:35:24Z</time>
      </trkpt>
      <trkpt lat="42.13787" lon="2.36102">
        <ele>1262.8</ele>
        <time>2018-11-26T21:35:26Z</time>
      </trkpt>
      <trkpt lat="42.13792" lon="2.36102">
        <ele>1261.5</ele>
        <time>2018-11-26T21:35:28Z</time>
      </trkpt>
      <trkpt lat="42.13798" lon="2.36102">
        <ele>1260.3</ele>
        <time>2018-11-26T21:35:30Z</time>
      </trkpt>
      <trkpt lat="42.13802" lon="2.36103">
        <ele>1259.6</ele>
        <time>2018-11-26T21:35:32Z</time>
      </trkpt>
      <trkpt lat="42.13808" lon="2.36103">
        <ele>1258.7</ele>
        <time>2018-11-26T21:35:35Z</time>
      </trkpt>
      <trkpt lat="42.13813" lon="2.36104">
        <ele>1258.2</ele>
        <time>2018-11-26T21:35:36Z</time>
      </trkpt>
      <trkpt lat="42.13817" lon="2.36106">
        <ele>1257.8</ele>
        <time>2018-11-26T21:35:38Z</time>
      </trkpt>
      <trkpt lat="42.13821" lon="2.36109">
        <ele>1257</ele>
        <time>2018-11-26T21:35:40Z</time>
      </trkpt>
      <trkpt lat="42.13825" lon="2.36112">
        <ele>1256.2</ele>
        <time>2018-11-26T21:35:42Z</time>
      </trkpt>
      <trkpt lat="42.13829" lon="2.36115">
        <ele>1255.3</ele>
        <time>2018-11-26T21:35:44Z</time>
      </trkpt>
      <trkpt lat="42.13834" lon="2.36119">
        <ele>1254.4</ele>
        <time>2018-11-26T21:35:46Z</time>
      </trkpt>
      <trkpt lat="42.13837" lon="2.36124">
        <ele>1254</ele>
        <time>2018-11-26T21:35:48Z</time>
      </trkpt>
      <trkpt lat="42.13835" lon="2.3613">
        <ele>1252.6</ele>
        <time>2018-11-26T21:35:50Z</time>
      </trkpt>
      <trkpt lat="42.13839" lon="2.36133">
        <ele>1252.7</ele>
        <time>2018-11-26T21:35:52Z</time>
      </trkpt>
      <trkpt lat="42.13841" lon="2.36139">
        <ele>1252.6</ele>
        <time>2018-11-26T21:35:54Z</time>
      </trkpt>
      <trkpt lat="42.13843" lon="2.36145">
        <ele>1252.7</ele>
        <time>2018-11-26T21:35:56Z</time>
      </trkpt>
      <trkpt lat="42.13844" lon="2.36151">
        <ele>1252.3</ele>
        <time>2018-11-26T21:35:58Z</time>
      </trkpt>
      <trkpt lat="42.13844" lon="2.36158">
        <ele>1252.2</ele>
        <time>2018-11-26T21:36:00Z</time>
      </trkpt>
      <trkpt lat="42.13846" lon="2.36164">
        <ele>1251.9</ele>
        <time>2018-11-26T21:36:01Z</time>
      </trkpt>
      <trkpt lat="42.13848" lon="2.36171">
        <ele>1251.7</ele>
        <time>2018-11-26T21:36:04Z</time>
      </trkpt>
      <trkpt lat="42.1385" lon="2.36177">
        <ele>1250.9</ele>
        <time>2018-11-26T21:36:06Z</time>
      </trkpt>
      <trkpt lat="42.13853" lon="2.36182">
        <ele>1250.2</ele>
        <time>2018-11-26T21:36:07Z</time>
      </trkpt>
      <trkpt lat="42.13855" lon="2.36187">
        <ele>1249.3</ele>
        <time>2018-11-26T21:36:09Z</time>
      </trkpt>
      <trkpt lat="42.13859" lon="2.36191">
        <ele>1248.5</ele>
        <time>2018-11-26T21:36:11Z</time>
      </trkpt>
      <trkpt lat="42.13863" lon="2.36195">
        <ele>1247.6</ele>
        <time>2018-11-26T21:36:13Z</time>
      </trkpt>
      <trkpt lat="42.13868" lon="2.36199">
        <ele>1246.7</ele>
        <time>2018-11-26T21:36:16Z</time>
      </trkpt>
      <trkpt lat="42.13872" lon="2.36204">
        <ele>1245.7</ele>
        <time>2018-11-26T21:36:18Z</time>
      </trkpt>
      <trkpt lat="42.13876" lon="2.36207">
        <ele>1245.2</ele>
        <time>2018-11-26T21:36:20Z</time>
      </trkpt>
      <trkpt lat="42.1388" lon="2.36211">
        <ele>1244.5</ele>
        <time>2018-11-26T21:36:22Z</time>
      </trkpt>
      <trkpt lat="42.13884" lon="2.36216">
        <ele>1243.8</ele>
        <time>2018-11-26T21:36:24Z</time>
      </trkpt>
      <trkpt lat="42.13886" lon="2.36221">
        <ele>1243.6</ele>
        <time>2018-11-26T21:36:26Z</time>
      </trkpt>
      <trkpt lat="42.13888" lon="2.36228">
        <ele>1243.3</ele>
        <time>2018-11-26T21:36:28Z</time>
      </trkpt>
      <trkpt lat="42.13889" lon="2.36235">
        <ele>1243</ele>
        <time>2018-11-26T21:36:30Z</time>
      </trkpt>
      <trkpt lat="42.13889" lon="2.36241">
        <ele>1242.5</ele>
        <time>2018-11-26T21:36:32Z</time>
      </trkpt>
      <trkpt lat="42.1389" lon="2.36247">
        <ele>1241.7</ele>
        <time>2018-11-26T21:36:34Z</time>
      </trkpt>
      <trkpt lat="42.13891" lon="2.36253">
        <ele>1241.2</ele>
        <time>2018-11-26T21:36:35Z</time>
      </trkpt>
      <trkpt lat="42.13891" lon="2.3626">
        <ele>1241</ele>
        <time>2018-11-26T21:36:37Z</time>
      </trkpt>
      <trkpt lat="42.13891" lon="2.36266">
        <ele>1240.6</ele>
        <time>2018-11-26T21:36:39Z</time>
      </trkpt>
      <trkpt lat="42.13892" lon="2.36273">
        <ele>1240.5</ele>
        <time>2018-11-26T21:36:41Z</time>
      </trkpt>
      <trkpt lat="42.13893" lon="2.3628">
        <ele>1240.1</ele>
        <time>2018-11-26T21:36:43Z</time>
      </trkpt>
      <trkpt lat="42.13894" lon="2.36286">
        <ele>1240</ele>
        <time>2018-11-26T21:36:45Z</time>
      </trkpt>
      <trkpt lat="42.13892" lon="2.36292">
        <ele>1239.9</ele>
        <time>2018-11-26T21:36:47Z</time>
      </trkpt>
      <trkpt lat="42.13891" lon="2.36298">
        <ele>1240</ele>
        <time>2018-11-26T21:36:49Z</time>
      </trkpt>
      <trkpt lat="42.13889" lon="2.36304">
        <ele>1240</ele>
        <time>2018-11-26T21:36:51Z</time>
      </trkpt>
      <trkpt lat="42.13888" lon="2.36311">
        <ele>1239.9</ele>
        <time>2018-11-26T21:36:53Z</time>
      </trkpt>
      <trkpt lat="42.13886" lon="2.36318">
        <ele>1240</ele>
        <time>2018-11-26T21:36:55Z</time>
      </trkpt>
      <trkpt lat="42.13888" lon="2.36324">
        <ele>1239.2</ele>
        <time>2018-11-26T21:36:57Z</time>
      </trkpt>
      <trkpt lat="42.1389" lon="2.3633">
        <ele>1238.3</ele>
        <time>2018-11-26T21:36:59Z</time>
      </trkpt>
      <trkpt lat="42.13894" lon="2.36334">
        <ele>1238.2</ele>
        <time>2018-11-26T21:37:01Z</time>
      </trkpt>
      <trkpt lat="42.13898" lon="2.36337">
        <ele>1237.5</ele>
        <time>2018-11-26T21:37:03Z</time>
      </trkpt>
      <trkpt lat="42.13903" lon="2.36341">
        <ele>1235</ele>
        <time>2018-11-26T21:37:05Z</time>
      </trkpt>
      <trkpt lat="42.13907" lon="2.36344">
        <ele>1235.3</ele>
        <time>2018-11-26T21:37:07Z</time>
      </trkpt>
      <trkpt lat="42.1391" lon="2.3635">
        <ele>1234.4</ele>
        <time>2018-11-26T21:37:09Z</time>
      </trkpt>
      <trkpt lat="42.13915" lon="2.36352">
        <ele>1233.9</ele>
        <time>2018-11-26T21:37:11Z</time>
      </trkpt>
      <trkpt lat="42.1392" lon="2.36355">
        <ele>1233.6</ele>
        <time>2018-11-26T21:37:13Z</time>
      </trkpt>
      <trkpt lat="42.13925" lon="2.36359">
        <ele>1233</ele>
        <time>2018-11-26T21:37:16Z</time>
      </trkpt>
      <trkpt lat="42.13929" lon="2.36362">
        <ele>1232.7</ele>
        <time>2018-11-26T21:37:18Z</time>
      </trkpt>
      <trkpt lat="42.13933" lon="2.36366">
        <ele>1232.2</ele>
        <time>2018-11-26T21:37:20Z</time>
      </trkpt>
      <trkpt lat="42.13937" lon="2.3637">
        <ele>1231.5</ele>
        <time>2018-11-26T21:37:22Z</time>
      </trkpt>
      <trkpt lat="42.13941" lon="2.36373">
        <ele>1231.4</ele>
        <time>2018-11-26T21:37:23Z</time>
      </trkpt>
      <trkpt lat="42.13945" lon="2.36376">
        <ele>1230.7</ele>
        <time>2018-11-26T21:37:25Z</time>
      </trkpt>
      <trkpt lat="42.1395" lon="2.36377">
        <ele>1230.1</ele>
        <time>2018-11-26T21:37:27Z</time>
      </trkpt>
      <trkpt lat="42.13953" lon="2.3638">
        <ele>1229.4</ele>
        <time>2018-11-26T21:37:29Z</time>
      </trkpt>
      <trkpt lat="42.13958" lon="2.36383">
        <ele>1228.8</ele>
        <time>2018-11-26T21:37:31Z</time>
      </trkpt>
      <trkpt lat="42.13962" lon="2.36387">
        <ele>1227.8</ele>
        <time>2018-11-26T21:37:33Z</time>
      </trkpt>
      <trkpt lat="42.13966" lon="2.36391">
        <ele>1226.8</ele>
        <time>2018-11-26T21:37:35Z</time>
      </trkpt>
      <trkpt lat="42.13968" lon="2.36397">
        <ele>1225.5</ele>
        <time>2018-11-26T21:37:37Z</time>
      </trkpt>
      <trkpt lat="42.13973" lon="2.36399">
        <ele>1224.6</ele>
        <time>2018-11-26T21:37:39Z</time>
      </trkpt>
      <trkpt lat="42.13976" lon="2.36405">
        <ele>1223.9</ele>
        <time>2018-11-26T21:37:41Z</time>
      </trkpt>
      <trkpt lat="42.13979" lon="2.3641">
        <ele>1223.3</ele>
        <time>2018-11-26T21:37:43Z</time>
      </trkpt>
      <trkpt lat="42.13982" lon="2.36415">
        <ele>1222.4</ele>
        <time>2018-11-26T21:37:45Z</time>
      </trkpt>
      <trkpt lat="42.13985" lon="2.36422">
        <ele>1222</ele>
        <time>2018-11-26T21:37:47Z</time>
      </trkpt>
      <trkpt lat="42.13986" lon="2.36428">
        <ele>1221.5</ele>
        <time>2018-11-26T21:37:49Z</time>
      </trkpt>
      <trkpt lat="42.1399" lon="2.36436">
        <ele>1220</ele>
        <time>2018-11-26T21:37:52Z</time>
      </trkpt>
      <trkpt lat="42.13993" lon="2.36444">
        <ele>1220.7</ele>
        <time>2018-11-26T21:37:55Z</time>
      </trkpt>
      <trkpt lat="42.13996" lon="2.36451">
        <ele>1219.8</ele>
        <time>2018-11-26T21:37:57Z</time>
      </trkpt>
      <trkpt lat="42.13996" lon="2.36457">
        <ele>1219.3</ele>
        <time>2018-11-26T21:37:59Z</time>
      </trkpt>
      <trkpt lat="42.13995" lon="2.36463">
        <ele>1218.7</ele>
        <time>2018-11-26T21:38:01Z</time>
      </trkpt>
      <trkpt lat="42.13993" lon="2.36469">
        <ele>1218.3</ele>
        <time>2018-11-26T21:38:02Z</time>
      </trkpt>
      <trkpt lat="42.13992" lon="2.36475">
        <ele>1217.7</ele>
        <time>2018-11-26T21:38:04Z</time>
      </trkpt>
      <trkpt lat="42.1399" lon="2.36482">
        <ele>1217.6</ele>
        <time>2018-11-26T21:38:07Z</time>
      </trkpt>
      <trkpt lat="42.13988" lon="2.3649">
        <ele>1217</ele>
        <time>2018-11-26T21:38:09Z</time>
      </trkpt>
      <trkpt lat="42.13986" lon="2.36496">
        <ele>1217</ele>
        <time>2018-11-26T21:38:11Z</time>
      </trkpt>
      <trkpt lat="42.13987" lon="2.36504">
        <ele>1216.9</ele>
        <time>2018-11-26T21:38:13Z</time>
      </trkpt>
      <trkpt lat="42.13989" lon="2.3651">
        <ele>1216.4</ele>
        <time>2018-11-26T21:38:15Z</time>
      </trkpt>
      <trkpt lat="42.13994" lon="2.36514">
        <ele>1215.4</ele>
        <time>2018-11-26T21:38:18Z</time>
      </trkpt>
      <trkpt lat="42.13997" lon="2.36519">
        <ele>1214.7</ele>
        <time>2018-11-26T21:38:20Z</time>
      </trkpt>
      <trkpt lat="42.14" lon="2.36524">
        <ele>1213.7</ele>
        <time>2018-11-26T21:38:22Z</time>
      </trkpt>
      <trkpt lat="42.14004" lon="2.36528">
        <ele>1213.3</ele>
        <time>2018-11-26T21:38:24Z</time>
      </trkpt>
      <trkpt lat="42.1401" lon="2.3653">
        <ele>1212</ele>
        <time>2018-11-26T21:38:26Z</time>
      </trkpt>
      <trkpt lat="42.14014" lon="2.36532">
        <ele>1210.8</ele>
        <time>2018-11-26T21:38:28Z</time>
      </trkpt>
      <trkpt lat="42.14018" lon="2.36537">
        <ele>1209.4</ele>
        <time>2018-11-26T21:38:30Z</time>
      </trkpt>
      <trkpt lat="42.14025" lon="2.36542">
        <ele>1208.4</ele>
        <time>2018-11-26T21:38:33Z</time>
      </trkpt>
      <trkpt lat="42.14031" lon="2.36545">
        <ele>1207.7</ele>
        <time>2018-11-26T21:38:35Z</time>
      </trkpt>
      <trkpt lat="42.14035" lon="2.36547">
        <ele>1207</ele>
        <time>2018-11-26T21:38:37Z</time>
      </trkpt>
      <trkpt lat="42.14038" lon="2.36551">
        <ele>1205.5</ele>
        <time>2018-11-26T21:38:39Z</time>
      </trkpt>
      <trkpt lat="42.14041" lon="2.36557">
        <ele>1204.6</ele>
        <time>2018-11-26T21:38:41Z</time>
      </trkpt>
      <trkpt lat="42.14042" lon="2.36563">
        <ele>1203.3</ele>
        <time>2018-11-26T21:38:43Z</time>
      </trkpt>
      <trkpt lat="42.14041" lon="2.36571">
        <ele>1202.2</ele>
        <time>2018-11-26T21:38:45Z</time>
      </trkpt>
      <trkpt lat="42.14041" lon="2.36578">
        <ele>1201.3</ele>
        <time>2018-11-26T21:38:47Z</time>
      </trkpt>
      <trkpt lat="42.14041" lon="2.36584">
        <ele>1200.7</ele>
        <time>2018-11-26T21:38:49Z</time>
      </trkpt>
      <trkpt lat="42.14041" lon="2.3659">
        <ele>1199.8</ele>
        <time>2018-11-26T21:38:51Z</time>
      </trkpt>
      <trkpt lat="42.14042" lon="2.36597">
        <ele>1199.1</ele>
        <time>2018-11-26T21:38:53Z</time>
      </trkpt>
      <trkpt lat="42.14041" lon="2.36603">
        <ele>1198.2</ele>
        <time>2018-11-26T21:38:55Z</time>
      </trkpt>
      <trkpt lat="42.1404" lon="2.36609">
        <ele>1197.7</ele>
        <time>2018-11-26T21:38:57Z</time>
      </trkpt>
      <trkpt lat="42.14039" lon="2.36615">
        <ele>1197.3</ele>
        <time>2018-11-26T21:38:59Z</time>
      </trkpt>
      <trkpt lat="42.14039" lon="2.36622">
        <ele>1196.4</ele>
        <time>2018-11-26T21:39:01Z</time>
      </trkpt>
      <trkpt lat="42.14036" lon="2.36627">
        <ele>1195.9</ele>
        <time>2018-11-26T21:39:02Z</time>
      </trkpt>
      <trkpt lat="42.14034" lon="2.36633">
        <ele>1195.4</ele>
        <time>2018-11-26T21:39:04Z</time>
      </trkpt>
      <trkpt lat="42.14032" lon="2.36639">
        <ele>1195</ele>
        <time>2018-11-26T21:39:06Z</time>
      </trkpt>
      <trkpt lat="42.14029" lon="2.36646">
        <ele>1194.1</ele>
        <time>2018-11-26T21:39:09Z</time>
      </trkpt>
      <trkpt lat="42.14024" lon="2.36653">
        <ele>1193.3</ele>
        <time>2018-11-26T21:39:11Z</time>
      </trkpt>
      <trkpt lat="42.14024" lon="2.36659">
        <ele>1192.6</ele>
        <time>2018-11-26T21:39:13Z</time>
      </trkpt>
      <trkpt lat="42.14024" lon="2.36666">
        <ele>1191.7</ele>
        <time>2018-11-26T21:39:15Z</time>
      </trkpt>
      <trkpt lat="42.14025" lon="2.36672">
        <ele>1190.7</ele>
        <time>2018-11-26T21:39:17Z</time>
      </trkpt>
      <trkpt lat="42.14027" lon="2.36679">
        <ele>1189.5</ele>
        <time>2018-11-26T21:39:19Z</time>
      </trkpt>
      <trkpt lat="42.14028" lon="2.36686">
        <ele>1188.2</ele>
        <time>2018-11-26T21:39:22Z</time>
      </trkpt>
      <trkpt lat="42.14028" lon="2.36692">
        <ele>1187.2</ele>
        <time>2018-11-26T21:39:23Z</time>
      </trkpt>
      <trkpt lat="42.14031" lon="2.36698">
        <ele>1186.5</ele>
        <time>2018-11-26T21:39:25Z</time>
      </trkpt>
      <trkpt lat="42.14036" lon="2.36702">
        <ele>1185.6</ele>
        <time>2018-11-26T21:39:28Z</time>
      </trkpt>
      <trkpt lat="42.14041" lon="2.36702">
        <ele>1184.4</ele>
        <time>2018-11-26T21:39:30Z</time>
      </trkpt>
      <trkpt lat="42.14045" lon="2.36702">
        <ele>1183.6</ele>
        <time>2018-11-26T21:39:31Z</time>
      </trkpt>
      <trkpt lat="42.1405" lon="2.36701">
        <ele>1182.7</ele>
        <time>2018-11-26T21:39:33Z</time>
      </trkpt>
      <trkpt lat="42.14055" lon="2.36699">
        <ele>1181.6</ele>
        <time>2018-11-26T21:39:35Z</time>
      </trkpt>
      <trkpt lat="42.14059" lon="2.36696">
        <ele>1180.9</ele>
        <time>2018-11-26T21:39:37Z</time>
      </trkpt>
      <trkpt lat="42.1406" lon="2.36689">
        <ele>1180</ele>
        <time>2018-11-26T21:39:40Z</time>
      </trkpt>
      <trkpt lat="42.14064" lon="2.36683">
        <ele>1179.2</ele>
        <time>2018-11-26T21:39:42Z</time>
      </trkpt>
      <trkpt lat="42.14068" lon="2.36687">
        <ele>1177.9</ele>
        <time>2018-11-26T21:39:44Z</time>
      </trkpt>
      <trkpt lat="42.14068" lon="2.36694">
        <ele>1177.2</ele>
        <time>2018-11-26T21:39:46Z</time>
      </trkpt>
      <trkpt lat="42.14071" lon="2.36699">
        <ele>1176.8</ele>
        <time>2018-11-26T21:39:48Z</time>
      </trkpt>
      <trkpt lat="42.1407" lon="2.36706">
        <ele>1176.3</ele>
        <time>2018-11-26T21:39:50Z</time>
      </trkpt>
      <trkpt lat="42.14069" lon="2.36712">
        <ele>1175.8</ele>
        <time>2018-11-26T21:39:52Z</time>
      </trkpt>
      <trkpt lat="42.14068" lon="2.36719">
        <ele>1174.9</ele>
        <time>2018-11-26T21:39:53Z</time>
      </trkpt>
      <trkpt lat="42.14066" lon="2.36725">
        <ele>1173.7</ele>
        <time>2018-11-26T21:39:55Z</time>
      </trkpt>
      <trkpt lat="42.14066" lon="2.36731">
        <ele>1172.8</ele>
        <time>2018-11-26T21:39:57Z</time>
      </trkpt>
      <trkpt lat="42.14066" lon="2.36739">
        <ele>1171.6</ele>
        <time>2018-11-26T21:40:00Z</time>
      </trkpt>
      <trkpt lat="42.14064" lon="2.36746">
        <ele>1170</ele>
        <time>2018-11-26T21:40:02Z</time>
      </trkpt>
      <trkpt lat="42.14062" lon="2.36753">
        <ele>1168.9</ele>
        <time>2018-11-26T21:40:04Z</time>
      </trkpt>
      <trkpt lat="42.1406" lon="2.36759">
        <ele>1168.3</ele>
        <time>2018-11-26T21:40:06Z</time>
      </trkpt>
      <trkpt lat="42.14058" lon="2.36765">
        <ele>1167.6</ele>
        <time>2018-11-26T21:40:08Z</time>
      </trkpt>
      <trkpt lat="42.14056" lon="2.36772">
        <ele>1166.5</ele>
        <time>2018-11-26T21:40:10Z</time>
      </trkpt>
      <trkpt lat="42.14054" lon="2.36778">
        <ele>1165.8</ele>
        <time>2018-11-26T21:40:12Z</time>
      </trkpt>
      <trkpt lat="42.14054" lon="2.36786">
        <ele>1165.2</ele>
        <time>2018-11-26T21:40:14Z</time>
      </trkpt>
      <trkpt lat="42.14053" lon="2.36792">
        <ele>1165.1</ele>
        <time>2018-11-26T21:40:16Z</time>
      </trkpt>
      <trkpt lat="42.14055" lon="2.36798">
        <ele>1165.1</ele>
        <time>2018-11-26T21:40:18Z</time>
      </trkpt>
      <trkpt lat="42.14053" lon="2.36804">
        <ele>1164.6</ele>
        <time>2018-11-26T21:40:20Z</time>
      </trkpt>
      <trkpt lat="42.1405" lon="2.3681">
        <ele>1164.1</ele>
        <time>2018-11-26T21:40:22Z</time>
      </trkpt>
      <trkpt lat="42.14049" lon="2.36816">
        <ele>1163.6</ele>
        <time>2018-11-26T21:40:24Z</time>
      </trkpt>
      <trkpt lat="42.14047" lon="2.36822">
        <ele>1163.1</ele>
        <time>2018-11-26T21:40:26Z</time>
      </trkpt>
      <trkpt lat="42.14046" lon="2.36828">
        <ele>1162</ele>
        <time>2018-11-26T21:40:28Z</time>
      </trkpt>
      <trkpt lat="42.14045" lon="2.36834">
        <ele>1161</ele>
        <time>2018-11-26T21:40:30Z</time>
      </trkpt>
      <trkpt lat="42.14041" lon="2.36839">
        <ele>1160.1</ele>
        <time>2018-11-26T21:40:32Z</time>
      </trkpt>
      <trkpt lat="42.14038" lon="2.36843">
        <ele>1159.4</ele>
        <time>2018-11-26T21:40:34Z</time>
      </trkpt>
      <trkpt lat="42.14041" lon="2.36848">
        <ele>1157.9</ele>
        <time>2018-11-26T21:40:36Z</time>
      </trkpt>
      <trkpt lat="42.14044" lon="2.36853">
        <ele>1156.9</ele>
        <time>2018-11-26T21:40:38Z</time>
      </trkpt>
      <trkpt lat="42.14048" lon="2.36856">
        <ele>1156.2</ele>
        <time>2018-11-26T21:40:40Z</time>
      </trkpt>
      <trkpt lat="42.1405" lon="2.36862">
        <ele>1154.3</ele>
        <time>2018-11-26T21:40:42Z</time>
      </trkpt>
      <trkpt lat="42.14051" lon="2.36868">
        <ele>1153.3</ele>
        <time>2018-11-26T21:40:44Z</time>
      </trkpt>
      <trkpt lat="42.14054" lon="2.36874">
        <ele>1152.2</ele>
        <time>2018-11-26T21:40:46Z</time>
      </trkpt>
      <trkpt lat="42.14056" lon="2.3688">
        <ele>1151.2</ele>
        <time>2018-11-26T21:40:48Z</time>
      </trkpt>
      <trkpt lat="42.1406" lon="2.36883">
        <ele>1148.6</ele>
        <time>2018-11-26T21:40:50Z</time>
      </trkpt>
      <trkpt lat="42.14066" lon="2.36881">
        <ele>1147.3</ele>
        <time>2018-11-26T21:40:52Z</time>
      </trkpt>
      <trkpt lat="42.14068" lon="2.36875">
        <ele>1146.5</ele>
        <time>2018-11-26T21:40:54Z</time>
      </trkpt>
      <trkpt lat="42.14073" lon="2.36872">
        <ele>1145.8</ele>
        <time>2018-11-26T21:40:56Z</time>
      </trkpt>
      <trkpt lat="42.14076" lon="2.36876">
        <ele>1144.5</ele>
        <time>2018-11-26T21:40:58Z</time>
      </trkpt>
      <trkpt lat="42.14074" lon="2.36882">
        <ele>1143.1</ele>
        <time>2018-11-26T21:41:00Z</time>
      </trkpt>
      <trkpt lat="42.14078" lon="2.36886">
        <ele>1140.7</ele>
        <time>2018-11-26T21:41:01Z</time>
      </trkpt>
      <trkpt lat="42.14082" lon="2.36884">
        <ele>1140.1</ele>
        <time>2018-11-26T21:41:03Z</time>
      </trkpt>
      <trkpt lat="42.14086" lon="2.3688">
        <ele>1138.2</ele>
        <time>2018-11-26T21:41:05Z</time>
      </trkpt>
      <trkpt lat="42.1409" lon="2.36876">
        <ele>1137</ele>
        <time>2018-11-26T21:41:07Z</time>
      </trkpt>
      <trkpt lat="42.14094" lon="2.36876">
        <ele>1135</ele>
        <time>2018-11-26T21:41:09Z</time>
      </trkpt>
      <trkpt lat="42.141" lon="2.36874">
        <ele>1133.9</ele>
        <time>2018-11-26T21:41:11Z</time>
      </trkpt>
      <trkpt lat="42.14105" lon="2.36871">
        <ele>1133.3</ele>
        <time>2018-11-26T21:41:14Z</time>
      </trkpt>
      <trkpt lat="42.14106" lon="2.36878">
        <ele>1131.1</ele>
        <time>2018-11-26T21:41:16Z</time>
      </trkpt>
      <trkpt lat="42.14101" lon="2.36881">
        <ele>1130.1</ele>
        <time>2018-11-26T21:41:18Z</time>
      </trkpt>
      <trkpt lat="42.14106" lon="2.36881">
        <ele>1127.9</ele>
        <time>2018-11-26T21:41:20Z</time>
      </trkpt>
      <trkpt lat="42.14111" lon="2.3688">
        <ele>1127.1</ele>
        <time>2018-11-26T21:41:22Z</time>
      </trkpt>
      <trkpt lat="42.14116" lon="2.36882">
        <ele>1126.5</ele>
        <time>2018-11-26T21:41:24Z</time>
      </trkpt>
      <trkpt lat="42.14113" lon="2.36888">
        <ele>1125.1</ele>
        <time>2018-11-26T21:41:26Z</time>
      </trkpt>
      <trkpt lat="42.1411" lon="2.36893">
        <ele>1123.2</ele>
        <time>2018-11-26T21:41:28Z</time>
      </trkpt>
      <trkpt lat="42.14106" lon="2.36896">
        <ele>1122.9</ele>
        <time>2018-11-26T21:41:30Z</time>
      </trkpt>
      <trkpt lat="42.14102" lon="2.369">
        <ele>1122</ele>
        <time>2018-11-26T21:41:32Z</time>
      </trkpt>
      <trkpt lat="42.14097" lon="2.36902">
        <ele>1121.7</ele>
        <time>2018-11-26T21:41:33Z</time>
      </trkpt>
      <trkpt lat="42.14096" lon="2.36908">
        <ele>1120.7</ele>
        <time>2018-11-26T21:41:35Z</time>
      </trkpt>
      <trkpt lat="42.14093" lon="2.36914">
        <ele>1119.3</ele>
        <time>2018-11-26T21:41:37Z</time>
      </trkpt>
      <trkpt lat="42.14091" lon="2.36919">
        <ele>1118.2</ele>
        <time>2018-11-26T21:41:39Z</time>
      </trkpt>
      <trkpt lat="42.14096" lon="2.36919">
        <ele>1114</ele>
        <time>2018-11-26T21:41:41Z</time>
      </trkpt>
      <trkpt lat="42.14101" lon="2.36922">
        <ele>1114</ele>
        <time>2018-11-26T21:41:43Z</time>
      </trkpt>
      <trkpt lat="42.14101" lon="2.36929">
        <ele>1112.5</ele>
        <time>2018-11-26T21:41:45Z</time>
      </trkpt>
      <trkpt lat="42.14106" lon="2.36926">
        <ele>1111.4</ele>
        <time>2018-11-26T21:41:47Z</time>
      </trkpt>
      <trkpt lat="42.14109" lon="2.36921">
        <ele>1110.3</ele>
        <time>2018-11-26T21:41:49Z</time>
      </trkpt>
      <trkpt lat="42.14112" lon="2.36917">
        <ele>1109.4</ele>
        <time>2018-11-26T21:41:51Z</time>
      </trkpt>
      <trkpt lat="42.14118" lon="2.36918">
        <ele>1108.4</ele>
        <time>2018-11-26T21:41:53Z</time>
      </trkpt>
      <trkpt lat="42.14123" lon="2.36918">
        <ele>1107.2</ele>
        <time>2018-11-26T21:41:55Z</time>
      </trkpt>
      <trkpt lat="42.14122" lon="2.36924">
        <ele>1105</ele>
        <time>2018-11-26T21:41:57Z</time>
      </trkpt>
      <trkpt lat="42.14118" lon="2.3693">
        <ele>1103.9</ele>
        <time>2018-11-26T21:41:59Z</time>
      </trkpt>
      <trkpt lat="42.14123" lon="2.36931">
        <ele>1101.9</ele>
        <time>2018-11-26T21:42:01Z</time>
      </trkpt>
      <trkpt lat="42.14128" lon="2.36931">
        <ele>1099</ele>
        <time>2018-11-26T21:42:03Z</time>
      </trkpt>
      <trkpt lat="42.14136" lon="2.36931">
        <ele>1097.7</ele>
        <time>2018-11-26T21:42:07Z</time>
      </trkpt>
      <trkpt lat="42.14142" lon="2.36929">
        <ele>1096.4</ele>
        <time>2018-11-26T21:42:09Z</time>
      </trkpt>
      <trkpt lat="42.14146" lon="2.36932">
        <ele>1094.9</ele>
        <time>2018-11-26T21:42:11Z</time>
      </trkpt>
      <trkpt lat="42.14151" lon="2.36929">
        <ele>1092.9</ele>
        <time>2018-11-26T21:42:13Z</time>
      </trkpt>
      <trkpt lat="42.14155" lon="2.36932">
        <ele>1089.9</ele>
        <time>2018-11-26T21:42:15Z</time>
      </trkpt>
      <trkpt lat="42.14161" lon="2.36936">
        <ele>1088.3</ele>
        <time>2018-11-26T21:42:17Z</time>
      </trkpt>
      <trkpt lat="42.14161" lon="2.36943">
        <ele>1086.7</ele>
        <time>2018-11-26T21:42:19Z</time>
      </trkpt>
      <trkpt lat="42.14165" lon="2.36943">
        <ele>1085.6</ele>
        <time>2018-11-26T21:42:21Z</time>
      </trkpt>
      <trkpt lat="42.1417" lon="2.36945">
        <ele>1084.1</ele>
        <time>2018-11-26T21:42:23Z</time>
      </trkpt>
      <trkpt lat="42.14176" lon="2.36947">
        <ele>1083.1</ele>
        <time>2018-11-26T21:42:25Z</time>
      </trkpt>
      <trkpt lat="42.1418" lon="2.36948">
        <ele>1082</ele>
        <time>2018-11-26T21:42:27Z</time>
      </trkpt>
      <trkpt lat="42.1418" lon="2.36942">
        <ele>1081.9</ele>
        <time>2018-11-26T21:42:29Z</time>
      </trkpt>
      <trkpt lat="42.14179" lon="2.36935">
        <ele>1080.7</ele>
        <time>2018-11-26T21:42:31Z</time>
      </trkpt>
      <trkpt lat="42.14178" lon="2.36929">
        <ele>1079.3</ele>
        <time>2018-11-26T21:42:33Z</time>
      </trkpt>
      <trkpt lat="42.14179" lon="2.36922">
        <ele>1078.3</ele>
        <time>2018-11-26T21:42:35Z</time>
      </trkpt>
      <trkpt lat="42.14182" lon="2.36916">
        <ele>1077.3</ele>
        <time>2018-11-26T21:42:37Z</time>
      </trkpt>
      <trkpt lat="42.14186" lon="2.36921">
        <ele>1073.2</ele>
        <time>2018-11-26T21:42:39Z</time>
      </trkpt>
      <trkpt lat="42.14191" lon="2.36922">
        <ele>1073.2</ele>
        <time>2018-11-26T21:42:41Z</time>
      </trkpt>
      <trkpt lat="42.14193" lon="2.36928">
        <ele>1072</ele>
        <time>2018-11-26T21:42:43Z</time>
      </trkpt>
      <trkpt lat="42.14196" lon="2.36935">
        <ele>1070.7</ele>
        <time>2018-11-26T21:42:46Z</time>
      </trkpt>
      <trkpt lat="42.142" lon="2.36938">
        <ele>1070.5</ele>
        <time>2018-11-26T21:42:48Z</time>
      </trkpt>
      <trkpt lat="42.14204" lon="2.36943">
        <ele>1070.4</ele>
        <time>2018-11-26T21:42:50Z</time>
      </trkpt>
      <trkpt lat="42.14208" lon="2.36946">
        <ele>1069.9</ele>
        <time>2018-11-26T21:42:52Z</time>
      </trkpt>
      <trkpt lat="42.14212" lon="2.36951">
        <ele>1069.9</ele>
        <time>2018-11-26T21:42:54Z</time>
      </trkpt>
      <trkpt lat="42.14215" lon="2.36956">
        <ele>1068.9</ele>
        <time>2018-11-26T21:42:56Z</time>
      </trkpt>
      <trkpt lat="42.14218" lon="2.36962">
        <ele>1067.2</ele>
        <time>2018-11-26T21:42:58Z</time>
      </trkpt>
      <trkpt lat="42.14217" lon="2.36969">
        <ele>1065.6</ele>
        <time>2018-11-26T21:43:00Z</time>
      </trkpt>
      <trkpt lat="42.14214" lon="2.36975">
        <ele>1064</ele>
        <time>2018-11-26T21:43:02Z</time>
      </trkpt>
      <trkpt lat="42.14209" lon="2.36978">
        <ele>1063.1</ele>
        <time>2018-11-26T21:43:04Z</time>
      </trkpt>
      <trkpt lat="42.14204" lon="2.36978">
        <ele>1062</ele>
        <time>2018-11-26T21:43:06Z</time>
      </trkpt>
      <trkpt lat="42.14199" lon="2.3698">
        <ele>1061.1</ele>
        <time>2018-11-26T21:43:08Z</time>
      </trkpt>
      <trkpt lat="42.14203" lon="2.36982">
        <ele>1059.9</ele>
        <time>2018-11-26T21:43:10Z</time>
      </trkpt>
      <trkpt lat="42.14207" lon="2.36986">
        <ele>1058.9</ele>
        <time>2018-11-26T21:43:12Z</time>
      </trkpt>
      <trkpt lat="42.1421" lon="2.36991">
        <ele>1057.2</ele>
        <time>2018-11-26T21:43:14Z</time>
      </trkpt>
      <trkpt lat="42.14213" lon="2.36996">
        <ele>1055.7</ele>
        <time>2018-11-26T21:43:16Z</time>
      </trkpt>
      <trkpt lat="42.14216" lon="2.37001">
        <ele>1055</ele>
        <time>2018-11-26T21:43:18Z</time>
      </trkpt>
      <trkpt lat="42.14216" lon="2.37007">
        <ele>1053.1</ele>
        <time>2018-11-26T21:43:20Z</time>
      </trkpt>
      <trkpt lat="42.14211" lon="2.37006">
        <ele>1052.3</ele>
        <time>2018-11-26T21:43:22Z</time>
      </trkpt>
      <trkpt lat="42.14206" lon="2.37005">
        <ele>1052.1</ele>
        <time>2018-11-26T21:43:23Z</time>
      </trkpt>
      <trkpt lat="42.14202" lon="2.37006">
        <ele>1051.6</ele>
        <time>2018-11-26T21:43:25Z</time>
      </trkpt>
      <trkpt lat="42.14198" lon="2.3701">
        <ele>1050.8</ele>
        <time>2018-11-26T21:43:27Z</time>
      </trkpt>
      <trkpt lat="42.14194" lon="2.37015">
        <ele>1050.1</ele>
        <time>2018-11-26T21:43:29Z</time>
      </trkpt>
      <trkpt lat="42.1419" lon="2.3702">
        <ele>1050</ele>
        <time>2018-11-26T21:43:31Z</time>
      </trkpt>
      <trkpt lat="42.14187" lon="2.37025">
        <ele>1049.6</ele>
        <time>2018-11-26T21:43:34Z</time>
      </trkpt>
      <trkpt lat="42.14182" lon="2.3703">
        <ele>1048.7</ele>
        <time>2018-11-26T21:43:36Z</time>
      </trkpt>
      <trkpt lat="42.14178" lon="2.37034">
        <ele>1047.9</ele>
        <time>2018-11-26T21:43:38Z</time>
      </trkpt>
      <trkpt lat="42.14176" lon="2.3704">
        <ele>1046.9</ele>
        <time>2018-11-26T21:43:40Z</time>
      </trkpt>
      <trkpt lat="42.14174" lon="2.37046">
        <ele>1045.7</ele>
        <time>2018-11-26T21:43:42Z</time>
      </trkpt>
      <trkpt lat="42.14173" lon="2.37052">
        <ele>1044.3</ele>
        <time>2018-11-26T21:43:44Z</time>
      </trkpt>
      <trkpt lat="42.14173" lon="2.37059">
        <ele>1041.4</ele>
        <time>2018-11-26T21:43:46Z</time>
      </trkpt>
      <trkpt lat="42.14172" lon="2.37065">
        <ele>1040.1</ele>
        <time>2018-11-26T21:43:48Z</time>
      </trkpt>
      <trkpt lat="42.14169" lon="2.37071">
        <ele>1039.2</ele>
        <time>2018-11-26T21:43:50Z</time>
      </trkpt>
      <trkpt lat="42.14169" lon="2.37077">
        <ele>1038.5</ele>
        <time>2018-11-26T21:43:52Z</time>
      </trkpt>
      <trkpt lat="42.14172" lon="2.37072">
        <ele>1038.4</ele>
        <time>2018-11-26T21:43:54Z</time>
      </trkpt>
      <trkpt lat="42.14172" lon="2.37079">
        <ele>1038.2</ele>
        <time>2018-11-26T21:43:55Z</time>
      </trkpt>
      <trkpt lat="42.14174" lon="2.37084">
        <ele>1037.6</ele>
        <time>2018-11-26T21:43:57Z</time>
      </trkpt>
      <trkpt lat="42.14172" lon="2.37091">
        <ele>1036.8</ele>
        <time>2018-11-26T21:43:59Z</time>
      </trkpt>
      <trkpt lat="42.1417" lon="2.37098">
        <ele>1035.6</ele>
        <time>2018-11-26T21:44:02Z</time>
      </trkpt>
      <trkpt lat="42.14169" lon="2.37104">
        <ele>1035</ele>
        <time>2018-11-26T21:44:04Z</time>
      </trkpt>
      <trkpt lat="42.14168" lon="2.37111">
        <ele>1034</ele>
        <time>2018-11-26T21:44:06Z</time>
      </trkpt>
      <trkpt lat="42.14165" lon="2.37117">
        <ele>1033.4</ele>
        <time>2018-11-26T21:44:07Z</time>
      </trkpt>
      <trkpt lat="42.14163" lon="2.37123">
        <ele>1032.6</ele>
        <time>2018-11-26T21:44:10Z</time>
      </trkpt>
      <trkpt lat="42.14161" lon="2.37129">
        <ele>1032.2</ele>
        <time>2018-11-26T21:44:12Z</time>
      </trkpt>
      <trkpt lat="42.14158" lon="2.37136">
        <ele>1031.6</ele>
        <time>2018-11-26T21:44:14Z</time>
      </trkpt>
      <trkpt lat="42.14155" lon="2.37142">
        <ele>1031.2</ele>
        <time>2018-11-26T21:44:16Z</time>
      </trkpt>
      <trkpt lat="42.14153" lon="2.37148">
        <ele>1031.2</ele>
        <time>2018-11-26T21:44:18Z</time>
      </trkpt>
      <trkpt lat="42.14151" lon="2.37154">
        <ele>1030.8</ele>
        <time>2018-11-26T21:44:20Z</time>
      </trkpt>
      <trkpt lat="42.14149" lon="2.3716">
        <ele>1030.3</ele>
        <time>2018-11-26T21:44:22Z</time>
      </trkpt>
      <trkpt lat="42.14146" lon="2.37166">
        <ele>1030.3</ele>
        <time>2018-11-26T21:44:24Z</time>
      </trkpt>
      <trkpt lat="42.14144" lon="2.37171">
        <ele>1030.1</ele>
        <time>2018-11-26T21:44:26Z</time>
      </trkpt>
      <trkpt lat="42.14142" lon="2.37177">
        <ele>1029.9</ele>
        <time>2018-11-26T21:44:28Z</time>
      </trkpt>
      <trkpt lat="42.14142" lon="2.37185">
        <ele>1029.2</ele>
        <time>2018-11-26T21:44:30Z</time>
      </trkpt>
      <trkpt lat="42.1414" lon="2.37191">
        <ele>1028.4</ele>
        <time>2018-11-26T21:44:32Z</time>
      </trkpt>
      <trkpt lat="42.14139" lon="2.37198">
        <ele>1027.7</ele>
        <time>2018-11-26T21:44:34Z</time>
      </trkpt>
      <trkpt lat="42.14135" lon="2.37202">
        <ele>1027.4</ele>
        <time>2018-11-26T21:44:36Z</time>
      </trkpt>
      <trkpt lat="42.14138" lon="2.37207">
        <ele>1027</ele>
        <time>2018-11-26T21:44:38Z</time>
      </trkpt>
      <trkpt lat="42.14135" lon="2.37213">
        <ele>1026.1</ele>
        <time>2018-11-26T21:44:40Z</time>
      </trkpt>
      <trkpt lat="42.14139" lon="2.37217">
        <ele>1026.2</ele>
        <time>2018-11-26T21:44:42Z</time>
      </trkpt>
      <trkpt lat="42.14143" lon="2.37218">
        <ele>1026</ele>
        <time>2018-11-26T21:44:44Z</time>
      </trkpt>
      <trkpt lat="42.14139" lon="2.37218">
        <ele>1025.8</ele>
        <time>2018-11-26T21:44:46Z</time>
      </trkpt>
      <trkpt lat="42.14142" lon="2.37222">
        <ele>1026.5</ele>
        <time>2018-11-26T21:44:47Z</time>
      </trkpt>
      <trkpt lat="42.14146" lon="2.37225">
        <ele>1026.3</ele>
        <time>2018-11-26T21:44:49Z</time>
      </trkpt>
      <trkpt lat="42.14151" lon="2.37223">
        <ele>1025.9</ele>
        <time>2018-11-26T21:44:51Z</time>
      </trkpt>
      <trkpt lat="42.14149" lon="2.3723">
        <ele>1025.8</ele>
        <time>2018-11-26T21:44:53Z</time>
      </trkpt>
      <trkpt lat="42.14149" lon="2.37237">
        <ele>1026.2</ele>
        <time>2018-11-26T21:44:55Z</time>
      </trkpt>
      <trkpt lat="42.14147" lon="2.37243">
        <ele>1026.4</ele>
        <time>2018-11-26T21:44:57Z</time>
      </trkpt>
      <trkpt lat="42.14142" lon="2.37243">
        <ele>1026.6</ele>
        <time>2018-11-26T21:44:59Z</time>
      </trkpt>
      <trkpt lat="42.14144" lon="2.37249">
        <ele>1026.8</ele>
        <time>2018-11-26T21:45:02Z</time>
      </trkpt>
      <trkpt lat="42.14144" lon="2.37256">
        <ele>1026.2</ele>
        <time>2018-11-26T21:45:04Z</time>
      </trkpt>
      <trkpt lat="42.14145" lon="2.37262">
        <ele>1026</ele>
        <time>2018-11-26T21:45:05Z</time>
      </trkpt>
      <trkpt lat="42.14146" lon="2.37268">
        <ele>1025.7</ele>
        <time>2018-11-26T21:45:07Z</time>
      </trkpt>
      <trkpt lat="42.14149" lon="2.37274">
        <ele>1025.3</ele>
        <time>2018-11-26T21:45:09Z</time>
      </trkpt>
      <trkpt lat="42.14151" lon="2.3728">
        <ele>1024.4</ele>
        <time>2018-11-26T21:45:11Z</time>
      </trkpt>
      <trkpt lat="42.1415" lon="2.37288">
        <ele>1024.1</ele>
        <time>2018-11-26T21:45:14Z</time>
      </trkpt>
      <trkpt lat="42.1415" lon="2.37294">
        <ele>1023.7</ele>
        <time>2018-11-26T21:45:16Z</time>
      </trkpt>
      <trkpt lat="42.1415" lon="2.37301">
        <ele>1023.3</ele>
        <time>2018-11-26T21:45:17Z</time>
      </trkpt>
      <trkpt lat="42.14151" lon="2.37307">
        <ele>1022.5</ele>
        <time>2018-11-26T21:45:19Z</time>
      </trkpt>
      <trkpt lat="42.1415" lon="2.37314">
        <ele>1022.2</ele>
        <time>2018-11-26T21:45:22Z</time>
      </trkpt>
      <trkpt lat="42.1415" lon="2.37322">
        <ele>1022.1</ele>
        <time>2018-11-26T21:45:24Z</time>
      </trkpt>
      <trkpt lat="42.14151" lon="2.37328">
        <ele>1022</ele>
        <time>2018-11-26T21:45:26Z</time>
      </trkpt>
      <trkpt lat="42.14152" lon="2.37335">
        <ele>1021.5</ele>
        <time>2018-11-26T21:45:28Z</time>
      </trkpt>
      <trkpt lat="42.1415" lon="2.3734">
        <ele>1021.3</ele>
        <time>2018-11-26T21:45:30Z</time>
      </trkpt>
      <trkpt lat="42.14152" lon="2.37347">
        <ele>1021.2</ele>
        <time>2018-11-26T21:45:32Z</time>
      </trkpt>
      <trkpt lat="42.1415" lon="2.37353">
        <ele>1020.7</ele>
        <time>2018-11-26T21:45:34Z</time>
      </trkpt>
      <trkpt lat="42.14149" lon="2.3736">
        <ele>1020.6</ele>
        <time>2018-11-26T21:45:36Z</time>
      </trkpt>
      <trkpt lat="42.14146" lon="2.37367">
        <ele>1020.5</ele>
        <time>2018-11-26T21:45:38Z</time>
      </trkpt>
      <trkpt lat="42.14146" lon="2.37374">
        <ele>1019.9</ele>
        <time>2018-11-26T21:45:40Z</time>
      </trkpt>
      <trkpt lat="42.14146" lon="2.37381">
        <ele>1019.1</ele>
        <time>2018-11-26T21:45:43Z</time>
      </trkpt>
      <trkpt lat="42.14145" lon="2.37388">
        <ele>1018.8</ele>
        <time>2018-11-26T21:45:45Z</time>
      </trkpt>
      <trkpt lat="42.14148" lon="2.37394">
        <ele>1018.7</ele>
        <time>2018-11-26T21:45:47Z</time>
      </trkpt>
      <trkpt lat="42.14147" lon="2.37401">
        <ele>1018.1</ele>
        <time>2018-11-26T21:45:49Z</time>
      </trkpt>
      <trkpt lat="42.14145" lon="2.37407">
        <ele>1018.1</ele>
        <time>2018-11-26T21:45:51Z</time>
      </trkpt>
      <trkpt lat="42.14141" lon="2.37413">
        <ele>1017.7</ele>
        <time>2018-11-26T21:45:53Z</time>
      </trkpt>
      <trkpt lat="42.14139" lon="2.37419">
        <ele>1017.8</ele>
        <time>2018-11-26T21:45:55Z</time>
      </trkpt>
      <trkpt lat="42.14136" lon="2.37425">
        <ele>1017.9</ele>
        <time>2018-11-26T21:45:57Z</time>
      </trkpt>
      <trkpt lat="42.14139" lon="2.37432">
        <ele>1017.6</ele>
        <time>2018-11-26T21:46:00Z</time>
      </trkpt>
      <trkpt lat="42.14136" lon="2.37439">
        <ele>1017.6</ele>
        <time>2018-11-26T21:46:02Z</time>
      </trkpt>
      <trkpt lat="42.14134" lon="2.37446">
        <ele>1017.7</ele>
        <time>2018-11-26T21:46:04Z</time>
      </trkpt>
      <trkpt lat="42.14133" lon="2.37454">
        <ele>1017.9</ele>
        <time>2018-11-26T21:46:07Z</time>
      </trkpt>
      <trkpt lat="42.14131" lon="2.37461">
        <ele>1018.3</ele>
        <time>2018-11-26T21:46:09Z</time>
      </trkpt>
      <trkpt lat="42.14129" lon="2.37468">
        <ele>1019</ele>
        <time>2018-11-26T21:46:11Z</time>
      </trkpt>
      <trkpt lat="42.14128" lon="2.37474">
        <ele>1019.6</ele>
        <time>2018-11-26T21:46:13Z</time>
      </trkpt>
      <trkpt lat="42.14126" lon="2.3748">
        <ele>1019.8</ele>
        <time>2018-11-26T21:46:15Z</time>
      </trkpt>
      <trkpt lat="42.14124" lon="2.37486">
        <ele>1019.8</ele>
        <time>2018-11-26T21:46:17Z</time>
      </trkpt>
      <trkpt lat="42.1412" lon="2.37492">
        <ele>1020.6</ele>
        <time>2018-11-26T21:46:19Z</time>
      </trkpt>
      <trkpt lat="42.14117" lon="2.37496">
        <ele>1021.1</ele>
        <time>2018-11-26T21:46:21Z</time>
      </trkpt>
      <trkpt lat="42.14116" lon="2.37503">
        <ele>1022.7</ele>
        <time>2018-11-26T21:46:23Z</time>
      </trkpt>
      <trkpt lat="42.14112" lon="2.37508">
        <ele>1023.6</ele>
        <time>2018-11-26T21:46:25Z</time>
      </trkpt>
      <trkpt lat="42.14109" lon="2.37513">
        <ele>1023.9</ele>
        <time>2018-11-26T21:46:27Z</time>
      </trkpt>
      <trkpt lat="42.14105" lon="2.37518">
        <ele>1023.8</ele>
        <time>2018-11-26T21:46:29Z</time>
      </trkpt>
      <trkpt lat="42.14102" lon="2.37522">
        <ele>1023.5</ele>
        <time>2018-11-26T21:46:31Z</time>
      </trkpt>
      <trkpt lat="42.14097" lon="2.37526">
        <ele>1023</ele>
        <time>2018-11-26T21:46:33Z</time>
      </trkpt>
      <trkpt lat="42.14094" lon="2.37531">
        <ele>1022.6</ele>
        <time>2018-11-26T21:46:35Z</time>
      </trkpt>
      <trkpt lat="42.1409" lon="2.37535">
        <ele>1021.4</ele>
        <time>2018-11-26T21:46:37Z</time>
      </trkpt>
      <trkpt lat="42.14093" lon="2.37541">
        <ele>1021</ele>
        <time>2018-11-26T21:46:39Z</time>
      </trkpt>
      <trkpt lat="42.14087" lon="2.37542">
        <ele>1020.1</ele>
        <time>2018-11-26T21:46:41Z</time>
      </trkpt>
      <trkpt lat="42.14082" lon="2.37542">
        <ele>1019.8</ele>
        <time>2018-11-26T21:46:43Z</time>
      </trkpt>
      <trkpt lat="42.14077" lon="2.37543">
        <ele>1019.6</ele>
        <time>2018-11-26T21:46:45Z</time>
      </trkpt>
      <trkpt lat="42.14071" lon="2.37542">
        <ele>1019.2</ele>
        <time>2018-11-26T21:46:48Z</time>
      </trkpt>
      <trkpt lat="42.14066" lon="2.37543">
        <ele>1018.8</ele>
        <time>2018-11-26T21:46:50Z</time>
      </trkpt>
      <trkpt lat="42.14061" lon="2.37545">
        <ele>1018.7</ele>
        <time>2018-11-26T21:46:52Z</time>
      </trkpt>
      <trkpt lat="42.14056" lon="2.37546">
        <ele>1018.3</ele>
        <time>2018-11-26T21:46:54Z</time>
      </trkpt>
      <trkpt lat="42.14051" lon="2.37548">
        <ele>1017.3</ele>
        <time>2018-11-26T21:46:56Z</time>
      </trkpt>
      <trkpt lat="42.14046" lon="2.37547">
        <ele>1015.7</ele>
        <time>2018-11-26T21:46:58Z</time>
      </trkpt>
      <trkpt lat="42.14042" lon="2.37548">
        <ele>1014.8</ele>
        <time>2018-11-26T21:47:00Z</time>
      </trkpt>
      <trkpt lat="42.14037" lon="2.37549">
        <ele>1014.6</ele>
        <time>2018-11-26T21:47:01Z</time>
      </trkpt>
      <trkpt lat="42.14036" lon="2.37555">
        <ele>1014.8</ele>
        <time>2018-11-26T21:47:03Z</time>
      </trkpt>
      <trkpt lat="42.14038" lon="2.37561">
        <ele>1015.1</ele>
        <time>2018-11-26T21:47:05Z</time>
      </trkpt>
      <trkpt lat="42.14039" lon="2.37567">
        <ele>1015.4</ele>
        <time>2018-11-26T21:47:07Z</time>
      </trkpt>
      <trkpt lat="42.1404" lon="2.37573">
        <ele>1015.9</ele>
        <time>2018-11-26T21:47:09Z</time>
      </trkpt>
      <trkpt lat="42.14043" lon="2.37579">
        <ele>1016.1</ele>
        <time>2018-11-26T21:47:11Z</time>
      </trkpt>
      <trkpt lat="42.14046" lon="2.37584">
        <ele>1016.5</ele>
        <time>2018-11-26T21:47:13Z</time>
      </trkpt>
      <trkpt lat="42.1405" lon="2.37588">
        <ele>1016.6</ele>
        <time>2018-11-26T21:47:15Z</time>
      </trkpt>
      <trkpt lat="42.14052" lon="2.37594">
        <ele>1017.1</ele>
        <time>2018-11-26T21:47:17Z</time>
      </trkpt>
      <trkpt lat="42.14058" lon="2.37598">
        <ele>1017.5</ele>
        <time>2018-11-26T21:47:20Z</time>
      </trkpt>
      <trkpt lat="42.14063" lon="2.376">
        <ele>1018</ele>
        <time>2018-11-26T21:47:22Z</time>
      </trkpt>
      <trkpt lat="42.14065" lon="2.37606">
        <ele>1017.8</ele>
        <time>2018-11-26T21:47:24Z</time>
      </trkpt>
      <trkpt lat="42.14069" lon="2.37608">
        <ele>1017.1</ele>
        <time>2018-11-26T21:47:26Z</time>
      </trkpt>
      <trkpt lat="42.14074" lon="2.3761">
        <ele>1016.4</ele>
        <time>2018-11-26T21:47:28Z</time>
      </trkpt>
      <trkpt lat="42.14069" lon="2.37612">
        <ele>1017.5</ele>
        <time>2018-11-26T21:47:30Z</time>
      </trkpt>
      <trkpt lat="42.14064" lon="2.37613">
        <ele>1018.7</ele>
        <time>2018-11-26T21:47:32Z</time>
      </trkpt>
      <trkpt lat="42.14059" lon="2.37614">
        <ele>1020.1</ele>
        <time>2018-11-26T21:47:34Z</time>
      </trkpt>
      <trkpt lat="42.14054" lon="2.37617">
        <ele>1021.3</ele>
        <time>2018-11-26T21:47:36Z</time>
      </trkpt>
      <trkpt lat="42.14049" lon="2.3762">
        <ele>1022</ele>
        <time>2018-11-26T21:47:38Z</time>
      </trkpt>
      <trkpt lat="42.14047" lon="2.37626">
        <ele>1023</ele>
        <time>2018-11-26T21:47:40Z</time>
      </trkpt>
      <trkpt lat="42.14044" lon="2.37632">
        <ele>1023.7</ele>
        <time>2018-11-26T21:47:42Z</time>
      </trkpt>
      <trkpt lat="42.14041" lon="2.37637">
        <ele>1024.4</ele>
        <time>2018-11-26T21:47:44Z</time>
      </trkpt>
      <trkpt lat="42.14039" lon="2.37643">
        <ele>1025.1</ele>
        <time>2018-11-26T21:47:46Z</time>
      </trkpt>
      <trkpt lat="42.14037" lon="2.37648">
        <ele>1025.2</ele>
        <time>2018-11-26T21:47:48Z</time>
      </trkpt>
      <trkpt lat="42.14034" lon="2.37655">
        <ele>1025.5</ele>
        <time>2018-11-26T21:47:50Z</time>
      </trkpt>
      <trkpt lat="42.14032" lon="2.37662">
        <ele>1025.6</ele>
        <time>2018-11-26T21:47:52Z</time>
      </trkpt>
      <trkpt lat="42.1403" lon="2.3767">
        <ele>1025.7</ele>
        <time>2018-11-26T21:47:55Z</time>
      </trkpt>
      <trkpt lat="42.14029" lon="2.37677">
        <ele>1025.8</ele>
        <time>2018-11-26T21:47:57Z</time>
      </trkpt>
      <trkpt lat="42.14029" lon="2.37685">
        <ele>1026.1</ele>
        <time>2018-11-26T21:48:00Z</time>
      </trkpt>
      <trkpt lat="42.14023" lon="2.3769">
        <ele>1026.1</ele>
        <time>2018-11-26T21:48:02Z</time>
      </trkpt>
      <trkpt lat="42.14018" lon="2.37694">
        <ele>1026.2</ele>
        <time>2018-11-26T21:48:05Z</time>
      </trkpt>
      <trkpt lat="42.14014" lon="2.37699">
        <ele>1026.2</ele>
        <time>2018-11-26T21:48:07Z</time>
      </trkpt>
      <trkpt lat="42.14009" lon="2.37703">
        <ele>1026.2</ele>
        <time>2018-11-26T21:48:09Z</time>
      </trkpt>
      <trkpt lat="42.14004" lon="2.37706">
        <ele>1026.1</ele>
        <time>2018-11-26T21:48:11Z</time>
      </trkpt>
      <trkpt lat="42.14" lon="2.37708">
        <ele>1026.2</ele>
        <time>2018-11-26T21:48:13Z</time>
      </trkpt>
      <trkpt lat="42.13993" lon="2.37716">
        <ele>1025</ele>
        <time>2018-11-26T21:48:17Z</time>
      </trkpt>
      <trkpt lat="42.13998" lon="2.3772">
        <ele>1025.9</ele>
        <time>2018-11-26T21:48:19Z</time>
      </trkpt>
      <trkpt lat="42.13999" lon="2.37726">
        <ele>1025.8</ele>
        <time>2018-11-26T21:48:21Z</time>
      </trkpt>
      <trkpt lat="42.13995" lon="2.37732">
        <ele>1025.9</ele>
        <time>2018-11-26T21:48:23Z</time>
      </trkpt>
      <trkpt lat="42.13997" lon="2.37738">
        <ele>1025.7</ele>
        <time>2018-11-26T21:48:25Z</time>
      </trkpt>
      <trkpt lat="42.13995" lon="2.37744">
        <ele>1026.6</ele>
        <time>2018-11-26T21:48:27Z</time>
      </trkpt>
      <trkpt lat="42.13996" lon="2.37751">
        <ele>1027.3</ele>
        <time>2018-11-26T21:48:29Z</time>
      </trkpt>
      <trkpt lat="42.13999" lon="2.37756">
        <ele>1028.5</ele>
        <time>2018-11-26T21:48:31Z</time>
      </trkpt>
      <trkpt lat="42.14002" lon="2.37762">
        <ele>1030.1</ele>
        <time>2018-11-26T21:48:33Z</time>
      </trkpt>
      <trkpt lat="42.14005" lon="2.37766">
        <ele>1031</ele>
        <time>2018-11-26T21:48:35Z</time>
      </trkpt>
      <trkpt lat="42.14007" lon="2.37771">
        <ele>1030.6</ele>
        <time>2018-11-26T21:48:37Z</time>
      </trkpt>
      <trkpt lat="42.14013" lon="2.37773">
        <ele>1030.6</ele>
        <time>2018-11-26T21:48:39Z</time>
      </trkpt>
      <trkpt lat="42.14017" lon="2.37775">
        <ele>1030.6</ele>
        <time>2018-11-26T21:48:41Z</time>
      </trkpt>
      <trkpt lat="42.14021" lon="2.37777">
        <ele>1030.8</ele>
        <time>2018-11-26T21:48:43Z</time>
      </trkpt>
      <trkpt lat="42.14022" lon="2.37784">
        <ele>1029.5</ele>
        <time>2018-11-26T21:48:45Z</time>
      </trkpt>
      <trkpt lat="42.14021" lon="2.3779">
        <ele>1028.8</ele>
        <time>2018-11-26T21:48:47Z</time>
      </trkpt>
      <trkpt lat="42.14019" lon="2.37797">
        <ele>1028.9</ele>
        <time>2018-11-26T21:48:49Z</time>
      </trkpt>
      <trkpt lat="42.14017" lon="2.37803">
        <ele>1028.6</ele>
        <time>2018-11-26T21:48:51Z</time>
      </trkpt>
      <trkpt lat="42.14014" lon="2.37808">
        <ele>1027.7</ele>
        <time>2018-11-26T21:48:53Z</time>
      </trkpt>
      <trkpt lat="42.14009" lon="2.37811">
        <ele>1027.4</ele>
        <time>2018-11-26T21:48:55Z</time>
      </trkpt>
      <trkpt lat="42.1401" lon="2.37818">
        <ele>1026.9</ele>
        <time>2018-11-26T21:48:57Z</time>
      </trkpt>
      <trkpt lat="42.14009" lon="2.37824">
        <ele>1027.2</ele>
        <time>2018-11-26T21:48:58Z</time>
      </trkpt>
      <trkpt lat="42.14008" lon="2.3783">
        <ele>1027.2</ele>
        <time>2018-11-26T21:49:00Z</time>
      </trkpt>
      <trkpt lat="42.14009" lon="2.37837">
        <ele>1027.1</ele>
        <time>2018-11-26T21:49:03Z</time>
      </trkpt>
      <trkpt lat="42.1401" lon="2.37844">
        <ele>1026.6</ele>
        <time>2018-11-26T21:49:05Z</time>
      </trkpt>
      <trkpt lat="42.14012" lon="2.37849">
        <ele>1026.9</ele>
        <time>2018-11-26T21:49:06Z</time>
      </trkpt>
      <trkpt lat="42.14014" lon="2.37856">
        <ele>1026.9</ele>
        <time>2018-11-26T21:49:09Z</time>
      </trkpt>
      <trkpt lat="42.14015" lon="2.37863">
        <ele>1027.2</ele>
        <time>2018-11-26T21:49:11Z</time>
      </trkpt>
      <trkpt lat="42.14018" lon="2.37869">
        <ele>1026.9</ele>
        <time>2018-11-26T21:49:13Z</time>
      </trkpt>
      <trkpt lat="42.14022" lon="2.37873">
        <ele>1026.8</ele>
        <time>2018-11-26T21:49:15Z</time>
      </trkpt>
      <trkpt lat="42.14024" lon="2.37879">
        <ele>1027.3</ele>
        <time>2018-11-26T21:49:17Z</time>
      </trkpt>
      <trkpt lat="42.14025" lon="2.37885">
        <ele>1027.6</ele>
        <time>2018-11-26T21:49:19Z</time>
      </trkpt>
      <trkpt lat="42.14027" lon="2.37892">
        <ele>1027.7</ele>
        <time>2018-11-26T21:49:21Z</time>
      </trkpt>
      <trkpt lat="42.14028" lon="2.37899">
        <ele>1027.7</ele>
        <time>2018-11-26T21:49:23Z</time>
      </trkpt>
      <trkpt lat="42.14027" lon="2.37905">
        <ele>1028</ele>
        <time>2018-11-26T21:49:25Z</time>
      </trkpt>
      <trkpt lat="42.14027" lon="2.37912">
        <ele>1028.1</ele>
        <time>2018-11-26T21:49:27Z</time>
      </trkpt>
      <trkpt lat="42.14026" lon="2.37918">
        <ele>1028.7</ele>
        <time>2018-11-26T21:49:29Z</time>
      </trkpt>
      <trkpt lat="42.14025" lon="2.37926">
        <ele>1029.2</ele>
        <time>2018-11-26T21:49:31Z</time>
      </trkpt>
      <trkpt lat="42.14025" lon="2.37932">
        <ele>1029.6</ele>
        <time>2018-11-26T21:49:33Z</time>
      </trkpt>
      <trkpt lat="42.14025" lon="2.37938">
        <ele>1030</ele>
        <time>2018-11-26T21:49:35Z</time>
      </trkpt>
      <trkpt lat="42.14025" lon="2.37944">
        <ele>1029</ele>
        <time>2018-11-26T21:49:37Z</time>
      </trkpt>
      <trkpt lat="42.14021" lon="2.37949">
        <ele>1029.3</ele>
        <time>2018-11-26T21:49:39Z</time>
      </trkpt>
      <trkpt lat="42.14018" lon="2.37953">
        <ele>1030.1</ele>
        <time>2018-11-26T21:49:40Z</time>
      </trkpt>
      <trkpt lat="42.14013" lon="2.37954">
        <ele>1030.9</ele>
        <time>2018-11-26T21:49:42Z</time>
      </trkpt>
      <trkpt lat="42.14008" lon="2.37956">
        <ele>1031.7</ele>
        <time>2018-11-26T21:49:44Z</time>
      </trkpt>
      <trkpt lat="42.14003" lon="2.37959">
        <ele>1032.2</ele>
        <time>2018-11-26T21:49:46Z</time>
      </trkpt>
      <trkpt lat="42.13999" lon="2.37961">
        <ele>1032.5</ele>
        <time>2018-11-26T21:49:48Z</time>
      </trkpt>
      <trkpt lat="42.13997" lon="2.37967">
        <ele>1032.7</ele>
        <time>2018-11-26T21:49:50Z</time>
      </trkpt>
      <trkpt lat="42.13995" lon="2.37974">
        <ele>1032.8</ele>
        <time>2018-11-26T21:49:52Z</time>
      </trkpt>
      <trkpt lat="42.13992" lon="2.37978">
        <ele>1032.3</ele>
        <time>2018-11-26T21:49:54Z</time>
      </trkpt>
      <trkpt lat="42.13988" lon="2.37982">
        <ele>1032.2</ele>
        <time>2018-11-26T21:49:56Z</time>
      </trkpt>
      <trkpt lat="42.13986" lon="2.37988">
        <ele>1032.8</ele>
        <time>2018-11-26T21:49:58Z</time>
      </trkpt>
      <trkpt lat="42.1399" lon="2.37992">
        <ele>1032.5</ele>
        <time>2018-11-26T21:50:00Z</time>
      </trkpt>
      <trkpt lat="42.13986" lon="2.37995">
        <ele>1032.6</ele>
        <time>2018-11-26T21:50:02Z</time>
      </trkpt>
      <trkpt lat="42.13983" lon="2.38">
        <ele>1031</ele>
        <time>2018-11-26T21:50:04Z</time>
      </trkpt>
      <trkpt lat="42.13981" lon="2.38006">
        <ele>1028.8</ele>
        <time>2018-11-26T21:50:06Z</time>
      </trkpt>
      <trkpt lat="42.13978" lon="2.38011">
        <ele>1027.3</ele>
        <time>2018-11-26T21:50:08Z</time>
      </trkpt>
      <trkpt lat="42.13976" lon="2.38016">
        <ele>1024.7</ele>
        <time>2018-11-26T21:50:09Z</time>
      </trkpt>
      <trkpt lat="42.13973" lon="2.38021">
        <ele>1022.1</ele>
        <time>2018-11-26T21:50:11Z</time>
      </trkpt>
      <trkpt lat="42.13968" lon="2.38021">
        <ele>1021.6</ele>
        <time>2018-11-26T21:50:13Z</time>
      </trkpt>
      <trkpt lat="42.13964" lon="2.38024">
        <ele>1021.7</ele>
        <time>2018-11-26T21:50:15Z</time>
      </trkpt>
      <trkpt lat="42.13959" lon="2.38024">
        <ele>1021.8</ele>
        <time>2018-11-26T21:50:17Z</time>
      </trkpt>
      <trkpt lat="42.13954" lon="2.38024">
        <ele>1021.8</ele>
        <time>2018-11-26T21:50:19Z</time>
      </trkpt>
      <trkpt lat="42.13948" lon="2.38024">
        <ele>1022</ele>
        <time>2018-11-26T21:50:22Z</time>
      </trkpt>
      <trkpt lat="42.13943" lon="2.38025">
        <ele>1022.1</ele>
        <time>2018-11-26T21:50:24Z</time>
      </trkpt>
      <trkpt lat="42.13938" lon="2.38024">
        <ele>1022.2</ele>
        <time>2018-11-26T21:50:25Z</time>
      </trkpt>
      <trkpt lat="42.13934" lon="2.38027">
        <ele>1022.3</ele>
        <time>2018-11-26T21:50:27Z</time>
      </trkpt>
      <trkpt lat="42.13929" lon="2.38029">
        <ele>1022.4</ele>
        <time>2018-11-26T21:50:29Z</time>
      </trkpt>
      <trkpt lat="42.13925" lon="2.38034">
        <ele>1022.9</ele>
        <time>2018-11-26T21:50:31Z</time>
      </trkpt>
      <trkpt lat="42.13921" lon="2.38036">
        <ele>1023.3</ele>
        <time>2018-11-26T21:50:33Z</time>
      </trkpt>
      <trkpt lat="42.13916" lon="2.38039">
        <ele>1024.1</ele>
        <time>2018-11-26T21:50:35Z</time>
      </trkpt>
      <trkpt lat="42.13911" lon="2.38039">
        <ele>1024.7</ele>
        <time>2018-11-26T21:50:38Z</time>
      </trkpt>
      <trkpt lat="42.13906" lon="2.38038">
        <ele>1024.9</ele>
        <time>2018-11-26T21:50:40Z</time>
      </trkpt>
      <trkpt lat="42.139" lon="2.38038">
        <ele>1024.8</ele>
        <time>2018-11-26T21:50:42Z</time>
      </trkpt>
      <trkpt lat="42.13895" lon="2.3804">
        <ele>1025.1</ele>
        <time>2018-11-26T21:50:44Z</time>
      </trkpt>
      <trkpt lat="42.13889" lon="2.38042">
        <ele>1025.6</ele>
        <time>2018-11-26T21:50:46Z</time>
      </trkpt>
      <trkpt lat="42.13883" lon="2.38042">
        <ele>1025.9</ele>
        <time>2018-11-26T21:50:49Z</time>
      </trkpt>
      <trkpt lat="42.13878" lon="2.38043">
        <ele>1026.3</ele>
        <time>2018-11-26T21:50:51Z</time>
      </trkpt>
      <trkpt lat="42.13871" lon="2.38044">
        <ele>1026.8</ele>
        <time>2018-11-26T21:50:54Z</time>
      </trkpt>
      <trkpt lat="42.13866" lon="2.38045">
        <ele>1026.8</ele>
        <time>2018-11-26T21:50:56Z</time>
      </trkpt>
      <trkpt lat="42.13862" lon="2.38048">
        <ele>1026.3</ele>
        <time>2018-11-26T21:50:58Z</time>
      </trkpt>
      <trkpt lat="42.13859" lon="2.38052">
        <ele>1024.4</ele>
        <time>2018-11-26T21:50:59Z</time>
      </trkpt>
      <trkpt lat="42.13857" lon="2.38058">
        <ele>1021.7</ele>
        <time>2018-11-26T21:51:01Z</time>
      </trkpt>
      <trkpt lat="42.13854" lon="2.38063">
        <ele>1017.2</ele>
        <time>2018-11-26T21:51:03Z</time>
      </trkpt>
      <trkpt lat="42.1385" lon="2.38066">
        <ele>1015.8</ele>
        <time>2018-11-26T21:51:05Z</time>
      </trkpt>
      <trkpt lat="42.13814" lon="2.38102">
        <ele>1014.8</ele>
        <time>2018-11-26T21:51:23Z</time>
      </trkpt>
      <trkpt lat="42.13819" lon="2.38102">
        <ele>1014.9</ele>
        <time>2018-11-26T21:51:25Z</time>
      </trkpt>
      <trkpt lat="42.13825" lon="2.38101">
        <ele>1015.3</ele>
        <time>2018-11-26T21:51:27Z</time>
      </trkpt>
      <trkpt lat="42.1383" lon="2.38102">
        <ele>1015.6</ele>
        <time>2018-11-26T21:51:29Z</time>
      </trkpt>
      <trkpt lat="42.13835" lon="2.38102">
        <ele>1015.9</ele>
        <time>2018-11-26T21:51:31Z</time>
      </trkpt>
      <trkpt lat="42.1384" lon="2.38104">
        <ele>1016.6</ele>
        <time>2018-11-26T21:51:33Z</time>
      </trkpt>
      <trkpt lat="42.13845" lon="2.38104">
        <ele>1016.8</ele>
        <time>2018-11-26T21:51:35Z</time>
      </trkpt>
      <trkpt lat="42.13849" lon="2.38101">
        <ele>1016.5</ele>
        <time>2018-11-26T21:51:37Z</time>
      </trkpt>
      <trkpt lat="42.13854" lon="2.38103">
        <ele>1015.9</ele>
        <time>2018-11-26T21:51:39Z</time>
      </trkpt>
      <trkpt lat="42.13859" lon="2.38108">
        <ele>1016</ele>
        <time>2018-11-26T21:51:42Z</time>
      </trkpt>
      <trkpt lat="42.13865" lon="2.3811">
        <ele>1016.7</ele>
        <time>2018-11-26T21:51:44Z</time>
      </trkpt>
      <trkpt lat="42.13871" lon="2.38111">
        <ele>1017.8</ele>
        <time>2018-11-26T21:51:46Z</time>
      </trkpt>
      <trkpt lat="42.13876" lon="2.3811">
        <ele>1018.7</ele>
        <time>2018-11-26T21:51:48Z</time>
      </trkpt>
      <trkpt lat="42.1388" lon="2.38112">
        <ele>1020</ele>
        <time>2018-11-26T21:51:50Z</time>
      </trkpt>
      <trkpt lat="42.13885" lon="2.38114">
        <ele>1020.4</ele>
        <time>2018-11-26T21:51:52Z</time>
      </trkpt>
      <trkpt lat="42.13891" lon="2.38113">
        <ele>1021</ele>
        <time>2018-11-26T21:51:55Z</time>
      </trkpt>
      <trkpt lat="42.13896" lon="2.38116">
        <ele>1021.5</ele>
        <time>2018-11-26T21:51:57Z</time>
      </trkpt>
      <trkpt lat="42.139" lon="2.38119">
        <ele>1021.9</ele>
        <time>2018-11-26T21:51:59Z</time>
      </trkpt>
      <trkpt lat="42.13904" lon="2.38121">
        <ele>1021.7</ele>
        <time>2018-11-26T21:52:01Z</time>
      </trkpt>
      <trkpt lat="42.13909" lon="2.38122">
        <ele>1021.4</ele>
        <time>2018-11-26T21:52:02Z</time>
      </trkpt>
      <trkpt lat="42.13914" lon="2.38124">
        <ele>1021.8</ele>
        <time>2018-11-26T21:52:04Z</time>
      </trkpt>
      <trkpt lat="42.13918" lon="2.38122">
        <ele>1021.7</ele>
        <time>2018-11-26T21:52:06Z</time>
      </trkpt>
      <trkpt lat="42.13923" lon="2.38124">
        <ele>1021</ele>
        <time>2018-11-26T21:52:08Z</time>
      </trkpt>
      <trkpt lat="42.13928" lon="2.38126">
        <ele>1019.7</ele>
        <time>2018-11-26T21:52:10Z</time>
      </trkpt>
      <trkpt lat="42.13932" lon="2.38129">
        <ele>1017.8</ele>
        <time>2018-11-26T21:52:12Z</time>
      </trkpt>
      <trkpt lat="42.13936" lon="2.38133">
        <ele>1016.1</ele>
        <time>2018-11-26T21:52:14Z</time>
      </trkpt>
      <trkpt lat="42.1394" lon="2.38138">
        <ele>1014.8</ele>
        <time>2018-11-26T21:52:16Z</time>
      </trkpt>
      <trkpt lat="42.13944" lon="2.3814">
        <ele>1013.8</ele>
        <time>2018-11-26T21:52:18Z</time>
      </trkpt>
      <trkpt lat="42.13947" lon="2.38146">
        <ele>1011.8</ele>
        <time>2018-11-26T21:52:20Z</time>
      </trkpt>
      <trkpt lat="42.1395" lon="2.38151">
        <ele>1010.3</ele>
        <time>2018-11-26T21:52:22Z</time>
      </trkpt>
      <trkpt lat="42.13953" lon="2.38156">
        <ele>1008.3</ele>
        <time>2018-11-26T21:52:24Z</time>
      </trkpt>
      <trkpt lat="42.13957" lon="2.38158">
        <ele>1007</ele>
        <time>2018-11-26T21:52:26Z</time>
      </trkpt>
      <trkpt lat="42.13962" lon="2.38159">
        <ele>1006.5</ele>
        <time>2018-11-26T21:52:28Z</time>
      </trkpt>
      <trkpt lat="42.13967" lon="2.38163">
        <ele>1004.1</ele>
        <time>2018-11-26T21:52:30Z</time>
      </trkpt>
      <trkpt lat="42.13972" lon="2.38166">
        <ele>1004</ele>
        <time>2018-11-26T21:52:32Z</time>
      </trkpt>
      <trkpt lat="42.13977" lon="2.3817">
        <ele>1002.8</ele>
        <time>2018-11-26T21:52:34Z</time>
      </trkpt>
      <trkpt lat="42.13981" lon="2.38173">
        <ele>1002.2</ele>
        <time>2018-11-26T21:52:36Z</time>
      </trkpt>
      <trkpt lat="42.13988" lon="2.38176">
        <ele>1002.3</ele>
        <time>2018-11-26T21:52:39Z</time>
      </trkpt>
      <trkpt lat="42.13992" lon="2.38179">
        <ele>1001.6</ele>
        <time>2018-11-26T21:52:41Z</time>
      </trkpt>
      <trkpt lat="42.13997" lon="2.38179">
        <ele>999.8</ele>
        <time>2018-11-26T21:52:43Z</time>
      </trkpt>
      <trkpt lat="42.14001" lon="2.38178">
        <ele>999.6</ele>
        <time>2018-11-26T21:52:45Z</time>
      </trkpt>
      <trkpt lat="42.14006" lon="2.38175">
        <ele>998</ele>
        <time>2018-11-26T21:52:47Z</time>
      </trkpt>
      <trkpt lat="42.14005" lon="2.38182">
        <ele>997.6</ele>
        <time>2018-11-26T21:52:49Z</time>
      </trkpt>
      <trkpt lat="42.14" lon="2.38185">
        <ele>998.3</ele>
        <time>2018-11-26T21:52:51Z</time>
      </trkpt>
      <trkpt lat="42.13995" lon="2.38186">
        <ele>999.3</ele>
        <time>2018-11-26T21:52:53Z</time>
      </trkpt>
      <trkpt lat="42.13992" lon="2.38191">
        <ele>1001.6</ele>
        <time>2018-11-26T21:52:55Z</time>
      </trkpt>
      <trkpt lat="42.13989" lon="2.38196">
        <ele>1001.2</ele>
        <time>2018-11-26T21:52:57Z</time>
      </trkpt>
      <trkpt lat="42.13986" lon="2.38201">
        <ele>1000</ele>
        <time>2018-11-26T21:52:59Z</time>
      </trkpt>
      <trkpt lat="42.13984" lon="2.38207">
        <ele>998.9</ele>
        <time>2018-11-26T21:53:01Z</time>
      </trkpt>
      <trkpt lat="42.13981" lon="2.38212">
        <ele>997.8</ele>
        <time>2018-11-26T21:53:03Z</time>
      </trkpt>
      <trkpt lat="42.13981" lon="2.38218">
        <ele>996.5</ele>
        <time>2018-11-26T21:53:04Z</time>
      </trkpt>
      <trkpt lat="42.13978" lon="2.38224">
        <ele>995.5</ele>
        <time>2018-11-26T21:53:06Z</time>
      </trkpt>
      <trkpt lat="42.13977" lon="2.3823">
        <ele>995.2</ele>
        <time>2018-11-26T21:53:08Z</time>
      </trkpt>
      <trkpt lat="42.13974" lon="2.38235">
        <ele>995</ele>
        <time>2018-11-26T21:53:10Z</time>
      </trkpt>
      <trkpt lat="42.13971" lon="2.38239">
        <ele>994.7</ele>
        <time>2018-11-26T21:53:12Z</time>
      </trkpt>
      <trkpt lat="42.13967" lon="2.38245">
        <ele>993.9</ele>
        <time>2018-11-26T21:53:14Z</time>
      </trkpt>
      <trkpt lat="42.13966" lon="2.38253">
        <ele>993.1</ele>
        <time>2018-11-26T21:53:17Z</time>
      </trkpt>
      <trkpt lat="42.13961" lon="2.38256">
        <ele>992.8</ele>
        <time>2018-11-26T21:53:19Z</time>
      </trkpt>
      <trkpt lat="42.13963" lon="2.38263">
        <ele>991.7</ele>
        <time>2018-11-26T21:53:21Z</time>
      </trkpt>
      <trkpt lat="42.13957" lon="2.38263">
        <ele>991</ele>
        <time>2018-11-26T21:53:23Z</time>
      </trkpt>
      <trkpt lat="42.13955" lon="2.3827">
        <ele>989.1</ele>
        <time>2018-11-26T21:53:25Z</time>
      </trkpt>
      <trkpt lat="42.13953" lon="2.38277">
        <ele>988</ele>
        <time>2018-11-26T21:53:27Z</time>
      </trkpt>
      <trkpt lat="42.13953" lon="2.38284">
        <ele>988.1</ele>
        <time>2018-11-26T21:53:30Z</time>
      </trkpt>
      <trkpt lat="42.13952" lon="2.3829">
        <ele>987.8</ele>
        <time>2018-11-26T21:53:32Z</time>
      </trkpt>
      <trkpt lat="42.13951" lon="2.38298">
        <ele>987</ele>
        <time>2018-11-26T21:53:34Z</time>
      </trkpt>
      <trkpt lat="42.13953" lon="2.38304">
        <ele>986</ele>
        <time>2018-11-26T21:53:36Z</time>
      </trkpt>
      <trkpt lat="42.13956" lon="2.383">
        <ele>984.5</ele>
        <time>2018-11-26T21:53:38Z</time>
      </trkpt>
      <trkpt lat="42.13959" lon="2.38295">
        <ele>982.9</ele>
        <time>2018-11-26T21:53:40Z</time>
      </trkpt>
      <trkpt lat="42.13963" lon="2.38292">
        <ele>981.3</ele>
        <time>2018-11-26T21:53:41Z</time>
      </trkpt>
      <trkpt lat="42.13966" lon="2.38297">
        <ele>979.7</ele>
        <time>2018-11-26T21:53:43Z</time>
      </trkpt>
      <trkpt lat="42.13964" lon="2.38303">
        <ele>978</ele>
        <time>2018-11-26T21:53:45Z</time>
      </trkpt>
      <trkpt lat="42.13964" lon="2.38309">
        <ele>975.9</ele>
        <time>2018-11-26T21:53:47Z</time>
      </trkpt>
      <trkpt lat="42.13969" lon="2.3831">
        <ele>975.2</ele>
        <time>2018-11-26T21:53:49Z</time>
      </trkpt>
      <trkpt lat="42.13972" lon="2.38316">
        <ele>972.4</ele>
        <time>2018-11-26T21:53:51Z</time>
      </trkpt>
      <trkpt lat="42.13974" lon="2.38321">
        <ele>970.5</ele>
        <time>2018-11-26T21:53:53Z</time>
      </trkpt>
      <trkpt lat="42.13977" lon="2.38327">
        <ele>968.1</ele>
        <time>2018-11-26T21:53:55Z</time>
      </trkpt>
      <trkpt lat="42.13983" lon="2.38331">
        <ele>967.7</ele>
        <time>2018-11-26T21:53:58Z</time>
      </trkpt>
      <trkpt lat="42.13987" lon="2.38334">
        <ele>964.6</ele>
        <time>2018-11-26T21:54:00Z</time>
      </trkpt>
      <trkpt lat="42.1399" lon="2.38339">
        <ele>962.8</ele>
        <time>2018-11-26T21:54:02Z</time>
      </trkpt>
      <trkpt lat="42.13991" lon="2.38345">
        <ele>962.2</ele>
        <time>2018-11-26T21:54:04Z</time>
      </trkpt>
      <trkpt lat="42.13996" lon="2.38348">
        <ele>962</ele>
        <time>2018-11-26T21:54:06Z</time>
      </trkpt>
      <trkpt lat="42.13997" lon="2.38354">
        <ele>962.2</ele>
        <time>2018-11-26T21:54:07Z</time>
      </trkpt>
      <trkpt lat="42.13996" lon="2.38362">
        <ele>962.8</ele>
        <time>2018-11-26T21:54:10Z</time>
      </trkpt>
      <trkpt lat="42.13997" lon="2.38368">
        <ele>963</ele>
        <time>2018-11-26T21:54:12Z</time>
      </trkpt>
      <trkpt lat="42.13997" lon="2.38374">
        <ele>963.1</ele>
        <time>2018-11-26T21:54:13Z</time>
      </trkpt>
      <trkpt lat="42.13993" lon="2.38372">
        <ele>963.1</ele>
        <time>2018-11-26T21:54:15Z</time>
      </trkpt>
      <trkpt lat="42.13989" lon="2.38375">
        <ele>963.7</ele>
        <time>2018-11-26T21:54:17Z</time>
      </trkpt>
      <trkpt lat="42.13993" lon="2.38374">
        <ele>963.3</ele>
        <time>2018-11-26T21:54:19Z</time>
      </trkpt>
      <trkpt lat="42.13988" lon="2.38376">
        <ele>963.6</ele>
        <time>2018-11-26T21:54:21Z</time>
      </trkpt>
      <trkpt lat="42.13983" lon="2.38377">
        <ele>963.4</ele>
        <time>2018-11-26T21:54:23Z</time>
      </trkpt>
      <trkpt lat="42.13978" lon="2.38376">
        <ele>962.7</ele>
        <time>2018-11-26T21:54:25Z</time>
      </trkpt>
      <trkpt lat="42.13969" lon="2.38377">
        <ele>962</ele>
        <time>2018-11-26T21:54:29Z</time>
      </trkpt>
      <trkpt lat="42.13964" lon="2.38382">
        <ele>962</ele>
        <time>2018-11-26T21:54:31Z</time>
      </trkpt>
      <trkpt lat="42.13959" lon="2.38386">
        <ele>962.6</ele>
        <time>2018-11-26T21:54:34Z</time>
      </trkpt>
      <trkpt lat="42.13953" lon="2.38385">
        <ele>962.3</ele>
        <time>2018-11-26T21:54:36Z</time>
      </trkpt>
      <trkpt lat="42.13949" lon="2.38386">
        <ele>962.3</ele>
        <time>2018-11-26T21:54:38Z</time>
      </trkpt>
      <trkpt lat="42.13942" lon="2.38387">
        <ele>962.2</ele>
        <time>2018-11-26T21:54:41Z</time>
      </trkpt>
      <trkpt lat="42.13938" lon="2.38391">
        <ele>961.8</ele>
        <time>2018-11-26T21:54:43Z</time>
      </trkpt>
      <trkpt lat="42.13934" lon="2.38393">
        <ele>961.6</ele>
        <time>2018-11-26T21:54:45Z</time>
      </trkpt>
      <trkpt lat="42.13928" lon="2.38395">
        <ele>961.1</ele>
        <time>2018-11-26T21:54:47Z</time>
      </trkpt>
      <trkpt lat="42.13924" lon="2.38398">
        <ele>961</ele>
        <time>2018-11-26T21:54:49Z</time>
      </trkpt>
      <trkpt lat="42.13919" lon="2.38401">
        <ele>961</ele>
        <time>2018-11-26T21:54:51Z</time>
      </trkpt>
      <trkpt lat="42.13913" lon="2.38401">
        <ele>960.9</ele>
        <time>2018-11-26T21:54:53Z</time>
      </trkpt>
      <trkpt lat="42.13906" lon="2.38402">
        <ele>960.7</ele>
        <time>2018-11-26T21:54:56Z</time>
      </trkpt>
      <trkpt lat="42.13902" lon="2.38406">
        <ele>960.6</ele>
        <time>2018-11-26T21:54:58Z</time>
      </trkpt>
      <trkpt lat="42.13898" lon="2.38409">
        <ele>960.1</ele>
        <time>2018-11-26T21:55:00Z</time>
      </trkpt>
      <trkpt lat="42.13892" lon="2.38408">
        <ele>959</ele>
        <time>2018-11-26T21:55:02Z</time>
      </trkpt>
      <trkpt lat="42.13887" lon="2.38419">
        <ele>957</ele>
        <time>2018-11-26T21:55:06Z</time>
      </trkpt>
      <trkpt lat="42.13883" lon="2.38426">
        <ele>956</ele>
        <time>2018-11-26T21:55:09Z</time>
      </trkpt>
      <trkpt lat="42.13885" lon="2.38434">
        <ele>956</ele>
        <time>2018-11-26T21:55:11Z</time>
      </trkpt>
      <trkpt lat="42.13889" lon="2.38441">
        <ele>956</ele>
        <time>2018-11-26T21:55:14Z</time>
      </trkpt>
      <trkpt lat="42.13889" lon="2.38448">
        <ele>955</ele>
        <time>2018-11-26T21:55:16Z</time>
      </trkpt>
      <trkpt lat="42.1389" lon="2.38458">
        <ele>953</ele>
        <time>2018-11-26T21:55:19Z</time>
      </trkpt>
      <trkpt lat="42.13889" lon="2.38468">
        <ele>951</ele>
        <time>2018-11-26T21:55:22Z</time>
      </trkpt>
      <trkpt lat="42.13885" lon="2.38474">
        <ele>950</ele>
        <time>2018-11-26T21:55:24Z</time>
      </trkpt>
      <trkpt lat="42.13886" lon="2.38481">
        <ele>948</ele>
        <time>2018-11-26T21:55:26Z</time>
      </trkpt>
      <trkpt lat="42.13892" lon="2.38481">
        <ele>946.1</ele>
        <time>2018-11-26T21:55:29Z</time>
      </trkpt>
      <trkpt lat="42.139" lon="2.38478">
        <ele>944.1</ele>
        <time>2018-11-26T21:55:32Z</time>
      </trkpt>
      <trkpt lat="42.13905" lon="2.38477">
        <ele>943.2</ele>
        <time>2018-11-26T21:55:34Z</time>
      </trkpt>
      <trkpt lat="42.13909" lon="2.38475">
        <ele>941.8</ele>
        <time>2018-11-26T21:55:36Z</time>
      </trkpt>
      <trkpt lat="42.13914" lon="2.38475">
        <ele>940.3</ele>
        <time>2018-11-26T21:55:38Z</time>
      </trkpt>
      <trkpt lat="42.13918" lon="2.38477">
        <ele>939.1</ele>
        <time>2018-11-26T21:55:40Z</time>
      </trkpt>
      <trkpt lat="42.13923" lon="2.38474">
        <ele>937.6</ele>
        <time>2018-11-26T21:55:42Z</time>
      </trkpt>
      <trkpt lat="42.13927" lon="2.3847">
        <ele>936.4</ele>
        <time>2018-11-26T21:55:44Z</time>
      </trkpt>
      <trkpt lat="42.13932" lon="2.38469">
        <ele>934.5</ele>
        <time>2018-11-26T21:55:46Z</time>
      </trkpt>
      <trkpt lat="42.13955" lon="2.38495">
        <ele>920.7</ele>
        <time>2018-11-26T21:55:58Z</time>
      </trkpt>
      <trkpt lat="42.13953" lon="2.385">
        <ele>919.3</ele>
        <time>2018-11-26T21:55:59Z</time>
      </trkpt>
      <trkpt lat="42.13957" lon="2.38502">
        <ele>916.2</ele>
        <time>2018-11-26T21:56:01Z</time>
      </trkpt>
      <trkpt lat="42.13955" lon="2.38508">
        <ele>913.3</ele>
        <time>2018-11-26T21:56:03Z</time>
      </trkpt>
      <trkpt lat="42.13953" lon="2.38514">
        <ele>910.7</ele>
        <time>2018-11-26T21:56:05Z</time>
      </trkpt>
      <trkpt lat="42.13957" lon="2.38519">
        <ele>907.9</ele>
        <time>2018-11-26T21:56:07Z</time>
      </trkpt>
      <trkpt lat="42.13961" lon="2.38523">
        <ele>905.9</ele>
        <time>2018-11-26T21:56:09Z</time>
      </trkpt>
      <trkpt lat="42.13965" lon="2.38527">
        <ele>903.4</ele>
        <time>2018-11-26T21:56:11Z</time>
      </trkpt>
      <trkpt lat="42.1397" lon="2.3853">
        <ele>901.6</ele>
        <time>2018-11-26T21:56:14Z</time>
      </trkpt>
      <trkpt lat="42.13971" lon="2.38537">
        <ele>899.7</ele>
        <time>2018-11-26T21:56:16Z</time>
      </trkpt>
      <trkpt lat="42.13975" lon="2.38541">
        <ele>897.7</ele>
        <time>2018-11-26T21:56:18Z</time>
      </trkpt>
      <trkpt lat="42.13978" lon="2.38546">
        <ele>896.7</ele>
        <time>2018-11-26T21:56:20Z</time>
      </trkpt>
      <trkpt lat="42.13983" lon="2.38549">
        <ele>895.7</ele>
        <time>2018-11-26T21:56:22Z</time>
      </trkpt>
      <trkpt lat="42.13987" lon="2.38552">
        <ele>895</ele>
        <time>2018-11-26T21:56:24Z</time>
      </trkpt>
      <trkpt lat="42.13992" lon="2.38556">
        <ele>893.7</ele>
        <time>2018-11-26T21:56:26Z</time>
      </trkpt>
      <trkpt lat="42.13997" lon="2.38558">
        <ele>893.2</ele>
        <time>2018-11-26T21:56:28Z</time>
      </trkpt>
      <trkpt lat="42.14001" lon="2.38562">
        <ele>892.8</ele>
        <time>2018-11-26T21:56:30Z</time>
      </trkpt>
      <trkpt lat="42.14005" lon="2.38565">
        <ele>892</ele>
        <time>2018-11-26T21:56:32Z</time>
      </trkpt>
      <trkpt lat="42.1401" lon="2.38568">
        <ele>890.3</ele>
        <time>2018-11-26T21:56:34Z</time>
      </trkpt>
      <trkpt lat="42.14013" lon="2.38573">
        <ele>889.1</ele>
        <time>2018-11-26T21:56:36Z</time>
      </trkpt>
      <trkpt lat="42.14015" lon="2.38578">
        <ele>888.2</ele>
        <time>2018-11-26T21:56:38Z</time>
      </trkpt>
      <trkpt lat="42.14019" lon="2.38583">
        <ele>887.6</ele>
        <time>2018-11-26T21:56:40Z</time>
      </trkpt>
      <trkpt lat="42.14023" lon="2.38586">
        <ele>886.8</ele>
        <time>2018-11-26T21:56:42Z</time>
      </trkpt>
      <trkpt lat="42.14027" lon="2.3859">
        <ele>885.4</ele>
        <time>2018-11-26T21:56:44Z</time>
      </trkpt>
      <trkpt lat="42.14031" lon="2.38593">
        <ele>884</ele>
        <time>2018-11-26T21:56:46Z</time>
      </trkpt>
      <trkpt lat="42.14036" lon="2.38596">
        <ele>883</ele>
        <time>2018-11-26T21:56:48Z</time>
      </trkpt>
      <trkpt lat="42.14035" lon="2.38602">
        <ele>881</ele>
        <time>2018-11-26T21:56:50Z</time>
      </trkpt>
      <trkpt lat="42.14039" lon="2.38607">
        <ele>881.1</ele>
        <time>2018-11-26T21:56:51Z</time>
      </trkpt>
      <trkpt lat="42.14043" lon="2.3861">
        <ele>880.5</ele>
        <time>2018-11-26T21:56:54Z</time>
      </trkpt>
      <trkpt lat="42.14046" lon="2.38615">
        <ele>880</ele>
        <time>2018-11-26T21:56:55Z</time>
      </trkpt>
      <trkpt lat="42.14048" lon="2.38621">
        <ele>879.3</ele>
        <time>2018-11-26T21:56:57Z</time>
      </trkpt>
      <trkpt lat="42.1405" lon="2.38627">
        <ele>878.6</ele>
        <time>2018-11-26T21:56:59Z</time>
      </trkpt>
      <trkpt lat="42.14054" lon="2.38632">
        <ele>877.8</ele>
        <time>2018-11-26T21:57:01Z</time>
      </trkpt>
      <trkpt lat="42.14058" lon="2.38636">
        <ele>877.4</ele>
        <time>2018-11-26T21:57:03Z</time>
      </trkpt>
      <trkpt lat="42.1406" lon="2.38642">
        <ele>876.4</ele>
        <time>2018-11-26T21:57:05Z</time>
      </trkpt>
      <trkpt lat="42.14064" lon="2.38647">
        <ele>875.3</ele>
        <time>2018-11-26T21:57:08Z</time>
      </trkpt>
      <trkpt lat="42.14067" lon="2.38652">
        <ele>873.4</ele>
        <time>2018-11-26T21:57:10Z</time>
      </trkpt>
      <trkpt lat="42.14072" lon="2.38657">
        <ele>871.3</ele>
        <time>2018-11-26T21:57:12Z</time>
      </trkpt>
      <trkpt lat="42.14076" lon="2.3866">
        <ele>870.1</ele>
        <time>2018-11-26T21:57:14Z</time>
      </trkpt>
      <trkpt lat="42.14079" lon="2.38665">
        <ele>869.3</ele>
        <time>2018-11-26T21:57:16Z</time>
      </trkpt>
      <trkpt lat="42.14083" lon="2.3867">
        <ele>867.7</ele>
        <time>2018-11-26T21:57:18Z</time>
      </trkpt>
      <trkpt lat="42.14084" lon="2.38677">
        <ele>866.4</ele>
        <time>2018-11-26T21:57:20Z</time>
      </trkpt>
      <trkpt lat="42.14084" lon="2.38684">
        <ele>865.7</ele>
        <time>2018-11-26T21:57:22Z</time>
      </trkpt>
      <trkpt lat="42.14084" lon="2.3869">
        <ele>864.6</ele>
        <time>2018-11-26T21:57:24Z</time>
      </trkpt>
      <trkpt lat="42.14087" lon="2.38696">
        <ele>863.6</ele>
        <time>2018-11-26T21:57:26Z</time>
      </trkpt>
      <trkpt lat="42.14089" lon="2.38703">
        <ele>862.3</ele>
        <time>2018-11-26T21:57:28Z</time>
      </trkpt>
      <trkpt lat="42.14091" lon="2.38708">
        <ele>860.7</ele>
        <time>2018-11-26T21:57:30Z</time>
      </trkpt>
      <trkpt lat="42.14093" lon="2.38716">
        <ele>859.6</ele>
        <time>2018-11-26T21:57:32Z</time>
      </trkpt>
      <trkpt lat="42.14094" lon="2.38722">
        <ele>858.4</ele>
        <time>2018-11-26T21:57:34Z</time>
      </trkpt>
      <trkpt lat="42.14095" lon="2.38729">
        <ele>857.3</ele>
        <time>2018-11-26T21:57:36Z</time>
      </trkpt>
      <trkpt lat="42.14095" lon="2.38735">
        <ele>856.8</ele>
        <time>2018-11-26T21:57:38Z</time>
      </trkpt>
      <trkpt lat="42.14096" lon="2.38743">
        <ele>856.3</ele>
        <time>2018-11-26T21:57:40Z</time>
      </trkpt>
      <trkpt lat="42.14096" lon="2.3875">
        <ele>855.5</ele>
        <time>2018-11-26T21:57:42Z</time>
      </trkpt>
      <trkpt lat="42.14097" lon="2.38756">
        <ele>854.8</ele>
        <time>2018-11-26T21:57:44Z</time>
      </trkpt>
      <trkpt lat="42.14097" lon="2.38763">
        <ele>853.3</ele>
        <time>2018-11-26T21:57:47Z</time>
      </trkpt>
      <trkpt lat="42.14098" lon="2.38771">
        <ele>851.2</ele>
        <time>2018-11-26T21:57:49Z</time>
      </trkpt>
      <trkpt lat="42.14098" lon="2.38777">
        <ele>850.3</ele>
        <time>2018-11-26T21:57:51Z</time>
      </trkpt>
      <trkpt lat="42.141" lon="2.38784">
        <ele>849.1</ele>
        <time>2018-11-26T21:57:53Z</time>
      </trkpt>
      <trkpt lat="42.14101" lon="2.3879">
        <ele>848.3</ele>
        <time>2018-11-26T21:57:55Z</time>
      </trkpt>
      <trkpt lat="42.141" lon="2.38796">
        <ele>847.5</ele>
        <time>2018-11-26T21:57:57Z</time>
      </trkpt>
      <trkpt lat="42.141" lon="2.38803">
        <ele>846.8</ele>
        <time>2018-11-26T21:57:59Z</time>
      </trkpt>
      <trkpt lat="42.141" lon="2.38811">
        <ele>845.7</ele>
        <time>2018-11-26T21:58:01Z</time>
      </trkpt>
      <trkpt lat="42.14101" lon="2.38818">
        <ele>844.9</ele>
        <time>2018-11-26T21:58:03Z</time>
      </trkpt>
      <trkpt lat="42.14104" lon="2.38824">
        <ele>843.9</ele>
        <time>2018-11-26T21:58:05Z</time>
      </trkpt>
      <trkpt lat="42.14105" lon="2.3883">
        <ele>843.3</ele>
        <time>2018-11-26T21:58:07Z</time>
      </trkpt>
      <trkpt lat="42.14108" lon="2.38837">
        <ele>842.2</ele>
        <time>2018-11-26T21:58:10Z</time>
      </trkpt>
      <trkpt lat="42.14109" lon="2.38844">
        <ele>841</ele>
        <time>2018-11-26T21:58:12Z</time>
      </trkpt>
      <trkpt lat="42.14112" lon="2.38849">
        <ele>840.8</ele>
        <time>2018-11-26T21:58:14Z</time>
      </trkpt>
      <trkpt lat="42.14114" lon="2.38856">
        <ele>839.6</ele>
        <time>2018-11-26T21:58:16Z</time>
      </trkpt>
      <trkpt lat="42.14116" lon="2.38861">
        <ele>838.4</ele>
        <time>2018-11-26T21:58:18Z</time>
      </trkpt>
      <trkpt lat="42.1412" lon="2.38866">
        <ele>837.3</ele>
        <time>2018-11-26T21:58:20Z</time>
      </trkpt>
      <trkpt lat="42.14121" lon="2.38873">
        <ele>836.4</ele>
        <time>2018-11-26T21:58:22Z</time>
      </trkpt>
      <trkpt lat="42.14122" lon="2.38879">
        <ele>835.3</ele>
        <time>2018-11-26T21:58:24Z</time>
      </trkpt>
      <trkpt lat="42.14124" lon="2.38884">
        <ele>834.1</ele>
        <time>2018-11-26T21:58:26Z</time>
      </trkpt>
      <trkpt lat="42.14124" lon="2.38891">
        <ele>833</ele>
        <time>2018-11-26T21:58:28Z</time>
      </trkpt>
      <trkpt lat="42.14125" lon="2.38898">
        <ele>832.7</ele>
        <time>2018-11-26T21:58:30Z</time>
      </trkpt>
      <trkpt lat="42.14126" lon="2.38904">
        <ele>832.4</ele>
        <time>2018-11-26T21:58:32Z</time>
      </trkpt>
      <trkpt lat="42.14128" lon="2.38911">
        <ele>832.6</ele>
        <time>2018-11-26T21:58:34Z</time>
      </trkpt>
      <trkpt lat="42.14129" lon="2.38918">
        <ele>832.2</ele>
        <time>2018-11-26T21:58:36Z</time>
      </trkpt>
      <trkpt lat="42.14131" lon="2.38924">
        <ele>831.9</ele>
        <time>2018-11-26T21:58:38Z</time>
      </trkpt>
      <trkpt lat="42.14134" lon="2.38931">
        <ele>831.1</ele>
        <time>2018-11-26T21:58:40Z</time>
      </trkpt>
      <trkpt lat="42.14135" lon="2.38937">
        <ele>830.8</ele>
        <time>2018-11-26T21:58:42Z</time>
      </trkpt>
      <trkpt lat="42.14137" lon="2.38943">
        <ele>830.6</ele>
        <time>2018-11-26T21:58:44Z</time>
      </trkpt>
      <trkpt lat="42.14138" lon="2.38951">
        <ele>829.6</ele>
        <time>2018-11-26T21:58:46Z</time>
      </trkpt>
      <trkpt lat="42.14141" lon="2.38957">
        <ele>829.2</ele>
        <time>2018-11-26T21:58:48Z</time>
      </trkpt>
      <trkpt lat="42.14142" lon="2.38965">
        <ele>828.6</ele>
        <time>2018-11-26T21:58:51Z</time>
      </trkpt>
      <trkpt lat="42.14139" lon="2.3897">
        <ele>828.3</ele>
        <time>2018-11-26T21:58:53Z</time>
      </trkpt>
      <trkpt lat="42.14136" lon="2.38975">
        <ele>828.3</ele>
        <time>2018-11-26T21:58:55Z</time>
      </trkpt>
      <trkpt lat="42.14132" lon="2.3898">
        <ele>828.1</ele>
        <time>2018-11-26T21:58:57Z</time>
      </trkpt>
      <trkpt lat="42.14128" lon="2.38985">
        <ele>827.8</ele>
        <time>2018-11-26T21:58:59Z</time>
      </trkpt>
      <trkpt lat="42.1413" lon="2.38992">
        <ele>827.2</ele>
        <time>2018-11-26T21:59:01Z</time>
      </trkpt>
      <trkpt lat="42.14129" lon="2.38999">
        <ele>826.8</ele>
        <time>2018-11-26T21:59:03Z</time>
      </trkpt>
      <trkpt lat="42.14129" lon="2.39005">
        <ele>826.2</ele>
        <time>2018-11-26T21:59:05Z</time>
      </trkpt>
      <trkpt lat="42.14128" lon="2.39012">
        <ele>824.8</ele>
        <time>2018-11-26T21:59:07Z</time>
      </trkpt>
      <trkpt lat="42.14129" lon="2.39019">
        <ele>823.5</ele>
        <time>2018-11-26T21:59:09Z</time>
      </trkpt>
      <trkpt lat="42.14132" lon="2.39024">
        <ele>823</ele>
        <time>2018-11-26T21:59:11Z</time>
      </trkpt>
      <trkpt lat="42.14136" lon="2.39028">
        <ele>822.4</ele>
        <time>2018-11-26T21:59:13Z</time>
      </trkpt>
      <trkpt lat="42.1414" lon="2.39032">
        <ele>821.2</ele>
        <time>2018-11-26T21:59:15Z</time>
      </trkpt>
      <trkpt lat="42.14144" lon="2.39036">
        <ele>819.9</ele>
        <time>2018-11-26T21:59:17Z</time>
      </trkpt>
      <trkpt lat="42.14146" lon="2.39042">
        <ele>819</ele>
        <time>2018-11-26T21:59:19Z</time>
      </trkpt>
      <trkpt lat="42.14146" lon="2.39048">
        <ele>817.5</ele>
        <time>2018-11-26T21:59:21Z</time>
      </trkpt>
      <trkpt lat="42.14147" lon="2.39054">
        <ele>815.9</ele>
        <time>2018-11-26T21:59:23Z</time>
      </trkpt>
      <trkpt lat="42.14145" lon="2.39061">
        <ele>814.6</ele>
        <time>2018-11-26T21:59:25Z</time>
      </trkpt>
      <trkpt lat="42.14144" lon="2.39067">
        <ele>814</ele>
        <time>2018-11-26T21:59:26Z</time>
      </trkpt>
      <trkpt lat="42.14141" lon="2.39073">
        <ele>812.7</ele>
        <time>2018-11-26T21:59:29Z</time>
      </trkpt>
      <trkpt lat="42.14139" lon="2.3908">
        <ele>811.6</ele>
        <time>2018-11-26T21:59:31Z</time>
      </trkpt>
      <trkpt lat="42.14135" lon="2.39085">
        <ele>811</ele>
        <time>2018-11-26T21:59:33Z</time>
      </trkpt>
      <trkpt lat="42.14132" lon="2.3909">
        <ele>810.1</ele>
        <time>2018-11-26T21:59:35Z</time>
      </trkpt>
      <trkpt lat="42.1413" lon="2.39097">
        <ele>809.2</ele>
        <time>2018-11-26T21:59:37Z</time>
      </trkpt>
      <trkpt lat="42.14128" lon="2.39102">
        <ele>808.1</ele>
        <time>2018-11-26T21:59:39Z</time>
      </trkpt>
      <trkpt lat="42.14126" lon="2.39109">
        <ele>807.2</ele>
        <time>2018-11-26T21:59:41Z</time>
      </trkpt>
      <trkpt lat="42.14125" lon="2.39116">
        <ele>806.6</ele>
        <time>2018-11-26T21:59:43Z</time>
      </trkpt>
      <trkpt lat="42.14126" lon="2.39122">
        <ele>806.3</ele>
        <time>2018-11-26T21:59:45Z</time>
      </trkpt>
      <trkpt lat="42.14128" lon="2.39129">
        <ele>805.9</ele>
        <time>2018-11-26T21:59:47Z</time>
      </trkpt>
      <trkpt lat="42.14131" lon="2.39134">
        <ele>805.1</ele>
        <time>2018-11-26T21:59:49Z</time>
      </trkpt>
      <trkpt lat="42.14127" lon="2.39129">
        <ele>805</ele>
        <time>2018-11-26T21:59:51Z</time>
      </trkpt>
      <trkpt lat="42.14133" lon="2.39132">
        <ele>805.6</ele>
        <time>2018-11-26T21:59:53Z</time>
      </trkpt>
      <trkpt lat="42.14136" lon="2.39136">
        <ele>805</ele>
        <time>2018-11-26T21:59:55Z</time>
      </trkpt>
      <trkpt lat="42.14139" lon="2.39142">
        <ele>804.4</ele>
        <time>2018-11-26T21:59:57Z</time>
      </trkpt>
      <trkpt lat="42.14143" lon="2.39146">
        <ele>803.8</ele>
        <time>2018-11-26T21:59:59Z</time>
      </trkpt>
      <trkpt lat="42.14147" lon="2.3915">
        <ele>803</ele>
        <time>2018-11-26T22:00:01Z</time>
      </trkpt>
      <trkpt lat="42.14151" lon="2.39151">
        <ele>802.3</ele>
        <time>2018-11-26T22:00:03Z</time>
      </trkpt>
      <trkpt lat="42.14157" lon="2.39152">
        <ele>801</ele>
        <time>2018-11-26T22:00:06Z</time>
      </trkpt>
      <trkpt lat="42.14162" lon="2.39149">
        <ele>800.3</ele>
        <time>2018-11-26T22:00:08Z</time>
      </trkpt>
      <trkpt lat="42.14168" lon="2.39147">
        <ele>799.8</ele>
        <time>2018-11-26T22:00:10Z</time>
      </trkpt>
      <trkpt lat="42.14173" lon="2.39143">
        <ele>798.9</ele>
        <time>2018-11-26T22:00:12Z</time>
      </trkpt>
      <trkpt lat="42.14176" lon="2.3914">
        <ele>798.2</ele>
        <time>2018-11-26T22:00:14Z</time>
      </trkpt>
      <trkpt lat="42.1418" lon="2.39135">
        <ele>797.2</ele>
        <time>2018-11-26T22:00:16Z</time>
      </trkpt>
      <trkpt lat="42.14185" lon="2.39131">
        <ele>796.5</ele>
        <time>2018-11-26T22:00:19Z</time>
      </trkpt>
      <trkpt lat="42.1419" lon="2.39125">
        <ele>796.3</ele>
        <time>2018-11-26T22:00:21Z</time>
      </trkpt>
      <trkpt lat="42.14192" lon="2.39121">
        <ele>795.8</ele>
        <time>2018-11-26T22:00:23Z</time>
      </trkpt>
      <trkpt lat="42.14196" lon="2.39116">
        <ele>795.5</ele>
        <time>2018-11-26T22:00:25Z</time>
      </trkpt>
      <trkpt lat="42.142" lon="2.39119">
        <ele>794.5</ele>
        <time>2018-11-26T22:00:26Z</time>
      </trkpt>
      <trkpt lat="42.14197" lon="2.39125">
        <ele>793.3</ele>
        <time>2018-11-26T22:00:29Z</time>
      </trkpt>
      <trkpt lat="42.14196" lon="2.39131">
        <ele>792.4</ele>
        <time>2018-11-26T22:00:31Z</time>
      </trkpt>
      <trkpt lat="42.14193" lon="2.39136">
        <ele>792</ele>
        <time>2018-11-26T22:00:32Z</time>
      </trkpt>
      <trkpt lat="42.14193" lon="2.39143">
        <ele>791</ele>
        <time>2018-11-26T22:00:34Z</time>
      </trkpt>
      <trkpt lat="42.14193" lon="2.39149">
        <ele>790.3</ele>
        <time>2018-11-26T22:00:36Z</time>
      </trkpt>
      <trkpt lat="42.14192" lon="2.39156">
        <ele>789.3</ele>
        <time>2018-11-26T22:00:38Z</time>
      </trkpt>
      <trkpt lat="42.14191" lon="2.39163">
        <ele>788.3</ele>
        <time>2018-11-26T22:00:40Z</time>
      </trkpt>
      <trkpt lat="42.1419" lon="2.3917">
        <ele>787.8</ele>
        <time>2018-11-26T22:00:43Z</time>
      </trkpt>
      <trkpt lat="42.14188" lon="2.39177">
        <ele>786.6</ele>
        <time>2018-11-26T22:00:45Z</time>
      </trkpt>
      <trkpt lat="42.14186" lon="2.39184">
        <ele>786.2</ele>
        <time>2018-11-26T22:00:47Z</time>
      </trkpt>
      <trkpt lat="42.14183" lon="2.3919">
        <ele>785.4</ele>
        <time>2018-11-26T22:00:49Z</time>
      </trkpt>
      <trkpt lat="42.14178" lon="2.39198">
        <ele>784</ele>
        <time>2018-11-26T22:00:52Z</time>
      </trkpt>
      <trkpt lat="42.14174" lon="2.39203">
        <ele>783</ele>
        <time>2018-11-26T22:00:55Z</time>
      </trkpt>
      <trkpt lat="42.14169" lon="2.39207">
        <ele>782.7</ele>
        <time>2018-11-26T22:00:57Z</time>
      </trkpt>
      <trkpt lat="42.14164" lon="2.3921">
        <ele>782.3</ele>
        <time>2018-11-26T22:00:59Z</time>
      </trkpt>
      <trkpt lat="42.1416" lon="2.39215">
        <ele>781</ele>
        <time>2018-11-26T22:01:01Z</time>
      </trkpt>
      <trkpt lat="42.14155" lon="2.39217">
        <ele>779.9</ele>
        <time>2018-11-26T22:01:03Z</time>
      </trkpt>
      <trkpt lat="42.1415" lon="2.3922">
        <ele>779.1</ele>
        <time>2018-11-26T22:01:05Z</time>
      </trkpt>
      <trkpt lat="42.14146" lon="2.39225">
        <ele>778.2</ele>
        <time>2018-11-26T22:01:07Z</time>
      </trkpt>
      <trkpt lat="42.14142" lon="2.39227">
        <ele>777.7</ele>
        <time>2018-11-26T22:01:10Z</time>
      </trkpt>
      <trkpt lat="42.14137" lon="2.39231">
        <ele>777.1</ele>
        <time>2018-11-26T22:01:12Z</time>
      </trkpt>
      <trkpt lat="42.14134" lon="2.39237">
        <ele>776.2</ele>
        <time>2018-11-26T22:01:14Z</time>
      </trkpt>
      <trkpt lat="42.1413" lon="2.39239">
        <ele>775.8</ele>
        <time>2018-11-26T22:01:16Z</time>
      </trkpt>
      <trkpt lat="42.14126" lon="2.39242">
        <ele>775.2</ele>
        <time>2018-11-26T22:01:17Z</time>
      </trkpt>
      <trkpt lat="42.14121" lon="2.39245">
        <ele>774.3</ele>
        <time>2018-11-26T22:01:19Z</time>
      </trkpt>
      <trkpt lat="42.14117" lon="2.39249">
        <ele>773.5</ele>
        <time>2018-11-26T22:01:21Z</time>
      </trkpt>
      <trkpt lat="42.14114" lon="2.39255">
        <ele>772.5</ele>
        <time>2018-11-26T22:01:24Z</time>
      </trkpt>
      <trkpt lat="42.14114" lon="2.39261">
        <ele>772</ele>
        <time>2018-11-26T22:01:25Z</time>
      </trkpt>
      <trkpt lat="42.14108" lon="2.39262">
        <ele>771.6</ele>
        <time>2018-11-26T22:01:28Z</time>
      </trkpt>
      <trkpt lat="42.14105" lon="2.39265">
        <ele>771.4</ele>
        <time>2018-11-26T22:01:29Z</time>
      </trkpt>
      <trkpt lat="42.14099" lon="2.39267">
        <ele>770.4</ele>
        <time>2018-11-26T22:01:32Z</time>
      </trkpt>
      <trkpt lat="42.14095" lon="2.39271">
        <ele>769.6</ele>
        <time>2018-11-26T22:01:34Z</time>
      </trkpt>
      <trkpt lat="42.14092" lon="2.39276">
        <ele>768.4</ele>
        <time>2018-11-26T22:01:36Z</time>
      </trkpt>
      <trkpt lat="42.14086" lon="2.3928">
        <ele>767.5</ele>
        <time>2018-11-26T22:01:38Z</time>
      </trkpt>
      <trkpt lat="42.14081" lon="2.39282">
        <ele>767.2</ele>
        <time>2018-11-26T22:01:40Z</time>
      </trkpt>
      <trkpt lat="42.14076" lon="2.39282">
        <ele>766.9</ele>
        <time>2018-11-26T22:01:42Z</time>
      </trkpt>
      <trkpt lat="42.14071" lon="2.39284">
        <ele>766.3</ele>
        <time>2018-11-26T22:01:44Z</time>
      </trkpt>
      <trkpt lat="42.1407" lon="2.3929">
        <ele>766.5</ele>
        <time>2018-11-26T22:01:46Z</time>
      </trkpt>
      <trkpt lat="42.14065" lon="2.39288">
        <ele>766.8</ele>
        <time>2018-11-26T22:01:48Z</time>
      </trkpt>
      <trkpt lat="42.1406" lon="2.39289">
        <ele>766.7</ele>
        <time>2018-11-26T22:01:50Z</time>
      </trkpt>
      <trkpt lat="42.14055" lon="2.3929">
        <ele>765.9</ele>
        <time>2018-11-26T22:01:52Z</time>
      </trkpt>
      <trkpt lat="42.1405" lon="2.39293">
        <ele>765.2</ele>
        <time>2018-11-26T22:01:54Z</time>
      </trkpt>
      <trkpt lat="42.14047" lon="2.39297">
        <ele>764.6</ele>
        <time>2018-11-26T22:01:56Z</time>
      </trkpt>
      <trkpt lat="42.14042" lon="2.39299">
        <ele>763.3</ele>
        <time>2018-11-26T22:01:58Z</time>
      </trkpt>
      <trkpt lat="42.14038" lon="2.39302">
        <ele>762</ele>
        <time>2018-11-26T22:02:00Z</time>
      </trkpt>
      <trkpt lat="42.14035" lon="2.39306">
        <ele>761.3</ele>
        <time>2018-11-26T22:02:02Z</time>
      </trkpt>
      <trkpt lat="42.14031" lon="2.39309">
        <ele>760.8</ele>
        <time>2018-11-26T22:02:04Z</time>
      </trkpt>
      <trkpt lat="42.14028" lon="2.39315">
        <ele>760.1</ele>
        <time>2018-11-26T22:02:06Z</time>
      </trkpt>
      <trkpt lat="42.14025" lon="2.3932">
        <ele>759.3</ele>
        <time>2018-11-26T22:02:08Z</time>
      </trkpt>
      <trkpt lat="42.1402" lon="2.39324">
        <ele>759</ele>
        <time>2018-11-26T22:02:10Z</time>
      </trkpt>
      <trkpt lat="42.14016" lon="2.39328">
        <ele>758.5</ele>
        <time>2018-11-26T22:02:12Z</time>
      </trkpt>
      <trkpt lat="42.14012" lon="2.39333">
        <ele>758.2</ele>
        <time>2018-11-26T22:02:14Z</time>
      </trkpt>
      <trkpt lat="42.14008" lon="2.39338">
        <ele>757.7</ele>
        <time>2018-11-26T22:02:16Z</time>
      </trkpt>
      <trkpt lat="42.14005" lon="2.39342">
        <ele>757.8</ele>
        <time>2018-11-26T22:02:18Z</time>
      </trkpt>
      <trkpt lat="42.14" lon="2.39346">
        <ele>757.8</ele>
        <time>2018-11-26T22:02:21Z</time>
      </trkpt>
      <trkpt lat="42.13995" lon="2.39351">
        <ele>757.3</ele>
        <time>2018-11-26T22:02:23Z</time>
      </trkpt>
      <trkpt lat="42.13991" lon="2.39357">
        <ele>755.9</ele>
        <time>2018-11-26T22:02:25Z</time>
      </trkpt>
      <trkpt lat="42.13987" lon="2.3936">
        <ele>755.2</ele>
        <time>2018-11-26T22:02:27Z</time>
      </trkpt>
      <trkpt lat="42.13984" lon="2.39364">
        <ele>755</ele>
        <time>2018-11-26T22:02:29Z</time>
      </trkpt>
      <trkpt lat="42.13987" lon="2.3937">
        <ele>754.9</ele>
        <time>2018-11-26T22:02:31Z</time>
      </trkpt>
      <trkpt lat="42.1399" lon="2.39375">
        <ele>754.5</ele>
        <time>2018-11-26T22:02:33Z</time>
      </trkpt>
      <trkpt lat="42.13992" lon="2.39381">
        <ele>753.5</ele>
        <time>2018-11-26T22:02:35Z</time>
      </trkpt>
      <trkpt lat="42.13994" lon="2.39388">
        <ele>752.9</ele>
        <time>2018-11-26T22:02:37Z</time>
      </trkpt>
      <trkpt lat="42.13994" lon="2.39394">
        <ele>752.8</ele>
        <time>2018-11-26T22:02:39Z</time>
      </trkpt>
      <trkpt lat="42.13994" lon="2.39401">
        <ele>752.2</ele>
        <time>2018-11-26T22:02:41Z</time>
      </trkpt>
      <trkpt lat="42.13999" lon="2.39406">
        <ele>751.7</ele>
        <time>2018-11-26T22:02:43Z</time>
      </trkpt>
      <trkpt lat="42.14003" lon="2.3941">
        <ele>751.1</ele>
        <time>2018-11-26T22:02:46Z</time>
      </trkpt>
      <trkpt lat="42.14003" lon="2.39417">
        <ele>751.1</ele>
        <time>2018-11-26T22:02:47Z</time>
      </trkpt>
      <trkpt lat="42.14008" lon="2.39421">
        <ele>750.8</ele>
        <time>2018-11-26T22:02:50Z</time>
      </trkpt>
      <trkpt lat="42.14013" lon="2.39419">
        <ele>751</ele>
        <time>2018-11-26T22:02:52Z</time>
      </trkpt>
      <trkpt lat="42.14017" lon="2.39421">
        <ele>751</ele>
        <time>2018-11-26T22:02:54Z</time>
      </trkpt>
      <trkpt lat="42.14022" lon="2.39422">
        <ele>750.8</ele>
        <time>2018-11-26T22:02:56Z</time>
      </trkpt>
      <trkpt lat="42.14026" lon="2.39419">
        <ele>751.2</ele>
        <time>2018-11-26T22:02:58Z</time>
      </trkpt>
      <trkpt lat="42.14023" lon="2.39424">
        <ele>752.3</ele>
        <time>2018-11-26T22:03:00Z</time>
      </trkpt>
      <trkpt lat="42.14023" lon="2.39432">
        <ele>754.2</ele>
        <time>2018-11-26T22:03:02Z</time>
      </trkpt>
      <trkpt lat="42.14024" lon="2.39439">
        <ele>754.4</ele>
        <time>2018-11-26T22:03:04Z</time>
      </trkpt>
      <trkpt lat="42.14027" lon="2.39444">
        <ele>754.7</ele>
        <time>2018-11-26T22:03:06Z</time>
      </trkpt>
      <trkpt lat="42.14032" lon="2.39447">
        <ele>753.7</ele>
        <time>2018-11-26T22:03:08Z</time>
      </trkpt>
      <trkpt lat="42.14036" lon="2.3945">
        <ele>752.8</ele>
        <time>2018-11-26T22:03:10Z</time>
      </trkpt>
      <trkpt lat="42.14042" lon="2.39453">
        <ele>752.8</ele>
        <time>2018-11-26T22:03:13Z</time>
      </trkpt>
      <trkpt lat="42.14046" lon="2.39457">
        <ele>752.8</ele>
        <time>2018-11-26T22:03:15Z</time>
      </trkpt>
      <trkpt lat="42.14051" lon="2.3946">
        <ele>753</ele>
        <time>2018-11-26T22:03:17Z</time>
      </trkpt>
      <trkpt lat="42.14055" lon="2.39461">
        <ele>753.4</ele>
        <time>2018-11-26T22:03:19Z</time>
      </trkpt>
      <trkpt lat="42.1406" lon="2.39464">
        <ele>753.6</ele>
        <time>2018-11-26T22:03:21Z</time>
      </trkpt>
      <trkpt lat="42.14065" lon="2.39467">
        <ele>754.3</ele>
        <time>2018-11-26T22:03:23Z</time>
      </trkpt>
      <trkpt lat="42.14069" lon="2.39471">
        <ele>754.2</ele>
        <time>2018-11-26T22:03:25Z</time>
      </trkpt>
      <trkpt lat="42.14074" lon="2.39474">
        <ele>754.3</ele>
        <time>2018-11-26T22:03:27Z</time>
      </trkpt>
      <trkpt lat="42.14078" lon="2.39478">
        <ele>754</ele>
        <time>2018-11-26T22:03:29Z</time>
      </trkpt>
      <trkpt lat="42.14082" lon="2.39483">
        <ele>753.2</ele>
        <time>2018-11-26T22:03:31Z</time>
      </trkpt>
      <trkpt lat="42.14085" lon="2.39487">
        <ele>752.5</ele>
        <time>2018-11-26T22:03:33Z</time>
      </trkpt>
      <trkpt lat="42.14087" lon="2.39495">
        <ele>751.9</ele>
        <time>2018-11-26T22:03:35Z</time>
      </trkpt>
      <trkpt lat="42.14092" lon="2.39499">
        <ele>751.1</ele>
        <time>2018-11-26T22:03:38Z</time>
      </trkpt>
      <trkpt lat="42.14096" lon="2.39503">
        <ele>750.6</ele>
        <time>2018-11-26T22:03:40Z</time>
      </trkpt>
      <trkpt lat="42.14101" lon="2.39505">
        <ele>750.1</ele>
        <time>2018-11-26T22:03:42Z</time>
      </trkpt>
      <trkpt lat="42.14105" lon="2.39509">
        <ele>750.1</ele>
        <time>2018-11-26T22:03:44Z</time>
      </trkpt>
      <trkpt lat="42.14108" lon="2.39514">
        <ele>750</ele>
        <time>2018-11-26T22:03:46Z</time>
      </trkpt>
      <trkpt lat="42.14112" lon="2.39519">
        <ele>750.2</ele>
        <time>2018-11-26T22:03:48Z</time>
      </trkpt>
      <trkpt lat="42.14114" lon="2.39524">
        <ele>750.3</ele>
        <time>2018-11-26T22:03:50Z</time>
      </trkpt>
      <trkpt lat="42.14118" lon="2.3953">
        <ele>751</ele>
        <time>2018-11-26T22:03:52Z</time>
      </trkpt>
      <trkpt lat="42.14119" lon="2.39536">
        <ele>751.2</ele>
        <time>2018-11-26T22:03:54Z</time>
      </trkpt>
      <trkpt lat="42.14123" lon="2.3954">
        <ele>750.9</ele>
        <time>2018-11-26T22:03:56Z</time>
      </trkpt>
      <trkpt lat="42.14126" lon="2.39547">
        <ele>751.3</ele>
        <time>2018-11-26T22:03:58Z</time>
      </trkpt>
      <trkpt lat="42.1413" lon="2.3955">
        <ele>751.7</ele>
        <time>2018-11-26T22:04:00Z</time>
      </trkpt>
      <trkpt lat="42.14135" lon="2.3955">
        <ele>750.7</ele>
        <time>2018-11-26T22:04:02Z</time>
      </trkpt>
      <trkpt lat="42.1414" lon="2.39553">
        <ele>750.1</ele>
        <time>2018-11-26T22:04:04Z</time>
      </trkpt>
      <trkpt lat="42.14144" lon="2.39556">
        <ele>749.8</ele>
        <time>2018-11-26T22:04:06Z</time>
      </trkpt>
      <trkpt lat="42.14147" lon="2.39561">
        <ele>749.6</ele>
        <time>2018-11-26T22:04:08Z</time>
      </trkpt>
      <trkpt lat="42.14151" lon="2.39565">
        <ele>749.2</ele>
        <time>2018-11-26T22:04:10Z</time>
      </trkpt>
      <trkpt lat="42.14156" lon="2.39567">
        <ele>749</ele>
        <time>2018-11-26T22:04:12Z</time>
      </trkpt>
      <trkpt lat="42.14161" lon="2.39566">
        <ele>749.1</ele>
        <time>2018-11-26T22:04:14Z</time>
      </trkpt>
      <trkpt lat="42.14165" lon="2.39569">
        <ele>749.5</ele>
        <time>2018-11-26T22:04:16Z</time>
      </trkpt>
      <trkpt lat="42.14165" lon="2.39576">
        <ele>750.1</ele>
        <time>2018-11-26T22:04:18Z</time>
      </trkpt>
      <trkpt lat="42.14163" lon="2.39582">
        <ele>750.4</ele>
        <time>2018-11-26T22:04:20Z</time>
      </trkpt>
      <trkpt lat="42.14162" lon="2.3959">
        <ele>750.1</ele>
        <time>2018-11-26T22:04:22Z</time>
      </trkpt>
      <trkpt lat="42.14161" lon="2.39596">
        <ele>749.6</ele>
        <time>2018-11-26T22:04:24Z</time>
      </trkpt>
      <trkpt lat="42.14157" lon="2.396">
        <ele>749</ele>
        <time>2018-11-26T22:04:26Z</time>
      </trkpt>
      <trkpt lat="42.14153" lon="2.39604">
        <ele>749</ele>
        <time>2018-11-26T22:04:28Z</time>
      </trkpt>
      <trkpt lat="42.1415" lon="2.3961">
        <ele>748.6</ele>
        <time>2018-11-26T22:04:30Z</time>
      </trkpt>
      <trkpt lat="42.14148" lon="2.39615">
        <ele>747.4</ele>
        <time>2018-11-26T22:04:32Z</time>
      </trkpt>
      <trkpt lat="42.14146" lon="2.39622">
        <ele>746.9</ele>
        <time>2018-11-26T22:04:34Z</time>
      </trkpt>
      <trkpt lat="42.14143" lon="2.39627">
        <ele>746.3</ele>
        <time>2018-11-26T22:04:36Z</time>
      </trkpt>
      <trkpt lat="42.14142" lon="2.39633">
        <ele>745.6</ele>
        <time>2018-11-26T22:04:38Z</time>
      </trkpt>
      <trkpt lat="42.14141" lon="2.39639">
        <ele>745</ele>
        <time>2018-11-26T22:04:39Z</time>
      </trkpt>
      <trkpt lat="42.1414" lon="2.39645">
        <ele>744</ele>
        <time>2018-11-26T22:04:41Z</time>
      </trkpt>
      <trkpt lat="42.14136" lon="2.3965">
        <ele>743.2</ele>
        <time>2018-11-26T22:04:43Z</time>
      </trkpt>
      <trkpt lat="42.14132" lon="2.39655">
        <ele>743.1</ele>
        <time>2018-11-26T22:04:46Z</time>
      </trkpt>
      <trkpt lat="42.14133" lon="2.39661">
        <ele>741.9</ele>
        <time>2018-11-26T22:04:47Z</time>
      </trkpt>
      <trkpt lat="42.1413" lon="2.39665">
        <ele>741.2</ele>
        <time>2018-11-26T22:04:49Z</time>
      </trkpt>
      <trkpt lat="42.14126" lon="2.39671">
        <ele>740.4</ele>
        <time>2018-11-26T22:04:52Z</time>
      </trkpt>
      <trkpt lat="42.14122" lon="2.39674">
        <ele>739.9</ele>
        <time>2018-11-26T22:04:53Z</time>
      </trkpt>
      <trkpt lat="42.1412" lon="2.39681">
        <ele>739.2</ele>
        <time>2018-11-26T22:04:56Z</time>
      </trkpt>
      <trkpt lat="42.14119" lon="2.39687">
        <ele>737.8</ele>
        <time>2018-11-26T22:04:57Z</time>
      </trkpt>
      <trkpt lat="42.14121" lon="2.39693">
        <ele>735.8</ele>
        <time>2018-11-26T22:05:00Z</time>
      </trkpt>
      <trkpt lat="42.1412" lon="2.39699">
        <ele>734.4</ele>
        <time>2018-11-26T22:05:01Z</time>
      </trkpt>
      <trkpt lat="42.14117" lon="2.39704">
        <ele>733.5</ele>
        <time>2018-11-26T22:05:03Z</time>
      </trkpt>
      <trkpt lat="42.14117" lon="2.39711">
        <ele>732.5</ele>
        <time>2018-11-26T22:05:05Z</time>
      </trkpt>
      <trkpt lat="42.14121" lon="2.39719">
        <ele>731.5</ele>
        <time>2018-11-26T22:05:08Z</time>
      </trkpt>
      <trkpt lat="42.14124" lon="2.39723">
        <ele>729.6</ele>
        <time>2018-11-26T22:05:10Z</time>
      </trkpt>
      <trkpt lat="42.14129" lon="2.39726">
        <ele>728.2</ele>
        <time>2018-11-26T22:05:12Z</time>
      </trkpt>
      <trkpt lat="42.1413" lon="2.39732">
        <ele>725.7</ele>
        <time>2018-11-26T22:05:14Z</time>
      </trkpt>
      <trkpt lat="42.14134" lon="2.39737">
        <ele>724.9</ele>
        <time>2018-11-26T22:05:16Z</time>
      </trkpt>
      <trkpt lat="42.14138" lon="2.39738">
        <ele>722.3</ele>
        <time>2018-11-26T22:05:18Z</time>
      </trkpt>
      <trkpt lat="42.14141" lon="2.39744">
        <ele>721.1</ele>
        <time>2018-11-26T22:05:20Z</time>
      </trkpt>
      <trkpt lat="42.14144" lon="2.39748">
        <ele>719.9</ele>
        <time>2018-11-26T22:05:21Z</time>
      </trkpt>
      <trkpt lat="42.14149" lon="2.39751">
        <ele>719.9</ele>
        <time>2018-11-26T22:05:24Z</time>
      </trkpt>
      <trkpt lat="42.14152" lon="2.39757">
        <ele>719</ele>
        <time>2018-11-26T22:05:26Z</time>
      </trkpt>
      <trkpt lat="42.14157" lon="2.39758">
        <ele>718.4</ele>
        <time>2018-11-26T22:05:28Z</time>
      </trkpt>
      <trkpt lat="42.14152" lon="2.39757">
        <ele>717.9</ele>
        <time>2018-11-26T22:05:29Z</time>
      </trkpt>
      <trkpt lat="42.14151" lon="2.39751">
        <ele>720.1</ele>
        <time>2018-11-26T22:05:31Z</time>
      </trkpt>
      <trkpt lat="42.14155" lon="2.39754">
        <ele>720.5</ele>
        <time>2018-11-26T22:05:33Z</time>
      </trkpt>
      <trkpt lat="42.1416" lon="2.39754">
        <ele>719.4</ele>
        <time>2018-11-26T22:05:35Z</time>
      </trkpt>
      <trkpt lat="42.14164" lon="2.39758">
        <ele>718</ele>
        <time>2018-11-26T22:05:37Z</time>
      </trkpt>
      <trkpt lat="42.14165" lon="2.39764">
        <ele>717.1</ele>
        <time>2018-11-26T22:05:39Z</time>
      </trkpt>
      <trkpt lat="42.14164" lon="2.3977">
        <ele>716.9</ele>
        <time>2018-11-26T22:05:41Z</time>
      </trkpt>
      <trkpt lat="42.14161" lon="2.39776">
        <ele>716.9</ele>
        <time>2018-11-26T22:05:43Z</time>
      </trkpt>
      <trkpt lat="42.14158" lon="2.39781">
        <ele>716.4</ele>
        <time>2018-11-26T22:05:45Z</time>
      </trkpt>
      <trkpt lat="42.14154" lon="2.39785">
        <ele>716.2</ele>
        <time>2018-11-26T22:05:47Z</time>
      </trkpt>
      <trkpt lat="42.14151" lon="2.3979">
        <ele>715.8</ele>
        <time>2018-11-26T22:05:49Z</time>
      </trkpt>
      <trkpt lat="42.14149" lon="2.39796">
        <ele>714</ele>
        <time>2018-11-26T22:05:51Z</time>
      </trkpt>
      <trkpt lat="42.14147" lon="2.39801">
        <ele>712</ele>
        <time>2018-11-26T22:05:53Z</time>
      </trkpt>
      <trkpt lat="42.14144" lon="2.39808">
        <ele>709.9</ele>
        <time>2018-11-26T22:05:55Z</time>
      </trkpt>
      <trkpt lat="42.14143" lon="2.39815">
        <ele>708.6</ele>
        <time>2018-11-26T22:05:57Z</time>
      </trkpt>
      <trkpt lat="42.14143" lon="2.39821">
        <ele>707.8</ele>
        <time>2018-11-26T22:05:59Z</time>
      </trkpt>
      <trkpt lat="42.14145" lon="2.39827">
        <ele>705.8</ele>
        <time>2018-11-26T22:06:01Z</time>
      </trkpt>
      <trkpt lat="42.14147" lon="2.39834">
        <ele>705.5</ele>
        <time>2018-11-26T22:06:03Z</time>
      </trkpt>
      <trkpt lat="42.14146" lon="2.3984">
        <ele>705.4</ele>
        <time>2018-11-26T22:06:05Z</time>
      </trkpt>
      <trkpt lat="42.14143" lon="2.39846">
        <ele>705.5</ele>
        <time>2018-11-26T22:06:07Z</time>
      </trkpt>
      <trkpt lat="42.14143" lon="2.39853">
        <ele>706</ele>
        <time>2018-11-26T22:06:09Z</time>
      </trkpt>
      <trkpt lat="42.14145" lon="2.39859">
        <ele>706.4</ele>
        <time>2018-11-26T22:06:11Z</time>
      </trkpt>
      <trkpt lat="42.14149" lon="2.39864">
        <ele>706.7</ele>
        <time>2018-11-26T22:06:13Z</time>
      </trkpt>
      <trkpt lat="42.14153" lon="2.39868">
        <ele>707.5</ele>
        <time>2018-11-26T22:06:15Z</time>
      </trkpt>
      <trkpt lat="42.14156" lon="2.39874">
        <ele>708.5</ele>
        <time>2018-11-26T22:06:17Z</time>
      </trkpt>
      <trkpt lat="42.1416" lon="2.39877">
        <ele>708.8</ele>
        <time>2018-11-26T22:06:19Z</time>
      </trkpt>
      <trkpt lat="42.14163" lon="2.39882">
        <ele>709.4</ele>
        <time>2018-11-26T22:06:21Z</time>
      </trkpt>
      <trkpt lat="42.14164" lon="2.39889">
        <ele>709.7</ele>
        <time>2018-11-26T22:06:23Z</time>
      </trkpt>
      <trkpt lat="42.14165" lon="2.39895">
        <ele>709.8</ele>
        <time>2018-11-26T22:06:25Z</time>
      </trkpt>
      <trkpt lat="42.14165" lon="2.39902">
        <ele>709.7</ele>
        <time>2018-11-26T22:06:27Z</time>
      </trkpt>
      <trkpt lat="42.14166" lon="2.39908">
        <ele>709.4</ele>
        <time>2018-11-26T22:06:29Z</time>
      </trkpt>
      <trkpt lat="42.14169" lon="2.39913">
        <ele>709.5</ele>
        <time>2018-11-26T22:06:31Z</time>
      </trkpt>
      <trkpt lat="42.14172" lon="2.39918">
        <ele>709.4</ele>
        <time>2018-11-26T22:06:33Z</time>
      </trkpt>
      <trkpt lat="42.14172" lon="2.39925">
        <ele>709.3</ele>
        <time>2018-11-26T22:06:35Z</time>
      </trkpt>
      <trkpt lat="42.14174" lon="2.3993">
        <ele>709.1</ele>
        <time>2018-11-26T22:06:37Z</time>
      </trkpt>
      <trkpt lat="42.14175" lon="2.39938">
        <ele>708.9</ele>
        <time>2018-11-26T22:06:39Z</time>
      </trkpt>
      <trkpt lat="42.14178" lon="2.39943">
        <ele>708.6</ele>
        <time>2018-11-26T22:06:41Z</time>
      </trkpt>
      <trkpt lat="42.14181" lon="2.39947">
        <ele>707.9</ele>
        <time>2018-11-26T22:06:43Z</time>
      </trkpt>
      <trkpt lat="42.14184" lon="2.39954">
        <ele>707.6</ele>
        <time>2018-11-26T22:06:45Z</time>
      </trkpt>
      <trkpt lat="42.14187" lon="2.39959">
        <ele>707.7</ele>
        <time>2018-11-26T22:06:47Z</time>
      </trkpt>
      <trkpt lat="42.14188" lon="2.39965">
        <ele>707.7</ele>
        <time>2018-11-26T22:06:49Z</time>
      </trkpt>
      <trkpt lat="42.14188" lon="2.39972">
        <ele>707.8</ele>
        <time>2018-11-26T22:06:51Z</time>
      </trkpt>
      <trkpt lat="42.14192" lon="2.39977">
        <ele>708.8</ele>
        <time>2018-11-26T22:06:53Z</time>
      </trkpt>
      <trkpt lat="42.14195" lon="2.39983">
        <ele>708.8</ele>
        <time>2018-11-26T22:06:55Z</time>
      </trkpt>
      <trkpt lat="42.14198" lon="2.39988">
        <ele>708.6</ele>
        <time>2018-11-26T22:06:57Z</time>
      </trkpt>
      <trkpt lat="42.14202" lon="2.39994">
        <ele>708.1</ele>
        <time>2018-11-26T22:06:59Z</time>
      </trkpt>
      <trkpt lat="42.14206" lon="2.39998">
        <ele>707.8</ele>
        <time>2018-11-26T22:07:01Z</time>
      </trkpt>
      <trkpt lat="42.14209" lon="2.40002">
        <ele>708.4</ele>
        <time>2018-11-26T22:07:03Z</time>
      </trkpt>
      <trkpt lat="42.14214" lon="2.40005">
        <ele>708.2</ele>
        <time>2018-11-26T22:07:05Z</time>
      </trkpt>
      <trkpt lat="42.14217" lon="2.40009">
        <ele>707.7</ele>
        <time>2018-11-26T22:07:07Z</time>
      </trkpt>
      <trkpt lat="42.1422" lon="2.40014">
        <ele>707.2</ele>
        <time>2018-11-26T22:07:09Z</time>
      </trkpt>
      <trkpt lat="42.14224" lon="2.40018">
        <ele>707.2</ele>
        <time>2018-11-26T22:07:11Z</time>
      </trkpt>
      <trkpt lat="42.14229" lon="2.40021">
        <ele>707.2</ele>
        <time>2018-11-26T22:07:13Z</time>
      </trkpt>
      <trkpt lat="42.14233" lon="2.40023">
        <ele>707.1</ele>
        <time>2018-11-26T22:07:14Z</time>
      </trkpt>
      <trkpt lat="42.14237" lon="2.40025">
        <ele>707.1</ele>
        <time>2018-11-26T22:07:16Z</time>
      </trkpt>
      <trkpt lat="42.14235" lon="2.4002">
        <ele>707</ele>
        <time>2018-11-26T22:07:18Z</time>
      </trkpt>
      <trkpt lat="42.14237" lon="2.40026">
        <ele>706.4</ele>
        <time>2018-11-26T22:07:20Z</time>
      </trkpt>
      <trkpt lat="42.14242" lon="2.4003">
        <ele>707</ele>
        <time>2018-11-26T22:07:22Z</time>
      </trkpt>
      <trkpt lat="42.14246" lon="2.40031">
        <ele>707.1</ele>
        <time>2018-11-26T22:07:24Z</time>
      </trkpt>
      <trkpt lat="42.14251" lon="2.40033">
        <ele>707.3</ele>
        <time>2018-11-26T22:07:26Z</time>
      </trkpt>
      <trkpt lat="42.14256" lon="2.40036">
        <ele>707.2</ele>
        <time>2018-11-26T22:07:29Z</time>
      </trkpt>
      <trkpt lat="42.14261" lon="2.40039">
        <ele>706.9</ele>
        <time>2018-11-26T22:07:31Z</time>
      </trkpt>
      <trkpt lat="42.14265" lon="2.40044">
        <ele>707</ele>
        <time>2018-11-26T22:07:33Z</time>
      </trkpt>
      <trkpt lat="42.14269" lon="2.40048">
        <ele>707</ele>
        <time>2018-11-26T22:07:35Z</time>
      </trkpt>
      <trkpt lat="42.14273" lon="2.40052">
        <ele>706.8</ele>
        <time>2018-11-26T22:07:37Z</time>
      </trkpt>
      <trkpt lat="42.14276" lon="2.40055">
        <ele>707.3</ele>
        <time>2018-11-26T22:07:38Z</time>
      </trkpt>
      <trkpt lat="42.1428" lon="2.4006">
        <ele>706.8</ele>
        <time>2018-11-26T22:07:40Z</time>
      </trkpt>
      <trkpt lat="42.14283" lon="2.40063">
        <ele>706.9</ele>
        <time>2018-11-26T22:07:42Z</time>
      </trkpt>
      <trkpt lat="42.14287" lon="2.40066">
        <ele>706.4</ele>
        <time>2018-11-26T22:07:44Z</time>
      </trkpt>
      <trkpt lat="42.14291" lon="2.4007">
        <ele>706.1</ele>
        <time>2018-11-26T22:07:46Z</time>
      </trkpt>
      <trkpt lat="42.14296" lon="2.40073">
        <ele>706.4</ele>
        <time>2018-11-26T22:07:48Z</time>
      </trkpt>
      <trkpt lat="42.14299" lon="2.40078">
        <ele>707.2</ele>
        <time>2018-11-26T22:07:50Z</time>
      </trkpt>
      <trkpt lat="42.14299" lon="2.40085">
        <ele>708.5</ele>
        <time>2018-11-26T22:07:52Z</time>
      </trkpt>
      <trkpt lat="42.14304" lon="2.40084">
        <ele>708.6</ele>
        <time>2018-11-26T22:07:54Z</time>
      </trkpt>
      <trkpt lat="42.14308" lon="2.40088">
        <ele>707.7</ele>
        <time>2018-11-26T22:07:56Z</time>
      </trkpt>
      <trkpt lat="42.1431" lon="2.40094">
        <ele>707.3</ele>
        <time>2018-11-26T22:07:58Z</time>
      </trkpt>
      <trkpt lat="42.14312" lon="2.40101">
        <ele>706.3</ele>
        <time>2018-11-26T22:08:00Z</time>
      </trkpt>
      <trkpt lat="42.14311" lon="2.40107">
        <ele>705.6</ele>
        <time>2018-11-26T22:08:02Z</time>
      </trkpt>
      <trkpt lat="42.14312" lon="2.40114">
        <ele>704.8</ele>
        <time>2018-11-26T22:08:04Z</time>
      </trkpt>
      <trkpt lat="42.1431" lon="2.4012">
        <ele>703.8</ele>
        <time>2018-11-26T22:08:06Z</time>
      </trkpt>
      <trkpt lat="42.14312" lon="2.40129">
        <ele>704.9</ele>
        <time>2018-11-26T22:08:09Z</time>
      </trkpt>
      <trkpt lat="42.14312" lon="2.40136">
        <ele>705.1</ele>
        <time>2018-11-26T22:08:11Z</time>
      </trkpt>
      <trkpt lat="42.14316" lon="2.40141">
        <ele>705.6</ele>
        <time>2018-11-26T22:08:13Z</time>
      </trkpt>
      <trkpt lat="42.14319" lon="2.40145">
        <ele>706.3</ele>
        <time>2018-11-26T22:08:15Z</time>
      </trkpt>
      <trkpt lat="42.14324" lon="2.40146">
        <ele>707</ele>
        <time>2018-11-26T22:08:17Z</time>
      </trkpt>
      <trkpt lat="42.14329" lon="2.40147">
        <ele>707.3</ele>
        <time>2018-11-26T22:08:19Z</time>
      </trkpt>
      <trkpt lat="42.14333" lon="2.40148">
        <ele>707.9</ele>
        <time>2018-11-26T22:08:21Z</time>
      </trkpt>
      <trkpt lat="42.14339" lon="2.40149">
        <ele>708.6</ele>
        <time>2018-11-26T22:08:23Z</time>
      </trkpt>
      <trkpt lat="42.14343" lon="2.40152">
        <ele>708.8</ele>
        <time>2018-11-26T22:08:25Z</time>
      </trkpt>
      <trkpt lat="42.14347" lon="2.40158">
        <ele>709.6</ele>
        <time>2018-11-26T22:08:27Z</time>
      </trkpt>
      <trkpt lat="42.1435" lon="2.40163">
        <ele>709.9</ele>
        <time>2018-11-26T22:08:29Z</time>
      </trkpt>
      <trkpt lat="42.14354" lon="2.40168">
        <ele>710.3</ele>
        <time>2018-11-26T22:08:31Z</time>
      </trkpt>
      <trkpt lat="42.14356" lon="2.40173">
        <ele>710.6</ele>
        <time>2018-11-26T22:08:33Z</time>
      </trkpt>
      <trkpt lat="42.14358" lon="2.40179">
        <ele>710.9</ele>
        <time>2018-11-26T22:08:35Z</time>
      </trkpt>
      <trkpt lat="42.14358" lon="2.40185">
        <ele>711.3</ele>
        <time>2018-11-26T22:08:37Z</time>
      </trkpt>
      <trkpt lat="42.14357" lon="2.40192">
        <ele>711.7</ele>
        <time>2018-11-26T22:08:39Z</time>
      </trkpt>
      <trkpt lat="42.14356" lon="2.40198">
        <ele>712.3</ele>
        <time>2018-11-26T22:08:41Z</time>
      </trkpt>
      <trkpt lat="42.14357" lon="2.40205">
        <ele>712.7</ele>
        <time>2018-11-26T22:08:43Z</time>
      </trkpt>
      <trkpt lat="42.1436" lon="2.40212">
        <ele>713</ele>
        <time>2018-11-26T22:08:45Z</time>
      </trkpt>
      <trkpt lat="42.14363" lon="2.40217">
        <ele>713.4</ele>
        <time>2018-11-26T22:08:47Z</time>
      </trkpt>
      <trkpt lat="42.14365" lon="2.40224">
        <ele>713.9</ele>
        <time>2018-11-26T22:08:49Z</time>
      </trkpt>
      <trkpt lat="42.14362" lon="2.40231">
        <ele>714.3</ele>
        <time>2018-11-26T22:08:52Z</time>
      </trkpt>
      <trkpt lat="42.14359" lon="2.40238">
        <ele>714.4</ele>
        <time>2018-11-26T22:08:54Z</time>
      </trkpt>
      <trkpt lat="42.14358" lon="2.40245">
        <ele>713.9</ele>
        <time>2018-11-26T22:08:56Z</time>
      </trkpt>
      <trkpt lat="42.14357" lon="2.40251">
        <ele>713.4</ele>
        <time>2018-11-26T22:08:58Z</time>
      </trkpt>
      <trkpt lat="42.14355" lon="2.40258">
        <ele>712.8</ele>
        <time>2018-11-26T22:09:00Z</time>
      </trkpt>
      <trkpt lat="42.14356" lon="2.40266">
        <ele>712.9</ele>
        <time>2018-11-26T22:09:03Z</time>
      </trkpt>
      <trkpt lat="42.14356" lon="2.40273">
        <ele>713.5</ele>
        <time>2018-11-26T22:09:05Z</time>
      </trkpt>
      <trkpt lat="42.14357" lon="2.4028">
        <ele>713.9</ele>
        <time>2018-11-26T22:09:07Z</time>
      </trkpt>
      <trkpt lat="42.14359" lon="2.40287">
        <ele>714.4</ele>
        <time>2018-11-26T22:09:09Z</time>
      </trkpt>
      <trkpt lat="42.14358" lon="2.40294">
        <ele>714.5</ele>
        <time>2018-11-26T22:09:11Z</time>
      </trkpt>
      <trkpt lat="42.14358" lon="2.403">
        <ele>714.8</ele>
        <time>2018-11-26T22:09:13Z</time>
      </trkpt>
      <trkpt lat="42.14357" lon="2.40307">
        <ele>715</ele>
        <time>2018-11-26T22:09:15Z</time>
      </trkpt>
      <trkpt lat="42.14355" lon="2.40314">
        <ele>715.3</ele>
        <time>2018-11-26T22:09:17Z</time>
      </trkpt>
      <trkpt lat="42.14355" lon="2.40321">
        <ele>715.5</ele>
        <time>2018-11-26T22:09:19Z</time>
      </trkpt>
      <trkpt lat="42.14359" lon="2.40326">
        <ele>716.1</ele>
        <time>2018-11-26T22:09:21Z</time>
      </trkpt>
      <trkpt lat="42.14361" lon="2.40331">
        <ele>716.6</ele>
        <time>2018-11-26T22:09:23Z</time>
      </trkpt>
      <trkpt lat="42.14362" lon="2.40337">
        <ele>716.6</ele>
        <time>2018-11-26T22:09:25Z</time>
      </trkpt>
      <trkpt lat="42.14364" lon="2.40343">
        <ele>716.8</ele>
        <time>2018-11-26T22:09:27Z</time>
      </trkpt>
      <trkpt lat="42.14366" lon="2.40349">
        <ele>717.8</ele>
        <time>2018-11-26T22:09:29Z</time>
      </trkpt>
      <trkpt lat="42.14367" lon="2.40356">
        <ele>718.7</ele>
        <time>2018-11-26T22:09:31Z</time>
      </trkpt>
      <trkpt lat="42.14368" lon="2.40363">
        <ele>719.1</ele>
        <time>2018-11-26T22:09:33Z</time>
      </trkpt>
      <trkpt lat="42.14371" lon="2.40367">
        <ele>719.4</ele>
        <time>2018-11-26T22:09:35Z</time>
      </trkpt>
      <trkpt lat="42.14374" lon="2.40374">
        <ele>719.9</ele>
        <time>2018-11-26T22:09:37Z</time>
      </trkpt>
      <trkpt lat="42.14373" lon="2.40381">
        <ele>720</ele>
        <time>2018-11-26T22:09:39Z</time>
      </trkpt>
      <trkpt lat="42.14373" lon="2.40388">
        <ele>720.5</ele>
        <time>2018-11-26T22:09:41Z</time>
      </trkpt>
      <trkpt lat="42.14371" lon="2.40395">
        <ele>721.2</ele>
        <time>2018-11-26T22:09:43Z</time>
      </trkpt>
      <trkpt lat="42.1437" lon="2.40401">
        <ele>721.8</ele>
        <time>2018-11-26T22:09:45Z</time>
      </trkpt>
      <trkpt lat="42.14367" lon="2.40407">
        <ele>722.5</ele>
        <time>2018-11-26T22:09:47Z</time>
      </trkpt>
      <trkpt lat="42.14366" lon="2.40413">
        <ele>723.1</ele>
        <time>2018-11-26T22:09:49Z</time>
      </trkpt>
      <trkpt lat="42.14362" lon="2.4042">
        <ele>723.5</ele>
        <time>2018-11-26T22:09:51Z</time>
      </trkpt>
      <trkpt lat="42.14359" lon="2.40424">
        <ele>723.4</ele>
        <time>2018-11-26T22:09:53Z</time>
      </trkpt>
      <trkpt lat="42.14357" lon="2.4043">
        <ele>723.5</ele>
        <time>2018-11-26T22:09:55Z</time>
      </trkpt>
      <trkpt lat="42.14353" lon="2.40434">
        <ele>723.4</ele>
        <time>2018-11-26T22:09:57Z</time>
      </trkpt>
      <trkpt lat="42.1435" lon="2.40439">
        <ele>723.6</ele>
        <time>2018-11-26T22:09:59Z</time>
      </trkpt>
      <trkpt lat="42.14346" lon="2.40444">
        <ele>724.2</ele>
        <time>2018-11-26T22:10:01Z</time>
      </trkpt>
      <trkpt lat="42.14342" lon="2.40446">
        <ele>724.5</ele>
        <time>2018-11-26T22:10:03Z</time>
      </trkpt>
      <trkpt lat="42.1434" lon="2.40453">
        <ele>724.3</ele>
        <time>2018-11-26T22:10:05Z</time>
      </trkpt>
      <trkpt lat="42.14337" lon="2.40458">
        <ele>724.2</ele>
        <time>2018-11-26T22:10:07Z</time>
      </trkpt>
      <trkpt lat="42.14333" lon="2.40465">
        <ele>723</ele>
        <time>2018-11-26T22:10:10Z</time>
      </trkpt>
      <trkpt lat="42.14332" lon="2.40472">
        <ele>724.3</ele>
        <time>2018-11-26T22:10:12Z</time>
      </trkpt>
      <trkpt lat="42.14334" lon="2.40479">
        <ele>724.5</ele>
        <time>2018-11-26T22:10:14Z</time>
      </trkpt>
      <trkpt lat="42.14335" lon="2.40486">
        <ele>724.5</ele>
        <time>2018-11-26T22:10:16Z</time>
      </trkpt>
      <trkpt lat="42.14337" lon="2.40491">
        <ele>724.4</ele>
        <time>2018-11-26T22:10:18Z</time>
      </trkpt>
      <trkpt lat="42.14337" lon="2.40498">
        <ele>723.9</ele>
        <time>2018-11-26T22:10:20Z</time>
      </trkpt>
      <trkpt lat="42.14336" lon="2.40504">
        <ele>723.3</ele>
        <time>2018-11-26T22:10:22Z</time>
      </trkpt>
      <trkpt lat="42.14334" lon="2.40512">
        <ele>723.2</ele>
        <time>2018-11-26T22:10:25Z</time>
      </trkpt>
      <trkpt lat="42.14334" lon="2.4052">
        <ele>723.1</ele>
        <time>2018-11-26T22:10:27Z</time>
      </trkpt>
      <trkpt lat="42.14335" lon="2.40527">
        <ele>723.2</ele>
        <time>2018-11-26T22:10:29Z</time>
      </trkpt>
      <trkpt lat="42.14331" lon="2.40532">
        <ele>723.5</ele>
        <time>2018-11-26T22:10:31Z</time>
      </trkpt>
      <trkpt lat="42.14329" lon="2.40538">
        <ele>724.3</ele>
        <time>2018-11-26T22:10:33Z</time>
      </trkpt>
      <trkpt lat="42.14329" lon="2.40545">
        <ele>724.8</ele>
        <time>2018-11-26T22:10:35Z</time>
      </trkpt>
      <trkpt lat="42.14326" lon="2.40551">
        <ele>724.9</ele>
        <time>2018-11-26T22:10:37Z</time>
      </trkpt>
      <trkpt lat="42.14323" lon="2.40555">
        <ele>725.1</ele>
        <time>2018-11-26T22:10:39Z</time>
      </trkpt>
      <trkpt lat="42.14322" lon="2.40562">
        <ele>725.2</ele>
        <time>2018-11-26T22:10:41Z</time>
      </trkpt>
      <trkpt lat="42.1432" lon="2.40567">
        <ele>725.4</ele>
        <time>2018-11-26T22:10:43Z</time>
      </trkpt>
      <trkpt lat="42.14321" lon="2.40574">
        <ele>725.1</ele>
        <time>2018-11-26T22:10:45Z</time>
      </trkpt>
      <trkpt lat="42.1432" lon="2.40582">
        <ele>724.8</ele>
        <time>2018-11-26T22:10:47Z</time>
      </trkpt>
      <trkpt lat="42.14317" lon="2.40589">
        <ele>725.1</ele>
        <time>2018-11-26T22:10:50Z</time>
      </trkpt>
      <trkpt lat="42.14312" lon="2.40591">
        <ele>725.7</ele>
        <time>2018-11-26T22:10:52Z</time>
      </trkpt>
      <trkpt lat="42.14308" lon="2.40597">
        <ele>726.1</ele>
        <time>2018-11-26T22:10:54Z</time>
      </trkpt>
      <trkpt lat="42.14309" lon="2.40603">
        <ele>727</ele>
        <time>2018-11-26T22:10:56Z</time>
      </trkpt>
      <trkpt lat="42.14313" lon="2.4061">
        <ele>727</ele>
        <time>2018-11-26T22:10:59Z</time>
      </trkpt>
      <trkpt lat="42.14315" lon="2.40617">
        <ele>727.1</ele>
        <time>2018-11-26T22:11:01Z</time>
      </trkpt>
      <trkpt lat="42.14318" lon="2.40624">
        <ele>726.7</ele>
        <time>2018-11-26T22:11:04Z</time>
      </trkpt>
      <trkpt lat="42.14318" lon="2.40631">
        <ele>726.8</ele>
        <time>2018-11-26T22:11:05Z</time>
      </trkpt>
      <trkpt lat="42.14316" lon="2.40638">
        <ele>727.2</ele>
        <time>2018-11-26T22:11:08Z</time>
      </trkpt>
      <trkpt lat="42.14315" lon="2.40645">
        <ele>728.2</ele>
        <time>2018-11-26T22:11:10Z</time>
      </trkpt>
      <trkpt lat="42.14318" lon="2.40652">
        <ele>729.1</ele>
        <time>2018-11-26T22:11:12Z</time>
      </trkpt>
      <trkpt lat="42.14319" lon="2.40658">
        <ele>729.9</ele>
        <time>2018-11-26T22:11:14Z</time>
      </trkpt>
      <trkpt lat="42.14315" lon="2.40662">
        <ele>730</ele>
        <time>2018-11-26T22:11:16Z</time>
      </trkpt>
      <trkpt lat="42.1431" lon="2.40664">
        <ele>730</ele>
        <time>2018-11-26T22:11:18Z</time>
      </trkpt>
      <trkpt lat="42.14316" lon="2.40673">
        <ele>730</ele>
        <time>2018-11-26T22:11:22Z</time>
      </trkpt>
      <trkpt lat="42.14318" lon="2.40679">
        <ele>731.2</ele>
        <time>2018-11-26T22:11:24Z</time>
      </trkpt>
      <trkpt lat="42.14322" lon="2.40683">
        <ele>732.4</ele>
        <time>2018-11-26T22:11:26Z</time>
      </trkpt>
      <trkpt lat="42.14327" lon="2.40686">
        <ele>733.3</ele>
        <time>2018-11-26T22:11:28Z</time>
      </trkpt>
      <trkpt lat="42.14332" lon="2.40689">
        <ele>732.9</ele>
        <time>2018-11-26T22:11:30Z</time>
      </trkpt>
      <trkpt lat="42.14336" lon="2.40692">
        <ele>733.6</ele>
        <time>2018-11-26T22:11:32Z</time>
      </trkpt>
      <trkpt lat="42.1434" lon="2.40695">
        <ele>734.1</ele>
        <time>2018-11-26T22:11:34Z</time>
      </trkpt>
      <trkpt lat="42.14343" lon="2.407">
        <ele>735.1</ele>
        <time>2018-11-26T22:11:36Z</time>
      </trkpt>
      <trkpt lat="42.14349" lon="2.40705">
        <ele>735.7</ele>
        <time>2018-11-26T22:11:38Z</time>
      </trkpt>
      <trkpt lat="42.14354" lon="2.40708">
        <ele>735.6</ele>
        <time>2018-11-26T22:11:40Z</time>
      </trkpt>
      <trkpt lat="42.1436" lon="2.40711">
        <ele>735.9</ele>
        <time>2018-11-26T22:11:43Z</time>
      </trkpt>
      <trkpt lat="42.14363" lon="2.40716">
        <ele>736.8</ele>
        <time>2018-11-26T22:11:45Z</time>
      </trkpt>
      <trkpt lat="42.14366" lon="2.40722">
        <ele>737.9</ele>
        <time>2018-11-26T22:11:47Z</time>
      </trkpt>
      <trkpt lat="42.14368" lon="2.40729">
        <ele>738.7</ele>
        <time>2018-11-26T22:11:49Z</time>
      </trkpt>
      <trkpt lat="42.14373" lon="2.40734">
        <ele>739</ele>
        <time>2018-11-26T22:11:52Z</time>
      </trkpt>
      <trkpt lat="42.14376" lon="2.40738">
        <ele>739.8</ele>
        <time>2018-11-26T22:11:54Z</time>
      </trkpt>
      <trkpt lat="42.14382" lon="2.40745">
        <ele>740.7</ele>
        <time>2018-11-26T22:11:57Z</time>
      </trkpt>
      <trkpt lat="42.14385" lon="2.40751">
        <ele>742.6</ele>
        <time>2018-11-26T22:11:59Z</time>
      </trkpt>
      <trkpt lat="42.14389" lon="2.40753">
        <ele>743.4</ele>
        <time>2018-11-26T22:12:01Z</time>
      </trkpt>
      <trkpt lat="42.14394" lon="2.40755">
        <ele>743.9</ele>
        <time>2018-11-26T22:12:03Z</time>
      </trkpt>
      <trkpt lat="42.14399" lon="2.40757">
        <ele>744.5</ele>
        <time>2018-11-26T22:12:05Z</time>
      </trkpt>
      <trkpt lat="42.14403" lon="2.40757">
        <ele>745.2</ele>
        <time>2018-11-26T22:12:07Z</time>
      </trkpt>
      <trkpt lat="42.14408" lon="2.4076">
        <ele>745.6</ele>
        <time>2018-11-26T22:12:08Z</time>
      </trkpt>
      <trkpt lat="42.14413" lon="2.40759">
        <ele>745.7</ele>
        <time>2018-11-26T22:12:11Z</time>
      </trkpt>
      <trkpt lat="42.14417" lon="2.40762">
        <ele>745.8</ele>
        <time>2018-11-26T22:12:12Z</time>
      </trkpt>
      <trkpt lat="42.14421" lon="2.40766">
        <ele>746.1</ele>
        <time>2018-11-26T22:12:15Z</time>
      </trkpt>
      <trkpt lat="42.14425" lon="2.4077">
        <ele>746.5</ele>
        <time>2018-11-26T22:12:16Z</time>
      </trkpt>
      <trkpt lat="42.1443" lon="2.40772">
        <ele>746.4</ele>
        <time>2018-11-26T22:12:18Z</time>
      </trkpt>
      <trkpt lat="42.14433" lon="2.40777">
        <ele>746.1</ele>
        <time>2018-11-26T22:12:20Z</time>
      </trkpt>
      <trkpt lat="42.14435" lon="2.40782">
        <ele>746.3</ele>
        <time>2018-11-26T22:12:22Z</time>
      </trkpt>
      <trkpt lat="42.14437" lon="2.40788">
        <ele>747.1</ele>
        <time>2018-11-26T22:12:24Z</time>
      </trkpt>
      <trkpt lat="42.14441" lon="2.40794">
        <ele>747.8</ele>
        <time>2018-11-26T22:12:26Z</time>
      </trkpt>
      <trkpt lat="42.14443" lon="2.408">
        <ele>748.4</ele>
        <time>2018-11-26T22:12:29Z</time>
      </trkpt>
      <trkpt lat="42.14445" lon="2.40807">
        <ele>748.4</ele>
        <time>2018-11-26T22:12:31Z</time>
      </trkpt>
      <trkpt lat="42.14447" lon="2.40813">
        <ele>748.2</ele>
        <time>2018-11-26T22:12:32Z</time>
      </trkpt>
      <trkpt lat="42.14449" lon="2.4082">
        <ele>747.4</ele>
        <time>2018-11-26T22:12:35Z</time>
      </trkpt>
      <trkpt lat="42.1445" lon="2.40827">
        <ele>747</ele>
        <time>2018-11-26T22:12:37Z</time>
      </trkpt>
      <trkpt lat="42.14451" lon="2.40833">
        <ele>746.8</ele>
        <time>2018-11-26T22:12:39Z</time>
      </trkpt>
      <trkpt lat="42.14451" lon="2.4084">
        <ele>746.1</ele>
        <time>2018-11-26T22:12:41Z</time>
      </trkpt>
      <trkpt lat="42.14449" lon="2.40848">
        <ele>744</ele>
        <time>2018-11-26T22:12:43Z</time>
      </trkpt>
      <trkpt lat="42.14447" lon="2.40854">
        <ele>744</ele>
        <time>2018-11-26T22:12:45Z</time>
      </trkpt>
      <trkpt lat="42.14447" lon="2.40865">
        <ele>744</ele>
        <time>2018-11-26T22:12:48Z</time>
      </trkpt>
      <trkpt lat="42.1445" lon="2.40871">
        <ele>744.2</ele>
        <time>2018-11-26T22:12:51Z</time>
      </trkpt>
      <trkpt lat="42.14452" lon="2.40878">
        <ele>744.1</ele>
        <time>2018-11-26T22:12:53Z</time>
      </trkpt>
      <trkpt lat="42.14455" lon="2.40882">
        <ele>744.3</ele>
        <time>2018-11-26T22:12:55Z</time>
      </trkpt>
      <trkpt lat="42.14459" lon="2.40888">
        <ele>744.7</ele>
        <time>2018-11-26T22:12:57Z</time>
      </trkpt>
      <trkpt lat="42.1446" lon="2.40894">
        <ele>745.9</ele>
        <time>2018-11-26T22:12:59Z</time>
      </trkpt>
      <trkpt lat="42.14462" lon="2.409">
        <ele>746.5</ele>
        <time>2018-11-26T22:13:01Z</time>
      </trkpt>
      <trkpt lat="42.14464" lon="2.40907">
        <ele>747</ele>
        <time>2018-11-26T22:13:03Z</time>
      </trkpt>
      <trkpt lat="42.14465" lon="2.40913">
        <ele>747.5</ele>
        <time>2018-11-26T22:13:05Z</time>
      </trkpt>
      <trkpt lat="42.14465" lon="2.4092">
        <ele>747.7</ele>
        <time>2018-11-26T22:13:07Z</time>
      </trkpt>
      <trkpt lat="42.14465" lon="2.40928">
        <ele>748</ele>
        <time>2018-11-26T22:13:09Z</time>
      </trkpt>
      <trkpt lat="42.14464" lon="2.40934">
        <ele>748.3</ele>
        <time>2018-11-26T22:13:11Z</time>
      </trkpt>
      <trkpt lat="42.14465" lon="2.40947">
        <ele>748</ele>
        <time>2018-11-26T22:13:15Z</time>
      </trkpt>
      <trkpt lat="42.14464" lon="2.40955">
        <ele>749</ele>
        <time>2018-11-26T22:13:17Z</time>
      </trkpt>
      <trkpt lat="42.14463" lon="2.40963">
        <ele>750.5</ele>
        <time>2018-11-26T22:13:20Z</time>
      </trkpt>
      <trkpt lat="42.14465" lon="2.40972">
        <ele>751</ele>
        <time>2018-11-26T22:13:23Z</time>
      </trkpt>
      <trkpt lat="42.1447" lon="2.40983">
        <ele>751.1</ele>
        <time>2018-11-26T22:13:26Z</time>
      </trkpt>
      <trkpt lat="42.14472" lon="2.4099">
        <ele>751.1</ele>
        <time>2018-11-26T22:13:28Z</time>
      </trkpt>
      <trkpt lat="42.1447" lon="2.40997">
        <ele>752.2</ele>
        <time>2018-11-26T22:13:31Z</time>
      </trkpt>
      <trkpt lat="42.1447" lon="2.41004">
        <ele>752.3</ele>
        <time>2018-11-26T22:13:33Z</time>
      </trkpt>
      <trkpt lat="42.14466" lon="2.41004">
        <ele>752.6</ele>
        <time>2018-11-26T22:13:35Z</time>
      </trkpt>
      <trkpt lat="42.14466" lon="2.41012">
        <ele>752.7</ele>
        <time>2018-11-26T22:13:37Z</time>
      </trkpt>
      <trkpt lat="42.1447" lon="2.41017">
        <ele>752.6</ele>
        <time>2018-11-26T22:13:39Z</time>
      </trkpt>
      <trkpt lat="42.14472" lon="2.41025">
        <ele>752.4</ele>
        <time>2018-11-26T22:13:41Z</time>
      </trkpt>
      <trkpt lat="42.14474" lon="2.41032">
        <ele>752.3</ele>
        <time>2018-11-26T22:13:43Z</time>
      </trkpt>
      <trkpt lat="42.14475" lon="2.41039">
        <ele>752.3</ele>
        <time>2018-11-26T22:13:46Z</time>
      </trkpt>
      <trkpt lat="42.14478" lon="2.41045">
        <ele>751.5</ele>
        <time>2018-11-26T22:13:48Z</time>
      </trkpt>
      <trkpt lat="42.14481" lon="2.4105">
        <ele>749.2</ele>
        <time>2018-11-26T22:13:50Z</time>
      </trkpt>
      <trkpt lat="42.14485" lon="2.41054">
        <ele>748</ele>
        <time>2018-11-26T22:13:52Z</time>
      </trkpt>
      <trkpt lat="42.14488" lon="2.41059">
        <ele>746</ele>
        <time>2018-11-26T22:13:54Z</time>
      </trkpt>
      <trkpt lat="42.14492" lon="2.41062">
        <ele>745.1</ele>
        <time>2018-11-26T22:13:56Z</time>
      </trkpt>
      <trkpt lat="42.14495" lon="2.41067">
        <ele>744.2</ele>
        <time>2018-11-26T22:13:57Z</time>
      </trkpt>
      <trkpt lat="42.14498" lon="2.41072">
        <ele>743.3</ele>
        <time>2018-11-26T22:13:59Z</time>
      </trkpt>
      <trkpt lat="42.14502" lon="2.41078">
        <ele>741.1</ele>
        <time>2018-11-26T22:14:02Z</time>
      </trkpt>
      <trkpt lat="42.14505" lon="2.41085">
        <ele>740.8</ele>
        <time>2018-11-26T22:14:04Z</time>
      </trkpt>
      <trkpt lat="42.14506" lon="2.41091">
        <ele>740.6</ele>
        <time>2018-11-26T22:14:06Z</time>
      </trkpt>
      <trkpt lat="42.14505" lon="2.41097">
        <ele>740.6</ele>
        <time>2018-11-26T22:14:08Z</time>
      </trkpt>
      <trkpt lat="42.14505" lon="2.41105">
        <ele>740.7</ele>
        <time>2018-11-26T22:14:10Z</time>
      </trkpt>
      <trkpt lat="42.14502" lon="2.41111">
        <ele>740.7</ele>
        <time>2018-11-26T22:14:12Z</time>
      </trkpt>
      <trkpt lat="42.145" lon="2.41117">
        <ele>741.3</ele>
        <time>2018-11-26T22:14:14Z</time>
      </trkpt>
      <trkpt lat="42.14503" lon="2.41123">
        <ele>742.4</ele>
        <time>2018-11-26T22:14:16Z</time>
      </trkpt>
      <trkpt lat="42.14504" lon="2.4113">
        <ele>742.8</ele>
        <time>2018-11-26T22:14:18Z</time>
      </trkpt>
      <trkpt lat="42.14506" lon="2.41136">
        <ele>743.1</ele>
        <time>2018-11-26T22:14:20Z</time>
      </trkpt>
      <trkpt lat="42.14509" lon="2.41141">
        <ele>742.8</ele>
        <time>2018-11-26T22:14:22Z</time>
      </trkpt>
      <trkpt lat="42.14513" lon="2.41145">
        <ele>742</ele>
        <time>2018-11-26T22:14:24Z</time>
      </trkpt>
      <trkpt lat="42.14517" lon="2.4115">
        <ele>741.2</ele>
        <time>2018-11-26T22:14:26Z</time>
      </trkpt>
      <trkpt lat="42.14519" lon="2.41155">
        <ele>741.1</ele>
        <time>2018-11-26T22:14:28Z</time>
      </trkpt>
      <trkpt lat="42.14522" lon="2.4116">
        <ele>740.7</ele>
        <time>2018-11-26T22:14:30Z</time>
      </trkpt>
      <trkpt lat="42.14524" lon="2.41167">
        <ele>740.4</ele>
        <time>2018-11-26T22:14:32Z</time>
      </trkpt>
      <trkpt lat="42.14526" lon="2.41173">
        <ele>740.3</ele>
        <time>2018-11-26T22:14:34Z</time>
      </trkpt>
      <trkpt lat="42.14528" lon="2.41178">
        <ele>739.7</ele>
        <time>2018-11-26T22:14:36Z</time>
      </trkpt>
      <trkpt lat="42.1453" lon="2.41184">
        <ele>739</ele>
        <time>2018-11-26T22:14:38Z</time>
      </trkpt>
      <trkpt lat="42.14532" lon="2.41192">
        <ele>737.3</ele>
        <time>2018-11-26T22:14:40Z</time>
      </trkpt>
      <trkpt lat="42.14534" lon="2.41199">
        <ele>736.8</ele>
        <time>2018-11-26T22:14:43Z</time>
      </trkpt>
      <trkpt lat="42.1453" lon="2.41203">
        <ele>735.6</ele>
        <time>2018-11-26T22:14:44Z</time>
      </trkpt>
      <trkpt lat="42.14529" lon="2.41212">
        <ele>734</ele>
        <time>2018-11-26T22:14:47Z</time>
      </trkpt>
      <trkpt lat="42.14529" lon="2.41219">
        <ele>734</ele>
        <time>2018-11-26T22:14:49Z</time>
      </trkpt>
      <trkpt lat="42.14524" lon="2.41227">
        <ele>734</ele>
        <time>2018-11-26T22:14:52Z</time>
      </trkpt>
      <trkpt lat="42.1452" lon="2.41232">
        <ele>734.1</ele>
        <time>2018-11-26T22:14:54Z</time>
      </trkpt>
      <trkpt lat="42.14519" lon="2.4124">
        <ele>734</ele>
        <time>2018-11-26T22:14:57Z</time>
      </trkpt>
      <trkpt lat="42.14518" lon="2.41249">
        <ele>732</ele>
        <time>2018-11-26T22:15:00Z</time>
      </trkpt>
      <trkpt lat="42.14519" lon="2.41256">
        <ele>731</ele>
        <time>2018-11-26T22:15:02Z</time>
      </trkpt>
      <trkpt lat="42.14523" lon="2.41259">
        <ele>731.2</ele>
        <time>2018-11-26T22:15:04Z</time>
      </trkpt>
      <trkpt lat="42.14524" lon="2.41265">
        <ele>730.6</ele>
        <time>2018-11-26T22:15:06Z</time>
      </trkpt>
      <trkpt lat="42.14519" lon="2.41264">
        <ele>730.5</ele>
        <time>2018-11-26T22:15:07Z</time>
      </trkpt>
      <trkpt lat="42.14516" lon="2.41268">
        <ele>730.3</ele>
        <time>2018-11-26T22:15:09Z</time>
      </trkpt>
      <trkpt lat="42.14512" lon="2.41272">
        <ele>729</ele>
        <time>2018-11-26T22:15:11Z</time>
      </trkpt>
      <trkpt lat="42.14511" lon="2.41278">
        <ele>728.1</ele>
        <time>2018-11-26T22:15:13Z</time>
      </trkpt>
      <trkpt lat="42.14509" lon="2.41284">
        <ele>727.4</ele>
        <time>2018-11-26T22:15:15Z</time>
      </trkpt>
      <trkpt lat="42.14506" lon="2.41289">
        <ele>726.3</ele>
        <time>2018-11-26T22:15:17Z</time>
      </trkpt>
      <trkpt lat="42.14503" lon="2.41296">
        <ele>725.3</ele>
        <time>2018-11-26T22:15:19Z</time>
      </trkpt>
      <trkpt lat="42.145" lon="2.413">
        <ele>724.1</ele>
        <time>2018-11-26T22:15:21Z</time>
      </trkpt>
      <trkpt lat="42.14496" lon="2.41304">
        <ele>723</ele>
        <time>2018-11-26T22:15:23Z</time>
      </trkpt>
      <trkpt lat="42.14492" lon="2.41307">
        <ele>722</ele>
        <time>2018-11-26T22:15:25Z</time>
      </trkpt>
      <trkpt lat="42.14488" lon="2.41311">
        <ele>720.9</ele>
        <time>2018-11-26T22:15:27Z</time>
      </trkpt>
      <trkpt lat="42.14489" lon="2.41317">
        <ele>719.8</ele>
        <time>2018-11-26T22:15:29Z</time>
      </trkpt>
      <trkpt lat="42.14485" lon="2.4132">
        <ele>719.3</ele>
        <time>2018-11-26T22:15:30Z</time>
      </trkpt>
      <trkpt lat="42.14483" lon="2.41326">
        <ele>718.9</ele>
        <time>2018-11-26T22:15:32Z</time>
      </trkpt>
      <trkpt lat="42.14478" lon="2.41325">
        <ele>718.4</ele>
        <time>2018-11-26T22:15:34Z</time>
      </trkpt>
      <trkpt lat="42.1448" lon="2.41331">
        <ele>719.5</ele>
        <time>2018-11-26T22:15:36Z</time>
      </trkpt>
      <trkpt lat="42.14484" lon="2.41333">
        <ele>720.5</ele>
        <time>2018-11-26T22:15:38Z</time>
      </trkpt>
      <trkpt lat="42.14487" lon="2.41328">
        <ele>719.9</ele>
        <time>2018-11-26T22:15:40Z</time>
      </trkpt>
      <trkpt lat="42.14492" lon="2.4133">
        <ele>717.4</ele>
        <time>2018-11-26T22:15:42Z</time>
      </trkpt>
      <trkpt lat="42.14498" lon="2.41332">
        <ele>713.1</ele>
        <time>2018-11-26T22:15:44Z</time>
      </trkpt>
      <trkpt lat="42.14501" lon="2.41336">
        <ele>709.8</ele>
        <time>2018-11-26T22:15:46Z</time>
      </trkpt>
      <trkpt lat="42.14503" lon="2.41343">
        <ele>706</ele>
        <time>2018-11-26T22:15:48Z</time>
      </trkpt>
      <trkpt lat="42.14504" lon="2.41349">
        <ele>705.3</ele>
        <time>2018-11-26T22:15:50Z</time>
      </trkpt>
      <trkpt lat="42.14501" lon="2.41354">
        <ele>703.9</ele>
        <time>2018-11-26T22:15:52Z</time>
      </trkpt>
      <trkpt lat="42.14496" lon="2.41356">
        <ele>703</ele>
        <time>2018-11-26T22:15:54Z</time>
      </trkpt>
      <trkpt lat="42.14493" lon="2.41361">
        <ele>702.2</ele>
        <time>2018-11-26T22:15:56Z</time>
      </trkpt>
      <trkpt lat="42.14492" lon="2.41368">
        <ele>700.8</ele>
        <time>2018-11-26T22:15:58Z</time>
      </trkpt>
      <trkpt lat="42.14493" lon="2.41375">
        <ele>699.6</ele>
        <time>2018-11-26T22:16:00Z</time>
      </trkpt>
      <trkpt lat="42.14496" lon="2.4138">
        <ele>698</ele>
        <time>2018-11-26T22:16:02Z</time>
      </trkpt>
      <trkpt lat="42.14501" lon="2.41382">
        <ele>694.8</ele>
        <time>2018-11-26T22:16:04Z</time>
      </trkpt>
      <trkpt lat="42.14505" lon="2.41387">
        <ele>693.8</ele>
        <time>2018-11-26T22:16:06Z</time>
      </trkpt>
      <trkpt lat="42.14504" lon="2.41394">
        <ele>692.1</ele>
        <time>2018-11-26T22:16:08Z</time>
      </trkpt>
      <trkpt lat="42.14507" lon="2.414">
        <ele>690.6</ele>
        <time>2018-11-26T22:16:10Z</time>
      </trkpt>
      <trkpt lat="42.14511" lon="2.41403">
        <ele>689.2</ele>
        <time>2018-11-26T22:16:12Z</time>
      </trkpt>
      <trkpt lat="42.14512" lon="2.41409">
        <ele>687.7</ele>
        <time>2018-11-26T22:16:14Z</time>
      </trkpt>
      <trkpt lat="42.14514" lon="2.41416">
        <ele>686</ele>
        <time>2018-11-26T22:16:16Z</time>
      </trkpt>
      <trkpt lat="42.14518" lon="2.4142">
        <ele>683.5</ele>
        <time>2018-11-26T22:16:18Z</time>
      </trkpt>
      <trkpt lat="42.14521" lon="2.41425">
        <ele>682.1</ele>
        <time>2018-11-26T22:16:20Z</time>
      </trkpt>
      <trkpt lat="42.14524" lon="2.41431">
        <ele>680.6</ele>
        <time>2018-11-26T22:16:22Z</time>
      </trkpt>
      <trkpt lat="42.14528" lon="2.41436">
        <ele>679.1</ele>
        <time>2018-11-26T22:16:24Z</time>
      </trkpt>
      <trkpt lat="42.1453" lon="2.41442">
        <ele>677.9</ele>
        <time>2018-11-26T22:16:26Z</time>
      </trkpt>
      <trkpt lat="42.14532" lon="2.41448">
        <ele>676.8</ele>
        <time>2018-11-26T22:16:28Z</time>
      </trkpt>
      <trkpt lat="42.14532" lon="2.41454">
        <ele>675.6</ele>
        <time>2018-11-26T22:16:30Z</time>
      </trkpt>
      <trkpt lat="42.1453" lon="2.41461">
        <ele>675.3</ele>
        <time>2018-11-26T22:16:32Z</time>
      </trkpt>
      <trkpt lat="42.14529" lon="2.41467">
        <ele>674.6</ele>
        <time>2018-11-26T22:16:34Z</time>
      </trkpt>
      <trkpt lat="42.14527" lon="2.41473">
        <ele>673.4</ele>
        <time>2018-11-26T22:16:36Z</time>
      </trkpt>
      <trkpt lat="42.14526" lon="2.4148">
        <ele>671.6</ele>
        <time>2018-11-26T22:16:38Z</time>
      </trkpt>
      <trkpt lat="42.14525" lon="2.41485">
        <ele>669.6</ele>
        <time>2018-11-26T22:16:40Z</time>
      </trkpt>
      <trkpt lat="42.14521" lon="2.4149">
        <ele>668.3</ele>
        <time>2018-11-26T22:16:42Z</time>
      </trkpt>
      <trkpt lat="42.14517" lon="2.41494">
        <ele>667.2</ele>
        <time>2018-11-26T22:16:44Z</time>
      </trkpt>
      <trkpt lat="42.14514" lon="2.41499">
        <ele>664.8</ele>
        <time>2018-11-26T22:16:46Z</time>
      </trkpt>
      <trkpt lat="42.14514" lon="2.41506">
        <ele>663.7</ele>
        <time>2018-11-26T22:16:48Z</time>
      </trkpt>
      <trkpt lat="42.14513" lon="2.41513">
        <ele>663.1</ele>
        <time>2018-11-26T22:16:50Z</time>
      </trkpt>
      <trkpt lat="42.1451" lon="2.41518">
        <ele>661.9</ele>
        <time>2018-11-26T22:16:52Z</time>
      </trkpt>
      <trkpt lat="42.14512" lon="2.41523">
        <ele>661.7</ele>
        <time>2018-11-26T22:16:53Z</time>
      </trkpt>
      <trkpt lat="42.14508" lon="2.41526">
        <ele>662.4</ele>
        <time>2018-11-26T22:16:55Z</time>
      </trkpt>
      <trkpt lat="42.14503" lon="2.41526">
        <ele>661.9</ele>
        <time>2018-11-26T22:16:57Z</time>
      </trkpt>
      <trkpt lat="42.14507" lon="2.4153">
        <ele>662.1</ele>
        <time>2018-11-26T22:16:59Z</time>
      </trkpt>
      <trkpt lat="42.14509" lon="2.41524">
        <ele>662</ele>
        <time>2018-11-26T22:17:01Z</time>
      </trkpt>
      <trkpt lat="42.14508" lon="2.41518">
        <ele>663.6</ele>
        <time>2018-11-26T22:17:03Z</time>
      </trkpt>
      <trkpt lat="42.14507" lon="2.41524">
        <ele>662.8</ele>
        <time>2018-11-26T22:17:05Z</time>
      </trkpt>
      <trkpt lat="42.14506" lon="2.41531">
        <ele>662.5</ele>
        <time>2018-11-26T22:17:07Z</time>
      </trkpt>
      <trkpt lat="42.14503" lon="2.41536">
        <ele>662.1</ele>
        <time>2018-11-26T22:17:09Z</time>
      </trkpt>
      <trkpt lat="42.145" lon="2.41542">
        <ele>662</ele>
        <time>2018-11-26T22:17:11Z</time>
      </trkpt>
      <trkpt lat="42.14497" lon="2.41548">
        <ele>661.7</ele>
        <time>2018-11-26T22:17:13Z</time>
      </trkpt>
      <trkpt lat="42.14496" lon="2.41555">
        <ele>662.4</ele>
        <time>2018-11-26T22:17:15Z</time>
      </trkpt>
      <trkpt lat="42.14494" lon="2.41561">
        <ele>662.3</ele>
        <time>2018-11-26T22:17:17Z</time>
      </trkpt>
      <trkpt lat="42.14494" lon="2.41567">
        <ele>661.7</ele>
        <time>2018-11-26T22:17:19Z</time>
      </trkpt>
      <trkpt lat="42.14489" lon="2.4157">
        <ele>661.4</ele>
        <time>2018-11-26T22:17:21Z</time>
      </trkpt>
      <trkpt lat="42.14487" lon="2.41577">
        <ele>661</ele>
        <time>2018-11-26T22:17:23Z</time>
      </trkpt>
      <trkpt lat="42.14485" lon="2.41583">
        <ele>660.6</ele>
        <time>2018-11-26T22:17:25Z</time>
      </trkpt>
      <trkpt lat="42.14485" lon="2.41589">
        <ele>659.9</ele>
        <time>2018-11-26T22:17:27Z</time>
      </trkpt>
      <trkpt lat="42.14483" lon="2.41595">
        <ele>659.5</ele>
        <time>2018-11-26T22:17:29Z</time>
      </trkpt>
      <trkpt lat="42.14481" lon="2.41601">
        <ele>658.9</ele>
        <time>2018-11-26T22:17:31Z</time>
      </trkpt>
      <trkpt lat="42.14478" lon="2.41606">
        <ele>659.4</ele>
        <time>2018-11-26T22:17:33Z</time>
      </trkpt>
      <trkpt lat="42.14473" lon="2.41609">
        <ele>659.3</ele>
        <time>2018-11-26T22:17:35Z</time>
      </trkpt>
      <trkpt lat="42.14468" lon="2.41611">
        <ele>659.3</ele>
        <time>2018-11-26T22:17:37Z</time>
      </trkpt>
      <trkpt lat="42.14463" lon="2.41614">
        <ele>658.9</ele>
        <time>2018-11-26T22:17:39Z</time>
      </trkpt>
      <trkpt lat="42.14458" lon="2.41614">
        <ele>658.6</ele>
        <time>2018-11-26T22:17:41Z</time>
      </trkpt>
      <trkpt lat="42.14453" lon="2.41614">
        <ele>658.4</ele>
        <time>2018-11-26T22:17:43Z</time>
      </trkpt>
      <trkpt lat="42.14448" lon="2.41614">
        <ele>658.5</ele>
        <time>2018-11-26T22:17:45Z</time>
      </trkpt>
      <trkpt lat="42.14443" lon="2.41614">
        <ele>658.9</ele>
        <time>2018-11-26T22:17:47Z</time>
      </trkpt>
      <trkpt lat="42.14438" lon="2.41615">
        <ele>659.5</ele>
        <time>2018-11-26T22:17:49Z</time>
      </trkpt>
      <trkpt lat="42.14433" lon="2.41618">
        <ele>660.2</ele>
        <time>2018-11-26T22:17:51Z</time>
      </trkpt>
      <trkpt lat="42.14426" lon="2.41618">
        <ele>661.6</ele>
        <time>2018-11-26T22:17:54Z</time>
      </trkpt>
      <trkpt lat="42.14422" lon="2.41622">
        <ele>662.1</ele>
        <time>2018-11-26T22:17:56Z</time>
      </trkpt>
      <trkpt lat="42.14418" lon="2.4162">
        <ele>662.3</ele>
        <time>2018-11-26T22:17:58Z</time>
      </trkpt>
      <trkpt lat="42.14414" lon="2.41625">
        <ele>662</ele>
        <time>2018-11-26T22:18:00Z</time>
      </trkpt>
      <trkpt lat="42.14412" lon="2.41631">
        <ele>661.9</ele>
        <time>2018-11-26T22:18:02Z</time>
      </trkpt>
      <trkpt lat="42.14412" lon="2.41638">
        <ele>661.3</ele>
        <time>2018-11-26T22:18:04Z</time>
      </trkpt>
      <trkpt lat="42.14414" lon="2.41645">
        <ele>659.6</ele>
        <time>2018-11-26T22:18:06Z</time>
      </trkpt>
      <trkpt lat="42.14416" lon="2.41651">
        <ele>658.7</ele>
        <time>2018-11-26T22:18:08Z</time>
      </trkpt>
      <trkpt lat="42.14418" lon="2.41657">
        <ele>657.4</ele>
        <time>2018-11-26T22:18:10Z</time>
      </trkpt>
      <trkpt lat="42.14421" lon="2.41665">
        <ele>656.7</ele>
        <time>2018-11-26T22:18:13Z</time>
      </trkpt>
      <trkpt lat="42.14423" lon="2.41673">
        <ele>655.8</ele>
        <time>2018-11-26T22:18:15Z</time>
      </trkpt>
      <trkpt lat="42.14422" lon="2.41681">
        <ele>654.6</ele>
        <time>2018-11-26T22:18:18Z</time>
      </trkpt>
      <trkpt lat="42.1442" lon="2.41687">
        <ele>654.1</ele>
        <time>2018-11-26T22:18:20Z</time>
      </trkpt>
      <trkpt lat="42.14416" lon="2.41691">
        <ele>653.5</ele>
        <time>2018-11-26T22:18:22Z</time>
      </trkpt>
      <trkpt lat="42.14412" lon="2.41695">
        <ele>653.1</ele>
        <time>2018-11-26T22:18:24Z</time>
      </trkpt>
      <trkpt lat="42.14409" lon="2.41701">
        <ele>651.7</ele>
        <time>2018-11-26T22:18:26Z</time>
      </trkpt>
      <trkpt lat="42.14406" lon="2.41707">
        <ele>651</ele>
        <time>2018-11-26T22:18:28Z</time>
      </trkpt>
      <trkpt lat="42.14402" lon="2.41712">
        <ele>650.7</ele>
        <time>2018-11-26T22:18:30Z</time>
      </trkpt>
      <trkpt lat="42.14398" lon="2.41717">
        <ele>650.2</ele>
        <time>2018-11-26T22:18:32Z</time>
      </trkpt>
      <trkpt lat="42.14394" lon="2.41721">
        <ele>649.5</ele>
        <time>2018-11-26T22:18:35Z</time>
      </trkpt>
      <trkpt lat="42.1439" lon="2.41726">
        <ele>648.8</ele>
        <time>2018-11-26T22:18:37Z</time>
      </trkpt>
      <trkpt lat="42.14387" lon="2.41731">
        <ele>648.1</ele>
        <time>2018-11-26T22:18:39Z</time>
      </trkpt>
      <trkpt lat="42.14383" lon="2.41737">
        <ele>647.6</ele>
        <time>2018-11-26T22:18:41Z</time>
      </trkpt>
      <trkpt lat="42.1438" lon="2.41741">
        <ele>647</ele>
        <time>2018-11-26T22:18:43Z</time>
      </trkpt>
      <trkpt lat="42.14376" lon="2.41748">
        <ele>646.3</ele>
        <time>2018-11-26T22:18:45Z</time>
      </trkpt>
      <trkpt lat="42.14373" lon="2.41752">
        <ele>645.7</ele>
        <time>2018-11-26T22:18:47Z</time>
      </trkpt>
      <trkpt lat="42.1437" lon="2.41758">
        <ele>645.1</ele>
        <time>2018-11-26T22:18:49Z</time>
      </trkpt>
      <trkpt lat="42.14367" lon="2.41763">
        <ele>644.6</ele>
        <time>2018-11-26T22:18:51Z</time>
      </trkpt>
      <trkpt lat="42.14364" lon="2.41769">
        <ele>643.9</ele>
        <time>2018-11-26T22:18:53Z</time>
      </trkpt>
      <trkpt lat="42.1436" lon="2.41775">
        <ele>643.2</ele>
        <time>2018-11-26T22:18:56Z</time>
      </trkpt>
      <trkpt lat="42.14358" lon="2.4178">
        <ele>642.5</ele>
        <time>2018-11-26T22:18:57Z</time>
      </trkpt>
      <trkpt lat="42.14356" lon="2.41786">
        <ele>642.1</ele>
        <time>2018-11-26T22:18:59Z</time>
      </trkpt>
      <trkpt lat="42.14352" lon="2.41792">
        <ele>641.6</ele>
        <time>2018-11-26T22:19:01Z</time>
      </trkpt>
      <trkpt lat="42.14349" lon="2.41798">
        <ele>641</ele>
        <time>2018-11-26T22:19:04Z</time>
      </trkpt>
      <trkpt lat="42.14345" lon="2.41803">
        <ele>640.6</ele>
        <time>2018-11-26T22:19:06Z</time>
      </trkpt>
      <trkpt lat="42.14342" lon="2.41808">
        <ele>640.2</ele>
        <time>2018-11-26T22:19:08Z</time>
      </trkpt>
      <trkpt lat="42.14338" lon="2.41813">
        <ele>639.4</ele>
        <time>2018-11-26T22:19:10Z</time>
      </trkpt>
      <trkpt lat="42.14333" lon="2.41816">
        <ele>638.7</ele>
        <time>2018-11-26T22:19:12Z</time>
      </trkpt>
      <trkpt lat="42.14329" lon="2.41819">
        <ele>637.9</ele>
        <time>2018-11-26T22:19:14Z</time>
      </trkpt>
      <trkpt lat="42.14324" lon="2.41822">
        <ele>637.5</ele>
        <time>2018-11-26T22:19:16Z</time>
      </trkpt>
      <trkpt lat="42.14319" lon="2.41824">
        <ele>636.7</ele>
        <time>2018-11-26T22:19:18Z</time>
      </trkpt>
      <trkpt lat="42.14315" lon="2.41825">
        <ele>636.1</ele>
        <time>2018-11-26T22:19:20Z</time>
      </trkpt>
      <trkpt lat="42.1431" lon="2.41829">
        <ele>636</ele>
        <time>2018-11-26T22:19:22Z</time>
      </trkpt>
      <trkpt lat="42.14305" lon="2.41831">
        <ele>635.7</ele>
        <time>2018-11-26T22:19:24Z</time>
      </trkpt>
      <trkpt lat="42.143" lon="2.41836">
        <ele>635.5</ele>
        <time>2018-11-26T22:19:27Z</time>
      </trkpt>
      <trkpt lat="42.14297" lon="2.4184">
        <ele>635.2</ele>
        <time>2018-11-26T22:19:28Z</time>
      </trkpt>
      <trkpt lat="42.14293" lon="2.41845">
        <ele>635</ele>
        <time>2018-11-26T22:19:31Z</time>
      </trkpt>
      <trkpt lat="42.1429" lon="2.41851">
        <ele>634.9</ele>
        <time>2018-11-26T22:19:33Z</time>
      </trkpt>
      <trkpt lat="42.14286" lon="2.41857">
        <ele>635</ele>
        <time>2018-11-26T22:19:35Z</time>
      </trkpt>
      <trkpt lat="42.14283" lon="2.41862">
        <ele>635.6</ele>
        <time>2018-11-26T22:19:37Z</time>
      </trkpt>
      <trkpt lat="42.14279" lon="2.41867">
        <ele>635.4</ele>
        <time>2018-11-26T22:19:39Z</time>
      </trkpt>
      <trkpt lat="42.14275" lon="2.41871">
        <ele>635.4</ele>
        <time>2018-11-26T22:19:41Z</time>
      </trkpt>
      <trkpt lat="42.1427" lon="2.41874">
        <ele>635.6</ele>
        <time>2018-11-26T22:19:43Z</time>
      </trkpt>
      <trkpt lat="42.14266" lon="2.41877">
        <ele>635.6</ele>
        <time>2018-11-26T22:19:45Z</time>
      </trkpt>
      <trkpt lat="42.14262" lon="2.41878">
        <ele>635.9</ele>
        <time>2018-11-26T22:19:47Z</time>
      </trkpt>
      <trkpt lat="42.14257" lon="2.4188">
        <ele>635.8</ele>
        <time>2018-11-26T22:19:49Z</time>
      </trkpt>
      <trkpt lat="42.14252" lon="2.41883">
        <ele>635.6</ele>
        <time>2018-11-26T22:19:51Z</time>
      </trkpt>
      <trkpt lat="42.14249" lon="2.41889">
        <ele>635.6</ele>
        <time>2018-11-26T22:19:53Z</time>
      </trkpt>
      <trkpt lat="42.14247" lon="2.41895">
        <ele>635.8</ele>
        <time>2018-11-26T22:19:55Z</time>
      </trkpt>
      <trkpt lat="42.14244" lon="2.41901">
        <ele>636</ele>
        <time>2018-11-26T22:19:57Z</time>
      </trkpt>
      <trkpt lat="42.1424" lon="2.41906">
        <ele>635.7</ele>
        <time>2018-11-26T22:20:00Z</time>
      </trkpt>
      <trkpt lat="42.14235" lon="2.4191">
        <ele>635.5</ele>
        <time>2018-11-26T22:20:02Z</time>
      </trkpt>
      <trkpt lat="42.14231" lon="2.41913">
        <ele>634.9</ele>
        <time>2018-11-26T22:20:04Z</time>
      </trkpt>
      <trkpt lat="42.14226" lon="2.41914">
        <ele>634.2</ele>
        <time>2018-11-26T22:20:06Z</time>
      </trkpt>
      <trkpt lat="42.14222" lon="2.41918">
        <ele>633.7</ele>
        <time>2018-11-26T22:20:08Z</time>
      </trkpt>
      <trkpt lat="42.1422" lon="2.41924">
        <ele>633.1</ele>
        <time>2018-11-26T22:20:10Z</time>
      </trkpt>
      <trkpt lat="42.14219" lon="2.4193">
        <ele>632.9</ele>
        <time>2018-11-26T22:20:11Z</time>
      </trkpt>
      <trkpt lat="42.14218" lon="2.41936">
        <ele>632.6</ele>
        <time>2018-11-26T22:20:13Z</time>
      </trkpt>
      <trkpt lat="42.14218" lon="2.41943">
        <ele>631.9</ele>
        <time>2018-11-26T22:20:15Z</time>
      </trkpt>
      <trkpt lat="42.14219" lon="2.41949">
        <ele>631.3</ele>
        <time>2018-11-26T22:20:17Z</time>
      </trkpt>
      <trkpt lat="42.14217" lon="2.41955">
        <ele>630.7</ele>
        <time>2018-11-26T22:20:19Z</time>
      </trkpt>
      <trkpt lat="42.14214" lon="2.41959">
        <ele>630.2</ele>
        <time>2018-11-26T22:20:21Z</time>
      </trkpt>
      <trkpt lat="42.14209" lon="2.41963">
        <ele>629.6</ele>
        <time>2018-11-26T22:20:23Z</time>
      </trkpt>
      <trkpt lat="42.14205" lon="2.41967">
        <ele>629</ele>
        <time>2018-11-26T22:20:25Z</time>
      </trkpt>
      <trkpt lat="42.14201" lon="2.41973">
        <ele>628.7</ele>
        <time>2018-11-26T22:20:28Z</time>
      </trkpt>
      <trkpt lat="42.14198" lon="2.41979">
        <ele>628.5</ele>
        <time>2018-11-26T22:20:29Z</time>
      </trkpt>
      <trkpt lat="42.14197" lon="2.41985">
        <ele>628</ele>
        <time>2018-11-26T22:20:31Z</time>
      </trkpt>
      <trkpt lat="42.14193" lon="2.41994">
        <ele>627.1</ele>
        <time>2018-11-26T22:20:34Z</time>
      </trkpt>
      <trkpt lat="42.1419" lon="2.42">
        <ele>626.4</ele>
        <time>2018-11-26T22:20:37Z</time>
      </trkpt>
      <trkpt lat="42.14187" lon="2.42004">
        <ele>625.4</ele>
        <time>2018-11-26T22:20:38Z</time>
      </trkpt>
      <trkpt lat="42.14184" lon="2.4201">
        <ele>624.3</ele>
        <time>2018-11-26T22:20:40Z</time>
      </trkpt>
      <trkpt lat="42.14181" lon="2.42016">
        <ele>623.6</ele>
        <time>2018-11-26T22:20:42Z</time>
      </trkpt>
      <trkpt lat="42.14179" lon="2.42021">
        <ele>623.2</ele>
        <time>2018-11-26T22:20:44Z</time>
      </trkpt>
      <trkpt lat="42.14177" lon="2.42027">
        <ele>622.9</ele>
        <time>2018-11-26T22:20:46Z</time>
      </trkpt>
      <trkpt lat="42.14174" lon="2.42032">
        <ele>622.7</ele>
        <time>2018-11-26T22:20:48Z</time>
      </trkpt>
      <trkpt lat="42.14171" lon="2.42037">
        <ele>622.3</ele>
        <time>2018-11-26T22:20:50Z</time>
      </trkpt>
      <trkpt lat="42.14167" lon="2.42042">
        <ele>621.6</ele>
        <time>2018-11-26T22:20:52Z</time>
      </trkpt>
      <trkpt lat="42.14163" lon="2.42046">
        <ele>620.8</ele>
        <time>2018-11-26T22:20:54Z</time>
      </trkpt>
      <trkpt lat="42.1416" lon="2.42051">
        <ele>620.7</ele>
        <time>2018-11-26T22:20:56Z</time>
      </trkpt>
      <trkpt lat="42.14155" lon="2.42053">
        <ele>620.8</ele>
        <time>2018-11-26T22:20:58Z</time>
      </trkpt>
      <trkpt lat="42.1415" lon="2.42054">
        <ele>620.9</ele>
        <time>2018-11-26T22:21:00Z</time>
      </trkpt>
      <trkpt lat="42.14145" lon="2.42055">
        <ele>621</ele>
        <time>2018-11-26T22:21:03Z</time>
      </trkpt>
      <trkpt lat="42.14139" lon="2.42054">
        <ele>620.8</ele>
        <time>2018-11-26T22:21:05Z</time>
      </trkpt>
      <trkpt lat="42.14133" lon="2.42056">
        <ele>620.5</ele>
        <time>2018-11-26T22:21:07Z</time>
      </trkpt>
      <trkpt lat="42.1413" lon="2.4206">
        <ele>620.2</ele>
        <time>2018-11-26T22:21:09Z</time>
      </trkpt>
      <trkpt lat="42.14128" lon="2.42067">
        <ele>619.8</ele>
        <time>2018-11-26T22:21:11Z</time>
      </trkpt>
      <trkpt lat="42.14125" lon="2.42072">
        <ele>619.8</ele>
        <time>2018-11-26T22:21:13Z</time>
      </trkpt>
      <trkpt lat="42.14121" lon="2.42077">
        <ele>620.3</ele>
        <time>2018-11-26T22:21:15Z</time>
      </trkpt>
      <trkpt lat="42.14116" lon="2.42082">
        <ele>621.2</ele>
        <time>2018-11-26T22:21:18Z</time>
      </trkpt>
      <trkpt lat="42.14113" lon="2.42088">
        <ele>621.7</ele>
        <time>2018-11-26T22:21:20Z</time>
      </trkpt>
      <trkpt lat="42.1411" lon="2.42092">
        <ele>622.2</ele>
        <time>2018-11-26T22:21:22Z</time>
      </trkpt>
      <trkpt lat="42.14105" lon="2.42094">
        <ele>622.9</ele>
        <time>2018-11-26T22:21:24Z</time>
      </trkpt>
      <trkpt lat="42.14101" lon="2.42095">
        <ele>623.2</ele>
        <time>2018-11-26T22:21:26Z</time>
      </trkpt>
      <trkpt lat="42.14095" lon="2.42096">
        <ele>624</ele>
        <time>2018-11-26T22:21:28Z</time>
      </trkpt>
      <trkpt lat="42.14091" lon="2.42096">
        <ele>624.4</ele>
        <time>2018-11-26T22:21:30Z</time>
      </trkpt>
      <trkpt lat="42.14085" lon="2.42096">
        <ele>624.5</ele>
        <time>2018-11-26T22:21:32Z</time>
      </trkpt>
      <trkpt lat="42.14081" lon="2.42097">
        <ele>624.3</ele>
        <time>2018-11-26T22:21:34Z</time>
      </trkpt>
      <trkpt lat="42.14075" lon="2.42098">
        <ele>623.9</ele>
        <time>2018-11-26T22:21:36Z</time>
      </trkpt>
      <trkpt lat="42.1407" lon="2.42099">
        <ele>623.7</ele>
        <time>2018-11-26T22:21:38Z</time>
      </trkpt>
      <trkpt lat="42.14066" lon="2.42103">
        <ele>623.5</ele>
        <time>2018-11-26T22:21:40Z</time>
      </trkpt>
      <trkpt lat="42.14062" lon="2.42107">
        <ele>624.2</ele>
        <time>2018-11-26T22:21:42Z</time>
      </trkpt>
      <trkpt lat="42.1406" lon="2.42113">
        <ele>625.1</ele>
        <time>2018-11-26T22:21:44Z</time>
      </trkpt>
      <trkpt lat="42.14059" lon="2.42119">
        <ele>625.8</ele>
        <time>2018-11-26T22:21:46Z</time>
      </trkpt>
      <trkpt lat="42.14059" lon="2.42126">
        <ele>625.3</ele>
        <time>2018-11-26T22:21:48Z</time>
      </trkpt>
      <trkpt lat="42.14057" lon="2.42132">
        <ele>623.7</ele>
        <time>2018-11-26T22:21:50Z</time>
      </trkpt>
      <trkpt lat="42.14055" lon="2.42138">
        <ele>623.2</ele>
        <time>2018-11-26T22:21:52Z</time>
      </trkpt>
      <trkpt lat="42.14054" lon="2.42145">
        <ele>623.6</ele>
        <time>2018-11-26T22:21:54Z</time>
      </trkpt>
      <trkpt lat="42.14052" lon="2.42151">
        <ele>623.8</ele>
        <time>2018-11-26T22:21:56Z</time>
      </trkpt>
      <trkpt lat="42.1405" lon="2.42156">
        <ele>623.5</ele>
        <time>2018-11-26T22:21:58Z</time>
      </trkpt>
      <trkpt lat="42.14046" lon="2.42159">
        <ele>623.3</ele>
        <time>2018-11-26T22:21:59Z</time>
      </trkpt>
      <trkpt lat="42.14041" lon="2.42159">
        <ele>623</ele>
        <time>2018-11-26T22:22:01Z</time>
      </trkpt>
      <trkpt lat="42.14036" lon="2.42158">
        <ele>622.6</ele>
        <time>2018-11-26T22:22:03Z</time>
      </trkpt>
      <trkpt lat="42.14032" lon="2.42159">
        <ele>622.1</ele>
        <time>2018-11-26T22:22:05Z</time>
      </trkpt>
      <trkpt lat="42.14027" lon="2.42161">
        <ele>621.3</ele>
        <time>2018-11-26T22:22:07Z</time>
      </trkpt>
      <trkpt lat="42.14022" lon="2.42162">
        <ele>620.6</ele>
        <time>2018-11-26T22:22:09Z</time>
      </trkpt>
      <trkpt lat="42.14017" lon="2.4216">
        <ele>619.8</ele>
        <time>2018-11-26T22:22:11Z</time>
      </trkpt>
      <trkpt lat="42.14012" lon="2.42159">
        <ele>618.8</ele>
        <time>2018-11-26T22:22:13Z</time>
      </trkpt>
      <trkpt lat="42.14008" lon="2.42161">
        <ele>618</ele>
        <time>2018-11-26T22:22:15Z</time>
      </trkpt>
      <trkpt lat="42.14004" lon="2.42164">
        <ele>617.8</ele>
        <time>2018-11-26T22:22:17Z</time>
      </trkpt>
      <trkpt lat="42.14001" lon="2.42171">
        <ele>618</ele>
        <time>2018-11-26T22:22:19Z</time>
      </trkpt>
      <trkpt lat="42.13997" lon="2.42175">
        <ele>617.8</ele>
        <time>2018-11-26T22:22:21Z</time>
      </trkpt>
      <trkpt lat="42.13998" lon="2.42182">
        <ele>617.6</ele>
        <time>2018-11-26T22:22:23Z</time>
      </trkpt>
      <trkpt lat="42.13999" lon="2.42189">
        <ele>617</ele>
        <time>2018-11-26T22:22:25Z</time>
      </trkpt>
      <trkpt lat="42.13998" lon="2.42196">
        <ele>616.7</ele>
        <time>2018-11-26T22:22:28Z</time>
      </trkpt>
      <trkpt lat="42.13996" lon="2.42203">
        <ele>617</ele>
        <time>2018-11-26T22:22:30Z</time>
      </trkpt>
      <trkpt lat="42.13995" lon="2.4221">
        <ele>616.8</ele>
        <time>2018-11-26T22:22:32Z</time>
      </trkpt>
      <trkpt lat="42.13995" lon="2.42217">
        <ele>616.9</ele>
        <time>2018-11-26T22:22:34Z</time>
      </trkpt>
      <trkpt lat="42.13996" lon="2.42223">
        <ele>617.3</ele>
        <time>2018-11-26T22:22:36Z</time>
      </trkpt>
      <trkpt lat="42.13996" lon="2.42231">
        <ele>617</ele>
        <time>2018-11-26T22:22:38Z</time>
      </trkpt>
      <trkpt lat="42.13996" lon="2.42238">
        <ele>616.3</ele>
        <time>2018-11-26T22:22:40Z</time>
      </trkpt>
      <trkpt lat="42.13996" lon="2.42244">
        <ele>615.9</ele>
        <time>2018-11-26T22:22:42Z</time>
      </trkpt>
      <trkpt lat="42.13997" lon="2.42252">
        <ele>615.7</ele>
        <time>2018-11-26T22:22:44Z</time>
      </trkpt>
      <trkpt lat="42.13996" lon="2.4226">
        <ele>615.8</ele>
        <time>2018-11-26T22:22:47Z</time>
      </trkpt>
      <trkpt lat="42.13996" lon="2.42266">
        <ele>615.7</ele>
        <time>2018-11-26T22:22:49Z</time>
      </trkpt>
      <trkpt lat="42.13997" lon="2.42273">
        <ele>616.1</ele>
        <time>2018-11-26T22:22:51Z</time>
      </trkpt>
      <trkpt lat="42.13996" lon="2.4228">
        <ele>616.5</ele>
        <time>2018-11-26T22:22:53Z</time>
      </trkpt>
      <trkpt lat="42.13995" lon="2.42286">
        <ele>616.5</ele>
        <time>2018-11-26T22:22:55Z</time>
      </trkpt>
      <trkpt lat="42.13993" lon="2.42292">
        <ele>616.7</ele>
        <time>2018-11-26T22:22:57Z</time>
      </trkpt>
      <trkpt lat="42.1399" lon="2.42299">
        <ele>617.1</ele>
        <time>2018-11-26T22:22:59Z</time>
      </trkpt>
      <trkpt lat="42.13986" lon="2.42304">
        <ele>617.5</ele>
        <time>2018-11-26T22:23:01Z</time>
      </trkpt>
      <trkpt lat="42.13983" lon="2.42308">
        <ele>617.8</ele>
        <time>2018-11-26T22:23:03Z</time>
      </trkpt>
      <trkpt lat="42.13978" lon="2.4231">
        <ele>618.4</ele>
        <time>2018-11-26T22:23:05Z</time>
      </trkpt>
      <trkpt lat="42.13973" lon="2.4231">
        <ele>619.6</ele>
        <time>2018-11-26T22:23:07Z</time>
      </trkpt>
      <trkpt lat="42.13968" lon="2.42309">
        <ele>620.2</ele>
        <time>2018-11-26T22:23:09Z</time>
      </trkpt>
      <trkpt lat="42.13963" lon="2.42308">
        <ele>620.1</ele>
        <time>2018-11-26T22:23:11Z</time>
      </trkpt>
      <trkpt lat="42.13958" lon="2.42309">
        <ele>619.5</ele>
        <time>2018-11-26T22:23:13Z</time>
      </trkpt>
      <trkpt lat="42.13954" lon="2.42309">
        <ele>618.9</ele>
        <time>2018-11-26T22:23:15Z</time>
      </trkpt>
      <trkpt lat="42.13949" lon="2.42309">
        <ele>618</ele>
        <time>2018-11-26T22:23:17Z</time>
      </trkpt>
      <trkpt lat="42.13944" lon="2.42308">
        <ele>617.1</ele>
        <time>2018-11-26T22:23:19Z</time>
      </trkpt>
      <trkpt lat="42.13939" lon="2.42311">
        <ele>616.8</ele>
        <time>2018-11-26T22:23:21Z</time>
      </trkpt>
      <trkpt lat="42.13938" lon="2.42317">
        <ele>617</ele>
        <time>2018-11-26T22:23:23Z</time>
      </trkpt>
      <trkpt lat="42.13936" lon="2.42324">
        <ele>617.7</ele>
        <time>2018-11-26T22:23:25Z</time>
      </trkpt>
      <trkpt lat="42.13934" lon="2.4233">
        <ele>617.6</ele>
        <time>2018-11-26T22:23:27Z</time>
      </trkpt>
      <trkpt lat="42.13933" lon="2.42336">
        <ele>617.7</ele>
        <time>2018-11-26T22:23:29Z</time>
      </trkpt>
      <trkpt lat="42.13931" lon="2.42342">
        <ele>617.4</ele>
        <time>2018-11-26T22:23:31Z</time>
      </trkpt>
      <trkpt lat="42.1393" lon="2.42348">
        <ele>617.1</ele>
        <time>2018-11-26T22:23:32Z</time>
      </trkpt>
      <trkpt lat="42.1393" lon="2.42355">
        <ele>617</ele>
        <time>2018-11-26T22:23:35Z</time>
      </trkpt>
      <trkpt lat="42.1393" lon="2.42363">
        <ele>616.9</ele>
        <time>2018-11-26T22:23:37Z</time>
      </trkpt>
      <trkpt lat="42.13931" lon="2.4237">
        <ele>617.1</ele>
        <time>2018-11-26T22:23:39Z</time>
      </trkpt>
      <trkpt lat="42.13933" lon="2.42377">
        <ele>617.1</ele>
        <time>2018-11-26T22:23:41Z</time>
      </trkpt>
      <trkpt lat="42.13934" lon="2.42383">
        <ele>617</ele>
        <time>2018-11-26T22:23:43Z</time>
      </trkpt>
      <trkpt lat="42.13933" lon="2.42391">
        <ele>616.1</ele>
        <time>2018-11-26T22:23:45Z</time>
      </trkpt>
      <trkpt lat="42.13929" lon="2.42395">
        <ele>615.7</ele>
        <time>2018-11-26T22:23:47Z</time>
      </trkpt>
      <trkpt lat="42.13924" lon="2.42397">
        <ele>615.3</ele>
        <time>2018-11-26T22:23:49Z</time>
      </trkpt>
      <trkpt lat="42.13921" lon="2.42402">
        <ele>614.2</ele>
        <time>2018-11-26T22:23:51Z</time>
      </trkpt>
      <trkpt lat="42.13923" lon="2.42407">
        <ele>612.8</ele>
        <time>2018-11-26T22:23:53Z</time>
      </trkpt>
      <trkpt lat="42.13925" lon="2.42414">
        <ele>611.4</ele>
        <time>2018-11-26T22:23:55Z</time>
      </trkpt>
      <trkpt lat="42.13922" lon="2.42418">
        <ele>610.4</ele>
        <time>2018-11-26T22:23:57Z</time>
      </trkpt>
      <trkpt lat="42.13917" lon="2.42418">
        <ele>609.4</ele>
        <time>2018-11-26T22:23:59Z</time>
      </trkpt>
      <trkpt lat="42.13912" lon="2.42419">
        <ele>608.1</ele>
        <time>2018-11-26T22:24:01Z</time>
      </trkpt>
      <trkpt lat="42.13907" lon="2.42419">
        <ele>607</ele>
        <time>2018-11-26T22:24:03Z</time>
      </trkpt>
      <trkpt lat="42.13902" lon="2.42419">
        <ele>606</ele>
        <time>2018-11-26T22:24:05Z</time>
      </trkpt>
      <trkpt lat="42.13898" lon="2.42419">
        <ele>604.9</ele>
        <time>2018-11-26T22:24:07Z</time>
      </trkpt>
      <trkpt lat="42.13893" lon="2.4242">
        <ele>604.3</ele>
        <time>2018-11-26T22:24:08Z</time>
      </trkpt>
      <trkpt lat="42.13889" lon="2.42423">
        <ele>603.9</ele>
        <time>2018-11-26T22:24:10Z</time>
      </trkpt>
      <trkpt lat="42.13887" lon="2.4243">
        <ele>603.1</ele>
        <time>2018-11-26T22:24:12Z</time>
      </trkpt>
      <trkpt lat="42.13886" lon="2.42436">
        <ele>603</ele>
        <time>2018-11-26T22:24:15Z</time>
      </trkpt>
      <trkpt lat="42.13886" lon="2.42443">
        <ele>602.4</ele>
        <time>2018-11-26T22:24:16Z</time>
      </trkpt>
      <trkpt lat="42.13886" lon="2.4245">
        <ele>600.8</ele>
        <time>2018-11-26T22:24:18Z</time>
      </trkpt>
      <trkpt lat="42.13886" lon="2.42456">
        <ele>600</ele>
        <time>2018-11-26T22:24:20Z</time>
      </trkpt>
      <trkpt lat="42.13885" lon="2.42463">
        <ele>599.1</ele>
        <time>2018-11-26T22:24:23Z</time>
      </trkpt>
      <trkpt lat="42.13881" lon="2.42469">
        <ele>598.8</ele>
        <time>2018-11-26T22:24:25Z</time>
      </trkpt>
      <trkpt lat="42.13876" lon="2.42472">
        <ele>598.2</ele>
        <time>2018-11-26T22:24:27Z</time>
      </trkpt>
      <trkpt lat="42.13872" lon="2.42474">
        <ele>597.8</ele>
        <time>2018-11-26T22:24:29Z</time>
      </trkpt>
      <trkpt lat="42.13867" lon="2.42476">
        <ele>597.3</ele>
        <time>2018-11-26T22:24:31Z</time>
      </trkpt>
      <trkpt lat="42.13863" lon="2.42479">
        <ele>597</ele>
        <time>2018-11-26T22:24:33Z</time>
      </trkpt>
      <trkpt lat="42.13863" lon="2.42487">
        <ele>596.9</ele>
        <time>2018-11-26T22:24:35Z</time>
      </trkpt>
      <trkpt lat="42.13865" lon="2.42493">
        <ele>597.1</ele>
        <time>2018-11-26T22:24:37Z</time>
      </trkpt>
      <trkpt lat="42.13868" lon="2.42499">
        <ele>597.3</ele>
        <time>2018-11-26T22:24:39Z</time>
      </trkpt>
      <trkpt lat="42.13872" lon="2.42505">
        <ele>596.7</ele>
        <time>2018-11-26T22:24:41Z</time>
      </trkpt>
      <trkpt lat="42.13874" lon="2.42511">
        <ele>596.4</ele>
        <time>2018-11-26T22:24:43Z</time>
      </trkpt>
      <trkpt lat="42.13876" lon="2.42517">
        <ele>595.7</ele>
        <time>2018-11-26T22:24:45Z</time>
      </trkpt>
      <trkpt lat="42.13875" lon="2.42523">
        <ele>595</ele>
        <time>2018-11-26T22:24:47Z</time>
      </trkpt>
      <trkpt lat="42.13873" lon="2.42528">
        <ele>594.4</ele>
        <time>2018-11-26T22:24:49Z</time>
      </trkpt>
      <trkpt lat="42.1387" lon="2.42533">
        <ele>593.7</ele>
        <time>2018-11-26T22:24:51Z</time>
      </trkpt>
      <trkpt lat="42.13865" lon="2.42536">
        <ele>593</ele>
        <time>2018-11-26T22:24:53Z</time>
      </trkpt>
      <trkpt lat="42.13861" lon="2.42538">
        <ele>592.3</ele>
        <time>2018-11-26T22:24:55Z</time>
      </trkpt>
      <trkpt lat="42.13857" lon="2.4254">
        <ele>591.9</ele>
        <time>2018-11-26T22:24:57Z</time>
      </trkpt>
      <trkpt lat="42.13852" lon="2.42542">
        <ele>591.5</ele>
        <time>2018-11-26T22:24:59Z</time>
      </trkpt>
      <trkpt lat="42.13848" lon="2.42545">
        <ele>591.4</ele>
        <time>2018-11-26T22:25:01Z</time>
      </trkpt>
      <trkpt lat="42.13843" lon="2.42549">
        <ele>591.1</ele>
        <time>2018-11-26T22:25:03Z</time>
      </trkpt>
      <trkpt lat="42.1384" lon="2.42555">
        <ele>590.7</ele>
        <time>2018-11-26T22:25:05Z</time>
      </trkpt>
      <trkpt lat="42.13836" lon="2.4256">
        <ele>590.6</ele>
        <time>2018-11-26T22:25:07Z</time>
      </trkpt>
      <trkpt lat="42.13832" lon="2.42564">
        <ele>590.2</ele>
        <time>2018-11-26T22:25:09Z</time>
      </trkpt>
      <trkpt lat="42.13827" lon="2.42568">
        <ele>589.8</ele>
        <time>2018-11-26T22:25:11Z</time>
      </trkpt>
      <trkpt lat="42.13823" lon="2.42573">
        <ele>589.5</ele>
        <time>2018-11-26T22:25:13Z</time>
      </trkpt>
      <trkpt lat="42.13819" lon="2.42576">
        <ele>589.4</ele>
        <time>2018-11-26T22:25:16Z</time>
      </trkpt>
      <trkpt lat="42.13815" lon="2.4258">
        <ele>589.5</ele>
        <time>2018-11-26T22:25:17Z</time>
      </trkpt>
      <trkpt lat="42.13811" lon="2.42584">
        <ele>589.5</ele>
        <time>2018-11-26T22:25:20Z</time>
      </trkpt>
      <trkpt lat="42.13807" lon="2.42588">
        <ele>589.2</ele>
        <time>2018-11-26T22:25:22Z</time>
      </trkpt>
      <trkpt lat="42.13804" lon="2.42593">
        <ele>588.7</ele>
        <time>2018-11-26T22:25:23Z</time>
      </trkpt>
      <trkpt lat="42.13801" lon="2.42598">
        <ele>588.1</ele>
        <time>2018-11-26T22:25:25Z</time>
      </trkpt>
      <trkpt lat="42.13797" lon="2.42602">
        <ele>587.7</ele>
        <time>2018-11-26T22:25:27Z</time>
      </trkpt>
      <trkpt lat="42.13792" lon="2.42605">
        <ele>587.2</ele>
        <time>2018-11-26T22:25:29Z</time>
      </trkpt>
      <trkpt lat="42.13787" lon="2.42608">
        <ele>586.9</ele>
        <time>2018-11-26T22:25:31Z</time>
      </trkpt>
      <trkpt lat="42.13783" lon="2.42611">
        <ele>586.7</ele>
        <time>2018-11-26T22:25:33Z</time>
      </trkpt>
      <trkpt lat="42.13779" lon="2.42614">
        <ele>586.6</ele>
        <time>2018-11-26T22:25:35Z</time>
      </trkpt>
      <trkpt lat="42.13774" lon="2.42617">
        <ele>586.3</ele>
        <time>2018-11-26T22:25:37Z</time>
      </trkpt>
      <trkpt lat="42.13769" lon="2.42618">
        <ele>586.1</ele>
        <time>2018-11-26T22:25:39Z</time>
      </trkpt>
      <trkpt lat="42.13764" lon="2.42619">
        <ele>585.5</ele>
        <time>2018-11-26T22:25:41Z</time>
      </trkpt>
      <trkpt lat="42.13759" lon="2.42618">
        <ele>584.9</ele>
        <time>2018-11-26T22:25:43Z</time>
      </trkpt>
      <trkpt lat="42.13755" lon="2.42616">
        <ele>584</ele>
        <time>2018-11-26T22:25:45Z</time>
      </trkpt>
      <trkpt lat="42.13751" lon="2.42618">
        <ele>583.6</ele>
        <time>2018-11-26T22:25:47Z</time>
      </trkpt>
      <trkpt lat="42.13747" lon="2.42622">
        <ele>583.3</ele>
        <time>2018-11-26T22:25:49Z</time>
      </trkpt>
      <trkpt lat="42.13743" lon="2.42625">
        <ele>582.7</ele>
        <time>2018-11-26T22:25:51Z</time>
      </trkpt>
      <trkpt lat="42.13738" lon="2.42629">
        <ele>581.9</ele>
        <time>2018-11-26T22:25:53Z</time>
      </trkpt>
      <trkpt lat="42.13735" lon="2.42634">
        <ele>580.6</ele>
        <time>2018-11-26T22:25:55Z</time>
      </trkpt>
      <trkpt lat="42.13732" lon="2.42639">
        <ele>579.8</ele>
        <time>2018-11-26T22:25:57Z</time>
      </trkpt>
      <trkpt lat="42.13729" lon="2.42644">
        <ele>578.7</ele>
        <time>2018-11-26T22:25:59Z</time>
      </trkpt>
      <trkpt lat="42.13728" lon="2.42652">
        <ele>577.7</ele>
        <time>2018-11-26T22:26:01Z</time>
      </trkpt>
      <trkpt lat="42.13726" lon="2.42659">
        <ele>577.4</ele>
        <time>2018-11-26T22:26:04Z</time>
      </trkpt>
      <trkpt lat="42.13725" lon="2.42667">
        <ele>577.1</ele>
        <time>2018-11-26T22:26:06Z</time>
      </trkpt>
      <trkpt lat="42.13724" lon="2.42674">
        <ele>576.7</ele>
        <time>2018-11-26T22:26:08Z</time>
      </trkpt>
      <trkpt lat="42.13723" lon="2.42679">
        <ele>576.6</ele>
        <time>2018-11-26T22:26:10Z</time>
      </trkpt>
      <trkpt lat="42.13721" lon="2.42685">
        <ele>576.4</ele>
        <time>2018-11-26T22:26:12Z</time>
      </trkpt>
      <trkpt lat="42.13717" lon="2.42691">
        <ele>576.3</ele>
        <time>2018-11-26T22:26:14Z</time>
      </trkpt>
      <trkpt lat="42.13715" lon="2.42697">
        <ele>575.9</ele>
        <time>2018-11-26T22:26:16Z</time>
      </trkpt>
      <trkpt lat="42.13718" lon="2.42702">
        <ele>575.8</ele>
        <time>2018-11-26T22:26:18Z</time>
      </trkpt>
      <trkpt lat="42.13717" lon="2.42708">
        <ele>575.9</ele>
        <time>2018-11-26T22:26:20Z</time>
      </trkpt>
      <trkpt lat="42.13714" lon="2.42712">
        <ele>575.5</ele>
        <time>2018-11-26T22:26:22Z</time>
      </trkpt>
      <trkpt lat="42.13714" lon="2.42719">
        <ele>575.5</ele>
        <time>2018-11-26T22:26:23Z</time>
      </trkpt>
      <trkpt lat="42.13713" lon="2.42725">
        <ele>575.5</ele>
        <time>2018-11-26T22:26:25Z</time>
      </trkpt>
      <trkpt lat="42.1371" lon="2.42731">
        <ele>574.7</ele>
        <time>2018-11-26T22:26:27Z</time>
      </trkpt>
      <trkpt lat="42.13709" lon="2.42738">
        <ele>574.1</ele>
        <time>2018-11-26T22:26:29Z</time>
      </trkpt>
      <trkpt lat="42.13709" lon="2.42745">
        <ele>573.5</ele>
        <time>2018-11-26T22:26:32Z</time>
      </trkpt>
      <trkpt lat="42.1371" lon="2.42751">
        <ele>573.3</ele>
        <time>2018-11-26T22:26:33Z</time>
      </trkpt>
      <trkpt lat="42.13712" lon="2.42758">
        <ele>573</ele>
        <time>2018-11-26T22:26:36Z</time>
      </trkpt>
      <trkpt lat="42.13715" lon="2.42763">
        <ele>572.4</ele>
        <time>2018-11-26T22:26:38Z</time>
      </trkpt>
      <trkpt lat="42.1372" lon="2.42765">
        <ele>572</ele>
        <time>2018-11-26T22:26:39Z</time>
      </trkpt>
      <trkpt lat="42.13715" lon="2.42769">
        <ele>571.2</ele>
        <time>2018-11-26T22:26:42Z</time>
      </trkpt>
      <trkpt lat="42.13712" lon="2.42774">
        <ele>570.8</ele>
        <time>2018-11-26T22:26:44Z</time>
      </trkpt>
      <trkpt lat="42.13711" lon="2.42781">
        <ele>570.8</ele>
        <time>2018-11-26T22:26:46Z</time>
      </trkpt>
      <trkpt lat="42.13708" lon="2.42788">
        <ele>570.8</ele>
        <time>2018-11-26T22:26:48Z</time>
      </trkpt>
      <trkpt lat="42.13704" lon="2.42793">
        <ele>570.5</ele>
        <time>2018-11-26T22:26:50Z</time>
      </trkpt>
      <trkpt lat="42.137" lon="2.42798">
        <ele>570</ele>
        <time>2018-11-26T22:26:52Z</time>
      </trkpt>
      <trkpt lat="42.13696" lon="2.42801">
        <ele>569.3</ele>
        <time>2018-11-26T22:26:54Z</time>
      </trkpt>
      <trkpt lat="42.13696" lon="2.42807">
        <ele>569.1</ele>
        <time>2018-11-26T22:26:56Z</time>
      </trkpt>
      <trkpt lat="42.13695" lon="2.42813">
        <ele>567.5</ele>
        <time>2018-11-26T22:26:58Z</time>
      </trkpt>
      <trkpt lat="42.13695" lon="2.42819">
        <ele>566.3</ele>
        <time>2018-11-26T22:27:00Z</time>
      </trkpt>
      <trkpt lat="42.13693" lon="2.42826">
        <ele>565.4</ele>
        <time>2018-11-26T22:27:02Z</time>
      </trkpt>
      <trkpt lat="42.13691" lon="2.42832">
        <ele>564.6</ele>
        <time>2018-11-26T22:27:04Z</time>
      </trkpt>
      <trkpt lat="42.13692" lon="2.42839">
        <ele>563.4</ele>
        <time>2018-11-26T22:27:06Z</time>
      </trkpt>
      <trkpt lat="42.13692" lon="2.42846">
        <ele>562.3</ele>
        <time>2018-11-26T22:27:08Z</time>
      </trkpt>
      <trkpt lat="42.1369" lon="2.42852">
        <ele>561.5</ele>
        <time>2018-11-26T22:27:10Z</time>
      </trkpt>
      <trkpt lat="42.13689" lon="2.42859">
        <ele>561.4</ele>
        <time>2018-11-26T22:27:12Z</time>
      </trkpt>
      <trkpt lat="42.1369" lon="2.42866">
        <ele>560.9</ele>
        <time>2018-11-26T22:27:14Z</time>
      </trkpt>
      <trkpt lat="42.13691" lon="2.42873">
        <ele>560.6</ele>
        <time>2018-11-26T22:27:16Z</time>
      </trkpt>
      <trkpt lat="42.13692" lon="2.4288">
        <ele>560.1</ele>
        <time>2018-11-26T22:27:18Z</time>
      </trkpt>
      <trkpt lat="42.13692" lon="2.42888">
        <ele>560</ele>
        <time>2018-11-26T22:27:21Z</time>
      </trkpt>
      <trkpt lat="42.13693" lon="2.42895">
        <ele>559.8</ele>
        <time>2018-11-26T22:27:23Z</time>
      </trkpt>
      <trkpt lat="42.13692" lon="2.42902">
        <ele>559.7</ele>
        <time>2018-11-26T22:27:25Z</time>
      </trkpt>
      <trkpt lat="42.13694" lon="2.42908">
        <ele>559.5</ele>
        <time>2018-11-26T22:27:27Z</time>
      </trkpt>
      <trkpt lat="42.13694" lon="2.42915">
        <ele>558.9</ele>
        <time>2018-11-26T22:27:29Z</time>
      </trkpt>
      <trkpt lat="42.13695" lon="2.42922">
        <ele>558.5</ele>
        <time>2018-11-26T22:27:31Z</time>
      </trkpt>
      <trkpt lat="42.13695" lon="2.4293">
        <ele>558.2</ele>
        <time>2018-11-26T22:27:33Z</time>
      </trkpt>
      <trkpt lat="42.13692" lon="2.42936">
        <ele>557.9</ele>
        <time>2018-11-26T22:27:35Z</time>
      </trkpt>
      <trkpt lat="42.13691" lon="2.42942">
        <ele>557.7</ele>
        <time>2018-11-26T22:27:37Z</time>
      </trkpt>
      <trkpt lat="42.13689" lon="2.42948">
        <ele>557.1</ele>
        <time>2018-11-26T22:27:39Z</time>
      </trkpt>
      <trkpt lat="42.13686" lon="2.42954">
        <ele>556.6</ele>
        <time>2018-11-26T22:27:41Z</time>
      </trkpt>
      <trkpt lat="42.13684" lon="2.4296">
        <ele>556.1</ele>
        <time>2018-11-26T22:27:43Z</time>
      </trkpt>
      <trkpt lat="42.13683" lon="2.42967">
        <ele>555.3</ele>
        <time>2018-11-26T22:27:45Z</time>
      </trkpt>
      <trkpt lat="42.13683" lon="2.42973">
        <ele>554.6</ele>
        <time>2018-11-26T22:27:47Z</time>
      </trkpt>
      <trkpt lat="42.13682" lon="2.42981">
        <ele>554</ele>
        <time>2018-11-26T22:27:49Z</time>
      </trkpt>
      <trkpt lat="42.13682" lon="2.42987">
        <ele>553.5</ele>
        <time>2018-11-26T22:27:51Z</time>
      </trkpt>
      <trkpt lat="42.13682" lon="2.42994">
        <ele>553.1</ele>
        <time>2018-11-26T22:27:53Z</time>
      </trkpt>
      <trkpt lat="42.13681" lon="2.43">
        <ele>552.7</ele>
        <time>2018-11-26T22:27:55Z</time>
      </trkpt>
      <trkpt lat="42.1368" lon="2.43006">
        <ele>552.1</ele>
        <time>2018-11-26T22:27:57Z</time>
      </trkpt>
      <trkpt lat="42.1368" lon="2.43014">
        <ele>551.8</ele>
        <time>2018-11-26T22:27:59Z</time>
      </trkpt>
      <trkpt lat="42.13679" lon="2.43021">
        <ele>551.3</ele>
        <time>2018-11-26T22:28:01Z</time>
      </trkpt>
      <trkpt lat="42.13678" lon="2.43027">
        <ele>551.2</ele>
        <time>2018-11-26T22:28:03Z</time>
      </trkpt>
      <trkpt lat="42.13676" lon="2.43034">
        <ele>551.1</ele>
        <time>2018-11-26T22:28:06Z</time>
      </trkpt>
      <trkpt lat="42.13674" lon="2.4304">
        <ele>551</ele>
        <time>2018-11-26T22:28:07Z</time>
      </trkpt>
      <trkpt lat="42.13674" lon="2.43047">
        <ele>550.7</ele>
        <time>2018-11-26T22:28:09Z</time>
      </trkpt>
      <trkpt lat="42.13671" lon="2.43052">
        <ele>549.4</ele>
        <time>2018-11-26T22:28:11Z</time>
      </trkpt>
      <trkpt lat="42.13671" lon="2.43058">
        <ele>549.4</ele>
        <time>2018-11-26T22:28:13Z</time>
      </trkpt>
      <trkpt lat="42.13666" lon="2.43058">
        <ele>548.5</ele>
        <time>2018-11-26T22:28:15Z</time>
      </trkpt>
      <trkpt lat="42.13661" lon="2.43056">
        <ele>548.1</ele>
        <time>2018-11-26T22:28:17Z</time>
      </trkpt>
      <trkpt lat="42.13656" lon="2.43054">
        <ele>548.1</ele>
        <time>2018-11-26T22:28:19Z</time>
      </trkpt>
      <trkpt lat="42.13651" lon="2.43053">
        <ele>547.9</ele>
        <time>2018-11-26T22:28:21Z</time>
      </trkpt>
      <trkpt lat="42.13647" lon="2.43057">
        <ele>547</ele>
        <time>2018-11-26T22:28:23Z</time>
      </trkpt>
      <trkpt lat="42.13642" lon="2.43058">
        <ele>546.7</ele>
        <time>2018-11-26T22:28:25Z</time>
      </trkpt>
      <trkpt lat="42.13637" lon="2.43061">
        <ele>546.2</ele>
        <time>2018-11-26T22:28:28Z</time>
      </trkpt>
      <trkpt lat="42.13632" lon="2.43063">
        <ele>546.1</ele>
        <time>2018-11-26T22:28:30Z</time>
      </trkpt>
      <trkpt lat="42.13628" lon="2.43066">
        <ele>545.6</ele>
        <time>2018-11-26T22:28:31Z</time>
      </trkpt>
      <trkpt lat="42.13624" lon="2.43069">
        <ele>545.4</ele>
        <time>2018-11-26T22:28:33Z</time>
      </trkpt>
      <trkpt lat="42.13619" lon="2.43071">
        <ele>545.7</ele>
        <time>2018-11-26T22:28:35Z</time>
      </trkpt>
      <trkpt lat="42.13614" lon="2.43071">
        <ele>546.3</ele>
        <time>2018-11-26T22:28:37Z</time>
      </trkpt>
      <trkpt lat="42.13609" lon="2.43072">
        <ele>545.8</ele>
        <time>2018-11-26T22:28:39Z</time>
      </trkpt>
      <trkpt lat="42.13604" lon="2.43074">
        <ele>544.9</ele>
        <time>2018-11-26T22:28:41Z</time>
      </trkpt>
      <trkpt lat="42.13599" lon="2.43076">
        <ele>544.3</ele>
        <time>2018-11-26T22:28:44Z</time>
      </trkpt>
      <trkpt lat="42.13595" lon="2.43079">
        <ele>543.8</ele>
        <time>2018-11-26T22:28:45Z</time>
      </trkpt>
      <trkpt lat="42.13591" lon="2.43083">
        <ele>543.5</ele>
        <time>2018-11-26T22:28:47Z</time>
      </trkpt>
      <trkpt lat="42.13588" lon="2.43087">
        <ele>543.3</ele>
        <time>2018-11-26T22:28:49Z</time>
      </trkpt>
      <trkpt lat="42.13584" lon="2.43093">
        <ele>543</ele>
        <time>2018-11-26T22:28:51Z</time>
      </trkpt>
      <trkpt lat="42.13582" lon="2.43099">
        <ele>542.8</ele>
        <time>2018-11-26T22:28:53Z</time>
      </trkpt>
      <trkpt lat="42.13578" lon="2.43104">
        <ele>542.7</ele>
        <time>2018-11-26T22:28:56Z</time>
      </trkpt>
      <trkpt lat="42.13575" lon="2.43109">
        <ele>542.3</ele>
        <time>2018-11-26T22:28:57Z</time>
      </trkpt>
      <trkpt lat="42.13572" lon="2.43115">
        <ele>542.3</ele>
        <time>2018-11-26T22:29:00Z</time>
      </trkpt>
      <trkpt lat="42.13568" lon="2.43121">
        <ele>542.5</ele>
        <time>2018-11-26T22:29:02Z</time>
      </trkpt>
      <trkpt lat="42.13566" lon="2.43126">
        <ele>542.6</ele>
        <time>2018-11-26T22:29:04Z</time>
      </trkpt>
      <trkpt lat="42.13562" lon="2.43131">
        <ele>542.7</ele>
        <time>2018-11-26T22:29:06Z</time>
      </trkpt>
      <trkpt lat="42.13558" lon="2.43134">
        <ele>542.6</ele>
        <time>2018-11-26T22:29:08Z</time>
      </trkpt>
      <trkpt lat="42.13553" lon="2.43137">
        <ele>542.2</ele>
        <time>2018-11-26T22:29:10Z</time>
      </trkpt>
      <trkpt lat="42.1355" lon="2.43141">
        <ele>541.8</ele>
        <time>2018-11-26T22:29:12Z</time>
      </trkpt>
      <trkpt lat="42.13546" lon="2.43146">
        <ele>541.2</ele>
        <time>2018-11-26T22:29:14Z</time>
      </trkpt>
      <trkpt lat="42.13542" lon="2.4315">
        <ele>540</ele>
        <time>2018-11-26T22:29:16Z</time>
      </trkpt>
      <trkpt lat="42.13538" lon="2.43155">
        <ele>538.9</ele>
        <time>2018-11-26T22:29:18Z</time>
      </trkpt>
      <trkpt lat="42.13534" lon="2.43159">
        <ele>538.7</ele>
        <time>2018-11-26T22:29:20Z</time>
      </trkpt>
      <trkpt lat="42.13529" lon="2.43162">
        <ele>538</ele>
        <time>2018-11-26T22:29:22Z</time>
      </trkpt>
      <trkpt lat="42.13524" lon="2.43164">
        <ele>537.7</ele>
        <time>2018-11-26T22:29:24Z</time>
      </trkpt>
      <trkpt lat="42.1352" lon="2.43168">
        <ele>537.4</ele>
        <time>2018-11-26T22:29:26Z</time>
      </trkpt>
      <trkpt lat="42.13516" lon="2.43172">
        <ele>536.6</ele>
        <time>2018-11-26T22:29:28Z</time>
      </trkpt>
      <trkpt lat="42.13513" lon="2.43177">
        <ele>535.4</ele>
        <time>2018-11-26T22:29:30Z</time>
      </trkpt>
      <trkpt lat="42.13511" lon="2.43183">
        <ele>534</ele>
        <time>2018-11-26T22:29:32Z</time>
      </trkpt>
      <trkpt lat="42.13507" lon="2.43188">
        <ele>532</ele>
        <time>2018-11-26T22:29:34Z</time>
      </trkpt>
      <trkpt lat="42.13503" lon="2.43192">
        <ele>530.9</ele>
        <time>2018-11-26T22:29:36Z</time>
      </trkpt>
      <trkpt lat="42.13498" lon="2.43195">
        <ele>529.4</ele>
        <time>2018-11-26T22:29:38Z</time>
      </trkpt>
      <trkpt lat="42.13495" lon="2.432">
        <ele>528.4</ele>
        <time>2018-11-26T22:29:40Z</time>
      </trkpt>
      <trkpt lat="42.13491" lon="2.43204">
        <ele>527.5</ele>
        <time>2018-11-26T22:29:42Z</time>
      </trkpt>
      <trkpt lat="42.13486" lon="2.432">
        <ele>526.3</ele>
        <time>2018-11-26T22:29:45Z</time>
      </trkpt>
      <trkpt lat="42.13485" lon="2.43194">
        <ele>525</ele>
        <time>2018-11-26T22:29:46Z</time>
      </trkpt>
      <trkpt lat="42.13483" lon="2.43188">
        <ele>524</ele>
        <time>2018-11-26T22:29:48Z</time>
      </trkpt>
      <trkpt lat="42.13482" lon="2.43182">
        <ele>523</ele>
        <time>2018-11-26T22:29:50Z</time>
      </trkpt>
      <trkpt lat="42.13481" lon="2.43176">
        <ele>522</ele>
        <time>2018-11-26T22:29:52Z</time>
      </trkpt>
      <trkpt lat="42.13477" lon="2.43171">
        <ele>520.9</ele>
        <time>2018-11-26T22:29:54Z</time>
      </trkpt>
      <trkpt lat="42.13474" lon="2.43166">
        <ele>519.9</ele>
        <time>2018-11-26T22:29:56Z</time>
      </trkpt>
      <trkpt lat="42.13471" lon="2.43161">
        <ele>519.3</ele>
        <time>2018-11-26T22:29:58Z</time>
      </trkpt>
      <trkpt lat="42.13468" lon="2.43155">
        <ele>518.7</ele>
        <time>2018-11-26T22:30:00Z</time>
      </trkpt>
      <trkpt lat="42.13467" lon="2.43148">
        <ele>518</ele>
        <time>2018-11-26T22:30:02Z</time>
      </trkpt>
      <trkpt lat="42.13467" lon="2.4314">
        <ele>517.2</ele>
        <time>2018-11-26T22:30:04Z</time>
      </trkpt>
      <trkpt lat="42.13466" lon="2.43134">
        <ele>516.6</ele>
        <time>2018-11-26T22:30:06Z</time>
      </trkpt>
      <trkpt lat="42.13465" lon="2.43128">
        <ele>515.8</ele>
        <time>2018-11-26T22:30:08Z</time>
      </trkpt>
      <trkpt lat="42.13464" lon="2.43122">
        <ele>515.1</ele>
        <time>2018-11-26T22:30:10Z</time>
      </trkpt>
      <trkpt lat="42.13464" lon="2.43116">
        <ele>514.6</ele>
        <time>2018-11-26T22:30:12Z</time>
      </trkpt>
      <trkpt lat="42.13464" lon="2.43109">
        <ele>514.3</ele>
        <time>2018-11-26T22:30:14Z</time>
      </trkpt>
      <trkpt lat="42.13464" lon="2.43103">
        <ele>514.1</ele>
        <time>2018-11-26T22:30:16Z</time>
      </trkpt>
      <trkpt lat="42.13462" lon="2.43097">
        <ele>513.6</ele>
        <time>2018-11-26T22:30:18Z</time>
      </trkpt>
      <trkpt lat="42.1346" lon="2.43091">
        <ele>513.2</ele>
        <time>2018-11-26T22:30:19Z</time>
      </trkpt>
      <trkpt lat="42.13457" lon="2.43087">
        <ele>512.5</ele>
        <time>2018-11-26T22:30:21Z</time>
      </trkpt>
      <trkpt lat="42.13453" lon="2.43084">
        <ele>512.1</ele>
        <time>2018-11-26T22:30:23Z</time>
      </trkpt>
      <trkpt lat="42.13448" lon="2.43082">
        <ele>511.6</ele>
        <time>2018-11-26T22:30:25Z</time>
      </trkpt>
      <trkpt lat="42.13443" lon="2.4308">
        <ele>511.2</ele>
        <time>2018-11-26T22:30:27Z</time>
      </trkpt>
      <trkpt lat="42.13438" lon="2.43079">
        <ele>509.7</ele>
        <time>2018-11-26T22:30:29Z</time>
      </trkpt>
      <trkpt lat="42.13432" lon="2.43078">
        <ele>509.2</ele>
        <time>2018-11-26T22:30:32Z</time>
      </trkpt>
      <trkpt lat="42.13428" lon="2.43076">
        <ele>508.8</ele>
        <time>2018-11-26T22:30:34Z</time>
      </trkpt>
      <trkpt lat="42.13423" lon="2.43073">
        <ele>508.8</ele>
        <time>2018-11-26T22:30:35Z</time>
      </trkpt>
      <trkpt lat="42.13419" lon="2.43071">
        <ele>508.7</ele>
        <time>2018-11-26T22:30:37Z</time>
      </trkpt>
      <trkpt lat="42.13414" lon="2.43068">
        <ele>508.6</ele>
        <time>2018-11-26T22:30:39Z</time>
      </trkpt>
      <trkpt lat="42.1341" lon="2.43065">
        <ele>508.7</ele>
        <time>2018-11-26T22:30:41Z</time>
      </trkpt>
      <trkpt lat="42.13405" lon="2.43061">
        <ele>508.6</ele>
        <time>2018-11-26T22:30:44Z</time>
      </trkpt>
      <trkpt lat="42.13401" lon="2.43058">
        <ele>508.6</ele>
        <time>2018-11-26T22:30:46Z</time>
      </trkpt>
      <trkpt lat="42.13396" lon="2.43056">
        <ele>508.7</ele>
        <time>2018-11-26T22:30:48Z</time>
      </trkpt>
      <trkpt lat="42.13391" lon="2.43053">
        <ele>508.7</ele>
        <time>2018-11-26T22:30:50Z</time>
      </trkpt>
      <trkpt lat="42.13386" lon="2.43053">
        <ele>508.9</ele>
        <time>2018-11-26T22:30:52Z</time>
      </trkpt>
      <trkpt lat="42.13381" lon="2.43052">
        <ele>508.6</ele>
        <time>2018-11-26T22:30:54Z</time>
      </trkpt>
      <trkpt lat="42.13376" lon="2.43053">
        <ele>508.5</ele>
        <time>2018-11-26T22:30:56Z</time>
      </trkpt>
      <trkpt lat="42.13372" lon="2.43055">
        <ele>508.6</ele>
        <time>2018-11-26T22:30:58Z</time>
      </trkpt>
      <trkpt lat="42.13367" lon="2.43056">
        <ele>508.7</ele>
        <time>2018-11-26T22:31:00Z</time>
      </trkpt>
      <trkpt lat="42.13362" lon="2.43057">
        <ele>508.9</ele>
        <time>2018-11-26T22:31:02Z</time>
      </trkpt>
      <trkpt lat="42.13358" lon="2.4306">
        <ele>508.9</ele>
        <time>2018-11-26T22:31:04Z</time>
      </trkpt>
      <trkpt lat="42.13353" lon="2.43063">
        <ele>508.9</ele>
        <time>2018-11-26T22:31:05Z</time>
      </trkpt>
      <trkpt lat="42.13348" lon="2.43067">
        <ele>508.5</ele>
        <time>2018-11-26T22:31:08Z</time>
      </trkpt>
      <trkpt lat="42.13344" lon="2.43069">
        <ele>508.4</ele>
        <time>2018-11-26T22:31:10Z</time>
      </trkpt>
      <trkpt lat="42.1334" lon="2.43073">
        <ele>508.5</ele>
        <time>2018-11-26T22:31:12Z</time>
      </trkpt>
      <trkpt lat="42.13336" lon="2.43078">
        <ele>508.6</ele>
        <time>2018-11-26T22:31:14Z</time>
      </trkpt>
      <trkpt lat="42.13332" lon="2.43082">
        <ele>508.4</ele>
        <time>2018-11-26T22:31:16Z</time>
      </trkpt>
      <trkpt lat="42.13328" lon="2.43085">
        <ele>508.4</ele>
        <time>2018-11-26T22:31:17Z</time>
      </trkpt>
      <trkpt lat="42.13325" lon="2.43091">
        <ele>508.5</ele>
        <time>2018-11-26T22:31:20Z</time>
      </trkpt>
      <trkpt lat="42.13324" lon="2.43097">
        <ele>508.9</ele>
        <time>2018-11-26T22:31:21Z</time>
      </trkpt>
      <trkpt lat="42.13319" lon="2.43096">
        <ele>509.3</ele>
        <time>2018-11-26T22:31:24Z</time>
      </trkpt>
      <trkpt lat="42.13314" lon="2.43095">
        <ele>509.2</ele>
        <time>2018-11-26T22:31:26Z</time>
      </trkpt>
      <trkpt lat="42.13308" lon="2.43095">
        <ele>509.2</ele>
        <time>2018-11-26T22:31:28Z</time>
      </trkpt>
      <trkpt lat="42.13303" lon="2.43094">
        <ele>509.5</ele>
        <time>2018-11-26T22:31:30Z</time>
      </trkpt>
      <trkpt lat="42.13299" lon="2.43092">
        <ele>509.9</ele>
        <time>2018-11-26T22:31:32Z</time>
      </trkpt>
      <trkpt lat="42.13294" lon="2.43091">
        <ele>510.1</ele>
        <time>2018-11-26T22:31:34Z</time>
      </trkpt>
      <trkpt lat="42.13289" lon="2.43089">
        <ele>510.4</ele>
        <time>2018-11-26T22:31:36Z</time>
      </trkpt>
      <trkpt lat="42.13284" lon="2.43088">
        <ele>510.9</ele>
        <time>2018-11-26T22:31:38Z</time>
      </trkpt>
      <trkpt lat="42.13279" lon="2.43087">
        <ele>511</ele>
        <time>2018-11-26T22:31:40Z</time>
      </trkpt>
      <trkpt lat="42.13274" lon="2.43086">
        <ele>511</ele>
        <time>2018-11-26T22:31:42Z</time>
      </trkpt>
      <trkpt lat="42.13269" lon="2.43085">
        <ele>511</ele>
        <time>2018-11-26T22:31:44Z</time>
      </trkpt>
      <trkpt lat="42.13264" lon="2.43084">
        <ele>511.2</ele>
        <time>2018-11-26T22:31:46Z</time>
      </trkpt>
      <trkpt lat="42.13259" lon="2.43084">
        <ele>511.5</ele>
        <time>2018-11-26T22:31:48Z</time>
      </trkpt>
      <trkpt lat="42.13253" lon="2.43082">
        <ele>511.4</ele>
        <time>2018-11-26T22:31:50Z</time>
      </trkpt>
      <trkpt lat="42.13248" lon="2.43081">
        <ele>511.3</ele>
        <time>2018-11-26T22:31:52Z</time>
      </trkpt>
      <trkpt lat="42.13243" lon="2.43079">
        <ele>511.5</ele>
        <time>2018-11-26T22:31:54Z</time>
      </trkpt>
      <trkpt lat="42.13238" lon="2.43078">
        <ele>511.5</ele>
        <time>2018-11-26T22:31:57Z</time>
      </trkpt>
      <trkpt lat="42.13233" lon="2.43077">
        <ele>511.5</ele>
        <time>2018-11-26T22:31:59Z</time>
      </trkpt>
      <trkpt lat="42.13228" lon="2.43076">
        <ele>511.4</ele>
        <time>2018-11-26T22:32:01Z</time>
      </trkpt>
      <trkpt lat="42.13223" lon="2.43074">
        <ele>511.4</ele>
        <time>2018-11-26T22:32:03Z</time>
      </trkpt>
      <trkpt lat="42.13217" lon="2.43073">
        <ele>511.1</ele>
        <time>2018-11-26T22:32:05Z</time>
      </trkpt>
      <trkpt lat="42.13212" lon="2.43072">
        <ele>510.8</ele>
        <time>2018-11-26T22:32:07Z</time>
      </trkpt>
      <trkpt lat="42.13207" lon="2.43071">
        <ele>511.1</ele>
        <time>2018-11-26T22:32:09Z</time>
      </trkpt>
      <trkpt lat="42.13201" lon="2.43069">
        <ele>511.4</ele>
        <time>2018-11-26T22:32:11Z</time>
      </trkpt>
      <trkpt lat="42.13196" lon="2.43068">
        <ele>511.4</ele>
        <time>2018-11-26T22:32:14Z</time>
      </trkpt>
      <trkpt lat="42.13191" lon="2.43066">
        <ele>511.3</ele>
        <time>2018-11-26T22:32:16Z</time>
      </trkpt>
      <trkpt lat="42.13186" lon="2.43065">
        <ele>511.5</ele>
        <time>2018-11-26T22:32:18Z</time>
      </trkpt>
      <trkpt lat="42.1318" lon="2.43064">
        <ele>511.4</ele>
        <time>2018-11-26T22:32:20Z</time>
      </trkpt>
      <trkpt lat="42.13176" lon="2.43065">
        <ele>511.5</ele>
        <time>2018-11-26T22:32:22Z</time>
      </trkpt>
      <trkpt lat="42.13171" lon="2.43066">
        <ele>511.6</ele>
        <time>2018-11-26T22:32:24Z</time>
      </trkpt>
      <trkpt lat="42.13166" lon="2.43068">
        <ele>511.7</ele>
        <time>2018-11-26T22:32:26Z</time>
      </trkpt>
      <trkpt lat="42.13162" lon="2.43073">
        <ele>511.5</ele>
        <time>2018-11-26T22:32:28Z</time>
      </trkpt>
      <trkpt lat="42.13158" lon="2.43078">
        <ele>511.2</ele>
        <time>2018-11-26T22:32:30Z</time>
      </trkpt>
      <trkpt lat="42.13155" lon="2.43084">
        <ele>510.8</ele>
        <time>2018-11-26T22:32:32Z</time>
      </trkpt>
      <trkpt lat="42.13153" lon="2.4309">
        <ele>510.3</ele>
        <time>2018-11-26T22:32:34Z</time>
      </trkpt>
      <trkpt lat="42.1315" lon="2.43096">
        <ele>509.5</ele>
        <time>2018-11-26T22:32:36Z</time>
      </trkpt>
      <trkpt lat="42.13147" lon="2.43101">
        <ele>509.1</ele>
        <time>2018-11-26T22:32:38Z</time>
      </trkpt>
      <trkpt lat="42.13144" lon="2.43108">
        <ele>508.8</ele>
        <time>2018-11-26T22:32:41Z</time>
      </trkpt>
      <trkpt lat="42.13141" lon="2.43115">
        <ele>508.2</ele>
        <time>2018-11-26T22:32:43Z</time>
      </trkpt>
      <trkpt lat="42.13139" lon="2.43121">
        <ele>508.1</ele>
        <time>2018-11-26T22:32:45Z</time>
      </trkpt>
      <trkpt lat="42.13136" lon="2.43126">
        <ele>508</ele>
        <time>2018-11-26T22:32:47Z</time>
      </trkpt>
      <trkpt lat="42.13133" lon="2.43132">
        <ele>507.7</ele>
        <time>2018-11-26T22:32:49Z</time>
      </trkpt>
      <trkpt lat="42.1313" lon="2.43139">
        <ele>507.5</ele>
        <time>2018-11-26T22:32:51Z</time>
      </trkpt>
      <trkpt lat="42.13127" lon="2.43144">
        <ele>507.2</ele>
        <time>2018-11-26T22:32:54Z</time>
      </trkpt>
      <trkpt lat="42.13124" lon="2.4315">
        <ele>506.8</ele>
        <time>2018-11-26T22:32:56Z</time>
      </trkpt>
      <trkpt lat="42.13121" lon="2.43156">
        <ele>506.5</ele>
        <time>2018-11-26T22:32:58Z</time>
      </trkpt>
      <trkpt lat="42.13118" lon="2.43162">
        <ele>506.1</ele>
        <time>2018-11-26T22:33:00Z</time>
      </trkpt>
      <trkpt lat="42.13115" lon="2.43169">
        <ele>505.9</ele>
        <time>2018-11-26T22:33:02Z</time>
      </trkpt>
      <trkpt lat="42.13113" lon="2.43176">
        <ele>505.7</ele>
        <time>2018-11-26T22:33:04Z</time>
      </trkpt>
      <trkpt lat="42.1311" lon="2.43181">
        <ele>505.7</ele>
        <time>2018-11-26T22:33:06Z</time>
      </trkpt>
      <trkpt lat="42.13107" lon="2.43187">
        <ele>505.5</ele>
        <time>2018-11-26T22:33:08Z</time>
      </trkpt>
      <trkpt lat="42.13105" lon="2.43192">
        <ele>505.5</ele>
        <time>2018-11-26T22:33:10Z</time>
      </trkpt>
      <trkpt lat="42.13103" lon="2.43199">
        <ele>505.2</ele>
        <time>2018-11-26T22:33:12Z</time>
      </trkpt>
      <trkpt lat="42.131" lon="2.43206">
        <ele>504.5</ele>
        <time>2018-11-26T22:33:15Z</time>
      </trkpt>
      <trkpt lat="42.13099" lon="2.43213">
        <ele>504.1</ele>
        <time>2018-11-26T22:33:17Z</time>
      </trkpt>
      <trkpt lat="42.13099" lon="2.43219">
        <ele>504</ele>
        <time>2018-11-26T22:33:19Z</time>
      </trkpt>
      <trkpt lat="42.13102" lon="2.43225">
        <ele>503.9</ele>
        <time>2018-11-26T22:33:21Z</time>
      </trkpt>
      <trkpt lat="42.13103" lon="2.43231">
        <ele>503.5</ele>
        <time>2018-11-26T22:33:23Z</time>
      </trkpt>
      <trkpt lat="42.13106" lon="2.43238">
        <ele>503.2</ele>
        <time>2018-11-26T22:33:25Z</time>
      </trkpt>
      <trkpt lat="42.1311" lon="2.43243">
        <ele>503.2</ele>
        <time>2018-11-26T22:33:27Z</time>
      </trkpt>
      <trkpt lat="42.13111" lon="2.43249">
        <ele>503</ele>
        <time>2018-11-26T22:33:29Z</time>
      </trkpt>
      <trkpt lat="42.13113" lon="2.43255">
        <ele>503</ele>
        <time>2018-11-26T22:33:31Z</time>
      </trkpt>
      <trkpt lat="42.13116" lon="2.43261">
        <ele>502.8</ele>
        <time>2018-11-26T22:33:33Z</time>
      </trkpt>
      <trkpt lat="42.13118" lon="2.43266">
        <ele>503</ele>
        <time>2018-11-26T22:33:35Z</time>
      </trkpt>
      <trkpt lat="42.13119" lon="2.43273">
        <ele>502.9</ele>
        <time>2018-11-26T22:33:37Z</time>
      </trkpt>
      <trkpt lat="42.1312" lon="2.43281">
        <ele>502.7</ele>
        <time>2018-11-26T22:33:39Z</time>
      </trkpt>
      <trkpt lat="42.13122" lon="2.43287">
        <ele>502.4</ele>
        <time>2018-11-26T22:33:41Z</time>
      </trkpt>
      <trkpt lat="42.13122" lon="2.43293">
        <ele>502.2</ele>
        <time>2018-11-26T22:33:43Z</time>
      </trkpt>
      <trkpt lat="42.13123" lon="2.43299">
        <ele>502</ele>
        <time>2018-11-26T22:33:45Z</time>
      </trkpt>
      <trkpt lat="42.13125" lon="2.43305">
        <ele>501.8</ele>
        <time>2018-11-26T22:33:47Z</time>
      </trkpt>
      <trkpt lat="42.13127" lon="2.43312">
        <ele>501.7</ele>
        <time>2018-11-26T22:33:49Z</time>
      </trkpt>
      <trkpt lat="42.13128" lon="2.43319">
        <ele>501.4</ele>
        <time>2018-11-26T22:33:51Z</time>
      </trkpt>
      <trkpt lat="42.1313" lon="2.43325">
        <ele>501.4</ele>
        <time>2018-11-26T22:33:53Z</time>
      </trkpt>
      <trkpt lat="42.13131" lon="2.43332">
        <ele>501.1</ele>
        <time>2018-11-26T22:33:55Z</time>
      </trkpt>
      <trkpt lat="42.13132" lon="2.43338">
        <ele>501.1</ele>
        <time>2018-11-26T22:33:57Z</time>
      </trkpt>
      <trkpt lat="42.13131" lon="2.43344">
        <ele>500.7</ele>
        <time>2018-11-26T22:33:59Z</time>
      </trkpt>
      <trkpt lat="42.13127" lon="2.43349">
        <ele>500.6</ele>
        <time>2018-11-26T22:34:01Z</time>
      </trkpt>
      <trkpt lat="42.13123" lon="2.43355">
        <ele>500.3</ele>
        <time>2018-11-26T22:34:03Z</time>
      </trkpt>
      <trkpt lat="42.13119" lon="2.43359">
        <ele>500.1</ele>
        <time>2018-11-26T22:34:05Z</time>
      </trkpt>
      <trkpt lat="42.13116" lon="2.43364">
        <ele>500</ele>
        <time>2018-11-26T22:34:07Z</time>
      </trkpt>
      <trkpt lat="42.13112" lon="2.4337">
        <ele>499.8</ele>
        <time>2018-11-26T22:34:09Z</time>
      </trkpt>
      <trkpt lat="42.13109" lon="2.43374">
        <ele>499.7</ele>
        <time>2018-11-26T22:34:11Z</time>
      </trkpt>
      <trkpt lat="42.13105" lon="2.43378">
        <ele>499.7</ele>
        <time>2018-11-26T22:34:13Z</time>
      </trkpt>
      <trkpt lat="42.13102" lon="2.43382">
        <ele>499.7</ele>
        <time>2018-11-26T22:34:15Z</time>
      </trkpt>
      <trkpt lat="42.13098" lon="2.43387">
        <ele>499.6</ele>
        <time>2018-11-26T22:34:17Z</time>
      </trkpt>
      <trkpt lat="42.13094" lon="2.43393">
        <ele>499.6</ele>
        <time>2018-11-26T22:34:19Z</time>
      </trkpt>
      <trkpt lat="42.13092" lon="2.43398">
        <ele>499.7</ele>
        <time>2018-11-26T22:34:21Z</time>
      </trkpt>
      <trkpt lat="42.1309" lon="2.43405">
        <ele>499.7</ele>
        <time>2018-11-26T22:34:23Z</time>
      </trkpt>
      <trkpt lat="42.13086" lon="2.4341">
        <ele>499.7</ele>
        <time>2018-11-26T22:34:25Z</time>
      </trkpt>
      <trkpt lat="42.13083" lon="2.43415">
        <ele>499.6</ele>
        <time>2018-11-26T22:34:27Z</time>
      </trkpt>
      <trkpt lat="42.13081" lon="2.4342">
        <ele>499.6</ele>
        <time>2018-11-26T22:34:29Z</time>
      </trkpt>
      <trkpt lat="42.13077" lon="2.43425">
        <ele>499.4</ele>
        <time>2018-11-26T22:34:31Z</time>
      </trkpt>
      <trkpt lat="42.13073" lon="2.4343">
        <ele>499.4</ele>
        <time>2018-11-26T22:34:33Z</time>
      </trkpt>
      <trkpt lat="42.1307" lon="2.43436">
        <ele>499.6</ele>
        <time>2018-11-26T22:34:36Z</time>
      </trkpt>
      <trkpt lat="42.13066" lon="2.43442">
        <ele>499.4</ele>
        <time>2018-11-26T22:34:38Z</time>
      </trkpt>
      <trkpt lat="42.13063" lon="2.43448">
        <ele>499.1</ele>
        <time>2018-11-26T22:34:40Z</time>
      </trkpt>
      <trkpt lat="42.1306" lon="2.43453">
        <ele>498.9</ele>
        <time>2018-11-26T22:34:42Z</time>
      </trkpt>
      <trkpt lat="42.13057" lon="2.43459">
        <ele>498.9</ele>
        <time>2018-11-26T22:34:44Z</time>
      </trkpt>
      <trkpt lat="42.13054" lon="2.43465">
        <ele>499</ele>
        <time>2018-11-26T22:34:46Z</time>
      </trkpt>
      <trkpt lat="42.1305" lon="2.4347">
        <ele>498.7</ele>
        <time>2018-11-26T22:34:48Z</time>
      </trkpt>
      <trkpt lat="42.13048" lon="2.43476">
        <ele>498.5</ele>
        <time>2018-11-26T22:34:50Z</time>
      </trkpt>
      <trkpt lat="42.13045" lon="2.43481">
        <ele>498.3</ele>
        <time>2018-11-26T22:34:52Z</time>
      </trkpt>
      <trkpt lat="42.13041" lon="2.43488">
        <ele>498</ele>
        <time>2018-11-26T22:34:55Z</time>
      </trkpt>
      <trkpt lat="42.13039" lon="2.43494">
        <ele>498.3</ele>
        <time>2018-11-26T22:34:57Z</time>
      </trkpt>
      <trkpt lat="42.13036" lon="2.435">
        <ele>498.3</ele>
        <time>2018-11-26T22:34:59Z</time>
      </trkpt>
      <trkpt lat="42.13033" lon="2.43505">
        <ele>498.2</ele>
        <time>2018-11-26T22:35:01Z</time>
      </trkpt>
      <trkpt lat="42.13031" lon="2.43512">
        <ele>498.1</ele>
        <time>2018-11-26T22:35:03Z</time>
      </trkpt>
      <trkpt lat="42.13028" lon="2.43518">
        <ele>497.9</ele>
        <time>2018-11-26T22:35:05Z</time>
      </trkpt>
      <trkpt lat="42.13025" lon="2.43524">
        <ele>497.7</ele>
        <time>2018-11-26T22:35:07Z</time>
      </trkpt>
      <trkpt lat="42.13022" lon="2.4353">
        <ele>497.6</ele>
        <time>2018-11-26T22:35:10Z</time>
      </trkpt>
      <trkpt lat="42.13019" lon="2.43537">
        <ele>497.5</ele>
        <time>2018-11-26T22:35:12Z</time>
      </trkpt>
      <trkpt lat="42.13017" lon="2.43543">
        <ele>497.3</ele>
        <time>2018-11-26T22:35:14Z</time>
      </trkpt>
      <trkpt lat="42.13015" lon="2.4355">
        <ele>497.3</ele>
        <time>2018-11-26T22:35:16Z</time>
      </trkpt>
      <trkpt lat="42.13013" lon="2.43556">
        <ele>497</ele>
        <time>2018-11-26T22:35:18Z</time>
      </trkpt>
      <trkpt lat="42.13011" lon="2.43562">
        <ele>496.8</ele>
        <time>2018-11-26T22:35:20Z</time>
      </trkpt>
      <trkpt lat="42.1301" lon="2.43568">
        <ele>496.7</ele>
        <time>2018-11-26T22:35:22Z</time>
      </trkpt>
      <trkpt lat="42.13008" lon="2.43575">
        <ele>496.8</ele>
        <time>2018-11-26T22:35:24Z</time>
      </trkpt>
      <trkpt lat="42.13007" lon="2.43581">
        <ele>496.7</ele>
        <time>2018-11-26T22:35:26Z</time>
      </trkpt>
      <trkpt lat="42.13004" lon="2.43588">
        <ele>496.5</ele>
        <time>2018-11-26T22:35:28Z</time>
      </trkpt>
      <trkpt lat="42.13003" lon="2.43594">
        <ele>496.6</ele>
        <time>2018-11-26T22:35:30Z</time>
      </trkpt>
      <trkpt lat="42.13001" lon="2.43601">
        <ele>496.5</ele>
        <time>2018-11-26T22:35:32Z</time>
      </trkpt>
      <trkpt lat="42.12999" lon="2.43608">
        <ele>496.7</ele>
        <time>2018-11-26T22:35:35Z</time>
      </trkpt>
      <trkpt lat="42.12998" lon="2.43615">
        <ele>496.8</ele>
        <time>2018-11-26T22:35:37Z</time>
      </trkpt>
      <trkpt lat="42.12998" lon="2.43622">
        <ele>496.9</ele>
        <time>2018-11-26T22:35:39Z</time>
      </trkpt>
      <trkpt lat="42.12996" lon="2.43629">
        <ele>497.1</ele>
        <time>2018-11-26T22:35:41Z</time>
      </trkpt>
      <trkpt lat="42.12995" lon="2.43636">
        <ele>497.1</ele>
        <time>2018-11-26T22:35:43Z</time>
      </trkpt>
      <trkpt lat="42.12995" lon="2.43644">
        <ele>496.9</ele>
        <time>2018-11-26T22:35:45Z</time>
      </trkpt>
      <trkpt lat="42.12994" lon="2.43651">
        <ele>496.8</ele>
        <time>2018-11-26T22:35:47Z</time>
      </trkpt>
      <trkpt lat="42.12993" lon="2.43657">
        <ele>496.9</ele>
        <time>2018-11-26T22:35:49Z</time>
      </trkpt>
      <trkpt lat="42.12992" lon="2.43665">
        <ele>496.9</ele>
        <time>2018-11-26T22:35:52Z</time>
      </trkpt>
      <trkpt lat="42.12991" lon="2.43672">
        <ele>496.8</ele>
        <time>2018-11-26T22:35:54Z</time>
      </trkpt>
      <trkpt lat="42.12989" lon="2.43678">
        <ele>496.8</ele>
        <time>2018-11-26T22:35:56Z</time>
      </trkpt>
      <trkpt lat="42.12987" lon="2.43683">
        <ele>496.7</ele>
        <time>2018-11-26T22:35:57Z</time>
      </trkpt>
      <trkpt lat="42.12985" lon="2.43689">
        <ele>497</ele>
        <time>2018-11-26T22:35:59Z</time>
      </trkpt>
      <trkpt lat="42.1298" lon="2.43688">
        <ele>496.2</ele>
        <time>2018-11-26T22:36:01Z</time>
      </trkpt>
      <trkpt lat="42.12975" lon="2.43691">
        <ele>496.2</ele>
        <time>2018-11-26T22:36:03Z</time>
      </trkpt>
      <trkpt lat="42.12969" lon="2.43692">
        <ele>496.6</ele>
        <time>2018-11-26T22:36:06Z</time>
      </trkpt>
      <trkpt lat="42.12964" lon="2.43694">
        <ele>496.4</ele>
        <time>2018-11-26T22:36:08Z</time>
      </trkpt>
      <trkpt lat="42.12959" lon="2.43697">
        <ele>496.5</ele>
        <time>2018-11-26T22:36:10Z</time>
      </trkpt>
      <trkpt lat="42.12954" lon="2.437">
        <ele>496.5</ele>
        <time>2018-11-26T22:36:12Z</time>
      </trkpt>
      <trkpt lat="42.12949" lon="2.43703">
        <ele>496.2</ele>
        <time>2018-11-26T22:36:14Z</time>
      </trkpt>
      <trkpt lat="42.12945" lon="2.43705">
        <ele>496.2</ele>
        <time>2018-11-26T22:36:16Z</time>
      </trkpt>
      <trkpt lat="42.1294" lon="2.43709">
        <ele>496.3</ele>
        <time>2018-11-26T22:36:18Z</time>
      </trkpt>
      <trkpt lat="42.12935" lon="2.43712">
        <ele>496.3</ele>
        <time>2018-11-26T22:36:21Z</time>
      </trkpt>
      <trkpt lat="42.1293" lon="2.43716">
        <ele>496.4</ele>
        <time>2018-11-26T22:36:23Z</time>
      </trkpt>
      <trkpt lat="42.12926" lon="2.4372">
        <ele>496.2</ele>
        <time>2018-11-26T22:36:25Z</time>
      </trkpt>
      <trkpt lat="42.12921" lon="2.43723">
        <ele>496.3</ele>
        <time>2018-11-26T22:36:27Z</time>
      </trkpt>
      <trkpt lat="42.12917" lon="2.43727">
        <ele>496.4</ele>
        <time>2018-11-26T22:36:29Z</time>
      </trkpt>
      <trkpt lat="42.12913" lon="2.43731">
        <ele>496.3</ele>
        <time>2018-11-26T22:36:31Z</time>
      </trkpt>
      <trkpt lat="42.12909" lon="2.43735">
        <ele>496.1</ele>
        <time>2018-11-26T22:36:33Z</time>
      </trkpt>
      <trkpt lat="42.12904" lon="2.4374">
        <ele>496.2</ele>
        <time>2018-11-26T22:36:35Z</time>
      </trkpt>
      <trkpt lat="42.12901" lon="2.43744">
        <ele>496.2</ele>
        <time>2018-11-26T22:36:37Z</time>
      </trkpt>
      <trkpt lat="42.12897" lon="2.43749">
        <ele>495.9</ele>
        <time>2018-11-26T22:36:39Z</time>
      </trkpt>
      <trkpt lat="42.12894" lon="2.43755">
        <ele>496.1</ele>
        <time>2018-11-26T22:36:41Z</time>
      </trkpt>
      <trkpt lat="42.12891" lon="2.43761">
        <ele>496.2</ele>
        <time>2018-11-26T22:36:44Z</time>
      </trkpt>
      <trkpt lat="42.12888" lon="2.43767">
        <ele>495.9</ele>
        <time>2018-11-26T22:36:46Z</time>
      </trkpt>
      <trkpt lat="42.12885" lon="2.43773">
        <ele>496.1</ele>
        <time>2018-11-26T22:36:48Z</time>
      </trkpt>
      <trkpt lat="42.12882" lon="2.43779">
        <ele>496</ele>
        <time>2018-11-26T22:36:50Z</time>
      </trkpt>
      <trkpt lat="42.1288" lon="2.43786">
        <ele>496</ele>
        <time>2018-11-26T22:36:52Z</time>
      </trkpt>
      <trkpt lat="42.12877" lon="2.43793">
        <ele>496</ele>
        <time>2018-11-26T22:36:55Z</time>
      </trkpt>
      <trkpt lat="42.12876" lon="2.438">
        <ele>496.4</ele>
        <time>2018-11-26T22:36:57Z</time>
      </trkpt>
      <trkpt lat="42.12873" lon="2.43806">
        <ele>496.4</ele>
        <time>2018-11-26T22:36:59Z</time>
      </trkpt>
      <trkpt lat="42.1287" lon="2.43811">
        <ele>496.3</ele>
        <time>2018-11-26T22:37:01Z</time>
      </trkpt>
      <trkpt lat="42.12866" lon="2.43817">
        <ele>496.2</ele>
        <time>2018-11-26T22:37:03Z</time>
      </trkpt>
      <trkpt lat="42.12862" lon="2.43822">
        <ele>496.4</ele>
        <time>2018-11-26T22:37:05Z</time>
      </trkpt>
      <trkpt lat="42.12859" lon="2.43827">
        <ele>496.4</ele>
        <time>2018-11-26T22:37:07Z</time>
      </trkpt>
      <trkpt lat="42.12856" lon="2.43832">
        <ele>496.5</ele>
        <time>2018-11-26T22:37:09Z</time>
      </trkpt>
      <trkpt lat="42.12852" lon="2.43838">
        <ele>496.8</ele>
        <time>2018-11-26T22:37:12Z</time>
      </trkpt>
      <trkpt lat="42.12849" lon="2.43843">
        <ele>496.9</ele>
        <time>2018-11-26T22:37:13Z</time>
      </trkpt>
      <trkpt lat="42.12846" lon="2.43848">
        <ele>496.9</ele>
        <time>2018-11-26T22:37:16Z</time>
      </trkpt>
      <trkpt lat="42.12841" lon="2.43852">
        <ele>496.9</ele>
        <time>2018-11-26T22:37:18Z</time>
      </trkpt>
      <trkpt lat="42.12837" lon="2.43856">
        <ele>496.5</ele>
        <time>2018-11-26T22:37:20Z</time>
      </trkpt>
      <trkpt lat="42.12833" lon="2.4386">
        <ele>496.2</ele>
        <time>2018-11-26T22:37:22Z</time>
      </trkpt>
      <trkpt lat="42.1283" lon="2.43866">
        <ele>496.6</ele>
        <time>2018-11-26T22:37:24Z</time>
      </trkpt>
      <trkpt lat="42.12826" lon="2.4387">
        <ele>496.9</ele>
        <time>2018-11-26T22:37:26Z</time>
      </trkpt>
      <trkpt lat="42.12823" lon="2.43874">
        <ele>497.3</ele>
        <time>2018-11-26T22:37:28Z</time>
      </trkpt>
      <trkpt lat="42.12819" lon="2.43878">
        <ele>497.3</ele>
        <time>2018-11-26T22:37:30Z</time>
      </trkpt>
      <trkpt lat="42.12815" lon="2.43882">
        <ele>497.4</ele>
        <time>2018-11-26T22:37:31Z</time>
      </trkpt>
      <trkpt lat="42.12811" lon="2.43886">
        <ele>497.3</ele>
        <time>2018-11-26T22:37:34Z</time>
      </trkpt>
      <trkpt lat="42.12806" lon="2.43888">
        <ele>497.2</ele>
        <time>2018-11-26T22:37:36Z</time>
      </trkpt>
      <trkpt lat="42.12801" lon="2.43889">
        <ele>497</ele>
        <time>2018-11-26T22:37:38Z</time>
      </trkpt>
      <trkpt lat="42.12797" lon="2.43892">
        <ele>497.2</ele>
        <time>2018-11-26T22:37:40Z</time>
      </trkpt>
      <trkpt lat="42.12792" lon="2.43894">
        <ele>497.1</ele>
        <time>2018-11-26T22:37:42Z</time>
      </trkpt>
      <trkpt lat="42.12787" lon="2.43893">
        <ele>497.4</ele>
        <time>2018-11-26T22:37:44Z</time>
      </trkpt>
      <trkpt lat="42.12782" lon="2.43891">
        <ele>497.8</ele>
        <time>2018-11-26T22:37:46Z</time>
      </trkpt>
      <trkpt lat="42.1278" lon="2.43885">
        <ele>498.1</ele>
        <time>2018-11-26T22:37:48Z</time>
      </trkpt>
      <trkpt lat="42.12777" lon="2.43879">
        <ele>498.3</ele>
        <time>2018-11-26T22:37:50Z</time>
      </trkpt>
      <trkpt lat="42.12771" lon="2.43879">
        <ele>498.2</ele>
        <time>2018-11-26T22:37:52Z</time>
      </trkpt>
      <trkpt lat="42.12766" lon="2.43879">
        <ele>498.1</ele>
        <time>2018-11-26T22:37:54Z</time>
      </trkpt>
      <trkpt lat="42.12761" lon="2.4388">
        <ele>498.1</ele>
        <time>2018-11-26T22:37:56Z</time>
      </trkpt>
      <trkpt lat="42.12756" lon="2.43881">
        <ele>498.2</ele>
        <time>2018-11-26T22:37:58Z</time>
      </trkpt>
      <trkpt lat="42.12751" lon="2.4388">
        <ele>498.1</ele>
        <time>2018-11-26T22:38:00Z</time>
      </trkpt>
      <trkpt lat="42.12745" lon="2.43879">
        <ele>498.4</ele>
        <time>2018-11-26T22:38:03Z</time>
      </trkpt>
      <trkpt lat="42.1274" lon="2.43879">
        <ele>498.7</ele>
        <time>2018-11-26T22:38:05Z</time>
      </trkpt>
      <trkpt lat="42.12735" lon="2.4388">
        <ele>498.8</ele>
        <time>2018-11-26T22:38:07Z</time>
      </trkpt>
      <trkpt lat="42.1273" lon="2.43879">
        <ele>499</ele>
        <time>2018-11-26T22:38:09Z</time>
      </trkpt>
      <trkpt lat="42.12725" lon="2.4388">
        <ele>499.3</ele>
        <time>2018-11-26T22:38:11Z</time>
      </trkpt>
      <trkpt lat="42.1272" lon="2.43881">
        <ele>499.4</ele>
        <time>2018-11-26T22:38:13Z</time>
      </trkpt>
      <trkpt lat="42.12716" lon="2.43883">
        <ele>499.7</ele>
        <time>2018-11-26T22:38:15Z</time>
      </trkpt>
      <trkpt lat="42.12711" lon="2.43886">
        <ele>499.9</ele>
        <time>2018-11-26T22:38:17Z</time>
      </trkpt>
      <trkpt lat="42.12706" lon="2.43889">
        <ele>499.7</ele>
        <time>2018-11-26T22:38:19Z</time>
      </trkpt>
      <trkpt lat="42.12702" lon="2.43892">
        <ele>499.4</ele>
        <time>2018-11-26T22:38:21Z</time>
      </trkpt>
      <trkpt lat="42.12697" lon="2.43896">
        <ele>499.3</ele>
        <time>2018-11-26T22:38:23Z</time>
      </trkpt>
      <trkpt lat="42.12693" lon="2.439">
        <ele>499.6</ele>
        <time>2018-11-26T22:38:25Z</time>
      </trkpt>
      <trkpt lat="42.1269" lon="2.43906">
        <ele>499.7</ele>
        <time>2018-11-26T22:38:27Z</time>
      </trkpt>
      <trkpt lat="42.12686" lon="2.43911">
        <ele>499.7</ele>
        <time>2018-11-26T22:38:29Z</time>
      </trkpt>
      <trkpt lat="42.12684" lon="2.43917">
        <ele>499.7</ele>
        <time>2018-11-26T22:38:31Z</time>
      </trkpt>
      <trkpt lat="42.1268" lon="2.43924">
        <ele>499.4</ele>
        <time>2018-11-26T22:38:34Z</time>
      </trkpt>
      <trkpt lat="42.12677" lon="2.43929">
        <ele>499.9</ele>
        <time>2018-11-26T22:38:36Z</time>
      </trkpt>
      <trkpt lat="42.12675" lon="2.43935">
        <ele>500.1</ele>
        <time>2018-11-26T22:38:38Z</time>
      </trkpt>
      <trkpt lat="42.12672" lon="2.43941">
        <ele>500</ele>
        <time>2018-11-26T22:38:40Z</time>
      </trkpt>
      <trkpt lat="42.12669" lon="2.43947">
        <ele>499.8</ele>
        <time>2018-11-26T22:38:42Z</time>
      </trkpt>
      <trkpt lat="42.12666" lon="2.43952">
        <ele>499.6</ele>
        <time>2018-11-26T22:38:44Z</time>
      </trkpt>
      <trkpt lat="42.12663" lon="2.43958">
        <ele>499.8</ele>
        <time>2018-11-26T22:38:46Z</time>
      </trkpt>
      <trkpt lat="42.1266" lon="2.43963">
        <ele>499.7</ele>
        <time>2018-11-26T22:38:48Z</time>
      </trkpt>
      <trkpt lat="42.12655" lon="2.43965">
        <ele>499.7</ele>
        <time>2018-11-26T22:38:50Z</time>
      </trkpt>
      <trkpt lat="42.12651" lon="2.43968">
        <ele>499.9</ele>
        <time>2018-11-26T22:38:52Z</time>
      </trkpt>
      <trkpt lat="42.12647" lon="2.43971">
        <ele>499.9</ele>
        <time>2018-11-26T22:38:54Z</time>
      </trkpt>
      <trkpt lat="42.12643" lon="2.43974">
        <ele>500.2</ele>
        <time>2018-11-26T22:38:56Z</time>
      </trkpt>
      <trkpt lat="42.12639" lon="2.43975">
        <ele>499.8</ele>
        <time>2018-11-26T22:38:57Z</time>
      </trkpt>
      <trkpt lat="42.12634" lon="2.43977">
        <ele>499.6</ele>
        <time>2018-11-26T22:38:59Z</time>
      </trkpt>
      <trkpt lat="42.12628" lon="2.43979">
        <ele>499.6</ele>
        <time>2018-11-26T22:39:02Z</time>
      </trkpt>
      <trkpt lat="42.12623" lon="2.43982">
        <ele>499.5</ele>
        <time>2018-11-26T22:39:04Z</time>
      </trkpt>
      <trkpt lat="42.12619" lon="2.43985">
        <ele>499.5</ele>
        <time>2018-11-26T22:39:06Z</time>
      </trkpt>
      <trkpt lat="42.12613" lon="2.43987">
        <ele>499.6</ele>
        <time>2018-11-26T22:39:08Z</time>
      </trkpt>
      <trkpt lat="42.12608" lon="2.43989">
        <ele>499.5</ele>
        <time>2018-11-26T22:39:10Z</time>
      </trkpt>
      <trkpt lat="42.12603" lon="2.43992">
        <ele>499.6</ele>
        <time>2018-11-26T22:39:12Z</time>
      </trkpt>
      <trkpt lat="42.12598" lon="2.43994">
        <ele>499.5</ele>
        <time>2018-11-26T22:39:15Z</time>
      </trkpt>
      <trkpt lat="42.12594" lon="2.43997">
        <ele>500.1</ele>
        <time>2018-11-26T22:39:16Z</time>
      </trkpt>
      <trkpt lat="42.12589" lon="2.44">
        <ele>500.3</ele>
        <time>2018-11-26T22:39:18Z</time>
      </trkpt>
      <trkpt lat="42.12584" lon="2.44002">
        <ele>500.6</ele>
        <time>2018-11-26T22:39:21Z</time>
      </trkpt>
      <trkpt lat="42.12579" lon="2.44005">
        <ele>500.7</ele>
        <time>2018-11-26T22:39:23Z</time>
      </trkpt>
      <trkpt lat="42.12575" lon="2.44008">
        <ele>500.8</ele>
        <time>2018-11-26T22:39:25Z</time>
      </trkpt>
      <trkpt lat="42.12569" lon="2.4401">
        <ele>500.7</ele>
        <time>2018-11-26T22:39:27Z</time>
      </trkpt>
      <trkpt lat="42.12565" lon="2.44013">
        <ele>500.9</ele>
        <time>2018-11-26T22:39:29Z</time>
      </trkpt>
      <trkpt lat="42.1256" lon="2.44017">
        <ele>500.9</ele>
        <time>2018-11-26T22:39:31Z</time>
      </trkpt>
      <trkpt lat="42.12554" lon="2.44019">
        <ele>501.2</ele>
        <time>2018-11-26T22:39:34Z</time>
      </trkpt>
      <trkpt lat="42.12549" lon="2.44021">
        <ele>501.6</ele>
        <time>2018-11-26T22:39:36Z</time>
      </trkpt>
      <trkpt lat="42.12545" lon="2.44025">
        <ele>501.8</ele>
        <time>2018-11-26T22:39:38Z</time>
      </trkpt>
      <trkpt lat="42.1254" lon="2.44028">
        <ele>501.6</ele>
        <time>2018-11-26T22:39:40Z</time>
      </trkpt>
      <trkpt lat="42.12536" lon="2.44032">
        <ele>501.6</ele>
        <time>2018-11-26T22:39:42Z</time>
      </trkpt>
      <trkpt lat="42.12531" lon="2.44034">
        <ele>501.5</ele>
        <time>2018-11-26T22:39:44Z</time>
      </trkpt>
      <trkpt lat="42.12529" lon="2.4404">
        <ele>501.6</ele>
        <time>2018-11-26T22:39:46Z</time>
      </trkpt>
      <trkpt lat="42.12527" lon="2.44045">
        <ele>501.7</ele>
        <time>2018-11-26T22:39:48Z</time>
      </trkpt>
      <trkpt lat="42.12523" lon="2.4405">
        <ele>501.7</ele>
        <time>2018-11-26T22:39:50Z</time>
      </trkpt>
      <trkpt lat="42.12519" lon="2.44053">
        <ele>501.4</ele>
        <time>2018-11-26T22:39:52Z</time>
      </trkpt>
      <trkpt lat="42.12514" lon="2.44053">
        <ele>501.7</ele>
        <time>2018-11-26T22:39:54Z</time>
      </trkpt>
      <trkpt lat="42.1251" lon="2.44057">
        <ele>501.9</ele>
        <time>2018-11-26T22:39:56Z</time>
      </trkpt>
      <trkpt lat="42.12505" lon="2.4406">
        <ele>501.7</ele>
        <time>2018-11-26T22:39:58Z</time>
      </trkpt>
      <trkpt lat="42.125" lon="2.44061">
        <ele>501.8</ele>
        <time>2018-11-26T22:40:00Z</time>
      </trkpt>
      <trkpt lat="42.12496" lon="2.44064">
        <ele>501.9</ele>
        <time>2018-11-26T22:40:02Z</time>
      </trkpt>
      <trkpt lat="42.12492" lon="2.44068">
        <ele>501.8</ele>
        <time>2018-11-26T22:40:04Z</time>
      </trkpt>
      <trkpt lat="42.12492" lon="2.44076">
        <ele>501.6</ele>
        <time>2018-11-26T22:40:06Z</time>
      </trkpt>
      <trkpt lat="42.12492" lon="2.44082">
        <ele>501.4</ele>
        <time>2018-11-26T22:40:08Z</time>
      </trkpt>
      <trkpt lat="42.12492" lon="2.44089">
        <ele>501.3</ele>
        <time>2018-11-26T22:40:10Z</time>
      </trkpt>
      <trkpt lat="42.12491" lon="2.44096">
        <ele>501.4</ele>
        <time>2018-11-26T22:40:12Z</time>
      </trkpt>
      <trkpt lat="42.12491" lon="2.44102">
        <ele>501.2</ele>
        <time>2018-11-26T22:40:14Z</time>
      </trkpt>
      <trkpt lat="42.12491" lon="2.44109">
        <ele>501.2</ele>
        <time>2018-11-26T22:40:16Z</time>
      </trkpt>
      <trkpt lat="42.1249" lon="2.44116">
        <ele>501.3</ele>
        <time>2018-11-26T22:40:18Z</time>
      </trkpt>
      <trkpt lat="42.12489" lon="2.44123">
        <ele>501</ele>
        <time>2018-11-26T22:40:20Z</time>
      </trkpt>
      <trkpt lat="42.12489" lon="2.44129">
        <ele>500.9</ele>
        <time>2018-11-26T22:40:22Z</time>
      </trkpt>
      <trkpt lat="42.12489" lon="2.44137">
        <ele>501.1</ele>
        <time>2018-11-26T22:40:24Z</time>
      </trkpt>
      <trkpt lat="42.12488" lon="2.44145">
        <ele>501</ele>
        <time>2018-11-26T22:40:27Z</time>
      </trkpt>
      <trkpt lat="42.12488" lon="2.44153">
        <ele>501</ele>
        <time>2018-11-26T22:40:29Z</time>
      </trkpt>
      <trkpt lat="42.12488" lon="2.4416">
        <ele>500.9</ele>
        <time>2018-11-26T22:40:31Z</time>
      </trkpt>
      <trkpt lat="42.12488" lon="2.44167">
        <ele>501.1</ele>
        <time>2018-11-26T22:40:33Z</time>
      </trkpt>
      <trkpt lat="42.12487" lon="2.44174">
        <ele>501.5</ele>
        <time>2018-11-26T22:40:35Z</time>
      </trkpt>
      <trkpt lat="42.12486" lon="2.4418">
        <ele>502</ele>
        <time>2018-11-26T22:40:37Z</time>
      </trkpt>
      <trkpt lat="42.12487" lon="2.44188">
        <ele>502.2</ele>
        <time>2018-11-26T22:40:39Z</time>
      </trkpt>
      <trkpt lat="42.12486" lon="2.44195">
        <ele>501.9</ele>
        <time>2018-11-26T22:40:42Z</time>
      </trkpt>
      <trkpt lat="42.12486" lon="2.44203">
        <ele>501.4</ele>
        <time>2018-11-26T22:40:44Z</time>
      </trkpt>
      <trkpt lat="42.12487" lon="2.44209">
        <ele>500.8</ele>
        <time>2018-11-26T22:40:46Z</time>
      </trkpt>
      <trkpt lat="42.12486" lon="2.44215">
        <ele>500.6</ele>
        <time>2018-11-26T22:40:48Z</time>
      </trkpt>
      <trkpt lat="42.12486" lon="2.44222">
        <ele>500.3</ele>
        <time>2018-11-26T22:40:50Z</time>
      </trkpt>
      <trkpt lat="42.12485" lon="2.4423">
        <ele>499.5</ele>
        <time>2018-11-26T22:40:52Z</time>
      </trkpt>
      <trkpt lat="42.12484" lon="2.44236">
        <ele>499.5</ele>
        <time>2018-11-26T22:40:54Z</time>
      </trkpt>
      <trkpt lat="42.12483" lon="2.44243">
        <ele>499.1</ele>
        <time>2018-11-26T22:40:56Z</time>
      </trkpt>
      <trkpt lat="42.12481" lon="2.44248">
        <ele>498.3</ele>
        <time>2018-11-26T22:40:58Z</time>
      </trkpt>
      <trkpt lat="42.12476" lon="2.4425">
        <ele>497.8</ele>
        <time>2018-11-26T22:41:00Z</time>
      </trkpt>
      <trkpt lat="42.12471" lon="2.44251">
        <ele>497.6</ele>
        <time>2018-11-26T22:41:02Z</time>
      </trkpt>
      <trkpt lat="42.12466" lon="2.44253">
        <ele>497.9</ele>
        <time>2018-11-26T22:41:04Z</time>
      </trkpt>
      <trkpt lat="42.12461" lon="2.44255">
        <ele>498</ele>
        <time>2018-11-26T22:41:06Z</time>
      </trkpt>
      <trkpt lat="42.12456" lon="2.44259">
        <ele>498.2</ele>
        <time>2018-11-26T22:41:08Z</time>
      </trkpt>
      <trkpt lat="42.12451" lon="2.4426">
        <ele>498.8</ele>
        <time>2018-11-26T22:41:10Z</time>
      </trkpt>
      <trkpt lat="42.12446" lon="2.44262">
        <ele>499.1</ele>
        <time>2018-11-26T22:41:12Z</time>
      </trkpt>
      <trkpt lat="42.12441" lon="2.44263">
        <ele>499.2</ele>
        <time>2018-11-26T22:41:14Z</time>
      </trkpt>
      <trkpt lat="42.12436" lon="2.44265">
        <ele>499.4</ele>
        <time>2018-11-26T22:41:16Z</time>
      </trkpt>
      <trkpt lat="42.12431" lon="2.44266">
        <ele>499.6</ele>
        <time>2018-11-26T22:41:18Z</time>
      </trkpt>
      <trkpt lat="42.12426" lon="2.44268">
        <ele>499.7</ele>
        <time>2018-11-26T22:41:20Z</time>
      </trkpt>
      <trkpt lat="42.1242" lon="2.4427">
        <ele>499.5</ele>
        <time>2018-11-26T22:41:23Z</time>
      </trkpt>
      <trkpt lat="42.12416" lon="2.44273">
        <ele>499.4</ele>
        <time>2018-11-26T22:41:25Z</time>
      </trkpt>
      <trkpt lat="42.12412" lon="2.44276">
        <ele>499.6</ele>
        <time>2018-11-26T22:41:27Z</time>
      </trkpt>
      <trkpt lat="42.12407" lon="2.44278">
        <ele>499.6</ele>
        <time>2018-11-26T22:41:29Z</time>
      </trkpt>
      <trkpt lat="42.12402" lon="2.44279">
        <ele>499.5</ele>
        <time>2018-11-26T22:41:31Z</time>
      </trkpt>
      <trkpt lat="42.12398" lon="2.44282">
        <ele>499.5</ele>
        <time>2018-11-26T22:41:33Z</time>
      </trkpt>
      <trkpt lat="42.12392" lon="2.44284">
        <ele>499.8</ele>
        <time>2018-11-26T22:41:35Z</time>
      </trkpt>
      <trkpt lat="42.12387" lon="2.44286">
        <ele>499.9</ele>
        <time>2018-11-26T22:41:37Z</time>
      </trkpt>
      <trkpt lat="42.12382" lon="2.44289">
        <ele>500</ele>
        <time>2018-11-26T22:41:39Z</time>
      </trkpt>
      <trkpt lat="42.12378" lon="2.44291">
        <ele>500.1</ele>
        <time>2018-11-26T22:41:41Z</time>
      </trkpt>
      <trkpt lat="42.12373" lon="2.44293">
        <ele>500.2</ele>
        <time>2018-11-26T22:41:43Z</time>
      </trkpt>
      <trkpt lat="42.12367" lon="2.44294">
        <ele>500.3</ele>
        <time>2018-11-26T22:41:45Z</time>
      </trkpt>
      <trkpt lat="42.12362" lon="2.44296">
        <ele>500.5</ele>
        <time>2018-11-26T22:41:47Z</time>
      </trkpt>
      <trkpt lat="42.12358" lon="2.44297">
        <ele>500.5</ele>
        <time>2018-11-26T22:41:49Z</time>
      </trkpt>
      <trkpt lat="42.12353" lon="2.443">
        <ele>500.3</ele>
        <time>2018-11-26T22:41:51Z</time>
      </trkpt>
      <trkpt lat="42.1235" lon="2.44306">
        <ele>500.4</ele>
        <time>2018-11-26T22:41:53Z</time>
      </trkpt>
      <trkpt lat="42.12347" lon="2.44311">
        <ele>500.5</ele>
        <time>2018-11-26T22:41:55Z</time>
      </trkpt>
      <trkpt lat="42.12345" lon="2.44317">
        <ele>500.8</ele>
        <time>2018-11-26T22:41:57Z</time>
      </trkpt>
      <trkpt lat="42.12343" lon="2.44323">
        <ele>501.1</ele>
        <time>2018-11-26T22:41:59Z</time>
      </trkpt>
      <trkpt lat="42.12341" lon="2.44329">
        <ele>501.1</ele>
        <time>2018-11-26T22:42:01Z</time>
      </trkpt>
      <trkpt lat="42.12339" lon="2.44335">
        <ele>501.2</ele>
        <time>2018-11-26T22:42:03Z</time>
      </trkpt>
      <trkpt lat="42.12336" lon="2.4434">
        <ele>500.9</ele>
        <time>2018-11-26T22:42:05Z</time>
      </trkpt>
      <trkpt lat="42.12334" lon="2.44346">
        <ele>500.5</ele>
        <time>2018-11-26T22:42:07Z</time>
      </trkpt>
      <trkpt lat="42.12332" lon="2.44352">
        <ele>500.8</ele>
        <time>2018-11-26T22:42:09Z</time>
      </trkpt>
      <trkpt lat="42.12331" lon="2.44358">
        <ele>500.8</ele>
        <time>2018-11-26T22:42:11Z</time>
      </trkpt>
      <trkpt lat="42.12329" lon="2.44364">
        <ele>500.7</ele>
        <time>2018-11-26T22:42:13Z</time>
      </trkpt>
      <trkpt lat="42.12326" lon="2.4437">
        <ele>500.6</ele>
        <time>2018-11-26T22:42:15Z</time>
      </trkpt>
      <trkpt lat="42.12324" lon="2.44377">
        <ele>500.6</ele>
        <time>2018-11-26T22:42:17Z</time>
      </trkpt>
      <trkpt lat="42.12323" lon="2.44384">
        <ele>500.5</ele>
        <time>2018-11-26T22:42:19Z</time>
      </trkpt>
      <trkpt lat="42.12322" lon="2.44392">
        <ele>500.2</ele>
        <time>2018-11-26T22:42:21Z</time>
      </trkpt>
      <trkpt lat="42.12321" lon="2.44399">
        <ele>500.5</ele>
        <time>2018-11-26T22:42:24Z</time>
      </trkpt>
      <trkpt lat="42.12319" lon="2.44405">
        <ele>500.1</ele>
        <time>2018-11-26T22:42:26Z</time>
      </trkpt>
      <trkpt lat="42.12317" lon="2.44411">
        <ele>499.9</ele>
        <time>2018-11-26T22:42:28Z</time>
      </trkpt>
      <trkpt lat="42.12314" lon="2.44417">
        <ele>499.6</ele>
        <time>2018-11-26T22:42:30Z</time>
      </trkpt>
      <trkpt lat="42.12312" lon="2.44423">
        <ele>499.6</ele>
        <time>2018-11-26T22:42:32Z</time>
      </trkpt>
      <trkpt lat="42.12309" lon="2.44429">
        <ele>499.6</ele>
        <time>2018-11-26T22:42:34Z</time>
      </trkpt>
      <trkpt lat="42.12307" lon="2.44436">
        <ele>499.3</ele>
        <time>2018-11-26T22:42:36Z</time>
      </trkpt>
      <trkpt lat="42.12304" lon="2.44442">
        <ele>499</ele>
        <time>2018-11-26T22:42:38Z</time>
      </trkpt>
      <trkpt lat="42.12301" lon="2.44449">
        <ele>498.9</ele>
        <time>2018-11-26T22:42:41Z</time>
      </trkpt>
      <trkpt lat="42.12298" lon="2.44456">
        <ele>498.6</ele>
        <time>2018-11-26T22:42:43Z</time>
      </trkpt>
      <trkpt lat="42.12295" lon="2.44462">
        <ele>498.5</ele>
        <time>2018-11-26T22:42:45Z</time>
      </trkpt>
      <trkpt lat="42.12292" lon="2.44469">
        <ele>498.5</ele>
        <time>2018-11-26T22:42:48Z</time>
      </trkpt>
      <trkpt lat="42.1229" lon="2.44475">
        <ele>498.5</ele>
        <time>2018-11-26T22:42:50Z</time>
      </trkpt>
      <trkpt lat="42.12287" lon="2.44481">
        <ele>498.2</ele>
        <time>2018-11-26T22:42:52Z</time>
      </trkpt>
      <trkpt lat="42.12284" lon="2.44486">
        <ele>497.8</ele>
        <time>2018-11-26T22:42:54Z</time>
      </trkpt>
      <trkpt lat="42.12282" lon="2.44492">
        <ele>497.7</ele>
        <time>2018-11-26T22:42:56Z</time>
      </trkpt>
      <trkpt lat="42.12279" lon="2.44498">
        <ele>497.6</ele>
        <time>2018-11-26T22:42:58Z</time>
      </trkpt>
      <trkpt lat="42.12276" lon="2.44504">
        <ele>497.5</ele>
        <time>2018-11-26T22:43:00Z</time>
      </trkpt>
      <trkpt lat="42.12273" lon="2.4451">
        <ele>497.2</ele>
        <time>2018-11-26T22:43:02Z</time>
      </trkpt>
      <trkpt lat="42.12271" lon="2.44516">
        <ele>497.2</ele>
        <time>2018-11-26T22:43:04Z</time>
      </trkpt>
      <trkpt lat="42.12268" lon="2.44523">
        <ele>497.2</ele>
        <time>2018-11-26T22:43:06Z</time>
      </trkpt>
      <trkpt lat="42.12265" lon="2.44529">
        <ele>497.3</ele>
        <time>2018-11-26T22:43:08Z</time>
      </trkpt>
      <trkpt lat="42.12263" lon="2.44536">
        <ele>496.8</ele>
        <time>2018-11-26T22:43:11Z</time>
      </trkpt>
      <trkpt lat="42.1226" lon="2.44542">
        <ele>497</ele>
        <time>2018-11-26T22:43:13Z</time>
      </trkpt>
      <trkpt lat="42.12257" lon="2.44548">
        <ele>497.3</ele>
        <time>2018-11-26T22:43:15Z</time>
      </trkpt>
      <trkpt lat="42.12253" lon="2.44554">
        <ele>497.7</ele>
        <time>2018-11-26T22:43:17Z</time>
      </trkpt>
      <trkpt lat="42.12251" lon="2.44561">
        <ele>497.8</ele>
        <time>2018-11-26T22:43:20Z</time>
      </trkpt>
      <trkpt lat="42.12248" lon="2.44567">
        <ele>497.9</ele>
        <time>2018-11-26T22:43:22Z</time>
      </trkpt>
      <trkpt lat="42.12245" lon="2.44574">
        <ele>498</ele>
        <time>2018-11-26T22:43:24Z</time>
      </trkpt>
      <trkpt lat="42.12242" lon="2.4458">
        <ele>497.9</ele>
        <time>2018-11-26T22:43:26Z</time>
      </trkpt>
      <trkpt lat="42.1224" lon="2.44586">
        <ele>498.2</ele>
        <time>2018-11-26T22:43:28Z</time>
      </trkpt>
      <trkpt lat="42.12237" lon="2.44592">
        <ele>498.2</ele>
        <time>2018-11-26T22:43:30Z</time>
      </trkpt>
      <trkpt lat="42.12234" lon="2.44598">
        <ele>498.3</ele>
        <time>2018-11-26T22:43:33Z</time>
      </trkpt>
      <trkpt lat="42.12231" lon="2.44604">
        <ele>498.1</ele>
        <time>2018-11-26T22:43:35Z</time>
      </trkpt>
      <trkpt lat="42.12228" lon="2.44611">
        <ele>498</ele>
        <time>2018-11-26T22:43:37Z</time>
      </trkpt>
      <trkpt lat="42.12225" lon="2.44617">
        <ele>497.9</ele>
        <time>2018-11-26T22:43:39Z</time>
      </trkpt>
      <trkpt lat="42.12222" lon="2.44623">
        <ele>497.4</ele>
        <time>2018-11-26T22:43:41Z</time>
      </trkpt>
      <trkpt lat="42.12219" lon="2.4463">
        <ele>497.2</ele>
        <time>2018-11-26T22:43:44Z</time>
      </trkpt>
      <trkpt lat="42.12216" lon="2.44636">
        <ele>497.1</ele>
        <time>2018-11-26T22:43:46Z</time>
      </trkpt>
      <trkpt lat="42.12213" lon="2.44642">
        <ele>497</ele>
        <time>2018-11-26T22:43:48Z</time>
      </trkpt>
      <trkpt lat="42.12211" lon="2.44647">
        <ele>497.2</ele>
        <time>2018-11-26T22:43:50Z</time>
      </trkpt>
      <trkpt lat="42.12209" lon="2.44654">
        <ele>497.6</ele>
        <time>2018-11-26T22:43:52Z</time>
      </trkpt>
      <trkpt lat="42.12206" lon="2.4466">
        <ele>497.5</ele>
        <time>2018-11-26T22:43:54Z</time>
      </trkpt>
      <trkpt lat="42.12203" lon="2.44666">
        <ele>497.4</ele>
        <time>2018-11-26T22:43:56Z</time>
      </trkpt>
      <trkpt lat="42.122" lon="2.44672">
        <ele>497.1</ele>
        <time>2018-11-26T22:43:58Z</time>
      </trkpt>
      <trkpt lat="42.12197" lon="2.44677">
        <ele>497</ele>
        <time>2018-11-26T22:44:00Z</time>
      </trkpt>
      <trkpt lat="42.12195" lon="2.44684">
        <ele>496.7</ele>
        <time>2018-11-26T22:44:02Z</time>
      </trkpt>
      <trkpt lat="42.12192" lon="2.4469">
        <ele>496.6</ele>
        <time>2018-11-26T22:44:05Z</time>
      </trkpt>
      <trkpt lat="42.12189" lon="2.44697">
        <ele>496.9</ele>
        <time>2018-11-26T22:44:07Z</time>
      </trkpt>
      <trkpt lat="42.12187" lon="2.44702">
        <ele>497.1</ele>
        <time>2018-11-26T22:44:09Z</time>
      </trkpt>
      <trkpt lat="42.12184" lon="2.44709">
        <ele>496.9</ele>
        <time>2018-11-26T22:44:11Z</time>
      </trkpt>
      <trkpt lat="42.12182" lon="2.44714">
        <ele>496.5</ele>
        <time>2018-11-26T22:44:13Z</time>
      </trkpt>
      <trkpt lat="42.12179" lon="2.44721">
        <ele>496.4</ele>
        <time>2018-11-26T22:44:15Z</time>
      </trkpt>
      <trkpt lat="42.12176" lon="2.44727">
        <ele>496.5</ele>
        <time>2018-11-26T22:44:17Z</time>
      </trkpt>
      <trkpt lat="42.12173" lon="2.44733">
        <ele>496.5</ele>
        <time>2018-11-26T22:44:19Z</time>
      </trkpt>
      <trkpt lat="42.1217" lon="2.44739">
        <ele>496.3</ele>
        <time>2018-11-26T22:44:22Z</time>
      </trkpt>
      <trkpt lat="42.12167" lon="2.44745">
        <ele>496.2</ele>
        <time>2018-11-26T22:44:24Z</time>
      </trkpt>
      <trkpt lat="42.12164" lon="2.44752">
        <ele>496.5</ele>
        <time>2018-11-26T22:44:26Z</time>
      </trkpt>
      <trkpt lat="42.12161" lon="2.44758">
        <ele>496.5</ele>
        <time>2018-11-26T22:44:28Z</time>
      </trkpt>
      <trkpt lat="42.12159" lon="2.44764">
        <ele>496.4</ele>
        <time>2018-11-26T22:44:30Z</time>
      </trkpt>
      <trkpt lat="42.12155" lon="2.44771">
        <ele>496.6</ele>
        <time>2018-11-26T22:44:33Z</time>
      </trkpt>
      <trkpt lat="42.12152" lon="2.44778">
        <ele>496.4</ele>
        <time>2018-11-26T22:44:35Z</time>
      </trkpt>
      <trkpt lat="42.1215" lon="2.44785">
        <ele>496.5</ele>
        <time>2018-11-26T22:44:37Z</time>
      </trkpt>
      <trkpt lat="42.12148" lon="2.44791">
        <ele>496.4</ele>
        <time>2018-11-26T22:44:39Z</time>
      </trkpt>
      <trkpt lat="42.12146" lon="2.44797">
        <ele>496.5</ele>
        <time>2018-11-26T22:44:42Z</time>
      </trkpt>
      <trkpt lat="42.12144" lon="2.44804">
        <ele>496.4</ele>
        <time>2018-11-26T22:44:44Z</time>
      </trkpt>
      <trkpt lat="42.12143" lon="2.4481">
        <ele>496.6</ele>
        <time>2018-11-26T22:44:46Z</time>
      </trkpt>
      <trkpt lat="42.12141" lon="2.44816">
        <ele>496.6</ele>
        <time>2018-11-26T22:44:47Z</time>
      </trkpt>
      <trkpt lat="42.1214" lon="2.44822">
        <ele>496.8</ele>
        <time>2018-11-26T22:44:49Z</time>
      </trkpt>
      <trkpt lat="42.12139" lon="2.4483">
        <ele>496.9</ele>
        <time>2018-11-26T22:44:52Z</time>
      </trkpt>
      <trkpt lat="42.12137" lon="2.44837">
        <ele>497</ele>
        <time>2018-11-26T22:44:54Z</time>
      </trkpt>
      <trkpt lat="42.12136" lon="2.44844">
        <ele>497.1</ele>
        <time>2018-11-26T22:44:56Z</time>
      </trkpt>
      <trkpt lat="42.12134" lon="2.4485">
        <ele>497.3</ele>
        <time>2018-11-26T22:44:58Z</time>
      </trkpt>
      <trkpt lat="42.12133" lon="2.44857">
        <ele>497.2</ele>
        <time>2018-11-26T22:45:00Z</time>
      </trkpt>
      <trkpt lat="42.12132" lon="2.44863">
        <ele>497.4</ele>
        <time>2018-11-26T22:45:02Z</time>
      </trkpt>
      <trkpt lat="42.12131" lon="2.4487">
        <ele>497.5</ele>
        <time>2018-11-26T22:45:04Z</time>
      </trkpt>
      <trkpt lat="42.1213" lon="2.44877">
        <ele>497.7</ele>
        <time>2018-11-26T22:45:06Z</time>
      </trkpt>
      <trkpt lat="42.12129" lon="2.44885">
        <ele>497.6</ele>
        <time>2018-11-26T22:45:08Z</time>
      </trkpt>
      <trkpt lat="42.12128" lon="2.44891">
        <ele>497.8</ele>
        <time>2018-11-26T22:45:10Z</time>
      </trkpt>
      <trkpt lat="42.12127" lon="2.44899">
        <ele>497.8</ele>
        <time>2018-11-26T22:45:13Z</time>
      </trkpt>
      <trkpt lat="42.12126" lon="2.44906">
        <ele>497.4</ele>
        <time>2018-11-26T22:45:15Z</time>
      </trkpt>
      <trkpt lat="42.12128" lon="2.44913">
        <ele>497.5</ele>
        <time>2018-11-26T22:45:17Z</time>
      </trkpt>
      <trkpt lat="42.12129" lon="2.44919">
        <ele>497.4</ele>
        <time>2018-11-26T22:45:19Z</time>
      </trkpt>
      <trkpt lat="42.1213" lon="2.44925">
        <ele>497.3</ele>
        <time>2018-11-26T22:45:21Z</time>
      </trkpt>
      <trkpt lat="42.12131" lon="2.44932">
        <ele>497.4</ele>
        <time>2018-11-26T22:45:23Z</time>
      </trkpt>
      <trkpt lat="42.12131" lon="2.44938">
        <ele>497.3</ele>
        <time>2018-11-26T22:45:25Z</time>
      </trkpt>
      <trkpt lat="42.12132" lon="2.44945">
        <ele>497.1</ele>
        <time>2018-11-26T22:45:27Z</time>
      </trkpt>
      <trkpt lat="42.12134" lon="2.44951">
        <ele>497</ele>
        <time>2018-11-26T22:45:29Z</time>
      </trkpt>
      <trkpt lat="42.12135" lon="2.44958">
        <ele>497.2</ele>
        <time>2018-11-26T22:45:31Z</time>
      </trkpt>
      <trkpt lat="42.12136" lon="2.44965">
        <ele>496.8</ele>
        <time>2018-11-26T22:45:33Z</time>
      </trkpt>
      <trkpt lat="42.12138" lon="2.44972">
        <ele>496.7</ele>
        <time>2018-11-26T22:45:35Z</time>
      </trkpt>
      <trkpt lat="42.12138" lon="2.44979">
        <ele>496.7</ele>
        <time>2018-11-26T22:45:37Z</time>
      </trkpt>
      <trkpt lat="42.1214" lon="2.44986">
        <ele>496.8</ele>
        <time>2018-11-26T22:45:39Z</time>
      </trkpt>
      <trkpt lat="42.12142" lon="2.44993">
        <ele>497.3</ele>
        <time>2018-11-26T22:45:41Z</time>
      </trkpt>
      <trkpt lat="42.12142" lon="2.45">
        <ele>497.3</ele>
        <time>2018-11-26T22:45:43Z</time>
      </trkpt>
      <trkpt lat="42.12144" lon="2.45007">
        <ele>497.5</ele>
        <time>2018-11-26T22:45:46Z</time>
      </trkpt>
      <trkpt lat="42.12143" lon="2.45015">
        <ele>498</ele>
        <time>2018-11-26T22:45:48Z</time>
      </trkpt>
      <trkpt lat="42.1214" lon="2.45021">
        <ele>498.2</ele>
        <time>2018-11-26T22:45:50Z</time>
      </trkpt>
      <trkpt lat="42.12137" lon="2.45028">
        <ele>498.2</ele>
        <time>2018-11-26T22:45:53Z</time>
      </trkpt>
      <trkpt lat="42.12134" lon="2.45034">
        <ele>498.4</ele>
        <time>2018-11-26T22:45:55Z</time>
      </trkpt>
      <trkpt lat="42.12131" lon="2.4504">
        <ele>498.3</ele>
        <time>2018-11-26T22:45:57Z</time>
      </trkpt>
      <trkpt lat="42.1213" lon="2.45047">
        <ele>498.3</ele>
        <time>2018-11-26T22:45:59Z</time>
      </trkpt>
      <trkpt lat="42.12131" lon="2.45054">
        <ele>499</ele>
        <time>2018-11-26T22:46:01Z</time>
      </trkpt>
      <trkpt lat="42.12127" lon="2.45058">
        <ele>499.3</ele>
        <time>2018-11-26T22:46:03Z</time>
      </trkpt>
      <trkpt lat="42.12123" lon="2.45063">
        <ele>499.3</ele>
        <time>2018-11-26T22:46:05Z</time>
      </trkpt>
      <trkpt lat="42.12119" lon="2.45068">
        <ele>499.1</ele>
        <time>2018-11-26T22:46:07Z</time>
      </trkpt>
      <trkpt lat="42.12116" lon="2.45074">
        <ele>499.1</ele>
        <time>2018-11-26T22:46:10Z</time>
      </trkpt>
      <trkpt lat="42.12114" lon="2.45079">
        <ele>499.2</ele>
        <time>2018-11-26T22:46:11Z</time>
      </trkpt>
      <trkpt lat="42.12111" lon="2.45084">
        <ele>499.1</ele>
        <time>2018-11-26T22:46:13Z</time>
      </trkpt>
      <trkpt lat="42.12108" lon="2.4509">
        <ele>499.4</ele>
        <time>2018-11-26T22:46:15Z</time>
      </trkpt>
      <trkpt lat="42.12105" lon="2.45096">
        <ele>499.5</ele>
        <time>2018-11-26T22:46:18Z</time>
      </trkpt>
      <trkpt lat="42.12102" lon="2.45102">
        <ele>499.5</ele>
        <time>2018-11-26T22:46:20Z</time>
      </trkpt>
      <trkpt lat="42.12098" lon="2.45107">
        <ele>499.6</ele>
        <time>2018-11-26T22:46:22Z</time>
      </trkpt>
      <trkpt lat="42.12096" lon="2.45113">
        <ele>499.3</ele>
        <time>2018-11-26T22:46:24Z</time>
      </trkpt>
      <trkpt lat="42.12093" lon="2.45119">
        <ele>499</ele>
        <time>2018-11-26T22:46:26Z</time>
      </trkpt>
      <trkpt lat="42.12089" lon="2.45124">
        <ele>498.8</ele>
        <time>2018-11-26T22:46:28Z</time>
      </trkpt>
      <trkpt lat="42.12086" lon="2.45129">
        <ele>498.9</ele>
        <time>2018-11-26T22:46:30Z</time>
      </trkpt>
      <trkpt lat="42.12084" lon="2.45135">
        <ele>498.9</ele>
        <time>2018-11-26T22:46:32Z</time>
      </trkpt>
      <trkpt lat="42.12081" lon="2.45141">
        <ele>499.1</ele>
        <time>2018-11-26T22:46:34Z</time>
      </trkpt>
      <trkpt lat="42.12077" lon="2.45146">
        <ele>499.1</ele>
        <time>2018-11-26T22:46:36Z</time>
      </trkpt>
      <trkpt lat="42.12074" lon="2.45152">
        <ele>499.2</ele>
        <time>2018-11-26T22:46:38Z</time>
      </trkpt>
      <trkpt lat="42.12071" lon="2.45158">
        <ele>499.3</ele>
        <time>2018-11-26T22:46:40Z</time>
      </trkpt>
      <trkpt lat="42.12068" lon="2.45163">
        <ele>499.2</ele>
        <time>2018-11-26T22:46:42Z</time>
      </trkpt>
      <trkpt lat="42.12065" lon="2.45169">
        <ele>499.4</ele>
        <time>2018-11-26T22:46:44Z</time>
      </trkpt>
      <trkpt lat="42.12062" lon="2.45174">
        <ele>499.7</ele>
        <time>2018-11-26T22:46:46Z</time>
      </trkpt>
      <trkpt lat="42.12059" lon="2.4518">
        <ele>499.7</ele>
        <time>2018-11-26T22:46:49Z</time>
      </trkpt>
      <trkpt lat="42.12057" lon="2.45186">
        <ele>499.7</ele>
        <time>2018-11-26T22:46:50Z</time>
      </trkpt>
      <trkpt lat="42.12054" lon="2.45193">
        <ele>499.5</ele>
        <time>2018-11-26T22:46:53Z</time>
      </trkpt>
      <trkpt lat="42.12053" lon="2.452">
        <ele>499.8</ele>
        <time>2018-11-26T22:46:55Z</time>
      </trkpt>
      <trkpt lat="42.12054" lon="2.45206">
        <ele>500.1</ele>
        <time>2018-11-26T22:46:57Z</time>
      </trkpt>
      <trkpt lat="42.12054" lon="2.45212">
        <ele>500</ele>
        <time>2018-11-26T22:46:59Z</time>
      </trkpt>
      <trkpt lat="42.12052" lon="2.45218">
        <ele>500</ele>
        <time>2018-11-26T22:47:00Z</time>
      </trkpt>
      <trkpt lat="42.12048" lon="2.45223">
        <ele>500.1</ele>
        <time>2018-11-26T22:47:03Z</time>
      </trkpt>
      <trkpt lat="42.12045" lon="2.45228">
        <ele>500.2</ele>
        <time>2018-11-26T22:47:04Z</time>
      </trkpt>
      <trkpt lat="42.12043" lon="2.45234">
        <ele>500.2</ele>
        <time>2018-11-26T22:47:07Z</time>
      </trkpt>
      <trkpt lat="42.12039" lon="2.4524">
        <ele>500.2</ele>
        <time>2018-11-26T22:47:09Z</time>
      </trkpt>
      <trkpt lat="42.12035" lon="2.45244">
        <ele>500.6</ele>
        <time>2018-11-26T22:47:11Z</time>
      </trkpt>
      <trkpt lat="42.12033" lon="2.4525">
        <ele>501</ele>
        <time>2018-11-26T22:47:13Z</time>
      </trkpt>
      <trkpt lat="42.1203" lon="2.45255">
        <ele>501</ele>
        <time>2018-11-26T22:47:15Z</time>
      </trkpt>
      <trkpt lat="42.12023" lon="2.45257">
        <ele>501.1</ele>
        <time>2018-11-26T22:47:18Z</time>
      </trkpt>
      <trkpt lat="42.12018" lon="2.45265">
        <ele>501</ele>
        <time>2018-11-26T22:47:21Z</time>
      </trkpt>
      <trkpt lat="42.12013" lon="2.45269">
        <ele>501</ele>
        <time>2018-11-26T22:47:23Z</time>
      </trkpt>
      <trkpt lat="42.12009" lon="2.45272">
        <ele>501</ele>
        <time>2018-11-26T22:47:25Z</time>
      </trkpt>
      <trkpt lat="42.12004" lon="2.45276">
        <ele>501.2</ele>
        <time>2018-11-26T22:47:27Z</time>
      </trkpt>
      <trkpt lat="42.12" lon="2.45281">
        <ele>501.3</ele>
        <time>2018-11-26T22:47:29Z</time>
      </trkpt>
      <trkpt lat="42.11996" lon="2.45284">
        <ele>501.3</ele>
        <time>2018-11-26T22:47:31Z</time>
      </trkpt>
      <trkpt lat="42.11991" lon="2.45288">
        <ele>501.4</ele>
        <time>2018-11-26T22:47:33Z</time>
      </trkpt>
      <trkpt lat="42.11987" lon="2.45291">
        <ele>501.6</ele>
        <time>2018-11-26T22:47:35Z</time>
      </trkpt>
      <trkpt lat="42.11981" lon="2.45293">
        <ele>501.5</ele>
        <time>2018-11-26T22:47:38Z</time>
      </trkpt>
      <trkpt lat="42.11976" lon="2.45295">
        <ele>501.6</ele>
        <time>2018-11-26T22:47:40Z</time>
      </trkpt>
      <trkpt lat="42.11971" lon="2.45298">
        <ele>501.7</ele>
        <time>2018-11-26T22:47:42Z</time>
      </trkpt>
      <trkpt lat="42.11966" lon="2.453">
        <ele>501.5</ele>
        <time>2018-11-26T22:47:44Z</time>
      </trkpt>
      <trkpt lat="42.11962" lon="2.45302">
        <ele>501.5</ele>
        <time>2018-11-26T22:47:46Z</time>
      </trkpt>
      <trkpt lat="42.11957" lon="2.45305">
        <ele>501.7</ele>
        <time>2018-11-26T22:47:48Z</time>
      </trkpt>
      <trkpt lat="42.11953" lon="2.45308">
        <ele>501.7</ele>
        <time>2018-11-26T22:47:50Z</time>
      </trkpt>
      <trkpt lat="42.11948" lon="2.4531">
        <ele>501.6</ele>
        <time>2018-11-26T22:47:52Z</time>
      </trkpt>
      <trkpt lat="42.11943" lon="2.45313">
        <ele>501.8</ele>
        <time>2018-11-26T22:47:54Z</time>
      </trkpt>
      <trkpt lat="42.11938" lon="2.45316">
        <ele>501.6</ele>
        <time>2018-11-26T22:47:56Z</time>
      </trkpt>
      <trkpt lat="42.11933" lon="2.45319">
        <ele>501.5</ele>
        <time>2018-11-26T22:47:58Z</time>
      </trkpt>
      <trkpt lat="42.1193" lon="2.45323">
        <ele>501.6</ele>
        <time>2018-11-26T22:48:00Z</time>
      </trkpt>
      <trkpt lat="42.11925" lon="2.45326">
        <ele>501.7</ele>
        <time>2018-11-26T22:48:02Z</time>
      </trkpt>
      <trkpt lat="42.1192" lon="2.45327">
        <ele>501.6</ele>
        <time>2018-11-26T22:48:04Z</time>
      </trkpt>
      <trkpt lat="42.11915" lon="2.45329">
        <ele>492.7</ele>
        <time>2018-11-26T22:48:06Z</time>
      </trkpt>
      <trkpt lat="42.11911" lon="2.45333">
        <ele>486.2</ele>
        <time>2018-11-26T22:48:09Z</time>
      </trkpt>
      <trkpt lat="42.11906" lon="2.45335">
        <ele>484.3</ele>
        <time>2018-11-26T22:48:11Z</time>
      </trkpt>
      <trkpt lat="42.11901" lon="2.45337">
        <ele>483.3</ele>
        <time>2018-11-26T22:48:12Z</time>
      </trkpt>
      <trkpt lat="42.11896" lon="2.45339">
        <ele>483.2</ele>
        <time>2018-11-26T22:48:15Z</time>
      </trkpt>
      <trkpt lat="42.11891" lon="2.45342">
        <ele>483</ele>
        <time>2018-11-26T22:48:17Z</time>
      </trkpt>
      <trkpt lat="42.11887" lon="2.45345">
        <ele>483.1</ele>
        <time>2018-11-26T22:48:19Z</time>
      </trkpt>
      <trkpt lat="42.11883" lon="2.45347">
        <ele>483.4</ele>
        <time>2018-11-26T22:48:20Z</time>
      </trkpt>
      <trkpt lat="42.11879" lon="2.4535">
        <ele>483.4</ele>
        <time>2018-11-26T22:48:22Z</time>
      </trkpt>
      <trkpt lat="42.11874" lon="2.45352">
        <ele>483.3</ele>
        <time>2018-11-26T22:48:24Z</time>
      </trkpt>
      <trkpt lat="42.11869" lon="2.45355">
        <ele>483.3</ele>
        <time>2018-11-26T22:48:27Z</time>
      </trkpt>
      <trkpt lat="42.11864" lon="2.45358">
        <ele>483.3</ele>
        <time>2018-11-26T22:48:29Z</time>
      </trkpt>
      <trkpt lat="42.11859" lon="2.4536">
        <ele>483.2</ele>
        <time>2018-11-26T22:48:31Z</time>
      </trkpt>
      <trkpt lat="42.11854" lon="2.45363">
        <ele>483.2</ele>
        <time>2018-11-26T22:48:33Z</time>
      </trkpt>
      <trkpt lat="42.11849" lon="2.45366">
        <ele>483.6</ele>
        <time>2018-11-26T22:48:35Z</time>
      </trkpt>
      <trkpt lat="42.11845" lon="2.45369">
        <ele>483.8</ele>
        <time>2018-11-26T22:48:37Z</time>
      </trkpt>
      <trkpt lat="42.11841" lon="2.45373">
        <ele>483.6</ele>
        <time>2018-11-26T22:48:39Z</time>
      </trkpt>
      <trkpt lat="42.11836" lon="2.45376">
        <ele>483.2</ele>
        <time>2018-11-26T22:48:41Z</time>
      </trkpt>
      <trkpt lat="42.11832" lon="2.4538">
        <ele>483.1</ele>
        <time>2018-11-26T22:48:43Z</time>
      </trkpt>
      <trkpt lat="42.11827" lon="2.45383">
        <ele>483.1</ele>
        <time>2018-11-26T22:48:45Z</time>
      </trkpt>
      <trkpt lat="42.11822" lon="2.45387">
        <ele>483.1</ele>
        <time>2018-11-26T22:48:48Z</time>
      </trkpt>
      <trkpt lat="42.11817" lon="2.45389">
        <ele>483.2</ele>
        <time>2018-11-26T22:48:50Z</time>
      </trkpt>
      <trkpt lat="42.11813" lon="2.45392">
        <ele>483.1</ele>
        <time>2018-11-26T22:48:52Z</time>
      </trkpt>
      <trkpt lat="42.11809" lon="2.45396">
        <ele>483.1</ele>
        <time>2018-11-26T22:48:53Z</time>
      </trkpt>
      <trkpt lat="42.11804" lon="2.45398">
        <ele>483</ele>
        <time>2018-11-26T22:48:55Z</time>
      </trkpt>
      <trkpt lat="42.118" lon="2.454">
        <ele>483.2</ele>
        <time>2018-11-26T22:48:57Z</time>
      </trkpt>
      <trkpt lat="42.11796" lon="2.45403">
        <ele>483.3</ele>
        <time>2018-11-26T22:48:59Z</time>
      </trkpt>
      <trkpt lat="42.11791" lon="2.45406">
        <ele>483.1</ele>
        <time>2018-11-26T22:49:01Z</time>
      </trkpt>
      <trkpt lat="42.11787" lon="2.45408">
        <ele>483.2</ele>
        <time>2018-11-26T22:49:03Z</time>
      </trkpt>
      <trkpt lat="42.11783" lon="2.45412">
        <ele>483.2</ele>
        <time>2018-11-26T22:49:05Z</time>
      </trkpt>
      <trkpt lat="42.11782" lon="2.45412">
        <ele>483.2</ele>
        <time>2018-11-26T22:49:05Z</time>
      </trkpt>
    </trkseg>
  </trk>
</gpx>